<?xml version="1.0" encoding="UTF-8" standalone="no" ?>
<gpx xmlns="http://www.topografix.com/GPX/1/1" xmlns:xsi="http://www.w3.org/2001/XMLSchema-instance" xsi:schemaLocation="http://www.topografix.com/GPX/1/1 http://www.topografix.com/GPX/1/1/gpx.xsd" version="1.1" creator="VisuGPX - https://www.visugpx.com">
  <metadata>
    <name>Tour du Beaufortain 6 jours</name>
    <desc><![CDATA[Détour par le "lac" des Saisies]]></desc>
  </metadata>
  <trk>
    <name><![CDATA[tour-du-beaufortain]]></name>
    <extensions>
      <line xmlns="http://www.topografix.com/GPX/gpx_style/0/2">
        <color>00FFFF</color>
        <width>4</width>
      </line>
    </extensions>
    <trkseg>
      <trkpt lat="45.61595" lon="6.61108">
        <ele>2055.4</ele>
      </trkpt>
      <trkpt lat="45.61594" lon="6.61078">
        <ele>2062.5</ele>
      </trkpt>
      <trkpt lat="45.61603" lon="6.61062">
        <ele>2068.4</ele>
      </trkpt>
      <trkpt lat="45.616" lon="6.61037">
        <ele>2072.8</ele>
      </trkpt>
      <trkpt lat="45.61599" lon="6.61005">
        <ele>2076.9</ele>
      </trkpt>
      <trkpt lat="45.61597" lon="6.60971">
        <ele>2078.1</ele>
      </trkpt>
      <trkpt lat="45.616" lon="6.60938">
        <ele>2080.7</ele>
      </trkpt>
      <trkpt lat="45.61595" lon="6.6088">
        <ele>2079.7</ele>
      </trkpt>
      <trkpt lat="45.616" lon="6.60844">
        <ele>2078.8</ele>
      </trkpt>
      <trkpt lat="45.6161" lon="6.6083">
        <ele>2079.4</ele>
      </trkpt>
      <trkpt lat="45.61628" lon="6.60828">
        <ele>2078.6</ele>
      </trkpt>
      <trkpt lat="45.61646" lon="6.60817">
        <ele>2079</ele>
      </trkpt>
      <trkpt lat="45.61669" lon="6.60812">
        <ele>2077.2</ele>
      </trkpt>
      <trkpt lat="45.61682" lon="6.60804">
        <ele>2077.2</ele>
      </trkpt>
      <trkpt lat="45.61698" lon="6.60798">
        <ele>2076.9</ele>
      </trkpt>
      <trkpt lat="45.61711" lon="6.60804">
        <ele>2074.8</ele>
      </trkpt>
      <trkpt lat="45.61726" lon="6.60793">
        <ele>2076.8</ele>
      </trkpt>
      <trkpt lat="45.61746" lon="6.60791">
        <ele>2075</ele>
      </trkpt>
      <trkpt lat="45.61768" lon="6.60793">
        <ele>2070.5</ele>
      </trkpt>
      <trkpt lat="45.61784" lon="6.60799">
        <ele>2067.2</ele>
      </trkpt>
      <trkpt lat="45.61805" lon="6.60814">
        <ele>2065.1</ele>
      </trkpt>
      <trkpt lat="45.61826" lon="6.60809">
        <ele>2062.8</ele>
      </trkpt>
      <trkpt lat="45.61832" lon="6.60802">
        <ele>2062.7</ele>
      </trkpt>
      <trkpt lat="45.61829" lon="6.60793">
        <ele>2080</ele>
        <time>2022-07-27T08:10:11Z</time>
      </trkpt>
      <trkpt lat="45.61829" lon="6.60793">
        <ele>2080</ele>
        <time>2022-07-27T08:10:12Z</time>
      </trkpt>
      <trkpt lat="45.61829" lon="6.60793">
        <ele>2080</ele>
        <time>2022-07-27T08:10:13Z</time>
      </trkpt>
      <trkpt lat="45.61829" lon="6.60793">
        <ele>2080</ele>
        <time>2022-07-27T08:10:14Z</time>
      </trkpt>
      <trkpt lat="45.61828" lon="6.60792">
        <ele>2080</ele>
        <time>2022-07-27T08:10:15Z</time>
      </trkpt>
      <trkpt lat="45.61828" lon="6.60792">
        <ele>2080</ele>
        <time>2022-07-27T08:10:16Z</time>
      </trkpt>
      <trkpt lat="45.61827" lon="6.60792">
        <ele>2080</ele>
        <time>2022-07-27T08:10:17Z</time>
      </trkpt>
      <trkpt lat="45.61827" lon="6.60791">
        <ele>2080</ele>
        <time>2022-07-27T08:10:18Z</time>
      </trkpt>
      <trkpt lat="45.61827" lon="6.60791">
        <ele>2080</ele>
        <time>2022-07-27T08:10:19Z</time>
      </trkpt>
      <trkpt lat="45.61827" lon="6.6079">
        <ele>2080</ele>
        <time>2022-07-27T08:10:20Z</time>
      </trkpt>
      <trkpt lat="45.61826" lon="6.6079">
        <ele>2079</ele>
        <time>2022-07-27T08:10:21Z</time>
      </trkpt>
      <trkpt lat="45.61826" lon="6.60789">
        <ele>2078</ele>
        <time>2022-07-27T08:10:22Z</time>
      </trkpt>
      <trkpt lat="45.61826" lon="6.60788">
        <ele>2077</ele>
        <time>2022-07-27T08:10:23Z</time>
      </trkpt>
      <trkpt lat="45.61826" lon="6.60787">
        <ele>2068</ele>
        <time>2022-07-27T08:11:01Z</time>
      </trkpt>
      <trkpt lat="45.61826" lon="6.60786">
        <ele>2068</ele>
        <time>2022-07-27T08:11:02Z</time>
      </trkpt>
      <trkpt lat="45.61827" lon="6.60785">
        <ele>2068</ele>
        <time>2022-07-27T08:11:03Z</time>
      </trkpt>
      <trkpt lat="45.61827" lon="6.60784">
        <ele>2068</ele>
        <time>2022-07-27T08:11:04Z</time>
      </trkpt>
      <trkpt lat="45.61827" lon="6.60783">
        <ele>2068</ele>
        <time>2022-07-27T08:11:05Z</time>
      </trkpt>
      <trkpt lat="45.61826" lon="6.60782">
        <ele>2068</ele>
        <time>2022-07-27T08:11:06Z</time>
      </trkpt>
      <trkpt lat="45.61826" lon="6.60781">
        <ele>2068</ele>
        <time>2022-07-27T08:11:07Z</time>
      </trkpt>
      <trkpt lat="45.61826" lon="6.6078">
        <ele>2068</ele>
        <time>2022-07-27T08:11:08Z</time>
      </trkpt>
      <trkpt lat="45.61826" lon="6.60779">
        <ele>2068</ele>
        <time>2022-07-27T08:11:09Z</time>
      </trkpt>
      <trkpt lat="45.61827" lon="6.60777">
        <ele>2069</ele>
        <time>2022-07-27T08:11:10Z</time>
      </trkpt>
      <trkpt lat="45.61827" lon="6.60776">
        <ele>2069</ele>
        <time>2022-07-27T08:11:11Z</time>
      </trkpt>
      <trkpt lat="45.61827" lon="6.60775">
        <ele>2069</ele>
        <time>2022-07-27T08:11:12Z</time>
      </trkpt>
      <trkpt lat="45.61827" lon="6.60773">
        <ele>2069</ele>
        <time>2022-07-27T08:11:13Z</time>
      </trkpt>
      <trkpt lat="45.61827" lon="6.60772">
        <ele>2069</ele>
        <time>2022-07-27T08:11:14Z</time>
      </trkpt>
      <trkpt lat="45.61827" lon="6.60771">
        <ele>2069</ele>
        <time>2022-07-27T08:11:15Z</time>
      </trkpt>
      <trkpt lat="45.61827" lon="6.60771">
        <ele>2069</ele>
        <time>2022-07-27T08:11:16Z</time>
      </trkpt>
      <trkpt lat="45.61827" lon="6.6077">
        <ele>2069</ele>
        <time>2022-07-27T08:11:17Z</time>
      </trkpt>
      <trkpt lat="45.61827" lon="6.6077">
        <ele>2069</ele>
        <time>2022-07-27T08:11:18Z</time>
      </trkpt>
      <trkpt lat="45.61827" lon="6.6077">
        <ele>2069</ele>
        <time>2022-07-27T08:11:19Z</time>
      </trkpt>
      <trkpt lat="45.61827" lon="6.60769">
        <ele>2070</ele>
        <time>2022-07-27T08:11:20Z</time>
      </trkpt>
      <trkpt lat="45.61827" lon="6.60769">
        <ele>2070</ele>
        <time>2022-07-27T08:11:21Z</time>
      </trkpt>
      <trkpt lat="45.61827" lon="6.60768">
        <ele>2070</ele>
        <time>2022-07-27T08:11:22Z</time>
      </trkpt>
      <trkpt lat="45.61827" lon="6.60767">
        <ele>2070</ele>
        <time>2022-07-27T08:11:23Z</time>
      </trkpt>
      <trkpt lat="45.61827" lon="6.60767">
        <ele>2070</ele>
        <time>2022-07-27T08:11:24Z</time>
      </trkpt>
      <trkpt lat="45.61827" lon="6.60767">
        <ele>2070</ele>
        <time>2022-07-27T08:11:25Z</time>
      </trkpt>
      <trkpt lat="45.61827" lon="6.60766">
        <ele>2070</ele>
        <time>2022-07-27T08:11:26Z</time>
      </trkpt>
      <trkpt lat="45.61827" lon="6.60766">
        <ele>2070</ele>
        <time>2022-07-27T08:11:27Z</time>
      </trkpt>
      <trkpt lat="45.61827" lon="6.60766">
        <ele>2070</ele>
        <time>2022-07-27T08:11:28Z</time>
      </trkpt>
      <trkpt lat="45.61827" lon="6.60765">
        <ele>2070</ele>
        <time>2022-07-27T08:11:29Z</time>
      </trkpt>
      <trkpt lat="45.61827" lon="6.60764">
        <ele>2071</ele>
        <time>2022-07-27T08:11:30Z</time>
      </trkpt>
      <trkpt lat="45.61827" lon="6.60764">
        <ele>2071</ele>
        <time>2022-07-27T08:11:31Z</time>
      </trkpt>
      <trkpt lat="45.61827" lon="6.60763">
        <ele>2071</ele>
        <time>2022-07-27T08:11:32Z</time>
      </trkpt>
      <trkpt lat="45.61827" lon="6.60762">
        <ele>2071</ele>
        <time>2022-07-27T08:11:33Z</time>
      </trkpt>
      <trkpt lat="45.61826" lon="6.60761">
        <ele>2071</ele>
        <time>2022-07-27T08:11:34Z</time>
      </trkpt>
      <trkpt lat="45.61826" lon="6.60761">
        <ele>2071</ele>
        <time>2022-07-27T08:11:35Z</time>
      </trkpt>
      <trkpt lat="45.61826" lon="6.6076">
        <ele>2071</ele>
        <time>2022-07-27T08:11:36Z</time>
      </trkpt>
      <trkpt lat="45.61826" lon="6.60759">
        <ele>2071</ele>
        <time>2022-07-27T08:11:37Z</time>
      </trkpt>
      <trkpt lat="45.61826" lon="6.60758">
        <ele>2071</ele>
        <time>2022-07-27T08:11:38Z</time>
      </trkpt>
      <trkpt lat="45.61826" lon="6.60758">
        <ele>2071</ele>
        <time>2022-07-27T08:11:39Z</time>
      </trkpt>
      <trkpt lat="45.61826" lon="6.60757">
        <ele>2071</ele>
        <time>2022-07-27T08:11:40Z</time>
      </trkpt>
      <trkpt lat="45.61826" lon="6.60756">
        <ele>2071</ele>
        <time>2022-07-27T08:11:41Z</time>
      </trkpt>
      <trkpt lat="45.61826" lon="6.60755">
        <ele>2071</ele>
        <time>2022-07-27T08:11:42Z</time>
      </trkpt>
      <trkpt lat="45.61826" lon="6.60755">
        <ele>2071</ele>
        <time>2022-07-27T08:11:43Z</time>
      </trkpt>
      <trkpt lat="45.61826" lon="6.60754">
        <ele>2071</ele>
        <time>2022-07-27T08:11:44Z</time>
      </trkpt>
      <trkpt lat="45.61826" lon="6.60753">
        <ele>2071</ele>
        <time>2022-07-27T08:11:45Z</time>
      </trkpt>
      <trkpt lat="45.61826" lon="6.60752">
        <ele>2071</ele>
        <time>2022-07-27T08:11:46Z</time>
      </trkpt>
      <trkpt lat="45.61825" lon="6.60752">
        <ele>2071</ele>
        <time>2022-07-27T08:11:47Z</time>
      </trkpt>
      <trkpt lat="45.61825" lon="6.60751">
        <ele>2071</ele>
        <time>2022-07-27T08:11:48Z</time>
      </trkpt>
      <trkpt lat="45.61825" lon="6.6075">
        <ele>2071</ele>
        <time>2022-07-27T08:11:49Z</time>
      </trkpt>
      <trkpt lat="45.61825" lon="6.60749">
        <ele>2071</ele>
        <time>2022-07-27T08:11:50Z</time>
      </trkpt>
      <trkpt lat="45.61825" lon="6.60748">
        <ele>2071</ele>
        <time>2022-07-27T08:11:51Z</time>
      </trkpt>
      <trkpt lat="45.61824" lon="6.60748">
        <ele>2071</ele>
        <time>2022-07-27T08:11:52Z</time>
      </trkpt>
      <trkpt lat="45.61824" lon="6.60747">
        <ele>2071</ele>
        <time>2022-07-27T08:11:53Z</time>
      </trkpt>
      <trkpt lat="45.61824" lon="6.60746">
        <ele>2071</ele>
        <time>2022-07-27T08:11:54Z</time>
      </trkpt>
      <trkpt lat="45.61824" lon="6.60745">
        <ele>2071</ele>
        <time>2022-07-27T08:11:55Z</time>
      </trkpt>
      <trkpt lat="45.61823" lon="6.60744">
        <ele>2071</ele>
        <time>2022-07-27T08:11:56Z</time>
      </trkpt>
      <trkpt lat="45.61823" lon="6.60744">
        <ele>2071</ele>
        <time>2022-07-27T08:11:57Z</time>
      </trkpt>
      <trkpt lat="45.61823" lon="6.60743">
        <ele>2072</ele>
        <time>2022-07-27T08:11:58Z</time>
      </trkpt>
      <trkpt lat="45.61823" lon="6.60743">
        <ele>2072</ele>
        <time>2022-07-27T08:11:59Z</time>
      </trkpt>
      <trkpt lat="45.61823" lon="6.60742">
        <ele>2073</ele>
        <time>2022-07-27T08:12:00Z</time>
      </trkpt>
      <trkpt lat="45.61823" lon="6.60742">
        <ele>2073</ele>
        <time>2022-07-27T08:12:01Z</time>
      </trkpt>
      <trkpt lat="45.61823" lon="6.60741">
        <ele>2073</ele>
        <time>2022-07-27T08:12:02Z</time>
      </trkpt>
      <trkpt lat="45.61822" lon="6.6074">
        <ele>2074</ele>
        <time>2022-07-27T08:12:03Z</time>
      </trkpt>
      <trkpt lat="45.61822" lon="6.60738">
        <ele>2075</ele>
        <time>2022-07-27T08:12:15Z</time>
      </trkpt>
      <trkpt lat="45.61822" lon="6.60737">
        <ele>2075</ele>
        <time>2022-07-27T08:12:16Z</time>
      </trkpt>
      <trkpt lat="45.61822" lon="6.60737">
        <ele>2075</ele>
        <time>2022-07-27T08:12:17Z</time>
      </trkpt>
      <trkpt lat="45.61822" lon="6.60736">
        <ele>2075</ele>
        <time>2022-07-27T08:12:18Z</time>
      </trkpt>
      <trkpt lat="45.61822" lon="6.60735">
        <ele>2075</ele>
        <time>2022-07-27T08:12:19Z</time>
      </trkpt>
      <trkpt lat="45.61822" lon="6.60734">
        <ele>2075</ele>
        <time>2022-07-27T08:12:20Z</time>
      </trkpt>
      <trkpt lat="45.61821" lon="6.60733">
        <ele>2075</ele>
        <time>2022-07-27T08:12:21Z</time>
      </trkpt>
      <trkpt lat="45.61821" lon="6.60732">
        <ele>2075</ele>
        <time>2022-07-27T08:12:22Z</time>
      </trkpt>
      <trkpt lat="45.61821" lon="6.60731">
        <ele>2075</ele>
        <time>2022-07-27T08:12:23Z</time>
      </trkpt>
      <trkpt lat="45.61821" lon="6.6073">
        <ele>2075</ele>
        <time>2022-07-27T08:12:24Z</time>
      </trkpt>
      <trkpt lat="45.61821" lon="6.6073">
        <ele>2075</ele>
        <time>2022-07-27T08:12:25Z</time>
      </trkpt>
      <trkpt lat="45.61821" lon="6.60728">
        <ele>2075</ele>
        <time>2022-07-27T08:12:26Z</time>
      </trkpt>
      <trkpt lat="45.61821" lon="6.60727">
        <ele>2075</ele>
        <time>2022-07-27T08:12:27Z</time>
      </trkpt>
      <trkpt lat="45.61821" lon="6.60726">
        <ele>2075</ele>
        <time>2022-07-27T08:12:28Z</time>
      </trkpt>
      <trkpt lat="45.61821" lon="6.60725">
        <ele>2075</ele>
        <time>2022-07-27T08:12:29Z</time>
      </trkpt>
      <trkpt lat="45.61821" lon="6.60724">
        <ele>2075</ele>
        <time>2022-07-27T08:12:30Z</time>
      </trkpt>
      <trkpt lat="45.61821" lon="6.60723">
        <ele>2075</ele>
        <time>2022-07-27T08:12:31Z</time>
      </trkpt>
      <trkpt lat="45.61821" lon="6.60722">
        <ele>2075</ele>
        <time>2022-07-27T08:12:32Z</time>
      </trkpt>
      <trkpt lat="45.61821" lon="6.60721">
        <ele>2076</ele>
        <time>2022-07-27T08:12:33Z</time>
      </trkpt>
      <trkpt lat="45.61821" lon="6.6072">
        <ele>2076</ele>
        <time>2022-07-27T08:12:34Z</time>
      </trkpt>
      <trkpt lat="45.61821" lon="6.60719">
        <ele>2077</ele>
        <time>2022-07-27T08:12:35Z</time>
      </trkpt>
      <trkpt lat="45.61821" lon="6.60719">
        <ele>2077</ele>
        <time>2022-07-27T08:12:36Z</time>
      </trkpt>
      <trkpt lat="45.61821" lon="6.60718">
        <ele>2077</ele>
        <time>2022-07-27T08:12:37Z</time>
      </trkpt>
      <trkpt lat="45.61821" lon="6.60717">
        <ele>2078</ele>
        <time>2022-07-27T08:12:38Z</time>
      </trkpt>
      <trkpt lat="45.61821" lon="6.60716">
        <ele>2078</ele>
        <time>2022-07-27T08:12:39Z</time>
      </trkpt>
      <trkpt lat="45.6182" lon="6.60716">
        <ele>2079</ele>
        <time>2022-07-27T08:12:40Z</time>
      </trkpt>
      <trkpt lat="45.6182" lon="6.60715">
        <ele>2078</ele>
        <time>2022-07-27T08:12:41Z</time>
      </trkpt>
      <trkpt lat="45.6182" lon="6.60714">
        <ele>2078</ele>
        <time>2022-07-27T08:12:42Z</time>
      </trkpt>
      <trkpt lat="45.6182" lon="6.60714">
        <ele>2078</ele>
        <time>2022-07-27T08:12:43Z</time>
      </trkpt>
      <trkpt lat="45.6182" lon="6.60713">
        <ele>2078</ele>
        <time>2022-07-27T08:12:44Z</time>
      </trkpt>
      <trkpt lat="45.6182" lon="6.60712">
        <ele>2078</ele>
        <time>2022-07-27T08:12:45Z</time>
      </trkpt>
      <trkpt lat="45.6182" lon="6.60711">
        <ele>2078</ele>
        <time>2022-07-27T08:12:46Z</time>
      </trkpt>
      <trkpt lat="45.6182" lon="6.6071">
        <ele>2078</ele>
        <time>2022-07-27T08:12:47Z</time>
      </trkpt>
      <trkpt lat="45.6182" lon="6.6071">
        <ele>2078</ele>
        <time>2022-07-27T08:12:48Z</time>
      </trkpt>
      <trkpt lat="45.6182" lon="6.60709">
        <ele>2078</ele>
        <time>2022-07-27T08:12:49Z</time>
      </trkpt>
      <trkpt lat="45.6182" lon="6.60708">
        <ele>2078</ele>
        <time>2022-07-27T08:12:50Z</time>
      </trkpt>
      <trkpt lat="45.6182" lon="6.60708">
        <ele>2078</ele>
        <time>2022-07-27T08:12:51Z</time>
      </trkpt>
      <trkpt lat="45.6182" lon="6.60707">
        <ele>2078</ele>
        <time>2022-07-27T08:12:52Z</time>
      </trkpt>
      <trkpt lat="45.6182" lon="6.60706">
        <ele>2078</ele>
        <time>2022-07-27T08:12:53Z</time>
      </trkpt>
      <trkpt lat="45.6182" lon="6.60706">
        <ele>2078</ele>
        <time>2022-07-27T08:12:54Z</time>
      </trkpt>
      <trkpt lat="45.6182" lon="6.60705">
        <ele>2078</ele>
        <time>2022-07-27T08:12:55Z</time>
      </trkpt>
      <trkpt lat="45.6182" lon="6.60704">
        <ele>2078</ele>
        <time>2022-07-27T08:12:56Z</time>
      </trkpt>
      <trkpt lat="45.6182" lon="6.60703">
        <ele>2078</ele>
        <time>2022-07-27T08:12:57Z</time>
      </trkpt>
      <trkpt lat="45.6182" lon="6.60702">
        <ele>2078</ele>
        <time>2022-07-27T08:12:58Z</time>
      </trkpt>
      <trkpt lat="45.6182" lon="6.60701">
        <ele>2078</ele>
        <time>2022-07-27T08:12:59Z</time>
      </trkpt>
      <trkpt lat="45.6182" lon="6.60701">
        <ele>2079</ele>
        <time>2022-07-27T08:13:00Z</time>
      </trkpt>
      <trkpt lat="45.6182" lon="6.607">
        <ele>2079</ele>
        <time>2022-07-27T08:13:01Z</time>
      </trkpt>
      <trkpt lat="45.6182" lon="6.60699">
        <ele>2079</ele>
        <time>2022-07-27T08:13:02Z</time>
      </trkpt>
      <trkpt lat="45.6182" lon="6.60698">
        <ele>2079</ele>
        <time>2022-07-27T08:13:03Z</time>
      </trkpt>
      <trkpt lat="45.61821" lon="6.60697">
        <ele>2079</ele>
        <time>2022-07-27T08:13:04Z</time>
      </trkpt>
      <trkpt lat="45.61821" lon="6.60697">
        <ele>2079</ele>
        <time>2022-07-27T08:13:05Z</time>
      </trkpt>
      <trkpt lat="45.61822" lon="6.60696">
        <ele>2079</ele>
        <time>2022-07-27T08:13:06Z</time>
      </trkpt>
      <trkpt lat="45.61823" lon="6.60696">
        <ele>2079</ele>
        <time>2022-07-27T08:13:07Z</time>
      </trkpt>
      <trkpt lat="45.61823" lon="6.60696">
        <ele>2079</ele>
        <time>2022-07-27T08:13:08Z</time>
      </trkpt>
      <trkpt lat="45.61824" lon="6.60696">
        <ele>2079</ele>
        <time>2022-07-27T08:13:09Z</time>
      </trkpt>
      <trkpt lat="45.61824" lon="6.60695">
        <ele>2079</ele>
        <time>2022-07-27T08:13:10Z</time>
      </trkpt>
      <trkpt lat="45.61824" lon="6.60695">
        <ele>2079</ele>
        <time>2022-07-27T08:13:11Z</time>
      </trkpt>
      <trkpt lat="45.61824" lon="6.60695">
        <ele>2079</ele>
        <time>2022-07-27T08:13:12Z</time>
      </trkpt>
      <trkpt lat="45.61824" lon="6.60695">
        <ele>2079</ele>
        <time>2022-07-27T08:13:13Z</time>
      </trkpt>
      <trkpt lat="45.61824" lon="6.60694">
        <ele>2079</ele>
        <time>2022-07-27T08:13:14Z</time>
      </trkpt>
      <trkpt lat="45.61824" lon="6.60693">
        <ele>2079</ele>
        <time>2022-07-27T08:13:15Z</time>
      </trkpt>
      <trkpt lat="45.61823" lon="6.60692">
        <ele>2079</ele>
        <time>2022-07-27T08:13:16Z</time>
      </trkpt>
      <trkpt lat="45.61823" lon="6.60691">
        <ele>2079</ele>
        <time>2022-07-27T08:13:17Z</time>
      </trkpt>
      <trkpt lat="45.61822" lon="6.60691">
        <ele>2079</ele>
        <time>2022-07-27T08:13:18Z</time>
      </trkpt>
      <trkpt lat="45.61822" lon="6.6069">
        <ele>2079</ele>
        <time>2022-07-27T08:13:19Z</time>
      </trkpt>
      <trkpt lat="45.61821" lon="6.60689">
        <ele>2081</ele>
        <time>2022-07-27T08:13:25Z</time>
      </trkpt>
      <trkpt lat="45.61821" lon="6.60688">
        <ele>2081</ele>
        <time>2022-07-27T08:13:26Z</time>
      </trkpt>
      <trkpt lat="45.6182" lon="6.60688">
        <ele>2081</ele>
        <time>2022-07-27T08:13:27Z</time>
      </trkpt>
      <trkpt lat="45.6182" lon="6.60687">
        <ele>2081</ele>
        <time>2022-07-27T08:13:28Z</time>
      </trkpt>
      <trkpt lat="45.6182" lon="6.60686">
        <ele>2081</ele>
        <time>2022-07-27T08:13:29Z</time>
      </trkpt>
      <trkpt lat="45.6182" lon="6.60686">
        <ele>2082</ele>
        <time>2022-07-27T08:13:30Z</time>
      </trkpt>
      <trkpt lat="45.6182" lon="6.60685">
        <ele>2082</ele>
        <time>2022-07-27T08:13:31Z</time>
      </trkpt>
      <trkpt lat="45.6182" lon="6.60684">
        <ele>2082</ele>
        <time>2022-07-27T08:13:32Z</time>
      </trkpt>
      <trkpt lat="45.61821" lon="6.60684">
        <ele>2082</ele>
        <time>2022-07-27T08:13:33Z</time>
      </trkpt>
      <trkpt lat="45.61821" lon="6.60683">
        <ele>2082</ele>
        <time>2022-07-27T08:13:34Z</time>
      </trkpt>
      <trkpt lat="45.61821" lon="6.60682">
        <ele>2083</ele>
        <time>2022-07-27T08:13:35Z</time>
      </trkpt>
      <trkpt lat="45.61821" lon="6.60681">
        <ele>2083</ele>
        <time>2022-07-27T08:13:36Z</time>
      </trkpt>
      <trkpt lat="45.61821" lon="6.60681">
        <ele>2083</ele>
        <time>2022-07-27T08:13:37Z</time>
      </trkpt>
      <trkpt lat="45.61821" lon="6.6068">
        <ele>2083</ele>
        <time>2022-07-27T08:13:38Z</time>
      </trkpt>
      <trkpt lat="45.61821" lon="6.60679">
        <ele>2083</ele>
        <time>2022-07-27T08:13:39Z</time>
      </trkpt>
      <trkpt lat="45.61821" lon="6.60678">
        <ele>2083</ele>
        <time>2022-07-27T08:13:40Z</time>
      </trkpt>
      <trkpt lat="45.61821" lon="6.60677">
        <ele>2083</ele>
        <time>2022-07-27T08:13:41Z</time>
      </trkpt>
      <trkpt lat="45.61821" lon="6.60676">
        <ele>2083</ele>
        <time>2022-07-27T08:13:42Z</time>
      </trkpt>
      <trkpt lat="45.61821" lon="6.60676">
        <ele>2083</ele>
        <time>2022-07-27T08:13:43Z</time>
      </trkpt>
      <trkpt lat="45.61821" lon="6.60675">
        <ele>2083</ele>
        <time>2022-07-27T08:13:44Z</time>
      </trkpt>
      <trkpt lat="45.61821" lon="6.60674">
        <ele>2084</ele>
        <time>2022-07-27T08:13:45Z</time>
      </trkpt>
      <trkpt lat="45.61821" lon="6.60673">
        <ele>2083</ele>
        <time>2022-07-27T08:13:46Z</time>
      </trkpt>
      <trkpt lat="45.61821" lon="6.60672">
        <ele>2083</ele>
        <time>2022-07-27T08:13:47Z</time>
      </trkpt>
      <trkpt lat="45.61821" lon="6.60671">
        <ele>2083</ele>
        <time>2022-07-27T08:13:48Z</time>
      </trkpt>
      <trkpt lat="45.61821" lon="6.6067">
        <ele>2083</ele>
        <time>2022-07-27T08:13:49Z</time>
      </trkpt>
      <trkpt lat="45.61821" lon="6.60669">
        <ele>2083</ele>
        <time>2022-07-27T08:13:50Z</time>
      </trkpt>
      <trkpt lat="45.61821" lon="6.60669">
        <ele>2083</ele>
        <time>2022-07-27T08:13:51Z</time>
      </trkpt>
      <trkpt lat="45.61822" lon="6.60668">
        <ele>2083</ele>
        <time>2022-07-27T08:13:52Z</time>
      </trkpt>
      <trkpt lat="45.61822" lon="6.60667">
        <ele>2083</ele>
        <time>2022-07-27T08:13:53Z</time>
      </trkpt>
      <trkpt lat="45.61823" lon="6.60666">
        <ele>2083</ele>
        <time>2022-07-27T08:13:54Z</time>
      </trkpt>
      <trkpt lat="45.61823" lon="6.60666">
        <ele>2084</ele>
        <time>2022-07-27T08:13:55Z</time>
      </trkpt>
      <trkpt lat="45.61824" lon="6.60665">
        <ele>2084</ele>
        <time>2022-07-27T08:13:56Z</time>
      </trkpt>
      <trkpt lat="45.61824" lon="6.60664">
        <ele>2084</ele>
        <time>2022-07-27T08:13:57Z</time>
      </trkpt>
      <trkpt lat="45.61825" lon="6.60664">
        <ele>2084</ele>
        <time>2022-07-27T08:13:58Z</time>
      </trkpt>
      <trkpt lat="45.61825" lon="6.60663">
        <ele>2084</ele>
        <time>2022-07-27T08:13:59Z</time>
      </trkpt>
      <trkpt lat="45.61826" lon="6.60662">
        <ele>2085</ele>
        <time>2022-07-27T08:14:00Z</time>
      </trkpt>
      <trkpt lat="45.61827" lon="6.60662">
        <ele>2085</ele>
        <time>2022-07-27T08:14:01Z</time>
      </trkpt>
      <trkpt lat="45.61827" lon="6.60661">
        <ele>2085</ele>
        <time>2022-07-27T08:14:02Z</time>
      </trkpt>
      <trkpt lat="45.61828" lon="6.60661">
        <ele>2085</ele>
        <time>2022-07-27T08:14:03Z</time>
      </trkpt>
      <trkpt lat="45.61828" lon="6.6066">
        <ele>2085</ele>
        <time>2022-07-27T08:14:04Z</time>
      </trkpt>
      <trkpt lat="45.61828" lon="6.6066">
        <ele>2086</ele>
        <time>2022-07-27T08:14:05Z</time>
      </trkpt>
      <trkpt lat="45.61829" lon="6.60659">
        <ele>2086</ele>
        <time>2022-07-27T08:14:06Z</time>
      </trkpt>
      <trkpt lat="45.61829" lon="6.60658">
        <ele>2086</ele>
        <time>2022-07-27T08:14:07Z</time>
      </trkpt>
      <trkpt lat="45.61829" lon="6.60657">
        <ele>2086</ele>
        <time>2022-07-27T08:14:08Z</time>
      </trkpt>
      <trkpt lat="45.61829" lon="6.60656">
        <ele>2086</ele>
        <time>2022-07-27T08:14:09Z</time>
      </trkpt>
      <trkpt lat="45.61828" lon="6.60656">
        <ele>2087</ele>
        <time>2022-07-27T08:14:10Z</time>
      </trkpt>
      <trkpt lat="45.61828" lon="6.60655">
        <ele>2087</ele>
        <time>2022-07-27T08:14:11Z</time>
      </trkpt>
      <trkpt lat="45.61828" lon="6.60654">
        <ele>2087</ele>
        <time>2022-07-27T08:14:12Z</time>
      </trkpt>
      <trkpt lat="45.61828" lon="6.60653">
        <ele>2087</ele>
        <time>2022-07-27T08:14:13Z</time>
      </trkpt>
      <trkpt lat="45.61827" lon="6.60652">
        <ele>2087</ele>
        <time>2022-07-27T08:14:14Z</time>
      </trkpt>
      <trkpt lat="45.61827" lon="6.60652">
        <ele>2088</ele>
        <time>2022-07-27T08:14:15Z</time>
      </trkpt>
      <trkpt lat="45.61827" lon="6.60651">
        <ele>2088</ele>
        <time>2022-07-27T08:14:16Z</time>
      </trkpt>
      <trkpt lat="45.61827" lon="6.6065">
        <ele>2088</ele>
        <time>2022-07-27T08:14:17Z</time>
      </trkpt>
      <trkpt lat="45.61826" lon="6.6065">
        <ele>2088</ele>
        <time>2022-07-27T08:14:18Z</time>
      </trkpt>
      <trkpt lat="45.61826" lon="6.60649">
        <ele>2088</ele>
        <time>2022-07-27T08:14:19Z</time>
      </trkpt>
      <trkpt lat="45.61826" lon="6.60648">
        <ele>2089</ele>
        <time>2022-07-27T08:14:20Z</time>
      </trkpt>
      <trkpt lat="45.61826" lon="6.60647">
        <ele>2089</ele>
        <time>2022-07-27T08:14:21Z</time>
      </trkpt>
      <trkpt lat="45.61826" lon="6.60647">
        <ele>2089</ele>
        <time>2022-07-27T08:14:22Z</time>
      </trkpt>
      <trkpt lat="45.61825" lon="6.60644">
        <ele>2090</ele>
        <time>2022-07-27T08:14:40Z</time>
      </trkpt>
      <trkpt lat="45.61825" lon="6.60643">
        <ele>2090</ele>
        <time>2022-07-27T08:14:41Z</time>
      </trkpt>
      <trkpt lat="45.61825" lon="6.60642">
        <ele>2090</ele>
        <time>2022-07-27T08:14:42Z</time>
      </trkpt>
      <trkpt lat="45.61825" lon="6.60641">
        <ele>2090</ele>
        <time>2022-07-27T08:14:43Z</time>
      </trkpt>
      <trkpt lat="45.61825" lon="6.6064">
        <ele>2090</ele>
        <time>2022-07-27T08:14:44Z</time>
      </trkpt>
      <trkpt lat="45.61825" lon="6.60639">
        <ele>2090</ele>
        <time>2022-07-27T08:14:45Z</time>
      </trkpt>
      <trkpt lat="45.61825" lon="6.60638">
        <ele>2090</ele>
        <time>2022-07-27T08:14:46Z</time>
      </trkpt>
      <trkpt lat="45.61826" lon="6.60637">
        <ele>2090</ele>
        <time>2022-07-27T08:14:47Z</time>
      </trkpt>
      <trkpt lat="45.61826" lon="6.60636">
        <ele>2090</ele>
        <time>2022-07-27T08:14:48Z</time>
      </trkpt>
      <trkpt lat="45.61826" lon="6.60636">
        <ele>2090</ele>
        <time>2022-07-27T08:14:49Z</time>
      </trkpt>
      <trkpt lat="45.61826" lon="6.60635">
        <ele>2090</ele>
        <time>2022-07-27T08:14:50Z</time>
      </trkpt>
      <trkpt lat="45.61826" lon="6.60634">
        <ele>2090</ele>
        <time>2022-07-27T08:14:51Z</time>
      </trkpt>
      <trkpt lat="45.61826" lon="6.60633">
        <ele>2090</ele>
        <time>2022-07-27T08:14:52Z</time>
      </trkpt>
      <trkpt lat="45.61826" lon="6.60632">
        <ele>2090</ele>
        <time>2022-07-27T08:14:53Z</time>
      </trkpt>
      <trkpt lat="45.61826" lon="6.60631">
        <ele>2090</ele>
        <time>2022-07-27T08:14:54Z</time>
      </trkpt>
      <trkpt lat="45.61826" lon="6.6063">
        <ele>2090</ele>
        <time>2022-07-27T08:14:55Z</time>
      </trkpt>
      <trkpt lat="45.61826" lon="6.60629">
        <ele>2090</ele>
        <time>2022-07-27T08:14:56Z</time>
      </trkpt>
      <trkpt lat="45.61826" lon="6.60629">
        <ele>2090</ele>
        <time>2022-07-27T08:14:57Z</time>
      </trkpt>
      <trkpt lat="45.61826" lon="6.60628">
        <ele>2090</ele>
        <time>2022-07-27T08:14:58Z</time>
      </trkpt>
      <trkpt lat="45.61826" lon="6.60627">
        <ele>2090</ele>
        <time>2022-07-27T08:14:59Z</time>
      </trkpt>
      <trkpt lat="45.61825" lon="6.60626">
        <ele>2090</ele>
        <time>2022-07-27T08:15:00Z</time>
      </trkpt>
      <trkpt lat="45.61825" lon="6.60625">
        <ele>2090</ele>
        <time>2022-07-27T08:15:01Z</time>
      </trkpt>
      <trkpt lat="45.61825" lon="6.60624">
        <ele>2090</ele>
        <time>2022-07-27T08:15:02Z</time>
      </trkpt>
      <trkpt lat="45.61825" lon="6.60623">
        <ele>2090</ele>
        <time>2022-07-27T08:15:03Z</time>
      </trkpt>
      <trkpt lat="45.61825" lon="6.60622">
        <ele>2090</ele>
        <time>2022-07-27T08:15:04Z</time>
      </trkpt>
      <trkpt lat="45.61826" lon="6.60621">
        <ele>2090</ele>
        <time>2022-07-27T08:15:05Z</time>
      </trkpt>
      <trkpt lat="45.61826" lon="6.6062">
        <ele>2090</ele>
        <time>2022-07-27T08:15:06Z</time>
      </trkpt>
      <trkpt lat="45.61826" lon="6.60619">
        <ele>2090</ele>
        <time>2022-07-27T08:15:07Z</time>
      </trkpt>
      <trkpt lat="45.61826" lon="6.60618">
        <ele>2090</ele>
        <time>2022-07-27T08:15:08Z</time>
      </trkpt>
      <trkpt lat="45.61826" lon="6.60618">
        <ele>2090</ele>
        <time>2022-07-27T08:15:09Z</time>
      </trkpt>
      <trkpt lat="45.61827" lon="6.60617">
        <ele>2091</ele>
        <time>2022-07-27T08:15:10Z</time>
      </trkpt>
      <trkpt lat="45.61827" lon="6.60616">
        <ele>2091</ele>
        <time>2022-07-27T08:15:11Z</time>
      </trkpt>
      <trkpt lat="45.61827" lon="6.60615">
        <ele>2091</ele>
        <time>2022-07-27T08:15:12Z</time>
      </trkpt>
      <trkpt lat="45.61827" lon="6.60614">
        <ele>2092</ele>
        <time>2022-07-27T08:15:13Z</time>
      </trkpt>
      <trkpt lat="45.61828" lon="6.60613">
        <ele>2092</ele>
        <time>2022-07-27T08:15:14Z</time>
      </trkpt>
      <trkpt lat="45.61828" lon="6.60613">
        <ele>2093</ele>
        <time>2022-07-27T08:15:15Z</time>
      </trkpt>
      <trkpt lat="45.61828" lon="6.60612">
        <ele>2093</ele>
        <time>2022-07-27T08:15:16Z</time>
      </trkpt>
      <trkpt lat="45.61829" lon="6.60611">
        <ele>2093</ele>
        <time>2022-07-27T08:15:17Z</time>
      </trkpt>
      <trkpt lat="45.61829" lon="6.60611">
        <ele>2093</ele>
        <time>2022-07-27T08:15:18Z</time>
      </trkpt>
      <trkpt lat="45.6183" lon="6.6061">
        <ele>2093</ele>
        <time>2022-07-27T08:15:19Z</time>
      </trkpt>
      <trkpt lat="45.61831" lon="6.6061">
        <ele>2094</ele>
        <time>2022-07-27T08:15:20Z</time>
      </trkpt>
      <trkpt lat="45.61831" lon="6.60609">
        <ele>2094</ele>
        <time>2022-07-27T08:15:21Z</time>
      </trkpt>
      <trkpt lat="45.61832" lon="6.60608">
        <ele>2094</ele>
        <time>2022-07-27T08:15:22Z</time>
      </trkpt>
      <trkpt lat="45.61832" lon="6.60608">
        <ele>2094</ele>
        <time>2022-07-27T08:15:23Z</time>
      </trkpt>
      <trkpt lat="45.61833" lon="6.60607">
        <ele>2094</ele>
        <time>2022-07-27T08:15:24Z</time>
      </trkpt>
      <trkpt lat="45.61833" lon="6.60606">
        <ele>2097</ele>
        <time>2022-07-27T08:15:42Z</time>
      </trkpt>
      <trkpt lat="45.61833" lon="6.60605">
        <ele>2097</ele>
        <time>2022-07-27T08:15:43Z</time>
      </trkpt>
      <trkpt lat="45.61833" lon="6.60605">
        <ele>2097</ele>
        <time>2022-07-27T08:15:44Z</time>
      </trkpt>
      <trkpt lat="45.61834" lon="6.60604">
        <ele>2097</ele>
        <time>2022-07-27T08:15:45Z</time>
      </trkpt>
      <trkpt lat="45.61834" lon="6.60604">
        <ele>2097</ele>
        <time>2022-07-27T08:15:46Z</time>
      </trkpt>
      <trkpt lat="45.61834" lon="6.60603">
        <ele>2097</ele>
        <time>2022-07-27T08:15:47Z</time>
      </trkpt>
      <trkpt lat="45.61834" lon="6.60602">
        <ele>2097</ele>
        <time>2022-07-27T08:15:48Z</time>
      </trkpt>
      <trkpt lat="45.61834" lon="6.60601">
        <ele>2097</ele>
        <time>2022-07-27T08:15:49Z</time>
      </trkpt>
      <trkpt lat="45.61834" lon="6.606">
        <ele>2098</ele>
        <time>2022-07-27T08:15:50Z</time>
      </trkpt>
      <trkpt lat="45.61835" lon="6.60599">
        <ele>2098</ele>
        <time>2022-07-27T08:15:51Z</time>
      </trkpt>
      <trkpt lat="45.61835" lon="6.60598">
        <ele>2098</ele>
        <time>2022-07-27T08:15:52Z</time>
      </trkpt>
      <trkpt lat="45.61835" lon="6.60598">
        <ele>2098</ele>
        <time>2022-07-27T08:15:53Z</time>
      </trkpt>
      <trkpt lat="45.61835" lon="6.60597">
        <ele>2098</ele>
        <time>2022-07-27T08:15:54Z</time>
      </trkpt>
      <trkpt lat="45.61836" lon="6.60596">
        <ele>2098</ele>
        <time>2022-07-27T08:15:55Z</time>
      </trkpt>
      <trkpt lat="45.61836" lon="6.60596">
        <ele>2098</ele>
        <time>2022-07-27T08:15:56Z</time>
      </trkpt>
      <trkpt lat="45.61836" lon="6.60595">
        <ele>2098</ele>
        <time>2022-07-27T08:15:57Z</time>
      </trkpt>
      <trkpt lat="45.61837" lon="6.60594">
        <ele>2098</ele>
        <time>2022-07-27T08:15:58Z</time>
      </trkpt>
      <trkpt lat="45.61837" lon="6.60593">
        <ele>2098</ele>
        <time>2022-07-27T08:15:59Z</time>
      </trkpt>
      <trkpt lat="45.61838" lon="6.60593">
        <ele>2099</ele>
        <time>2022-07-27T08:16:00Z</time>
      </trkpt>
      <trkpt lat="45.61838" lon="6.60592">
        <ele>2099</ele>
        <time>2022-07-27T08:16:01Z</time>
      </trkpt>
      <trkpt lat="45.61838" lon="6.60592">
        <ele>2099</ele>
        <time>2022-07-27T08:16:02Z</time>
      </trkpt>
      <trkpt lat="45.61838" lon="6.60591">
        <ele>2099</ele>
        <time>2022-07-27T08:16:03Z</time>
      </trkpt>
      <trkpt lat="45.61839" lon="6.6059">
        <ele>2099</ele>
        <time>2022-07-27T08:16:04Z</time>
      </trkpt>
      <trkpt lat="45.61839" lon="6.60589">
        <ele>2099</ele>
        <time>2022-07-27T08:16:05Z</time>
      </trkpt>
      <trkpt lat="45.61839" lon="6.60588">
        <ele>2099</ele>
        <time>2022-07-27T08:16:06Z</time>
      </trkpt>
      <trkpt lat="45.61839" lon="6.60588">
        <ele>2099</ele>
        <time>2022-07-27T08:16:07Z</time>
      </trkpt>
      <trkpt lat="45.61839" lon="6.60587">
        <ele>2099</ele>
        <time>2022-07-27T08:16:08Z</time>
      </trkpt>
      <trkpt lat="45.61839" lon="6.60586">
        <ele>2099</ele>
        <time>2022-07-27T08:16:09Z</time>
      </trkpt>
      <trkpt lat="45.61839" lon="6.60586">
        <ele>2100</ele>
        <time>2022-07-27T08:16:10Z</time>
      </trkpt>
      <trkpt lat="45.6184" lon="6.60586">
        <ele>2100</ele>
        <time>2022-07-27T08:16:11Z</time>
      </trkpt>
      <trkpt lat="45.6184" lon="6.60585">
        <ele>2100</ele>
        <time>2022-07-27T08:16:12Z</time>
      </trkpt>
      <trkpt lat="45.6184" lon="6.60585">
        <ele>2100</ele>
        <time>2022-07-27T08:16:13Z</time>
      </trkpt>
      <trkpt lat="45.6184" lon="6.60584">
        <ele>2100</ele>
        <time>2022-07-27T08:16:14Z</time>
      </trkpt>
      <trkpt lat="45.6184" lon="6.60584">
        <ele>2101</ele>
        <time>2022-07-27T08:16:15Z</time>
      </trkpt>
      <trkpt lat="45.6184" lon="6.60583">
        <ele>2101</ele>
        <time>2022-07-27T08:16:16Z</time>
      </trkpt>
      <trkpt lat="45.6184" lon="6.60582">
        <ele>2101</ele>
        <time>2022-07-27T08:16:17Z</time>
      </trkpt>
      <trkpt lat="45.6184" lon="6.60581">
        <ele>2101</ele>
        <time>2022-07-27T08:16:18Z</time>
      </trkpt>
      <trkpt lat="45.6184" lon="6.6058">
        <ele>2101</ele>
        <time>2022-07-27T08:16:19Z</time>
      </trkpt>
      <trkpt lat="45.6184" lon="6.60578">
        <ele>2102</ele>
        <time>2022-07-27T08:16:20Z</time>
      </trkpt>
      <trkpt lat="45.6184" lon="6.60577">
        <ele>2102</ele>
        <time>2022-07-27T08:16:21Z</time>
      </trkpt>
      <trkpt lat="45.6184" lon="6.60576">
        <ele>2102</ele>
        <time>2022-07-27T08:16:22Z</time>
      </trkpt>
      <trkpt lat="45.61839" lon="6.60574">
        <ele>2102</ele>
        <time>2022-07-27T08:16:23Z</time>
      </trkpt>
      <trkpt lat="45.61839" lon="6.60573">
        <ele>2102</ele>
        <time>2022-07-27T08:16:24Z</time>
      </trkpt>
      <trkpt lat="45.61838" lon="6.60572">
        <ele>2102</ele>
        <time>2022-07-27T08:16:25Z</time>
      </trkpt>
      <trkpt lat="45.61838" lon="6.60571">
        <ele>2102</ele>
        <time>2022-07-27T08:16:26Z</time>
      </trkpt>
      <trkpt lat="45.61837" lon="6.60569">
        <ele>2102</ele>
        <time>2022-07-27T08:16:27Z</time>
      </trkpt>
      <trkpt lat="45.61837" lon="6.60568">
        <ele>2102</ele>
        <time>2022-07-27T08:16:28Z</time>
      </trkpt>
      <trkpt lat="45.61836" lon="6.60567">
        <ele>2102</ele>
        <time>2022-07-27T08:16:29Z</time>
      </trkpt>
      <trkpt lat="45.61836" lon="6.60566">
        <ele>2103</ele>
        <time>2022-07-27T08:16:30Z</time>
      </trkpt>
      <trkpt lat="45.61836" lon="6.60565">
        <ele>2103</ele>
        <time>2022-07-27T08:16:31Z</time>
      </trkpt>
      <trkpt lat="45.61835" lon="6.60564">
        <ele>2103</ele>
        <time>2022-07-27T08:16:32Z</time>
      </trkpt>
      <trkpt lat="45.61835" lon="6.60563">
        <ele>2103</ele>
        <time>2022-07-27T08:16:33Z</time>
      </trkpt>
      <trkpt lat="45.61834" lon="6.60562">
        <ele>2103</ele>
        <time>2022-07-27T08:16:34Z</time>
      </trkpt>
      <trkpt lat="45.61833" lon="6.60561">
        <ele>2104</ele>
        <time>2022-07-27T08:16:35Z</time>
      </trkpt>
      <trkpt lat="45.61832" lon="6.6056">
        <ele>2104</ele>
        <time>2022-07-27T08:16:36Z</time>
      </trkpt>
      <trkpt lat="45.61832" lon="6.60558">
        <ele>2104</ele>
        <time>2022-07-27T08:16:37Z</time>
      </trkpt>
      <trkpt lat="45.61831" lon="6.60557">
        <ele>2104</ele>
        <time>2022-07-27T08:16:38Z</time>
      </trkpt>
      <trkpt lat="45.6183" lon="6.60556">
        <ele>2104</ele>
        <time>2022-07-27T08:16:39Z</time>
      </trkpt>
      <trkpt lat="45.6183" lon="6.60555">
        <ele>2104</ele>
        <time>2022-07-27T08:16:40Z</time>
      </trkpt>
      <trkpt lat="45.61829" lon="6.60554">
        <ele>2104</ele>
        <time>2022-07-27T08:16:41Z</time>
      </trkpt>
      <trkpt lat="45.61828" lon="6.60553">
        <ele>2104</ele>
        <time>2022-07-27T08:16:42Z</time>
      </trkpt>
      <trkpt lat="45.61828" lon="6.60552">
        <ele>2104</ele>
        <time>2022-07-27T08:16:43Z</time>
      </trkpt>
      <trkpt lat="45.61827" lon="6.60551">
        <ele>2104</ele>
        <time>2022-07-27T08:16:44Z</time>
      </trkpt>
      <trkpt lat="45.61827" lon="6.6055">
        <ele>2104</ele>
        <time>2022-07-27T08:16:45Z</time>
      </trkpt>
      <trkpt lat="45.61826" lon="6.60549">
        <ele>2104</ele>
        <time>2022-07-27T08:16:46Z</time>
      </trkpt>
      <trkpt lat="45.61825" lon="6.60548">
        <ele>2104</ele>
        <time>2022-07-27T08:16:47Z</time>
      </trkpt>
      <trkpt lat="45.61825" lon="6.60547">
        <ele>2104</ele>
        <time>2022-07-27T08:16:48Z</time>
      </trkpt>
      <trkpt lat="45.61824" lon="6.60546">
        <ele>2104</ele>
        <time>2022-07-27T08:16:49Z</time>
      </trkpt>
      <trkpt lat="45.61823" lon="6.60545">
        <ele>2104</ele>
        <time>2022-07-27T08:16:50Z</time>
      </trkpt>
      <trkpt lat="45.61823" lon="6.60544">
        <ele>2103</ele>
        <time>2022-07-27T08:16:51Z</time>
      </trkpt>
      <trkpt lat="45.61822" lon="6.60543">
        <ele>2103</ele>
        <time>2022-07-27T08:16:52Z</time>
      </trkpt>
      <trkpt lat="45.61821" lon="6.60542">
        <ele>2103</ele>
        <time>2022-07-27T08:16:53Z</time>
      </trkpt>
      <trkpt lat="45.6182" lon="6.60542">
        <ele>2103</ele>
        <time>2022-07-27T08:16:54Z</time>
      </trkpt>
      <trkpt lat="45.61819" lon="6.60541">
        <ele>2103</ele>
        <time>2022-07-27T08:16:55Z</time>
      </trkpt>
      <trkpt lat="45.61819" lon="6.6054">
        <ele>2103</ele>
        <time>2022-07-27T08:16:56Z</time>
      </trkpt>
      <trkpt lat="45.61818" lon="6.60539">
        <ele>2103</ele>
        <time>2022-07-27T08:16:57Z</time>
      </trkpt>
      <trkpt lat="45.61817" lon="6.60538">
        <ele>2103</ele>
        <time>2022-07-27T08:16:58Z</time>
      </trkpt>
      <trkpt lat="45.61816" lon="6.60538">
        <ele>2103</ele>
        <time>2022-07-27T08:16:59Z</time>
      </trkpt>
      <trkpt lat="45.61815" lon="6.60537">
        <ele>2103</ele>
        <time>2022-07-27T08:17:00Z</time>
      </trkpt>
      <trkpt lat="45.61814" lon="6.60536">
        <ele>2102</ele>
        <time>2022-07-27T08:17:01Z</time>
      </trkpt>
      <trkpt lat="45.61813" lon="6.60536">
        <ele>2102</ele>
        <time>2022-07-27T08:17:02Z</time>
      </trkpt>
      <trkpt lat="45.61812" lon="6.60535">
        <ele>2102</ele>
        <time>2022-07-27T08:17:03Z</time>
      </trkpt>
      <trkpt lat="45.61811" lon="6.60535">
        <ele>2102</ele>
        <time>2022-07-27T08:17:04Z</time>
      </trkpt>
      <trkpt lat="45.6181" lon="6.60535">
        <ele>2102</ele>
        <time>2022-07-27T08:17:05Z</time>
      </trkpt>
      <trkpt lat="45.61809" lon="6.60534">
        <ele>2102</ele>
        <time>2022-07-27T08:17:06Z</time>
      </trkpt>
      <trkpt lat="45.61808" lon="6.60534">
        <ele>2102</ele>
        <time>2022-07-27T08:17:07Z</time>
      </trkpt>
      <trkpt lat="45.61807" lon="6.60533">
        <ele>2102</ele>
        <time>2022-07-27T08:17:08Z</time>
      </trkpt>
      <trkpt lat="45.61806" lon="6.60533">
        <ele>2102</ele>
        <time>2022-07-27T08:17:09Z</time>
      </trkpt>
      <trkpt lat="45.61805" lon="6.60533">
        <ele>2102</ele>
        <time>2022-07-27T08:17:10Z</time>
      </trkpt>
      <trkpt lat="45.61804" lon="6.60532">
        <ele>2102</ele>
        <time>2022-07-27T08:17:11Z</time>
      </trkpt>
      <trkpt lat="45.61803" lon="6.60532">
        <ele>2102</ele>
        <time>2022-07-27T08:17:12Z</time>
      </trkpt>
      <trkpt lat="45.61802" lon="6.60531">
        <ele>2102</ele>
        <time>2022-07-27T08:17:13Z</time>
      </trkpt>
      <trkpt lat="45.61801" lon="6.60531">
        <ele>2102</ele>
        <time>2022-07-27T08:17:14Z</time>
      </trkpt>
      <trkpt lat="45.618" lon="6.60531">
        <ele>2102</ele>
        <time>2022-07-27T08:17:15Z</time>
      </trkpt>
      <trkpt lat="45.61799" lon="6.6053">
        <ele>2101</ele>
        <time>2022-07-27T08:17:16Z</time>
      </trkpt>
      <trkpt lat="45.61797" lon="6.6053">
        <ele>2101</ele>
        <time>2022-07-27T08:17:17Z</time>
      </trkpt>
      <trkpt lat="45.61796" lon="6.60529">
        <ele>2101</ele>
        <time>2022-07-27T08:17:18Z</time>
      </trkpt>
      <trkpt lat="45.61795" lon="6.60529">
        <ele>2101</ele>
        <time>2022-07-27T08:17:19Z</time>
      </trkpt>
      <trkpt lat="45.61794" lon="6.60528">
        <ele>2101</ele>
        <time>2022-07-27T08:17:20Z</time>
      </trkpt>
      <trkpt lat="45.61793" lon="6.60528">
        <ele>2101</ele>
        <time>2022-07-27T08:17:21Z</time>
      </trkpt>
      <trkpt lat="45.61792" lon="6.60527">
        <ele>2101</ele>
        <time>2022-07-27T08:17:22Z</time>
      </trkpt>
      <trkpt lat="45.61791" lon="6.60526">
        <ele>2101</ele>
        <time>2022-07-27T08:17:23Z</time>
      </trkpt>
      <trkpt lat="45.6179" lon="6.60526">
        <ele>2101</ele>
        <time>2022-07-27T08:17:24Z</time>
      </trkpt>
      <trkpt lat="45.61789" lon="6.60525">
        <ele>2101</ele>
        <time>2022-07-27T08:17:25Z</time>
      </trkpt>
      <trkpt lat="45.61789" lon="6.60524">
        <ele>2101</ele>
        <time>2022-07-27T08:17:26Z</time>
      </trkpt>
      <trkpt lat="45.61788" lon="6.60523">
        <ele>2101</ele>
        <time>2022-07-27T08:17:27Z</time>
      </trkpt>
      <trkpt lat="45.61787" lon="6.60522">
        <ele>2101</ele>
        <time>2022-07-27T08:17:28Z</time>
      </trkpt>
      <trkpt lat="45.61787" lon="6.60521">
        <ele>2101</ele>
        <time>2022-07-27T08:17:29Z</time>
      </trkpt>
      <trkpt lat="45.61786" lon="6.6052">
        <ele>2101</ele>
        <time>2022-07-27T08:17:30Z</time>
      </trkpt>
      <trkpt lat="45.61785" lon="6.60518">
        <ele>2100</ele>
        <time>2022-07-27T08:17:31Z</time>
      </trkpt>
      <trkpt lat="45.61785" lon="6.60517">
        <ele>2100</ele>
        <time>2022-07-27T08:17:32Z</time>
      </trkpt>
      <trkpt lat="45.61784" lon="6.60516">
        <ele>2100</ele>
        <time>2022-07-27T08:17:33Z</time>
      </trkpt>
      <trkpt lat="45.61784" lon="6.60515">
        <ele>2100</ele>
        <time>2022-07-27T08:17:34Z</time>
      </trkpt>
      <trkpt lat="45.61783" lon="6.60513">
        <ele>2100</ele>
        <time>2022-07-27T08:17:35Z</time>
      </trkpt>
      <trkpt lat="45.61783" lon="6.60512">
        <ele>2100</ele>
        <time>2022-07-27T08:17:36Z</time>
      </trkpt>
      <trkpt lat="45.61782" lon="6.6051">
        <ele>2100</ele>
        <time>2022-07-27T08:17:37Z</time>
      </trkpt>
      <trkpt lat="45.61782" lon="6.60508">
        <ele>2101</ele>
        <time>2022-07-27T08:17:38Z</time>
      </trkpt>
      <trkpt lat="45.61781" lon="6.60507">
        <ele>2101</ele>
        <time>2022-07-27T08:17:39Z</time>
      </trkpt>
      <trkpt lat="45.61781" lon="6.60505">
        <ele>2102</ele>
        <time>2022-07-27T08:17:40Z</time>
      </trkpt>
      <trkpt lat="45.6178" lon="6.60504">
        <ele>2101</ele>
        <time>2022-07-27T08:17:41Z</time>
      </trkpt>
      <trkpt lat="45.6178" lon="6.60502">
        <ele>2101</ele>
        <time>2022-07-27T08:17:42Z</time>
      </trkpt>
      <trkpt lat="45.61779" lon="6.605">
        <ele>2101</ele>
        <time>2022-07-27T08:17:43Z</time>
      </trkpt>
      <trkpt lat="45.61779" lon="6.60499">
        <ele>2101</ele>
        <time>2022-07-27T08:17:44Z</time>
      </trkpt>
      <trkpt lat="45.61778" lon="6.60497">
        <ele>2101</ele>
        <time>2022-07-27T08:17:45Z</time>
      </trkpt>
      <trkpt lat="45.61778" lon="6.60496">
        <ele>2101</ele>
        <time>2022-07-27T08:17:46Z</time>
      </trkpt>
      <trkpt lat="45.61778" lon="6.60495">
        <ele>2101</ele>
        <time>2022-07-27T08:17:47Z</time>
      </trkpt>
      <trkpt lat="45.61777" lon="6.60493">
        <ele>2101</ele>
        <time>2022-07-27T08:17:48Z</time>
      </trkpt>
      <trkpt lat="45.61777" lon="6.60492">
        <ele>2101</ele>
        <time>2022-07-27T08:17:49Z</time>
      </trkpt>
      <trkpt lat="45.61777" lon="6.6049">
        <ele>2101</ele>
        <time>2022-07-27T08:17:50Z</time>
      </trkpt>
      <trkpt lat="45.61777" lon="6.60489">
        <ele>2101</ele>
        <time>2022-07-27T08:17:51Z</time>
      </trkpt>
      <trkpt lat="45.61777" lon="6.60487">
        <ele>2101</ele>
        <time>2022-07-27T08:17:52Z</time>
      </trkpt>
      <trkpt lat="45.61777" lon="6.60486">
        <ele>2101</ele>
        <time>2022-07-27T08:17:53Z</time>
      </trkpt>
      <trkpt lat="45.61776" lon="6.60484">
        <ele>2101</ele>
        <time>2022-07-27T08:17:54Z</time>
      </trkpt>
      <trkpt lat="45.61776" lon="6.60483">
        <ele>2101</ele>
        <time>2022-07-27T08:17:55Z</time>
      </trkpt>
      <trkpt lat="45.61776" lon="6.60481">
        <ele>2101</ele>
        <time>2022-07-27T08:17:56Z</time>
      </trkpt>
      <trkpt lat="45.61776" lon="6.6048">
        <ele>2101</ele>
        <time>2022-07-27T08:17:57Z</time>
      </trkpt>
      <trkpt lat="45.61776" lon="6.60478">
        <ele>2101</ele>
        <time>2022-07-27T08:17:58Z</time>
      </trkpt>
      <trkpt lat="45.61776" lon="6.60476">
        <ele>2101</ele>
        <time>2022-07-27T08:17:59Z</time>
      </trkpt>
      <trkpt lat="45.61776" lon="6.60475">
        <ele>2101</ele>
        <time>2022-07-27T08:18:00Z</time>
      </trkpt>
      <trkpt lat="45.61776" lon="6.60473">
        <ele>2101</ele>
        <time>2022-07-27T08:18:01Z</time>
      </trkpt>
      <trkpt lat="45.61776" lon="6.60472">
        <ele>2101</ele>
        <time>2022-07-27T08:18:02Z</time>
      </trkpt>
      <trkpt lat="45.61776" lon="6.6047">
        <ele>2101</ele>
        <time>2022-07-27T08:18:03Z</time>
      </trkpt>
      <trkpt lat="45.61776" lon="6.60468">
        <ele>2101</ele>
        <time>2022-07-27T08:18:04Z</time>
      </trkpt>
      <trkpt lat="45.61776" lon="6.60467">
        <ele>2101</ele>
        <time>2022-07-27T08:18:05Z</time>
      </trkpt>
      <trkpt lat="45.61776" lon="6.60465">
        <ele>2100</ele>
        <time>2022-07-27T08:18:06Z</time>
      </trkpt>
      <trkpt lat="45.61776" lon="6.60463">
        <ele>2100</ele>
        <time>2022-07-27T08:18:07Z</time>
      </trkpt>
      <trkpt lat="45.61776" lon="6.60462">
        <ele>2100</ele>
        <time>2022-07-27T08:18:08Z</time>
      </trkpt>
      <trkpt lat="45.61776" lon="6.6046">
        <ele>2100</ele>
        <time>2022-07-27T08:18:09Z</time>
      </trkpt>
      <trkpt lat="45.61776" lon="6.60459">
        <ele>2100</ele>
        <time>2022-07-27T08:18:10Z</time>
      </trkpt>
      <trkpt lat="45.61776" lon="6.60457">
        <ele>2100</ele>
        <time>2022-07-27T08:18:11Z</time>
      </trkpt>
      <trkpt lat="45.61776" lon="6.60455">
        <ele>2100</ele>
        <time>2022-07-27T08:18:12Z</time>
      </trkpt>
      <trkpt lat="45.61776" lon="6.60454">
        <ele>2100</ele>
        <time>2022-07-27T08:18:13Z</time>
      </trkpt>
      <trkpt lat="45.61776" lon="6.60452">
        <ele>2100</ele>
        <time>2022-07-27T08:18:14Z</time>
      </trkpt>
      <trkpt lat="45.61775" lon="6.60451">
        <ele>2100</ele>
        <time>2022-07-27T08:18:15Z</time>
      </trkpt>
      <trkpt lat="45.61775" lon="6.60449">
        <ele>2100</ele>
        <time>2022-07-27T08:18:16Z</time>
      </trkpt>
      <trkpt lat="45.61775" lon="6.60448">
        <ele>2100</ele>
        <time>2022-07-27T08:18:17Z</time>
      </trkpt>
      <trkpt lat="45.61775" lon="6.60446">
        <ele>2100</ele>
        <time>2022-07-27T08:18:18Z</time>
      </trkpt>
      <trkpt lat="45.61775" lon="6.60445">
        <ele>2100</ele>
        <time>2022-07-27T08:18:19Z</time>
      </trkpt>
      <trkpt lat="45.61775" lon="6.60443">
        <ele>2100</ele>
        <time>2022-07-27T08:18:20Z</time>
      </trkpt>
      <trkpt lat="45.61774" lon="6.60441">
        <ele>2100</ele>
        <time>2022-07-27T08:18:21Z</time>
      </trkpt>
      <trkpt lat="45.61774" lon="6.6044">
        <ele>2100</ele>
        <time>2022-07-27T08:18:22Z</time>
      </trkpt>
      <trkpt lat="45.61774" lon="6.60438">
        <ele>2100</ele>
        <time>2022-07-27T08:18:23Z</time>
      </trkpt>
      <trkpt lat="45.61773" lon="6.60437">
        <ele>2100</ele>
        <time>2022-07-27T08:18:24Z</time>
      </trkpt>
      <trkpt lat="45.61773" lon="6.60435">
        <ele>2100</ele>
        <time>2022-07-27T08:18:25Z</time>
      </trkpt>
      <trkpt lat="45.61773" lon="6.60434">
        <ele>2100</ele>
        <time>2022-07-27T08:18:26Z</time>
      </trkpt>
      <trkpt lat="45.61772" lon="6.60432">
        <ele>2100</ele>
        <time>2022-07-27T08:18:27Z</time>
      </trkpt>
      <trkpt lat="45.61772" lon="6.60431">
        <ele>2100</ele>
        <time>2022-07-27T08:18:28Z</time>
      </trkpt>
      <trkpt lat="45.61772" lon="6.60429">
        <ele>2100</ele>
        <time>2022-07-27T08:18:29Z</time>
      </trkpt>
      <trkpt lat="45.61771" lon="6.60428">
        <ele>2100</ele>
        <time>2022-07-27T08:18:30Z</time>
      </trkpt>
      <trkpt lat="45.61771" lon="6.60427">
        <ele>2100</ele>
        <time>2022-07-27T08:18:31Z</time>
      </trkpt>
      <trkpt lat="45.61771" lon="6.60426">
        <ele>2100</ele>
        <time>2022-07-27T08:18:32Z</time>
      </trkpt>
      <trkpt lat="45.6177" lon="6.60424">
        <ele>2100</ele>
        <time>2022-07-27T08:18:33Z</time>
      </trkpt>
      <trkpt lat="45.6177" lon="6.60423">
        <ele>2100</ele>
        <time>2022-07-27T08:18:34Z</time>
      </trkpt>
      <trkpt lat="45.61769" lon="6.60422">
        <ele>2101</ele>
        <time>2022-07-27T08:18:35Z</time>
      </trkpt>
      <trkpt lat="45.61768" lon="6.60421">
        <ele>2101</ele>
        <time>2022-07-27T08:18:36Z</time>
      </trkpt>
      <trkpt lat="45.61768" lon="6.6042">
        <ele>2101</ele>
        <time>2022-07-27T08:18:37Z</time>
      </trkpt>
      <trkpt lat="45.61767" lon="6.60419">
        <ele>2101</ele>
        <time>2022-07-27T08:18:38Z</time>
      </trkpt>
      <trkpt lat="45.61767" lon="6.60418">
        <ele>2101</ele>
        <time>2022-07-27T08:18:39Z</time>
      </trkpt>
      <trkpt lat="45.61766" lon="6.60417">
        <ele>2102</ele>
        <time>2022-07-27T08:18:40Z</time>
      </trkpt>
      <trkpt lat="45.61765" lon="6.60415">
        <ele>2102</ele>
        <time>2022-07-27T08:18:41Z</time>
      </trkpt>
      <trkpt lat="45.61765" lon="6.60414">
        <ele>2102</ele>
        <time>2022-07-27T08:18:42Z</time>
      </trkpt>
      <trkpt lat="45.61764" lon="6.60413">
        <ele>2102</ele>
        <time>2022-07-27T08:18:43Z</time>
      </trkpt>
      <trkpt lat="45.61764" lon="6.60413">
        <ele>2102</ele>
        <time>2022-07-27T08:18:44Z</time>
      </trkpt>
      <trkpt lat="45.61763" lon="6.60412">
        <ele>2102</ele>
        <time>2022-07-27T08:18:45Z</time>
      </trkpt>
      <trkpt lat="45.61763" lon="6.60411">
        <ele>2102</ele>
        <time>2022-07-27T08:18:46Z</time>
      </trkpt>
      <trkpt lat="45.61762" lon="6.6041">
        <ele>2102</ele>
        <time>2022-07-27T08:18:47Z</time>
      </trkpt>
      <trkpt lat="45.61761" lon="6.60409">
        <ele>2102</ele>
        <time>2022-07-27T08:18:48Z</time>
      </trkpt>
      <trkpt lat="45.61761" lon="6.60408">
        <ele>2102</ele>
        <time>2022-07-27T08:18:49Z</time>
      </trkpt>
      <trkpt lat="45.6176" lon="6.60407">
        <ele>2102</ele>
        <time>2022-07-27T08:18:50Z</time>
      </trkpt>
      <trkpt lat="45.6176" lon="6.60406">
        <ele>2102</ele>
        <time>2022-07-27T08:18:51Z</time>
      </trkpt>
      <trkpt lat="45.61759" lon="6.60405">
        <ele>2102</ele>
        <time>2022-07-27T08:18:52Z</time>
      </trkpt>
      <trkpt lat="45.61758" lon="6.60403">
        <ele>2103</ele>
        <time>2022-07-27T08:18:53Z</time>
      </trkpt>
      <trkpt lat="45.61758" lon="6.60402">
        <ele>2103</ele>
        <time>2022-07-27T08:18:54Z</time>
      </trkpt>
      <trkpt lat="45.61757" lon="6.60401">
        <ele>2104</ele>
        <time>2022-07-27T08:18:55Z</time>
      </trkpt>
      <trkpt lat="45.61756" lon="6.604">
        <ele>2104</ele>
        <time>2022-07-27T08:18:56Z</time>
      </trkpt>
      <trkpt lat="45.61756" lon="6.60399">
        <ele>2104</ele>
        <time>2022-07-27T08:18:57Z</time>
      </trkpt>
      <trkpt lat="45.61755" lon="6.60399">
        <ele>2104</ele>
        <time>2022-07-27T08:18:58Z</time>
      </trkpt>
      <trkpt lat="45.61755" lon="6.60398">
        <ele>2104</ele>
        <time>2022-07-27T08:18:59Z</time>
      </trkpt>
      <trkpt lat="45.61754" lon="6.60397">
        <ele>2104</ele>
        <time>2022-07-27T08:19:00Z</time>
      </trkpt>
      <trkpt lat="45.61754" lon="6.60396">
        <ele>2104</ele>
        <time>2022-07-27T08:19:01Z</time>
      </trkpt>
      <trkpt lat="45.61753" lon="6.60395">
        <ele>2104</ele>
        <time>2022-07-27T08:19:02Z</time>
      </trkpt>
      <trkpt lat="45.61752" lon="6.60394">
        <ele>2104</ele>
        <time>2022-07-27T08:19:03Z</time>
      </trkpt>
      <trkpt lat="45.61752" lon="6.60393">
        <ele>2104</ele>
        <time>2022-07-27T08:19:04Z</time>
      </trkpt>
      <trkpt lat="45.61751" lon="6.60392">
        <ele>2104</ele>
        <time>2022-07-27T08:19:05Z</time>
      </trkpt>
      <trkpt lat="45.61751" lon="6.6039">
        <ele>2104</ele>
        <time>2022-07-27T08:19:06Z</time>
      </trkpt>
      <trkpt lat="45.6175" lon="6.60389">
        <ele>2104</ele>
        <time>2022-07-27T08:19:07Z</time>
      </trkpt>
      <trkpt lat="45.6175" lon="6.60388">
        <ele>2104</ele>
        <time>2022-07-27T08:19:08Z</time>
      </trkpt>
      <trkpt lat="45.61749" lon="6.60387">
        <ele>2104</ele>
        <time>2022-07-27T08:19:09Z</time>
      </trkpt>
      <trkpt lat="45.61748" lon="6.60386">
        <ele>2104</ele>
        <time>2022-07-27T08:19:10Z</time>
      </trkpt>
      <trkpt lat="45.61748" lon="6.60386">
        <ele>2104</ele>
        <time>2022-07-27T08:19:11Z</time>
      </trkpt>
      <trkpt lat="45.61747" lon="6.60385">
        <ele>2104</ele>
        <time>2022-07-27T08:19:12Z</time>
      </trkpt>
      <trkpt lat="45.61747" lon="6.60384">
        <ele>2104</ele>
        <time>2022-07-27T08:19:13Z</time>
      </trkpt>
      <trkpt lat="45.61746" lon="6.60383">
        <ele>2104</ele>
        <time>2022-07-27T08:19:14Z</time>
      </trkpt>
      <trkpt lat="45.61746" lon="6.60382">
        <ele>2105</ele>
        <time>2022-07-27T08:19:15Z</time>
      </trkpt>
      <trkpt lat="45.61745" lon="6.60381">
        <ele>2105</ele>
        <time>2022-07-27T08:19:16Z</time>
      </trkpt>
      <trkpt lat="45.61745" lon="6.6038">
        <ele>2105</ele>
        <time>2022-07-27T08:19:17Z</time>
      </trkpt>
      <trkpt lat="45.61744" lon="6.60379">
        <ele>2105</ele>
        <time>2022-07-27T08:19:18Z</time>
      </trkpt>
      <trkpt lat="45.61744" lon="6.60378">
        <ele>2105</ele>
        <time>2022-07-27T08:19:19Z</time>
      </trkpt>
      <trkpt lat="45.61744" lon="6.60376">
        <ele>2105</ele>
        <time>2022-07-27T08:19:20Z</time>
      </trkpt>
      <trkpt lat="45.61743" lon="6.60375">
        <ele>2105</ele>
        <time>2022-07-27T08:19:21Z</time>
      </trkpt>
      <trkpt lat="45.61743" lon="6.60373">
        <ele>2105</ele>
        <time>2022-07-27T08:19:22Z</time>
      </trkpt>
      <trkpt lat="45.61743" lon="6.60372">
        <ele>2105</ele>
        <time>2022-07-27T08:19:23Z</time>
      </trkpt>
      <trkpt lat="45.61743" lon="6.6037">
        <ele>2105</ele>
        <time>2022-07-27T08:19:24Z</time>
      </trkpt>
      <trkpt lat="45.61744" lon="6.60368">
        <ele>2105</ele>
        <time>2022-07-27T08:19:25Z</time>
      </trkpt>
      <trkpt lat="45.61744" lon="6.60366">
        <ele>2104</ele>
        <time>2022-07-27T08:19:26Z</time>
      </trkpt>
      <trkpt lat="45.61744" lon="6.60364">
        <ele>2104</ele>
        <time>2022-07-27T08:19:27Z</time>
      </trkpt>
      <trkpt lat="45.61744" lon="6.60363">
        <ele>2104</ele>
        <time>2022-07-27T08:19:28Z</time>
      </trkpt>
      <trkpt lat="45.61744" lon="6.60361">
        <ele>2104</ele>
        <time>2022-07-27T08:19:29Z</time>
      </trkpt>
      <trkpt lat="45.61744" lon="6.60359">
        <ele>2104</ele>
        <time>2022-07-27T08:19:30Z</time>
      </trkpt>
      <trkpt lat="45.61744" lon="6.60358">
        <ele>2103</ele>
        <time>2022-07-27T08:19:31Z</time>
      </trkpt>
      <trkpt lat="45.61744" lon="6.60356">
        <ele>2103</ele>
        <time>2022-07-27T08:19:32Z</time>
      </trkpt>
      <trkpt lat="45.61744" lon="6.60354">
        <ele>2102</ele>
        <time>2022-07-27T08:19:33Z</time>
      </trkpt>
      <trkpt lat="45.61744" lon="6.60353">
        <ele>2102</ele>
        <time>2022-07-27T08:19:34Z</time>
      </trkpt>
      <trkpt lat="45.61743" lon="6.60351">
        <ele>2102</ele>
        <time>2022-07-27T08:19:35Z</time>
      </trkpt>
      <trkpt lat="45.61743" lon="6.6035">
        <ele>2102</ele>
        <time>2022-07-27T08:19:36Z</time>
      </trkpt>
      <trkpt lat="45.61743" lon="6.60348">
        <ele>2102</ele>
        <time>2022-07-27T08:19:37Z</time>
      </trkpt>
      <trkpt lat="45.61743" lon="6.60347">
        <ele>2102</ele>
        <time>2022-07-27T08:19:38Z</time>
      </trkpt>
      <trkpt lat="45.61743" lon="6.60345">
        <ele>2102</ele>
        <time>2022-07-27T08:19:39Z</time>
      </trkpt>
      <trkpt lat="45.61743" lon="6.60343">
        <ele>2102</ele>
        <time>2022-07-27T08:19:40Z</time>
      </trkpt>
      <trkpt lat="45.61743" lon="6.60342">
        <ele>2102</ele>
        <time>2022-07-27T08:19:41Z</time>
      </trkpt>
      <trkpt lat="45.61743" lon="6.6034">
        <ele>2102</ele>
        <time>2022-07-27T08:19:42Z</time>
      </trkpt>
      <trkpt lat="45.61743" lon="6.60339">
        <ele>2102</ele>
        <time>2022-07-27T08:19:43Z</time>
      </trkpt>
      <trkpt lat="45.61743" lon="6.60337">
        <ele>2102</ele>
        <time>2022-07-27T08:19:44Z</time>
      </trkpt>
      <trkpt lat="45.61743" lon="6.60335">
        <ele>2102</ele>
        <time>2022-07-27T08:19:45Z</time>
      </trkpt>
      <trkpt lat="45.61743" lon="6.60334">
        <ele>2102</ele>
        <time>2022-07-27T08:19:46Z</time>
      </trkpt>
      <trkpt lat="45.61743" lon="6.60332">
        <ele>2102</ele>
        <time>2022-07-27T08:19:47Z</time>
      </trkpt>
      <trkpt lat="45.61742" lon="6.60331">
        <ele>2102</ele>
        <time>2022-07-27T08:19:48Z</time>
      </trkpt>
      <trkpt lat="45.61742" lon="6.60329">
        <ele>2102</ele>
        <time>2022-07-27T08:19:49Z</time>
      </trkpt>
      <trkpt lat="45.61742" lon="6.60328">
        <ele>2102</ele>
        <time>2022-07-27T08:19:50Z</time>
      </trkpt>
      <trkpt lat="45.61741" lon="6.60327">
        <ele>2102</ele>
        <time>2022-07-27T08:19:51Z</time>
      </trkpt>
      <trkpt lat="45.61741" lon="6.60325">
        <ele>2102</ele>
        <time>2022-07-27T08:19:52Z</time>
      </trkpt>
      <trkpt lat="45.6174" lon="6.60324">
        <ele>2102</ele>
        <time>2022-07-27T08:19:53Z</time>
      </trkpt>
      <trkpt lat="45.6174" lon="6.60323">
        <ele>2102</ele>
        <time>2022-07-27T08:19:54Z</time>
      </trkpt>
      <trkpt lat="45.61739" lon="6.60322">
        <ele>2102</ele>
        <time>2022-07-27T08:19:55Z</time>
      </trkpt>
      <trkpt lat="45.61738" lon="6.60321">
        <ele>2102</ele>
        <time>2022-07-27T08:19:56Z</time>
      </trkpt>
      <trkpt lat="45.61737" lon="6.6032">
        <ele>2102</ele>
        <time>2022-07-27T08:19:57Z</time>
      </trkpt>
      <trkpt lat="45.61737" lon="6.60319">
        <ele>2102</ele>
        <time>2022-07-27T08:19:58Z</time>
      </trkpt>
      <trkpt lat="45.61736" lon="6.60318">
        <ele>2102</ele>
        <time>2022-07-27T08:19:59Z</time>
      </trkpt>
      <trkpt lat="45.61735" lon="6.60317">
        <ele>2102</ele>
        <time>2022-07-27T08:20:00Z</time>
      </trkpt>
      <trkpt lat="45.61734" lon="6.60317">
        <ele>2102</ele>
        <time>2022-07-27T08:20:01Z</time>
      </trkpt>
      <trkpt lat="45.61733" lon="6.60316">
        <ele>2102</ele>
        <time>2022-07-27T08:20:02Z</time>
      </trkpt>
      <trkpt lat="45.61732" lon="6.60315">
        <ele>2103</ele>
        <time>2022-07-27T08:20:03Z</time>
      </trkpt>
      <trkpt lat="45.61731" lon="6.60314">
        <ele>2103</ele>
        <time>2022-07-27T08:20:04Z</time>
      </trkpt>
      <trkpt lat="45.6173" lon="6.60313">
        <ele>2104</ele>
        <time>2022-07-27T08:20:05Z</time>
      </trkpt>
      <trkpt lat="45.61729" lon="6.60313">
        <ele>2104</ele>
        <time>2022-07-27T08:20:06Z</time>
      </trkpt>
      <trkpt lat="45.61728" lon="6.60312">
        <ele>2104</ele>
        <time>2022-07-27T08:20:07Z</time>
      </trkpt>
      <trkpt lat="45.61728" lon="6.60313">
        <ele>2105</ele>
        <time>2022-07-27T08:22:59Z</time>
      </trkpt>
      <trkpt lat="45.61728" lon="6.60313">
        <ele>2105</ele>
        <time>2022-07-27T08:23:00Z</time>
      </trkpt>
      <trkpt lat="45.61727" lon="6.60313">
        <ele>2105</ele>
        <time>2022-07-27T08:23:01Z</time>
      </trkpt>
      <trkpt lat="45.61727" lon="6.60312">
        <ele>2105</ele>
        <time>2022-07-27T08:23:02Z</time>
      </trkpt>
      <trkpt lat="45.61727" lon="6.60312">
        <ele>2105</ele>
        <time>2022-07-27T08:23:03Z</time>
      </trkpt>
      <trkpt lat="45.61726" lon="6.60311">
        <ele>2105</ele>
        <time>2022-07-27T08:23:04Z</time>
      </trkpt>
      <trkpt lat="45.61726" lon="6.6031">
        <ele>2105</ele>
        <time>2022-07-27T08:23:05Z</time>
      </trkpt>
      <trkpt lat="45.61726" lon="6.60309">
        <ele>2105</ele>
        <time>2022-07-27T08:23:06Z</time>
      </trkpt>
      <trkpt lat="45.61725" lon="6.60307">
        <ele>2105</ele>
        <time>2022-07-27T08:23:07Z</time>
      </trkpt>
      <trkpt lat="45.61725" lon="6.60306">
        <ele>2105</ele>
        <time>2022-07-27T08:23:08Z</time>
      </trkpt>
      <trkpt lat="45.61724" lon="6.60305">
        <ele>2105</ele>
        <time>2022-07-27T08:23:09Z</time>
      </trkpt>
      <trkpt lat="45.61724" lon="6.60303">
        <ele>2105</ele>
        <time>2022-07-27T08:23:10Z</time>
      </trkpt>
      <trkpt lat="45.61723" lon="6.60302">
        <ele>2105</ele>
        <time>2022-07-27T08:23:11Z</time>
      </trkpt>
      <trkpt lat="45.61723" lon="6.60301">
        <ele>2105</ele>
        <time>2022-07-27T08:23:12Z</time>
      </trkpt>
      <trkpt lat="45.61722" lon="6.603">
        <ele>2106</ele>
        <time>2022-07-27T08:23:13Z</time>
      </trkpt>
      <trkpt lat="45.61722" lon="6.60299">
        <ele>2106</ele>
        <time>2022-07-27T08:23:14Z</time>
      </trkpt>
      <trkpt lat="45.61722" lon="6.60299">
        <ele>2107</ele>
        <time>2022-07-27T08:23:15Z</time>
      </trkpt>
      <trkpt lat="45.61721" lon="6.60298">
        <ele>2106</ele>
        <time>2022-07-27T08:23:16Z</time>
      </trkpt>
      <trkpt lat="45.61721" lon="6.60297">
        <ele>2106</ele>
        <time>2022-07-27T08:23:17Z</time>
      </trkpt>
      <trkpt lat="45.6172" lon="6.60297">
        <ele>2106</ele>
        <time>2022-07-27T08:23:18Z</time>
      </trkpt>
      <trkpt lat="45.6172" lon="6.60296">
        <ele>2106</ele>
        <time>2022-07-27T08:23:19Z</time>
      </trkpt>
      <trkpt lat="45.61719" lon="6.60295">
        <ele>2105</ele>
        <time>2022-07-27T08:23:43Z</time>
      </trkpt>
      <trkpt lat="45.61719" lon="6.60295">
        <ele>2105</ele>
        <time>2022-07-27T08:23:44Z</time>
      </trkpt>
      <trkpt lat="45.61718" lon="6.60294">
        <ele>2105</ele>
        <time>2022-07-27T08:23:45Z</time>
      </trkpt>
      <trkpt lat="45.61718" lon="6.60293">
        <ele>2104</ele>
        <time>2022-07-27T08:23:46Z</time>
      </trkpt>
      <trkpt lat="45.61718" lon="6.60292">
        <ele>2104</ele>
        <time>2022-07-27T08:23:47Z</time>
      </trkpt>
      <trkpt lat="45.61718" lon="6.60291">
        <ele>2103</ele>
        <time>2022-07-27T08:23:48Z</time>
      </trkpt>
      <trkpt lat="45.61717" lon="6.60289">
        <ele>2103</ele>
        <time>2022-07-27T08:23:49Z</time>
      </trkpt>
      <trkpt lat="45.61717" lon="6.60288">
        <ele>2103</ele>
        <time>2022-07-27T08:23:50Z</time>
      </trkpt>
      <trkpt lat="45.61717" lon="6.60286">
        <ele>2103</ele>
        <time>2022-07-27T08:23:51Z</time>
      </trkpt>
      <trkpt lat="45.61716" lon="6.60284">
        <ele>2103</ele>
        <time>2022-07-27T08:23:52Z</time>
      </trkpt>
      <trkpt lat="45.61715" lon="6.60282">
        <ele>2103</ele>
        <time>2022-07-27T08:23:53Z</time>
      </trkpt>
      <trkpt lat="45.61715" lon="6.60281">
        <ele>2103</ele>
        <time>2022-07-27T08:23:54Z</time>
      </trkpt>
      <trkpt lat="45.61714" lon="6.60279">
        <ele>2103</ele>
        <time>2022-07-27T08:23:55Z</time>
      </trkpt>
      <trkpt lat="45.61714" lon="6.60277">
        <ele>2103</ele>
        <time>2022-07-27T08:23:56Z</time>
      </trkpt>
      <trkpt lat="45.61714" lon="6.60275">
        <ele>2103</ele>
        <time>2022-07-27T08:23:57Z</time>
      </trkpt>
      <trkpt lat="45.61714" lon="6.60273">
        <ele>2103</ele>
        <time>2022-07-27T08:23:58Z</time>
      </trkpt>
      <trkpt lat="45.61714" lon="6.60271">
        <ele>2103</ele>
        <time>2022-07-27T08:23:59Z</time>
      </trkpt>
      <trkpt lat="45.61714" lon="6.60269">
        <ele>2104</ele>
        <time>2022-07-27T08:24:00Z</time>
      </trkpt>
      <trkpt lat="45.61714" lon="6.60268">
        <ele>2104</ele>
        <time>2022-07-27T08:24:01Z</time>
      </trkpt>
      <trkpt lat="45.61715" lon="6.60266">
        <ele>2104</ele>
        <time>2022-07-27T08:24:02Z</time>
      </trkpt>
      <trkpt lat="45.61716" lon="6.60264">
        <ele>2104</ele>
        <time>2022-07-27T08:24:03Z</time>
      </trkpt>
      <trkpt lat="45.61717" lon="6.60263">
        <ele>2104</ele>
        <time>2022-07-27T08:24:04Z</time>
      </trkpt>
      <trkpt lat="45.61717" lon="6.60262">
        <ele>2104</ele>
        <time>2022-07-27T08:24:05Z</time>
      </trkpt>
      <trkpt lat="45.61718" lon="6.6026">
        <ele>2103</ele>
        <time>2022-07-27T08:24:06Z</time>
      </trkpt>
      <trkpt lat="45.61719" lon="6.60259">
        <ele>2103</ele>
        <time>2022-07-27T08:24:07Z</time>
      </trkpt>
      <trkpt lat="45.6172" lon="6.60258">
        <ele>2103</ele>
        <time>2022-07-27T08:24:08Z</time>
      </trkpt>
      <trkpt lat="45.61721" lon="6.60256">
        <ele>2103</ele>
        <time>2022-07-27T08:24:09Z</time>
      </trkpt>
      <trkpt lat="45.61722" lon="6.60255">
        <ele>2103</ele>
        <time>2022-07-27T08:24:10Z</time>
      </trkpt>
      <trkpt lat="45.61723" lon="6.60254">
        <ele>2103</ele>
        <time>2022-07-27T08:24:11Z</time>
      </trkpt>
      <trkpt lat="45.61724" lon="6.60252">
        <ele>2103</ele>
        <time>2022-07-27T08:24:12Z</time>
      </trkpt>
      <trkpt lat="45.61725" lon="6.60251">
        <ele>2103</ele>
        <time>2022-07-27T08:24:13Z</time>
      </trkpt>
      <trkpt lat="45.61726" lon="6.6025">
        <ele>2103</ele>
        <time>2022-07-27T08:24:14Z</time>
      </trkpt>
      <trkpt lat="45.61727" lon="6.60248">
        <ele>2103</ele>
        <time>2022-07-27T08:24:15Z</time>
      </trkpt>
      <trkpt lat="45.61728" lon="6.60247">
        <ele>2102</ele>
        <time>2022-07-27T08:24:16Z</time>
      </trkpt>
      <trkpt lat="45.61729" lon="6.60245">
        <ele>2102</ele>
        <time>2022-07-27T08:24:17Z</time>
      </trkpt>
      <trkpt lat="45.61729" lon="6.60244">
        <ele>2102</ele>
        <time>2022-07-27T08:24:18Z</time>
      </trkpt>
      <trkpt lat="45.6173" lon="6.60243">
        <ele>2102</ele>
        <time>2022-07-27T08:24:19Z</time>
      </trkpt>
      <trkpt lat="45.61731" lon="6.60242">
        <ele>2102</ele>
        <time>2022-07-27T08:24:20Z</time>
      </trkpt>
      <trkpt lat="45.61732" lon="6.6024">
        <ele>2102</ele>
        <time>2022-07-27T08:24:21Z</time>
      </trkpt>
      <trkpt lat="45.61733" lon="6.60239">
        <ele>2102</ele>
        <time>2022-07-27T08:24:22Z</time>
      </trkpt>
      <trkpt lat="45.61734" lon="6.60238">
        <ele>2102</ele>
        <time>2022-07-27T08:24:23Z</time>
      </trkpt>
      <trkpt lat="45.61735" lon="6.60237">
        <ele>2102</ele>
        <time>2022-07-27T08:24:24Z</time>
      </trkpt>
      <trkpt lat="45.61736" lon="6.60236">
        <ele>2102</ele>
        <time>2022-07-27T08:24:25Z</time>
      </trkpt>
      <trkpt lat="45.61736" lon="6.60235">
        <ele>2101</ele>
        <time>2022-07-27T08:24:26Z</time>
      </trkpt>
      <trkpt lat="45.61737" lon="6.60234">
        <ele>2101</ele>
        <time>2022-07-27T08:24:27Z</time>
      </trkpt>
      <trkpt lat="45.61738" lon="6.60233">
        <ele>2101</ele>
        <time>2022-07-27T08:24:28Z</time>
      </trkpt>
      <trkpt lat="45.61739" lon="6.60232">
        <ele>2101</ele>
        <time>2022-07-27T08:24:29Z</time>
      </trkpt>
      <trkpt lat="45.61739" lon="6.60231">
        <ele>2101</ele>
        <time>2022-07-27T08:24:30Z</time>
      </trkpt>
      <trkpt lat="45.6174" lon="6.6023">
        <ele>2100</ele>
        <time>2022-07-27T08:24:31Z</time>
      </trkpt>
      <trkpt lat="45.61741" lon="6.60229">
        <ele>2100</ele>
        <time>2022-07-27T08:24:32Z</time>
      </trkpt>
      <trkpt lat="45.61742" lon="6.60228">
        <ele>2100</ele>
        <time>2022-07-27T08:24:33Z</time>
      </trkpt>
      <trkpt lat="45.61743" lon="6.60227">
        <ele>2100</ele>
        <time>2022-07-27T08:24:34Z</time>
      </trkpt>
      <trkpt lat="45.61744" lon="6.60226">
        <ele>2100</ele>
        <time>2022-07-27T08:24:35Z</time>
      </trkpt>
      <trkpt lat="45.61745" lon="6.60225">
        <ele>2100</ele>
        <time>2022-07-27T08:24:36Z</time>
      </trkpt>
      <trkpt lat="45.61746" lon="6.60224">
        <ele>2100</ele>
        <time>2022-07-27T08:24:37Z</time>
      </trkpt>
      <trkpt lat="45.61746" lon="6.60223">
        <ele>2100</ele>
        <time>2022-07-27T08:24:38Z</time>
      </trkpt>
      <trkpt lat="45.61747" lon="6.60222">
        <ele>2100</ele>
        <time>2022-07-27T08:24:39Z</time>
      </trkpt>
      <trkpt lat="45.61748" lon="6.60221">
        <ele>2100</ele>
        <time>2022-07-27T08:24:40Z</time>
      </trkpt>
      <trkpt lat="45.61749" lon="6.6022">
        <ele>2099</ele>
        <time>2022-07-27T08:24:41Z</time>
      </trkpt>
      <trkpt lat="45.61749" lon="6.60219">
        <ele>2099</ele>
        <time>2022-07-27T08:24:42Z</time>
      </trkpt>
      <trkpt lat="45.6175" lon="6.60218">
        <ele>2099</ele>
        <time>2022-07-27T08:24:43Z</time>
      </trkpt>
      <trkpt lat="45.61751" lon="6.60217">
        <ele>2099</ele>
        <time>2022-07-27T08:24:44Z</time>
      </trkpt>
      <trkpt lat="45.61751" lon="6.60216">
        <ele>2099</ele>
        <time>2022-07-27T08:24:45Z</time>
      </trkpt>
      <trkpt lat="45.61752" lon="6.60215">
        <ele>2099</ele>
        <time>2022-07-27T08:24:46Z</time>
      </trkpt>
      <trkpt lat="45.61753" lon="6.60214">
        <ele>2099</ele>
        <time>2022-07-27T08:24:47Z</time>
      </trkpt>
      <trkpt lat="45.61753" lon="6.60212">
        <ele>2099</ele>
        <time>2022-07-27T08:24:48Z</time>
      </trkpt>
      <trkpt lat="45.61754" lon="6.60211">
        <ele>2099</ele>
        <time>2022-07-27T08:24:49Z</time>
      </trkpt>
      <trkpt lat="45.61755" lon="6.6021">
        <ele>2099</ele>
        <time>2022-07-27T08:24:50Z</time>
      </trkpt>
      <trkpt lat="45.61755" lon="6.60209">
        <ele>2099</ele>
        <time>2022-07-27T08:24:51Z</time>
      </trkpt>
      <trkpt lat="45.61756" lon="6.60207">
        <ele>2099</ele>
        <time>2022-07-27T08:24:52Z</time>
      </trkpt>
      <trkpt lat="45.61757" lon="6.60206">
        <ele>2099</ele>
        <time>2022-07-27T08:24:53Z</time>
      </trkpt>
      <trkpt lat="45.61758" lon="6.60205">
        <ele>2099</ele>
        <time>2022-07-27T08:24:54Z</time>
      </trkpt>
      <trkpt lat="45.61759" lon="6.60204">
        <ele>2099</ele>
        <time>2022-07-27T08:24:55Z</time>
      </trkpt>
      <trkpt lat="45.6176" lon="6.60203">
        <ele>2098</ele>
        <time>2022-07-27T08:24:56Z</time>
      </trkpt>
      <trkpt lat="45.61761" lon="6.60202">
        <ele>2098</ele>
        <time>2022-07-27T08:24:57Z</time>
      </trkpt>
      <trkpt lat="45.61761" lon="6.60201">
        <ele>2098</ele>
        <time>2022-07-27T08:24:58Z</time>
      </trkpt>
      <trkpt lat="45.61762" lon="6.602">
        <ele>2098</ele>
        <time>2022-07-27T08:24:59Z</time>
      </trkpt>
      <trkpt lat="45.61763" lon="6.60199">
        <ele>2098</ele>
        <time>2022-07-27T08:25:00Z</time>
      </trkpt>
      <trkpt lat="45.61764" lon="6.60198">
        <ele>2097</ele>
        <time>2022-07-27T08:25:01Z</time>
      </trkpt>
      <trkpt lat="45.61765" lon="6.60197">
        <ele>2097</ele>
        <time>2022-07-27T08:25:02Z</time>
      </trkpt>
      <trkpt lat="45.61766" lon="6.60196">
        <ele>2097</ele>
        <time>2022-07-27T08:25:03Z</time>
      </trkpt>
      <trkpt lat="45.61766" lon="6.60195">
        <ele>2097</ele>
        <time>2022-07-27T08:25:04Z</time>
      </trkpt>
      <trkpt lat="45.61767" lon="6.60193">
        <ele>2097</ele>
        <time>2022-07-27T08:25:05Z</time>
      </trkpt>
      <trkpt lat="45.61768" lon="6.60192">
        <ele>2097</ele>
        <time>2022-07-27T08:25:06Z</time>
      </trkpt>
      <trkpt lat="45.61769" lon="6.60191">
        <ele>2097</ele>
        <time>2022-07-27T08:25:07Z</time>
      </trkpt>
      <trkpt lat="45.6177" lon="6.6019">
        <ele>2097</ele>
        <time>2022-07-27T08:25:08Z</time>
      </trkpt>
      <trkpt lat="45.6177" lon="6.60189">
        <ele>2097</ele>
        <time>2022-07-27T08:25:09Z</time>
      </trkpt>
      <trkpt lat="45.61771" lon="6.60188">
        <ele>2097</ele>
        <time>2022-07-27T08:25:10Z</time>
      </trkpt>
      <trkpt lat="45.61772" lon="6.60187">
        <ele>2096</ele>
        <time>2022-07-27T08:25:11Z</time>
      </trkpt>
      <trkpt lat="45.61773" lon="6.60187">
        <ele>2096</ele>
        <time>2022-07-27T08:25:12Z</time>
      </trkpt>
      <trkpt lat="45.61773" lon="6.60186">
        <ele>2096</ele>
        <time>2022-07-27T08:25:13Z</time>
      </trkpt>
      <trkpt lat="45.61774" lon="6.60185">
        <ele>2096</ele>
        <time>2022-07-27T08:25:14Z</time>
      </trkpt>
      <trkpt lat="45.61775" lon="6.60184">
        <ele>2096</ele>
        <time>2022-07-27T08:25:15Z</time>
      </trkpt>
      <trkpt lat="45.61776" lon="6.60183">
        <ele>2096</ele>
        <time>2022-07-27T08:25:16Z</time>
      </trkpt>
      <trkpt lat="45.61777" lon="6.60182">
        <ele>2096</ele>
        <time>2022-07-27T08:25:17Z</time>
      </trkpt>
      <trkpt lat="45.61777" lon="6.60181">
        <ele>2096</ele>
        <time>2022-07-27T08:25:18Z</time>
      </trkpt>
      <trkpt lat="45.61778" lon="6.60179">
        <ele>2096</ele>
        <time>2022-07-27T08:25:19Z</time>
      </trkpt>
      <trkpt lat="45.61779" lon="6.60178">
        <ele>2096</ele>
        <time>2022-07-27T08:25:20Z</time>
      </trkpt>
      <trkpt lat="45.6178" lon="6.60177">
        <ele>2096</ele>
        <time>2022-07-27T08:25:21Z</time>
      </trkpt>
      <trkpt lat="45.6178" lon="6.60176">
        <ele>2096</ele>
        <time>2022-07-27T08:25:22Z</time>
      </trkpt>
      <trkpt lat="45.61781" lon="6.60176">
        <ele>2096</ele>
        <time>2022-07-27T08:25:23Z</time>
      </trkpt>
      <trkpt lat="45.61781" lon="6.60175">
        <ele>2096</ele>
        <time>2022-07-27T08:25:24Z</time>
      </trkpt>
      <trkpt lat="45.61782" lon="6.60174">
        <ele>2096</ele>
        <time>2022-07-27T08:25:25Z</time>
      </trkpt>
      <trkpt lat="45.61782" lon="6.60173">
        <ele>2096</ele>
        <time>2022-07-27T08:25:26Z</time>
      </trkpt>
      <trkpt lat="45.61783" lon="6.60171">
        <ele>2096</ele>
        <time>2022-07-27T08:25:27Z</time>
      </trkpt>
      <trkpt lat="45.61784" lon="6.6017">
        <ele>2096</ele>
        <time>2022-07-27T08:25:28Z</time>
      </trkpt>
      <trkpt lat="45.61785" lon="6.60168">
        <ele>2096</ele>
        <time>2022-07-27T08:25:29Z</time>
      </trkpt>
      <trkpt lat="45.61785" lon="6.60166">
        <ele>2096</ele>
        <time>2022-07-27T08:25:30Z</time>
      </trkpt>
      <trkpt lat="45.61786" lon="6.60164">
        <ele>2096</ele>
        <time>2022-07-27T08:25:31Z</time>
      </trkpt>
      <trkpt lat="45.61787" lon="6.60163">
        <ele>2096</ele>
        <time>2022-07-27T08:25:32Z</time>
      </trkpt>
      <trkpt lat="45.61788" lon="6.60161">
        <ele>2096</ele>
        <time>2022-07-27T08:25:33Z</time>
      </trkpt>
      <trkpt lat="45.61788" lon="6.60159">
        <ele>2096</ele>
        <time>2022-07-27T08:25:34Z</time>
      </trkpt>
      <trkpt lat="45.61789" lon="6.60157">
        <ele>2096</ele>
        <time>2022-07-27T08:25:35Z</time>
      </trkpt>
      <trkpt lat="45.6179" lon="6.60155">
        <ele>2096</ele>
        <time>2022-07-27T08:25:36Z</time>
      </trkpt>
      <trkpt lat="45.61791" lon="6.60154">
        <ele>2096</ele>
        <time>2022-07-27T08:25:37Z</time>
      </trkpt>
      <trkpt lat="45.61791" lon="6.60153">
        <ele>2096</ele>
        <time>2022-07-27T08:25:38Z</time>
      </trkpt>
      <trkpt lat="45.61792" lon="6.60151">
        <ele>2096</ele>
        <time>2022-07-27T08:25:39Z</time>
      </trkpt>
      <trkpt lat="45.61793" lon="6.6015">
        <ele>2096</ele>
        <time>2022-07-27T08:25:40Z</time>
      </trkpt>
      <trkpt lat="45.61794" lon="6.60148">
        <ele>2096</ele>
        <time>2022-07-27T08:25:41Z</time>
      </trkpt>
      <trkpt lat="45.61795" lon="6.60147">
        <ele>2096</ele>
        <time>2022-07-27T08:25:42Z</time>
      </trkpt>
      <trkpt lat="45.61795" lon="6.60145">
        <ele>2096</ele>
        <time>2022-07-27T08:25:43Z</time>
      </trkpt>
      <trkpt lat="45.61796" lon="6.60144">
        <ele>2096</ele>
        <time>2022-07-27T08:25:44Z</time>
      </trkpt>
      <trkpt lat="45.61796" lon="6.60142">
        <ele>2096</ele>
        <time>2022-07-27T08:25:45Z</time>
      </trkpt>
      <trkpt lat="45.61797" lon="6.6014">
        <ele>2095</ele>
        <time>2022-07-27T08:25:46Z</time>
      </trkpt>
      <trkpt lat="45.61797" lon="6.60139">
        <ele>2095</ele>
        <time>2022-07-27T08:25:47Z</time>
      </trkpt>
      <trkpt lat="45.61798" lon="6.60137">
        <ele>2094</ele>
        <time>2022-07-27T08:25:48Z</time>
      </trkpt>
      <trkpt lat="45.61798" lon="6.60135">
        <ele>2094</ele>
        <time>2022-07-27T08:25:49Z</time>
      </trkpt>
      <trkpt lat="45.61798" lon="6.60134">
        <ele>2094</ele>
        <time>2022-07-27T08:25:50Z</time>
      </trkpt>
      <trkpt lat="45.61799" lon="6.60132">
        <ele>2093</ele>
        <time>2022-07-27T08:25:51Z</time>
      </trkpt>
      <trkpt lat="45.61799" lon="6.60131">
        <ele>2093</ele>
        <time>2022-07-27T08:25:52Z</time>
      </trkpt>
      <trkpt lat="45.618" lon="6.60129">
        <ele>2092</ele>
        <time>2022-07-27T08:25:53Z</time>
      </trkpt>
      <trkpt lat="45.618" lon="6.60128">
        <ele>2092</ele>
        <time>2022-07-27T08:25:54Z</time>
      </trkpt>
      <trkpt lat="45.61801" lon="6.60127">
        <ele>2092</ele>
        <time>2022-07-27T08:25:55Z</time>
      </trkpt>
      <trkpt lat="45.61801" lon="6.60125">
        <ele>2091</ele>
        <time>2022-07-27T08:25:56Z</time>
      </trkpt>
      <trkpt lat="45.61802" lon="6.60124">
        <ele>2091</ele>
        <time>2022-07-27T08:25:57Z</time>
      </trkpt>
      <trkpt lat="45.61802" lon="6.60122">
        <ele>2091</ele>
        <time>2022-07-27T08:25:58Z</time>
      </trkpt>
      <trkpt lat="45.61803" lon="6.60121">
        <ele>2091</ele>
        <time>2022-07-27T08:25:59Z</time>
      </trkpt>
      <trkpt lat="45.61804" lon="6.60119">
        <ele>2091</ele>
        <time>2022-07-27T08:26:00Z</time>
      </trkpt>
      <trkpt lat="45.61804" lon="6.60118">
        <ele>2090</ele>
        <time>2022-07-27T08:26:01Z</time>
      </trkpt>
      <trkpt lat="45.61805" lon="6.60116">
        <ele>2090</ele>
        <time>2022-07-27T08:26:02Z</time>
      </trkpt>
      <trkpt lat="45.61805" lon="6.60114">
        <ele>2090</ele>
        <time>2022-07-27T08:26:03Z</time>
      </trkpt>
      <trkpt lat="45.61806" lon="6.60113">
        <ele>2090</ele>
        <time>2022-07-27T08:26:04Z</time>
      </trkpt>
      <trkpt lat="45.61807" lon="6.60111">
        <ele>2090</ele>
        <time>2022-07-27T08:26:05Z</time>
      </trkpt>
      <trkpt lat="45.61807" lon="6.6011">
        <ele>2089</ele>
        <time>2022-07-27T08:26:06Z</time>
      </trkpt>
      <trkpt lat="45.61808" lon="6.60108">
        <ele>2089</ele>
        <time>2022-07-27T08:26:07Z</time>
      </trkpt>
      <trkpt lat="45.61808" lon="6.60107">
        <ele>2088</ele>
        <time>2022-07-27T08:26:08Z</time>
      </trkpt>
      <trkpt lat="45.61809" lon="6.60105">
        <ele>2088</ele>
        <time>2022-07-27T08:26:09Z</time>
      </trkpt>
      <trkpt lat="45.6181" lon="6.60104">
        <ele>2088</ele>
        <time>2022-07-27T08:26:10Z</time>
      </trkpt>
      <trkpt lat="45.6181" lon="6.60102">
        <ele>2088</ele>
        <time>2022-07-27T08:26:11Z</time>
      </trkpt>
      <trkpt lat="45.61811" lon="6.60101">
        <ele>2088</ele>
        <time>2022-07-27T08:26:12Z</time>
      </trkpt>
      <trkpt lat="45.61811" lon="6.60099">
        <ele>2088</ele>
        <time>2022-07-27T08:26:13Z</time>
      </trkpt>
      <trkpt lat="45.61812" lon="6.60098">
        <ele>2088</ele>
        <time>2022-07-27T08:26:14Z</time>
      </trkpt>
      <trkpt lat="45.61813" lon="6.60096">
        <ele>2088</ele>
        <time>2022-07-27T08:26:15Z</time>
      </trkpt>
      <trkpt lat="45.61813" lon="6.60095">
        <ele>2088</ele>
        <time>2022-07-27T08:26:16Z</time>
      </trkpt>
      <trkpt lat="45.61814" lon="6.60093">
        <ele>2088</ele>
        <time>2022-07-27T08:26:17Z</time>
      </trkpt>
      <trkpt lat="45.61815" lon="6.60092">
        <ele>2088</ele>
        <time>2022-07-27T08:26:18Z</time>
      </trkpt>
      <trkpt lat="45.61815" lon="6.60091">
        <ele>2088</ele>
        <time>2022-07-27T08:26:19Z</time>
      </trkpt>
      <trkpt lat="45.61816" lon="6.60089">
        <ele>2088</ele>
        <time>2022-07-27T08:26:20Z</time>
      </trkpt>
      <trkpt lat="45.61816" lon="6.60088">
        <ele>2087</ele>
        <time>2022-07-27T08:26:21Z</time>
      </trkpt>
      <trkpt lat="45.61817" lon="6.60087">
        <ele>2087</ele>
        <time>2022-07-27T08:26:22Z</time>
      </trkpt>
      <trkpt lat="45.61818" lon="6.60086">
        <ele>2087</ele>
        <time>2022-07-27T08:26:23Z</time>
      </trkpt>
      <trkpt lat="45.61819" lon="6.60084">
        <ele>2087</ele>
        <time>2022-07-27T08:26:24Z</time>
      </trkpt>
      <trkpt lat="45.61819" lon="6.60083">
        <ele>2087</ele>
        <time>2022-07-27T08:26:25Z</time>
      </trkpt>
      <trkpt lat="45.6182" lon="6.60082">
        <ele>2087</ele>
        <time>2022-07-27T08:26:26Z</time>
      </trkpt>
      <trkpt lat="45.61821" lon="6.60081">
        <ele>2087</ele>
        <time>2022-07-27T08:26:27Z</time>
      </trkpt>
      <trkpt lat="45.61822" lon="6.60079">
        <ele>2087</ele>
        <time>2022-07-27T08:26:28Z</time>
      </trkpt>
      <trkpt lat="45.61822" lon="6.60078">
        <ele>2087</ele>
        <time>2022-07-27T08:26:29Z</time>
      </trkpt>
      <trkpt lat="45.61823" lon="6.60077">
        <ele>2087</ele>
        <time>2022-07-27T08:26:30Z</time>
      </trkpt>
      <trkpt lat="45.61824" lon="6.60075">
        <ele>2086</ele>
        <time>2022-07-27T08:26:31Z</time>
      </trkpt>
      <trkpt lat="45.61825" lon="6.60074">
        <ele>2086</ele>
        <time>2022-07-27T08:26:32Z</time>
      </trkpt>
      <trkpt lat="45.61825" lon="6.60073">
        <ele>2086</ele>
        <time>2022-07-27T08:26:33Z</time>
      </trkpt>
      <trkpt lat="45.61826" lon="6.60071">
        <ele>2086</ele>
        <time>2022-07-27T08:26:34Z</time>
      </trkpt>
      <trkpt lat="45.61827" lon="6.6007">
        <ele>2086</ele>
        <time>2022-07-27T08:26:35Z</time>
      </trkpt>
      <trkpt lat="45.61828" lon="6.60069">
        <ele>2085</ele>
        <time>2022-07-27T08:26:36Z</time>
      </trkpt>
      <trkpt lat="45.61829" lon="6.60067">
        <ele>2085</ele>
        <time>2022-07-27T08:26:37Z</time>
      </trkpt>
      <trkpt lat="45.61829" lon="6.60066">
        <ele>2085</ele>
        <time>2022-07-27T08:26:38Z</time>
      </trkpt>
      <trkpt lat="45.6183" lon="6.60065">
        <ele>2085</ele>
        <time>2022-07-27T08:26:39Z</time>
      </trkpt>
      <trkpt lat="45.61831" lon="6.60064">
        <ele>2085</ele>
        <time>2022-07-27T08:26:40Z</time>
      </trkpt>
      <trkpt lat="45.61832" lon="6.60062">
        <ele>2085</ele>
        <time>2022-07-27T08:26:41Z</time>
      </trkpt>
      <trkpt lat="45.61832" lon="6.60061">
        <ele>2085</ele>
        <time>2022-07-27T08:26:42Z</time>
      </trkpt>
      <trkpt lat="45.61833" lon="6.6006">
        <ele>2085</ele>
        <time>2022-07-27T08:26:43Z</time>
      </trkpt>
      <trkpt lat="45.61834" lon="6.60059">
        <ele>2085</ele>
        <time>2022-07-27T08:26:44Z</time>
      </trkpt>
      <trkpt lat="45.61834" lon="6.60057">
        <ele>2085</ele>
        <time>2022-07-27T08:26:45Z</time>
      </trkpt>
      <trkpt lat="45.61835" lon="6.60056">
        <ele>2084</ele>
        <time>2022-07-27T08:26:46Z</time>
      </trkpt>
      <trkpt lat="45.61836" lon="6.60054">
        <ele>2084</ele>
        <time>2022-07-27T08:26:47Z</time>
      </trkpt>
      <trkpt lat="45.61837" lon="6.60053">
        <ele>2084</ele>
        <time>2022-07-27T08:26:48Z</time>
      </trkpt>
      <trkpt lat="45.61837" lon="6.60052">
        <ele>2084</ele>
        <time>2022-07-27T08:26:49Z</time>
      </trkpt>
      <trkpt lat="45.61838" lon="6.60051">
        <ele>2084</ele>
        <time>2022-07-27T08:26:50Z</time>
      </trkpt>
      <trkpt lat="45.61839" lon="6.60049">
        <ele>2083</ele>
        <time>2022-07-27T08:26:51Z</time>
      </trkpt>
      <trkpt lat="45.6184" lon="6.60048">
        <ele>2083</ele>
        <time>2022-07-27T08:26:52Z</time>
      </trkpt>
      <trkpt lat="45.6184" lon="6.60047">
        <ele>2083</ele>
        <time>2022-07-27T08:26:53Z</time>
      </trkpt>
      <trkpt lat="45.61841" lon="6.60045">
        <ele>2083</ele>
        <time>2022-07-27T08:26:54Z</time>
      </trkpt>
      <trkpt lat="45.61842" lon="6.60044">
        <ele>2083</ele>
        <time>2022-07-27T08:26:55Z</time>
      </trkpt>
      <trkpt lat="45.61843" lon="6.60042">
        <ele>2083</ele>
        <time>2022-07-27T08:26:56Z</time>
      </trkpt>
      <trkpt lat="45.61843" lon="6.60041">
        <ele>2083</ele>
        <time>2022-07-27T08:26:57Z</time>
      </trkpt>
      <trkpt lat="45.61844" lon="6.6004">
        <ele>2083</ele>
        <time>2022-07-27T08:26:58Z</time>
      </trkpt>
      <trkpt lat="45.61845" lon="6.60038">
        <ele>2083</ele>
        <time>2022-07-27T08:26:59Z</time>
      </trkpt>
      <trkpt lat="45.61846" lon="6.60037">
        <ele>2083</ele>
        <time>2022-07-27T08:27:00Z</time>
      </trkpt>
      <trkpt lat="45.61846" lon="6.60036">
        <ele>2082</ele>
        <time>2022-07-27T08:27:01Z</time>
      </trkpt>
      <trkpt lat="45.61847" lon="6.60035">
        <ele>2082</ele>
        <time>2022-07-27T08:27:02Z</time>
      </trkpt>
      <trkpt lat="45.61848" lon="6.60033">
        <ele>2082</ele>
        <time>2022-07-27T08:27:03Z</time>
      </trkpt>
      <trkpt lat="45.61849" lon="6.60032">
        <ele>2082</ele>
        <time>2022-07-27T08:27:04Z</time>
      </trkpt>
      <trkpt lat="45.6185" lon="6.60031">
        <ele>2082</ele>
        <time>2022-07-27T08:27:05Z</time>
      </trkpt>
      <trkpt lat="45.61851" lon="6.60029">
        <ele>2082</ele>
        <time>2022-07-27T08:27:06Z</time>
      </trkpt>
      <trkpt lat="45.61851" lon="6.60028">
        <ele>2082</ele>
        <time>2022-07-27T08:27:07Z</time>
      </trkpt>
      <trkpt lat="45.61852" lon="6.60027">
        <ele>2082</ele>
        <time>2022-07-27T08:27:08Z</time>
      </trkpt>
      <trkpt lat="45.61853" lon="6.60026">
        <ele>2082</ele>
        <time>2022-07-27T08:27:09Z</time>
      </trkpt>
      <trkpt lat="45.61854" lon="6.60025">
        <ele>2082</ele>
        <time>2022-07-27T08:27:10Z</time>
      </trkpt>
      <trkpt lat="45.61855" lon="6.60024">
        <ele>2081</ele>
        <time>2022-07-27T08:27:11Z</time>
      </trkpt>
      <trkpt lat="45.61856" lon="6.60023">
        <ele>2081</ele>
        <time>2022-07-27T08:27:12Z</time>
      </trkpt>
      <trkpt lat="45.61857" lon="6.60022">
        <ele>2081</ele>
        <time>2022-07-27T08:27:13Z</time>
      </trkpt>
      <trkpt lat="45.61857" lon="6.60021">
        <ele>2081</ele>
        <time>2022-07-27T08:27:14Z</time>
      </trkpt>
      <trkpt lat="45.61858" lon="6.6002">
        <ele>2081</ele>
        <time>2022-07-27T08:27:15Z</time>
      </trkpt>
      <trkpt lat="45.61859" lon="6.60019">
        <ele>2081</ele>
        <time>2022-07-27T08:27:16Z</time>
      </trkpt>
      <trkpt lat="45.6186" lon="6.60018">
        <ele>2081</ele>
        <time>2022-07-27T08:27:17Z</time>
      </trkpt>
      <trkpt lat="45.61861" lon="6.60017">
        <ele>2081</ele>
        <time>2022-07-27T08:27:18Z</time>
      </trkpt>
      <trkpt lat="45.61862" lon="6.60016">
        <ele>2081</ele>
        <time>2022-07-27T08:27:19Z</time>
      </trkpt>
      <trkpt lat="45.61863" lon="6.60015">
        <ele>2081</ele>
        <time>2022-07-27T08:27:20Z</time>
      </trkpt>
      <trkpt lat="45.61864" lon="6.60014">
        <ele>2080</ele>
        <time>2022-07-27T08:27:21Z</time>
      </trkpt>
      <trkpt lat="45.61865" lon="6.60014">
        <ele>2080</ele>
        <time>2022-07-27T08:27:22Z</time>
      </trkpt>
      <trkpt lat="45.61866" lon="6.60013">
        <ele>2080</ele>
        <time>2022-07-27T08:27:23Z</time>
      </trkpt>
      <trkpt lat="45.61867" lon="6.60012">
        <ele>2080</ele>
        <time>2022-07-27T08:27:24Z</time>
      </trkpt>
      <trkpt lat="45.61868" lon="6.60011">
        <ele>2080</ele>
        <time>2022-07-27T08:27:25Z</time>
      </trkpt>
      <trkpt lat="45.61869" lon="6.6001">
        <ele>2080</ele>
        <time>2022-07-27T08:27:26Z</time>
      </trkpt>
      <trkpt lat="45.6187" lon="6.60009">
        <ele>2080</ele>
        <time>2022-07-27T08:27:27Z</time>
      </trkpt>
      <trkpt lat="45.61871" lon="6.60009">
        <ele>2080</ele>
        <time>2022-07-27T08:27:28Z</time>
      </trkpt>
      <trkpt lat="45.61872" lon="6.60008">
        <ele>2080</ele>
        <time>2022-07-27T08:27:29Z</time>
      </trkpt>
      <trkpt lat="45.61873" lon="6.60007">
        <ele>2080</ele>
        <time>2022-07-27T08:27:30Z</time>
      </trkpt>
      <trkpt lat="45.61874" lon="6.60007">
        <ele>2079</ele>
        <time>2022-07-27T08:27:31Z</time>
      </trkpt>
      <trkpt lat="45.61875" lon="6.60006">
        <ele>2079</ele>
        <time>2022-07-27T08:27:32Z</time>
      </trkpt>
      <trkpt lat="45.61876" lon="6.60005">
        <ele>2079</ele>
        <time>2022-07-27T08:27:33Z</time>
      </trkpt>
      <trkpt lat="45.61877" lon="6.60005">
        <ele>2079</ele>
        <time>2022-07-27T08:27:34Z</time>
      </trkpt>
      <trkpt lat="45.61878" lon="6.60004">
        <ele>2079</ele>
        <time>2022-07-27T08:27:35Z</time>
      </trkpt>
      <trkpt lat="45.61879" lon="6.60003">
        <ele>2079</ele>
        <time>2022-07-27T08:27:36Z</time>
      </trkpt>
      <trkpt lat="45.6188" lon="6.60003">
        <ele>2079</ele>
        <time>2022-07-27T08:27:37Z</time>
      </trkpt>
      <trkpt lat="45.61881" lon="6.60003">
        <ele>2079</ele>
        <time>2022-07-27T08:27:38Z</time>
      </trkpt>
      <trkpt lat="45.61882" lon="6.60002">
        <ele>2079</ele>
        <time>2022-07-27T08:27:39Z</time>
      </trkpt>
      <trkpt lat="45.61883" lon="6.60002">
        <ele>2079</ele>
        <time>2022-07-27T08:27:40Z</time>
      </trkpt>
      <trkpt lat="45.61884" lon="6.60001">
        <ele>2078</ele>
        <time>2022-07-27T08:27:41Z</time>
      </trkpt>
      <trkpt lat="45.61885" lon="6.60001">
        <ele>2078</ele>
        <time>2022-07-27T08:27:42Z</time>
      </trkpt>
      <trkpt lat="45.61886" lon="6.6">
        <ele>2078</ele>
        <time>2022-07-27T08:27:43Z</time>
      </trkpt>
      <trkpt lat="45.61887" lon="6.6">
        <ele>2078</ele>
        <time>2022-07-27T08:27:44Z</time>
      </trkpt>
      <trkpt lat="45.61888" lon="6.59999">
        <ele>2078</ele>
        <time>2022-07-27T08:27:45Z</time>
      </trkpt>
      <trkpt lat="45.61889" lon="6.59999">
        <ele>2077</ele>
        <time>2022-07-27T08:27:46Z</time>
      </trkpt>
      <trkpt lat="45.6189" lon="6.59998">
        <ele>2077</ele>
        <time>2022-07-27T08:27:47Z</time>
      </trkpt>
      <trkpt lat="45.61891" lon="6.59998">
        <ele>2077</ele>
        <time>2022-07-27T08:27:48Z</time>
      </trkpt>
      <trkpt lat="45.61892" lon="6.59997">
        <ele>2077</ele>
        <time>2022-07-27T08:27:49Z</time>
      </trkpt>
      <trkpt lat="45.61894" lon="6.59997">
        <ele>2077</ele>
        <time>2022-07-27T08:27:50Z</time>
      </trkpt>
      <trkpt lat="45.61895" lon="6.59997">
        <ele>2077</ele>
        <time>2022-07-27T08:27:51Z</time>
      </trkpt>
      <trkpt lat="45.61896" lon="6.59996">
        <ele>2077</ele>
        <time>2022-07-27T08:27:52Z</time>
      </trkpt>
      <trkpt lat="45.61897" lon="6.59996">
        <ele>2077</ele>
        <time>2022-07-27T08:27:53Z</time>
      </trkpt>
      <trkpt lat="45.61898" lon="6.59995">
        <ele>2077</ele>
        <time>2022-07-27T08:27:54Z</time>
      </trkpt>
      <trkpt lat="45.61899" lon="6.59994">
        <ele>2077</ele>
        <time>2022-07-27T08:27:55Z</time>
      </trkpt>
      <trkpt lat="45.61901" lon="6.59994">
        <ele>2076</ele>
        <time>2022-07-27T08:27:56Z</time>
      </trkpt>
      <trkpt lat="45.61902" lon="6.59993">
        <ele>2076</ele>
        <time>2022-07-27T08:27:57Z</time>
      </trkpt>
      <trkpt lat="45.61903" lon="6.59993">
        <ele>2076</ele>
        <time>2022-07-27T08:27:58Z</time>
      </trkpt>
      <trkpt lat="45.61904" lon="6.59992">
        <ele>2076</ele>
        <time>2022-07-27T08:27:59Z</time>
      </trkpt>
      <trkpt lat="45.61905" lon="6.59992">
        <ele>2076</ele>
        <time>2022-07-27T08:28:00Z</time>
      </trkpt>
      <trkpt lat="45.61906" lon="6.59991">
        <ele>2076</ele>
        <time>2022-07-27T08:28:01Z</time>
      </trkpt>
      <trkpt lat="45.61908" lon="6.5999">
        <ele>2076</ele>
        <time>2022-07-27T08:28:02Z</time>
      </trkpt>
      <trkpt lat="45.61909" lon="6.5999">
        <ele>2076</ele>
        <time>2022-07-27T08:28:03Z</time>
      </trkpt>
      <trkpt lat="45.6191" lon="6.59989">
        <ele>2076</ele>
        <time>2022-07-27T08:28:04Z</time>
      </trkpt>
      <trkpt lat="45.61911" lon="6.59989">
        <ele>2076</ele>
        <time>2022-07-27T08:28:05Z</time>
      </trkpt>
      <trkpt lat="45.61912" lon="6.59988">
        <ele>2075</ele>
        <time>2022-07-27T08:28:06Z</time>
      </trkpt>
      <trkpt lat="45.61913" lon="6.59988">
        <ele>2075</ele>
        <time>2022-07-27T08:28:07Z</time>
      </trkpt>
      <trkpt lat="45.61914" lon="6.59987">
        <ele>2075</ele>
        <time>2022-07-27T08:28:08Z</time>
      </trkpt>
      <trkpt lat="45.61915" lon="6.59987">
        <ele>2075</ele>
        <time>2022-07-27T08:28:09Z</time>
      </trkpt>
      <trkpt lat="45.61916" lon="6.59986">
        <ele>2075</ele>
        <time>2022-07-27T08:28:10Z</time>
      </trkpt>
      <trkpt lat="45.61917" lon="6.59986">
        <ele>2074</ele>
        <time>2022-07-27T08:28:11Z</time>
      </trkpt>
      <trkpt lat="45.61918" lon="6.59985">
        <ele>2074</ele>
        <time>2022-07-27T08:28:12Z</time>
      </trkpt>
      <trkpt lat="45.61919" lon="6.59985">
        <ele>2074</ele>
        <time>2022-07-27T08:28:13Z</time>
      </trkpt>
      <trkpt lat="45.6192" lon="6.59985">
        <ele>2074</ele>
        <time>2022-07-27T08:28:14Z</time>
      </trkpt>
      <trkpt lat="45.61922" lon="6.59984">
        <ele>2074</ele>
        <time>2022-07-27T08:28:15Z</time>
      </trkpt>
      <trkpt lat="45.61923" lon="6.59984">
        <ele>2074</ele>
        <time>2022-07-27T08:28:16Z</time>
      </trkpt>
      <trkpt lat="45.61924" lon="6.59983">
        <ele>2074</ele>
        <time>2022-07-27T08:28:17Z</time>
      </trkpt>
      <trkpt lat="45.61925" lon="6.59982">
        <ele>2074</ele>
        <time>2022-07-27T08:28:18Z</time>
      </trkpt>
      <trkpt lat="45.61926" lon="6.59982">
        <ele>2074</ele>
        <time>2022-07-27T08:28:19Z</time>
      </trkpt>
      <trkpt lat="45.61928" lon="6.59981">
        <ele>2074</ele>
        <time>2022-07-27T08:28:20Z</time>
      </trkpt>
      <trkpt lat="45.61929" lon="6.5998">
        <ele>2073</ele>
        <time>2022-07-27T08:28:21Z</time>
      </trkpt>
      <trkpt lat="45.6193" lon="6.5998">
        <ele>2073</ele>
        <time>2022-07-27T08:28:22Z</time>
      </trkpt>
      <trkpt lat="45.61931" lon="6.59979">
        <ele>2073</ele>
        <time>2022-07-27T08:28:23Z</time>
      </trkpt>
      <trkpt lat="45.61932" lon="6.59978">
        <ele>2073</ele>
        <time>2022-07-27T08:28:24Z</time>
      </trkpt>
      <trkpt lat="45.61933" lon="6.59978">
        <ele>2073</ele>
        <time>2022-07-27T08:28:25Z</time>
      </trkpt>
      <trkpt lat="45.61934" lon="6.59977">
        <ele>2073</ele>
        <time>2022-07-27T08:28:26Z</time>
      </trkpt>
      <trkpt lat="45.61935" lon="6.59976">
        <ele>2073</ele>
        <time>2022-07-27T08:28:27Z</time>
      </trkpt>
      <trkpt lat="45.61936" lon="6.59975">
        <ele>2073</ele>
        <time>2022-07-27T08:28:28Z</time>
      </trkpt>
      <trkpt lat="45.61937" lon="6.59975">
        <ele>2073</ele>
        <time>2022-07-27T08:28:29Z</time>
      </trkpt>
      <trkpt lat="45.61938" lon="6.59974">
        <ele>2073</ele>
        <time>2022-07-27T08:28:30Z</time>
      </trkpt>
      <trkpt lat="45.61939" lon="6.59973">
        <ele>2072</ele>
        <time>2022-07-27T08:28:31Z</time>
      </trkpt>
      <trkpt lat="45.6194" lon="6.59972">
        <ele>2072</ele>
        <time>2022-07-27T08:28:32Z</time>
      </trkpt>
      <trkpt lat="45.61941" lon="6.59971">
        <ele>2072</ele>
        <time>2022-07-27T08:28:33Z</time>
      </trkpt>
      <trkpt lat="45.61942" lon="6.5997">
        <ele>2072</ele>
        <time>2022-07-27T08:28:34Z</time>
      </trkpt>
      <trkpt lat="45.61943" lon="6.59969">
        <ele>2072</ele>
        <time>2022-07-27T08:28:35Z</time>
      </trkpt>
      <trkpt lat="45.61945" lon="6.59968">
        <ele>2072</ele>
        <time>2022-07-27T08:28:36Z</time>
      </trkpt>
      <trkpt lat="45.61946" lon="6.59968">
        <ele>2072</ele>
        <time>2022-07-27T08:28:37Z</time>
      </trkpt>
      <trkpt lat="45.61947" lon="6.59967">
        <ele>2072</ele>
        <time>2022-07-27T08:28:38Z</time>
      </trkpt>
      <trkpt lat="45.61948" lon="6.59966">
        <ele>2072</ele>
        <time>2022-07-27T08:28:39Z</time>
      </trkpt>
      <trkpt lat="45.61949" lon="6.59965">
        <ele>2072</ele>
        <time>2022-07-27T08:28:40Z</time>
      </trkpt>
      <trkpt lat="45.6195" lon="6.59964">
        <ele>2071</ele>
        <time>2022-07-27T08:28:41Z</time>
      </trkpt>
      <trkpt lat="45.61951" lon="6.59963">
        <ele>2071</ele>
        <time>2022-07-27T08:28:42Z</time>
      </trkpt>
      <trkpt lat="45.61952" lon="6.59962">
        <ele>2071</ele>
        <time>2022-07-27T08:28:43Z</time>
      </trkpt>
      <trkpt lat="45.61953" lon="6.59962">
        <ele>2071</ele>
        <time>2022-07-27T08:28:44Z</time>
      </trkpt>
      <trkpt lat="45.61954" lon="6.59961">
        <ele>2071</ele>
        <time>2022-07-27T08:28:45Z</time>
      </trkpt>
      <trkpt lat="45.61955" lon="6.59961">
        <ele>2070</ele>
        <time>2022-07-27T08:28:46Z</time>
      </trkpt>
      <trkpt lat="45.61956" lon="6.5996">
        <ele>2070</ele>
        <time>2022-07-27T08:28:47Z</time>
      </trkpt>
      <trkpt lat="45.61958" lon="6.5996">
        <ele>2070</ele>
        <time>2022-07-27T08:28:48Z</time>
      </trkpt>
      <trkpt lat="45.61959" lon="6.5996">
        <ele>2070</ele>
        <time>2022-07-27T08:28:49Z</time>
      </trkpt>
      <trkpt lat="45.6196" lon="6.59959">
        <ele>2070</ele>
        <time>2022-07-27T08:28:50Z</time>
      </trkpt>
      <trkpt lat="45.61961" lon="6.59959">
        <ele>2070</ele>
        <time>2022-07-27T08:28:51Z</time>
      </trkpt>
      <trkpt lat="45.61962" lon="6.59959">
        <ele>2070</ele>
        <time>2022-07-27T08:28:52Z</time>
      </trkpt>
      <trkpt lat="45.61964" lon="6.59958">
        <ele>2070</ele>
        <time>2022-07-27T08:28:53Z</time>
      </trkpt>
      <trkpt lat="45.61965" lon="6.59958">
        <ele>2070</ele>
        <time>2022-07-27T08:28:54Z</time>
      </trkpt>
      <trkpt lat="45.61966" lon="6.59958">
        <ele>2070</ele>
        <time>2022-07-27T08:28:55Z</time>
      </trkpt>
      <trkpt lat="45.61967" lon="6.59959">
        <ele>2070</ele>
        <time>2022-07-27T08:28:56Z</time>
      </trkpt>
      <trkpt lat="45.61968" lon="6.59959">
        <ele>2070</ele>
        <time>2022-07-27T08:28:57Z</time>
      </trkpt>
      <trkpt lat="45.61969" lon="6.5996">
        <ele>2070</ele>
        <time>2022-07-27T08:28:58Z</time>
      </trkpt>
      <trkpt lat="45.6197" lon="6.59961">
        <ele>2070</ele>
        <time>2022-07-27T08:28:59Z</time>
      </trkpt>
      <trkpt lat="45.61971" lon="6.59962">
        <ele>2070</ele>
        <time>2022-07-27T08:29:00Z</time>
      </trkpt>
      <trkpt lat="45.61972" lon="6.59963">
        <ele>2069</ele>
        <time>2022-07-27T08:29:01Z</time>
      </trkpt>
      <trkpt lat="45.61973" lon="6.59964">
        <ele>2069</ele>
        <time>2022-07-27T08:29:02Z</time>
      </trkpt>
      <trkpt lat="45.61974" lon="6.59965">
        <ele>2069</ele>
        <time>2022-07-27T08:29:03Z</time>
      </trkpt>
      <trkpt lat="45.61975" lon="6.59967">
        <ele>2069</ele>
        <time>2022-07-27T08:29:04Z</time>
      </trkpt>
      <trkpt lat="45.61975" lon="6.59968">
        <ele>2069</ele>
        <time>2022-07-27T08:29:05Z</time>
      </trkpt>
      <trkpt lat="45.61976" lon="6.5997">
        <ele>2068</ele>
        <time>2022-07-27T08:29:06Z</time>
      </trkpt>
      <trkpt lat="45.61976" lon="6.59971">
        <ele>2068</ele>
        <time>2022-07-27T08:29:07Z</time>
      </trkpt>
      <trkpt lat="45.61977" lon="6.59973">
        <ele>2068</ele>
        <time>2022-07-27T08:29:08Z</time>
      </trkpt>
      <trkpt lat="45.61977" lon="6.59975">
        <ele>2068</ele>
        <time>2022-07-27T08:29:09Z</time>
      </trkpt>
      <trkpt lat="45.61977" lon="6.59977">
        <ele>2068</ele>
        <time>2022-07-27T08:29:10Z</time>
      </trkpt>
      <trkpt lat="45.61977" lon="6.59979">
        <ele>2067</ele>
        <time>2022-07-27T08:29:11Z</time>
      </trkpt>
      <trkpt lat="45.61977" lon="6.59981">
        <ele>2067</ele>
        <time>2022-07-27T08:29:12Z</time>
      </trkpt>
      <trkpt lat="45.61977" lon="6.59983">
        <ele>2067</ele>
        <time>2022-07-27T08:29:13Z</time>
      </trkpt>
      <trkpt lat="45.61977" lon="6.59985">
        <ele>2067</ele>
        <time>2022-07-27T08:29:14Z</time>
      </trkpt>
      <trkpt lat="45.61977" lon="6.59986">
        <ele>2067</ele>
        <time>2022-07-27T08:29:15Z</time>
      </trkpt>
      <trkpt lat="45.61977" lon="6.59988">
        <ele>2067</ele>
        <time>2022-07-27T08:29:16Z</time>
      </trkpt>
      <trkpt lat="45.61976" lon="6.5999">
        <ele>2067</ele>
        <time>2022-07-27T08:29:17Z</time>
      </trkpt>
      <trkpt lat="45.61976" lon="6.59991">
        <ele>2067</ele>
        <time>2022-07-27T08:29:18Z</time>
      </trkpt>
      <trkpt lat="45.61976" lon="6.59992">
        <ele>2067</ele>
        <time>2022-07-27T08:29:19Z</time>
      </trkpt>
      <trkpt lat="45.61976" lon="6.59996">
        <ele>2064</ele>
        <time>2022-07-27T08:29:41Z</time>
      </trkpt>
      <trkpt lat="45.61977" lon="6.59997">
        <ele>2064</ele>
        <time>2022-07-27T08:29:42Z</time>
      </trkpt>
      <trkpt lat="45.61977" lon="6.59999">
        <ele>2064</ele>
        <time>2022-07-27T08:29:43Z</time>
      </trkpt>
      <trkpt lat="45.61978" lon="6.59999">
        <ele>2064</ele>
        <time>2022-07-27T08:29:44Z</time>
      </trkpt>
      <trkpt lat="45.61979" lon="6.59999">
        <ele>2064</ele>
        <time>2022-07-27T08:29:45Z</time>
      </trkpt>
      <trkpt lat="45.61979" lon="6.59999">
        <ele>2063</ele>
        <time>2022-07-27T08:29:46Z</time>
      </trkpt>
      <trkpt lat="45.6198" lon="6.59999">
        <ele>2063</ele>
        <time>2022-07-27T08:29:47Z</time>
      </trkpt>
      <trkpt lat="45.61981" lon="6.59999">
        <ele>2063</ele>
        <time>2022-07-27T08:29:48Z</time>
      </trkpt>
      <trkpt lat="45.61981" lon="6.59998">
        <ele>2063</ele>
        <time>2022-07-27T08:29:49Z</time>
      </trkpt>
      <trkpt lat="45.61982" lon="6.59998">
        <ele>2063</ele>
        <time>2022-07-27T08:29:50Z</time>
      </trkpt>
      <trkpt lat="45.61983" lon="6.59998">
        <ele>2062</ele>
        <time>2022-07-27T08:29:51Z</time>
      </trkpt>
      <trkpt lat="45.61984" lon="6.59997">
        <ele>2062</ele>
        <time>2022-07-27T08:29:52Z</time>
      </trkpt>
      <trkpt lat="45.61984" lon="6.59997">
        <ele>2062</ele>
        <time>2022-07-27T08:29:53Z</time>
      </trkpt>
      <trkpt lat="45.61985" lon="6.59996">
        <ele>2062</ele>
        <time>2022-07-27T08:29:54Z</time>
      </trkpt>
      <trkpt lat="45.61986" lon="6.59996">
        <ele>2062</ele>
        <time>2022-07-27T08:29:55Z</time>
      </trkpt>
      <trkpt lat="45.61987" lon="6.59995">
        <ele>2061</ele>
        <time>2022-07-27T08:29:56Z</time>
      </trkpt>
      <trkpt lat="45.61987" lon="6.59995">
        <ele>2061</ele>
        <time>2022-07-27T08:29:57Z</time>
      </trkpt>
      <trkpt lat="45.61988" lon="6.59995">
        <ele>2061</ele>
        <time>2022-07-27T08:29:58Z</time>
      </trkpt>
      <trkpt lat="45.61989" lon="6.59994">
        <ele>2061</ele>
        <time>2022-07-27T08:29:59Z</time>
      </trkpt>
      <trkpt lat="45.6199" lon="6.59994">
        <ele>2061</ele>
        <time>2022-07-27T08:30:00Z</time>
      </trkpt>
      <trkpt lat="45.61991" lon="6.59994">
        <ele>2060</ele>
        <time>2022-07-27T08:30:01Z</time>
      </trkpt>
      <trkpt lat="45.61992" lon="6.59993">
        <ele>2060</ele>
        <time>2022-07-27T08:30:02Z</time>
      </trkpt>
      <trkpt lat="45.61992" lon="6.59993">
        <ele>2060</ele>
        <time>2022-07-27T08:30:03Z</time>
      </trkpt>
      <trkpt lat="45.61993" lon="6.59992">
        <ele>2060</ele>
        <time>2022-07-27T08:30:04Z</time>
      </trkpt>
      <trkpt lat="45.61994" lon="6.59991">
        <ele>2060</ele>
        <time>2022-07-27T08:30:05Z</time>
      </trkpt>
      <trkpt lat="45.61995" lon="6.59991">
        <ele>2059</ele>
        <time>2022-07-27T08:30:06Z</time>
      </trkpt>
      <trkpt lat="45.61995" lon="6.5999">
        <ele>2059</ele>
        <time>2022-07-27T08:30:07Z</time>
      </trkpt>
      <trkpt lat="45.61996" lon="6.59989">
        <ele>2058</ele>
        <time>2022-07-27T08:30:08Z</time>
      </trkpt>
      <trkpt lat="45.61997" lon="6.59989">
        <ele>2058</ele>
        <time>2022-07-27T08:30:09Z</time>
      </trkpt>
      <trkpt lat="45.61998" lon="6.59989">
        <ele>2058</ele>
        <time>2022-07-27T08:30:10Z</time>
      </trkpt>
      <trkpt lat="45.61998" lon="6.59989">
        <ele>2057</ele>
        <time>2022-07-27T08:30:11Z</time>
      </trkpt>
      <trkpt lat="45.61999" lon="6.59989">
        <ele>2057</ele>
        <time>2022-07-27T08:30:12Z</time>
      </trkpt>
      <trkpt lat="45.62" lon="6.5999">
        <ele>2057</ele>
        <time>2022-07-27T08:30:13Z</time>
      </trkpt>
      <trkpt lat="45.62" lon="6.59991">
        <ele>2057</ele>
        <time>2022-07-27T08:30:14Z</time>
      </trkpt>
      <trkpt lat="45.62" lon="6.59992">
        <ele>2057</ele>
        <time>2022-07-27T08:30:15Z</time>
      </trkpt>
      <trkpt lat="45.62001" lon="6.59993">
        <ele>2056</ele>
        <time>2022-07-27T08:30:16Z</time>
      </trkpt>
      <trkpt lat="45.62001" lon="6.59994">
        <ele>2056</ele>
        <time>2022-07-27T08:30:17Z</time>
      </trkpt>
      <trkpt lat="45.62001" lon="6.59995">
        <ele>2056</ele>
        <time>2022-07-27T08:30:18Z</time>
      </trkpt>
      <trkpt lat="45.62002" lon="6.59996">
        <ele>2056</ele>
        <time>2022-07-27T08:30:19Z</time>
      </trkpt>
      <trkpt lat="45.62002" lon="6.59997">
        <ele>2056</ele>
        <time>2022-07-27T08:30:20Z</time>
      </trkpt>
      <trkpt lat="45.62002" lon="6.59998">
        <ele>2055</ele>
        <time>2022-07-27T08:30:21Z</time>
      </trkpt>
      <trkpt lat="45.62002" lon="6.59999">
        <ele>2055</ele>
        <time>2022-07-27T08:30:22Z</time>
      </trkpt>
      <trkpt lat="45.62002" lon="6.6">
        <ele>2055</ele>
        <time>2022-07-27T08:30:23Z</time>
      </trkpt>
      <trkpt lat="45.62002" lon="6.60001">
        <ele>2055</ele>
        <time>2022-07-27T08:30:24Z</time>
      </trkpt>
      <trkpt lat="45.62002" lon="6.60002">
        <ele>2055</ele>
        <time>2022-07-27T08:30:25Z</time>
      </trkpt>
      <trkpt lat="45.62002" lon="6.60003">
        <ele>2054</ele>
        <time>2022-07-27T08:30:26Z</time>
      </trkpt>
      <trkpt lat="45.62002" lon="6.60004">
        <ele>2054</ele>
        <time>2022-07-27T08:30:27Z</time>
      </trkpt>
      <trkpt lat="45.62001" lon="6.60005">
        <ele>2054</ele>
        <time>2022-07-27T08:30:28Z</time>
      </trkpt>
      <trkpt lat="45.62001" lon="6.60006">
        <ele>2054</ele>
        <time>2022-07-27T08:30:29Z</time>
      </trkpt>
      <trkpt lat="45.62001" lon="6.60006">
        <ele>2054</ele>
        <time>2022-07-27T08:30:30Z</time>
      </trkpt>
      <trkpt lat="45.62001" lon="6.60007">
        <ele>2053</ele>
        <time>2022-07-27T08:30:31Z</time>
      </trkpt>
      <trkpt lat="45.62001" lon="6.60008">
        <ele>2053</ele>
        <time>2022-07-27T08:30:32Z</time>
      </trkpt>
      <trkpt lat="45.62001" lon="6.60009">
        <ele>2053</ele>
        <time>2022-07-27T08:30:33Z</time>
      </trkpt>
      <trkpt lat="45.62002" lon="6.60009">
        <ele>2052</ele>
        <time>2022-07-27T08:30:39Z</time>
      </trkpt>
      <trkpt lat="45.62003" lon="6.60009">
        <ele>2052</ele>
        <time>2022-07-27T08:30:40Z</time>
      </trkpt>
      <trkpt lat="45.62003" lon="6.60009">
        <ele>2051</ele>
        <time>2022-07-27T08:30:41Z</time>
      </trkpt>
      <trkpt lat="45.62004" lon="6.60008">
        <ele>2051</ele>
        <time>2022-07-27T08:30:42Z</time>
      </trkpt>
      <trkpt lat="45.62005" lon="6.60008">
        <ele>2051</ele>
        <time>2022-07-27T08:30:43Z</time>
      </trkpt>
      <trkpt lat="45.62005" lon="6.60007">
        <ele>2051</ele>
        <time>2022-07-27T08:30:44Z</time>
      </trkpt>
      <trkpt lat="45.62006" lon="6.60007">
        <ele>2051</ele>
        <time>2022-07-27T08:30:45Z</time>
      </trkpt>
      <trkpt lat="45.62006" lon="6.60007">
        <ele>2050</ele>
        <time>2022-07-27T08:30:46Z</time>
      </trkpt>
      <trkpt lat="45.62007" lon="6.60006">
        <ele>2050</ele>
        <time>2022-07-27T08:30:47Z</time>
      </trkpt>
      <trkpt lat="45.62007" lon="6.60006">
        <ele>2050</ele>
        <time>2022-07-27T08:30:48Z</time>
      </trkpt>
      <trkpt lat="45.62008" lon="6.60005">
        <ele>2050</ele>
        <time>2022-07-27T08:30:49Z</time>
      </trkpt>
      <trkpt lat="45.62009" lon="6.60005">
        <ele>2050</ele>
        <time>2022-07-27T08:30:50Z</time>
      </trkpt>
      <trkpt lat="45.62009" lon="6.60004">
        <ele>2049</ele>
        <time>2022-07-27T08:30:51Z</time>
      </trkpt>
      <trkpt lat="45.62009" lon="6.60004">
        <ele>2049</ele>
        <time>2022-07-27T08:30:52Z</time>
      </trkpt>
      <trkpt lat="45.6201" lon="6.60003">
        <ele>2049</ele>
        <time>2022-07-27T08:30:53Z</time>
      </trkpt>
      <trkpt lat="45.6201" lon="6.60001">
        <ele>2047</ele>
        <time>2022-07-27T08:31:12Z</time>
      </trkpt>
      <trkpt lat="45.62011" lon="6.60001">
        <ele>2047</ele>
        <time>2022-07-27T08:31:13Z</time>
      </trkpt>
      <trkpt lat="45.62011" lon="6.6">
        <ele>2047</ele>
        <time>2022-07-27T08:31:14Z</time>
      </trkpt>
      <trkpt lat="45.62012" lon="6.6">
        <ele>2047</ele>
        <time>2022-07-27T08:31:15Z</time>
      </trkpt>
      <trkpt lat="45.62012" lon="6.6">
        <ele>2047</ele>
        <time>2022-07-27T08:31:16Z</time>
      </trkpt>
      <trkpt lat="45.62013" lon="6.6">
        <ele>2047</ele>
        <time>2022-07-27T08:31:17Z</time>
      </trkpt>
      <trkpt lat="45.62013" lon="6.6">
        <ele>2047</ele>
        <time>2022-07-27T08:31:18Z</time>
      </trkpt>
      <trkpt lat="45.62014" lon="6.60001">
        <ele>2047</ele>
        <time>2022-07-27T08:31:19Z</time>
      </trkpt>
      <trkpt lat="45.62014" lon="6.60002">
        <ele>2047</ele>
        <time>2022-07-27T08:31:20Z</time>
      </trkpt>
      <trkpt lat="45.62014" lon="6.60003">
        <ele>2046</ele>
        <time>2022-07-27T08:31:21Z</time>
      </trkpt>
      <trkpt lat="45.62014" lon="6.60004">
        <ele>2046</ele>
        <time>2022-07-27T08:31:22Z</time>
      </trkpt>
      <trkpt lat="45.62014" lon="6.60005">
        <ele>2045</ele>
        <time>2022-07-27T08:31:42Z</time>
      </trkpt>
      <trkpt lat="45.62014" lon="6.60006">
        <ele>2045</ele>
        <time>2022-07-27T08:31:43Z</time>
      </trkpt>
      <trkpt lat="45.62014" lon="6.60007">
        <ele>2045</ele>
        <time>2022-07-27T08:31:44Z</time>
      </trkpt>
      <trkpt lat="45.62014" lon="6.60008">
        <ele>2045</ele>
        <time>2022-07-27T08:31:45Z</time>
      </trkpt>
      <trkpt lat="45.62014" lon="6.60009">
        <ele>2044</ele>
        <time>2022-07-27T08:31:46Z</time>
      </trkpt>
      <trkpt lat="45.62014" lon="6.6001">
        <ele>2044</ele>
        <time>2022-07-27T08:31:47Z</time>
      </trkpt>
      <trkpt lat="45.62014" lon="6.60012">
        <ele>2044</ele>
        <time>2022-07-27T08:31:48Z</time>
      </trkpt>
      <trkpt lat="45.62015" lon="6.60012">
        <ele>2044</ele>
        <time>2022-07-27T08:31:49Z</time>
      </trkpt>
      <trkpt lat="45.62015" lon="6.60013">
        <ele>2044</ele>
        <time>2022-07-27T08:31:50Z</time>
      </trkpt>
      <trkpt lat="45.62016" lon="6.60013">
        <ele>2044</ele>
        <time>2022-07-27T08:31:51Z</time>
      </trkpt>
      <trkpt lat="45.62017" lon="6.60013">
        <ele>2044</ele>
        <time>2022-07-27T08:31:52Z</time>
      </trkpt>
      <trkpt lat="45.62017" lon="6.60013">
        <ele>2044</ele>
        <time>2022-07-27T08:31:53Z</time>
      </trkpt>
      <trkpt lat="45.62018" lon="6.60012">
        <ele>2044</ele>
        <time>2022-07-27T08:31:54Z</time>
      </trkpt>
      <trkpt lat="45.62019" lon="6.60012">
        <ele>2044</ele>
        <time>2022-07-27T08:31:55Z</time>
      </trkpt>
      <trkpt lat="45.6202" lon="6.60011">
        <ele>2043</ele>
        <time>2022-07-27T08:31:56Z</time>
      </trkpt>
      <trkpt lat="45.6202" lon="6.6001">
        <ele>2043</ele>
        <time>2022-07-27T08:31:57Z</time>
      </trkpt>
      <trkpt lat="45.62021" lon="6.6001">
        <ele>2043</ele>
        <time>2022-07-27T08:31:58Z</time>
      </trkpt>
      <trkpt lat="45.62022" lon="6.60009">
        <ele>2043</ele>
        <time>2022-07-27T08:31:59Z</time>
      </trkpt>
      <trkpt lat="45.62022" lon="6.60009">
        <ele>2043</ele>
        <time>2022-07-27T08:32:00Z</time>
      </trkpt>
      <trkpt lat="45.62023" lon="6.60008">
        <ele>2042</ele>
        <time>2022-07-27T08:32:01Z</time>
      </trkpt>
      <trkpt lat="45.62024" lon="6.60008">
        <ele>2042</ele>
        <time>2022-07-27T08:32:02Z</time>
      </trkpt>
      <trkpt lat="45.62025" lon="6.60007">
        <ele>2041</ele>
        <time>2022-07-27T08:32:03Z</time>
      </trkpt>
      <trkpt lat="45.62026" lon="6.60007">
        <ele>2041</ele>
        <time>2022-07-27T08:32:04Z</time>
      </trkpt>
      <trkpt lat="45.62027" lon="6.60007">
        <ele>2041</ele>
        <time>2022-07-27T08:32:05Z</time>
      </trkpt>
      <trkpt lat="45.62028" lon="6.60007">
        <ele>2040</ele>
        <time>2022-07-27T08:32:06Z</time>
      </trkpt>
      <trkpt lat="45.62029" lon="6.60007">
        <ele>2040</ele>
        <time>2022-07-27T08:32:07Z</time>
      </trkpt>
      <trkpt lat="45.6203" lon="6.60007">
        <ele>2040</ele>
        <time>2022-07-27T08:32:08Z</time>
      </trkpt>
      <trkpt lat="45.62031" lon="6.60006">
        <ele>2040</ele>
        <time>2022-07-27T08:32:09Z</time>
      </trkpt>
      <trkpt lat="45.62032" lon="6.60006">
        <ele>2040</ele>
        <time>2022-07-27T08:32:10Z</time>
      </trkpt>
      <trkpt lat="45.62033" lon="6.60006">
        <ele>2039</ele>
        <time>2022-07-27T08:32:11Z</time>
      </trkpt>
      <trkpt lat="45.62034" lon="6.60005">
        <ele>2039</ele>
        <time>2022-07-27T08:32:12Z</time>
      </trkpt>
      <trkpt lat="45.62035" lon="6.60005">
        <ele>2039</ele>
        <time>2022-07-27T08:32:13Z</time>
      </trkpt>
      <trkpt lat="45.62036" lon="6.60005">
        <ele>2039</ele>
        <time>2022-07-27T08:32:14Z</time>
      </trkpt>
      <trkpt lat="45.62037" lon="6.60004">
        <ele>2039</ele>
        <time>2022-07-27T08:32:15Z</time>
      </trkpt>
      <trkpt lat="45.62039" lon="6.60004">
        <ele>2038</ele>
        <time>2022-07-27T08:32:16Z</time>
      </trkpt>
      <trkpt lat="45.6204" lon="6.60003">
        <ele>2038</ele>
        <time>2022-07-27T08:32:17Z</time>
      </trkpt>
      <trkpt lat="45.62041" lon="6.60003">
        <ele>2038</ele>
        <time>2022-07-27T08:32:18Z</time>
      </trkpt>
      <trkpt lat="45.62042" lon="6.60003">
        <ele>2038</ele>
        <time>2022-07-27T08:32:19Z</time>
      </trkpt>
      <trkpt lat="45.62043" lon="6.60003">
        <ele>2038</ele>
        <time>2022-07-27T08:32:20Z</time>
      </trkpt>
      <trkpt lat="45.62044" lon="6.60003">
        <ele>2037</ele>
        <time>2022-07-27T08:32:21Z</time>
      </trkpt>
      <trkpt lat="45.62045" lon="6.60003">
        <ele>2037</ele>
        <time>2022-07-27T08:32:22Z</time>
      </trkpt>
      <trkpt lat="45.62045" lon="6.60003">
        <ele>2037</ele>
        <time>2022-07-27T08:32:23Z</time>
      </trkpt>
      <trkpt lat="45.62045" lon="6.60004">
        <ele>2037</ele>
        <time>2022-07-27T08:32:24Z</time>
      </trkpt>
      <trkpt lat="45.62046" lon="6.60005">
        <ele>2037</ele>
        <time>2022-07-27T08:32:25Z</time>
      </trkpt>
      <trkpt lat="45.62046" lon="6.60005">
        <ele>2036</ele>
        <time>2022-07-27T08:32:26Z</time>
      </trkpt>
      <trkpt lat="45.62046" lon="6.60006">
        <ele>2036</ele>
        <time>2022-07-27T08:32:27Z</time>
      </trkpt>
      <trkpt lat="45.62046" lon="6.60007">
        <ele>2035</ele>
        <time>2022-07-27T08:32:28Z</time>
      </trkpt>
      <trkpt lat="45.62046" lon="6.60007">
        <ele>2035</ele>
        <time>2022-07-27T08:32:29Z</time>
      </trkpt>
      <trkpt lat="45.62047" lon="6.60008">
        <ele>2035</ele>
        <time>2022-07-27T08:32:30Z</time>
      </trkpt>
      <trkpt lat="45.62047" lon="6.60008">
        <ele>2034</ele>
        <time>2022-07-27T08:32:31Z</time>
      </trkpt>
      <trkpt lat="45.62048" lon="6.60008">
        <ele>2034</ele>
        <time>2022-07-27T08:32:32Z</time>
      </trkpt>
      <trkpt lat="45.62049" lon="6.60008">
        <ele>2034</ele>
        <time>2022-07-27T08:32:33Z</time>
      </trkpt>
      <trkpt lat="45.6205" lon="6.60008">
        <ele>2034</ele>
        <time>2022-07-27T08:32:34Z</time>
      </trkpt>
      <trkpt lat="45.62051" lon="6.60008">
        <ele>2034</ele>
        <time>2022-07-27T08:32:35Z</time>
      </trkpt>
      <trkpt lat="45.62051" lon="6.60007">
        <ele>2033</ele>
        <time>2022-07-27T08:32:36Z</time>
      </trkpt>
      <trkpt lat="45.62052" lon="6.60007">
        <ele>2033</ele>
        <time>2022-07-27T08:32:37Z</time>
      </trkpt>
      <trkpt lat="45.62053" lon="6.60007">
        <ele>2033</ele>
        <time>2022-07-27T08:32:38Z</time>
      </trkpt>
      <trkpt lat="45.62054" lon="6.60007">
        <ele>2033</ele>
        <time>2022-07-27T08:32:39Z</time>
      </trkpt>
      <trkpt lat="45.62055" lon="6.60007">
        <ele>2033</ele>
        <time>2022-07-27T08:32:40Z</time>
      </trkpt>
      <trkpt lat="45.62056" lon="6.60007">
        <ele>2032</ele>
        <time>2022-07-27T08:32:41Z</time>
      </trkpt>
      <trkpt lat="45.62057" lon="6.60008">
        <ele>2032</ele>
        <time>2022-07-27T08:32:42Z</time>
      </trkpt>
      <trkpt lat="45.62059" lon="6.60008">
        <ele>2031</ele>
        <time>2022-07-27T08:32:43Z</time>
      </trkpt>
      <trkpt lat="45.6206" lon="6.60008">
        <ele>2031</ele>
        <time>2022-07-27T08:32:44Z</time>
      </trkpt>
      <trkpt lat="45.62061" lon="6.60008">
        <ele>2031</ele>
        <time>2022-07-27T08:32:45Z</time>
      </trkpt>
      <trkpt lat="45.62062" lon="6.60008">
        <ele>2030</ele>
        <time>2022-07-27T08:32:46Z</time>
      </trkpt>
      <trkpt lat="45.62063" lon="6.60008">
        <ele>2030</ele>
        <time>2022-07-27T08:32:47Z</time>
      </trkpt>
      <trkpt lat="45.62065" lon="6.60008">
        <ele>2030</ele>
        <time>2022-07-27T08:32:48Z</time>
      </trkpt>
      <trkpt lat="45.62066" lon="6.60009">
        <ele>2030</ele>
        <time>2022-07-27T08:32:49Z</time>
      </trkpt>
      <trkpt lat="45.62067" lon="6.60009">
        <ele>2030</ele>
        <time>2022-07-27T08:32:50Z</time>
      </trkpt>
      <trkpt lat="45.62068" lon="6.60009">
        <ele>2029</ele>
        <time>2022-07-27T08:32:51Z</time>
      </trkpt>
      <trkpt lat="45.62069" lon="6.6001">
        <ele>2029</ele>
        <time>2022-07-27T08:32:52Z</time>
      </trkpt>
      <trkpt lat="45.6207" lon="6.60009">
        <ele>2029</ele>
        <time>2022-07-27T08:32:53Z</time>
      </trkpt>
      <trkpt lat="45.62071" lon="6.60009">
        <ele>2029</ele>
        <time>2022-07-27T08:32:54Z</time>
      </trkpt>
      <trkpt lat="45.62073" lon="6.60009">
        <ele>2029</ele>
        <time>2022-07-27T08:32:55Z</time>
      </trkpt>
      <trkpt lat="45.62074" lon="6.60009">
        <ele>2028</ele>
        <time>2022-07-27T08:32:56Z</time>
      </trkpt>
      <trkpt lat="45.62075" lon="6.60008">
        <ele>2028</ele>
        <time>2022-07-27T08:32:57Z</time>
      </trkpt>
      <trkpt lat="45.62077" lon="6.60008">
        <ele>2027</ele>
        <time>2022-07-27T08:32:58Z</time>
      </trkpt>
      <trkpt lat="45.62078" lon="6.60007">
        <ele>2027</ele>
        <time>2022-07-27T08:32:59Z</time>
      </trkpt>
      <trkpt lat="45.62079" lon="6.60007">
        <ele>2027</ele>
        <time>2022-07-27T08:33:00Z</time>
      </trkpt>
      <trkpt lat="45.6208" lon="6.60006">
        <ele>2026</ele>
        <time>2022-07-27T08:33:01Z</time>
      </trkpt>
      <trkpt lat="45.62082" lon="6.60005">
        <ele>2026</ele>
        <time>2022-07-27T08:33:02Z</time>
      </trkpt>
      <trkpt lat="45.62083" lon="6.60005">
        <ele>2026</ele>
        <time>2022-07-27T08:33:03Z</time>
      </trkpt>
      <trkpt lat="45.62084" lon="6.60004">
        <ele>2026</ele>
        <time>2022-07-27T08:33:04Z</time>
      </trkpt>
      <trkpt lat="45.62084" lon="6.60003">
        <ele>2026</ele>
        <time>2022-07-27T08:33:05Z</time>
      </trkpt>
      <trkpt lat="45.62085" lon="6.60003">
        <ele>2025</ele>
        <time>2022-07-27T08:33:06Z</time>
      </trkpt>
      <trkpt lat="45.62086" lon="6.60002">
        <ele>2025</ele>
        <time>2022-07-27T08:33:07Z</time>
      </trkpt>
      <trkpt lat="45.62087" lon="6.60002">
        <ele>2025</ele>
        <time>2022-07-27T08:33:08Z</time>
      </trkpt>
      <trkpt lat="45.62088" lon="6.60002">
        <ele>2025</ele>
        <time>2022-07-27T08:33:09Z</time>
      </trkpt>
      <trkpt lat="45.62089" lon="6.60001">
        <ele>2025</ele>
        <time>2022-07-27T08:33:10Z</time>
      </trkpt>
      <trkpt lat="45.6209" lon="6.60001">
        <ele>2024</ele>
        <time>2022-07-27T08:33:11Z</time>
      </trkpt>
      <trkpt lat="45.62091" lon="6.60001">
        <ele>2024</ele>
        <time>2022-07-27T08:33:12Z</time>
      </trkpt>
      <trkpt lat="45.62092" lon="6.60001">
        <ele>2024</ele>
        <time>2022-07-27T08:33:13Z</time>
      </trkpt>
      <trkpt lat="45.62093" lon="6.60001">
        <ele>2024</ele>
        <time>2022-07-27T08:33:14Z</time>
      </trkpt>
      <trkpt lat="45.62094" lon="6.60002">
        <ele>2024</ele>
        <time>2022-07-27T08:33:15Z</time>
      </trkpt>
      <trkpt lat="45.62095" lon="6.60002">
        <ele>2023</ele>
        <time>2022-07-27T08:33:16Z</time>
      </trkpt>
      <trkpt lat="45.62096" lon="6.60001">
        <ele>2023</ele>
        <time>2022-07-27T08:33:17Z</time>
      </trkpt>
      <trkpt lat="45.62096" lon="6.60001">
        <ele>2023</ele>
        <time>2022-07-27T08:33:18Z</time>
      </trkpt>
      <trkpt lat="45.62096" lon="6.60001">
        <ele>2023</ele>
        <time>2022-07-27T08:33:19Z</time>
      </trkpt>
      <trkpt lat="45.62097" lon="6.60001">
        <ele>2023</ele>
        <time>2022-07-27T08:33:20Z</time>
      </trkpt>
      <trkpt lat="45.62097" lon="6.60001">
        <ele>2022</ele>
        <time>2022-07-27T08:33:21Z</time>
      </trkpt>
      <trkpt lat="45.62098" lon="6.6">
        <ele>2022</ele>
        <time>2022-07-27T08:33:22Z</time>
      </trkpt>
      <trkpt lat="45.62098" lon="6.6">
        <ele>2022</ele>
        <time>2022-07-27T08:33:23Z</time>
      </trkpt>
      <trkpt lat="45.62099" lon="6.59999">
        <ele>2021</ele>
        <time>2022-07-27T08:33:45Z</time>
      </trkpt>
      <trkpt lat="45.62099" lon="6.59998">
        <ele>2021</ele>
        <time>2022-07-27T08:33:46Z</time>
      </trkpt>
      <trkpt lat="45.62099" lon="6.59998">
        <ele>2021</ele>
        <time>2022-07-27T08:33:47Z</time>
      </trkpt>
      <trkpt lat="45.621" lon="6.59997">
        <ele>2021</ele>
        <time>2022-07-27T08:33:48Z</time>
      </trkpt>
      <trkpt lat="45.621" lon="6.59996">
        <ele>2021</ele>
        <time>2022-07-27T08:33:49Z</time>
      </trkpt>
      <trkpt lat="45.62101" lon="6.59996">
        <ele>2021</ele>
        <time>2022-07-27T08:33:50Z</time>
      </trkpt>
      <trkpt lat="45.62102" lon="6.59995">
        <ele>2020</ele>
        <time>2022-07-27T08:33:51Z</time>
      </trkpt>
      <trkpt lat="45.62103" lon="6.59994">
        <ele>2020</ele>
        <time>2022-07-27T08:33:52Z</time>
      </trkpt>
      <trkpt lat="45.62104" lon="6.59994">
        <ele>2020</ele>
        <time>2022-07-27T08:33:53Z</time>
      </trkpt>
      <trkpt lat="45.62105" lon="6.59994">
        <ele>2020</ele>
        <time>2022-07-27T08:33:54Z</time>
      </trkpt>
      <trkpt lat="45.62106" lon="6.59994">
        <ele>2020</ele>
        <time>2022-07-27T08:33:55Z</time>
      </trkpt>
      <trkpt lat="45.62107" lon="6.59995">
        <ele>2019</ele>
        <time>2022-07-27T08:33:56Z</time>
      </trkpt>
      <trkpt lat="45.62107" lon="6.59996">
        <ele>2019</ele>
        <time>2022-07-27T08:33:57Z</time>
      </trkpt>
      <trkpt lat="45.62108" lon="6.59998">
        <ele>2019</ele>
        <time>2022-07-27T08:33:58Z</time>
      </trkpt>
      <trkpt lat="45.62109" lon="6.59999">
        <ele>2019</ele>
        <time>2022-07-27T08:33:59Z</time>
      </trkpt>
      <trkpt lat="45.62109" lon="6.60001">
        <ele>2019</ele>
        <time>2022-07-27T08:34:00Z</time>
      </trkpt>
      <trkpt lat="45.6211" lon="6.60002">
        <ele>2018</ele>
        <time>2022-07-27T08:34:01Z</time>
      </trkpt>
      <trkpt lat="45.6211" lon="6.60004">
        <ele>2018</ele>
        <time>2022-07-27T08:34:02Z</time>
      </trkpt>
      <trkpt lat="45.6211" lon="6.60005">
        <ele>2018</ele>
        <time>2022-07-27T08:34:03Z</time>
      </trkpt>
      <trkpt lat="45.62109" lon="6.60007">
        <ele>2018</ele>
        <time>2022-07-27T08:34:04Z</time>
      </trkpt>
      <trkpt lat="45.62109" lon="6.60008">
        <ele>2018</ele>
        <time>2022-07-27T08:34:05Z</time>
      </trkpt>
      <trkpt lat="45.62108" lon="6.60009">
        <ele>2017</ele>
        <time>2022-07-27T08:34:06Z</time>
      </trkpt>
      <trkpt lat="45.62108" lon="6.60011">
        <ele>2017</ele>
        <time>2022-07-27T08:34:07Z</time>
      </trkpt>
      <trkpt lat="45.62106" lon="6.60012">
        <ele>2017</ele>
        <time>2022-07-27T08:34:15Z</time>
      </trkpt>
      <trkpt lat="45.62106" lon="6.60012">
        <ele>2017</ele>
        <time>2022-07-27T08:34:16Z</time>
      </trkpt>
      <trkpt lat="45.62105" lon="6.60013">
        <ele>2017</ele>
        <time>2022-07-27T08:34:17Z</time>
      </trkpt>
      <trkpt lat="45.62105" lon="6.60014">
        <ele>2017</ele>
        <time>2022-07-27T08:34:18Z</time>
      </trkpt>
      <trkpt lat="45.62104" lon="6.60014">
        <ele>2017</ele>
        <time>2022-07-27T08:34:19Z</time>
      </trkpt>
      <trkpt lat="45.62104" lon="6.60016">
        <ele>2017</ele>
        <time>2022-07-27T08:34:20Z</time>
      </trkpt>
      <trkpt lat="45.62103" lon="6.60017">
        <ele>2016</ele>
        <time>2022-07-27T08:34:21Z</time>
      </trkpt>
      <trkpt lat="45.62102" lon="6.60019">
        <ele>2016</ele>
        <time>2022-07-27T08:34:22Z</time>
      </trkpt>
      <trkpt lat="45.62101" lon="6.6002">
        <ele>2016</ele>
        <time>2022-07-27T08:34:23Z</time>
      </trkpt>
      <trkpt lat="45.621" lon="6.60023">
        <ele>2015</ele>
        <time>2022-07-27T08:34:29Z</time>
      </trkpt>
      <trkpt lat="45.62101" lon="6.60024">
        <ele>2015</ele>
        <time>2022-07-27T08:34:30Z</time>
      </trkpt>
      <trkpt lat="45.62101" lon="6.60024">
        <ele>2015</ele>
        <time>2022-07-27T08:34:31Z</time>
      </trkpt>
      <trkpt lat="45.62102" lon="6.60024">
        <ele>2015</ele>
        <time>2022-07-27T08:34:32Z</time>
      </trkpt>
      <trkpt lat="45.62102" lon="6.60024">
        <ele>2015</ele>
        <time>2022-07-27T08:34:33Z</time>
      </trkpt>
      <trkpt lat="45.62103" lon="6.60024">
        <ele>2015</ele>
        <time>2022-07-27T08:34:34Z</time>
      </trkpt>
      <trkpt lat="45.62104" lon="6.60024">
        <ele>2015</ele>
        <time>2022-07-27T08:34:35Z</time>
      </trkpt>
      <trkpt lat="45.62104" lon="6.60023">
        <ele>2014</ele>
        <time>2022-07-27T08:34:36Z</time>
      </trkpt>
      <trkpt lat="45.62105" lon="6.60023">
        <ele>2014</ele>
        <time>2022-07-27T08:34:37Z</time>
      </trkpt>
      <trkpt lat="45.62106" lon="6.60022">
        <ele>2014</ele>
        <time>2022-07-27T08:34:38Z</time>
      </trkpt>
      <trkpt lat="45.62107" lon="6.60022">
        <ele>2014</ele>
        <time>2022-07-27T08:34:39Z</time>
      </trkpt>
      <trkpt lat="45.62107" lon="6.60022">
        <ele>2014</ele>
        <time>2022-07-27T08:34:40Z</time>
      </trkpt>
      <trkpt lat="45.62108" lon="6.60021">
        <ele>2013</ele>
        <time>2022-07-27T08:34:41Z</time>
      </trkpt>
      <trkpt lat="45.6211" lon="6.60021">
        <ele>2011</ele>
        <time>2022-07-27T08:34:52Z</time>
      </trkpt>
      <trkpt lat="45.62111" lon="6.60021">
        <ele>2011</ele>
        <time>2022-07-27T08:34:53Z</time>
      </trkpt>
      <trkpt lat="45.62112" lon="6.6002">
        <ele>2011</ele>
        <time>2022-07-27T08:34:54Z</time>
      </trkpt>
      <trkpt lat="45.62113" lon="6.6002">
        <ele>2011</ele>
        <time>2022-07-27T08:34:55Z</time>
      </trkpt>
      <trkpt lat="45.62114" lon="6.60019">
        <ele>2010</ele>
        <time>2022-07-27T08:34:56Z</time>
      </trkpt>
      <trkpt lat="45.62115" lon="6.60019">
        <ele>2010</ele>
        <time>2022-07-27T08:34:57Z</time>
      </trkpt>
      <trkpt lat="45.62116" lon="6.60018">
        <ele>2010</ele>
        <time>2022-07-27T08:34:58Z</time>
      </trkpt>
      <trkpt lat="45.62117" lon="6.60018">
        <ele>2010</ele>
        <time>2022-07-27T08:34:59Z</time>
      </trkpt>
      <trkpt lat="45.62118" lon="6.60017">
        <ele>2010</ele>
        <time>2022-07-27T08:35:00Z</time>
      </trkpt>
      <trkpt lat="45.62119" lon="6.60017">
        <ele>2009</ele>
        <time>2022-07-27T08:35:01Z</time>
      </trkpt>
      <trkpt lat="45.6212" lon="6.60017">
        <ele>2009</ele>
        <time>2022-07-27T08:35:02Z</time>
      </trkpt>
      <trkpt lat="45.6212" lon="6.60017">
        <ele>2009</ele>
        <time>2022-07-27T08:35:03Z</time>
      </trkpt>
      <trkpt lat="45.62121" lon="6.60018">
        <ele>2009</ele>
        <time>2022-07-27T08:35:04Z</time>
      </trkpt>
      <trkpt lat="45.62121" lon="6.60019">
        <ele>2009</ele>
        <time>2022-07-27T08:35:05Z</time>
      </trkpt>
      <trkpt lat="45.62121" lon="6.6002">
        <ele>2008</ele>
        <time>2022-07-27T08:35:06Z</time>
      </trkpt>
      <trkpt lat="45.62121" lon="6.60022">
        <ele>2008</ele>
        <time>2022-07-27T08:35:07Z</time>
      </trkpt>
      <trkpt lat="45.62121" lon="6.60023">
        <ele>2007</ele>
        <time>2022-07-27T08:35:08Z</time>
      </trkpt>
      <trkpt lat="45.62121" lon="6.60025">
        <ele>2007</ele>
        <time>2022-07-27T08:35:09Z</time>
      </trkpt>
      <trkpt lat="45.62122" lon="6.60026">
        <ele>2007</ele>
        <time>2022-07-27T08:35:10Z</time>
      </trkpt>
      <trkpt lat="45.62122" lon="6.60027">
        <ele>2006</ele>
        <time>2022-07-27T08:35:11Z</time>
      </trkpt>
      <trkpt lat="45.62123" lon="6.60028">
        <ele>2006</ele>
        <time>2022-07-27T08:35:12Z</time>
      </trkpt>
      <trkpt lat="45.62124" lon="6.60029">
        <ele>2006</ele>
        <time>2022-07-27T08:35:13Z</time>
      </trkpt>
      <trkpt lat="45.62125" lon="6.6003">
        <ele>2006</ele>
        <time>2022-07-27T08:35:14Z</time>
      </trkpt>
      <trkpt lat="45.62126" lon="6.6003">
        <ele>2006</ele>
        <time>2022-07-27T08:35:15Z</time>
      </trkpt>
      <trkpt lat="45.62127" lon="6.6003">
        <ele>2005</ele>
        <time>2022-07-27T08:35:16Z</time>
      </trkpt>
      <trkpt lat="45.62129" lon="6.60031">
        <ele>2005</ele>
        <time>2022-07-27T08:35:17Z</time>
      </trkpt>
      <trkpt lat="45.6213" lon="6.60031">
        <ele>2005</ele>
        <time>2022-07-27T08:35:18Z</time>
      </trkpt>
      <trkpt lat="45.62131" lon="6.60032">
        <ele>2005</ele>
        <time>2022-07-27T08:35:19Z</time>
      </trkpt>
      <trkpt lat="45.62132" lon="6.60033">
        <ele>2005</ele>
        <time>2022-07-27T08:35:20Z</time>
      </trkpt>
      <trkpt lat="45.62133" lon="6.60033">
        <ele>2004</ele>
        <time>2022-07-27T08:35:21Z</time>
      </trkpt>
      <trkpt lat="45.62133" lon="6.60033">
        <ele>2004</ele>
        <time>2022-07-27T08:35:22Z</time>
      </trkpt>
      <trkpt lat="45.62134" lon="6.60033">
        <ele>2004</ele>
        <time>2022-07-27T08:35:23Z</time>
      </trkpt>
      <trkpt lat="45.62134" lon="6.60033">
        <ele>2004</ele>
        <time>2022-07-27T08:35:24Z</time>
      </trkpt>
      <trkpt lat="45.62135" lon="6.60033">
        <ele>2004</ele>
        <time>2022-07-27T08:35:25Z</time>
      </trkpt>
      <trkpt lat="45.62136" lon="6.60033">
        <ele>2003</ele>
        <time>2022-07-27T08:35:26Z</time>
      </trkpt>
      <trkpt lat="45.62136" lon="6.60033">
        <ele>2003</ele>
        <time>2022-07-27T08:35:27Z</time>
      </trkpt>
      <trkpt lat="45.62137" lon="6.60032">
        <ele>2003</ele>
        <time>2022-07-27T08:35:28Z</time>
      </trkpt>
      <trkpt lat="45.62138" lon="6.60032">
        <ele>2003</ele>
        <time>2022-07-27T08:35:29Z</time>
      </trkpt>
      <trkpt lat="45.6214" lon="6.60032">
        <ele>2002</ele>
        <time>2022-07-27T08:37:07Z</time>
      </trkpt>
      <trkpt lat="45.6214" lon="6.60031">
        <ele>2002</ele>
        <time>2022-07-27T08:37:08Z</time>
      </trkpt>
      <trkpt lat="45.6214" lon="6.60031">
        <ele>2002</ele>
        <time>2022-07-27T08:37:09Z</time>
      </trkpt>
      <trkpt lat="45.6214" lon="6.60032">
        <ele>2002</ele>
        <time>2022-07-27T08:37:10Z</time>
      </trkpt>
      <trkpt lat="45.6214" lon="6.60032">
        <ele>2002</ele>
        <time>2022-07-27T08:37:11Z</time>
      </trkpt>
      <trkpt lat="45.6214" lon="6.60032">
        <ele>2002</ele>
        <time>2022-07-27T08:37:12Z</time>
      </trkpt>
      <trkpt lat="45.62139" lon="6.60033">
        <ele>2002</ele>
        <time>2022-07-27T08:37:13Z</time>
      </trkpt>
      <trkpt lat="45.6214" lon="6.60033">
        <ele>2002</ele>
        <time>2022-07-27T08:37:14Z</time>
      </trkpt>
      <trkpt lat="45.6214" lon="6.60033">
        <ele>2002</ele>
        <time>2022-07-27T08:37:15Z</time>
      </trkpt>
      <trkpt lat="45.62141" lon="6.60032">
        <ele>2002</ele>
        <time>2022-07-27T08:37:16Z</time>
      </trkpt>
      <trkpt lat="45.62141" lon="6.60032">
        <ele>2002</ele>
        <time>2022-07-27T08:37:17Z</time>
      </trkpt>
      <trkpt lat="45.62142" lon="6.60031">
        <ele>2002</ele>
        <time>2022-07-27T08:37:18Z</time>
      </trkpt>
      <trkpt lat="45.62143" lon="6.6003">
        <ele>2002</ele>
        <time>2022-07-27T08:37:19Z</time>
      </trkpt>
      <trkpt lat="45.62144" lon="6.6003">
        <ele>2002</ele>
        <time>2022-07-27T08:37:20Z</time>
      </trkpt>
      <trkpt lat="45.62144" lon="6.6003">
        <ele>2002</ele>
        <time>2022-07-27T08:37:21Z</time>
      </trkpt>
      <trkpt lat="45.62145" lon="6.60029">
        <ele>2002</ele>
        <time>2022-07-27T08:37:22Z</time>
      </trkpt>
      <trkpt lat="45.62145" lon="6.60029">
        <ele>2002</ele>
        <time>2022-07-27T08:37:23Z</time>
      </trkpt>
      <trkpt lat="45.62146" lon="6.60028">
        <ele>2001</ele>
        <time>2022-07-27T08:37:40Z</time>
      </trkpt>
      <trkpt lat="45.62146" lon="6.60028">
        <ele>2000</ele>
        <time>2022-07-27T08:37:41Z</time>
      </trkpt>
      <trkpt lat="45.62147" lon="6.60028">
        <ele>2000</ele>
        <time>2022-07-27T08:37:42Z</time>
      </trkpt>
      <trkpt lat="45.62147" lon="6.60028">
        <ele>2000</ele>
        <time>2022-07-27T08:37:43Z</time>
      </trkpt>
      <trkpt lat="45.62148" lon="6.60028">
        <ele>2000</ele>
        <time>2022-07-27T08:37:44Z</time>
      </trkpt>
      <trkpt lat="45.62149" lon="6.60029">
        <ele>2000</ele>
        <time>2022-07-27T08:37:45Z</time>
      </trkpt>
      <trkpt lat="45.62149" lon="6.6003">
        <ele>2000</ele>
        <time>2022-07-27T08:37:46Z</time>
      </trkpt>
      <trkpt lat="45.6215" lon="6.60031">
        <ele>2000</ele>
        <time>2022-07-27T08:37:47Z</time>
      </trkpt>
      <trkpt lat="45.62151" lon="6.60032">
        <ele>2000</ele>
        <time>2022-07-27T08:37:48Z</time>
      </trkpt>
      <trkpt lat="45.62152" lon="6.60032">
        <ele>2000</ele>
        <time>2022-07-27T08:37:49Z</time>
      </trkpt>
      <trkpt lat="45.62153" lon="6.60033">
        <ele>2000</ele>
        <time>2022-07-27T08:37:50Z</time>
      </trkpt>
      <trkpt lat="45.62154" lon="6.60034">
        <ele>1999</ele>
        <time>2022-07-27T08:37:51Z</time>
      </trkpt>
      <trkpt lat="45.62155" lon="6.60035">
        <ele>1999</ele>
        <time>2022-07-27T08:37:52Z</time>
      </trkpt>
      <trkpt lat="45.62156" lon="6.60035">
        <ele>1999</ele>
        <time>2022-07-27T08:37:53Z</time>
      </trkpt>
      <trkpt lat="45.62157" lon="6.60036">
        <ele>1999</ele>
        <time>2022-07-27T08:37:54Z</time>
      </trkpt>
      <trkpt lat="45.62158" lon="6.60036">
        <ele>1999</ele>
        <time>2022-07-27T08:37:55Z</time>
      </trkpt>
      <trkpt lat="45.62159" lon="6.60036">
        <ele>1998</ele>
        <time>2022-07-27T08:37:56Z</time>
      </trkpt>
      <trkpt lat="45.62161" lon="6.60035">
        <ele>1998</ele>
        <time>2022-07-27T08:37:57Z</time>
      </trkpt>
      <trkpt lat="45.62162" lon="6.60034">
        <ele>1998</ele>
        <time>2022-07-27T08:37:58Z</time>
      </trkpt>
      <trkpt lat="45.62163" lon="6.60033">
        <ele>1998</ele>
        <time>2022-07-27T08:37:59Z</time>
      </trkpt>
      <trkpt lat="45.62163" lon="6.60032">
        <ele>1998</ele>
        <time>2022-07-27T08:38:00Z</time>
      </trkpt>
      <trkpt lat="45.62164" lon="6.60031">
        <ele>1997</ele>
        <time>2022-07-27T08:38:01Z</time>
      </trkpt>
      <trkpt lat="45.62164" lon="6.60029">
        <ele>1997</ele>
        <time>2022-07-27T08:38:02Z</time>
      </trkpt>
      <trkpt lat="45.62164" lon="6.60029">
        <ele>1997</ele>
        <time>2022-07-27T08:38:03Z</time>
      </trkpt>
      <trkpt lat="45.62164" lon="6.60028">
        <ele>1997</ele>
        <time>2022-07-27T08:38:04Z</time>
      </trkpt>
      <trkpt lat="45.62163" lon="6.60027">
        <ele>1997</ele>
        <time>2022-07-27T08:38:05Z</time>
      </trkpt>
      <trkpt lat="45.62163" lon="6.60026">
        <ele>1996</ele>
        <time>2022-07-27T08:38:06Z</time>
      </trkpt>
      <trkpt lat="45.62163" lon="6.60025">
        <ele>1996</ele>
        <time>2022-07-27T08:38:07Z</time>
      </trkpt>
      <trkpt lat="45.62163" lon="6.60025">
        <ele>1996</ele>
        <time>2022-07-27T08:38:08Z</time>
      </trkpt>
      <trkpt lat="45.62163" lon="6.60024">
        <ele>1996</ele>
        <time>2022-07-27T08:38:09Z</time>
      </trkpt>
      <trkpt lat="45.62163" lon="6.60023">
        <ele>1996</ele>
        <time>2022-07-27T08:38:10Z</time>
      </trkpt>
      <trkpt lat="45.62163" lon="6.60022">
        <ele>1995</ele>
        <time>2022-07-27T08:38:11Z</time>
      </trkpt>
      <trkpt lat="45.62163" lon="6.60019">
        <ele>1994</ele>
        <time>2022-07-27T08:38:23Z</time>
      </trkpt>
      <trkpt lat="45.62163" lon="6.60018">
        <ele>1994</ele>
        <time>2022-07-27T08:38:24Z</time>
      </trkpt>
      <trkpt lat="45.62163" lon="6.60017">
        <ele>1994</ele>
        <time>2022-07-27T08:38:25Z</time>
      </trkpt>
      <trkpt lat="45.62163" lon="6.60015">
        <ele>1993</ele>
        <time>2022-07-27T08:38:26Z</time>
      </trkpt>
      <trkpt lat="45.62164" lon="6.60014">
        <ele>1993</ele>
        <time>2022-07-27T08:38:27Z</time>
      </trkpt>
      <trkpt lat="45.62164" lon="6.60013">
        <ele>1993</ele>
        <time>2022-07-27T08:38:28Z</time>
      </trkpt>
      <trkpt lat="45.62165" lon="6.60011">
        <ele>1993</ele>
        <time>2022-07-27T08:38:29Z</time>
      </trkpt>
      <trkpt lat="45.62166" lon="6.6001">
        <ele>1990</ele>
        <time>2022-07-27T08:38:55Z</time>
      </trkpt>
      <trkpt lat="45.62166" lon="6.60009">
        <ele>1990</ele>
        <time>2022-07-27T08:38:56Z</time>
      </trkpt>
      <trkpt lat="45.62167" lon="6.60008">
        <ele>1990</ele>
        <time>2022-07-27T08:38:57Z</time>
      </trkpt>
      <trkpt lat="45.62167" lon="6.60007">
        <ele>1990</ele>
        <time>2022-07-27T08:38:58Z</time>
      </trkpt>
      <trkpt lat="45.62168" lon="6.60006">
        <ele>1990</ele>
        <time>2022-07-27T08:38:59Z</time>
      </trkpt>
      <trkpt lat="45.62169" lon="6.60006">
        <ele>1991</ele>
        <time>2022-07-27T08:39:00Z</time>
      </trkpt>
      <trkpt lat="45.6217" lon="6.60005">
        <ele>1990</ele>
        <time>2022-07-27T08:39:01Z</time>
      </trkpt>
      <trkpt lat="45.62171" lon="6.60005">
        <ele>1990</ele>
        <time>2022-07-27T08:39:02Z</time>
      </trkpt>
      <trkpt lat="45.62172" lon="6.60005">
        <ele>1990</ele>
        <time>2022-07-27T08:39:03Z</time>
      </trkpt>
      <trkpt lat="45.62173" lon="6.60004">
        <ele>1990</ele>
        <time>2022-07-27T08:39:04Z</time>
      </trkpt>
      <trkpt lat="45.62174" lon="6.60004">
        <ele>1990</ele>
        <time>2022-07-27T08:39:05Z</time>
      </trkpt>
      <trkpt lat="45.62176" lon="6.60004">
        <ele>1990</ele>
        <time>2022-07-27T08:39:06Z</time>
      </trkpt>
      <trkpt lat="45.62177" lon="6.60003">
        <ele>1990</ele>
        <time>2022-07-27T08:39:07Z</time>
      </trkpt>
      <trkpt lat="45.62178" lon="6.60003">
        <ele>1990</ele>
        <time>2022-07-27T08:39:08Z</time>
      </trkpt>
      <trkpt lat="45.62179" lon="6.60003">
        <ele>1990</ele>
        <time>2022-07-27T08:39:09Z</time>
      </trkpt>
      <trkpt lat="45.6218" lon="6.60003">
        <ele>1990</ele>
        <time>2022-07-27T08:39:10Z</time>
      </trkpt>
      <trkpt lat="45.62181" lon="6.60002">
        <ele>1989</ele>
        <time>2022-07-27T08:39:11Z</time>
      </trkpt>
      <trkpt lat="45.62182" lon="6.60002">
        <ele>1989</ele>
        <time>2022-07-27T08:39:12Z</time>
      </trkpt>
      <trkpt lat="45.62182" lon="6.60002">
        <ele>1989</ele>
        <time>2022-07-27T08:39:13Z</time>
      </trkpt>
      <trkpt lat="45.62183" lon="6.60001">
        <ele>1989</ele>
        <time>2022-07-27T08:39:14Z</time>
      </trkpt>
      <trkpt lat="45.62184" lon="6.60001">
        <ele>1989</ele>
        <time>2022-07-27T08:39:15Z</time>
      </trkpt>
      <trkpt lat="45.62185" lon="6.60001">
        <ele>1988</ele>
        <time>2022-07-27T08:39:16Z</time>
      </trkpt>
      <trkpt lat="45.62186" lon="6.6">
        <ele>1988</ele>
        <time>2022-07-27T08:39:17Z</time>
      </trkpt>
      <trkpt lat="45.62187" lon="6.59999">
        <ele>1987</ele>
        <time>2022-07-27T08:39:25Z</time>
      </trkpt>
      <trkpt lat="45.62187" lon="6.59998">
        <ele>1987</ele>
        <time>2022-07-27T08:39:26Z</time>
      </trkpt>
      <trkpt lat="45.62188" lon="6.59997">
        <ele>1987</ele>
        <time>2022-07-27T08:39:27Z</time>
      </trkpt>
      <trkpt lat="45.62188" lon="6.59996">
        <ele>1987</ele>
        <time>2022-07-27T08:39:28Z</time>
      </trkpt>
      <trkpt lat="45.62189" lon="6.59995">
        <ele>1987</ele>
        <time>2022-07-27T08:39:29Z</time>
      </trkpt>
      <trkpt lat="45.6219" lon="6.59994">
        <ele>1987</ele>
        <time>2022-07-27T08:39:30Z</time>
      </trkpt>
      <trkpt lat="45.6219" lon="6.59994">
        <ele>1986</ele>
        <time>2022-07-27T08:39:31Z</time>
      </trkpt>
      <trkpt lat="45.6219" lon="6.59993">
        <ele>1986</ele>
        <time>2022-07-27T08:39:32Z</time>
      </trkpt>
      <trkpt lat="45.62191" lon="6.59993">
        <ele>1986</ele>
        <time>2022-07-27T08:39:33Z</time>
      </trkpt>
      <trkpt lat="45.62191" lon="6.59993">
        <ele>1986</ele>
        <time>2022-07-27T08:39:34Z</time>
      </trkpt>
      <trkpt lat="45.62191" lon="6.59993">
        <ele>1986</ele>
        <time>2022-07-27T08:39:35Z</time>
      </trkpt>
      <trkpt lat="45.62192" lon="6.59993">
        <ele>1985</ele>
        <time>2022-07-27T08:39:36Z</time>
      </trkpt>
      <trkpt lat="45.62193" lon="6.59993">
        <ele>1985</ele>
        <time>2022-07-27T08:39:37Z</time>
      </trkpt>
      <trkpt lat="45.62193" lon="6.59994">
        <ele>1985</ele>
        <time>2022-07-27T08:39:38Z</time>
      </trkpt>
      <trkpt lat="45.62194" lon="6.59994">
        <ele>1985</ele>
        <time>2022-07-27T08:39:39Z</time>
      </trkpt>
      <trkpt lat="45.62195" lon="6.59995">
        <ele>1985</ele>
        <time>2022-07-27T08:39:40Z</time>
      </trkpt>
      <trkpt lat="45.62196" lon="6.59995">
        <ele>1985</ele>
        <time>2022-07-27T08:39:41Z</time>
      </trkpt>
      <trkpt lat="45.62197" lon="6.59996">
        <ele>1985</ele>
        <time>2022-07-27T08:39:42Z</time>
      </trkpt>
      <trkpt lat="45.62198" lon="6.59996">
        <ele>1985</ele>
        <time>2022-07-27T08:39:43Z</time>
      </trkpt>
      <trkpt lat="45.62199" lon="6.59997">
        <ele>1985</ele>
        <time>2022-07-27T08:39:44Z</time>
      </trkpt>
      <trkpt lat="45.62199" lon="6.59996">
        <ele>1985</ele>
        <time>2022-07-27T08:39:45Z</time>
      </trkpt>
      <trkpt lat="45.622" lon="6.59996">
        <ele>1984</ele>
        <time>2022-07-27T08:39:46Z</time>
      </trkpt>
      <trkpt lat="45.622" lon="6.59996">
        <ele>1984</ele>
        <time>2022-07-27T08:39:47Z</time>
      </trkpt>
      <trkpt lat="45.62201" lon="6.59995">
        <ele>1984</ele>
        <time>2022-07-27T08:39:48Z</time>
      </trkpt>
      <trkpt lat="45.62201" lon="6.59994">
        <ele>1984</ele>
        <time>2022-07-27T08:39:49Z</time>
      </trkpt>
      <trkpt lat="45.62201" lon="6.59993">
        <ele>1984</ele>
        <time>2022-07-27T08:39:50Z</time>
      </trkpt>
      <trkpt lat="45.62202" lon="6.59992">
        <ele>1984</ele>
        <time>2022-07-27T08:39:51Z</time>
      </trkpt>
      <trkpt lat="45.62202" lon="6.59991">
        <ele>1984</ele>
        <time>2022-07-27T08:39:52Z</time>
      </trkpt>
      <trkpt lat="45.62203" lon="6.5999">
        <ele>1984</ele>
        <time>2022-07-27T08:39:53Z</time>
      </trkpt>
      <trkpt lat="45.62204" lon="6.59989">
        <ele>1984</ele>
        <time>2022-07-27T08:39:54Z</time>
      </trkpt>
      <trkpt lat="45.62204" lon="6.59988">
        <ele>1984</ele>
        <time>2022-07-27T08:39:55Z</time>
      </trkpt>
      <trkpt lat="45.62205" lon="6.59988">
        <ele>1983</ele>
        <time>2022-07-27T08:39:56Z</time>
      </trkpt>
      <trkpt lat="45.62206" lon="6.59987">
        <ele>1983</ele>
        <time>2022-07-27T08:39:57Z</time>
      </trkpt>
      <trkpt lat="45.62206" lon="6.59986">
        <ele>1983</ele>
        <time>2022-07-27T08:39:58Z</time>
      </trkpt>
      <trkpt lat="45.62207" lon="6.59985">
        <ele>1983</ele>
        <time>2022-07-27T08:39:59Z</time>
      </trkpt>
      <trkpt lat="45.62208" lon="6.59984">
        <ele>1983</ele>
        <time>2022-07-27T08:40:00Z</time>
      </trkpt>
      <trkpt lat="45.62208" lon="6.59984">
        <ele>1982</ele>
        <time>2022-07-27T08:40:01Z</time>
      </trkpt>
      <trkpt lat="45.62209" lon="6.59983">
        <ele>1982</ele>
        <time>2022-07-27T08:40:02Z</time>
      </trkpt>
      <trkpt lat="45.62209" lon="6.59982">
        <ele>1982</ele>
        <time>2022-07-27T08:40:03Z</time>
      </trkpt>
      <trkpt lat="45.6221" lon="6.59981">
        <ele>1982</ele>
        <time>2022-07-27T08:40:04Z</time>
      </trkpt>
      <trkpt lat="45.6221" lon="6.5998">
        <ele>1982</ele>
        <time>2022-07-27T08:40:05Z</time>
      </trkpt>
      <trkpt lat="45.62211" lon="6.59979">
        <ele>1981</ele>
        <time>2022-07-27T08:40:06Z</time>
      </trkpt>
      <trkpt lat="45.62212" lon="6.59978">
        <ele>1981</ele>
        <time>2022-07-27T08:40:07Z</time>
      </trkpt>
      <trkpt lat="45.62213" lon="6.59977">
        <ele>1980</ele>
        <time>2022-07-27T08:40:08Z</time>
      </trkpt>
      <trkpt lat="45.62214" lon="6.59977">
        <ele>1980</ele>
        <time>2022-07-27T08:40:09Z</time>
      </trkpt>
      <trkpt lat="45.62215" lon="6.59977">
        <ele>1980</ele>
        <time>2022-07-27T08:40:10Z</time>
      </trkpt>
      <trkpt lat="45.62216" lon="6.59977">
        <ele>1979</ele>
        <time>2022-07-27T08:40:11Z</time>
      </trkpt>
      <trkpt lat="45.62217" lon="6.59976">
        <ele>1979</ele>
        <time>2022-07-27T08:40:12Z</time>
      </trkpt>
      <trkpt lat="45.62218" lon="6.59977">
        <ele>1979</ele>
        <time>2022-07-27T08:40:13Z</time>
      </trkpt>
      <trkpt lat="45.6222" lon="6.59977">
        <ele>1979</ele>
        <time>2022-07-27T08:40:14Z</time>
      </trkpt>
      <trkpt lat="45.62221" lon="6.59977">
        <ele>1979</ele>
        <time>2022-07-27T08:40:15Z</time>
      </trkpt>
      <trkpt lat="45.62222" lon="6.59977">
        <ele>1978</ele>
        <time>2022-07-27T08:40:16Z</time>
      </trkpt>
      <trkpt lat="45.62223" lon="6.59976">
        <ele>1978</ele>
        <time>2022-07-27T08:40:17Z</time>
      </trkpt>
      <trkpt lat="45.62224" lon="6.59976">
        <ele>1978</ele>
        <time>2022-07-27T08:40:18Z</time>
      </trkpt>
      <trkpt lat="45.62225" lon="6.59975">
        <ele>1978</ele>
        <time>2022-07-27T08:40:19Z</time>
      </trkpt>
      <trkpt lat="45.62226" lon="6.59974">
        <ele>1978</ele>
        <time>2022-07-27T08:40:20Z</time>
      </trkpt>
      <trkpt lat="45.62226" lon="6.59973">
        <ele>1977</ele>
        <time>2022-07-27T08:40:21Z</time>
      </trkpt>
      <trkpt lat="45.62226" lon="6.59971">
        <ele>1977</ele>
        <time>2022-07-27T08:40:22Z</time>
      </trkpt>
      <trkpt lat="45.62226" lon="6.5997">
        <ele>1977</ele>
        <time>2022-07-27T08:40:23Z</time>
      </trkpt>
      <trkpt lat="45.62226" lon="6.59969">
        <ele>1977</ele>
        <time>2022-07-27T08:40:24Z</time>
      </trkpt>
      <trkpt lat="45.62226" lon="6.59967">
        <ele>1977</ele>
        <time>2022-07-27T08:40:25Z</time>
      </trkpt>
      <trkpt lat="45.62226" lon="6.59966">
        <ele>1976</ele>
        <time>2022-07-27T08:40:26Z</time>
      </trkpt>
      <trkpt lat="45.62226" lon="6.59965">
        <ele>1976</ele>
        <time>2022-07-27T08:40:27Z</time>
      </trkpt>
      <trkpt lat="45.62226" lon="6.59963">
        <ele>1976</ele>
        <time>2022-07-27T08:40:28Z</time>
      </trkpt>
      <trkpt lat="45.62226" lon="6.59962">
        <ele>1976</ele>
        <time>2022-07-27T08:40:29Z</time>
      </trkpt>
      <trkpt lat="45.62226" lon="6.59961">
        <ele>1976</ele>
        <time>2022-07-27T08:40:30Z</time>
      </trkpt>
      <trkpt lat="45.62226" lon="6.5996">
        <ele>1975</ele>
        <time>2022-07-27T08:40:31Z</time>
      </trkpt>
      <trkpt lat="45.62227" lon="6.59959">
        <ele>1975</ele>
        <time>2022-07-27T08:40:32Z</time>
      </trkpt>
      <trkpt lat="45.62228" lon="6.59958">
        <ele>1975</ele>
        <time>2022-07-27T08:40:33Z</time>
      </trkpt>
      <trkpt lat="45.62229" lon="6.59958">
        <ele>1975</ele>
        <time>2022-07-27T08:40:34Z</time>
      </trkpt>
      <trkpt lat="45.6223" lon="6.59957">
        <ele>1975</ele>
        <time>2022-07-27T08:40:35Z</time>
      </trkpt>
      <trkpt lat="45.62231" lon="6.59956">
        <ele>1974</ele>
        <time>2022-07-27T08:40:36Z</time>
      </trkpt>
      <trkpt lat="45.62232" lon="6.59956">
        <ele>1974</ele>
        <time>2022-07-27T08:40:37Z</time>
      </trkpt>
      <trkpt lat="45.62233" lon="6.59955">
        <ele>1974</ele>
        <time>2022-07-27T08:40:38Z</time>
      </trkpt>
      <trkpt lat="45.62235" lon="6.59955">
        <ele>1974</ele>
        <time>2022-07-27T08:40:39Z</time>
      </trkpt>
      <trkpt lat="45.62236" lon="6.59955">
        <ele>1974</ele>
        <time>2022-07-27T08:40:40Z</time>
      </trkpt>
      <trkpt lat="45.62237" lon="6.59955">
        <ele>1973</ele>
        <time>2022-07-27T08:40:41Z</time>
      </trkpt>
      <trkpt lat="45.62238" lon="6.59955">
        <ele>1973</ele>
        <time>2022-07-27T08:40:42Z</time>
      </trkpt>
      <trkpt lat="45.62239" lon="6.59955">
        <ele>1973</ele>
        <time>2022-07-27T08:40:43Z</time>
      </trkpt>
      <trkpt lat="45.6224" lon="6.59955">
        <ele>1973</ele>
        <time>2022-07-27T08:40:44Z</time>
      </trkpt>
      <trkpt lat="45.62241" lon="6.59955">
        <ele>1973</ele>
        <time>2022-07-27T08:40:45Z</time>
      </trkpt>
      <trkpt lat="45.62242" lon="6.59955">
        <ele>1972</ele>
        <time>2022-07-27T08:40:46Z</time>
      </trkpt>
      <trkpt lat="45.62243" lon="6.59955">
        <ele>1972</ele>
        <time>2022-07-27T08:40:47Z</time>
      </trkpt>
      <trkpt lat="45.62244" lon="6.59955">
        <ele>1972</ele>
        <time>2022-07-27T08:40:48Z</time>
      </trkpt>
      <trkpt lat="45.62245" lon="6.59954">
        <ele>1972</ele>
        <time>2022-07-27T08:40:49Z</time>
      </trkpt>
      <trkpt lat="45.62245" lon="6.59953">
        <ele>1972</ele>
        <time>2022-07-27T08:40:50Z</time>
      </trkpt>
      <trkpt lat="45.62246" lon="6.59952">
        <ele>1971</ele>
        <time>2022-07-27T08:40:51Z</time>
      </trkpt>
      <trkpt lat="45.62247" lon="6.59951">
        <ele>1971</ele>
        <time>2022-07-27T08:40:52Z</time>
      </trkpt>
      <trkpt lat="45.62248" lon="6.59951">
        <ele>1971</ele>
        <time>2022-07-27T08:40:53Z</time>
      </trkpt>
      <trkpt lat="45.62249" lon="6.59951">
        <ele>1971</ele>
        <time>2022-07-27T08:40:54Z</time>
      </trkpt>
      <trkpt lat="45.6225" lon="6.59952">
        <ele>1971</ele>
        <time>2022-07-27T08:40:55Z</time>
      </trkpt>
      <trkpt lat="45.6225" lon="6.59953">
        <ele>1970</ele>
        <time>2022-07-27T08:40:56Z</time>
      </trkpt>
      <trkpt lat="45.62251" lon="6.59954">
        <ele>1970</ele>
        <time>2022-07-27T08:40:57Z</time>
      </trkpt>
      <trkpt lat="45.62252" lon="6.59955">
        <ele>1969</ele>
        <time>2022-07-27T08:40:58Z</time>
      </trkpt>
      <trkpt lat="45.62253" lon="6.59956">
        <ele>1969</ele>
        <time>2022-07-27T08:40:59Z</time>
      </trkpt>
      <trkpt lat="45.62254" lon="6.59957">
        <ele>1969</ele>
        <time>2022-07-27T08:41:00Z</time>
      </trkpt>
      <trkpt lat="45.62255" lon="6.59958">
        <ele>1969</ele>
        <time>2022-07-27T08:41:01Z</time>
      </trkpt>
      <trkpt lat="45.62256" lon="6.59958">
        <ele>1969</ele>
        <time>2022-07-27T08:41:02Z</time>
      </trkpt>
      <trkpt lat="45.62257" lon="6.59958">
        <ele>1969</ele>
        <time>2022-07-27T08:41:03Z</time>
      </trkpt>
      <trkpt lat="45.62258" lon="6.59958">
        <ele>1969</ele>
        <time>2022-07-27T08:41:04Z</time>
      </trkpt>
      <trkpt lat="45.62259" lon="6.59957">
        <ele>1969</ele>
        <time>2022-07-27T08:41:05Z</time>
      </trkpt>
      <trkpt lat="45.6226" lon="6.59956">
        <ele>1968</ele>
        <time>2022-07-27T08:41:06Z</time>
      </trkpt>
      <trkpt lat="45.62261" lon="6.59955">
        <ele>1968</ele>
        <time>2022-07-27T08:41:07Z</time>
      </trkpt>
      <trkpt lat="45.62261" lon="6.59953">
        <ele>1968</ele>
        <time>2022-07-27T08:41:08Z</time>
      </trkpt>
      <trkpt lat="45.62262" lon="6.59952">
        <ele>1968</ele>
        <time>2022-07-27T08:41:09Z</time>
      </trkpt>
      <trkpt lat="45.62262" lon="6.59951">
        <ele>1968</ele>
        <time>2022-07-27T08:41:10Z</time>
      </trkpt>
      <trkpt lat="45.62263" lon="6.59949">
        <ele>1967</ele>
        <time>2022-07-27T08:41:11Z</time>
      </trkpt>
      <trkpt lat="45.62263" lon="6.59948">
        <ele>1967</ele>
        <time>2022-07-27T08:41:12Z</time>
      </trkpt>
      <trkpt lat="45.62264" lon="6.59947">
        <ele>1967</ele>
        <time>2022-07-27T08:41:13Z</time>
      </trkpt>
      <trkpt lat="45.62264" lon="6.59946">
        <ele>1967</ele>
        <time>2022-07-27T08:41:14Z</time>
      </trkpt>
      <trkpt lat="45.62264" lon="6.59945">
        <ele>1967</ele>
        <time>2022-07-27T08:41:15Z</time>
      </trkpt>
      <trkpt lat="45.62264" lon="6.59944">
        <ele>1966</ele>
        <time>2022-07-27T08:41:16Z</time>
      </trkpt>
      <trkpt lat="45.62265" lon="6.59943">
        <ele>1966</ele>
        <time>2022-07-27T08:41:17Z</time>
      </trkpt>
      <trkpt lat="45.62265" lon="6.59942">
        <ele>1966</ele>
        <time>2022-07-27T08:41:18Z</time>
      </trkpt>
      <trkpt lat="45.62266" lon="6.59941">
        <ele>1966</ele>
        <time>2022-07-27T08:41:19Z</time>
      </trkpt>
      <trkpt lat="45.62267" lon="6.5994">
        <ele>1966</ele>
        <time>2022-07-27T08:41:20Z</time>
      </trkpt>
      <trkpt lat="45.62268" lon="6.59939">
        <ele>1965</ele>
        <time>2022-07-27T08:41:21Z</time>
      </trkpt>
      <trkpt lat="45.62269" lon="6.59937">
        <ele>1965</ele>
        <time>2022-07-27T08:41:22Z</time>
      </trkpt>
      <trkpt lat="45.6227" lon="6.59936">
        <ele>1965</ele>
        <time>2022-07-27T08:41:23Z</time>
      </trkpt>
      <trkpt lat="45.6227" lon="6.59935">
        <ele>1965</ele>
        <time>2022-07-27T08:41:24Z</time>
      </trkpt>
      <trkpt lat="45.62271" lon="6.59935">
        <ele>1965</ele>
        <time>2022-07-27T08:41:25Z</time>
      </trkpt>
      <trkpt lat="45.62272" lon="6.59934">
        <ele>1964</ele>
        <time>2022-07-27T08:41:26Z</time>
      </trkpt>
      <trkpt lat="45.62273" lon="6.59933">
        <ele>1964</ele>
        <time>2022-07-27T08:41:27Z</time>
      </trkpt>
      <trkpt lat="45.62274" lon="6.59933">
        <ele>1964</ele>
        <time>2022-07-27T08:41:28Z</time>
      </trkpt>
      <trkpt lat="45.62275" lon="6.59932">
        <ele>1964</ele>
        <time>2022-07-27T08:41:29Z</time>
      </trkpt>
      <trkpt lat="45.62276" lon="6.59931">
        <ele>1964</ele>
        <time>2022-07-27T08:41:30Z</time>
      </trkpt>
      <trkpt lat="45.62276" lon="6.59931">
        <ele>1964</ele>
        <time>2022-07-27T08:41:31Z</time>
      </trkpt>
      <trkpt lat="45.62277" lon="6.5993">
        <ele>1964</ele>
        <time>2022-07-27T08:41:32Z</time>
      </trkpt>
      <trkpt lat="45.62278" lon="6.5993">
        <ele>1964</ele>
        <time>2022-07-27T08:41:33Z</time>
      </trkpt>
      <trkpt lat="45.62279" lon="6.5993">
        <ele>1964</ele>
        <time>2022-07-27T08:41:34Z</time>
      </trkpt>
      <trkpt lat="45.6228" lon="6.59929">
        <ele>1964</ele>
        <time>2022-07-27T08:41:35Z</time>
      </trkpt>
      <trkpt lat="45.62281" lon="6.59929">
        <ele>1963</ele>
        <time>2022-07-27T08:41:36Z</time>
      </trkpt>
      <trkpt lat="45.62281" lon="6.59929">
        <ele>1963</ele>
        <time>2022-07-27T08:41:37Z</time>
      </trkpt>
      <trkpt lat="45.62282" lon="6.59929">
        <ele>1963</ele>
        <time>2022-07-27T08:41:38Z</time>
      </trkpt>
      <trkpt lat="45.62283" lon="6.59928">
        <ele>1962</ele>
        <time>2022-07-27T08:42:23Z</time>
      </trkpt>
      <trkpt lat="45.62283" lon="6.59929">
        <ele>1962</ele>
        <time>2022-07-27T08:42:24Z</time>
      </trkpt>
      <trkpt lat="45.62284" lon="6.59929">
        <ele>1962</ele>
        <time>2022-07-27T08:42:25Z</time>
      </trkpt>
      <trkpt lat="45.62284" lon="6.5993">
        <ele>1962</ele>
        <time>2022-07-27T08:42:26Z</time>
      </trkpt>
      <trkpt lat="45.62284" lon="6.5993">
        <ele>1962</ele>
        <time>2022-07-27T08:42:27Z</time>
      </trkpt>
      <trkpt lat="45.62285" lon="6.59932">
        <ele>1962</ele>
        <time>2022-07-27T08:42:28Z</time>
      </trkpt>
      <trkpt lat="45.62286" lon="6.59933">
        <ele>1962</ele>
        <time>2022-07-27T08:42:29Z</time>
      </trkpt>
      <trkpt lat="45.62287" lon="6.59934">
        <ele>1962</ele>
        <time>2022-07-27T08:42:30Z</time>
      </trkpt>
      <trkpt lat="45.62288" lon="6.59936">
        <ele>1962</ele>
        <time>2022-07-27T08:42:31Z</time>
      </trkpt>
      <trkpt lat="45.62289" lon="6.59937">
        <ele>1962</ele>
        <time>2022-07-27T08:42:32Z</time>
      </trkpt>
      <trkpt lat="45.6229" lon="6.59939">
        <ele>1962</ele>
        <time>2022-07-27T08:42:33Z</time>
      </trkpt>
      <trkpt lat="45.62291" lon="6.59941">
        <ele>1962</ele>
        <time>2022-07-27T08:42:34Z</time>
      </trkpt>
      <trkpt lat="45.62292" lon="6.59942">
        <ele>1962</ele>
        <time>2022-07-27T08:42:35Z</time>
      </trkpt>
      <trkpt lat="45.62293" lon="6.59944">
        <ele>1961</ele>
        <time>2022-07-27T08:42:36Z</time>
      </trkpt>
      <trkpt lat="45.62294" lon="6.59946">
        <ele>1961</ele>
        <time>2022-07-27T08:42:37Z</time>
      </trkpt>
      <trkpt lat="45.62294" lon="6.59948">
        <ele>1961</ele>
        <time>2022-07-27T08:42:38Z</time>
      </trkpt>
      <trkpt lat="45.62295" lon="6.5995">
        <ele>1961</ele>
        <time>2022-07-27T08:42:39Z</time>
      </trkpt>
      <trkpt lat="45.62295" lon="6.59951">
        <ele>1961</ele>
        <time>2022-07-27T08:42:40Z</time>
      </trkpt>
      <trkpt lat="45.62295" lon="6.59953">
        <ele>1961</ele>
        <time>2022-07-27T08:42:41Z</time>
      </trkpt>
      <trkpt lat="45.62296" lon="6.59954">
        <ele>1961</ele>
        <time>2022-07-27T08:42:42Z</time>
      </trkpt>
      <trkpt lat="45.62296" lon="6.59956">
        <ele>1961</ele>
        <time>2022-07-27T08:42:43Z</time>
      </trkpt>
      <trkpt lat="45.62297" lon="6.59957">
        <ele>1961</ele>
        <time>2022-07-27T08:42:44Z</time>
      </trkpt>
      <trkpt lat="45.62297" lon="6.59958">
        <ele>1961</ele>
        <time>2022-07-27T08:42:45Z</time>
      </trkpt>
      <trkpt lat="45.62298" lon="6.59958">
        <ele>1961</ele>
        <time>2022-07-27T08:42:46Z</time>
      </trkpt>
      <trkpt lat="45.62299" lon="6.59959">
        <ele>1961</ele>
        <time>2022-07-27T08:42:47Z</time>
      </trkpt>
      <trkpt lat="45.623" lon="6.59959">
        <ele>1961</ele>
        <time>2022-07-27T08:42:48Z</time>
      </trkpt>
      <trkpt lat="45.62301" lon="6.59959">
        <ele>1961</ele>
        <time>2022-07-27T08:42:49Z</time>
      </trkpt>
      <trkpt lat="45.62302" lon="6.59959">
        <ele>1961</ele>
        <time>2022-07-27T08:42:50Z</time>
      </trkpt>
      <trkpt lat="45.62303" lon="6.59959">
        <ele>1961</ele>
        <time>2022-07-27T08:42:51Z</time>
      </trkpt>
      <trkpt lat="45.62305" lon="6.5996">
        <ele>1961</ele>
        <time>2022-07-27T08:42:52Z</time>
      </trkpt>
      <trkpt lat="45.62306" lon="6.5996">
        <ele>1961</ele>
        <time>2022-07-27T08:42:53Z</time>
      </trkpt>
      <trkpt lat="45.62308" lon="6.5996">
        <ele>1961</ele>
        <time>2022-07-27T08:42:54Z</time>
      </trkpt>
      <trkpt lat="45.62309" lon="6.59961">
        <ele>1961</ele>
        <time>2022-07-27T08:42:55Z</time>
      </trkpt>
      <trkpt lat="45.6231" lon="6.59961">
        <ele>1961</ele>
        <time>2022-07-27T08:42:56Z</time>
      </trkpt>
      <trkpt lat="45.62312" lon="6.59962">
        <ele>1961</ele>
        <time>2022-07-27T08:42:57Z</time>
      </trkpt>
      <trkpt lat="45.62313" lon="6.59962">
        <ele>1961</ele>
        <time>2022-07-27T08:42:58Z</time>
      </trkpt>
      <trkpt lat="45.62314" lon="6.59963">
        <ele>1961</ele>
        <time>2022-07-27T08:42:59Z</time>
      </trkpt>
      <trkpt lat="45.62316" lon="6.59963">
        <ele>1961</ele>
        <time>2022-07-27T08:43:00Z</time>
      </trkpt>
      <trkpt lat="45.62317" lon="6.59964">
        <ele>1960</ele>
        <time>2022-07-27T08:43:01Z</time>
      </trkpt>
      <trkpt lat="45.62318" lon="6.59964">
        <ele>1960</ele>
        <time>2022-07-27T08:43:02Z</time>
      </trkpt>
      <trkpt lat="45.6232" lon="6.59964">
        <ele>1960</ele>
        <time>2022-07-27T08:43:03Z</time>
      </trkpt>
      <trkpt lat="45.62321" lon="6.59964">
        <ele>1960</ele>
        <time>2022-07-27T08:43:04Z</time>
      </trkpt>
      <trkpt lat="45.62322" lon="6.59964">
        <ele>1960</ele>
        <time>2022-07-27T08:43:05Z</time>
      </trkpt>
      <trkpt lat="45.62323" lon="6.59964">
        <ele>1960</ele>
        <time>2022-07-27T08:43:06Z</time>
      </trkpt>
      <trkpt lat="45.62325" lon="6.59964">
        <ele>1960</ele>
        <time>2022-07-27T08:43:07Z</time>
      </trkpt>
      <trkpt lat="45.62326" lon="6.59963">
        <ele>1960</ele>
        <time>2022-07-27T08:43:08Z</time>
      </trkpt>
      <trkpt lat="45.62327" lon="6.59963">
        <ele>1960</ele>
        <time>2022-07-27T08:43:09Z</time>
      </trkpt>
      <trkpt lat="45.62329" lon="6.59963">
        <ele>1960</ele>
        <time>2022-07-27T08:43:10Z</time>
      </trkpt>
      <trkpt lat="45.6233" lon="6.59962">
        <ele>1960</ele>
        <time>2022-07-27T08:43:11Z</time>
      </trkpt>
      <trkpt lat="45.62331" lon="6.59962">
        <ele>1960</ele>
        <time>2022-07-27T08:43:12Z</time>
      </trkpt>
      <trkpt lat="45.62333" lon="6.59962">
        <ele>1960</ele>
        <time>2022-07-27T08:43:13Z</time>
      </trkpt>
      <trkpt lat="45.62334" lon="6.59961">
        <ele>1960</ele>
        <time>2022-07-27T08:43:14Z</time>
      </trkpt>
      <trkpt lat="45.62335" lon="6.59961">
        <ele>1960</ele>
        <time>2022-07-27T08:43:15Z</time>
      </trkpt>
      <trkpt lat="45.62336" lon="6.5996">
        <ele>1959</ele>
        <time>2022-07-27T08:43:16Z</time>
      </trkpt>
      <trkpt lat="45.62338" lon="6.5996">
        <ele>1959</ele>
        <time>2022-07-27T08:43:17Z</time>
      </trkpt>
      <trkpt lat="45.62339" lon="6.59959">
        <ele>1959</ele>
        <time>2022-07-27T08:43:18Z</time>
      </trkpt>
      <trkpt lat="45.6234" lon="6.59958">
        <ele>1959</ele>
        <time>2022-07-27T08:43:19Z</time>
      </trkpt>
      <trkpt lat="45.62341" lon="6.59958">
        <ele>1959</ele>
        <time>2022-07-27T08:43:20Z</time>
      </trkpt>
      <trkpt lat="45.62343" lon="6.59958">
        <ele>1958</ele>
        <time>2022-07-27T08:43:21Z</time>
      </trkpt>
      <trkpt lat="45.62344" lon="6.59957">
        <ele>1958</ele>
        <time>2022-07-27T08:43:22Z</time>
      </trkpt>
      <trkpt lat="45.62345" lon="6.59957">
        <ele>1958</ele>
        <time>2022-07-27T08:43:23Z</time>
      </trkpt>
      <trkpt lat="45.62347" lon="6.59957">
        <ele>1958</ele>
        <time>2022-07-27T08:43:24Z</time>
      </trkpt>
      <trkpt lat="45.62348" lon="6.59957">
        <ele>1958</ele>
        <time>2022-07-27T08:43:25Z</time>
      </trkpt>
      <trkpt lat="45.62349" lon="6.59958">
        <ele>1958</ele>
        <time>2022-07-27T08:43:26Z</time>
      </trkpt>
      <trkpt lat="45.62351" lon="6.59958">
        <ele>1958</ele>
        <time>2022-07-27T08:43:27Z</time>
      </trkpt>
      <trkpt lat="45.62352" lon="6.59959">
        <ele>1958</ele>
        <time>2022-07-27T08:43:28Z</time>
      </trkpt>
      <trkpt lat="45.62353" lon="6.5996">
        <ele>1958</ele>
        <time>2022-07-27T08:43:29Z</time>
      </trkpt>
      <trkpt lat="45.62354" lon="6.59961">
        <ele>1958</ele>
        <time>2022-07-27T08:43:30Z</time>
      </trkpt>
      <trkpt lat="45.62355" lon="6.59962">
        <ele>1957</ele>
        <time>2022-07-27T08:43:31Z</time>
      </trkpt>
      <trkpt lat="45.62356" lon="6.59964">
        <ele>1957</ele>
        <time>2022-07-27T08:43:32Z</time>
      </trkpt>
      <trkpt lat="45.62357" lon="6.59966">
        <ele>1957</ele>
        <time>2022-07-27T08:43:33Z</time>
      </trkpt>
      <trkpt lat="45.62358" lon="6.59967">
        <ele>1957</ele>
        <time>2022-07-27T08:43:34Z</time>
      </trkpt>
      <trkpt lat="45.62359" lon="6.59968">
        <ele>1957</ele>
        <time>2022-07-27T08:43:35Z</time>
      </trkpt>
      <trkpt lat="45.6236" lon="6.59968">
        <ele>1956</ele>
        <time>2022-07-27T08:43:36Z</time>
      </trkpt>
      <trkpt lat="45.62361" lon="6.59968">
        <ele>1956</ele>
        <time>2022-07-27T08:43:37Z</time>
      </trkpt>
      <trkpt lat="45.62362" lon="6.59968">
        <ele>1956</ele>
        <time>2022-07-27T08:43:38Z</time>
      </trkpt>
      <trkpt lat="45.62364" lon="6.59968">
        <ele>1956</ele>
        <time>2022-07-27T08:43:39Z</time>
      </trkpt>
      <trkpt lat="45.62365" lon="6.59967">
        <ele>1956</ele>
        <time>2022-07-27T08:43:40Z</time>
      </trkpt>
      <trkpt lat="45.62367" lon="6.59967">
        <ele>1955</ele>
        <time>2022-07-27T08:43:41Z</time>
      </trkpt>
      <trkpt lat="45.62368" lon="6.59967">
        <ele>1955</ele>
        <time>2022-07-27T08:43:42Z</time>
      </trkpt>
      <trkpt lat="45.6237" lon="6.59966">
        <ele>1954</ele>
        <time>2022-07-27T08:43:43Z</time>
      </trkpt>
      <trkpt lat="45.62371" lon="6.59965">
        <ele>1954</ele>
        <time>2022-07-27T08:43:44Z</time>
      </trkpt>
      <trkpt lat="45.62373" lon="6.59964">
        <ele>1954</ele>
        <time>2022-07-27T08:43:45Z</time>
      </trkpt>
      <trkpt lat="45.62374" lon="6.59963">
        <ele>1953</ele>
        <time>2022-07-27T08:43:46Z</time>
      </trkpt>
      <trkpt lat="45.62375" lon="6.59962">
        <ele>1953</ele>
        <time>2022-07-27T08:43:47Z</time>
      </trkpt>
      <trkpt lat="45.62377" lon="6.59961">
        <ele>1953</ele>
        <time>2022-07-27T08:43:48Z</time>
      </trkpt>
      <trkpt lat="45.62378" lon="6.59959">
        <ele>1953</ele>
        <time>2022-07-27T08:43:49Z</time>
      </trkpt>
      <trkpt lat="45.62379" lon="6.59958">
        <ele>1953</ele>
        <time>2022-07-27T08:43:50Z</time>
      </trkpt>
      <trkpt lat="45.6238" lon="6.59957">
        <ele>1953</ele>
        <time>2022-07-27T08:43:51Z</time>
      </trkpt>
      <trkpt lat="45.62381" lon="6.59955">
        <ele>1953</ele>
        <time>2022-07-27T08:43:52Z</time>
      </trkpt>
      <trkpt lat="45.62382" lon="6.59953">
        <ele>1953</ele>
        <time>2022-07-27T08:43:53Z</time>
      </trkpt>
      <trkpt lat="45.62383" lon="6.59952">
        <ele>1953</ele>
        <time>2022-07-27T08:43:54Z</time>
      </trkpt>
      <trkpt lat="45.62384" lon="6.5995">
        <ele>1953</ele>
        <time>2022-07-27T08:43:55Z</time>
      </trkpt>
      <trkpt lat="45.62385" lon="6.59949">
        <ele>1952</ele>
        <time>2022-07-27T08:43:56Z</time>
      </trkpt>
      <trkpt lat="45.62386" lon="6.59947">
        <ele>1952</ele>
        <time>2022-07-27T08:43:57Z</time>
      </trkpt>
      <trkpt lat="45.62388" lon="6.59946">
        <ele>1952</ele>
        <time>2022-07-27T08:43:58Z</time>
      </trkpt>
      <trkpt lat="45.62389" lon="6.59945">
        <ele>1952</ele>
        <time>2022-07-27T08:43:59Z</time>
      </trkpt>
      <trkpt lat="45.6239" lon="6.59943">
        <ele>1952</ele>
        <time>2022-07-27T08:44:00Z</time>
      </trkpt>
      <trkpt lat="45.62391" lon="6.59942">
        <ele>1951</ele>
        <time>2022-07-27T08:44:01Z</time>
      </trkpt>
      <trkpt lat="45.62392" lon="6.5994">
        <ele>1951</ele>
        <time>2022-07-27T08:44:02Z</time>
      </trkpt>
      <trkpt lat="45.62393" lon="6.59939">
        <ele>1951</ele>
        <time>2022-07-27T08:44:03Z</time>
      </trkpt>
      <trkpt lat="45.62393" lon="6.59937">
        <ele>1951</ele>
        <time>2022-07-27T08:44:04Z</time>
      </trkpt>
      <trkpt lat="45.62394" lon="6.59936">
        <ele>1951</ele>
        <time>2022-07-27T08:44:05Z</time>
      </trkpt>
      <trkpt lat="45.62395" lon="6.59935">
        <ele>1951</ele>
        <time>2022-07-27T08:44:06Z</time>
      </trkpt>
      <trkpt lat="45.62396" lon="6.59934">
        <ele>1951</ele>
        <time>2022-07-27T08:44:07Z</time>
      </trkpt>
      <trkpt lat="45.62397" lon="6.59933">
        <ele>1951</ele>
        <time>2022-07-27T08:44:08Z</time>
      </trkpt>
      <trkpt lat="45.62397" lon="6.59932">
        <ele>1951</ele>
        <time>2022-07-27T08:44:09Z</time>
      </trkpt>
      <trkpt lat="45.62398" lon="6.59931">
        <ele>1951</ele>
        <time>2022-07-27T08:44:10Z</time>
      </trkpt>
      <trkpt lat="45.62399" lon="6.5993">
        <ele>1950</ele>
        <time>2022-07-27T08:44:11Z</time>
      </trkpt>
      <trkpt lat="45.62399" lon="6.59929">
        <ele>1950</ele>
        <time>2022-07-27T08:44:12Z</time>
      </trkpt>
      <trkpt lat="45.624" lon="6.59928">
        <ele>1949</ele>
        <time>2022-07-27T08:44:13Z</time>
      </trkpt>
      <trkpt lat="45.62402" lon="6.59927">
        <ele>1949</ele>
        <time>2022-07-27T08:44:14Z</time>
      </trkpt>
      <trkpt lat="45.62403" lon="6.59926">
        <ele>1949</ele>
        <time>2022-07-27T08:44:15Z</time>
      </trkpt>
      <trkpt lat="45.62404" lon="6.59926">
        <ele>1948</ele>
        <time>2022-07-27T08:44:16Z</time>
      </trkpt>
      <trkpt lat="45.62405" lon="6.59925">
        <ele>1948</ele>
        <time>2022-07-27T08:44:17Z</time>
      </trkpt>
      <trkpt lat="45.62406" lon="6.59925">
        <ele>1948</ele>
        <time>2022-07-27T08:44:18Z</time>
      </trkpt>
      <trkpt lat="45.62408" lon="6.59925">
        <ele>1948</ele>
        <time>2022-07-27T08:44:19Z</time>
      </trkpt>
      <trkpt lat="45.62409" lon="6.59925">
        <ele>1948</ele>
        <time>2022-07-27T08:44:20Z</time>
      </trkpt>
      <trkpt lat="45.6241" lon="6.59925">
        <ele>1948</ele>
        <time>2022-07-27T08:44:21Z</time>
      </trkpt>
      <trkpt lat="45.62411" lon="6.59925">
        <ele>1948</ele>
        <time>2022-07-27T08:44:22Z</time>
      </trkpt>
      <trkpt lat="45.62412" lon="6.59926">
        <ele>1948</ele>
        <time>2022-07-27T08:44:23Z</time>
      </trkpt>
      <trkpt lat="45.62413" lon="6.59926">
        <ele>1948</ele>
        <time>2022-07-27T08:44:24Z</time>
      </trkpt>
      <trkpt lat="45.62414" lon="6.59927">
        <ele>1948</ele>
        <time>2022-07-27T08:44:25Z</time>
      </trkpt>
      <trkpt lat="45.62415" lon="6.59928">
        <ele>1947</ele>
        <time>2022-07-27T08:44:26Z</time>
      </trkpt>
      <trkpt lat="45.62416" lon="6.59929">
        <ele>1947</ele>
        <time>2022-07-27T08:44:27Z</time>
      </trkpt>
      <trkpt lat="45.62417" lon="6.59929">
        <ele>1947</ele>
        <time>2022-07-27T08:44:28Z</time>
      </trkpt>
      <trkpt lat="45.62418" lon="6.5993">
        <ele>1947</ele>
        <time>2022-07-27T08:44:29Z</time>
      </trkpt>
      <trkpt lat="45.62419" lon="6.5993">
        <ele>1947</ele>
        <time>2022-07-27T08:44:30Z</time>
      </trkpt>
      <trkpt lat="45.62419" lon="6.59931">
        <ele>1946</ele>
        <time>2022-07-27T08:44:31Z</time>
      </trkpt>
      <trkpt lat="45.6242" lon="6.59931">
        <ele>1946</ele>
        <time>2022-07-27T08:44:32Z</time>
      </trkpt>
      <trkpt lat="45.62421" lon="6.59932">
        <ele>1946</ele>
        <time>2022-07-27T08:44:33Z</time>
      </trkpt>
      <trkpt lat="45.62422" lon="6.59933">
        <ele>1946</ele>
        <time>2022-07-27T08:44:34Z</time>
      </trkpt>
      <trkpt lat="45.62423" lon="6.59934">
        <ele>1946</ele>
        <time>2022-07-27T08:44:35Z</time>
      </trkpt>
      <trkpt lat="45.62423" lon="6.59935">
        <ele>1945</ele>
        <time>2022-07-27T08:44:36Z</time>
      </trkpt>
      <trkpt lat="45.62424" lon="6.59936">
        <ele>1945</ele>
        <time>2022-07-27T08:44:37Z</time>
      </trkpt>
      <trkpt lat="45.62425" lon="6.59937">
        <ele>1945</ele>
        <time>2022-07-27T08:44:38Z</time>
      </trkpt>
      <trkpt lat="45.62426" lon="6.59938">
        <ele>1945</ele>
        <time>2022-07-27T08:44:39Z</time>
      </trkpt>
      <trkpt lat="45.62426" lon="6.59939">
        <ele>1945</ele>
        <time>2022-07-27T08:44:40Z</time>
      </trkpt>
      <trkpt lat="45.62427" lon="6.5994">
        <ele>1944</ele>
        <time>2022-07-27T08:44:41Z</time>
      </trkpt>
      <trkpt lat="45.62428" lon="6.59941">
        <ele>1944</ele>
        <time>2022-07-27T08:44:42Z</time>
      </trkpt>
      <trkpt lat="45.62428" lon="6.59942">
        <ele>1943</ele>
        <time>2022-07-27T08:44:43Z</time>
      </trkpt>
      <trkpt lat="45.62429" lon="6.59943">
        <ele>1943</ele>
        <time>2022-07-27T08:44:44Z</time>
      </trkpt>
      <trkpt lat="45.6243" lon="6.59944">
        <ele>1943</ele>
        <time>2022-07-27T08:44:45Z</time>
      </trkpt>
      <trkpt lat="45.6243" lon="6.59945">
        <ele>1942</ele>
        <time>2022-07-27T08:44:46Z</time>
      </trkpt>
      <trkpt lat="45.62431" lon="6.59947">
        <ele>1942</ele>
        <time>2022-07-27T08:44:47Z</time>
      </trkpt>
      <trkpt lat="45.62431" lon="6.59948">
        <ele>1942</ele>
        <time>2022-07-27T08:44:48Z</time>
      </trkpt>
      <trkpt lat="45.62432" lon="6.59949">
        <ele>1942</ele>
        <time>2022-07-27T08:44:49Z</time>
      </trkpt>
      <trkpt lat="45.62432" lon="6.59949">
        <ele>1942</ele>
        <time>2022-07-27T08:44:50Z</time>
      </trkpt>
      <trkpt lat="45.62433" lon="6.5995">
        <ele>1941</ele>
        <time>2022-07-27T08:44:51Z</time>
      </trkpt>
      <trkpt lat="45.62434" lon="6.5995">
        <ele>1941</ele>
        <time>2022-07-27T08:44:52Z</time>
      </trkpt>
      <trkpt lat="45.62434" lon="6.59951">
        <ele>1941</ele>
        <time>2022-07-27T08:44:53Z</time>
      </trkpt>
      <trkpt lat="45.62435" lon="6.59951">
        <ele>1941</ele>
        <time>2022-07-27T08:44:54Z</time>
      </trkpt>
      <trkpt lat="45.62435" lon="6.59951">
        <ele>1941</ele>
        <time>2022-07-27T08:44:55Z</time>
      </trkpt>
      <trkpt lat="45.62436" lon="6.59951">
        <ele>1940</ele>
        <time>2022-07-27T08:44:56Z</time>
      </trkpt>
      <trkpt lat="45.62436" lon="6.59951">
        <ele>1940</ele>
        <time>2022-07-27T08:44:57Z</time>
      </trkpt>
      <trkpt lat="45.62437" lon="6.59951">
        <ele>1940</ele>
        <time>2022-07-27T08:44:58Z</time>
      </trkpt>
      <trkpt lat="45.62437" lon="6.59951">
        <ele>1940</ele>
        <time>2022-07-27T08:44:59Z</time>
      </trkpt>
      <trkpt lat="45.62438" lon="6.59952">
        <ele>1940</ele>
        <time>2022-07-27T08:45:00Z</time>
      </trkpt>
      <trkpt lat="45.62438" lon="6.59952">
        <ele>1939</ele>
        <time>2022-07-27T08:45:01Z</time>
      </trkpt>
      <trkpt lat="45.62439" lon="6.59953">
        <ele>1939</ele>
        <time>2022-07-27T08:45:02Z</time>
      </trkpt>
      <trkpt lat="45.6244" lon="6.59953">
        <ele>1939</ele>
        <time>2022-07-27T08:45:03Z</time>
      </trkpt>
      <trkpt lat="45.6244" lon="6.59953">
        <ele>1939</ele>
        <time>2022-07-27T08:45:04Z</time>
      </trkpt>
      <trkpt lat="45.62441" lon="6.59954">
        <ele>1939</ele>
        <time>2022-07-27T08:45:05Z</time>
      </trkpt>
      <trkpt lat="45.62442" lon="6.59954">
        <ele>1938</ele>
        <time>2022-07-27T08:45:06Z</time>
      </trkpt>
      <trkpt lat="45.62442" lon="6.59954">
        <ele>1938</ele>
        <time>2022-07-27T08:45:07Z</time>
      </trkpt>
      <trkpt lat="45.62443" lon="6.59954">
        <ele>1938</ele>
        <time>2022-07-27T08:45:08Z</time>
      </trkpt>
      <trkpt lat="45.62444" lon="6.59954">
        <ele>1938</ele>
        <time>2022-07-27T08:45:09Z</time>
      </trkpt>
      <trkpt lat="45.62444" lon="6.59955">
        <ele>1938</ele>
        <time>2022-07-27T08:45:10Z</time>
      </trkpt>
      <trkpt lat="45.62445" lon="6.59956">
        <ele>1937</ele>
        <time>2022-07-27T08:45:11Z</time>
      </trkpt>
      <trkpt lat="45.62446" lon="6.59957">
        <ele>1937</ele>
        <time>2022-07-27T08:45:12Z</time>
      </trkpt>
      <trkpt lat="45.62446" lon="6.59958">
        <ele>1936</ele>
        <time>2022-07-27T08:45:13Z</time>
      </trkpt>
      <trkpt lat="45.62447" lon="6.59959">
        <ele>1936</ele>
        <time>2022-07-27T08:45:14Z</time>
      </trkpt>
      <trkpt lat="45.62448" lon="6.5996">
        <ele>1936</ele>
        <time>2022-07-27T08:45:15Z</time>
      </trkpt>
      <trkpt lat="45.62448" lon="6.59961">
        <ele>1935</ele>
        <time>2022-07-27T08:45:16Z</time>
      </trkpt>
      <trkpt lat="45.62449" lon="6.59962">
        <ele>1935</ele>
        <time>2022-07-27T08:45:17Z</time>
      </trkpt>
      <trkpt lat="45.6245" lon="6.59964">
        <ele>1935</ele>
        <time>2022-07-27T08:45:18Z</time>
      </trkpt>
      <trkpt lat="45.6245" lon="6.59965">
        <ele>1935</ele>
        <time>2022-07-27T08:45:19Z</time>
      </trkpt>
      <trkpt lat="45.62451" lon="6.59966">
        <ele>1935</ele>
        <time>2022-07-27T08:45:20Z</time>
      </trkpt>
      <trkpt lat="45.62452" lon="6.59967">
        <ele>1935</ele>
        <time>2022-07-27T08:45:21Z</time>
      </trkpt>
      <trkpt lat="45.62452" lon="6.59968">
        <ele>1935</ele>
        <time>2022-07-27T08:45:22Z</time>
      </trkpt>
      <trkpt lat="45.62453" lon="6.59969">
        <ele>1935</ele>
        <time>2022-07-27T08:45:23Z</time>
      </trkpt>
      <trkpt lat="45.62453" lon="6.5997">
        <ele>1935</ele>
        <time>2022-07-27T08:45:24Z</time>
      </trkpt>
      <trkpt lat="45.62454" lon="6.5997">
        <ele>1935</ele>
        <time>2022-07-27T08:45:25Z</time>
      </trkpt>
      <trkpt lat="45.62455" lon="6.59971">
        <ele>1934</ele>
        <time>2022-07-27T08:45:26Z</time>
      </trkpt>
      <trkpt lat="45.62455" lon="6.59971">
        <ele>1934</ele>
        <time>2022-07-27T08:45:27Z</time>
      </trkpt>
      <trkpt lat="45.62456" lon="6.59971">
        <ele>1934</ele>
        <time>2022-07-27T08:45:28Z</time>
      </trkpt>
      <trkpt lat="45.62457" lon="6.59971">
        <ele>1934</ele>
        <time>2022-07-27T08:45:29Z</time>
      </trkpt>
      <trkpt lat="45.62458" lon="6.59971">
        <ele>1934</ele>
        <time>2022-07-27T08:45:30Z</time>
      </trkpt>
      <trkpt lat="45.62458" lon="6.59971">
        <ele>1933</ele>
        <time>2022-07-27T08:45:31Z</time>
      </trkpt>
      <trkpt lat="45.62459" lon="6.59971">
        <ele>1933</ele>
        <time>2022-07-27T08:45:32Z</time>
      </trkpt>
      <trkpt lat="45.6246" lon="6.59971">
        <ele>1933</ele>
        <time>2022-07-27T08:45:33Z</time>
      </trkpt>
      <trkpt lat="45.6246" lon="6.59972">
        <ele>1933</ele>
        <time>2022-07-27T08:45:34Z</time>
      </trkpt>
      <trkpt lat="45.62461" lon="6.59973">
        <ele>1933</ele>
        <time>2022-07-27T08:45:35Z</time>
      </trkpt>
      <trkpt lat="45.62462" lon="6.59974">
        <ele>1932</ele>
        <time>2022-07-27T08:45:36Z</time>
      </trkpt>
      <trkpt lat="45.62462" lon="6.59974">
        <ele>1932</ele>
        <time>2022-07-27T08:45:37Z</time>
      </trkpt>
      <trkpt lat="45.62463" lon="6.59975">
        <ele>1932</ele>
        <time>2022-07-27T08:45:38Z</time>
      </trkpt>
      <trkpt lat="45.62463" lon="6.59976">
        <ele>1932</ele>
        <time>2022-07-27T08:45:39Z</time>
      </trkpt>
      <trkpt lat="45.62464" lon="6.59976">
        <ele>1932</ele>
        <time>2022-07-27T08:45:40Z</time>
      </trkpt>
      <trkpt lat="45.62465" lon="6.59977">
        <ele>1931</ele>
        <time>2022-07-27T08:45:41Z</time>
      </trkpt>
      <trkpt lat="45.62465" lon="6.59978">
        <ele>1931</ele>
        <time>2022-07-27T08:45:42Z</time>
      </trkpt>
      <trkpt lat="45.62466" lon="6.59978">
        <ele>1931</ele>
        <time>2022-07-27T08:45:43Z</time>
      </trkpt>
      <trkpt lat="45.62467" lon="6.59979">
        <ele>1931</ele>
        <time>2022-07-27T08:45:44Z</time>
      </trkpt>
      <trkpt lat="45.62468" lon="6.59979">
        <ele>1931</ele>
        <time>2022-07-27T08:45:45Z</time>
      </trkpt>
      <trkpt lat="45.62469" lon="6.5998">
        <ele>1930</ele>
        <time>2022-07-27T08:45:46Z</time>
      </trkpt>
      <trkpt lat="45.6247" lon="6.5998">
        <ele>1930</ele>
        <time>2022-07-27T08:45:47Z</time>
      </trkpt>
      <trkpt lat="45.62471" lon="6.59981">
        <ele>1929</ele>
        <time>2022-07-27T08:45:48Z</time>
      </trkpt>
      <trkpt lat="45.62472" lon="6.59982">
        <ele>1929</ele>
        <time>2022-07-27T08:45:49Z</time>
      </trkpt>
      <trkpt lat="45.62473" lon="6.59982">
        <ele>1929</ele>
        <time>2022-07-27T08:45:50Z</time>
      </trkpt>
      <trkpt lat="45.62474" lon="6.59983">
        <ele>1928</ele>
        <time>2022-07-27T08:45:51Z</time>
      </trkpt>
      <trkpt lat="45.62475" lon="6.59984">
        <ele>1928</ele>
        <time>2022-07-27T08:45:52Z</time>
      </trkpt>
      <trkpt lat="45.62476" lon="6.59984">
        <ele>1928</ele>
        <time>2022-07-27T08:45:53Z</time>
      </trkpt>
      <trkpt lat="45.62477" lon="6.59985">
        <ele>1928</ele>
        <time>2022-07-27T08:45:54Z</time>
      </trkpt>
      <trkpt lat="45.62477" lon="6.59986">
        <ele>1928</ele>
        <time>2022-07-27T08:45:55Z</time>
      </trkpt>
      <trkpt lat="45.62478" lon="6.59986">
        <ele>1927</ele>
        <time>2022-07-27T08:45:56Z</time>
      </trkpt>
      <trkpt lat="45.62479" lon="6.59987">
        <ele>1927</ele>
        <time>2022-07-27T08:45:57Z</time>
      </trkpt>
      <trkpt lat="45.6248" lon="6.59988">
        <ele>1927</ele>
        <time>2022-07-27T08:45:58Z</time>
      </trkpt>
      <trkpt lat="45.6248" lon="6.59988">
        <ele>1927</ele>
        <time>2022-07-27T08:45:59Z</time>
      </trkpt>
      <trkpt lat="45.62481" lon="6.59989">
        <ele>1927</ele>
        <time>2022-07-27T08:46:35Z</time>
      </trkpt>
      <trkpt lat="45.62482" lon="6.59989">
        <ele>1927</ele>
        <time>2022-07-27T08:46:36Z</time>
      </trkpt>
      <trkpt lat="45.62482" lon="6.59989">
        <ele>1927</ele>
        <time>2022-07-27T08:46:37Z</time>
      </trkpt>
      <trkpt lat="45.62483" lon="6.5999">
        <ele>1927</ele>
        <time>2022-07-27T08:46:38Z</time>
      </trkpt>
      <trkpt lat="45.62484" lon="6.59991">
        <ele>1927</ele>
        <time>2022-07-27T08:46:39Z</time>
      </trkpt>
      <trkpt lat="45.62485" lon="6.59992">
        <ele>1927</ele>
        <time>2022-07-27T08:46:40Z</time>
      </trkpt>
      <trkpt lat="45.62486" lon="6.59993">
        <ele>1927</ele>
        <time>2022-07-27T08:46:41Z</time>
      </trkpt>
      <trkpt lat="45.62487" lon="6.59994">
        <ele>1927</ele>
        <time>2022-07-27T08:46:42Z</time>
      </trkpt>
      <trkpt lat="45.62488" lon="6.59995">
        <ele>1927</ele>
        <time>2022-07-27T08:46:43Z</time>
      </trkpt>
      <trkpt lat="45.6249" lon="6.59996">
        <ele>1927</ele>
        <time>2022-07-27T08:46:44Z</time>
      </trkpt>
      <trkpt lat="45.62491" lon="6.59998">
        <ele>1927</ele>
        <time>2022-07-27T08:46:45Z</time>
      </trkpt>
      <trkpt lat="45.62492" lon="6.59999">
        <ele>1926</ele>
        <time>2022-07-27T08:46:46Z</time>
      </trkpt>
      <trkpt lat="45.62494" lon="6.59999">
        <ele>1926</ele>
        <time>2022-07-27T08:46:47Z</time>
      </trkpt>
      <trkpt lat="45.62495" lon="6.6">
        <ele>1926</ele>
        <time>2022-07-27T08:46:48Z</time>
      </trkpt>
      <trkpt lat="45.62497" lon="6.60001">
        <ele>1926</ele>
        <time>2022-07-27T08:46:49Z</time>
      </trkpt>
      <trkpt lat="45.62498" lon="6.60002">
        <ele>1926</ele>
        <time>2022-07-27T08:46:50Z</time>
      </trkpt>
      <trkpt lat="45.62499" lon="6.60003">
        <ele>1926</ele>
        <time>2022-07-27T08:46:51Z</time>
      </trkpt>
      <trkpt lat="45.625" lon="6.60005">
        <ele>1926</ele>
        <time>2022-07-27T08:46:52Z</time>
      </trkpt>
      <trkpt lat="45.62501" lon="6.60006">
        <ele>1926</ele>
        <time>2022-07-27T08:46:53Z</time>
      </trkpt>
      <trkpt lat="45.62502" lon="6.60006">
        <ele>1926</ele>
        <time>2022-07-27T08:46:54Z</time>
      </trkpt>
      <trkpt lat="45.62503" lon="6.60007">
        <ele>1926</ele>
        <time>2022-07-27T08:46:55Z</time>
      </trkpt>
      <trkpt lat="45.62505" lon="6.60008">
        <ele>1926</ele>
        <time>2022-07-27T08:46:56Z</time>
      </trkpt>
      <trkpt lat="45.62506" lon="6.60009">
        <ele>1926</ele>
        <time>2022-07-27T08:46:57Z</time>
      </trkpt>
      <trkpt lat="45.62508" lon="6.60009">
        <ele>1926</ele>
        <time>2022-07-27T08:46:58Z</time>
      </trkpt>
      <trkpt lat="45.62509" lon="6.60009">
        <ele>1926</ele>
        <time>2022-07-27T08:46:59Z</time>
      </trkpt>
      <trkpt lat="45.62511" lon="6.6001">
        <ele>1926</ele>
        <time>2022-07-27T08:47:00Z</time>
      </trkpt>
      <trkpt lat="45.62512" lon="6.6001">
        <ele>1925</ele>
        <time>2022-07-27T08:47:01Z</time>
      </trkpt>
      <trkpt lat="45.62514" lon="6.6001">
        <ele>1925</ele>
        <time>2022-07-27T08:47:02Z</time>
      </trkpt>
      <trkpt lat="45.62515" lon="6.6001">
        <ele>1925</ele>
        <time>2022-07-27T08:47:03Z</time>
      </trkpt>
      <trkpt lat="45.62517" lon="6.60011">
        <ele>1925</ele>
        <time>2022-07-27T08:47:04Z</time>
      </trkpt>
      <trkpt lat="45.62519" lon="6.60011">
        <ele>1925</ele>
        <time>2022-07-27T08:47:05Z</time>
      </trkpt>
      <trkpt lat="45.6252" lon="6.60011">
        <ele>1925</ele>
        <time>2022-07-27T08:47:06Z</time>
      </trkpt>
      <trkpt lat="45.62522" lon="6.60011">
        <ele>1925</ele>
        <time>2022-07-27T08:47:07Z</time>
      </trkpt>
      <trkpt lat="45.62523" lon="6.60011">
        <ele>1925</ele>
        <time>2022-07-27T08:47:08Z</time>
      </trkpt>
      <trkpt lat="45.62525" lon="6.60011">
        <ele>1925</ele>
        <time>2022-07-27T08:47:09Z</time>
      </trkpt>
      <trkpt lat="45.62526" lon="6.60011">
        <ele>1925</ele>
        <time>2022-07-27T08:47:10Z</time>
      </trkpt>
      <trkpt lat="45.62527" lon="6.60011">
        <ele>1925</ele>
        <time>2022-07-27T08:47:11Z</time>
      </trkpt>
      <trkpt lat="45.62529" lon="6.60011">
        <ele>1925</ele>
        <time>2022-07-27T08:47:12Z</time>
      </trkpt>
      <trkpt lat="45.6253" lon="6.60011">
        <ele>1925</ele>
        <time>2022-07-27T08:47:13Z</time>
      </trkpt>
      <trkpt lat="45.62532" lon="6.60011">
        <ele>1925</ele>
        <time>2022-07-27T08:47:14Z</time>
      </trkpt>
      <trkpt lat="45.62533" lon="6.60011">
        <ele>1925</ele>
        <time>2022-07-27T08:47:15Z</time>
      </trkpt>
      <trkpt lat="45.62534" lon="6.60012">
        <ele>1924</ele>
        <time>2022-07-27T08:47:16Z</time>
      </trkpt>
      <trkpt lat="45.62536" lon="6.60012">
        <ele>1924</ele>
        <time>2022-07-27T08:47:17Z</time>
      </trkpt>
      <trkpt lat="45.62537" lon="6.60012">
        <ele>1924</ele>
        <time>2022-07-27T08:47:18Z</time>
      </trkpt>
      <trkpt lat="45.62538" lon="6.60013">
        <ele>1924</ele>
        <time>2022-07-27T08:47:19Z</time>
      </trkpt>
      <trkpt lat="45.62539" lon="6.60013">
        <ele>1924</ele>
        <time>2022-07-27T08:47:20Z</time>
      </trkpt>
      <trkpt lat="45.6254" lon="6.60014">
        <ele>1924</ele>
        <time>2022-07-27T08:47:21Z</time>
      </trkpt>
      <trkpt lat="45.62541" lon="6.60015">
        <ele>1924</ele>
        <time>2022-07-27T08:47:22Z</time>
      </trkpt>
      <trkpt lat="45.62542" lon="6.60016">
        <ele>1924</ele>
        <time>2022-07-27T08:47:23Z</time>
      </trkpt>
      <trkpt lat="45.62543" lon="6.60017">
        <ele>1924</ele>
        <time>2022-07-27T08:47:24Z</time>
      </trkpt>
      <trkpt lat="45.62543" lon="6.60018">
        <ele>1924</ele>
        <time>2022-07-27T08:47:25Z</time>
      </trkpt>
      <trkpt lat="45.62544" lon="6.60019">
        <ele>1923</ele>
        <time>2022-07-27T08:47:26Z</time>
      </trkpt>
      <trkpt lat="45.62545" lon="6.6002">
        <ele>1923</ele>
        <time>2022-07-27T08:47:27Z</time>
      </trkpt>
      <trkpt lat="45.62546" lon="6.6002">
        <ele>1923</ele>
        <time>2022-07-27T08:47:28Z</time>
      </trkpt>
      <trkpt lat="45.62547" lon="6.60021">
        <ele>1923</ele>
        <time>2022-07-27T08:47:29Z</time>
      </trkpt>
      <trkpt lat="45.62548" lon="6.60022">
        <ele>1923</ele>
        <time>2022-07-27T08:47:30Z</time>
      </trkpt>
      <trkpt lat="45.62549" lon="6.60023">
        <ele>1923</ele>
        <time>2022-07-27T08:47:31Z</time>
      </trkpt>
      <trkpt lat="45.6255" lon="6.60024">
        <ele>1923</ele>
        <time>2022-07-27T08:47:32Z</time>
      </trkpt>
      <trkpt lat="45.6255" lon="6.60025">
        <ele>1923</ele>
        <time>2022-07-27T08:47:33Z</time>
      </trkpt>
      <trkpt lat="45.62551" lon="6.60026">
        <ele>1923</ele>
        <time>2022-07-27T08:47:34Z</time>
      </trkpt>
      <trkpt lat="45.62552" lon="6.60028">
        <ele>1923</ele>
        <time>2022-07-27T08:47:35Z</time>
      </trkpt>
      <trkpt lat="45.62553" lon="6.60029">
        <ele>1922</ele>
        <time>2022-07-27T08:47:36Z</time>
      </trkpt>
      <trkpt lat="45.62553" lon="6.6003">
        <ele>1922</ele>
        <time>2022-07-27T08:47:37Z</time>
      </trkpt>
      <trkpt lat="45.62554" lon="6.60032">
        <ele>1922</ele>
        <time>2022-07-27T08:47:38Z</time>
      </trkpt>
      <trkpt lat="45.62555" lon="6.60033">
        <ele>1922</ele>
        <time>2022-07-27T08:47:39Z</time>
      </trkpt>
      <trkpt lat="45.62556" lon="6.60034">
        <ele>1922</ele>
        <time>2022-07-27T08:47:40Z</time>
      </trkpt>
      <trkpt lat="45.62557" lon="6.60034">
        <ele>1922</ele>
        <time>2022-07-27T08:47:41Z</time>
      </trkpt>
      <trkpt lat="45.62558" lon="6.60035">
        <ele>1922</ele>
        <time>2022-07-27T08:47:42Z</time>
      </trkpt>
      <trkpt lat="45.62559" lon="6.60036">
        <ele>1922</ele>
        <time>2022-07-27T08:47:43Z</time>
      </trkpt>
      <trkpt lat="45.6256" lon="6.60036">
        <ele>1922</ele>
        <time>2022-07-27T08:47:44Z</time>
      </trkpt>
      <trkpt lat="45.62561" lon="6.60036">
        <ele>1922</ele>
        <time>2022-07-27T08:47:45Z</time>
      </trkpt>
      <trkpt lat="45.62561" lon="6.60037">
        <ele>1922</ele>
        <time>2022-07-27T08:47:46Z</time>
      </trkpt>
      <trkpt lat="45.62562" lon="6.60037">
        <ele>1922</ele>
        <time>2022-07-27T08:47:47Z</time>
      </trkpt>
      <trkpt lat="45.62563" lon="6.60037">
        <ele>1922</ele>
        <time>2022-07-27T08:47:48Z</time>
      </trkpt>
      <trkpt lat="45.62564" lon="6.60037">
        <ele>1922</ele>
        <time>2022-07-27T08:47:49Z</time>
      </trkpt>
      <trkpt lat="45.62565" lon="6.60037">
        <ele>1922</ele>
        <time>2022-07-27T08:47:50Z</time>
      </trkpt>
      <trkpt lat="45.62565" lon="6.60038">
        <ele>1922</ele>
        <time>2022-07-27T08:47:51Z</time>
      </trkpt>
      <trkpt lat="45.62566" lon="6.60038">
        <ele>1922</ele>
        <time>2022-07-27T08:47:52Z</time>
      </trkpt>
      <trkpt lat="45.62567" lon="6.60038">
        <ele>1922</ele>
        <time>2022-07-27T08:47:53Z</time>
      </trkpt>
      <trkpt lat="45.62568" lon="6.60039">
        <ele>1922</ele>
        <time>2022-07-27T08:47:54Z</time>
      </trkpt>
      <trkpt lat="45.62569" lon="6.60039">
        <ele>1922</ele>
        <time>2022-07-27T08:47:55Z</time>
      </trkpt>
      <trkpt lat="45.6257" lon="6.60039">
        <ele>1922</ele>
        <time>2022-07-27T08:47:56Z</time>
      </trkpt>
      <trkpt lat="45.62571" lon="6.6004">
        <ele>1922</ele>
        <time>2022-07-27T08:47:57Z</time>
      </trkpt>
      <trkpt lat="45.62572" lon="6.6004">
        <ele>1922</ele>
        <time>2022-07-27T08:47:58Z</time>
      </trkpt>
      <trkpt lat="45.62573" lon="6.60041">
        <ele>1922</ele>
        <time>2022-07-27T08:47:59Z</time>
      </trkpt>
      <trkpt lat="45.62574" lon="6.60041">
        <ele>1922</ele>
        <time>2022-07-27T08:48:00Z</time>
      </trkpt>
      <trkpt lat="45.62575" lon="6.60042">
        <ele>1922</ele>
        <time>2022-07-27T08:48:01Z</time>
      </trkpt>
      <trkpt lat="45.62576" lon="6.60043">
        <ele>1922</ele>
        <time>2022-07-27T08:48:02Z</time>
      </trkpt>
      <trkpt lat="45.62576" lon="6.60044">
        <ele>1922</ele>
        <time>2022-07-27T08:48:03Z</time>
      </trkpt>
      <trkpt lat="45.62577" lon="6.60045">
        <ele>1922</ele>
        <time>2022-07-27T08:48:04Z</time>
      </trkpt>
      <trkpt lat="45.62577" lon="6.60046">
        <ele>1922</ele>
        <time>2022-07-27T08:48:05Z</time>
      </trkpt>
      <trkpt lat="45.62577" lon="6.60047">
        <ele>1922</ele>
        <time>2022-07-27T08:48:06Z</time>
      </trkpt>
      <trkpt lat="45.62577" lon="6.60048">
        <ele>1922</ele>
        <time>2022-07-27T08:48:07Z</time>
      </trkpt>
      <trkpt lat="45.62578" lon="6.60049">
        <ele>1922</ele>
        <time>2022-07-27T08:48:08Z</time>
      </trkpt>
      <trkpt lat="45.62578" lon="6.6005">
        <ele>1922</ele>
        <time>2022-07-27T08:48:09Z</time>
      </trkpt>
      <trkpt lat="45.62578" lon="6.60051">
        <ele>1922</ele>
        <time>2022-07-27T08:48:10Z</time>
      </trkpt>
      <trkpt lat="45.62578" lon="6.60052">
        <ele>1922</ele>
        <time>2022-07-27T08:48:11Z</time>
      </trkpt>
      <trkpt lat="45.62578" lon="6.60053">
        <ele>1922</ele>
        <time>2022-07-27T08:48:12Z</time>
      </trkpt>
      <trkpt lat="45.62578" lon="6.60054">
        <ele>1922</ele>
        <time>2022-07-27T08:48:13Z</time>
      </trkpt>
      <trkpt lat="45.62578" lon="6.60054">
        <ele>1922</ele>
        <time>2022-07-27T08:48:14Z</time>
      </trkpt>
      <trkpt lat="45.62578" lon="6.60055">
        <ele>1922</ele>
        <time>2022-07-27T08:48:15Z</time>
      </trkpt>
      <trkpt lat="45.62578" lon="6.60056">
        <ele>1921</ele>
        <time>2022-07-27T08:48:16Z</time>
      </trkpt>
      <trkpt lat="45.62578" lon="6.60057">
        <ele>1921</ele>
        <time>2022-07-27T08:48:17Z</time>
      </trkpt>
      <trkpt lat="45.62578" lon="6.60057">
        <ele>1921</ele>
        <time>2022-07-27T08:48:18Z</time>
      </trkpt>
      <trkpt lat="45.62579" lon="6.60058">
        <ele>1921</ele>
        <time>2022-07-27T08:48:19Z</time>
      </trkpt>
      <trkpt lat="45.62579" lon="6.60059">
        <ele>1921</ele>
        <time>2022-07-27T08:48:20Z</time>
      </trkpt>
      <trkpt lat="45.62579" lon="6.6006">
        <ele>1921</ele>
        <time>2022-07-27T08:48:21Z</time>
      </trkpt>
      <trkpt lat="45.62579" lon="6.60061">
        <ele>1921</ele>
        <time>2022-07-27T08:48:22Z</time>
      </trkpt>
      <trkpt lat="45.62579" lon="6.60062">
        <ele>1921</ele>
        <time>2022-07-27T08:48:23Z</time>
      </trkpt>
      <trkpt lat="45.62579" lon="6.60064">
        <ele>1921</ele>
        <time>2022-07-27T08:48:24Z</time>
      </trkpt>
      <trkpt lat="45.62579" lon="6.60065">
        <ele>1921</ele>
        <time>2022-07-27T08:48:25Z</time>
      </trkpt>
      <trkpt lat="45.62579" lon="6.60067">
        <ele>1921</ele>
        <time>2022-07-27T08:48:26Z</time>
      </trkpt>
      <trkpt lat="45.62579" lon="6.60069">
        <ele>1921</ele>
        <time>2022-07-27T08:48:27Z</time>
      </trkpt>
      <trkpt lat="45.62579" lon="6.6007">
        <ele>1921</ele>
        <time>2022-07-27T08:48:28Z</time>
      </trkpt>
      <trkpt lat="45.62579" lon="6.60072">
        <ele>1921</ele>
        <time>2022-07-27T08:48:29Z</time>
      </trkpt>
      <trkpt lat="45.62579" lon="6.60073">
        <ele>1921</ele>
        <time>2022-07-27T08:48:30Z</time>
      </trkpt>
      <trkpt lat="45.62579" lon="6.60074">
        <ele>1921</ele>
        <time>2022-07-27T08:48:31Z</time>
      </trkpt>
      <trkpt lat="45.62579" lon="6.60076">
        <ele>1921</ele>
        <time>2022-07-27T08:48:32Z</time>
      </trkpt>
      <trkpt lat="45.62579" lon="6.60077">
        <ele>1921</ele>
        <time>2022-07-27T08:48:33Z</time>
      </trkpt>
      <trkpt lat="45.62579" lon="6.60078">
        <ele>1921</ele>
        <time>2022-07-27T08:48:34Z</time>
      </trkpt>
      <trkpt lat="45.62579" lon="6.60079">
        <ele>1921</ele>
        <time>2022-07-27T08:48:35Z</time>
      </trkpt>
      <trkpt lat="45.6258" lon="6.6008">
        <ele>1920</ele>
        <time>2022-07-27T08:48:36Z</time>
      </trkpt>
      <trkpt lat="45.6258" lon="6.60082">
        <ele>1920</ele>
        <time>2022-07-27T08:48:37Z</time>
      </trkpt>
      <trkpt lat="45.62581" lon="6.60083">
        <ele>1920</ele>
        <time>2022-07-27T08:48:38Z</time>
      </trkpt>
      <trkpt lat="45.62582" lon="6.60084">
        <ele>1920</ele>
        <time>2022-07-27T08:48:39Z</time>
      </trkpt>
      <trkpt lat="45.62582" lon="6.60085">
        <ele>1920</ele>
        <time>2022-07-27T08:48:40Z</time>
      </trkpt>
      <trkpt lat="45.62583" lon="6.60086">
        <ele>1920</ele>
        <time>2022-07-27T08:48:41Z</time>
      </trkpt>
      <trkpt lat="45.62583" lon="6.60086">
        <ele>1920</ele>
        <time>2022-07-27T08:48:42Z</time>
      </trkpt>
      <trkpt lat="45.62583" lon="6.60087">
        <ele>1920</ele>
        <time>2022-07-27T08:48:43Z</time>
      </trkpt>
      <trkpt lat="45.62583" lon="6.60087">
        <ele>1920</ele>
        <time>2022-07-27T08:48:44Z</time>
      </trkpt>
      <trkpt lat="45.62583" lon="6.60087">
        <ele>1920</ele>
        <time>2022-07-27T08:48:45Z</time>
      </trkpt>
      <trkpt lat="45.62584" lon="6.60088">
        <ele>1920</ele>
        <time>2022-07-27T08:48:46Z</time>
      </trkpt>
      <trkpt lat="45.62584" lon="6.60088">
        <ele>1920</ele>
        <time>2022-07-27T08:48:47Z</time>
      </trkpt>
      <trkpt lat="45.62585" lon="6.60089">
        <ele>1920</ele>
        <time>2022-07-27T08:48:48Z</time>
      </trkpt>
      <trkpt lat="45.62585" lon="6.6009">
        <ele>1920</ele>
        <time>2022-07-27T08:48:49Z</time>
      </trkpt>
      <trkpt lat="45.62585" lon="6.6009">
        <ele>1920</ele>
        <time>2022-07-27T08:48:50Z</time>
      </trkpt>
      <trkpt lat="45.62585" lon="6.60091">
        <ele>1920</ele>
        <time>2022-07-27T08:48:51Z</time>
      </trkpt>
      <trkpt lat="45.62586" lon="6.60092">
        <ele>1920</ele>
        <time>2022-07-27T08:48:52Z</time>
      </trkpt>
      <trkpt lat="45.62586" lon="6.60092">
        <ele>1920</ele>
        <time>2022-07-27T08:48:53Z</time>
      </trkpt>
      <trkpt lat="45.62586" lon="6.60093">
        <ele>1920</ele>
        <time>2022-07-27T08:48:54Z</time>
      </trkpt>
      <trkpt lat="45.62587" lon="6.60093">
        <ele>1920</ele>
        <time>2022-07-27T08:48:55Z</time>
      </trkpt>
      <trkpt lat="45.62587" lon="6.60093">
        <ele>1919</ele>
        <time>2022-07-27T08:48:56Z</time>
      </trkpt>
      <trkpt lat="45.62588" lon="6.60093">
        <ele>1919</ele>
        <time>2022-07-27T08:48:57Z</time>
      </trkpt>
      <trkpt lat="45.62589" lon="6.60094">
        <ele>1918</ele>
        <time>2022-07-27T08:49:03Z</time>
      </trkpt>
      <trkpt lat="45.6259" lon="6.60094">
        <ele>1918</ele>
        <time>2022-07-27T08:49:04Z</time>
      </trkpt>
      <trkpt lat="45.6259" lon="6.60095">
        <ele>1918</ele>
        <time>2022-07-27T08:49:05Z</time>
      </trkpt>
      <trkpt lat="45.62591" lon="6.60095">
        <ele>1918</ele>
        <time>2022-07-27T08:49:06Z</time>
      </trkpt>
      <trkpt lat="45.62591" lon="6.60096">
        <ele>1918</ele>
        <time>2022-07-27T08:49:07Z</time>
      </trkpt>
      <trkpt lat="45.62592" lon="6.60097">
        <ele>1918</ele>
        <time>2022-07-27T08:49:08Z</time>
      </trkpt>
      <trkpt lat="45.62592" lon="6.60097">
        <ele>1918</ele>
        <time>2022-07-27T08:49:09Z</time>
      </trkpt>
      <trkpt lat="45.62593" lon="6.60098">
        <ele>1917</ele>
        <time>2022-07-27T08:50:45Z</time>
      </trkpt>
      <trkpt lat="45.62594" lon="6.60098">
        <ele>1917</ele>
        <time>2022-07-27T08:50:46Z</time>
      </trkpt>
      <trkpt lat="45.62594" lon="6.60098">
        <ele>1917</ele>
        <time>2022-07-27T08:50:47Z</time>
      </trkpt>
      <trkpt lat="45.62594" lon="6.60098">
        <ele>1917</ele>
        <time>2022-07-27T08:50:48Z</time>
      </trkpt>
      <trkpt lat="45.62593" lon="6.60097">
        <ele>1917</ele>
        <time>2022-07-27T08:50:49Z</time>
      </trkpt>
      <trkpt lat="45.62594" lon="6.60095">
        <ele>1917</ele>
        <time>2022-07-27T08:50:50Z</time>
      </trkpt>
      <trkpt lat="45.62594" lon="6.60094">
        <ele>1917</ele>
        <time>2022-07-27T08:50:51Z</time>
      </trkpt>
      <trkpt lat="45.62594" lon="6.60092">
        <ele>1917</ele>
        <time>2022-07-27T08:50:52Z</time>
      </trkpt>
      <trkpt lat="45.62594" lon="6.6009">
        <ele>1917</ele>
        <time>2022-07-27T08:50:53Z</time>
      </trkpt>
      <trkpt lat="45.62594" lon="6.60088">
        <ele>1917</ele>
        <time>2022-07-27T08:50:54Z</time>
      </trkpt>
      <trkpt lat="45.62595" lon="6.60086">
        <ele>1917</ele>
        <time>2022-07-27T08:50:55Z</time>
      </trkpt>
      <trkpt lat="45.62595" lon="6.60084">
        <ele>1917</ele>
        <time>2022-07-27T08:50:56Z</time>
      </trkpt>
      <trkpt lat="45.62596" lon="6.60083">
        <ele>1917</ele>
        <time>2022-07-27T08:50:57Z</time>
      </trkpt>
      <trkpt lat="45.62597" lon="6.60081">
        <ele>1917</ele>
        <time>2022-07-27T08:50:58Z</time>
      </trkpt>
      <trkpt lat="45.62597" lon="6.60079">
        <ele>1917</ele>
        <time>2022-07-27T08:50:59Z</time>
      </trkpt>
      <trkpt lat="45.62598" lon="6.60078">
        <ele>1917</ele>
        <time>2022-07-27T08:51:00Z</time>
      </trkpt>
      <trkpt lat="45.62598" lon="6.60076">
        <ele>1916</ele>
        <time>2022-07-27T08:51:01Z</time>
      </trkpt>
      <trkpt lat="45.62599" lon="6.60075">
        <ele>1916</ele>
        <time>2022-07-27T08:51:02Z</time>
      </trkpt>
      <trkpt lat="45.62599" lon="6.60073">
        <ele>1916</ele>
        <time>2022-07-27T08:51:03Z</time>
      </trkpt>
      <trkpt lat="45.626" lon="6.60071">
        <ele>1916</ele>
        <time>2022-07-27T08:51:04Z</time>
      </trkpt>
      <trkpt lat="45.626" lon="6.6007">
        <ele>1916</ele>
        <time>2022-07-27T08:51:05Z</time>
      </trkpt>
      <trkpt lat="45.62601" lon="6.60068">
        <ele>1916</ele>
        <time>2022-07-27T08:51:06Z</time>
      </trkpt>
      <trkpt lat="45.62601" lon="6.60066">
        <ele>1916</ele>
        <time>2022-07-27T08:51:07Z</time>
      </trkpt>
      <trkpt lat="45.62602" lon="6.60065">
        <ele>1916</ele>
        <time>2022-07-27T08:51:08Z</time>
      </trkpt>
      <trkpt lat="45.62602" lon="6.60063">
        <ele>1916</ele>
        <time>2022-07-27T08:51:09Z</time>
      </trkpt>
      <trkpt lat="45.62603" lon="6.60062">
        <ele>1916</ele>
        <time>2022-07-27T08:51:10Z</time>
      </trkpt>
      <trkpt lat="45.62604" lon="6.6006">
        <ele>1916</ele>
        <time>2022-07-27T08:51:11Z</time>
      </trkpt>
      <trkpt lat="45.62605" lon="6.60059">
        <ele>1916</ele>
        <time>2022-07-27T08:51:12Z</time>
      </trkpt>
      <trkpt lat="45.62605" lon="6.60058">
        <ele>1916</ele>
        <time>2022-07-27T08:51:13Z</time>
      </trkpt>
      <trkpt lat="45.62606" lon="6.60056">
        <ele>1916</ele>
        <time>2022-07-27T08:51:14Z</time>
      </trkpt>
      <trkpt lat="45.62607" lon="6.60055">
        <ele>1916</ele>
        <time>2022-07-27T08:51:15Z</time>
      </trkpt>
      <trkpt lat="45.62607" lon="6.60054">
        <ele>1915</ele>
        <time>2022-07-27T08:51:16Z</time>
      </trkpt>
      <trkpt lat="45.62608" lon="6.60053">
        <ele>1915</ele>
        <time>2022-07-27T08:51:17Z</time>
      </trkpt>
      <trkpt lat="45.62609" lon="6.60052">
        <ele>1915</ele>
        <time>2022-07-27T08:51:18Z</time>
      </trkpt>
      <trkpt lat="45.6261" lon="6.6005">
        <ele>1915</ele>
        <time>2022-07-27T08:51:19Z</time>
      </trkpt>
      <trkpt lat="45.62611" lon="6.60049">
        <ele>1915</ele>
        <time>2022-07-27T08:51:20Z</time>
      </trkpt>
      <trkpt lat="45.62611" lon="6.60048">
        <ele>1915</ele>
        <time>2022-07-27T08:51:21Z</time>
      </trkpt>
      <trkpt lat="45.62612" lon="6.60046">
        <ele>1915</ele>
        <time>2022-07-27T08:51:22Z</time>
      </trkpt>
      <trkpt lat="45.62613" lon="6.60045">
        <ele>1915</ele>
        <time>2022-07-27T08:51:23Z</time>
      </trkpt>
      <trkpt lat="45.62614" lon="6.60043">
        <ele>1915</ele>
        <time>2022-07-27T08:51:24Z</time>
      </trkpt>
      <trkpt lat="45.62614" lon="6.60042">
        <ele>1915</ele>
        <time>2022-07-27T08:51:25Z</time>
      </trkpt>
      <trkpt lat="45.62616" lon="6.60041">
        <ele>1915</ele>
        <time>2022-07-27T08:51:26Z</time>
      </trkpt>
      <trkpt lat="45.62617" lon="6.6004">
        <ele>1915</ele>
        <time>2022-07-27T08:51:27Z</time>
      </trkpt>
      <trkpt lat="45.62618" lon="6.60039">
        <ele>1915</ele>
        <time>2022-07-27T08:51:28Z</time>
      </trkpt>
      <trkpt lat="45.62619" lon="6.60037">
        <ele>1915</ele>
        <time>2022-07-27T08:51:29Z</time>
      </trkpt>
      <trkpt lat="45.6262" lon="6.60036">
        <ele>1915</ele>
        <time>2022-07-27T08:51:30Z</time>
      </trkpt>
      <trkpt lat="45.62621" lon="6.60035">
        <ele>1914</ele>
        <time>2022-07-27T08:51:31Z</time>
      </trkpt>
      <trkpt lat="45.62622" lon="6.60034">
        <ele>1914</ele>
        <time>2022-07-27T08:51:32Z</time>
      </trkpt>
      <trkpt lat="45.62623" lon="6.60033">
        <ele>1914</ele>
        <time>2022-07-27T08:51:33Z</time>
      </trkpt>
      <trkpt lat="45.62624" lon="6.60033">
        <ele>1914</ele>
        <time>2022-07-27T08:51:34Z</time>
      </trkpt>
      <trkpt lat="45.62625" lon="6.60032">
        <ele>1914</ele>
        <time>2022-07-27T08:51:35Z</time>
      </trkpt>
      <trkpt lat="45.62627" lon="6.60031">
        <ele>1913</ele>
        <time>2022-07-27T08:51:36Z</time>
      </trkpt>
      <trkpt lat="45.62628" lon="6.60031">
        <ele>1913</ele>
        <time>2022-07-27T08:51:37Z</time>
      </trkpt>
      <trkpt lat="45.62629" lon="6.6003">
        <ele>1913</ele>
        <time>2022-07-27T08:51:38Z</time>
      </trkpt>
      <trkpt lat="45.6263" lon="6.6003">
        <ele>1913</ele>
        <time>2022-07-27T08:51:39Z</time>
      </trkpt>
      <trkpt lat="45.62631" lon="6.6003">
        <ele>1913</ele>
        <time>2022-07-27T08:51:40Z</time>
      </trkpt>
      <trkpt lat="45.62632" lon="6.6003">
        <ele>1913</ele>
        <time>2022-07-27T08:51:41Z</time>
      </trkpt>
      <trkpt lat="45.62633" lon="6.6003">
        <ele>1913</ele>
        <time>2022-07-27T08:51:42Z</time>
      </trkpt>
      <trkpt lat="45.62634" lon="6.6003">
        <ele>1913</ele>
        <time>2022-07-27T08:51:43Z</time>
      </trkpt>
      <trkpt lat="45.62635" lon="6.6003">
        <ele>1913</ele>
        <time>2022-07-27T08:51:44Z</time>
      </trkpt>
      <trkpt lat="45.62636" lon="6.6003">
        <ele>1913</ele>
        <time>2022-07-27T08:51:45Z</time>
      </trkpt>
      <trkpt lat="45.62637" lon="6.6003">
        <ele>1912</ele>
        <time>2022-07-27T08:51:46Z</time>
      </trkpt>
      <trkpt lat="45.62637" lon="6.6003">
        <ele>1912</ele>
        <time>2022-07-27T08:51:47Z</time>
      </trkpt>
      <trkpt lat="45.62637" lon="6.6003">
        <ele>1912</ele>
        <time>2022-07-27T08:51:48Z</time>
      </trkpt>
      <trkpt lat="45.62638" lon="6.6003">
        <ele>1912</ele>
        <time>2022-07-27T08:51:49Z</time>
      </trkpt>
      <trkpt lat="45.62638" lon="6.6003">
        <ele>1912</ele>
        <time>2022-07-27T08:51:50Z</time>
      </trkpt>
      <trkpt lat="45.62639" lon="6.6003">
        <ele>1912</ele>
        <time>2022-07-27T08:51:51Z</time>
      </trkpt>
      <trkpt lat="45.6264" lon="6.6003">
        <ele>1912</ele>
        <time>2022-07-27T08:51:52Z</time>
      </trkpt>
      <trkpt lat="45.6264" lon="6.6003">
        <ele>1912</ele>
        <time>2022-07-27T08:51:53Z</time>
      </trkpt>
      <trkpt lat="45.62641" lon="6.6003">
        <ele>1912</ele>
        <time>2022-07-27T08:51:54Z</time>
      </trkpt>
      <trkpt lat="45.62642" lon="6.6003">
        <ele>1912</ele>
        <time>2022-07-27T08:51:55Z</time>
      </trkpt>
      <trkpt lat="45.62643" lon="6.6003">
        <ele>1912</ele>
        <time>2022-07-27T08:51:56Z</time>
      </trkpt>
      <trkpt lat="45.62644" lon="6.6003">
        <ele>1912</ele>
        <time>2022-07-27T08:51:57Z</time>
      </trkpt>
      <trkpt lat="45.62646" lon="6.6003">
        <ele>1912</ele>
        <time>2022-07-27T08:51:58Z</time>
      </trkpt>
      <trkpt lat="45.62647" lon="6.60029">
        <ele>1912</ele>
        <time>2022-07-27T08:51:59Z</time>
      </trkpt>
      <trkpt lat="45.62648" lon="6.60029">
        <ele>1912</ele>
        <time>2022-07-27T08:52:00Z</time>
      </trkpt>
      <trkpt lat="45.62649" lon="6.60029">
        <ele>1911</ele>
        <time>2022-07-27T08:52:01Z</time>
      </trkpt>
      <trkpt lat="45.6265" lon="6.60029">
        <ele>1911</ele>
        <time>2022-07-27T08:52:02Z</time>
      </trkpt>
      <trkpt lat="45.62651" lon="6.60029">
        <ele>1911</ele>
        <time>2022-07-27T08:52:03Z</time>
      </trkpt>
      <trkpt lat="45.62653" lon="6.60029">
        <ele>1911</ele>
        <time>2022-07-27T08:52:04Z</time>
      </trkpt>
      <trkpt lat="45.62654" lon="6.60028">
        <ele>1911</ele>
        <time>2022-07-27T08:52:05Z</time>
      </trkpt>
      <trkpt lat="45.62655" lon="6.60028">
        <ele>1911</ele>
        <time>2022-07-27T08:52:06Z</time>
      </trkpt>
      <trkpt lat="45.62656" lon="6.60028">
        <ele>1911</ele>
        <time>2022-07-27T08:52:07Z</time>
      </trkpt>
      <trkpt lat="45.62658" lon="6.60028">
        <ele>1911</ele>
        <time>2022-07-27T08:52:08Z</time>
      </trkpt>
      <trkpt lat="45.62659" lon="6.60028">
        <ele>1911</ele>
        <time>2022-07-27T08:52:09Z</time>
      </trkpt>
      <trkpt lat="45.6266" lon="6.60027">
        <ele>1911</ele>
        <time>2022-07-27T08:52:10Z</time>
      </trkpt>
      <trkpt lat="45.62661" lon="6.60027">
        <ele>1911</ele>
        <time>2022-07-27T08:52:11Z</time>
      </trkpt>
      <trkpt lat="45.62663" lon="6.60027">
        <ele>1911</ele>
        <time>2022-07-27T08:52:12Z</time>
      </trkpt>
      <trkpt lat="45.62664" lon="6.60027">
        <ele>1911</ele>
        <time>2022-07-27T08:52:13Z</time>
      </trkpt>
      <trkpt lat="45.62665" lon="6.60027">
        <ele>1911</ele>
        <time>2022-07-27T08:52:14Z</time>
      </trkpt>
      <trkpt lat="45.62666" lon="6.60027">
        <ele>1911</ele>
        <time>2022-07-27T08:52:15Z</time>
      </trkpt>
      <trkpt lat="45.62667" lon="6.60028">
        <ele>1910</ele>
        <time>2022-07-27T08:52:16Z</time>
      </trkpt>
      <trkpt lat="45.62669" lon="6.60028">
        <ele>1910</ele>
        <time>2022-07-27T08:52:17Z</time>
      </trkpt>
      <trkpt lat="45.6267" lon="6.60028">
        <ele>1910</ele>
        <time>2022-07-27T08:52:18Z</time>
      </trkpt>
      <trkpt lat="45.62671" lon="6.60028">
        <ele>1910</ele>
        <time>2022-07-27T08:52:19Z</time>
      </trkpt>
      <trkpt lat="45.62672" lon="6.60028">
        <ele>1910</ele>
        <time>2022-07-27T08:52:20Z</time>
      </trkpt>
      <trkpt lat="45.62673" lon="6.60028">
        <ele>1910</ele>
        <time>2022-07-27T08:52:21Z</time>
      </trkpt>
      <trkpt lat="45.62674" lon="6.60029">
        <ele>1910</ele>
        <time>2022-07-27T08:52:22Z</time>
      </trkpt>
      <trkpt lat="45.62676" lon="6.60029">
        <ele>1910</ele>
        <time>2022-07-27T08:52:23Z</time>
      </trkpt>
      <trkpt lat="45.62677" lon="6.60029">
        <ele>1910</ele>
        <time>2022-07-27T08:52:24Z</time>
      </trkpt>
      <trkpt lat="45.62678" lon="6.60029">
        <ele>1910</ele>
        <time>2022-07-27T08:52:25Z</time>
      </trkpt>
      <trkpt lat="45.62679" lon="6.60029">
        <ele>1910</ele>
        <time>2022-07-27T08:52:26Z</time>
      </trkpt>
      <trkpt lat="45.6268" lon="6.60029">
        <ele>1910</ele>
        <time>2022-07-27T08:52:27Z</time>
      </trkpt>
      <trkpt lat="45.62681" lon="6.6003">
        <ele>1910</ele>
        <time>2022-07-27T08:52:28Z</time>
      </trkpt>
      <trkpt lat="45.62682" lon="6.6003">
        <ele>1910</ele>
        <time>2022-07-27T08:52:29Z</time>
      </trkpt>
      <trkpt lat="45.62684" lon="6.60031">
        <ele>1910</ele>
        <time>2022-07-27T08:52:30Z</time>
      </trkpt>
      <trkpt lat="45.62685" lon="6.60031">
        <ele>1910</ele>
        <time>2022-07-27T08:52:31Z</time>
      </trkpt>
      <trkpt lat="45.62686" lon="6.60031">
        <ele>1910</ele>
        <time>2022-07-27T08:52:32Z</time>
      </trkpt>
      <trkpt lat="45.62687" lon="6.60032">
        <ele>1910</ele>
        <time>2022-07-27T08:52:33Z</time>
      </trkpt>
      <trkpt lat="45.62688" lon="6.60032">
        <ele>1910</ele>
        <time>2022-07-27T08:52:34Z</time>
      </trkpt>
      <trkpt lat="45.62689" lon="6.60033">
        <ele>1910</ele>
        <time>2022-07-27T08:52:35Z</time>
      </trkpt>
      <trkpt lat="45.6269" lon="6.60033">
        <ele>1909</ele>
        <time>2022-07-27T08:52:36Z</time>
      </trkpt>
      <trkpt lat="45.62692" lon="6.60033">
        <ele>1909</ele>
        <time>2022-07-27T08:52:37Z</time>
      </trkpt>
      <trkpt lat="45.62693" lon="6.60034">
        <ele>1909</ele>
        <time>2022-07-27T08:52:38Z</time>
      </trkpt>
      <trkpt lat="45.62694" lon="6.60034">
        <ele>1909</ele>
        <time>2022-07-27T08:52:39Z</time>
      </trkpt>
      <trkpt lat="45.62695" lon="6.60035">
        <ele>1909</ele>
        <time>2022-07-27T08:52:40Z</time>
      </trkpt>
      <trkpt lat="45.62696" lon="6.60036">
        <ele>1909</ele>
        <time>2022-07-27T08:52:41Z</time>
      </trkpt>
      <trkpt lat="45.62697" lon="6.60036">
        <ele>1909</ele>
        <time>2022-07-27T08:52:42Z</time>
      </trkpt>
      <trkpt lat="45.62699" lon="6.60037">
        <ele>1909</ele>
        <time>2022-07-27T08:52:43Z</time>
      </trkpt>
      <trkpt lat="45.627" lon="6.60038">
        <ele>1909</ele>
        <time>2022-07-27T08:52:44Z</time>
      </trkpt>
      <trkpt lat="45.62701" lon="6.60039">
        <ele>1909</ele>
        <time>2022-07-27T08:52:45Z</time>
      </trkpt>
      <trkpt lat="45.62702" lon="6.6004">
        <ele>1909</ele>
        <time>2022-07-27T08:52:46Z</time>
      </trkpt>
      <trkpt lat="45.62703" lon="6.60041">
        <ele>1909</ele>
        <time>2022-07-27T08:52:47Z</time>
      </trkpt>
      <trkpt lat="45.62704" lon="6.60042">
        <ele>1909</ele>
        <time>2022-07-27T08:52:48Z</time>
      </trkpt>
      <trkpt lat="45.62705" lon="6.60043">
        <ele>1909</ele>
        <time>2022-07-27T08:52:49Z</time>
      </trkpt>
      <trkpt lat="45.62706" lon="6.60044">
        <ele>1909</ele>
        <time>2022-07-27T08:52:50Z</time>
      </trkpt>
      <trkpt lat="45.62707" lon="6.60045">
        <ele>1908</ele>
        <time>2022-07-27T08:52:51Z</time>
      </trkpt>
      <trkpt lat="45.62708" lon="6.60046">
        <ele>1908</ele>
        <time>2022-07-27T08:52:52Z</time>
      </trkpt>
      <trkpt lat="45.62709" lon="6.60047">
        <ele>1908</ele>
        <time>2022-07-27T08:52:53Z</time>
      </trkpt>
      <trkpt lat="45.62709" lon="6.60048">
        <ele>1908</ele>
        <time>2022-07-27T08:52:54Z</time>
      </trkpt>
      <trkpt lat="45.6271" lon="6.60049">
        <ele>1908</ele>
        <time>2022-07-27T08:52:55Z</time>
      </trkpt>
      <trkpt lat="45.62711" lon="6.60051">
        <ele>1907</ele>
        <time>2022-07-27T08:52:56Z</time>
      </trkpt>
      <trkpt lat="45.62712" lon="6.60052">
        <ele>1907</ele>
        <time>2022-07-27T08:52:57Z</time>
      </trkpt>
      <trkpt lat="45.62713" lon="6.60053">
        <ele>1907</ele>
        <time>2022-07-27T08:52:58Z</time>
      </trkpt>
      <trkpt lat="45.62714" lon="6.60054">
        <ele>1907</ele>
        <time>2022-07-27T08:52:59Z</time>
      </trkpt>
      <trkpt lat="45.62715" lon="6.60056">
        <ele>1907</ele>
        <time>2022-07-27T08:54:14Z</time>
      </trkpt>
      <trkpt lat="45.62716" lon="6.60057">
        <ele>1907</ele>
        <time>2022-07-27T08:54:15Z</time>
      </trkpt>
      <trkpt lat="45.62717" lon="6.60057">
        <ele>1906</ele>
        <time>2022-07-27T08:54:16Z</time>
      </trkpt>
      <trkpt lat="45.62717" lon="6.60057">
        <ele>1906</ele>
        <time>2022-07-27T08:54:17Z</time>
      </trkpt>
      <trkpt lat="45.62718" lon="6.60058">
        <ele>1906</ele>
        <time>2022-07-27T08:54:18Z</time>
      </trkpt>
      <trkpt lat="45.6272" lon="6.60058">
        <ele>1906</ele>
        <time>2022-07-27T08:54:24Z</time>
      </trkpt>
      <trkpt lat="45.6272" lon="6.60057">
        <ele>1906</ele>
        <time>2022-07-27T08:54:25Z</time>
      </trkpt>
      <trkpt lat="45.6272" lon="6.60056">
        <ele>1906</ele>
        <time>2022-07-27T08:54:26Z</time>
      </trkpt>
      <trkpt lat="45.6272" lon="6.60055">
        <ele>1906</ele>
        <time>2022-07-27T08:54:27Z</time>
      </trkpt>
      <trkpt lat="45.6272" lon="6.60054">
        <ele>1906</ele>
        <time>2022-07-27T08:54:28Z</time>
      </trkpt>
      <trkpt lat="45.6272" lon="6.60052">
        <ele>1906</ele>
        <time>2022-07-27T08:54:29Z</time>
      </trkpt>
      <trkpt lat="45.6272" lon="6.6005">
        <ele>1906</ele>
        <time>2022-07-27T08:54:30Z</time>
      </trkpt>
      <trkpt lat="45.6272" lon="6.60048">
        <ele>1905</ele>
        <time>2022-07-27T08:54:31Z</time>
      </trkpt>
      <trkpt lat="45.62719" lon="6.60046">
        <ele>1905</ele>
        <time>2022-07-27T08:54:32Z</time>
      </trkpt>
      <trkpt lat="45.62719" lon="6.60044">
        <ele>1905</ele>
        <time>2022-07-27T08:54:33Z</time>
      </trkpt>
      <trkpt lat="45.62719" lon="6.60042">
        <ele>1905</ele>
        <time>2022-07-27T08:54:34Z</time>
      </trkpt>
      <trkpt lat="45.62719" lon="6.6004">
        <ele>1905</ele>
        <time>2022-07-27T08:54:35Z</time>
      </trkpt>
      <trkpt lat="45.62719" lon="6.60038">
        <ele>1904</ele>
        <time>2022-07-27T08:54:36Z</time>
      </trkpt>
      <trkpt lat="45.62719" lon="6.60036">
        <ele>1904</ele>
        <time>2022-07-27T08:54:37Z</time>
      </trkpt>
      <trkpt lat="45.62719" lon="6.60034">
        <ele>1904</ele>
        <time>2022-07-27T08:54:38Z</time>
      </trkpt>
      <trkpt lat="45.62719" lon="6.60033">
        <ele>1904</ele>
        <time>2022-07-27T08:54:39Z</time>
      </trkpt>
      <trkpt lat="45.62719" lon="6.60031">
        <ele>1904</ele>
        <time>2022-07-27T08:54:40Z</time>
      </trkpt>
      <trkpt lat="45.62719" lon="6.6003">
        <ele>1903</ele>
        <time>2022-07-27T08:54:41Z</time>
      </trkpt>
      <trkpt lat="45.62719" lon="6.60029">
        <ele>1903</ele>
        <time>2022-07-27T08:54:42Z</time>
      </trkpt>
      <trkpt lat="45.62718" lon="6.60028">
        <ele>1903</ele>
        <time>2022-07-27T08:54:43Z</time>
      </trkpt>
      <trkpt lat="45.62718" lon="6.60027">
        <ele>1903</ele>
        <time>2022-07-27T08:54:44Z</time>
      </trkpt>
      <trkpt lat="45.62717" lon="6.60026">
        <ele>1903</ele>
        <time>2022-07-27T08:54:45Z</time>
      </trkpt>
      <trkpt lat="45.62716" lon="6.60024">
        <ele>1902</ele>
        <time>2022-07-27T08:54:46Z</time>
      </trkpt>
      <trkpt lat="45.62716" lon="6.60023">
        <ele>1902</ele>
        <time>2022-07-27T08:54:47Z</time>
      </trkpt>
      <trkpt lat="45.62715" lon="6.60022">
        <ele>1902</ele>
        <time>2022-07-27T08:54:48Z</time>
      </trkpt>
      <trkpt lat="45.62714" lon="6.60021">
        <ele>1902</ele>
        <time>2022-07-27T08:54:49Z</time>
      </trkpt>
      <trkpt lat="45.62713" lon="6.6002">
        <ele>1902</ele>
        <time>2022-07-27T08:54:50Z</time>
      </trkpt>
      <trkpt lat="45.62713" lon="6.60019">
        <ele>1902</ele>
        <time>2022-07-27T08:54:51Z</time>
      </trkpt>
      <trkpt lat="45.62712" lon="6.60017">
        <ele>1902</ele>
        <time>2022-07-27T08:54:52Z</time>
      </trkpt>
      <trkpt lat="45.62712" lon="6.60016">
        <ele>1902</ele>
        <time>2022-07-27T08:54:53Z</time>
      </trkpt>
      <trkpt lat="45.62712" lon="6.60015">
        <ele>1902</ele>
        <time>2022-07-27T08:54:54Z</time>
      </trkpt>
      <trkpt lat="45.62712" lon="6.60014">
        <ele>1902</ele>
        <time>2022-07-27T08:54:55Z</time>
      </trkpt>
      <trkpt lat="45.62712" lon="6.60013">
        <ele>1902</ele>
        <time>2022-07-27T08:54:56Z</time>
      </trkpt>
      <trkpt lat="45.62712" lon="6.60011">
        <ele>1902</ele>
        <time>2022-07-27T08:54:57Z</time>
      </trkpt>
      <trkpt lat="45.62713" lon="6.6001">
        <ele>1902</ele>
        <time>2022-07-27T08:54:58Z</time>
      </trkpt>
      <trkpt lat="45.62713" lon="6.60008">
        <ele>1902</ele>
        <time>2022-07-27T08:54:59Z</time>
      </trkpt>
      <trkpt lat="45.62713" lon="6.60007">
        <ele>1902</ele>
        <time>2022-07-27T08:55:00Z</time>
      </trkpt>
      <trkpt lat="45.62713" lon="6.60005">
        <ele>1901</ele>
        <time>2022-07-27T08:55:01Z</time>
      </trkpt>
      <trkpt lat="45.62714" lon="6.60004">
        <ele>1900</ele>
        <time>2022-07-27T08:55:02Z</time>
      </trkpt>
      <trkpt lat="45.62714" lon="6.60003">
        <ele>1900</ele>
        <time>2022-07-27T08:55:03Z</time>
      </trkpt>
      <trkpt lat="45.62715" lon="6.60002">
        <ele>1899</ele>
        <time>2022-07-27T08:55:04Z</time>
      </trkpt>
      <trkpt lat="45.62715" lon="6.60001">
        <ele>1899</ele>
        <time>2022-07-27T08:55:05Z</time>
      </trkpt>
      <trkpt lat="45.62715" lon="6.6">
        <ele>1898</ele>
        <time>2022-07-27T08:55:06Z</time>
      </trkpt>
      <trkpt lat="45.62716" lon="6.59998">
        <ele>1898</ele>
        <time>2022-07-27T08:55:07Z</time>
      </trkpt>
      <trkpt lat="45.62716" lon="6.59997">
        <ele>1898</ele>
        <time>2022-07-27T08:55:08Z</time>
      </trkpt>
      <trkpt lat="45.62716" lon="6.59995">
        <ele>1898</ele>
        <time>2022-07-27T08:55:09Z</time>
      </trkpt>
      <trkpt lat="45.62716" lon="6.59994">
        <ele>1898</ele>
        <time>2022-07-27T08:55:10Z</time>
      </trkpt>
      <trkpt lat="45.62717" lon="6.59992">
        <ele>1897</ele>
        <time>2022-07-27T08:55:11Z</time>
      </trkpt>
      <trkpt lat="45.62717" lon="6.5999">
        <ele>1897</ele>
        <time>2022-07-27T08:55:12Z</time>
      </trkpt>
      <trkpt lat="45.62717" lon="6.59989">
        <ele>1896</ele>
        <time>2022-07-27T08:55:13Z</time>
      </trkpt>
      <trkpt lat="45.62717" lon="6.59988">
        <ele>1896</ele>
        <time>2022-07-27T08:55:14Z</time>
      </trkpt>
      <trkpt lat="45.62717" lon="6.59987">
        <ele>1896</ele>
        <time>2022-07-27T08:55:15Z</time>
      </trkpt>
      <trkpt lat="45.62717" lon="6.59986">
        <ele>1895</ele>
        <time>2022-07-27T08:55:16Z</time>
      </trkpt>
      <trkpt lat="45.62717" lon="6.59985">
        <ele>1895</ele>
        <time>2022-07-27T08:55:17Z</time>
      </trkpt>
      <trkpt lat="45.62716" lon="6.59985">
        <ele>1895</ele>
        <time>2022-07-27T08:55:18Z</time>
      </trkpt>
      <trkpt lat="45.62716" lon="6.59984">
        <ele>1895</ele>
        <time>2022-07-27T08:55:19Z</time>
      </trkpt>
      <trkpt lat="45.62715" lon="6.59983">
        <ele>1895</ele>
        <time>2022-07-27T08:55:20Z</time>
      </trkpt>
      <trkpt lat="45.62715" lon="6.59982">
        <ele>1894</ele>
        <time>2022-07-27T08:55:21Z</time>
      </trkpt>
      <trkpt lat="45.62714" lon="6.59981">
        <ele>1894</ele>
        <time>2022-07-27T08:55:22Z</time>
      </trkpt>
      <trkpt lat="45.62714" lon="6.5998">
        <ele>1893</ele>
        <time>2022-07-27T08:55:23Z</time>
      </trkpt>
      <trkpt lat="45.62714" lon="6.59979">
        <ele>1893</ele>
        <time>2022-07-27T08:55:24Z</time>
      </trkpt>
      <trkpt lat="45.62713" lon="6.59978">
        <ele>1893</ele>
        <time>2022-07-27T08:55:25Z</time>
      </trkpt>
      <trkpt lat="45.62713" lon="6.59976">
        <ele>1892</ele>
        <time>2022-07-27T08:55:26Z</time>
      </trkpt>
      <trkpt lat="45.62713" lon="6.59975">
        <ele>1892</ele>
        <time>2022-07-27T08:55:27Z</time>
      </trkpt>
      <trkpt lat="45.62712" lon="6.59974">
        <ele>1892</ele>
        <time>2022-07-27T08:55:28Z</time>
      </trkpt>
      <trkpt lat="45.62712" lon="6.59973">
        <ele>1892</ele>
        <time>2022-07-27T08:55:29Z</time>
      </trkpt>
      <trkpt lat="45.62711" lon="6.59971">
        <ele>1892</ele>
        <time>2022-07-27T08:55:30Z</time>
      </trkpt>
      <trkpt lat="45.6271" lon="6.5997">
        <ele>1891</ele>
        <time>2022-07-27T08:55:31Z</time>
      </trkpt>
      <trkpt lat="45.6271" lon="6.59969">
        <ele>1891</ele>
        <time>2022-07-27T08:55:32Z</time>
      </trkpt>
      <trkpt lat="45.62709" lon="6.59968">
        <ele>1890</ele>
        <time>2022-07-27T08:55:33Z</time>
      </trkpt>
      <trkpt lat="45.62708" lon="6.59967">
        <ele>1890</ele>
        <time>2022-07-27T08:55:34Z</time>
      </trkpt>
      <trkpt lat="45.62708" lon="6.59966">
        <ele>1890</ele>
        <time>2022-07-27T08:55:35Z</time>
      </trkpt>
      <trkpt lat="45.62707" lon="6.59964">
        <ele>1889</ele>
        <time>2022-07-27T08:55:36Z</time>
      </trkpt>
      <trkpt lat="45.62706" lon="6.59963">
        <ele>1889</ele>
        <time>2022-07-27T08:55:37Z</time>
      </trkpt>
      <trkpt lat="45.62705" lon="6.59962">
        <ele>1889</ele>
        <time>2022-07-27T08:55:38Z</time>
      </trkpt>
      <trkpt lat="45.62705" lon="6.59961">
        <ele>1889</ele>
        <time>2022-07-27T08:55:39Z</time>
      </trkpt>
      <trkpt lat="45.62704" lon="6.59959">
        <ele>1889</ele>
        <time>2022-07-27T08:55:40Z</time>
      </trkpt>
      <trkpt lat="45.62703" lon="6.59958">
        <ele>1888</ele>
        <time>2022-07-27T08:55:41Z</time>
      </trkpt>
      <trkpt lat="45.62703" lon="6.59956">
        <ele>1888</ele>
        <time>2022-07-27T08:55:42Z</time>
      </trkpt>
      <trkpt lat="45.62702" lon="6.59955">
        <ele>1887</ele>
        <time>2022-07-27T08:55:43Z</time>
      </trkpt>
      <trkpt lat="45.62701" lon="6.59954">
        <ele>1887</ele>
        <time>2022-07-27T08:55:44Z</time>
      </trkpt>
      <trkpt lat="45.627" lon="6.59953">
        <ele>1887</ele>
        <time>2022-07-27T08:55:45Z</time>
      </trkpt>
      <trkpt lat="45.627" lon="6.59952">
        <ele>1886</ele>
        <time>2022-07-27T08:55:46Z</time>
      </trkpt>
      <trkpt lat="45.62699" lon="6.59951">
        <ele>1886</ele>
        <time>2022-07-27T08:55:47Z</time>
      </trkpt>
      <trkpt lat="45.62698" lon="6.5995">
        <ele>1886</ele>
        <time>2022-07-27T08:55:48Z</time>
      </trkpt>
      <trkpt lat="45.62696" lon="6.59949">
        <ele>1886</ele>
        <time>2022-07-27T08:55:49Z</time>
      </trkpt>
      <trkpt lat="45.62695" lon="6.59948">
        <ele>1886</ele>
        <time>2022-07-27T08:55:50Z</time>
      </trkpt>
      <trkpt lat="45.62694" lon="6.59947">
        <ele>1885</ele>
        <time>2022-07-27T08:55:51Z</time>
      </trkpt>
      <trkpt lat="45.62693" lon="6.59946">
        <ele>1885</ele>
        <time>2022-07-27T08:55:52Z</time>
      </trkpt>
      <trkpt lat="45.62692" lon="6.59946">
        <ele>1885</ele>
        <time>2022-07-27T08:55:53Z</time>
      </trkpt>
      <trkpt lat="45.62691" lon="6.59945">
        <ele>1885</ele>
        <time>2022-07-27T08:55:54Z</time>
      </trkpt>
      <trkpt lat="45.6269" lon="6.59945">
        <ele>1885</ele>
        <time>2022-07-27T08:55:55Z</time>
      </trkpt>
      <trkpt lat="45.62689" lon="6.59944">
        <ele>1884</ele>
        <time>2022-07-27T08:55:56Z</time>
      </trkpt>
      <trkpt lat="45.62688" lon="6.59944">
        <ele>1884</ele>
        <time>2022-07-27T08:55:57Z</time>
      </trkpt>
      <trkpt lat="45.62687" lon="6.59943">
        <ele>1884</ele>
        <time>2022-07-27T08:55:58Z</time>
      </trkpt>
      <trkpt lat="45.62686" lon="6.59943">
        <ele>1884</ele>
        <time>2022-07-27T08:55:59Z</time>
      </trkpt>
      <trkpt lat="45.62685" lon="6.59943">
        <ele>1884</ele>
        <time>2022-07-27T08:56:00Z</time>
      </trkpt>
      <trkpt lat="45.62684" lon="6.59942">
        <ele>1883</ele>
        <time>2022-07-27T08:56:01Z</time>
      </trkpt>
      <trkpt lat="45.62682" lon="6.59942">
        <ele>1883</ele>
        <time>2022-07-27T08:56:02Z</time>
      </trkpt>
      <trkpt lat="45.62681" lon="6.59941">
        <ele>1883</ele>
        <time>2022-07-27T08:56:03Z</time>
      </trkpt>
      <trkpt lat="45.6268" lon="6.5994">
        <ele>1883</ele>
        <time>2022-07-27T08:56:04Z</time>
      </trkpt>
      <trkpt lat="45.62679" lon="6.59939">
        <ele>1883</ele>
        <time>2022-07-27T08:56:05Z</time>
      </trkpt>
      <trkpt lat="45.62678" lon="6.59938">
        <ele>1882</ele>
        <time>2022-07-27T08:56:06Z</time>
      </trkpt>
      <trkpt lat="45.62677" lon="6.59937">
        <ele>1882</ele>
        <time>2022-07-27T08:56:07Z</time>
      </trkpt>
      <trkpt lat="45.62677" lon="6.59936">
        <ele>1882</ele>
        <time>2022-07-27T08:56:08Z</time>
      </trkpt>
      <trkpt lat="45.62676" lon="6.59936">
        <ele>1882</ele>
        <time>2022-07-27T08:56:09Z</time>
      </trkpt>
      <trkpt lat="45.62675" lon="6.59935">
        <ele>1882</ele>
        <time>2022-07-27T08:56:10Z</time>
      </trkpt>
      <trkpt lat="45.62674" lon="6.59934">
        <ele>1881</ele>
        <time>2022-07-27T08:56:11Z</time>
      </trkpt>
      <trkpt lat="45.62673" lon="6.59934">
        <ele>1881</ele>
        <time>2022-07-27T08:56:12Z</time>
      </trkpt>
      <trkpt lat="45.62672" lon="6.59933">
        <ele>1881</ele>
        <time>2022-07-27T08:56:13Z</time>
      </trkpt>
      <trkpt lat="45.62671" lon="6.59932">
        <ele>1881</ele>
        <time>2022-07-27T08:56:14Z</time>
      </trkpt>
      <trkpt lat="45.62671" lon="6.5993">
        <ele>1881</ele>
        <time>2022-07-27T08:56:15Z</time>
      </trkpt>
      <trkpt lat="45.62671" lon="6.59929">
        <ele>1880</ele>
        <time>2022-07-27T08:56:16Z</time>
      </trkpt>
      <trkpt lat="45.62671" lon="6.59928">
        <ele>1880</ele>
        <time>2022-07-27T08:56:17Z</time>
      </trkpt>
      <trkpt lat="45.62672" lon="6.59926">
        <ele>1880</ele>
        <time>2022-07-27T08:56:18Z</time>
      </trkpt>
      <trkpt lat="45.62672" lon="6.59925">
        <ele>1880</ele>
        <time>2022-07-27T08:56:19Z</time>
      </trkpt>
      <trkpt lat="45.62673" lon="6.59924">
        <ele>1880</ele>
        <time>2022-07-27T08:56:20Z</time>
      </trkpt>
      <trkpt lat="45.62674" lon="6.59923">
        <ele>1879</ele>
        <time>2022-07-27T08:56:21Z</time>
      </trkpt>
      <trkpt lat="45.62674" lon="6.59922">
        <ele>1879</ele>
        <time>2022-07-27T08:56:22Z</time>
      </trkpt>
      <trkpt lat="45.62675" lon="6.59921">
        <ele>1879</ele>
        <time>2022-07-27T08:56:23Z</time>
      </trkpt>
      <trkpt lat="45.62676" lon="6.5992">
        <ele>1879</ele>
        <time>2022-07-27T08:56:24Z</time>
      </trkpt>
      <trkpt lat="45.62677" lon="6.5992">
        <ele>1879</ele>
        <time>2022-07-27T08:56:25Z</time>
      </trkpt>
      <trkpt lat="45.62678" lon="6.59919">
        <ele>1878</ele>
        <time>2022-07-27T08:56:26Z</time>
      </trkpt>
      <trkpt lat="45.62679" lon="6.59918">
        <ele>1878</ele>
        <time>2022-07-27T08:56:27Z</time>
      </trkpt>
      <trkpt lat="45.6268" lon="6.59917">
        <ele>1878</ele>
        <time>2022-07-27T08:56:28Z</time>
      </trkpt>
      <trkpt lat="45.62681" lon="6.59916">
        <ele>1878</ele>
        <time>2022-07-27T08:56:29Z</time>
      </trkpt>
      <trkpt lat="45.62682" lon="6.59915">
        <ele>1878</ele>
        <time>2022-07-27T08:56:30Z</time>
      </trkpt>
      <trkpt lat="45.62683" lon="6.59915">
        <ele>1877</ele>
        <time>2022-07-27T08:56:31Z</time>
      </trkpt>
      <trkpt lat="45.62684" lon="6.59914">
        <ele>1877</ele>
        <time>2022-07-27T08:56:32Z</time>
      </trkpt>
      <trkpt lat="45.62685" lon="6.59913">
        <ele>1877</ele>
        <time>2022-07-27T08:56:33Z</time>
      </trkpt>
      <trkpt lat="45.62686" lon="6.59913">
        <ele>1877</ele>
        <time>2022-07-27T08:56:34Z</time>
      </trkpt>
      <trkpt lat="45.62686" lon="6.59912">
        <ele>1877</ele>
        <time>2022-07-27T08:56:35Z</time>
      </trkpt>
      <trkpt lat="45.62687" lon="6.5991">
        <ele>1876</ele>
        <time>2022-07-27T08:56:36Z</time>
      </trkpt>
      <trkpt lat="45.62687" lon="6.59909">
        <ele>1876</ele>
        <time>2022-07-27T08:56:37Z</time>
      </trkpt>
      <trkpt lat="45.62686" lon="6.59908">
        <ele>1876</ele>
        <time>2022-07-27T08:56:38Z</time>
      </trkpt>
      <trkpt lat="45.62686" lon="6.59907">
        <ele>1876</ele>
        <time>2022-07-27T08:56:39Z</time>
      </trkpt>
      <trkpt lat="45.62686" lon="6.59906">
        <ele>1876</ele>
        <time>2022-07-27T08:56:40Z</time>
      </trkpt>
      <trkpt lat="45.62685" lon="6.59904">
        <ele>1875</ele>
        <time>2022-07-27T08:56:41Z</time>
      </trkpt>
      <trkpt lat="45.62685" lon="6.59903">
        <ele>1875</ele>
        <time>2022-07-27T08:56:42Z</time>
      </trkpt>
      <trkpt lat="45.62685" lon="6.59902">
        <ele>1875</ele>
        <time>2022-07-27T08:56:43Z</time>
      </trkpt>
      <trkpt lat="45.62685" lon="6.59901">
        <ele>1875</ele>
        <time>2022-07-27T08:56:44Z</time>
      </trkpt>
      <trkpt lat="45.62685" lon="6.59899">
        <ele>1875</ele>
        <time>2022-07-27T08:56:45Z</time>
      </trkpt>
      <trkpt lat="45.62686" lon="6.59898">
        <ele>1874</ele>
        <time>2022-07-27T08:56:46Z</time>
      </trkpt>
      <trkpt lat="45.62686" lon="6.59896">
        <ele>1874</ele>
        <time>2022-07-27T08:56:47Z</time>
      </trkpt>
      <trkpt lat="45.62687" lon="6.59895">
        <ele>1873</ele>
        <time>2022-07-27T08:56:48Z</time>
      </trkpt>
      <trkpt lat="45.62687" lon="6.59893">
        <ele>1873</ele>
        <time>2022-07-27T08:56:49Z</time>
      </trkpt>
      <trkpt lat="45.62687" lon="6.59891">
        <ele>1873</ele>
        <time>2022-07-27T08:56:50Z</time>
      </trkpt>
      <trkpt lat="45.62688" lon="6.5989">
        <ele>1872</ele>
        <time>2022-07-27T08:56:51Z</time>
      </trkpt>
      <trkpt lat="45.62688" lon="6.59888">
        <ele>1872</ele>
        <time>2022-07-27T08:56:52Z</time>
      </trkpt>
      <trkpt lat="45.62688" lon="6.59887">
        <ele>1871</ele>
        <time>2022-07-27T08:56:53Z</time>
      </trkpt>
      <trkpt lat="45.62688" lon="6.59885">
        <ele>1871</ele>
        <time>2022-07-27T08:56:54Z</time>
      </trkpt>
      <trkpt lat="45.62689" lon="6.59884">
        <ele>1871</ele>
        <time>2022-07-27T08:56:55Z</time>
      </trkpt>
      <trkpt lat="45.62689" lon="6.59882">
        <ele>1870</ele>
        <time>2022-07-27T08:56:56Z</time>
      </trkpt>
      <trkpt lat="45.62689" lon="6.59881">
        <ele>1870</ele>
        <time>2022-07-27T08:56:57Z</time>
      </trkpt>
      <trkpt lat="45.62689" lon="6.5988">
        <ele>1869</ele>
        <time>2022-07-27T08:56:58Z</time>
      </trkpt>
      <trkpt lat="45.6269" lon="6.59879">
        <ele>1869</ele>
        <time>2022-07-27T08:56:59Z</time>
      </trkpt>
      <trkpt lat="45.6269" lon="6.59878">
        <ele>1869</ele>
        <time>2022-07-27T08:57:00Z</time>
      </trkpt>
      <trkpt lat="45.62691" lon="6.59877">
        <ele>1868</ele>
        <time>2022-07-27T08:57:01Z</time>
      </trkpt>
      <trkpt lat="45.62691" lon="6.59876">
        <ele>1868</ele>
        <time>2022-07-27T08:57:02Z</time>
      </trkpt>
      <trkpt lat="45.62692" lon="6.59875">
        <ele>1867</ele>
        <time>2022-07-27T08:57:03Z</time>
      </trkpt>
      <trkpt lat="45.62693" lon="6.59875">
        <ele>1867</ele>
        <time>2022-07-27T08:57:04Z</time>
      </trkpt>
      <trkpt lat="45.62693" lon="6.59874">
        <ele>1867</ele>
        <time>2022-07-27T08:57:05Z</time>
      </trkpt>
      <trkpt lat="45.62694" lon="6.59873">
        <ele>1866</ele>
        <time>2022-07-27T08:57:06Z</time>
      </trkpt>
      <trkpt lat="45.62695" lon="6.59872">
        <ele>1866</ele>
        <time>2022-07-27T08:57:07Z</time>
      </trkpt>
      <trkpt lat="45.62696" lon="6.59871">
        <ele>1865</ele>
        <time>2022-07-27T08:57:08Z</time>
      </trkpt>
      <trkpt lat="45.62697" lon="6.5987">
        <ele>1865</ele>
        <time>2022-07-27T08:57:09Z</time>
      </trkpt>
      <trkpt lat="45.62698" lon="6.59869">
        <ele>1865</ele>
        <time>2022-07-27T08:57:10Z</time>
      </trkpt>
      <trkpt lat="45.62699" lon="6.59869">
        <ele>1864</ele>
        <time>2022-07-27T08:57:11Z</time>
      </trkpt>
      <trkpt lat="45.62699" lon="6.59868">
        <ele>1864</ele>
        <time>2022-07-27T08:57:12Z</time>
      </trkpt>
      <trkpt lat="45.627" lon="6.59867">
        <ele>1864</ele>
        <time>2022-07-27T08:57:13Z</time>
      </trkpt>
      <trkpt lat="45.62701" lon="6.59867">
        <ele>1864</ele>
        <time>2022-07-27T08:57:14Z</time>
      </trkpt>
      <trkpt lat="45.62701" lon="6.59866">
        <ele>1864</ele>
        <time>2022-07-27T08:57:15Z</time>
      </trkpt>
      <trkpt lat="45.62701" lon="6.59865">
        <ele>1863</ele>
        <time>2022-07-27T08:57:16Z</time>
      </trkpt>
      <trkpt lat="45.62701" lon="6.59863">
        <ele>1862</ele>
        <time>2022-07-27T08:57:23Z</time>
      </trkpt>
      <trkpt lat="45.62701" lon="6.59862">
        <ele>1862</ele>
        <time>2022-07-27T08:57:24Z</time>
      </trkpt>
      <trkpt lat="45.627" lon="6.59861">
        <ele>1862</ele>
        <time>2022-07-27T08:57:25Z</time>
      </trkpt>
      <trkpt lat="45.627" lon="6.5986">
        <ele>1861</ele>
        <time>2022-07-27T08:57:26Z</time>
      </trkpt>
      <trkpt lat="45.627" lon="6.59859">
        <ele>1861</ele>
        <time>2022-07-27T08:57:27Z</time>
      </trkpt>
      <trkpt lat="45.627" lon="6.59858">
        <ele>1861</ele>
        <time>2022-07-27T08:57:28Z</time>
      </trkpt>
      <trkpt lat="45.627" lon="6.59856">
        <ele>1861</ele>
        <time>2022-07-27T08:57:29Z</time>
      </trkpt>
      <trkpt lat="45.627" lon="6.59855">
        <ele>1861</ele>
        <time>2022-07-27T08:57:30Z</time>
      </trkpt>
      <trkpt lat="45.62701" lon="6.59853">
        <ele>1860</ele>
        <time>2022-07-27T08:57:31Z</time>
      </trkpt>
      <trkpt lat="45.62701" lon="6.59851">
        <ele>1860</ele>
        <time>2022-07-27T08:57:32Z</time>
      </trkpt>
      <trkpt lat="45.62702" lon="6.59849">
        <ele>1859</ele>
        <time>2022-07-27T08:57:33Z</time>
      </trkpt>
      <trkpt lat="45.62702" lon="6.59847">
        <ele>1859</ele>
        <time>2022-07-27T08:57:34Z</time>
      </trkpt>
      <trkpt lat="45.62703" lon="6.59846">
        <ele>1859</ele>
        <time>2022-07-27T08:57:35Z</time>
      </trkpt>
      <trkpt lat="45.62704" lon="6.59844">
        <ele>1858</ele>
        <time>2022-07-27T08:57:36Z</time>
      </trkpt>
      <trkpt lat="45.62704" lon="6.59842">
        <ele>1858</ele>
        <time>2022-07-27T08:57:37Z</time>
      </trkpt>
      <trkpt lat="45.62704" lon="6.59841">
        <ele>1858</ele>
        <time>2022-07-27T08:57:38Z</time>
      </trkpt>
      <trkpt lat="45.62705" lon="6.59839">
        <ele>1858</ele>
        <time>2022-07-27T08:57:39Z</time>
      </trkpt>
      <trkpt lat="45.62705" lon="6.59838">
        <ele>1858</ele>
        <time>2022-07-27T08:57:40Z</time>
      </trkpt>
      <trkpt lat="45.62705" lon="6.59837">
        <ele>1857</ele>
        <time>2022-07-27T08:57:41Z</time>
      </trkpt>
      <trkpt lat="45.62705" lon="6.59835">
        <ele>1857</ele>
        <time>2022-07-27T08:57:42Z</time>
      </trkpt>
      <trkpt lat="45.62706" lon="6.59834">
        <ele>1857</ele>
        <time>2022-07-27T08:57:43Z</time>
      </trkpt>
      <trkpt lat="45.62706" lon="6.59833">
        <ele>1857</ele>
        <time>2022-07-27T08:57:44Z</time>
      </trkpt>
      <trkpt lat="45.62706" lon="6.59831">
        <ele>1857</ele>
        <time>2022-07-27T08:57:45Z</time>
      </trkpt>
      <trkpt lat="45.62706" lon="6.59829">
        <ele>1856</ele>
        <time>2022-07-27T08:57:46Z</time>
      </trkpt>
      <trkpt lat="45.62706" lon="6.59828">
        <ele>1856</ele>
        <time>2022-07-27T08:57:47Z</time>
      </trkpt>
      <trkpt lat="45.62706" lon="6.59826">
        <ele>1856</ele>
        <time>2022-07-27T08:57:48Z</time>
      </trkpt>
      <trkpt lat="45.62707" lon="6.59824">
        <ele>1856</ele>
        <time>2022-07-27T08:57:49Z</time>
      </trkpt>
      <trkpt lat="45.62707" lon="6.59822">
        <ele>1856</ele>
        <time>2022-07-27T08:57:50Z</time>
      </trkpt>
      <trkpt lat="45.62707" lon="6.5982">
        <ele>1855</ele>
        <time>2022-07-27T08:57:51Z</time>
      </trkpt>
      <trkpt lat="45.62706" lon="6.59818">
        <ele>1855</ele>
        <time>2022-07-27T08:57:52Z</time>
      </trkpt>
      <trkpt lat="45.62706" lon="6.59816">
        <ele>1854</ele>
        <time>2022-07-27T08:57:53Z</time>
      </trkpt>
      <trkpt lat="45.62706" lon="6.59814">
        <ele>1854</ele>
        <time>2022-07-27T08:57:54Z</time>
      </trkpt>
      <trkpt lat="45.62706" lon="6.59812">
        <ele>1854</ele>
        <time>2022-07-27T08:57:55Z</time>
      </trkpt>
      <trkpt lat="45.62706" lon="6.59811">
        <ele>1853</ele>
        <time>2022-07-27T08:57:56Z</time>
      </trkpt>
      <trkpt lat="45.62706" lon="6.59809">
        <ele>1853</ele>
        <time>2022-07-27T08:57:57Z</time>
      </trkpt>
      <trkpt lat="45.62707" lon="6.59808">
        <ele>1853</ele>
        <time>2022-07-27T08:57:58Z</time>
      </trkpt>
      <trkpt lat="45.62708" lon="6.59806">
        <ele>1853</ele>
        <time>2022-07-27T08:57:59Z</time>
      </trkpt>
      <trkpt lat="45.62708" lon="6.59805">
        <ele>1853</ele>
        <time>2022-07-27T08:58:00Z</time>
      </trkpt>
      <trkpt lat="45.62709" lon="6.59804">
        <ele>1852</ele>
        <time>2022-07-27T08:58:01Z</time>
      </trkpt>
      <trkpt lat="45.62711" lon="6.59803">
        <ele>1852</ele>
        <time>2022-07-27T08:58:02Z</time>
      </trkpt>
      <trkpt lat="45.62712" lon="6.59803">
        <ele>1852</ele>
        <time>2022-07-27T08:58:03Z</time>
      </trkpt>
      <trkpt lat="45.62713" lon="6.59802">
        <ele>1852</ele>
        <time>2022-07-27T08:58:04Z</time>
      </trkpt>
      <trkpt lat="45.62714" lon="6.59802">
        <ele>1852</ele>
        <time>2022-07-27T08:58:05Z</time>
      </trkpt>
      <trkpt lat="45.62715" lon="6.59802">
        <ele>1851</ele>
        <time>2022-07-27T08:58:06Z</time>
      </trkpt>
      <trkpt lat="45.62715" lon="6.59802">
        <ele>1851</ele>
        <time>2022-07-27T08:58:07Z</time>
      </trkpt>
      <trkpt lat="45.62716" lon="6.59802">
        <ele>1851</ele>
        <time>2022-07-27T08:58:08Z</time>
      </trkpt>
      <trkpt lat="45.62717" lon="6.59802">
        <ele>1851</ele>
        <time>2022-07-27T08:58:09Z</time>
      </trkpt>
      <trkpt lat="45.62717" lon="6.59802">
        <ele>1851</ele>
        <time>2022-07-27T08:58:10Z</time>
      </trkpt>
      <trkpt lat="45.62718" lon="6.59802">
        <ele>1850</ele>
        <time>2022-07-27T08:58:11Z</time>
      </trkpt>
      <trkpt lat="45.62719" lon="6.59803">
        <ele>1850</ele>
        <time>2022-07-27T08:58:12Z</time>
      </trkpt>
      <trkpt lat="45.6272" lon="6.59803">
        <ele>1850</ele>
        <time>2022-07-27T08:58:13Z</time>
      </trkpt>
      <trkpt lat="45.62721" lon="6.59804">
        <ele>1850</ele>
        <time>2022-07-27T08:58:14Z</time>
      </trkpt>
      <trkpt lat="45.62722" lon="6.59804">
        <ele>1850</ele>
        <time>2022-07-27T08:58:15Z</time>
      </trkpt>
      <trkpt lat="45.62723" lon="6.59805">
        <ele>1849</ele>
        <time>2022-07-27T08:58:16Z</time>
      </trkpt>
      <trkpt lat="45.62724" lon="6.59805">
        <ele>1849</ele>
        <time>2022-07-27T08:58:17Z</time>
      </trkpt>
      <trkpt lat="45.62725" lon="6.59805">
        <ele>1849</ele>
        <time>2022-07-27T08:58:18Z</time>
      </trkpt>
      <trkpt lat="45.62726" lon="6.59805">
        <ele>1849</ele>
        <time>2022-07-27T08:58:19Z</time>
      </trkpt>
      <trkpt lat="45.62727" lon="6.59804">
        <ele>1849</ele>
        <time>2022-07-27T08:59:02Z</time>
      </trkpt>
      <trkpt lat="45.62728" lon="6.59803">
        <ele>1849</ele>
        <time>2022-07-27T08:59:03Z</time>
      </trkpt>
      <trkpt lat="45.62728" lon="6.59803">
        <ele>1849</ele>
        <time>2022-07-27T08:59:04Z</time>
      </trkpt>
      <trkpt lat="45.62729" lon="6.59802">
        <ele>1849</ele>
        <time>2022-07-27T08:59:05Z</time>
      </trkpt>
      <trkpt lat="45.62729" lon="6.59801">
        <ele>1848</ele>
        <time>2022-07-27T08:59:06Z</time>
      </trkpt>
      <trkpt lat="45.6273" lon="6.598">
        <ele>1848</ele>
        <time>2022-07-27T08:59:07Z</time>
      </trkpt>
      <trkpt lat="45.6273" lon="6.59798">
        <ele>1848</ele>
        <time>2022-07-27T08:59:08Z</time>
      </trkpt>
      <trkpt lat="45.62731" lon="6.59797">
        <ele>1848</ele>
        <time>2022-07-27T08:59:09Z</time>
      </trkpt>
      <trkpt lat="45.62731" lon="6.59796">
        <ele>1848</ele>
        <time>2022-07-27T08:59:10Z</time>
      </trkpt>
      <trkpt lat="45.62732" lon="6.59795">
        <ele>1848</ele>
        <time>2022-07-27T08:59:11Z</time>
      </trkpt>
      <trkpt lat="45.62732" lon="6.59793">
        <ele>1848</ele>
        <time>2022-07-27T08:59:12Z</time>
      </trkpt>
      <trkpt lat="45.62732" lon="6.59792">
        <ele>1848</ele>
        <time>2022-07-27T08:59:13Z</time>
      </trkpt>
      <trkpt lat="45.62733" lon="6.59791">
        <ele>1848</ele>
        <time>2022-07-27T08:59:14Z</time>
      </trkpt>
      <trkpt lat="45.62732" lon="6.59789">
        <ele>1848</ele>
        <time>2022-07-27T08:59:15Z</time>
      </trkpt>
      <trkpt lat="45.62732" lon="6.59788">
        <ele>1848</ele>
        <time>2022-07-27T08:59:16Z</time>
      </trkpt>
      <trkpt lat="45.62732" lon="6.59787">
        <ele>1848</ele>
        <time>2022-07-27T08:59:17Z</time>
      </trkpt>
      <trkpt lat="45.62732" lon="6.59786">
        <ele>1848</ele>
        <time>2022-07-27T08:59:18Z</time>
      </trkpt>
      <trkpt lat="45.62731" lon="6.59785">
        <ele>1848</ele>
        <time>2022-07-27T08:59:19Z</time>
      </trkpt>
      <trkpt lat="45.62731" lon="6.59784">
        <ele>1848</ele>
        <time>2022-07-27T08:59:20Z</time>
      </trkpt>
      <trkpt lat="45.6273" lon="6.59783">
        <ele>1848</ele>
        <time>2022-07-27T08:59:21Z</time>
      </trkpt>
      <trkpt lat="45.6273" lon="6.59782">
        <ele>1848</ele>
        <time>2022-07-27T08:59:22Z</time>
      </trkpt>
      <trkpt lat="45.6273" lon="6.59781">
        <ele>1848</ele>
        <time>2022-07-27T08:59:23Z</time>
      </trkpt>
      <trkpt lat="45.62729" lon="6.5978">
        <ele>1848</ele>
        <time>2022-07-27T08:59:24Z</time>
      </trkpt>
      <trkpt lat="45.62729" lon="6.59779">
        <ele>1848</ele>
        <time>2022-07-27T08:59:25Z</time>
      </trkpt>
      <trkpt lat="45.62728" lon="6.59778">
        <ele>1847</ele>
        <time>2022-07-27T08:59:26Z</time>
      </trkpt>
      <trkpt lat="45.62728" lon="6.59776">
        <ele>1847</ele>
        <time>2022-07-27T08:59:27Z</time>
      </trkpt>
      <trkpt lat="45.62728" lon="6.59775">
        <ele>1847</ele>
        <time>2022-07-27T08:59:28Z</time>
      </trkpt>
      <trkpt lat="45.62728" lon="6.59774">
        <ele>1847</ele>
        <time>2022-07-27T08:59:29Z</time>
      </trkpt>
      <trkpt lat="45.62728" lon="6.59773">
        <ele>1847</ele>
        <time>2022-07-27T08:59:30Z</time>
      </trkpt>
      <trkpt lat="45.62728" lon="6.59771">
        <ele>1847</ele>
        <time>2022-07-27T08:59:31Z</time>
      </trkpt>
      <trkpt lat="45.62728" lon="6.5977">
        <ele>1847</ele>
        <time>2022-07-27T08:59:32Z</time>
      </trkpt>
      <trkpt lat="45.62728" lon="6.59768">
        <ele>1847</ele>
        <time>2022-07-27T08:59:33Z</time>
      </trkpt>
      <trkpt lat="45.62728" lon="6.59766">
        <ele>1847</ele>
        <time>2022-07-27T08:59:34Z</time>
      </trkpt>
      <trkpt lat="45.62728" lon="6.59765">
        <ele>1847</ele>
        <time>2022-07-27T08:59:35Z</time>
      </trkpt>
      <trkpt lat="45.62728" lon="6.59763">
        <ele>1846</ele>
        <time>2022-07-27T08:59:36Z</time>
      </trkpt>
      <trkpt lat="45.62729" lon="6.59762">
        <ele>1846</ele>
        <time>2022-07-27T08:59:37Z</time>
      </trkpt>
      <trkpt lat="45.62729" lon="6.5976">
        <ele>1846</ele>
        <time>2022-07-27T08:59:38Z</time>
      </trkpt>
      <trkpt lat="45.62729" lon="6.59759">
        <ele>1846</ele>
        <time>2022-07-27T08:59:39Z</time>
      </trkpt>
      <trkpt lat="45.6273" lon="6.59757">
        <ele>1846</ele>
        <time>2022-07-27T08:59:40Z</time>
      </trkpt>
      <trkpt lat="45.6273" lon="6.59756">
        <ele>1846</ele>
        <time>2022-07-27T08:59:41Z</time>
      </trkpt>
      <trkpt lat="45.62731" lon="6.59754">
        <ele>1846</ele>
        <time>2022-07-27T08:59:42Z</time>
      </trkpt>
      <trkpt lat="45.62731" lon="6.59753">
        <ele>1846</ele>
        <time>2022-07-27T08:59:43Z</time>
      </trkpt>
      <trkpt lat="45.62731" lon="6.59752">
        <ele>1846</ele>
        <time>2022-07-27T08:59:44Z</time>
      </trkpt>
      <trkpt lat="45.62732" lon="6.5975">
        <ele>1846</ele>
        <time>2022-07-27T08:59:45Z</time>
      </trkpt>
      <trkpt lat="45.62732" lon="6.59749">
        <ele>1846</ele>
        <time>2022-07-27T08:59:46Z</time>
      </trkpt>
      <trkpt lat="45.62733" lon="6.59748">
        <ele>1846</ele>
        <time>2022-07-27T08:59:47Z</time>
      </trkpt>
      <trkpt lat="45.62733" lon="6.59746">
        <ele>1846</ele>
        <time>2022-07-27T08:59:48Z</time>
      </trkpt>
      <trkpt lat="45.62734" lon="6.59744">
        <ele>1846</ele>
        <time>2022-07-27T08:59:49Z</time>
      </trkpt>
      <trkpt lat="45.62734" lon="6.59743">
        <ele>1846</ele>
        <time>2022-07-27T08:59:50Z</time>
      </trkpt>
      <trkpt lat="45.62735" lon="6.59741">
        <ele>1845</ele>
        <time>2022-07-27T08:59:51Z</time>
      </trkpt>
      <trkpt lat="45.62735" lon="6.59739">
        <ele>1845</ele>
        <time>2022-07-27T08:59:52Z</time>
      </trkpt>
      <trkpt lat="45.62736" lon="6.59738">
        <ele>1845</ele>
        <time>2022-07-27T08:59:53Z</time>
      </trkpt>
      <trkpt lat="45.62736" lon="6.59736">
        <ele>1845</ele>
        <time>2022-07-27T08:59:54Z</time>
      </trkpt>
      <trkpt lat="45.62737" lon="6.59734">
        <ele>1845</ele>
        <time>2022-07-27T08:59:55Z</time>
      </trkpt>
      <trkpt lat="45.62737" lon="6.59733">
        <ele>1844</ele>
        <time>2022-07-27T08:59:56Z</time>
      </trkpt>
      <trkpt lat="45.62738" lon="6.59731">
        <ele>1844</ele>
        <time>2022-07-27T08:59:57Z</time>
      </trkpt>
      <trkpt lat="45.62739" lon="6.59729">
        <ele>1844</ele>
        <time>2022-07-27T08:59:58Z</time>
      </trkpt>
      <trkpt lat="45.62739" lon="6.59728">
        <ele>1844</ele>
        <time>2022-07-27T08:59:59Z</time>
      </trkpt>
      <trkpt lat="45.6274" lon="6.59726">
        <ele>1844</ele>
        <time>2022-07-27T09:00:00Z</time>
      </trkpt>
      <trkpt lat="45.62741" lon="6.59724">
        <ele>1844</ele>
        <time>2022-07-27T09:00:01Z</time>
      </trkpt>
      <trkpt lat="45.62741" lon="6.59723">
        <ele>1844</ele>
        <time>2022-07-27T09:00:02Z</time>
      </trkpt>
      <trkpt lat="45.62742" lon="6.59721">
        <ele>1844</ele>
        <time>2022-07-27T09:00:03Z</time>
      </trkpt>
      <trkpt lat="45.62742" lon="6.59719">
        <ele>1844</ele>
        <time>2022-07-27T09:00:04Z</time>
      </trkpt>
      <trkpt lat="45.62743" lon="6.59717">
        <ele>1844</ele>
        <time>2022-07-27T09:00:05Z</time>
      </trkpt>
      <trkpt lat="45.62743" lon="6.59716">
        <ele>1843</ele>
        <time>2022-07-27T09:00:06Z</time>
      </trkpt>
      <trkpt lat="45.62744" lon="6.59714">
        <ele>1843</ele>
        <time>2022-07-27T09:00:07Z</time>
      </trkpt>
      <trkpt lat="45.62745" lon="6.59712">
        <ele>1843</ele>
        <time>2022-07-27T09:00:08Z</time>
      </trkpt>
      <trkpt lat="45.62745" lon="6.59711">
        <ele>1843</ele>
        <time>2022-07-27T09:00:09Z</time>
      </trkpt>
      <trkpt lat="45.62746" lon="6.59709">
        <ele>1843</ele>
        <time>2022-07-27T09:00:10Z</time>
      </trkpt>
      <trkpt lat="45.62746" lon="6.59707">
        <ele>1842</ele>
        <time>2022-07-27T09:00:11Z</time>
      </trkpt>
      <trkpt lat="45.62747" lon="6.59706">
        <ele>1842</ele>
        <time>2022-07-27T09:00:12Z</time>
      </trkpt>
      <trkpt lat="45.62747" lon="6.59704">
        <ele>1842</ele>
        <time>2022-07-27T09:00:13Z</time>
      </trkpt>
      <trkpt lat="45.62748" lon="6.59702">
        <ele>1842</ele>
        <time>2022-07-27T09:00:14Z</time>
      </trkpt>
      <trkpt lat="45.62748" lon="6.59701">
        <ele>1842</ele>
        <time>2022-07-27T09:00:15Z</time>
      </trkpt>
      <trkpt lat="45.62749" lon="6.59699">
        <ele>1841</ele>
        <time>2022-07-27T09:00:16Z</time>
      </trkpt>
      <trkpt lat="45.62749" lon="6.59697">
        <ele>1841</ele>
        <time>2022-07-27T09:00:17Z</time>
      </trkpt>
      <trkpt lat="45.6275" lon="6.59696">
        <ele>1841</ele>
        <time>2022-07-27T09:00:18Z</time>
      </trkpt>
      <trkpt lat="45.6275" lon="6.59694">
        <ele>1841</ele>
        <time>2022-07-27T09:00:19Z</time>
      </trkpt>
      <trkpt lat="45.62751" lon="6.59693">
        <ele>1841</ele>
        <time>2022-07-27T09:00:20Z</time>
      </trkpt>
      <trkpt lat="45.62751" lon="6.59691">
        <ele>1841</ele>
        <time>2022-07-27T09:00:21Z</time>
      </trkpt>
      <trkpt lat="45.62752" lon="6.59689">
        <ele>1841</ele>
        <time>2022-07-27T09:00:22Z</time>
      </trkpt>
      <trkpt lat="45.62752" lon="6.59688">
        <ele>1841</ele>
        <time>2022-07-27T09:00:23Z</time>
      </trkpt>
      <trkpt lat="45.62753" lon="6.59686">
        <ele>1841</ele>
        <time>2022-07-27T09:00:24Z</time>
      </trkpt>
      <trkpt lat="45.62753" lon="6.59685">
        <ele>1841</ele>
        <time>2022-07-27T09:00:25Z</time>
      </trkpt>
      <trkpt lat="45.62753" lon="6.59683">
        <ele>1841</ele>
        <time>2022-07-27T09:00:26Z</time>
      </trkpt>
      <trkpt lat="45.62754" lon="6.59682">
        <ele>1841</ele>
        <time>2022-07-27T09:00:27Z</time>
      </trkpt>
      <trkpt lat="45.62754" lon="6.5968">
        <ele>1841</ele>
        <time>2022-07-27T09:00:28Z</time>
      </trkpt>
      <trkpt lat="45.62755" lon="6.59679">
        <ele>1841</ele>
        <time>2022-07-27T09:00:29Z</time>
      </trkpt>
      <trkpt lat="45.62755" lon="6.59677">
        <ele>1841</ele>
        <time>2022-07-27T09:00:30Z</time>
      </trkpt>
      <trkpt lat="45.62756" lon="6.59676">
        <ele>1841</ele>
        <time>2022-07-27T09:00:31Z</time>
      </trkpt>
      <trkpt lat="45.62756" lon="6.59674">
        <ele>1841</ele>
        <time>2022-07-27T09:00:32Z</time>
      </trkpt>
      <trkpt lat="45.62757" lon="6.59672">
        <ele>1841</ele>
        <time>2022-07-27T09:00:33Z</time>
      </trkpt>
      <trkpt lat="45.62757" lon="6.59671">
        <ele>1841</ele>
        <time>2022-07-27T09:00:34Z</time>
      </trkpt>
      <trkpt lat="45.62758" lon="6.59669">
        <ele>1841</ele>
        <time>2022-07-27T09:00:35Z</time>
      </trkpt>
      <trkpt lat="45.62759" lon="6.59668">
        <ele>1841</ele>
        <time>2022-07-27T09:00:36Z</time>
      </trkpt>
      <trkpt lat="45.62759" lon="6.59666">
        <ele>1841</ele>
        <time>2022-07-27T09:00:37Z</time>
      </trkpt>
      <trkpt lat="45.6276" lon="6.59665">
        <ele>1841</ele>
        <time>2022-07-27T09:00:38Z</time>
      </trkpt>
      <trkpt lat="45.6276" lon="6.59663">
        <ele>1841</ele>
        <time>2022-07-27T09:00:39Z</time>
      </trkpt>
      <trkpt lat="45.62761" lon="6.59662">
        <ele>1841</ele>
        <time>2022-07-27T09:00:40Z</time>
      </trkpt>
      <trkpt lat="45.62761" lon="6.59661">
        <ele>1841</ele>
        <time>2022-07-27T09:00:41Z</time>
      </trkpt>
      <trkpt lat="45.62762" lon="6.59659">
        <ele>1841</ele>
        <time>2022-07-27T09:00:42Z</time>
      </trkpt>
      <trkpt lat="45.62762" lon="6.59658">
        <ele>1841</ele>
        <time>2022-07-27T09:00:43Z</time>
      </trkpt>
      <trkpt lat="45.62763" lon="6.59656">
        <ele>1841</ele>
        <time>2022-07-27T09:00:44Z</time>
      </trkpt>
      <trkpt lat="45.62763" lon="6.59655">
        <ele>1841</ele>
        <time>2022-07-27T09:00:45Z</time>
      </trkpt>
      <trkpt lat="45.62764" lon="6.59653">
        <ele>1840</ele>
        <time>2022-07-27T09:00:46Z</time>
      </trkpt>
      <trkpt lat="45.62764" lon="6.59652">
        <ele>1840</ele>
        <time>2022-07-27T09:00:47Z</time>
      </trkpt>
      <trkpt lat="45.62765" lon="6.5965">
        <ele>1840</ele>
        <time>2022-07-27T09:00:48Z</time>
      </trkpt>
      <trkpt lat="45.62766" lon="6.59649">
        <ele>1840</ele>
        <time>2022-07-27T09:00:49Z</time>
      </trkpt>
      <trkpt lat="45.62766" lon="6.59647">
        <ele>1840</ele>
        <time>2022-07-27T09:00:50Z</time>
      </trkpt>
      <trkpt lat="45.62767" lon="6.59646">
        <ele>1840</ele>
        <time>2022-07-27T09:00:51Z</time>
      </trkpt>
      <trkpt lat="45.62767" lon="6.59644">
        <ele>1840</ele>
        <time>2022-07-27T09:00:52Z</time>
      </trkpt>
      <trkpt lat="45.62768" lon="6.59643">
        <ele>1840</ele>
        <time>2022-07-27T09:00:53Z</time>
      </trkpt>
      <trkpt lat="45.62769" lon="6.59642">
        <ele>1840</ele>
        <time>2022-07-27T09:00:54Z</time>
      </trkpt>
      <trkpt lat="45.62769" lon="6.5964">
        <ele>1840</ele>
        <time>2022-07-27T09:00:55Z</time>
      </trkpt>
      <trkpt lat="45.6277" lon="6.59639">
        <ele>1840</ele>
        <time>2022-07-27T09:00:56Z</time>
      </trkpt>
      <trkpt lat="45.62771" lon="6.59637">
        <ele>1840</ele>
        <time>2022-07-27T09:00:57Z</time>
      </trkpt>
      <trkpt lat="45.62772" lon="6.59636">
        <ele>1840</ele>
        <time>2022-07-27T09:00:58Z</time>
      </trkpt>
      <trkpt lat="45.62772" lon="6.59635">
        <ele>1840</ele>
        <time>2022-07-27T09:00:59Z</time>
      </trkpt>
      <trkpt lat="45.62773" lon="6.59633">
        <ele>1840</ele>
        <time>2022-07-27T09:01:00Z</time>
      </trkpt>
      <trkpt lat="45.62774" lon="6.59632">
        <ele>1840</ele>
        <time>2022-07-27T09:01:01Z</time>
      </trkpt>
      <trkpt lat="45.62775" lon="6.59631">
        <ele>1840</ele>
        <time>2022-07-27T09:01:02Z</time>
      </trkpt>
      <trkpt lat="45.62775" lon="6.59629">
        <ele>1840</ele>
        <time>2022-07-27T09:01:03Z</time>
      </trkpt>
      <trkpt lat="45.62776" lon="6.59628">
        <ele>1840</ele>
        <time>2022-07-27T09:01:04Z</time>
      </trkpt>
      <trkpt lat="45.62777" lon="6.59627">
        <ele>1840</ele>
        <time>2022-07-27T09:01:05Z</time>
      </trkpt>
      <trkpt lat="45.62778" lon="6.59626">
        <ele>1839</ele>
        <time>2022-07-27T09:01:06Z</time>
      </trkpt>
      <trkpt lat="45.62779" lon="6.59625">
        <ele>1839</ele>
        <time>2022-07-27T09:01:07Z</time>
      </trkpt>
      <trkpt lat="45.6278" lon="6.59623">
        <ele>1839</ele>
        <time>2022-07-27T09:01:08Z</time>
      </trkpt>
      <trkpt lat="45.62781" lon="6.59622">
        <ele>1839</ele>
        <time>2022-07-27T09:01:09Z</time>
      </trkpt>
      <trkpt lat="45.62782" lon="6.59621">
        <ele>1839</ele>
        <time>2022-07-27T09:01:10Z</time>
      </trkpt>
      <trkpt lat="45.62782" lon="6.5962">
        <ele>1839</ele>
        <time>2022-07-27T09:01:11Z</time>
      </trkpt>
      <trkpt lat="45.62783" lon="6.59619">
        <ele>1839</ele>
        <time>2022-07-27T09:01:12Z</time>
      </trkpt>
      <trkpt lat="45.62784" lon="6.59618">
        <ele>1839</ele>
        <time>2022-07-27T09:01:13Z</time>
      </trkpt>
      <trkpt lat="45.62785" lon="6.59617">
        <ele>1839</ele>
        <time>2022-07-27T09:01:14Z</time>
      </trkpt>
      <trkpt lat="45.62786" lon="6.59615">
        <ele>1839</ele>
        <time>2022-07-27T09:01:15Z</time>
      </trkpt>
      <trkpt lat="45.62787" lon="6.59614">
        <ele>1839</ele>
        <time>2022-07-27T09:01:16Z</time>
      </trkpt>
      <trkpt lat="45.62788" lon="6.59613">
        <ele>1839</ele>
        <time>2022-07-27T09:01:17Z</time>
      </trkpt>
      <trkpt lat="45.62789" lon="6.59612">
        <ele>1839</ele>
        <time>2022-07-27T09:01:18Z</time>
      </trkpt>
      <trkpt lat="45.6279" lon="6.59611">
        <ele>1839</ele>
        <time>2022-07-27T09:01:19Z</time>
      </trkpt>
      <trkpt lat="45.62791" lon="6.59609">
        <ele>1839</ele>
        <time>2022-07-27T09:01:20Z</time>
      </trkpt>
      <trkpt lat="45.62792" lon="6.59608">
        <ele>1839</ele>
        <time>2022-07-27T09:01:21Z</time>
      </trkpt>
      <trkpt lat="45.62793" lon="6.59607">
        <ele>1839</ele>
        <time>2022-07-27T09:01:22Z</time>
      </trkpt>
      <trkpt lat="45.62794" lon="6.59606">
        <ele>1839</ele>
        <time>2022-07-27T09:01:23Z</time>
      </trkpt>
      <trkpt lat="45.62795" lon="6.59606">
        <ele>1839</ele>
        <time>2022-07-27T09:01:24Z</time>
      </trkpt>
      <trkpt lat="45.62796" lon="6.59605">
        <ele>1839</ele>
        <time>2022-07-27T09:01:25Z</time>
      </trkpt>
      <trkpt lat="45.62797" lon="6.59604">
        <ele>1839</ele>
        <time>2022-07-27T09:01:26Z</time>
      </trkpt>
      <trkpt lat="45.62798" lon="6.59604">
        <ele>1839</ele>
        <time>2022-07-27T09:01:27Z</time>
      </trkpt>
      <trkpt lat="45.62799" lon="6.59603">
        <ele>1839</ele>
        <time>2022-07-27T09:01:28Z</time>
      </trkpt>
      <trkpt lat="45.628" lon="6.59603">
        <ele>1839</ele>
        <time>2022-07-27T09:01:29Z</time>
      </trkpt>
      <trkpt lat="45.62801" lon="6.59602">
        <ele>1839</ele>
        <time>2022-07-27T09:01:30Z</time>
      </trkpt>
      <trkpt lat="45.62802" lon="6.59601">
        <ele>1839</ele>
        <time>2022-07-27T09:01:31Z</time>
      </trkpt>
      <trkpt lat="45.62803" lon="6.59601">
        <ele>1839</ele>
        <time>2022-07-27T09:01:32Z</time>
      </trkpt>
      <trkpt lat="45.62804" lon="6.596">
        <ele>1839</ele>
        <time>2022-07-27T09:01:33Z</time>
      </trkpt>
      <trkpt lat="45.62805" lon="6.596">
        <ele>1839</ele>
        <time>2022-07-27T09:01:34Z</time>
      </trkpt>
      <trkpt lat="45.62806" lon="6.59599">
        <ele>1839</ele>
        <time>2022-07-27T09:01:35Z</time>
      </trkpt>
      <trkpt lat="45.62807" lon="6.59599">
        <ele>1839</ele>
        <time>2022-07-27T09:01:36Z</time>
      </trkpt>
      <trkpt lat="45.62808" lon="6.59599">
        <ele>1839</ele>
        <time>2022-07-27T09:01:37Z</time>
      </trkpt>
      <trkpt lat="45.62809" lon="6.59598">
        <ele>1839</ele>
        <time>2022-07-27T09:01:38Z</time>
      </trkpt>
      <trkpt lat="45.6281" lon="6.59598">
        <ele>1839</ele>
        <time>2022-07-27T09:01:39Z</time>
      </trkpt>
      <trkpt lat="45.62811" lon="6.59598">
        <ele>1839</ele>
        <time>2022-07-27T09:01:40Z</time>
      </trkpt>
      <trkpt lat="45.62812" lon="6.59598">
        <ele>1838</ele>
        <time>2022-07-27T09:01:55Z</time>
      </trkpt>
      <trkpt lat="45.62813" lon="6.59598">
        <ele>1838</ele>
        <time>2022-07-27T09:01:56Z</time>
      </trkpt>
      <trkpt lat="45.62814" lon="6.59597">
        <ele>1838</ele>
        <time>2022-07-27T09:01:57Z</time>
      </trkpt>
      <trkpt lat="45.62815" lon="6.59597">
        <ele>1838</ele>
        <time>2022-07-27T09:01:58Z</time>
      </trkpt>
      <trkpt lat="45.62815" lon="6.59597">
        <ele>1838</ele>
        <time>2022-07-27T09:01:59Z</time>
      </trkpt>
      <trkpt lat="45.62816" lon="6.59596">
        <ele>1838</ele>
        <time>2022-07-27T09:02:00Z</time>
      </trkpt>
      <trkpt lat="45.62817" lon="6.59596">
        <ele>1838</ele>
        <time>2022-07-27T09:02:01Z</time>
      </trkpt>
      <trkpt lat="45.62818" lon="6.59596">
        <ele>1838</ele>
        <time>2022-07-27T09:02:02Z</time>
      </trkpt>
      <trkpt lat="45.6282" lon="6.59595">
        <ele>1838</ele>
        <time>2022-07-27T09:02:03Z</time>
      </trkpt>
      <trkpt lat="45.62821" lon="6.59595">
        <ele>1838</ele>
        <time>2022-07-27T09:02:04Z</time>
      </trkpt>
      <trkpt lat="45.62822" lon="6.59595">
        <ele>1838</ele>
        <time>2022-07-27T09:02:05Z</time>
      </trkpt>
      <trkpt lat="45.62823" lon="6.59594">
        <ele>1837</ele>
        <time>2022-07-27T09:02:06Z</time>
      </trkpt>
      <trkpt lat="45.62824" lon="6.59594">
        <ele>1837</ele>
        <time>2022-07-27T09:02:07Z</time>
      </trkpt>
      <trkpt lat="45.62825" lon="6.59594">
        <ele>1837</ele>
        <time>2022-07-27T09:02:08Z</time>
      </trkpt>
      <trkpt lat="45.62826" lon="6.59593">
        <ele>1837</ele>
        <time>2022-07-27T09:02:09Z</time>
      </trkpt>
      <trkpt lat="45.62827" lon="6.59593">
        <ele>1837</ele>
        <time>2022-07-27T09:02:10Z</time>
      </trkpt>
      <trkpt lat="45.62828" lon="6.59592">
        <ele>1837</ele>
        <time>2022-07-27T09:02:11Z</time>
      </trkpt>
      <trkpt lat="45.62828" lon="6.59592">
        <ele>1837</ele>
        <time>2022-07-27T09:02:12Z</time>
      </trkpt>
      <trkpt lat="45.62829" lon="6.59591">
        <ele>1837</ele>
        <time>2022-07-27T09:02:13Z</time>
      </trkpt>
      <trkpt lat="45.6283" lon="6.59591">
        <ele>1837</ele>
        <time>2022-07-27T09:02:14Z</time>
      </trkpt>
      <trkpt lat="45.6283" lon="6.59591">
        <ele>1837</ele>
        <time>2022-07-27T09:02:15Z</time>
      </trkpt>
      <trkpt lat="45.62831" lon="6.5959">
        <ele>1836</ele>
        <time>2022-07-27T09:02:16Z</time>
      </trkpt>
      <trkpt lat="45.62831" lon="6.5959">
        <ele>1836</ele>
        <time>2022-07-27T09:02:17Z</time>
      </trkpt>
      <trkpt lat="45.62832" lon="6.59589">
        <ele>1836</ele>
        <time>2022-07-27T09:02:18Z</time>
      </trkpt>
      <trkpt lat="45.62833" lon="6.59588">
        <ele>1836</ele>
        <time>2022-07-27T09:02:19Z</time>
      </trkpt>
      <trkpt lat="45.62834" lon="6.59588">
        <ele>1836</ele>
        <time>2022-07-27T09:02:20Z</time>
      </trkpt>
      <trkpt lat="45.62834" lon="6.59587">
        <ele>1836</ele>
        <time>2022-07-27T09:02:21Z</time>
      </trkpt>
      <trkpt lat="45.62835" lon="6.59586">
        <ele>1836</ele>
        <time>2022-07-27T09:02:22Z</time>
      </trkpt>
      <trkpt lat="45.62836" lon="6.59585">
        <ele>1836</ele>
        <time>2022-07-27T09:02:23Z</time>
      </trkpt>
      <trkpt lat="45.62837" lon="6.59585">
        <ele>1836</ele>
        <time>2022-07-27T09:02:24Z</time>
      </trkpt>
      <trkpt lat="45.62837" lon="6.59584">
        <ele>1836</ele>
        <time>2022-07-27T09:02:25Z</time>
      </trkpt>
      <trkpt lat="45.62838" lon="6.59583">
        <ele>1835</ele>
        <time>2022-07-27T09:02:26Z</time>
      </trkpt>
      <trkpt lat="45.62838" lon="6.59583">
        <ele>1835</ele>
        <time>2022-07-27T09:02:27Z</time>
      </trkpt>
      <trkpt lat="45.62839" lon="6.59582">
        <ele>1835</ele>
        <time>2022-07-27T09:02:28Z</time>
      </trkpt>
      <trkpt lat="45.6284" lon="6.59581">
        <ele>1835</ele>
        <time>2022-07-27T09:02:29Z</time>
      </trkpt>
      <trkpt lat="45.6284" lon="6.59581">
        <ele>1835</ele>
        <time>2022-07-27T09:02:30Z</time>
      </trkpt>
      <trkpt lat="45.62841" lon="6.5958">
        <ele>1835</ele>
        <time>2022-07-27T09:02:31Z</time>
      </trkpt>
      <trkpt lat="45.62842" lon="6.5958">
        <ele>1835</ele>
        <time>2022-07-27T09:02:32Z</time>
      </trkpt>
      <trkpt lat="45.62843" lon="6.59579">
        <ele>1835</ele>
        <time>2022-07-27T09:02:33Z</time>
      </trkpt>
      <trkpt lat="45.62843" lon="6.59578">
        <ele>1835</ele>
        <time>2022-07-27T09:02:34Z</time>
      </trkpt>
      <trkpt lat="45.62844" lon="6.59577">
        <ele>1835</ele>
        <time>2022-07-27T09:02:35Z</time>
      </trkpt>
      <trkpt lat="45.62845" lon="6.59577">
        <ele>1834</ele>
        <time>2022-07-27T09:02:36Z</time>
      </trkpt>
      <trkpt lat="45.62846" lon="6.59576">
        <ele>1834</ele>
        <time>2022-07-27T09:02:37Z</time>
      </trkpt>
      <trkpt lat="45.62847" lon="6.59576">
        <ele>1834</ele>
        <time>2022-07-27T09:02:38Z</time>
      </trkpt>
      <trkpt lat="45.62848" lon="6.59575">
        <ele>1834</ele>
        <time>2022-07-27T09:02:39Z</time>
      </trkpt>
      <trkpt lat="45.62847" lon="6.59575">
        <ele>1834</ele>
        <time>2022-07-27T09:03:39Z</time>
      </trkpt>
      <trkpt lat="45.62846" lon="6.59576">
        <ele>1834</ele>
        <time>2022-07-27T09:03:40Z</time>
      </trkpt>
      <trkpt lat="45.62846" lon="6.59576">
        <ele>1834</ele>
        <time>2022-07-27T09:03:41Z</time>
      </trkpt>
      <trkpt lat="45.62845" lon="6.59576">
        <ele>1834</ele>
        <time>2022-07-27T09:03:42Z</time>
      </trkpt>
      <trkpt lat="45.62845" lon="6.59577">
        <ele>1834</ele>
        <time>2022-07-27T09:03:43Z</time>
      </trkpt>
      <trkpt lat="45.62844" lon="6.59578">
        <ele>1834</ele>
        <time>2022-07-27T09:03:44Z</time>
      </trkpt>
      <trkpt lat="45.62843" lon="6.59579">
        <ele>1834</ele>
        <time>2022-07-27T09:03:45Z</time>
      </trkpt>
      <trkpt lat="45.62842" lon="6.5958">
        <ele>1834</ele>
        <time>2022-07-27T09:03:46Z</time>
      </trkpt>
      <trkpt lat="45.62841" lon="6.59581">
        <ele>1834</ele>
        <time>2022-07-27T09:03:47Z</time>
      </trkpt>
      <trkpt lat="45.6284" lon="6.59582">
        <ele>1834</ele>
        <time>2022-07-27T09:03:48Z</time>
      </trkpt>
      <trkpt lat="45.62839" lon="6.59583">
        <ele>1834</ele>
        <time>2022-07-27T09:03:49Z</time>
      </trkpt>
      <trkpt lat="45.62838" lon="6.59584">
        <ele>1834</ele>
        <time>2022-07-27T09:03:50Z</time>
      </trkpt>
      <trkpt lat="45.62837" lon="6.59586">
        <ele>1834</ele>
        <time>2022-07-27T09:03:51Z</time>
      </trkpt>
      <trkpt lat="45.62836" lon="6.59587">
        <ele>1834</ele>
        <time>2022-07-27T09:03:52Z</time>
      </trkpt>
      <trkpt lat="45.62835" lon="6.59588">
        <ele>1834</ele>
        <time>2022-07-27T09:03:53Z</time>
      </trkpt>
      <trkpt lat="45.62834" lon="6.59589">
        <ele>1834</ele>
        <time>2022-07-27T09:03:54Z</time>
      </trkpt>
      <trkpt lat="45.62833" lon="6.5959">
        <ele>1834</ele>
        <time>2022-07-27T09:03:55Z</time>
      </trkpt>
      <trkpt lat="45.62833" lon="6.59591">
        <ele>1834</ele>
        <time>2022-07-27T09:03:56Z</time>
      </trkpt>
      <trkpt lat="45.62832" lon="6.59592">
        <ele>1834</ele>
        <time>2022-07-27T09:03:57Z</time>
      </trkpt>
      <trkpt lat="45.62832" lon="6.59593">
        <ele>1834</ele>
        <time>2022-07-27T09:03:58Z</time>
      </trkpt>
      <trkpt lat="45.62831" lon="6.59594">
        <ele>1834</ele>
        <time>2022-07-27T09:03:59Z</time>
      </trkpt>
      <trkpt lat="45.62832" lon="6.59594">
        <ele>1835</ele>
        <time>2022-07-27T09:04:00Z</time>
      </trkpt>
      <trkpt lat="45.62832" lon="6.59595">
        <ele>1835</ele>
        <time>2022-07-27T09:04:01Z</time>
      </trkpt>
      <trkpt lat="45.62833" lon="6.59595">
        <ele>1835</ele>
        <time>2022-07-27T09:04:02Z</time>
      </trkpt>
      <trkpt lat="45.62833" lon="6.59596">
        <ele>1835</ele>
        <time>2022-07-27T09:04:03Z</time>
      </trkpt>
      <trkpt lat="45.62834" lon="6.59596">
        <ele>1835</ele>
        <time>2022-07-27T09:04:04Z</time>
      </trkpt>
      <trkpt lat="45.62835" lon="6.59596">
        <ele>1835</ele>
        <time>2022-07-27T09:04:05Z</time>
      </trkpt>
      <trkpt lat="45.62836" lon="6.59597">
        <ele>1834</ele>
        <time>2022-07-27T09:04:06Z</time>
      </trkpt>
      <trkpt lat="45.62837" lon="6.59597">
        <ele>1834</ele>
        <time>2022-07-27T09:04:07Z</time>
      </trkpt>
      <trkpt lat="45.62838" lon="6.59597">
        <ele>1834</ele>
        <time>2022-07-27T09:04:08Z</time>
      </trkpt>
      <trkpt lat="45.62839" lon="6.59598">
        <ele>1834</ele>
        <time>2022-07-27T09:04:09Z</time>
      </trkpt>
      <trkpt lat="45.6284" lon="6.59598">
        <ele>1834</ele>
        <time>2022-07-27T09:04:10Z</time>
      </trkpt>
      <trkpt lat="45.62841" lon="6.59599">
        <ele>1833</ele>
        <time>2022-07-27T09:04:11Z</time>
      </trkpt>
      <trkpt lat="45.62842" lon="6.59599">
        <ele>1833</ele>
        <time>2022-07-27T09:04:12Z</time>
      </trkpt>
      <trkpt lat="45.62843" lon="6.596">
        <ele>1833</ele>
        <time>2022-07-27T09:04:13Z</time>
      </trkpt>
      <trkpt lat="45.62844" lon="6.59601">
        <ele>1833</ele>
        <time>2022-07-27T09:04:14Z</time>
      </trkpt>
      <trkpt lat="45.62845" lon="6.59602">
        <ele>1833</ele>
        <time>2022-07-27T09:04:15Z</time>
      </trkpt>
      <trkpt lat="45.62845" lon="6.59602">
        <ele>1832</ele>
        <time>2022-07-27T09:04:16Z</time>
      </trkpt>
      <trkpt lat="45.62846" lon="6.59603">
        <ele>1832</ele>
        <time>2022-07-27T09:04:17Z</time>
      </trkpt>
      <trkpt lat="45.62846" lon="6.59603">
        <ele>1832</ele>
        <time>2022-07-27T09:04:18Z</time>
      </trkpt>
      <trkpt lat="45.62847" lon="6.59603">
        <ele>1832</ele>
        <time>2022-07-27T09:04:19Z</time>
      </trkpt>
      <trkpt lat="45.62848" lon="6.59604">
        <ele>1832</ele>
        <time>2022-07-27T09:04:20Z</time>
      </trkpt>
      <trkpt lat="45.62849" lon="6.59604">
        <ele>1831</ele>
        <time>2022-07-27T09:04:21Z</time>
      </trkpt>
      <trkpt lat="45.6285" lon="6.59604">
        <ele>1831</ele>
        <time>2022-07-27T09:04:22Z</time>
      </trkpt>
      <trkpt lat="45.62851" lon="6.59604">
        <ele>1831</ele>
        <time>2022-07-27T09:04:23Z</time>
      </trkpt>
      <trkpt lat="45.62852" lon="6.59604">
        <ele>1831</ele>
        <time>2022-07-27T09:04:24Z</time>
      </trkpt>
      <trkpt lat="45.62854" lon="6.59604">
        <ele>1831</ele>
        <time>2022-07-27T09:04:25Z</time>
      </trkpt>
      <trkpt lat="45.62855" lon="6.59603">
        <ele>1830</ele>
        <time>2022-07-27T09:04:26Z</time>
      </trkpt>
      <trkpt lat="45.62856" lon="6.59603">
        <ele>1830</ele>
        <time>2022-07-27T09:04:27Z</time>
      </trkpt>
      <trkpt lat="45.62857" lon="6.59603">
        <ele>1830</ele>
        <time>2022-07-27T09:04:28Z</time>
      </trkpt>
      <trkpt lat="45.62859" lon="6.59602">
        <ele>1830</ele>
        <time>2022-07-27T09:04:29Z</time>
      </trkpt>
      <trkpt lat="45.6286" lon="6.59601">
        <ele>1830</ele>
        <time>2022-07-27T09:04:30Z</time>
      </trkpt>
      <trkpt lat="45.62861" lon="6.596">
        <ele>1829</ele>
        <time>2022-07-27T09:04:31Z</time>
      </trkpt>
      <trkpt lat="45.62862" lon="6.59599">
        <ele>1829</ele>
        <time>2022-07-27T09:04:32Z</time>
      </trkpt>
      <trkpt lat="45.62862" lon="6.59597">
        <ele>1829</ele>
        <time>2022-07-27T09:04:33Z</time>
      </trkpt>
      <trkpt lat="45.62863" lon="6.59596">
        <ele>1829</ele>
        <time>2022-07-27T09:04:34Z</time>
      </trkpt>
      <trkpt lat="45.62864" lon="6.59595">
        <ele>1829</ele>
        <time>2022-07-27T09:04:35Z</time>
      </trkpt>
      <trkpt lat="45.62865" lon="6.59595">
        <ele>1828</ele>
        <time>2022-07-27T09:04:36Z</time>
      </trkpt>
      <trkpt lat="45.62865" lon="6.59594">
        <ele>1828</ele>
        <time>2022-07-27T09:04:37Z</time>
      </trkpt>
      <trkpt lat="45.62865" lon="6.59594">
        <ele>1828</ele>
        <time>2022-07-27T09:04:38Z</time>
      </trkpt>
      <trkpt lat="45.62866" lon="6.59593">
        <ele>1828</ele>
        <time>2022-07-27T09:04:39Z</time>
      </trkpt>
      <trkpt lat="45.62867" lon="6.59593">
        <ele>1828</ele>
        <time>2022-07-27T09:04:40Z</time>
      </trkpt>
      <trkpt lat="45.62867" lon="6.59592">
        <ele>1828</ele>
        <time>2022-07-27T09:04:41Z</time>
      </trkpt>
      <trkpt lat="45.62868" lon="6.59592">
        <ele>1828</ele>
        <time>2022-07-27T09:04:42Z</time>
      </trkpt>
      <trkpt lat="45.6287" lon="6.59592">
        <ele>1828</ele>
        <time>2022-07-27T09:04:43Z</time>
      </trkpt>
      <trkpt lat="45.62871" lon="6.59592">
        <ele>1828</ele>
        <time>2022-07-27T09:04:44Z</time>
      </trkpt>
      <trkpt lat="45.62872" lon="6.59591">
        <ele>1828</ele>
        <time>2022-07-27T09:04:45Z</time>
      </trkpt>
      <trkpt lat="45.62873" lon="6.59591">
        <ele>1827</ele>
        <time>2022-07-27T09:04:46Z</time>
      </trkpt>
      <trkpt lat="45.62874" lon="6.5959">
        <ele>1827</ele>
        <time>2022-07-27T09:04:47Z</time>
      </trkpt>
      <trkpt lat="45.62875" lon="6.59589">
        <ele>1827</ele>
        <time>2022-07-27T09:04:48Z</time>
      </trkpt>
      <trkpt lat="45.62877" lon="6.59588">
        <ele>1827</ele>
        <time>2022-07-27T09:04:49Z</time>
      </trkpt>
      <trkpt lat="45.62877" lon="6.59587">
        <ele>1827</ele>
        <time>2022-07-27T09:04:50Z</time>
      </trkpt>
      <trkpt lat="45.62878" lon="6.59586">
        <ele>1826</ele>
        <time>2022-07-27T09:04:51Z</time>
      </trkpt>
      <trkpt lat="45.62879" lon="6.59584">
        <ele>1826</ele>
        <time>2022-07-27T09:04:52Z</time>
      </trkpt>
      <trkpt lat="45.6288" lon="6.59583">
        <ele>1826</ele>
        <time>2022-07-27T09:04:53Z</time>
      </trkpt>
      <trkpt lat="45.62881" lon="6.59581">
        <ele>1826</ele>
        <time>2022-07-27T09:04:54Z</time>
      </trkpt>
      <trkpt lat="45.62882" lon="6.5958">
        <ele>1826</ele>
        <time>2022-07-27T09:04:55Z</time>
      </trkpt>
      <trkpt lat="45.62883" lon="6.59579">
        <ele>1825</ele>
        <time>2022-07-27T09:04:56Z</time>
      </trkpt>
      <trkpt lat="45.62884" lon="6.59578">
        <ele>1825</ele>
        <time>2022-07-27T09:04:57Z</time>
      </trkpt>
      <trkpt lat="45.62885" lon="6.59577">
        <ele>1825</ele>
        <time>2022-07-27T09:04:58Z</time>
      </trkpt>
      <trkpt lat="45.62886" lon="6.59575">
        <ele>1825</ele>
        <time>2022-07-27T09:04:59Z</time>
      </trkpt>
      <trkpt lat="45.62887" lon="6.59574">
        <ele>1825</ele>
        <time>2022-07-27T09:05:00Z</time>
      </trkpt>
      <trkpt lat="45.62888" lon="6.59573">
        <ele>1824</ele>
        <time>2022-07-27T09:05:01Z</time>
      </trkpt>
      <trkpt lat="45.62889" lon="6.59572">
        <ele>1824</ele>
        <time>2022-07-27T09:05:02Z</time>
      </trkpt>
      <trkpt lat="45.6289" lon="6.59571">
        <ele>1824</ele>
        <time>2022-07-27T09:05:03Z</time>
      </trkpt>
      <trkpt lat="45.6289" lon="6.5957">
        <ele>1824</ele>
        <time>2022-07-27T09:05:04Z</time>
      </trkpt>
      <trkpt lat="45.62891" lon="6.59568">
        <ele>1824</ele>
        <time>2022-07-27T09:05:05Z</time>
      </trkpt>
      <trkpt lat="45.62892" lon="6.59567">
        <ele>1823</ele>
        <time>2022-07-27T09:05:06Z</time>
      </trkpt>
      <trkpt lat="45.62893" lon="6.59566">
        <ele>1823</ele>
        <time>2022-07-27T09:05:07Z</time>
      </trkpt>
      <trkpt lat="45.62894" lon="6.59565">
        <ele>1823</ele>
        <time>2022-07-27T09:05:08Z</time>
      </trkpt>
      <trkpt lat="45.62895" lon="6.59564">
        <ele>1823</ele>
        <time>2022-07-27T09:05:09Z</time>
      </trkpt>
      <trkpt lat="45.62896" lon="6.59563">
        <ele>1823</ele>
        <time>2022-07-27T09:05:10Z</time>
      </trkpt>
      <trkpt lat="45.62897" lon="6.59562">
        <ele>1822</ele>
        <time>2022-07-27T09:05:11Z</time>
      </trkpt>
      <trkpt lat="45.62898" lon="6.5956">
        <ele>1822</ele>
        <time>2022-07-27T09:05:12Z</time>
      </trkpt>
      <trkpt lat="45.62899" lon="6.59559">
        <ele>1822</ele>
        <time>2022-07-27T09:05:13Z</time>
      </trkpt>
      <trkpt lat="45.629" lon="6.59558">
        <ele>1822</ele>
        <time>2022-07-27T09:05:14Z</time>
      </trkpt>
      <trkpt lat="45.62901" lon="6.59556">
        <ele>1822</ele>
        <time>2022-07-27T09:05:15Z</time>
      </trkpt>
      <trkpt lat="45.62902" lon="6.59555">
        <ele>1821</ele>
        <time>2022-07-27T09:05:16Z</time>
      </trkpt>
      <trkpt lat="45.62903" lon="6.59554">
        <ele>1821</ele>
        <time>2022-07-27T09:05:17Z</time>
      </trkpt>
      <trkpt lat="45.62904" lon="6.59553">
        <ele>1821</ele>
        <time>2022-07-27T09:05:18Z</time>
      </trkpt>
      <trkpt lat="45.62905" lon="6.59552">
        <ele>1821</ele>
        <time>2022-07-27T09:05:19Z</time>
      </trkpt>
      <trkpt lat="45.62906" lon="6.59551">
        <ele>1821</ele>
        <time>2022-07-27T09:05:20Z</time>
      </trkpt>
      <trkpt lat="45.62907" lon="6.5955">
        <ele>1820</ele>
        <time>2022-07-27T09:05:21Z</time>
      </trkpt>
      <trkpt lat="45.62908" lon="6.59548">
        <ele>1820</ele>
        <time>2022-07-27T09:05:22Z</time>
      </trkpt>
      <trkpt lat="45.62909" lon="6.59547">
        <ele>1820</ele>
        <time>2022-07-27T09:05:23Z</time>
      </trkpt>
      <trkpt lat="45.6291" lon="6.59546">
        <ele>1820</ele>
        <time>2022-07-27T09:05:24Z</time>
      </trkpt>
      <trkpt lat="45.62911" lon="6.59545">
        <ele>1820</ele>
        <time>2022-07-27T09:05:25Z</time>
      </trkpt>
      <trkpt lat="45.62911" lon="6.59544">
        <ele>1819</ele>
        <time>2022-07-27T09:05:26Z</time>
      </trkpt>
      <trkpt lat="45.62912" lon="6.59542">
        <ele>1819</ele>
        <time>2022-07-27T09:05:27Z</time>
      </trkpt>
      <trkpt lat="45.62913" lon="6.59541">
        <ele>1819</ele>
        <time>2022-07-27T09:05:28Z</time>
      </trkpt>
      <trkpt lat="45.62914" lon="6.5954">
        <ele>1819</ele>
        <time>2022-07-27T09:05:29Z</time>
      </trkpt>
      <trkpt lat="45.62915" lon="6.59539">
        <ele>1819</ele>
        <time>2022-07-27T09:05:30Z</time>
      </trkpt>
      <trkpt lat="45.62916" lon="6.59538">
        <ele>1818</ele>
        <time>2022-07-27T09:05:31Z</time>
      </trkpt>
      <trkpt lat="45.62917" lon="6.59538">
        <ele>1818</ele>
        <time>2022-07-27T09:05:32Z</time>
      </trkpt>
      <trkpt lat="45.62918" lon="6.59538">
        <ele>1818</ele>
        <time>2022-07-27T09:05:33Z</time>
      </trkpt>
      <trkpt lat="45.62919" lon="6.59537">
        <ele>1818</ele>
        <time>2022-07-27T09:05:34Z</time>
      </trkpt>
      <trkpt lat="45.6292" lon="6.59537">
        <ele>1818</ele>
        <time>2022-07-27T09:05:35Z</time>
      </trkpt>
      <trkpt lat="45.62921" lon="6.59537">
        <ele>1817</ele>
        <time>2022-07-27T09:05:36Z</time>
      </trkpt>
      <trkpt lat="45.62922" lon="6.59537">
        <ele>1817</ele>
        <time>2022-07-27T09:05:37Z</time>
      </trkpt>
      <trkpt lat="45.62923" lon="6.59538">
        <ele>1816</ele>
        <time>2022-07-27T09:05:38Z</time>
      </trkpt>
      <trkpt lat="45.62924" lon="6.59538">
        <ele>1816</ele>
        <time>2022-07-27T09:05:39Z</time>
      </trkpt>
      <trkpt lat="45.62925" lon="6.59539">
        <ele>1816</ele>
        <time>2022-07-27T09:05:40Z</time>
      </trkpt>
      <trkpt lat="45.62926" lon="6.5954">
        <ele>1815</ele>
        <time>2022-07-27T09:05:41Z</time>
      </trkpt>
      <trkpt lat="45.62927" lon="6.5954">
        <ele>1815</ele>
        <time>2022-07-27T09:05:42Z</time>
      </trkpt>
      <trkpt lat="45.62928" lon="6.59541">
        <ele>1815</ele>
        <time>2022-07-27T09:05:43Z</time>
      </trkpt>
      <trkpt lat="45.62929" lon="6.59541">
        <ele>1815</ele>
        <time>2022-07-27T09:05:44Z</time>
      </trkpt>
      <trkpt lat="45.6293" lon="6.59542">
        <ele>1815</ele>
        <time>2022-07-27T09:05:45Z</time>
      </trkpt>
      <trkpt lat="45.6293" lon="6.59541">
        <ele>1815</ele>
        <time>2022-07-27T09:05:46Z</time>
      </trkpt>
      <trkpt lat="45.62931" lon="6.59541">
        <ele>1815</ele>
        <time>2022-07-27T09:05:47Z</time>
      </trkpt>
      <trkpt lat="45.62932" lon="6.5954">
        <ele>1815</ele>
        <time>2022-07-27T09:05:48Z</time>
      </trkpt>
      <trkpt lat="45.62932" lon="6.59539">
        <ele>1815</ele>
        <time>2022-07-27T09:05:49Z</time>
      </trkpt>
      <trkpt lat="45.62933" lon="6.59538">
        <ele>1815</ele>
        <time>2022-07-27T09:05:50Z</time>
      </trkpt>
      <trkpt lat="45.62933" lon="6.59537">
        <ele>1814</ele>
        <time>2022-07-27T09:05:51Z</time>
      </trkpt>
      <trkpt lat="45.62934" lon="6.59536">
        <ele>1814</ele>
        <time>2022-07-27T09:05:52Z</time>
      </trkpt>
      <trkpt lat="45.62935" lon="6.59535">
        <ele>1814</ele>
        <time>2022-07-27T09:05:53Z</time>
      </trkpt>
      <trkpt lat="45.62935" lon="6.59535">
        <ele>1814</ele>
        <time>2022-07-27T09:05:54Z</time>
      </trkpt>
      <trkpt lat="45.62936" lon="6.59534">
        <ele>1814</ele>
        <time>2022-07-27T09:05:55Z</time>
      </trkpt>
      <trkpt lat="45.62936" lon="6.59533">
        <ele>1813</ele>
        <time>2022-07-27T09:05:56Z</time>
      </trkpt>
      <trkpt lat="45.62937" lon="6.59533">
        <ele>1813</ele>
        <time>2022-07-27T09:05:57Z</time>
      </trkpt>
      <trkpt lat="45.62937" lon="6.59532">
        <ele>1813</ele>
        <time>2022-07-27T09:05:58Z</time>
      </trkpt>
      <trkpt lat="45.62938" lon="6.59532">
        <ele>1813</ele>
        <time>2022-07-27T09:05:59Z</time>
      </trkpt>
      <trkpt lat="45.62939" lon="6.59531">
        <ele>1813</ele>
        <time>2022-07-27T09:06:00Z</time>
      </trkpt>
      <trkpt lat="45.6294" lon="6.59531">
        <ele>1812</ele>
        <time>2022-07-27T09:06:01Z</time>
      </trkpt>
      <trkpt lat="45.6294" lon="6.5953">
        <ele>1812</ele>
        <time>2022-07-27T09:06:02Z</time>
      </trkpt>
      <trkpt lat="45.62941" lon="6.5953">
        <ele>1812</ele>
        <time>2022-07-27T09:06:03Z</time>
      </trkpt>
      <trkpt lat="45.62942" lon="6.59529">
        <ele>1812</ele>
        <time>2022-07-27T09:06:04Z</time>
      </trkpt>
      <trkpt lat="45.62943" lon="6.59529">
        <ele>1812</ele>
        <time>2022-07-27T09:06:05Z</time>
      </trkpt>
      <trkpt lat="45.62945" lon="6.59528">
        <ele>1811</ele>
        <time>2022-07-27T09:06:06Z</time>
      </trkpt>
      <trkpt lat="45.62946" lon="6.59528">
        <ele>1811</ele>
        <time>2022-07-27T09:06:07Z</time>
      </trkpt>
      <trkpt lat="45.62947" lon="6.59527">
        <ele>1811</ele>
        <time>2022-07-27T09:06:08Z</time>
      </trkpt>
      <trkpt lat="45.62948" lon="6.59527">
        <ele>1811</ele>
        <time>2022-07-27T09:06:09Z</time>
      </trkpt>
      <trkpt lat="45.6295" lon="6.59526">
        <ele>1811</ele>
        <time>2022-07-27T09:06:10Z</time>
      </trkpt>
      <trkpt lat="45.62951" lon="6.59526">
        <ele>1810</ele>
        <time>2022-07-27T09:06:11Z</time>
      </trkpt>
      <trkpt lat="45.62952" lon="6.59525">
        <ele>1810</ele>
        <time>2022-07-27T09:06:12Z</time>
      </trkpt>
      <trkpt lat="45.62953" lon="6.59524">
        <ele>1810</ele>
        <time>2022-07-27T09:06:13Z</time>
      </trkpt>
      <trkpt lat="45.62954" lon="6.59524">
        <ele>1810</ele>
        <time>2022-07-27T09:06:14Z</time>
      </trkpt>
      <trkpt lat="45.62955" lon="6.59523">
        <ele>1810</ele>
        <time>2022-07-27T09:06:15Z</time>
      </trkpt>
      <trkpt lat="45.62956" lon="6.59522">
        <ele>1810</ele>
        <time>2022-07-27T09:06:16Z</time>
      </trkpt>
      <trkpt lat="45.62957" lon="6.59521">
        <ele>1810</ele>
        <time>2022-07-27T09:06:17Z</time>
      </trkpt>
      <trkpt lat="45.62958" lon="6.5952">
        <ele>1810</ele>
        <time>2022-07-27T09:06:18Z</time>
      </trkpt>
      <trkpt lat="45.62959" lon="6.59519">
        <ele>1810</ele>
        <time>2022-07-27T09:06:19Z</time>
      </trkpt>
      <trkpt lat="45.62959" lon="6.59517">
        <ele>1810</ele>
        <time>2022-07-27T09:06:20Z</time>
      </trkpt>
      <trkpt lat="45.6296" lon="6.59516">
        <ele>1809</ele>
        <time>2022-07-27T09:06:21Z</time>
      </trkpt>
      <trkpt lat="45.6296" lon="6.59514">
        <ele>1809</ele>
        <time>2022-07-27T09:06:22Z</time>
      </trkpt>
      <trkpt lat="45.62961" lon="6.59512">
        <ele>1809</ele>
        <time>2022-07-27T09:06:23Z</time>
      </trkpt>
      <trkpt lat="45.62962" lon="6.59511">
        <ele>1809</ele>
        <time>2022-07-27T09:06:24Z</time>
      </trkpt>
      <trkpt lat="45.62963" lon="6.5951">
        <ele>1809</ele>
        <time>2022-07-27T09:06:25Z</time>
      </trkpt>
      <trkpt lat="45.62964" lon="6.59509">
        <ele>1808</ele>
        <time>2022-07-27T09:06:26Z</time>
      </trkpt>
      <trkpt lat="45.62964" lon="6.59507">
        <ele>1808</ele>
        <time>2022-07-27T09:06:27Z</time>
      </trkpt>
      <trkpt lat="45.62965" lon="6.59507">
        <ele>1808</ele>
        <time>2022-07-27T09:06:28Z</time>
      </trkpt>
      <trkpt lat="45.62966" lon="6.59506">
        <ele>1808</ele>
        <time>2022-07-27T09:06:29Z</time>
      </trkpt>
      <trkpt lat="45.62967" lon="6.59505">
        <ele>1808</ele>
        <time>2022-07-27T09:06:30Z</time>
      </trkpt>
      <trkpt lat="45.62968" lon="6.59504">
        <ele>1808</ele>
        <time>2022-07-27T09:06:31Z</time>
      </trkpt>
      <trkpt lat="45.62969" lon="6.59503">
        <ele>1808</ele>
        <time>2022-07-27T09:06:32Z</time>
      </trkpt>
      <trkpt lat="45.6297" lon="6.59503">
        <ele>1808</ele>
        <time>2022-07-27T09:06:33Z</time>
      </trkpt>
      <trkpt lat="45.62971" lon="6.59502">
        <ele>1808</ele>
        <time>2022-07-27T09:06:34Z</time>
      </trkpt>
      <trkpt lat="45.62972" lon="6.59501">
        <ele>1808</ele>
        <time>2022-07-27T09:06:35Z</time>
      </trkpt>
      <trkpt lat="45.62973" lon="6.595">
        <ele>1807</ele>
        <time>2022-07-27T09:06:36Z</time>
      </trkpt>
      <trkpt lat="45.62974" lon="6.59499">
        <ele>1807</ele>
        <time>2022-07-27T09:06:37Z</time>
      </trkpt>
      <trkpt lat="45.62974" lon="6.59498">
        <ele>1807</ele>
        <time>2022-07-27T09:06:38Z</time>
      </trkpt>
      <trkpt lat="45.62975" lon="6.59497">
        <ele>1807</ele>
        <time>2022-07-27T09:06:39Z</time>
      </trkpt>
      <trkpt lat="45.62976" lon="6.59496">
        <ele>1807</ele>
        <time>2022-07-27T09:06:40Z</time>
      </trkpt>
      <trkpt lat="45.62977" lon="6.59495">
        <ele>1806</ele>
        <time>2022-07-27T09:06:41Z</time>
      </trkpt>
      <trkpt lat="45.62978" lon="6.59494">
        <ele>1806</ele>
        <time>2022-07-27T09:06:42Z</time>
      </trkpt>
      <trkpt lat="45.62978" lon="6.59493">
        <ele>1805</ele>
        <time>2022-07-27T09:06:43Z</time>
      </trkpt>
      <trkpt lat="45.62979" lon="6.59492">
        <ele>1805</ele>
        <time>2022-07-27T09:06:44Z</time>
      </trkpt>
      <trkpt lat="45.6298" lon="6.59491">
        <ele>1805</ele>
        <time>2022-07-27T09:06:45Z</time>
      </trkpt>
      <trkpt lat="45.6298" lon="6.59491">
        <ele>1804</ele>
        <time>2022-07-27T09:06:46Z</time>
      </trkpt>
      <trkpt lat="45.6298" lon="6.5949">
        <ele>1804</ele>
        <time>2022-07-27T09:06:47Z</time>
      </trkpt>
      <trkpt lat="45.62981" lon="6.59489">
        <ele>1804</ele>
        <time>2022-07-27T09:06:48Z</time>
      </trkpt>
      <trkpt lat="45.62981" lon="6.59488">
        <ele>1804</ele>
        <time>2022-07-27T09:06:49Z</time>
      </trkpt>
      <trkpt lat="45.62981" lon="6.59486">
        <ele>1804</ele>
        <time>2022-07-27T09:06:50Z</time>
      </trkpt>
      <trkpt lat="45.62982" lon="6.59485">
        <ele>1803</ele>
        <time>2022-07-27T09:06:51Z</time>
      </trkpt>
      <trkpt lat="45.62983" lon="6.59484">
        <ele>1803</ele>
        <time>2022-07-27T09:06:52Z</time>
      </trkpt>
      <trkpt lat="45.62984" lon="6.59484">
        <ele>1803</ele>
        <time>2022-07-27T09:06:53Z</time>
      </trkpt>
      <trkpt lat="45.62985" lon="6.59483">
        <ele>1803</ele>
        <time>2022-07-27T09:06:54Z</time>
      </trkpt>
      <trkpt lat="45.62986" lon="6.59483">
        <ele>1803</ele>
        <time>2022-07-27T09:06:55Z</time>
      </trkpt>
      <trkpt lat="45.62987" lon="6.59483">
        <ele>1802</ele>
        <time>2022-07-27T09:06:56Z</time>
      </trkpt>
      <trkpt lat="45.62988" lon="6.59484">
        <ele>1802</ele>
        <time>2022-07-27T09:06:57Z</time>
      </trkpt>
      <trkpt lat="45.62989" lon="6.59485">
        <ele>1802</ele>
        <time>2022-07-27T09:06:58Z</time>
      </trkpt>
      <trkpt lat="45.6299" lon="6.59486">
        <ele>1802</ele>
        <time>2022-07-27T09:06:59Z</time>
      </trkpt>
      <trkpt lat="45.6299" lon="6.59487">
        <ele>1802</ele>
        <time>2022-07-27T09:07:00Z</time>
      </trkpt>
      <trkpt lat="45.62991" lon="6.59488">
        <ele>1801</ele>
        <time>2022-07-27T09:07:01Z</time>
      </trkpt>
      <trkpt lat="45.62991" lon="6.59489">
        <ele>1801</ele>
        <time>2022-07-27T09:07:02Z</time>
      </trkpt>
      <trkpt lat="45.62992" lon="6.5949">
        <ele>1801</ele>
        <time>2022-07-27T09:07:03Z</time>
      </trkpt>
      <trkpt lat="45.62992" lon="6.59491">
        <ele>1801</ele>
        <time>2022-07-27T09:07:04Z</time>
      </trkpt>
      <trkpt lat="45.62992" lon="6.59493">
        <ele>1801</ele>
        <time>2022-07-27T09:07:05Z</time>
      </trkpt>
      <trkpt lat="45.62993" lon="6.59494">
        <ele>1800</ele>
        <time>2022-07-27T09:07:06Z</time>
      </trkpt>
      <trkpt lat="45.62993" lon="6.59496">
        <ele>1800</ele>
        <time>2022-07-27T09:07:07Z</time>
      </trkpt>
      <trkpt lat="45.62993" lon="6.59498">
        <ele>1800</ele>
        <time>2022-07-27T09:07:08Z</time>
      </trkpt>
      <trkpt lat="45.62993" lon="6.59499">
        <ele>1800</ele>
        <time>2022-07-27T09:07:09Z</time>
      </trkpt>
      <trkpt lat="45.62994" lon="6.59501">
        <ele>1800</ele>
        <time>2022-07-27T09:07:10Z</time>
      </trkpt>
      <trkpt lat="45.62994" lon="6.59503">
        <ele>1799</ele>
        <time>2022-07-27T09:07:11Z</time>
      </trkpt>
      <trkpt lat="45.62994" lon="6.59505">
        <ele>1799</ele>
        <time>2022-07-27T09:07:12Z</time>
      </trkpt>
      <trkpt lat="45.62994" lon="6.59506">
        <ele>1798</ele>
        <time>2022-07-27T09:07:13Z</time>
      </trkpt>
      <trkpt lat="45.62994" lon="6.59508">
        <ele>1798</ele>
        <time>2022-07-27T09:07:14Z</time>
      </trkpt>
      <trkpt lat="45.62994" lon="6.5951">
        <ele>1798</ele>
        <time>2022-07-27T09:07:15Z</time>
      </trkpt>
      <trkpt lat="45.62994" lon="6.59512">
        <ele>1797</ele>
        <time>2022-07-27T09:07:16Z</time>
      </trkpt>
      <trkpt lat="45.62994" lon="6.59514">
        <ele>1797</ele>
        <time>2022-07-27T09:07:17Z</time>
      </trkpt>
      <trkpt lat="45.62994" lon="6.59516">
        <ele>1797</ele>
        <time>2022-07-27T09:07:18Z</time>
      </trkpt>
      <trkpt lat="45.62993" lon="6.59518">
        <ele>1797</ele>
        <time>2022-07-27T09:07:19Z</time>
      </trkpt>
      <trkpt lat="45.62993" lon="6.5952">
        <ele>1797</ele>
        <time>2022-07-27T09:07:20Z</time>
      </trkpt>
      <trkpt lat="45.62992" lon="6.59521">
        <ele>1796</ele>
        <time>2022-07-27T09:07:21Z</time>
      </trkpt>
      <trkpt lat="45.62992" lon="6.59523">
        <ele>1796</ele>
        <time>2022-07-27T09:07:22Z</time>
      </trkpt>
      <trkpt lat="45.62991" lon="6.59525">
        <ele>1796</ele>
        <time>2022-07-27T09:07:23Z</time>
      </trkpt>
      <trkpt lat="45.62991" lon="6.59526">
        <ele>1796</ele>
        <time>2022-07-27T09:07:24Z</time>
      </trkpt>
      <trkpt lat="45.6299" lon="6.59528">
        <ele>1796</ele>
        <time>2022-07-27T09:07:25Z</time>
      </trkpt>
      <trkpt lat="45.6299" lon="6.59529">
        <ele>1795</ele>
        <time>2022-07-27T09:07:26Z</time>
      </trkpt>
      <trkpt lat="45.6299" lon="6.59529">
        <ele>1795</ele>
        <time>2022-07-27T09:07:27Z</time>
      </trkpt>
      <trkpt lat="45.6299" lon="6.5953">
        <ele>1795</ele>
        <time>2022-07-27T09:07:28Z</time>
      </trkpt>
      <trkpt lat="45.6299" lon="6.5953">
        <ele>1795</ele>
        <time>2022-07-27T09:07:29Z</time>
      </trkpt>
      <trkpt lat="45.62989" lon="6.5953">
        <ele>1795</ele>
        <time>2022-07-27T09:07:30Z</time>
      </trkpt>
      <trkpt lat="45.62989" lon="6.59531">
        <ele>1795</ele>
        <time>2022-07-27T09:07:31Z</time>
      </trkpt>
      <trkpt lat="45.62989" lon="6.59532">
        <ele>1795</ele>
        <time>2022-07-27T09:07:32Z</time>
      </trkpt>
      <trkpt lat="45.62989" lon="6.59533">
        <ele>1795</ele>
        <time>2022-07-27T09:07:33Z</time>
      </trkpt>
      <trkpt lat="45.62989" lon="6.59533">
        <ele>1795</ele>
        <time>2022-07-27T09:07:34Z</time>
      </trkpt>
      <trkpt lat="45.62989" lon="6.59535">
        <ele>1795</ele>
        <time>2022-07-27T09:07:35Z</time>
      </trkpt>
      <trkpt lat="45.6299" lon="6.59536">
        <ele>1794</ele>
        <time>2022-07-27T09:07:36Z</time>
      </trkpt>
      <trkpt lat="45.6299" lon="6.59537">
        <ele>1794</ele>
        <time>2022-07-27T09:07:37Z</time>
      </trkpt>
      <trkpt lat="45.62991" lon="6.59539">
        <ele>1794</ele>
        <time>2022-07-27T09:07:38Z</time>
      </trkpt>
      <trkpt lat="45.62991" lon="6.5954">
        <ele>1794</ele>
        <time>2022-07-27T09:07:39Z</time>
      </trkpt>
      <trkpt lat="45.62992" lon="6.59541">
        <ele>1794</ele>
        <time>2022-07-27T09:07:40Z</time>
      </trkpt>
      <trkpt lat="45.62993" lon="6.59542">
        <ele>1794</ele>
        <time>2022-07-27T09:07:41Z</time>
      </trkpt>
      <trkpt lat="45.62993" lon="6.59542">
        <ele>1794</ele>
        <time>2022-07-27T09:07:42Z</time>
      </trkpt>
      <trkpt lat="45.62994" lon="6.59542">
        <ele>1794</ele>
        <time>2022-07-27T09:07:43Z</time>
      </trkpt>
      <trkpt lat="45.62995" lon="6.59542">
        <ele>1794</ele>
        <time>2022-07-27T09:07:44Z</time>
      </trkpt>
      <trkpt lat="45.62996" lon="6.59541">
        <ele>1794</ele>
        <time>2022-07-27T09:07:45Z</time>
      </trkpt>
      <trkpt lat="45.62996" lon="6.5954">
        <ele>1794</ele>
        <time>2022-07-27T09:07:46Z</time>
      </trkpt>
      <trkpt lat="45.62997" lon="6.59539">
        <ele>1794</ele>
        <time>2022-07-27T09:07:47Z</time>
      </trkpt>
      <trkpt lat="45.62998" lon="6.59538">
        <ele>1794</ele>
        <time>2022-07-27T09:07:48Z</time>
      </trkpt>
      <trkpt lat="45.62999" lon="6.59537">
        <ele>1794</ele>
        <time>2022-07-27T09:07:49Z</time>
      </trkpt>
      <trkpt lat="45.63" lon="6.59536">
        <ele>1794</ele>
        <time>2022-07-27T09:07:50Z</time>
      </trkpt>
      <trkpt lat="45.63001" lon="6.59535">
        <ele>1794</ele>
        <time>2022-07-27T09:07:51Z</time>
      </trkpt>
      <trkpt lat="45.63002" lon="6.59534">
        <ele>1794</ele>
        <time>2022-07-27T09:07:52Z</time>
      </trkpt>
      <trkpt lat="45.63003" lon="6.59533">
        <ele>1794</ele>
        <time>2022-07-27T09:07:53Z</time>
      </trkpt>
      <trkpt lat="45.63004" lon="6.59532">
        <ele>1794</ele>
        <time>2022-07-27T09:07:54Z</time>
      </trkpt>
      <trkpt lat="45.63005" lon="6.59531">
        <ele>1794</ele>
        <time>2022-07-27T09:07:55Z</time>
      </trkpt>
      <trkpt lat="45.63006" lon="6.59531">
        <ele>1794</ele>
        <time>2022-07-27T09:07:56Z</time>
      </trkpt>
      <trkpt lat="45.63007" lon="6.5953">
        <ele>1794</ele>
        <time>2022-07-27T09:07:57Z</time>
      </trkpt>
      <trkpt lat="45.63008" lon="6.59529">
        <ele>1794</ele>
        <time>2022-07-27T09:07:58Z</time>
      </trkpt>
      <trkpt lat="45.63009" lon="6.59527">
        <ele>1794</ele>
        <time>2022-07-27T09:07:59Z</time>
      </trkpt>
      <trkpt lat="45.6301" lon="6.59526">
        <ele>1794</ele>
        <time>2022-07-27T09:08:00Z</time>
      </trkpt>
      <trkpt lat="45.63011" lon="6.59526">
        <ele>1794</ele>
        <time>2022-07-27T09:08:01Z</time>
      </trkpt>
      <trkpt lat="45.63012" lon="6.59525">
        <ele>1794</ele>
        <time>2022-07-27T09:08:02Z</time>
      </trkpt>
      <trkpt lat="45.63013" lon="6.59525">
        <ele>1794</ele>
        <time>2022-07-27T09:08:03Z</time>
      </trkpt>
      <trkpt lat="45.63014" lon="6.59524">
        <ele>1794</ele>
        <time>2022-07-27T09:08:04Z</time>
      </trkpt>
      <trkpt lat="45.63015" lon="6.59524">
        <ele>1794</ele>
        <time>2022-07-27T09:08:05Z</time>
      </trkpt>
      <trkpt lat="45.63016" lon="6.59523">
        <ele>1794</ele>
        <time>2022-07-27T09:08:06Z</time>
      </trkpt>
      <trkpt lat="45.63017" lon="6.59523">
        <ele>1794</ele>
        <time>2022-07-27T09:08:07Z</time>
      </trkpt>
      <trkpt lat="45.63018" lon="6.59522">
        <ele>1794</ele>
        <time>2022-07-27T09:08:08Z</time>
      </trkpt>
      <trkpt lat="45.63019" lon="6.59521">
        <ele>1794</ele>
        <time>2022-07-27T09:08:09Z</time>
      </trkpt>
      <trkpt lat="45.6302" lon="6.5952">
        <ele>1794</ele>
        <time>2022-07-27T09:08:10Z</time>
      </trkpt>
      <trkpt lat="45.6302" lon="6.59519">
        <ele>1793</ele>
        <time>2022-07-27T09:08:11Z</time>
      </trkpt>
      <trkpt lat="45.63021" lon="6.59518">
        <ele>1793</ele>
        <time>2022-07-27T09:08:12Z</time>
      </trkpt>
      <trkpt lat="45.63022" lon="6.59517">
        <ele>1793</ele>
        <time>2022-07-27T09:08:13Z</time>
      </trkpt>
      <trkpt lat="45.63022" lon="6.59516">
        <ele>1793</ele>
        <time>2022-07-27T09:08:14Z</time>
      </trkpt>
      <trkpt lat="45.63023" lon="6.59515">
        <ele>1793</ele>
        <time>2022-07-27T09:08:15Z</time>
      </trkpt>
      <trkpt lat="45.63024" lon="6.59514">
        <ele>1792</ele>
        <time>2022-07-27T09:08:16Z</time>
      </trkpt>
      <trkpt lat="45.63025" lon="6.59513">
        <ele>1792</ele>
        <time>2022-07-27T09:08:17Z</time>
      </trkpt>
      <trkpt lat="45.63026" lon="6.59512">
        <ele>1792</ele>
        <time>2022-07-27T09:08:18Z</time>
      </trkpt>
      <trkpt lat="45.63027" lon="6.59512">
        <ele>1792</ele>
        <time>2022-07-27T09:08:19Z</time>
      </trkpt>
      <trkpt lat="45.63028" lon="6.59511">
        <ele>1792</ele>
        <time>2022-07-27T09:08:20Z</time>
      </trkpt>
      <trkpt lat="45.63029" lon="6.59511">
        <ele>1791</ele>
        <time>2022-07-27T09:08:21Z</time>
      </trkpt>
      <trkpt lat="45.6303" lon="6.5951">
        <ele>1791</ele>
        <time>2022-07-27T09:08:22Z</time>
      </trkpt>
      <trkpt lat="45.63031" lon="6.59511">
        <ele>1791</ele>
        <time>2022-07-27T09:08:23Z</time>
      </trkpt>
      <trkpt lat="45.63032" lon="6.59511">
        <ele>1791</ele>
        <time>2022-07-27T09:08:24Z</time>
      </trkpt>
      <trkpt lat="45.63033" lon="6.59512">
        <ele>1791</ele>
        <time>2022-07-27T09:08:25Z</time>
      </trkpt>
      <trkpt lat="45.63034" lon="6.59513">
        <ele>1790</ele>
        <time>2022-07-27T09:08:26Z</time>
      </trkpt>
      <trkpt lat="45.63036" lon="6.59514">
        <ele>1790</ele>
        <time>2022-07-27T09:08:27Z</time>
      </trkpt>
      <trkpt lat="45.63037" lon="6.59514">
        <ele>1790</ele>
        <time>2022-07-27T09:08:28Z</time>
      </trkpt>
      <trkpt lat="45.63038" lon="6.59515">
        <ele>1790</ele>
        <time>2022-07-27T09:08:29Z</time>
      </trkpt>
      <trkpt lat="45.63039" lon="6.59515">
        <ele>1790</ele>
        <time>2022-07-27T09:08:30Z</time>
      </trkpt>
      <trkpt lat="45.6304" lon="6.59516">
        <ele>1789</ele>
        <time>2022-07-27T09:08:31Z</time>
      </trkpt>
      <trkpt lat="45.63041" lon="6.59517">
        <ele>1789</ele>
        <time>2022-07-27T09:08:32Z</time>
      </trkpt>
      <trkpt lat="45.63042" lon="6.59518">
        <ele>1789</ele>
        <time>2022-07-27T09:08:33Z</time>
      </trkpt>
      <trkpt lat="45.63043" lon="6.59519">
        <ele>1789</ele>
        <time>2022-07-27T09:08:34Z</time>
      </trkpt>
      <trkpt lat="45.63044" lon="6.5952">
        <ele>1789</ele>
        <time>2022-07-27T09:08:35Z</time>
      </trkpt>
      <trkpt lat="45.63044" lon="6.59521">
        <ele>1789</ele>
        <time>2022-07-27T09:08:36Z</time>
      </trkpt>
      <trkpt lat="45.63045" lon="6.59522">
        <ele>1789</ele>
        <time>2022-07-27T09:08:37Z</time>
      </trkpt>
      <trkpt lat="45.63046" lon="6.59524">
        <ele>1789</ele>
        <time>2022-07-27T09:08:38Z</time>
      </trkpt>
      <trkpt lat="45.63046" lon="6.59525">
        <ele>1789</ele>
        <time>2022-07-27T09:08:39Z</time>
      </trkpt>
      <trkpt lat="45.63047" lon="6.59526">
        <ele>1789</ele>
        <time>2022-07-27T09:08:40Z</time>
      </trkpt>
      <trkpt lat="45.63048" lon="6.59527">
        <ele>1789</ele>
        <time>2022-07-27T09:08:41Z</time>
      </trkpt>
      <trkpt lat="45.63048" lon="6.59528">
        <ele>1789</ele>
        <time>2022-07-27T09:08:42Z</time>
      </trkpt>
      <trkpt lat="45.63049" lon="6.59528">
        <ele>1789</ele>
        <time>2022-07-27T09:08:43Z</time>
      </trkpt>
      <trkpt lat="45.6305" lon="6.59529">
        <ele>1789</ele>
        <time>2022-07-27T09:08:44Z</time>
      </trkpt>
      <trkpt lat="45.63051" lon="6.59529">
        <ele>1789</ele>
        <time>2022-07-27T09:08:45Z</time>
      </trkpt>
      <trkpt lat="45.63051" lon="6.59529">
        <ele>1789</ele>
        <time>2022-07-27T09:08:46Z</time>
      </trkpt>
      <trkpt lat="45.63052" lon="6.5953">
        <ele>1789</ele>
        <time>2022-07-27T09:08:47Z</time>
      </trkpt>
      <trkpt lat="45.63053" lon="6.59531">
        <ele>1789</ele>
        <time>2022-07-27T09:08:48Z</time>
      </trkpt>
      <trkpt lat="45.63054" lon="6.59532">
        <ele>1789</ele>
        <time>2022-07-27T09:08:49Z</time>
      </trkpt>
      <trkpt lat="45.63054" lon="6.59532">
        <ele>1789</ele>
        <time>2022-07-27T09:08:50Z</time>
      </trkpt>
      <trkpt lat="45.63055" lon="6.59533">
        <ele>1789</ele>
        <time>2022-07-27T09:08:51Z</time>
      </trkpt>
      <trkpt lat="45.63056" lon="6.59534">
        <ele>1789</ele>
        <time>2022-07-27T09:08:52Z</time>
      </trkpt>
      <trkpt lat="45.63056" lon="6.59535">
        <ele>1789</ele>
        <time>2022-07-27T09:08:53Z</time>
      </trkpt>
      <trkpt lat="45.63056" lon="6.59536">
        <ele>1789</ele>
        <time>2022-07-27T09:08:54Z</time>
      </trkpt>
      <trkpt lat="45.63057" lon="6.59538">
        <ele>1789</ele>
        <time>2022-07-27T09:08:55Z</time>
      </trkpt>
      <trkpt lat="45.63057" lon="6.59539">
        <ele>1789</ele>
        <time>2022-07-27T09:08:56Z</time>
      </trkpt>
      <trkpt lat="45.63058" lon="6.5954">
        <ele>1789</ele>
        <time>2022-07-27T09:08:57Z</time>
      </trkpt>
      <trkpt lat="45.63058" lon="6.59542">
        <ele>1789</ele>
        <time>2022-07-27T09:08:58Z</time>
      </trkpt>
      <trkpt lat="45.63059" lon="6.59543">
        <ele>1789</ele>
        <time>2022-07-27T09:08:59Z</time>
      </trkpt>
      <trkpt lat="45.63059" lon="6.59545">
        <ele>1789</ele>
        <time>2022-07-27T09:09:00Z</time>
      </trkpt>
      <trkpt lat="45.6306" lon="6.59546">
        <ele>1789</ele>
        <time>2022-07-27T09:09:01Z</time>
      </trkpt>
      <trkpt lat="45.6306" lon="6.59547">
        <ele>1789</ele>
        <time>2022-07-27T09:09:02Z</time>
      </trkpt>
      <trkpt lat="45.63061" lon="6.59548">
        <ele>1789</ele>
        <time>2022-07-27T09:09:03Z</time>
      </trkpt>
      <trkpt lat="45.63062" lon="6.59549">
        <ele>1789</ele>
        <time>2022-07-27T09:09:04Z</time>
      </trkpt>
      <trkpt lat="45.63062" lon="6.59549">
        <ele>1790</ele>
        <time>2022-07-27T09:09:05Z</time>
      </trkpt>
      <trkpt lat="45.63063" lon="6.5955">
        <ele>1790</ele>
        <time>2022-07-27T09:09:06Z</time>
      </trkpt>
      <trkpt lat="45.63064" lon="6.59551">
        <ele>1790</ele>
        <time>2022-07-27T09:09:07Z</time>
      </trkpt>
      <trkpt lat="45.63065" lon="6.59552">
        <ele>1790</ele>
        <time>2022-07-27T09:09:08Z</time>
      </trkpt>
      <trkpt lat="45.63066" lon="6.59553">
        <ele>1790</ele>
        <time>2022-07-27T09:09:09Z</time>
      </trkpt>
      <trkpt lat="45.63066" lon="6.59554">
        <ele>1790</ele>
        <time>2022-07-27T09:09:10Z</time>
      </trkpt>
      <trkpt lat="45.63067" lon="6.59555">
        <ele>1790</ele>
        <time>2022-07-27T09:09:11Z</time>
      </trkpt>
      <trkpt lat="45.63068" lon="6.59556">
        <ele>1790</ele>
        <time>2022-07-27T09:09:12Z</time>
      </trkpt>
      <trkpt lat="45.63068" lon="6.59557">
        <ele>1790</ele>
        <time>2022-07-27T09:09:13Z</time>
      </trkpt>
      <trkpt lat="45.63069" lon="6.59558">
        <ele>1790</ele>
        <time>2022-07-27T09:09:14Z</time>
      </trkpt>
      <trkpt lat="45.6307" lon="6.59558">
        <ele>1790</ele>
        <time>2022-07-27T09:09:15Z</time>
      </trkpt>
      <trkpt lat="45.63071" lon="6.59559">
        <ele>1790</ele>
        <time>2022-07-27T09:09:16Z</time>
      </trkpt>
      <trkpt lat="45.63072" lon="6.59559">
        <ele>1790</ele>
        <time>2022-07-27T09:09:17Z</time>
      </trkpt>
      <trkpt lat="45.63073" lon="6.59559">
        <ele>1790</ele>
        <time>2022-07-27T09:09:18Z</time>
      </trkpt>
      <trkpt lat="45.63074" lon="6.59559">
        <ele>1790</ele>
        <time>2022-07-27T09:09:19Z</time>
      </trkpt>
      <trkpt lat="45.63075" lon="6.59559">
        <ele>1791</ele>
        <time>2022-07-27T09:09:20Z</time>
      </trkpt>
      <trkpt lat="45.63076" lon="6.59559">
        <ele>1791</ele>
        <time>2022-07-27T09:09:21Z</time>
      </trkpt>
      <trkpt lat="45.63077" lon="6.59559">
        <ele>1791</ele>
        <time>2022-07-27T09:09:22Z</time>
      </trkpt>
      <trkpt lat="45.63077" lon="6.5956">
        <ele>1791</ele>
        <time>2022-07-27T09:09:23Z</time>
      </trkpt>
      <trkpt lat="45.63078" lon="6.59561">
        <ele>1791</ele>
        <time>2022-07-27T09:09:24Z</time>
      </trkpt>
      <trkpt lat="45.63079" lon="6.59561">
        <ele>1791</ele>
        <time>2022-07-27T09:09:25Z</time>
      </trkpt>
      <trkpt lat="45.6308" lon="6.59562">
        <ele>1791</ele>
        <time>2022-07-27T09:09:26Z</time>
      </trkpt>
      <trkpt lat="45.63081" lon="6.59562">
        <ele>1791</ele>
        <time>2022-07-27T09:09:27Z</time>
      </trkpt>
      <trkpt lat="45.63081" lon="6.59563">
        <ele>1791</ele>
        <time>2022-07-27T09:09:28Z</time>
      </trkpt>
      <trkpt lat="45.63083" lon="6.59563">
        <ele>1791</ele>
        <time>2022-07-27T09:09:29Z</time>
      </trkpt>
      <trkpt lat="45.63084" lon="6.59562">
        <ele>1792</ele>
        <time>2022-07-27T09:09:30Z</time>
      </trkpt>
      <trkpt lat="45.63085" lon="6.59562">
        <ele>1792</ele>
        <time>2022-07-27T09:09:31Z</time>
      </trkpt>
      <trkpt lat="45.63086" lon="6.59561">
        <ele>1792</ele>
        <time>2022-07-27T09:09:32Z</time>
      </trkpt>
      <trkpt lat="45.63087" lon="6.59561">
        <ele>1792</ele>
        <time>2022-07-27T09:09:33Z</time>
      </trkpt>
      <trkpt lat="45.63088" lon="6.5956">
        <ele>1792</ele>
        <time>2022-07-27T09:09:34Z</time>
      </trkpt>
      <trkpt lat="45.63089" lon="6.5956">
        <ele>1792</ele>
        <time>2022-07-27T09:09:35Z</time>
      </trkpt>
      <trkpt lat="45.6309" lon="6.59559">
        <ele>1792</ele>
        <time>2022-07-27T09:09:36Z</time>
      </trkpt>
      <trkpt lat="45.63092" lon="6.59559">
        <ele>1792</ele>
        <time>2022-07-27T09:09:37Z</time>
      </trkpt>
      <trkpt lat="45.63093" lon="6.59559">
        <ele>1792</ele>
        <time>2022-07-27T09:09:38Z</time>
      </trkpt>
      <trkpt lat="45.63094" lon="6.59558">
        <ele>1792</ele>
        <time>2022-07-27T09:09:39Z</time>
      </trkpt>
      <trkpt lat="45.63095" lon="6.59558">
        <ele>1792</ele>
        <time>2022-07-27T09:09:40Z</time>
      </trkpt>
      <trkpt lat="45.63096" lon="6.59558">
        <ele>1792</ele>
        <time>2022-07-27T09:09:41Z</time>
      </trkpt>
      <trkpt lat="45.63097" lon="6.59557">
        <ele>1792</ele>
        <time>2022-07-27T09:09:42Z</time>
      </trkpt>
      <trkpt lat="45.63099" lon="6.59557">
        <ele>1792</ele>
        <time>2022-07-27T09:09:43Z</time>
      </trkpt>
      <trkpt lat="45.631" lon="6.59557">
        <ele>1792</ele>
        <time>2022-07-27T09:09:44Z</time>
      </trkpt>
      <trkpt lat="45.63101" lon="6.59557">
        <ele>1792</ele>
        <time>2022-07-27T09:09:45Z</time>
      </trkpt>
      <trkpt lat="45.63103" lon="6.59557">
        <ele>1792</ele>
        <time>2022-07-27T09:09:46Z</time>
      </trkpt>
      <trkpt lat="45.63104" lon="6.59558">
        <ele>1792</ele>
        <time>2022-07-27T09:09:47Z</time>
      </trkpt>
      <trkpt lat="45.63105" lon="6.59558">
        <ele>1792</ele>
        <time>2022-07-27T09:09:48Z</time>
      </trkpt>
      <trkpt lat="45.63107" lon="6.59559">
        <ele>1792</ele>
        <time>2022-07-27T09:09:49Z</time>
      </trkpt>
      <trkpt lat="45.63108" lon="6.5956">
        <ele>1792</ele>
        <time>2022-07-27T09:09:50Z</time>
      </trkpt>
      <trkpt lat="45.63109" lon="6.5956">
        <ele>1791</ele>
        <time>2022-07-27T09:09:51Z</time>
      </trkpt>
      <trkpt lat="45.63111" lon="6.59561">
        <ele>1791</ele>
        <time>2022-07-27T09:09:52Z</time>
      </trkpt>
      <trkpt lat="45.63112" lon="6.59561">
        <ele>1791</ele>
        <time>2022-07-27T09:09:53Z</time>
      </trkpt>
      <trkpt lat="45.63113" lon="6.59562">
        <ele>1791</ele>
        <time>2022-07-27T09:09:54Z</time>
      </trkpt>
      <trkpt lat="45.63114" lon="6.59562">
        <ele>1791</ele>
        <time>2022-07-27T09:09:55Z</time>
      </trkpt>
      <trkpt lat="45.63115" lon="6.59563">
        <ele>1791</ele>
        <time>2022-07-27T09:09:56Z</time>
      </trkpt>
      <trkpt lat="45.63117" lon="6.59563">
        <ele>1791</ele>
        <time>2022-07-27T09:09:57Z</time>
      </trkpt>
      <trkpt lat="45.63118" lon="6.59563">
        <ele>1791</ele>
        <time>2022-07-27T09:09:58Z</time>
      </trkpt>
      <trkpt lat="45.63119" lon="6.59563">
        <ele>1791</ele>
        <time>2022-07-27T09:09:59Z</time>
      </trkpt>
      <trkpt lat="45.6312" lon="6.59563">
        <ele>1791</ele>
        <time>2022-07-27T09:10:00Z</time>
      </trkpt>
      <trkpt lat="45.63121" lon="6.59563">
        <ele>1791</ele>
        <time>2022-07-27T09:10:01Z</time>
      </trkpt>
      <trkpt lat="45.63122" lon="6.59564">
        <ele>1791</ele>
        <time>2022-07-27T09:10:02Z</time>
      </trkpt>
      <trkpt lat="45.63123" lon="6.59564">
        <ele>1791</ele>
        <time>2022-07-27T09:10:03Z</time>
      </trkpt>
      <trkpt lat="45.63124" lon="6.59565">
        <ele>1791</ele>
        <time>2022-07-27T09:10:04Z</time>
      </trkpt>
      <trkpt lat="45.63125" lon="6.59566">
        <ele>1791</ele>
        <time>2022-07-27T09:10:05Z</time>
      </trkpt>
      <trkpt lat="45.63126" lon="6.59567">
        <ele>1790</ele>
        <time>2022-07-27T09:10:06Z</time>
      </trkpt>
      <trkpt lat="45.63127" lon="6.59568">
        <ele>1790</ele>
        <time>2022-07-27T09:10:07Z</time>
      </trkpt>
      <trkpt lat="45.63128" lon="6.59569">
        <ele>1790</ele>
        <time>2022-07-27T09:10:08Z</time>
      </trkpt>
      <trkpt lat="45.63129" lon="6.5957">
        <ele>1790</ele>
        <time>2022-07-27T09:10:09Z</time>
      </trkpt>
      <trkpt lat="45.6313" lon="6.59571">
        <ele>1790</ele>
        <time>2022-07-27T09:10:10Z</time>
      </trkpt>
      <trkpt lat="45.63131" lon="6.59572">
        <ele>1790</ele>
        <time>2022-07-27T09:10:11Z</time>
      </trkpt>
      <trkpt lat="45.63132" lon="6.59572">
        <ele>1790</ele>
        <time>2022-07-27T09:10:12Z</time>
      </trkpt>
      <trkpt lat="45.63133" lon="6.59573">
        <ele>1790</ele>
        <time>2022-07-27T09:10:13Z</time>
      </trkpt>
      <trkpt lat="45.63134" lon="6.59574">
        <ele>1790</ele>
        <time>2022-07-27T09:10:14Z</time>
      </trkpt>
      <trkpt lat="45.63135" lon="6.59574">
        <ele>1790</ele>
        <time>2022-07-27T09:10:15Z</time>
      </trkpt>
      <trkpt lat="45.63136" lon="6.59575">
        <ele>1789</ele>
        <time>2022-07-27T09:10:16Z</time>
      </trkpt>
      <trkpt lat="45.63136" lon="6.59575">
        <ele>1789</ele>
        <time>2022-07-27T09:10:17Z</time>
      </trkpt>
      <trkpt lat="45.63136" lon="6.59575">
        <ele>1789</ele>
        <time>2022-07-27T09:10:18Z</time>
      </trkpt>
      <trkpt lat="45.63136" lon="6.59575">
        <ele>1789</ele>
        <time>2022-07-27T09:10:19Z</time>
      </trkpt>
      <trkpt lat="45.63136" lon="6.59575">
        <ele>1789</ele>
        <time>2022-07-27T09:10:20Z</time>
      </trkpt>
      <trkpt lat="45.63137" lon="6.59575">
        <ele>1789</ele>
        <time>2022-07-27T09:10:21Z</time>
      </trkpt>
      <trkpt lat="45.63137" lon="6.59575">
        <ele>1789</ele>
        <time>2022-07-27T09:10:22Z</time>
      </trkpt>
      <trkpt lat="45.63138" lon="6.59575">
        <ele>1789</ele>
        <time>2022-07-27T09:10:23Z</time>
      </trkpt>
      <trkpt lat="45.63138" lon="6.59575">
        <ele>1789</ele>
        <time>2022-07-27T09:10:24Z</time>
      </trkpt>
      <trkpt lat="45.63139" lon="6.59575">
        <ele>1789</ele>
        <time>2022-07-27T09:10:25Z</time>
      </trkpt>
      <trkpt lat="45.63139" lon="6.59574">
        <ele>1788</ele>
        <time>2022-07-27T09:10:26Z</time>
      </trkpt>
      <trkpt lat="45.6314" lon="6.59573">
        <ele>1788</ele>
        <time>2022-07-27T09:10:27Z</time>
      </trkpt>
      <trkpt lat="45.6314" lon="6.59571">
        <ele>1788</ele>
        <time>2022-07-27T09:10:28Z</time>
      </trkpt>
      <trkpt lat="45.6314" lon="6.5957">
        <ele>1788</ele>
        <time>2022-07-27T09:10:29Z</time>
      </trkpt>
      <trkpt lat="45.6314" lon="6.59568">
        <ele>1788</ele>
        <time>2022-07-27T09:10:30Z</time>
      </trkpt>
      <trkpt lat="45.6314" lon="6.59566">
        <ele>1788</ele>
        <time>2022-07-27T09:10:31Z</time>
      </trkpt>
      <trkpt lat="45.6314" lon="6.59564">
        <ele>1788</ele>
        <time>2022-07-27T09:10:32Z</time>
      </trkpt>
      <trkpt lat="45.6314" lon="6.59563">
        <ele>1788</ele>
        <time>2022-07-27T09:10:33Z</time>
      </trkpt>
      <trkpt lat="45.6314" lon="6.59561">
        <ele>1788</ele>
        <time>2022-07-27T09:10:34Z</time>
      </trkpt>
      <trkpt lat="45.63139" lon="6.59559">
        <ele>1788</ele>
        <time>2022-07-27T09:10:35Z</time>
      </trkpt>
      <trkpt lat="45.63139" lon="6.59558">
        <ele>1788</ele>
        <time>2022-07-27T09:10:36Z</time>
      </trkpt>
      <trkpt lat="45.63139" lon="6.59556">
        <ele>1788</ele>
        <time>2022-07-27T09:10:37Z</time>
      </trkpt>
      <trkpt lat="45.63139" lon="6.59555">
        <ele>1788</ele>
        <time>2022-07-27T09:10:38Z</time>
      </trkpt>
      <trkpt lat="45.63139" lon="6.59553">
        <ele>1788</ele>
        <time>2022-07-27T09:10:39Z</time>
      </trkpt>
      <trkpt lat="45.63139" lon="6.59552">
        <ele>1788</ele>
        <time>2022-07-27T09:10:40Z</time>
      </trkpt>
      <trkpt lat="45.63139" lon="6.5955">
        <ele>1788</ele>
        <time>2022-07-27T09:10:41Z</time>
      </trkpt>
      <trkpt lat="45.63139" lon="6.59546">
        <ele>1789</ele>
        <time>2022-07-27T09:10:53Z</time>
      </trkpt>
      <trkpt lat="45.63139" lon="6.59545">
        <ele>1789</ele>
        <time>2022-07-27T09:10:54Z</time>
      </trkpt>
      <trkpt lat="45.63139" lon="6.59544">
        <ele>1789</ele>
        <time>2022-07-27T09:10:55Z</time>
      </trkpt>
      <trkpt lat="45.63139" lon="6.59542">
        <ele>1789</ele>
        <time>2022-07-27T09:10:56Z</time>
      </trkpt>
      <trkpt lat="45.63139" lon="6.59541">
        <ele>1789</ele>
        <time>2022-07-27T09:10:57Z</time>
      </trkpt>
      <trkpt lat="45.6314" lon="6.59539">
        <ele>1789</ele>
        <time>2022-07-27T09:10:58Z</time>
      </trkpt>
      <trkpt lat="45.6314" lon="6.59538">
        <ele>1789</ele>
        <time>2022-07-27T09:10:59Z</time>
      </trkpt>
      <trkpt lat="45.63141" lon="6.59536">
        <ele>1789</ele>
        <time>2022-07-27T09:11:00Z</time>
      </trkpt>
      <trkpt lat="45.63142" lon="6.59535">
        <ele>1789</ele>
        <time>2022-07-27T09:11:01Z</time>
      </trkpt>
      <trkpt lat="45.63143" lon="6.59533">
        <ele>1789</ele>
        <time>2022-07-27T09:11:02Z</time>
      </trkpt>
      <trkpt lat="45.63144" lon="6.59532">
        <ele>1789</ele>
        <time>2022-07-27T09:11:03Z</time>
      </trkpt>
      <trkpt lat="45.63145" lon="6.59531">
        <ele>1789</ele>
        <time>2022-07-27T09:11:04Z</time>
      </trkpt>
      <trkpt lat="45.63146" lon="6.59531">
        <ele>1789</ele>
        <time>2022-07-27T09:11:05Z</time>
      </trkpt>
      <trkpt lat="45.63146" lon="6.5953">
        <ele>1789</ele>
        <time>2022-07-27T09:11:06Z</time>
      </trkpt>
      <trkpt lat="45.63147" lon="6.5953">
        <ele>1789</ele>
        <time>2022-07-27T09:11:07Z</time>
      </trkpt>
      <trkpt lat="45.63148" lon="6.59529">
        <ele>1789</ele>
        <time>2022-07-27T09:11:08Z</time>
      </trkpt>
      <trkpt lat="45.63149" lon="6.59529">
        <ele>1789</ele>
        <time>2022-07-27T09:11:09Z</time>
      </trkpt>
      <trkpt lat="45.6315" lon="6.59529">
        <ele>1789</ele>
        <time>2022-07-27T09:11:10Z</time>
      </trkpt>
      <trkpt lat="45.63151" lon="6.59528">
        <ele>1789</ele>
        <time>2022-07-27T09:11:11Z</time>
      </trkpt>
      <trkpt lat="45.63152" lon="6.59528">
        <ele>1789</ele>
        <time>2022-07-27T09:11:12Z</time>
      </trkpt>
      <trkpt lat="45.63153" lon="6.59527">
        <ele>1789</ele>
        <time>2022-07-27T09:11:13Z</time>
      </trkpt>
      <trkpt lat="45.63153" lon="6.59527">
        <ele>1789</ele>
        <time>2022-07-27T09:11:14Z</time>
      </trkpt>
      <trkpt lat="45.63153" lon="6.59526">
        <ele>1789</ele>
        <time>2022-07-27T09:11:15Z</time>
      </trkpt>
      <trkpt lat="45.63153" lon="6.59526">
        <ele>1789</ele>
        <time>2022-07-27T09:11:16Z</time>
      </trkpt>
      <trkpt lat="45.63153" lon="6.59525">
        <ele>1789</ele>
        <time>2022-07-27T09:11:17Z</time>
      </trkpt>
      <trkpt lat="45.63153" lon="6.59525">
        <ele>1789</ele>
        <time>2022-07-27T09:11:18Z</time>
      </trkpt>
      <trkpt lat="45.63153" lon="6.59524">
        <ele>1789</ele>
        <time>2022-07-27T09:11:19Z</time>
      </trkpt>
      <trkpt lat="45.63153" lon="6.59523">
        <ele>1789</ele>
        <time>2022-07-27T09:11:20Z</time>
      </trkpt>
      <trkpt lat="45.63153" lon="6.59521">
        <ele>1789</ele>
        <time>2022-07-27T09:11:21Z</time>
      </trkpt>
      <trkpt lat="45.63153" lon="6.5952">
        <ele>1789</ele>
        <time>2022-07-27T09:11:22Z</time>
      </trkpt>
      <trkpt lat="45.63153" lon="6.59518">
        <ele>1789</ele>
        <time>2022-07-27T09:11:23Z</time>
      </trkpt>
      <trkpt lat="45.63153" lon="6.59517">
        <ele>1789</ele>
        <time>2022-07-27T09:11:24Z</time>
      </trkpt>
      <trkpt lat="45.63154" lon="6.59515">
        <ele>1789</ele>
        <time>2022-07-27T09:11:25Z</time>
      </trkpt>
      <trkpt lat="45.63154" lon="6.59513">
        <ele>1789</ele>
        <time>2022-07-27T09:11:26Z</time>
      </trkpt>
      <trkpt lat="45.63154" lon="6.59512">
        <ele>1789</ele>
        <time>2022-07-27T09:11:27Z</time>
      </trkpt>
      <trkpt lat="45.63155" lon="6.5951">
        <ele>1789</ele>
        <time>2022-07-27T09:11:28Z</time>
      </trkpt>
      <trkpt lat="45.63155" lon="6.59509">
        <ele>1789</ele>
        <time>2022-07-27T09:11:29Z</time>
      </trkpt>
      <trkpt lat="45.63156" lon="6.59508">
        <ele>1789</ele>
        <time>2022-07-27T09:11:30Z</time>
      </trkpt>
      <trkpt lat="45.63156" lon="6.59507">
        <ele>1789</ele>
        <time>2022-07-27T09:11:31Z</time>
      </trkpt>
      <trkpt lat="45.63156" lon="6.59506">
        <ele>1789</ele>
        <time>2022-07-27T09:11:32Z</time>
      </trkpt>
      <trkpt lat="45.63156" lon="6.59505">
        <ele>1789</ele>
        <time>2022-07-27T09:11:33Z</time>
      </trkpt>
      <trkpt lat="45.63156" lon="6.59504">
        <ele>1789</ele>
        <time>2022-07-27T09:11:34Z</time>
      </trkpt>
      <trkpt lat="45.63156" lon="6.59503">
        <ele>1789</ele>
        <time>2022-07-27T09:11:35Z</time>
      </trkpt>
      <trkpt lat="45.63156" lon="6.59502">
        <ele>1788</ele>
        <time>2022-07-27T09:11:36Z</time>
      </trkpt>
      <trkpt lat="45.63156" lon="6.59501">
        <ele>1788</ele>
        <time>2022-07-27T09:11:37Z</time>
      </trkpt>
      <trkpt lat="45.63156" lon="6.595">
        <ele>1788</ele>
        <time>2022-07-27T09:11:38Z</time>
      </trkpt>
      <trkpt lat="45.63156" lon="6.59499">
        <ele>1788</ele>
        <time>2022-07-27T09:11:39Z</time>
      </trkpt>
      <trkpt lat="45.63156" lon="6.59498">
        <ele>1788</ele>
        <time>2022-07-27T09:11:40Z</time>
      </trkpt>
      <trkpt lat="45.63156" lon="6.59497">
        <ele>1787</ele>
        <time>2022-07-27T09:11:41Z</time>
      </trkpt>
      <trkpt lat="45.63156" lon="6.59496">
        <ele>1787</ele>
        <time>2022-07-27T09:11:42Z</time>
      </trkpt>
      <trkpt lat="45.63156" lon="6.59495">
        <ele>1787</ele>
        <time>2022-07-27T09:11:43Z</time>
      </trkpt>
      <trkpt lat="45.63156" lon="6.59494">
        <ele>1787</ele>
        <time>2022-07-27T09:11:44Z</time>
      </trkpt>
      <trkpt lat="45.63155" lon="6.59493">
        <ele>1787</ele>
        <time>2022-07-27T09:11:45Z</time>
      </trkpt>
      <trkpt lat="45.63155" lon="6.59492">
        <ele>1786</ele>
        <time>2022-07-27T09:11:46Z</time>
      </trkpt>
      <trkpt lat="45.63155" lon="6.59491">
        <ele>1786</ele>
        <time>2022-07-27T09:11:47Z</time>
      </trkpt>
      <trkpt lat="45.63155" lon="6.59489">
        <ele>1786</ele>
        <time>2022-07-27T09:11:48Z</time>
      </trkpt>
      <trkpt lat="45.63155" lon="6.59488">
        <ele>1786</ele>
        <time>2022-07-27T09:11:49Z</time>
      </trkpt>
      <trkpt lat="45.63155" lon="6.59486">
        <ele>1786</ele>
        <time>2022-07-27T09:11:50Z</time>
      </trkpt>
      <trkpt lat="45.63155" lon="6.59486">
        <ele>1786</ele>
        <time>2022-07-27T09:11:51Z</time>
      </trkpt>
      <trkpt lat="45.63156" lon="6.59485">
        <ele>1786</ele>
        <time>2022-07-27T09:11:52Z</time>
      </trkpt>
      <trkpt lat="45.63156" lon="6.59484">
        <ele>1786</ele>
        <time>2022-07-27T09:11:53Z</time>
      </trkpt>
      <trkpt lat="45.63156" lon="6.59483">
        <ele>1786</ele>
        <time>2022-07-27T09:11:54Z</time>
      </trkpt>
      <trkpt lat="45.63157" lon="6.59482">
        <ele>1786</ele>
        <time>2022-07-27T09:11:55Z</time>
      </trkpt>
      <trkpt lat="45.63157" lon="6.59482">
        <ele>1785</ele>
        <time>2022-07-27T09:11:56Z</time>
      </trkpt>
      <trkpt lat="45.63158" lon="6.59481">
        <ele>1785</ele>
        <time>2022-07-27T09:11:57Z</time>
      </trkpt>
      <trkpt lat="45.63158" lon="6.5948">
        <ele>1785</ele>
        <time>2022-07-27T09:11:58Z</time>
      </trkpt>
      <trkpt lat="45.63159" lon="6.5948">
        <ele>1785</ele>
        <time>2022-07-27T09:11:59Z</time>
      </trkpt>
      <trkpt lat="45.6316" lon="6.59479">
        <ele>1785</ele>
        <time>2022-07-27T09:12:00Z</time>
      </trkpt>
      <trkpt lat="45.6316" lon="6.59479">
        <ele>1784</ele>
        <time>2022-07-27T09:12:01Z</time>
      </trkpt>
      <trkpt lat="45.63161" lon="6.59478">
        <ele>1784</ele>
        <time>2022-07-27T09:12:02Z</time>
      </trkpt>
      <trkpt lat="45.63162" lon="6.59478">
        <ele>1784</ele>
        <time>2022-07-27T09:12:03Z</time>
      </trkpt>
      <trkpt lat="45.63163" lon="6.59478">
        <ele>1784</ele>
        <time>2022-07-27T09:12:04Z</time>
      </trkpt>
      <trkpt lat="45.63164" lon="6.59478">
        <ele>1784</ele>
        <time>2022-07-27T09:12:05Z</time>
      </trkpt>
      <trkpt lat="45.63164" lon="6.59478">
        <ele>1783</ele>
        <time>2022-07-27T09:12:06Z</time>
      </trkpt>
      <trkpt lat="45.63165" lon="6.59477">
        <ele>1783</ele>
        <time>2022-07-27T09:12:07Z</time>
      </trkpt>
      <trkpt lat="45.63166" lon="6.59477">
        <ele>1783</ele>
        <time>2022-07-27T09:12:14Z</time>
      </trkpt>
      <trkpt lat="45.63167" lon="6.59477">
        <ele>1783</ele>
        <time>2022-07-27T09:12:15Z</time>
      </trkpt>
      <trkpt lat="45.63167" lon="6.59478">
        <ele>1782</ele>
        <time>2022-07-27T09:12:16Z</time>
      </trkpt>
      <trkpt lat="45.63168" lon="6.59478">
        <ele>1782</ele>
        <time>2022-07-27T09:12:17Z</time>
      </trkpt>
      <trkpt lat="45.63168" lon="6.59478">
        <ele>1782</ele>
        <time>2022-07-27T09:12:18Z</time>
      </trkpt>
      <trkpt lat="45.63169" lon="6.59478">
        <ele>1782</ele>
        <time>2022-07-27T09:12:19Z</time>
      </trkpt>
      <trkpt lat="45.63169" lon="6.59478">
        <ele>1782</ele>
        <time>2022-07-27T09:12:20Z</time>
      </trkpt>
      <trkpt lat="45.6317" lon="6.59478">
        <ele>1781</ele>
        <time>2022-07-27T09:12:29Z</time>
      </trkpt>
      <trkpt lat="45.63171" lon="6.59478">
        <ele>1781</ele>
        <time>2022-07-27T09:12:30Z</time>
      </trkpt>
      <trkpt lat="45.63172" lon="6.59478">
        <ele>1781</ele>
        <time>2022-07-27T09:12:31Z</time>
      </trkpt>
      <trkpt lat="45.63172" lon="6.59478">
        <ele>1781</ele>
        <time>2022-07-27T09:12:32Z</time>
      </trkpt>
      <trkpt lat="45.63173" lon="6.59478">
        <ele>1781</ele>
        <time>2022-07-27T09:12:33Z</time>
      </trkpt>
      <trkpt lat="45.63174" lon="6.59477">
        <ele>1781</ele>
        <time>2022-07-27T09:12:34Z</time>
      </trkpt>
      <trkpt lat="45.63174" lon="6.59477">
        <ele>1781</ele>
        <time>2022-07-27T09:12:35Z</time>
      </trkpt>
      <trkpt lat="45.63175" lon="6.59476">
        <ele>1780</ele>
        <time>2022-07-27T09:12:36Z</time>
      </trkpt>
      <trkpt lat="45.63176" lon="6.59475">
        <ele>1780</ele>
        <time>2022-07-27T09:12:37Z</time>
      </trkpt>
      <trkpt lat="45.63176" lon="6.59474">
        <ele>1780</ele>
        <time>2022-07-27T09:12:38Z</time>
      </trkpt>
      <trkpt lat="45.63177" lon="6.59473">
        <ele>1780</ele>
        <time>2022-07-27T09:12:39Z</time>
      </trkpt>
      <trkpt lat="45.63177" lon="6.59472">
        <ele>1780</ele>
        <time>2022-07-27T09:12:40Z</time>
      </trkpt>
      <trkpt lat="45.63178" lon="6.59471">
        <ele>1779</ele>
        <time>2022-07-27T09:12:41Z</time>
      </trkpt>
      <trkpt lat="45.63178" lon="6.59471">
        <ele>1779</ele>
        <time>2022-07-27T09:12:42Z</time>
      </trkpt>
      <trkpt lat="45.63179" lon="6.5947">
        <ele>1779</ele>
        <time>2022-07-27T09:12:43Z</time>
      </trkpt>
      <trkpt lat="45.63179" lon="6.5947">
        <ele>1779</ele>
        <time>2022-07-27T09:12:44Z</time>
      </trkpt>
      <trkpt lat="45.63179" lon="6.59469">
        <ele>1779</ele>
        <time>2022-07-27T09:12:45Z</time>
      </trkpt>
      <trkpt lat="45.63179" lon="6.59468">
        <ele>1779</ele>
        <time>2022-07-27T09:12:46Z</time>
      </trkpt>
      <trkpt lat="45.6318" lon="6.59466">
        <ele>1779</ele>
        <time>2022-07-27T09:12:47Z</time>
      </trkpt>
      <trkpt lat="45.6318" lon="6.59465">
        <ele>1779</ele>
        <time>2022-07-27T09:12:48Z</time>
      </trkpt>
      <trkpt lat="45.6318" lon="6.59464">
        <ele>1779</ele>
        <time>2022-07-27T09:12:49Z</time>
      </trkpt>
      <trkpt lat="45.63181" lon="6.59463">
        <ele>1779</ele>
        <time>2022-07-27T09:12:50Z</time>
      </trkpt>
      <trkpt lat="45.63182" lon="6.59462">
        <ele>1778</ele>
        <time>2022-07-27T09:12:51Z</time>
      </trkpt>
      <trkpt lat="45.63182" lon="6.59461">
        <ele>1778</ele>
        <time>2022-07-27T09:12:52Z</time>
      </trkpt>
      <trkpt lat="45.63183" lon="6.5946">
        <ele>1778</ele>
        <time>2022-07-27T09:12:53Z</time>
      </trkpt>
      <trkpt lat="45.63184" lon="6.59459">
        <ele>1778</ele>
        <time>2022-07-27T09:12:54Z</time>
      </trkpt>
      <trkpt lat="45.63184" lon="6.59458">
        <ele>1778</ele>
        <time>2022-07-27T09:12:55Z</time>
      </trkpt>
      <trkpt lat="45.63185" lon="6.59457">
        <ele>1777</ele>
        <time>2022-07-27T09:12:56Z</time>
      </trkpt>
      <trkpt lat="45.63185" lon="6.59456">
        <ele>1777</ele>
        <time>2022-07-27T09:12:57Z</time>
      </trkpt>
      <trkpt lat="45.63185" lon="6.59455">
        <ele>1777</ele>
        <time>2022-07-27T09:12:58Z</time>
      </trkpt>
      <trkpt lat="45.63185" lon="6.59454">
        <ele>1777</ele>
        <time>2022-07-27T09:12:59Z</time>
      </trkpt>
      <trkpt lat="45.63185" lon="6.59452">
        <ele>1777</ele>
        <time>2022-07-27T09:13:00Z</time>
      </trkpt>
      <trkpt lat="45.63185" lon="6.59451">
        <ele>1777</ele>
        <time>2022-07-27T09:13:01Z</time>
      </trkpt>
      <trkpt lat="45.63185" lon="6.5945">
        <ele>1777</ele>
        <time>2022-07-27T09:13:02Z</time>
      </trkpt>
      <trkpt lat="45.63184" lon="6.59448">
        <ele>1777</ele>
        <time>2022-07-27T09:13:03Z</time>
      </trkpt>
      <trkpt lat="45.63184" lon="6.59447">
        <ele>1777</ele>
        <time>2022-07-27T09:13:04Z</time>
      </trkpt>
      <trkpt lat="45.63184" lon="6.59446">
        <ele>1777</ele>
        <time>2022-07-27T09:13:05Z</time>
      </trkpt>
      <trkpt lat="45.63183" lon="6.59445">
        <ele>1776</ele>
        <time>2022-07-27T09:13:06Z</time>
      </trkpt>
      <trkpt lat="45.63183" lon="6.59444">
        <ele>1776</ele>
        <time>2022-07-27T09:13:07Z</time>
      </trkpt>
      <trkpt lat="45.63183" lon="6.59443">
        <ele>1776</ele>
        <time>2022-07-27T09:13:08Z</time>
      </trkpt>
      <trkpt lat="45.63182" lon="6.59442">
        <ele>1776</ele>
        <time>2022-07-27T09:13:09Z</time>
      </trkpt>
      <trkpt lat="45.63182" lon="6.59441">
        <ele>1776</ele>
        <time>2022-07-27T09:13:10Z</time>
      </trkpt>
      <trkpt lat="45.63182" lon="6.59439">
        <ele>1776</ele>
        <time>2022-07-27T09:13:11Z</time>
      </trkpt>
      <trkpt lat="45.63182" lon="6.59438">
        <ele>1776</ele>
        <time>2022-07-27T09:13:12Z</time>
      </trkpt>
      <trkpt lat="45.63182" lon="6.59437">
        <ele>1776</ele>
        <time>2022-07-27T09:13:13Z</time>
      </trkpt>
      <trkpt lat="45.63182" lon="6.59436">
        <ele>1776</ele>
        <time>2022-07-27T09:13:14Z</time>
      </trkpt>
      <trkpt lat="45.63182" lon="6.59434">
        <ele>1776</ele>
        <time>2022-07-27T09:13:15Z</time>
      </trkpt>
      <trkpt lat="45.63183" lon="6.59433">
        <ele>1776</ele>
        <time>2022-07-27T09:13:16Z</time>
      </trkpt>
      <trkpt lat="45.63183" lon="6.59432">
        <ele>1776</ele>
        <time>2022-07-27T09:13:17Z</time>
      </trkpt>
      <trkpt lat="45.63184" lon="6.59431">
        <ele>1776</ele>
        <time>2022-07-27T09:13:18Z</time>
      </trkpt>
      <trkpt lat="45.63184" lon="6.5943">
        <ele>1776</ele>
        <time>2022-07-27T09:13:19Z</time>
      </trkpt>
      <trkpt lat="45.63185" lon="6.59428">
        <ele>1776</ele>
        <time>2022-07-27T09:13:20Z</time>
      </trkpt>
      <trkpt lat="45.63186" lon="6.59427">
        <ele>1776</ele>
        <time>2022-07-27T09:13:21Z</time>
      </trkpt>
      <trkpt lat="45.63187" lon="6.59426">
        <ele>1776</ele>
        <time>2022-07-27T09:13:22Z</time>
      </trkpt>
      <trkpt lat="45.63188" lon="6.59425">
        <ele>1776</ele>
        <time>2022-07-27T09:13:23Z</time>
      </trkpt>
      <trkpt lat="45.63189" lon="6.59423">
        <ele>1776</ele>
        <time>2022-07-27T09:13:24Z</time>
      </trkpt>
      <trkpt lat="45.6319" lon="6.59422">
        <ele>1776</ele>
        <time>2022-07-27T09:13:25Z</time>
      </trkpt>
      <trkpt lat="45.63191" lon="6.59421">
        <ele>1776</ele>
        <time>2022-07-27T09:13:26Z</time>
      </trkpt>
      <trkpt lat="45.63191" lon="6.5942">
        <ele>1776</ele>
        <time>2022-07-27T09:13:27Z</time>
      </trkpt>
      <trkpt lat="45.63192" lon="6.59418">
        <ele>1776</ele>
        <time>2022-07-27T09:13:28Z</time>
      </trkpt>
      <trkpt lat="45.63192" lon="6.59417">
        <ele>1776</ele>
        <time>2022-07-27T09:13:29Z</time>
      </trkpt>
      <trkpt lat="45.63192" lon="6.59415">
        <ele>1776</ele>
        <time>2022-07-27T09:13:30Z</time>
      </trkpt>
      <trkpt lat="45.63193" lon="6.59414">
        <ele>1776</ele>
        <time>2022-07-27T09:13:31Z</time>
      </trkpt>
      <trkpt lat="45.63193" lon="6.59412">
        <ele>1776</ele>
        <time>2022-07-27T09:13:32Z</time>
      </trkpt>
      <trkpt lat="45.63193" lon="6.5941">
        <ele>1776</ele>
        <time>2022-07-27T09:13:33Z</time>
      </trkpt>
      <trkpt lat="45.63194" lon="6.59409">
        <ele>1776</ele>
        <time>2022-07-27T09:13:34Z</time>
      </trkpt>
      <trkpt lat="45.63194" lon="6.59407">
        <ele>1776</ele>
        <time>2022-07-27T09:13:35Z</time>
      </trkpt>
      <trkpt lat="45.63194" lon="6.59406">
        <ele>1776</ele>
        <time>2022-07-27T09:13:36Z</time>
      </trkpt>
      <trkpt lat="45.63195" lon="6.59404">
        <ele>1776</ele>
        <time>2022-07-27T09:13:37Z</time>
      </trkpt>
      <trkpt lat="45.63195" lon="6.59403">
        <ele>1776</ele>
        <time>2022-07-27T09:13:38Z</time>
      </trkpt>
      <trkpt lat="45.63196" lon="6.59402">
        <ele>1776</ele>
        <time>2022-07-27T09:13:39Z</time>
      </trkpt>
      <trkpt lat="45.63196" lon="6.594">
        <ele>1776</ele>
        <time>2022-07-27T09:13:40Z</time>
      </trkpt>
      <trkpt lat="45.63197" lon="6.59399">
        <ele>1776</ele>
        <time>2022-07-27T09:13:41Z</time>
      </trkpt>
      <trkpt lat="45.63197" lon="6.59397">
        <ele>1776</ele>
        <time>2022-07-27T09:13:42Z</time>
      </trkpt>
      <trkpt lat="45.63197" lon="6.59395">
        <ele>1776</ele>
        <time>2022-07-27T09:13:43Z</time>
      </trkpt>
      <trkpt lat="45.63197" lon="6.59394">
        <ele>1776</ele>
        <time>2022-07-27T09:13:44Z</time>
      </trkpt>
      <trkpt lat="45.63197" lon="6.59392">
        <ele>1776</ele>
        <time>2022-07-27T09:13:45Z</time>
      </trkpt>
      <trkpt lat="45.63197" lon="6.59391">
        <ele>1776</ele>
        <time>2022-07-27T09:13:46Z</time>
      </trkpt>
      <trkpt lat="45.63197" lon="6.59389">
        <ele>1776</ele>
        <time>2022-07-27T09:13:47Z</time>
      </trkpt>
      <trkpt lat="45.63198" lon="6.59387">
        <ele>1776</ele>
        <time>2022-07-27T09:13:48Z</time>
      </trkpt>
      <trkpt lat="45.63198" lon="6.59386">
        <ele>1776</ele>
        <time>2022-07-27T09:13:49Z</time>
      </trkpt>
      <trkpt lat="45.63198" lon="6.59384">
        <ele>1776</ele>
        <time>2022-07-27T09:13:50Z</time>
      </trkpt>
      <trkpt lat="45.63198" lon="6.59383">
        <ele>1776</ele>
        <time>2022-07-27T09:13:51Z</time>
      </trkpt>
      <trkpt lat="45.63199" lon="6.59382">
        <ele>1776</ele>
        <time>2022-07-27T09:13:52Z</time>
      </trkpt>
      <trkpt lat="45.63199" lon="6.5938">
        <ele>1776</ele>
        <time>2022-07-27T09:13:53Z</time>
      </trkpt>
      <trkpt lat="45.632" lon="6.59379">
        <ele>1776</ele>
        <time>2022-07-27T09:13:54Z</time>
      </trkpt>
      <trkpt lat="45.632" lon="6.59377">
        <ele>1776</ele>
        <time>2022-07-27T09:13:55Z</time>
      </trkpt>
      <trkpt lat="45.63201" lon="6.59376">
        <ele>1776</ele>
        <time>2022-07-27T09:13:56Z</time>
      </trkpt>
      <trkpt lat="45.63201" lon="6.59374">
        <ele>1776</ele>
        <time>2022-07-27T09:13:57Z</time>
      </trkpt>
      <trkpt lat="45.63202" lon="6.59373">
        <ele>1776</ele>
        <time>2022-07-27T09:13:58Z</time>
      </trkpt>
      <trkpt lat="45.63202" lon="6.59371">
        <ele>1776</ele>
        <time>2022-07-27T09:13:59Z</time>
      </trkpt>
      <trkpt lat="45.63203" lon="6.59369">
        <ele>1776</ele>
        <time>2022-07-27T09:14:00Z</time>
      </trkpt>
      <trkpt lat="45.63203" lon="6.59368">
        <ele>1776</ele>
        <time>2022-07-27T09:14:01Z</time>
      </trkpt>
      <trkpt lat="45.63204" lon="6.59366">
        <ele>1776</ele>
        <time>2022-07-27T09:14:02Z</time>
      </trkpt>
      <trkpt lat="45.63204" lon="6.59364">
        <ele>1776</ele>
        <time>2022-07-27T09:14:03Z</time>
      </trkpt>
      <trkpt lat="45.63205" lon="6.59363">
        <ele>1776</ele>
        <time>2022-07-27T09:14:04Z</time>
      </trkpt>
      <trkpt lat="45.63205" lon="6.59361">
        <ele>1776</ele>
        <time>2022-07-27T09:14:05Z</time>
      </trkpt>
      <trkpt lat="45.63206" lon="6.59359">
        <ele>1776</ele>
        <time>2022-07-27T09:14:06Z</time>
      </trkpt>
      <trkpt lat="45.63206" lon="6.59358">
        <ele>1776</ele>
        <time>2022-07-27T09:14:07Z</time>
      </trkpt>
      <trkpt lat="45.63207" lon="6.59356">
        <ele>1776</ele>
        <time>2022-07-27T09:14:08Z</time>
      </trkpt>
      <trkpt lat="45.63208" lon="6.59355">
        <ele>1776</ele>
        <time>2022-07-27T09:14:09Z</time>
      </trkpt>
      <trkpt lat="45.63209" lon="6.59354">
        <ele>1776</ele>
        <time>2022-07-27T09:14:10Z</time>
      </trkpt>
      <trkpt lat="45.63209" lon="6.59352">
        <ele>1776</ele>
        <time>2022-07-27T09:14:11Z</time>
      </trkpt>
      <trkpt lat="45.6321" lon="6.59351">
        <ele>1776</ele>
        <time>2022-07-27T09:14:12Z</time>
      </trkpt>
      <trkpt lat="45.63211" lon="6.59349">
        <ele>1776</ele>
        <time>2022-07-27T09:14:13Z</time>
      </trkpt>
      <trkpt lat="45.63211" lon="6.59348">
        <ele>1776</ele>
        <time>2022-07-27T09:14:14Z</time>
      </trkpt>
      <trkpt lat="45.63212" lon="6.59347">
        <ele>1776</ele>
        <time>2022-07-27T09:14:15Z</time>
      </trkpt>
      <trkpt lat="45.63213" lon="6.59345">
        <ele>1776</ele>
        <time>2022-07-27T09:14:16Z</time>
      </trkpt>
      <trkpt lat="45.63213" lon="6.59344">
        <ele>1776</ele>
        <time>2022-07-27T09:14:17Z</time>
      </trkpt>
      <trkpt lat="45.63214" lon="6.59343">
        <ele>1776</ele>
        <time>2022-07-27T09:14:18Z</time>
      </trkpt>
      <trkpt lat="45.63215" lon="6.59341">
        <ele>1776</ele>
        <time>2022-07-27T09:14:19Z</time>
      </trkpt>
      <trkpt lat="45.63215" lon="6.5934">
        <ele>1776</ele>
        <time>2022-07-27T09:14:20Z</time>
      </trkpt>
      <trkpt lat="45.63216" lon="6.59339">
        <ele>1776</ele>
        <time>2022-07-27T09:14:21Z</time>
      </trkpt>
      <trkpt lat="45.63216" lon="6.59337">
        <ele>1776</ele>
        <time>2022-07-27T09:14:22Z</time>
      </trkpt>
      <trkpt lat="45.63216" lon="6.59336">
        <ele>1776</ele>
        <time>2022-07-27T09:14:23Z</time>
      </trkpt>
      <trkpt lat="45.63217" lon="6.59335">
        <ele>1776</ele>
        <time>2022-07-27T09:14:24Z</time>
      </trkpt>
      <trkpt lat="45.63217" lon="6.59334">
        <ele>1776</ele>
        <time>2022-07-27T09:14:25Z</time>
      </trkpt>
      <trkpt lat="45.63217" lon="6.59332">
        <ele>1774</ele>
        <time>2022-07-27T09:14:37Z</time>
      </trkpt>
      <trkpt lat="45.63217" lon="6.59331">
        <ele>1774</ele>
        <time>2022-07-27T09:14:38Z</time>
      </trkpt>
      <trkpt lat="45.63217" lon="6.59329">
        <ele>1774</ele>
        <time>2022-07-27T09:14:39Z</time>
      </trkpt>
      <trkpt lat="45.63217" lon="6.59328">
        <ele>1774</ele>
        <time>2022-07-27T09:14:40Z</time>
      </trkpt>
      <trkpt lat="45.63217" lon="6.59327">
        <ele>1774</ele>
        <time>2022-07-27T09:14:41Z</time>
      </trkpt>
      <trkpt lat="45.63217" lon="6.59325">
        <ele>1774</ele>
        <time>2022-07-27T09:14:42Z</time>
      </trkpt>
      <trkpt lat="45.63218" lon="6.59323">
        <ele>1774</ele>
        <time>2022-07-27T09:14:43Z</time>
      </trkpt>
      <trkpt lat="45.63218" lon="6.59322">
        <ele>1774</ele>
        <time>2022-07-27T09:14:44Z</time>
      </trkpt>
      <trkpt lat="45.63218" lon="6.5932">
        <ele>1774</ele>
        <time>2022-07-27T09:14:45Z</time>
      </trkpt>
      <trkpt lat="45.63218" lon="6.59318">
        <ele>1774</ele>
        <time>2022-07-27T09:14:46Z</time>
      </trkpt>
      <trkpt lat="45.63217" lon="6.59316">
        <ele>1774</ele>
        <time>2022-07-27T09:14:47Z</time>
      </trkpt>
      <trkpt lat="45.63217" lon="6.59314">
        <ele>1774</ele>
        <time>2022-07-27T09:14:48Z</time>
      </trkpt>
      <trkpt lat="45.63217" lon="6.59311">
        <ele>1774</ele>
        <time>2022-07-27T09:14:49Z</time>
      </trkpt>
      <trkpt lat="45.63218" lon="6.59309">
        <ele>1774</ele>
        <time>2022-07-27T09:14:50Z</time>
      </trkpt>
      <trkpt lat="45.63218" lon="6.59307">
        <ele>1773</ele>
        <time>2022-07-27T09:14:51Z</time>
      </trkpt>
      <trkpt lat="45.63218" lon="6.59306">
        <ele>1773</ele>
        <time>2022-07-27T09:14:52Z</time>
      </trkpt>
      <trkpt lat="45.63219" lon="6.59304">
        <ele>1773</ele>
        <time>2022-07-27T09:14:53Z</time>
      </trkpt>
      <trkpt lat="45.6322" lon="6.59303">
        <ele>1773</ele>
        <time>2022-07-27T09:14:54Z</time>
      </trkpt>
      <trkpt lat="45.6322" lon="6.59301">
        <ele>1773</ele>
        <time>2022-07-27T09:14:55Z</time>
      </trkpt>
      <trkpt lat="45.63221" lon="6.593">
        <ele>1772</ele>
        <time>2022-07-27T09:14:56Z</time>
      </trkpt>
      <trkpt lat="45.63222" lon="6.59299">
        <ele>1772</ele>
        <time>2022-07-27T09:14:57Z</time>
      </trkpt>
      <trkpt lat="45.63222" lon="6.59297">
        <ele>1772</ele>
        <time>2022-07-27T09:14:58Z</time>
      </trkpt>
      <trkpt lat="45.63223" lon="6.59296">
        <ele>1772</ele>
        <time>2022-07-27T09:14:59Z</time>
      </trkpt>
      <trkpt lat="45.63223" lon="6.59294">
        <ele>1772</ele>
        <time>2022-07-27T09:15:00Z</time>
      </trkpt>
      <trkpt lat="45.63223" lon="6.59293">
        <ele>1771</ele>
        <time>2022-07-27T09:15:01Z</time>
      </trkpt>
      <trkpt lat="45.63224" lon="6.59291">
        <ele>1771</ele>
        <time>2022-07-27T09:15:02Z</time>
      </trkpt>
      <trkpt lat="45.63224" lon="6.5929">
        <ele>1770</ele>
        <time>2022-07-27T09:15:03Z</time>
      </trkpt>
      <trkpt lat="45.63225" lon="6.59288">
        <ele>1770</ele>
        <time>2022-07-27T09:15:04Z</time>
      </trkpt>
      <trkpt lat="45.63226" lon="6.59287">
        <ele>1770</ele>
        <time>2022-07-27T09:15:05Z</time>
      </trkpt>
      <trkpt lat="45.63226" lon="6.59286">
        <ele>1769</ele>
        <time>2022-07-27T09:15:06Z</time>
      </trkpt>
      <trkpt lat="45.63227" lon="6.59285">
        <ele>1769</ele>
        <time>2022-07-27T09:15:07Z</time>
      </trkpt>
      <trkpt lat="45.63228" lon="6.59283">
        <ele>1769</ele>
        <time>2022-07-27T09:15:08Z</time>
      </trkpt>
      <trkpt lat="45.63229" lon="6.59282">
        <ele>1769</ele>
        <time>2022-07-27T09:15:09Z</time>
      </trkpt>
      <trkpt lat="45.6323" lon="6.59281">
        <ele>1769</ele>
        <time>2022-07-27T09:15:10Z</time>
      </trkpt>
      <trkpt lat="45.6323" lon="6.5928">
        <ele>1769</ele>
        <time>2022-07-27T09:15:11Z</time>
      </trkpt>
      <trkpt lat="45.63231" lon="6.59279">
        <ele>1769</ele>
        <time>2022-07-27T09:15:12Z</time>
      </trkpt>
      <trkpt lat="45.63232" lon="6.59278">
        <ele>1769</ele>
        <time>2022-07-27T09:15:13Z</time>
      </trkpt>
      <trkpt lat="45.63233" lon="6.59278">
        <ele>1769</ele>
        <time>2022-07-27T09:15:14Z</time>
      </trkpt>
      <trkpt lat="45.63234" lon="6.59277">
        <ele>1769</ele>
        <time>2022-07-27T09:15:15Z</time>
      </trkpt>
      <trkpt lat="45.63235" lon="6.59276">
        <ele>1768</ele>
        <time>2022-07-27T09:15:16Z</time>
      </trkpt>
      <trkpt lat="45.63236" lon="6.59276">
        <ele>1768</ele>
        <time>2022-07-27T09:15:17Z</time>
      </trkpt>
      <trkpt lat="45.63237" lon="6.59276">
        <ele>1768</ele>
        <time>2022-07-27T09:15:18Z</time>
      </trkpt>
      <trkpt lat="45.63238" lon="6.59275">
        <ele>1768</ele>
        <time>2022-07-27T09:15:19Z</time>
      </trkpt>
      <trkpt lat="45.63239" lon="6.59275">
        <ele>1768</ele>
        <time>2022-07-27T09:15:20Z</time>
      </trkpt>
      <trkpt lat="45.63239" lon="6.59275">
        <ele>1767</ele>
        <time>2022-07-27T09:15:21Z</time>
      </trkpt>
      <trkpt lat="45.63239" lon="6.59275">
        <ele>1767</ele>
        <time>2022-07-27T09:15:22Z</time>
      </trkpt>
      <trkpt lat="45.6324" lon="6.59275">
        <ele>1767</ele>
        <time>2022-07-27T09:15:23Z</time>
      </trkpt>
      <trkpt lat="45.6324" lon="6.59275">
        <ele>1767</ele>
        <time>2022-07-27T09:15:24Z</time>
      </trkpt>
      <trkpt lat="45.63241" lon="6.59275">
        <ele>1767</ele>
        <time>2022-07-27T09:15:25Z</time>
      </trkpt>
      <trkpt lat="45.63242" lon="6.59275">
        <ele>1767</ele>
        <time>2022-07-27T09:15:26Z</time>
      </trkpt>
      <trkpt lat="45.63243" lon="6.59276">
        <ele>1767</ele>
        <time>2022-07-27T09:15:27Z</time>
      </trkpt>
      <trkpt lat="45.63244" lon="6.59276">
        <ele>1767</ele>
        <time>2022-07-27T09:15:28Z</time>
      </trkpt>
      <trkpt lat="45.63245" lon="6.59276">
        <ele>1767</ele>
        <time>2022-07-27T09:15:29Z</time>
      </trkpt>
      <trkpt lat="45.63246" lon="6.59277">
        <ele>1767</ele>
        <time>2022-07-27T09:15:30Z</time>
      </trkpt>
      <trkpt lat="45.63247" lon="6.59277">
        <ele>1766</ele>
        <time>2022-07-27T09:15:31Z</time>
      </trkpt>
      <trkpt lat="45.63248" lon="6.59277">
        <ele>1766</ele>
        <time>2022-07-27T09:15:32Z</time>
      </trkpt>
      <trkpt lat="45.63249" lon="6.59277">
        <ele>1766</ele>
        <time>2022-07-27T09:15:33Z</time>
      </trkpt>
      <trkpt lat="45.6325" lon="6.59277">
        <ele>1766</ele>
        <time>2022-07-27T09:15:34Z</time>
      </trkpt>
      <trkpt lat="45.63251" lon="6.59276">
        <ele>1766</ele>
        <time>2022-07-27T09:15:35Z</time>
      </trkpt>
      <trkpt lat="45.63251" lon="6.59275">
        <ele>1766</ele>
        <time>2022-07-27T09:15:36Z</time>
      </trkpt>
      <trkpt lat="45.63252" lon="6.59275">
        <ele>1766</ele>
        <time>2022-07-27T09:15:37Z</time>
      </trkpt>
      <trkpt lat="45.63252" lon="6.59274">
        <ele>1766</ele>
        <time>2022-07-27T09:15:38Z</time>
      </trkpt>
      <trkpt lat="45.63252" lon="6.59273">
        <ele>1766</ele>
        <time>2022-07-27T09:15:39Z</time>
      </trkpt>
      <trkpt lat="45.63252" lon="6.59272">
        <ele>1766</ele>
        <time>2022-07-27T09:15:40Z</time>
      </trkpt>
      <trkpt lat="45.63252" lon="6.59271">
        <ele>1766</ele>
        <time>2022-07-27T09:15:41Z</time>
      </trkpt>
      <trkpt lat="45.63252" lon="6.5927">
        <ele>1766</ele>
        <time>2022-07-27T09:15:42Z</time>
      </trkpt>
      <trkpt lat="45.63252" lon="6.59269">
        <ele>1766</ele>
        <time>2022-07-27T09:15:43Z</time>
      </trkpt>
      <trkpt lat="45.63252" lon="6.59268">
        <ele>1766</ele>
        <time>2022-07-27T09:15:44Z</time>
      </trkpt>
      <trkpt lat="45.63252" lon="6.59267">
        <ele>1766</ele>
        <time>2022-07-27T09:15:45Z</time>
      </trkpt>
      <trkpt lat="45.63252" lon="6.59266">
        <ele>1763</ele>
        <time>2022-07-27T09:15:58Z</time>
      </trkpt>
      <trkpt lat="45.63252" lon="6.59265">
        <ele>1763</ele>
        <time>2022-07-27T09:15:59Z</time>
      </trkpt>
      <trkpt lat="45.63252" lon="6.59264">
        <ele>1763</ele>
        <time>2022-07-27T09:16:00Z</time>
      </trkpt>
      <trkpt lat="45.63252" lon="6.59263">
        <ele>1763</ele>
        <time>2022-07-27T09:16:01Z</time>
      </trkpt>
      <trkpt lat="45.63252" lon="6.59262">
        <ele>1763</ele>
        <time>2022-07-27T09:16:02Z</time>
      </trkpt>
      <trkpt lat="45.63253" lon="6.59261">
        <ele>1763</ele>
        <time>2022-07-27T09:16:03Z</time>
      </trkpt>
      <trkpt lat="45.63253" lon="6.59259">
        <ele>1763</ele>
        <time>2022-07-27T09:16:04Z</time>
      </trkpt>
      <trkpt lat="45.63253" lon="6.59258">
        <ele>1763</ele>
        <time>2022-07-27T09:16:05Z</time>
      </trkpt>
      <trkpt lat="45.63254" lon="6.59256">
        <ele>1762</ele>
        <time>2022-07-27T09:16:06Z</time>
      </trkpt>
      <trkpt lat="45.63255" lon="6.59255">
        <ele>1762</ele>
        <time>2022-07-27T09:16:07Z</time>
      </trkpt>
      <trkpt lat="45.63256" lon="6.59254">
        <ele>1762</ele>
        <time>2022-07-27T09:16:08Z</time>
      </trkpt>
      <trkpt lat="45.63257" lon="6.59253">
        <ele>1762</ele>
        <time>2022-07-27T09:16:09Z</time>
      </trkpt>
      <trkpt lat="45.63258" lon="6.59252">
        <ele>1762</ele>
        <time>2022-07-27T09:16:10Z</time>
      </trkpt>
      <trkpt lat="45.63259" lon="6.59251">
        <ele>1761</ele>
        <time>2022-07-27T09:16:11Z</time>
      </trkpt>
      <trkpt lat="45.6326" lon="6.5925">
        <ele>1761</ele>
        <time>2022-07-27T09:16:12Z</time>
      </trkpt>
      <trkpt lat="45.63261" lon="6.59249">
        <ele>1761</ele>
        <time>2022-07-27T09:16:13Z</time>
      </trkpt>
      <trkpt lat="45.63262" lon="6.59248">
        <ele>1761</ele>
        <time>2022-07-27T09:16:14Z</time>
      </trkpt>
      <trkpt lat="45.63263" lon="6.59248">
        <ele>1761</ele>
        <time>2022-07-27T09:16:15Z</time>
      </trkpt>
      <trkpt lat="45.63264" lon="6.59247">
        <ele>1760</ele>
        <time>2022-07-27T09:16:16Z</time>
      </trkpt>
      <trkpt lat="45.63265" lon="6.59246">
        <ele>1760</ele>
        <time>2022-07-27T09:16:17Z</time>
      </trkpt>
      <trkpt lat="45.63266" lon="6.59245">
        <ele>1760</ele>
        <time>2022-07-27T09:16:18Z</time>
      </trkpt>
      <trkpt lat="45.63266" lon="6.59244">
        <ele>1760</ele>
        <time>2022-07-27T09:16:19Z</time>
      </trkpt>
      <trkpt lat="45.63267" lon="6.59244">
        <ele>1760</ele>
        <time>2022-07-27T09:16:20Z</time>
      </trkpt>
      <trkpt lat="45.63268" lon="6.59243">
        <ele>1759</ele>
        <time>2022-07-27T09:16:21Z</time>
      </trkpt>
      <trkpt lat="45.63268" lon="6.59242">
        <ele>1759</ele>
        <time>2022-07-27T09:16:22Z</time>
      </trkpt>
      <trkpt lat="45.63269" lon="6.59241">
        <ele>1759</ele>
        <time>2022-07-27T09:16:23Z</time>
      </trkpt>
      <trkpt lat="45.63269" lon="6.5924">
        <ele>1759</ele>
        <time>2022-07-27T09:16:24Z</time>
      </trkpt>
      <trkpt lat="45.6327" lon="6.59239">
        <ele>1759</ele>
        <time>2022-07-27T09:16:25Z</time>
      </trkpt>
      <trkpt lat="45.6327" lon="6.59238">
        <ele>1758</ele>
        <time>2022-07-27T09:16:26Z</time>
      </trkpt>
      <trkpt lat="45.63271" lon="6.59237">
        <ele>1758</ele>
        <time>2022-07-27T09:16:27Z</time>
      </trkpt>
      <trkpt lat="45.63271" lon="6.59236">
        <ele>1758</ele>
        <time>2022-07-27T09:16:28Z</time>
      </trkpt>
      <trkpt lat="45.63272" lon="6.59235">
        <ele>1758</ele>
        <time>2022-07-27T09:16:29Z</time>
      </trkpt>
      <trkpt lat="45.63272" lon="6.59234">
        <ele>1758</ele>
        <time>2022-07-27T09:16:30Z</time>
      </trkpt>
      <trkpt lat="45.63273" lon="6.59233">
        <ele>1757</ele>
        <time>2022-07-27T09:16:31Z</time>
      </trkpt>
      <trkpt lat="45.63273" lon="6.59233">
        <ele>1757</ele>
        <time>2022-07-27T09:16:32Z</time>
      </trkpt>
      <trkpt lat="45.63273" lon="6.59231">
        <ele>1757</ele>
        <time>2022-07-27T09:16:33Z</time>
      </trkpt>
      <trkpt lat="45.63274" lon="6.5923">
        <ele>1757</ele>
        <time>2022-07-27T09:16:34Z</time>
      </trkpt>
      <trkpt lat="45.63274" lon="6.59229">
        <ele>1757</ele>
        <time>2022-07-27T09:16:35Z</time>
      </trkpt>
      <trkpt lat="45.63274" lon="6.59228">
        <ele>1756</ele>
        <time>2022-07-27T09:16:36Z</time>
      </trkpt>
      <trkpt lat="45.63275" lon="6.59227">
        <ele>1756</ele>
        <time>2022-07-27T09:16:37Z</time>
      </trkpt>
      <trkpt lat="45.63275" lon="6.59226">
        <ele>1755</ele>
        <time>2022-07-27T09:16:38Z</time>
      </trkpt>
      <trkpt lat="45.63276" lon="6.59225">
        <ele>1755</ele>
        <time>2022-07-27T09:16:39Z</time>
      </trkpt>
      <trkpt lat="45.63276" lon="6.59224">
        <ele>1755</ele>
        <time>2022-07-27T09:16:40Z</time>
      </trkpt>
      <trkpt lat="45.63277" lon="6.59224">
        <ele>1754</ele>
        <time>2022-07-27T09:16:41Z</time>
      </trkpt>
      <trkpt lat="45.63278" lon="6.59224">
        <ele>1754</ele>
        <time>2022-07-27T09:16:42Z</time>
      </trkpt>
      <trkpt lat="45.63278" lon="6.59223">
        <ele>1754</ele>
        <time>2022-07-27T09:16:43Z</time>
      </trkpt>
      <trkpt lat="45.63279" lon="6.59223">
        <ele>1754</ele>
        <time>2022-07-27T09:16:44Z</time>
      </trkpt>
      <trkpt lat="45.63279" lon="6.59223">
        <ele>1754</ele>
        <time>2022-07-27T09:16:45Z</time>
      </trkpt>
      <trkpt lat="45.63279" lon="6.59222">
        <ele>1753</ele>
        <time>2022-07-27T09:16:46Z</time>
      </trkpt>
      <trkpt lat="45.6328" lon="6.59221">
        <ele>1753</ele>
        <time>2022-07-27T09:16:47Z</time>
      </trkpt>
      <trkpt lat="45.6328" lon="6.59221">
        <ele>1753</ele>
        <time>2022-07-27T09:16:48Z</time>
      </trkpt>
      <trkpt lat="45.6328" lon="6.5922">
        <ele>1753</ele>
        <time>2022-07-27T09:16:49Z</time>
      </trkpt>
      <trkpt lat="45.6328" lon="6.59219">
        <ele>1753</ele>
        <time>2022-07-27T09:16:50Z</time>
      </trkpt>
      <trkpt lat="45.6328" lon="6.59219">
        <ele>1752</ele>
        <time>2022-07-27T09:16:51Z</time>
      </trkpt>
      <trkpt lat="45.6328" lon="6.59219">
        <ele>1752</ele>
        <time>2022-07-27T09:16:52Z</time>
      </trkpt>
      <trkpt lat="45.63281" lon="6.59219">
        <ele>1752</ele>
        <time>2022-07-27T09:16:53Z</time>
      </trkpt>
      <trkpt lat="45.63281" lon="6.59218">
        <ele>1752</ele>
        <time>2022-07-27T09:16:54Z</time>
      </trkpt>
      <trkpt lat="45.63281" lon="6.59218">
        <ele>1752</ele>
        <time>2022-07-27T09:16:55Z</time>
      </trkpt>
      <trkpt lat="45.63281" lon="6.59217">
        <ele>1751</ele>
        <time>2022-07-27T09:16:56Z</time>
      </trkpt>
      <trkpt lat="45.63282" lon="6.59216">
        <ele>1751</ele>
        <time>2022-07-27T09:16:57Z</time>
      </trkpt>
      <trkpt lat="45.63282" lon="6.59216">
        <ele>1750</ele>
        <time>2022-07-27T09:16:58Z</time>
      </trkpt>
      <trkpt lat="45.63282" lon="6.59215">
        <ele>1750</ele>
        <time>2022-07-27T09:16:59Z</time>
      </trkpt>
      <trkpt lat="45.63281" lon="6.59215">
        <ele>1750</ele>
        <time>2022-07-27T09:17:00Z</time>
      </trkpt>
      <trkpt lat="45.63281" lon="6.59214">
        <ele>1749</ele>
        <time>2022-07-27T09:17:01Z</time>
      </trkpt>
      <trkpt lat="45.63281" lon="6.59213">
        <ele>1749</ele>
        <time>2022-07-27T09:17:02Z</time>
      </trkpt>
      <trkpt lat="45.63281" lon="6.59212">
        <ele>1749</ele>
        <time>2022-07-27T09:17:03Z</time>
      </trkpt>
      <trkpt lat="45.63281" lon="6.59212">
        <ele>1749</ele>
        <time>2022-07-27T09:17:04Z</time>
      </trkpt>
      <trkpt lat="45.63281" lon="6.59211">
        <ele>1749</ele>
        <time>2022-07-27T09:17:05Z</time>
      </trkpt>
      <trkpt lat="45.63282" lon="6.5921">
        <ele>1748</ele>
        <time>2022-07-27T09:17:06Z</time>
      </trkpt>
      <trkpt lat="45.63282" lon="6.59209">
        <ele>1748</ele>
        <time>2022-07-27T09:17:07Z</time>
      </trkpt>
      <trkpt lat="45.63283" lon="6.59209">
        <ele>1748</ele>
        <time>2022-07-27T09:17:08Z</time>
      </trkpt>
      <trkpt lat="45.63283" lon="6.59208">
        <ele>1748</ele>
        <time>2022-07-27T09:17:09Z</time>
      </trkpt>
      <trkpt lat="45.63284" lon="6.59207">
        <ele>1748</ele>
        <time>2022-07-27T09:17:10Z</time>
      </trkpt>
      <trkpt lat="45.63284" lon="6.59206">
        <ele>1747</ele>
        <time>2022-07-27T09:17:11Z</time>
      </trkpt>
      <trkpt lat="45.63284" lon="6.59205">
        <ele>1747</ele>
        <time>2022-07-27T09:17:12Z</time>
      </trkpt>
      <trkpt lat="45.63284" lon="6.59204">
        <ele>1747</ele>
        <time>2022-07-27T09:17:13Z</time>
      </trkpt>
      <trkpt lat="45.63284" lon="6.59203">
        <ele>1747</ele>
        <time>2022-07-27T09:17:14Z</time>
      </trkpt>
      <trkpt lat="45.63284" lon="6.59201">
        <ele>1747</ele>
        <time>2022-07-27T09:17:15Z</time>
      </trkpt>
      <trkpt lat="45.63284" lon="6.592">
        <ele>1746</ele>
        <time>2022-07-27T09:17:16Z</time>
      </trkpt>
      <trkpt lat="45.63284" lon="6.59198">
        <ele>1746</ele>
        <time>2022-07-27T09:17:17Z</time>
      </trkpt>
      <trkpt lat="45.63284" lon="6.59196">
        <ele>1746</ele>
        <time>2022-07-27T09:17:18Z</time>
      </trkpt>
      <trkpt lat="45.63285" lon="6.59195">
        <ele>1746</ele>
        <time>2022-07-27T09:17:19Z</time>
      </trkpt>
      <trkpt lat="45.63285" lon="6.59193">
        <ele>1746</ele>
        <time>2022-07-27T09:17:20Z</time>
      </trkpt>
      <trkpt lat="45.63286" lon="6.59192">
        <ele>1746</ele>
        <time>2022-07-27T09:17:21Z</time>
      </trkpt>
      <trkpt lat="45.63286" lon="6.5919">
        <ele>1746</ele>
        <time>2022-07-27T09:17:22Z</time>
      </trkpt>
      <trkpt lat="45.63287" lon="6.59189">
        <ele>1746</ele>
        <time>2022-07-27T09:17:23Z</time>
      </trkpt>
      <trkpt lat="45.63288" lon="6.59188">
        <ele>1746</ele>
        <time>2022-07-27T09:17:24Z</time>
      </trkpt>
      <trkpt lat="45.63288" lon="6.59187">
        <ele>1746</ele>
        <time>2022-07-27T09:17:25Z</time>
      </trkpt>
      <trkpt lat="45.6329" lon="6.59186">
        <ele>1744</ele>
        <time>2022-07-27T09:17:38Z</time>
      </trkpt>
      <trkpt lat="45.6329" lon="6.59185">
        <ele>1744</ele>
        <time>2022-07-27T09:17:39Z</time>
      </trkpt>
      <trkpt lat="45.63291" lon="6.59184">
        <ele>1744</ele>
        <time>2022-07-27T09:17:40Z</time>
      </trkpt>
      <trkpt lat="45.63291" lon="6.59183">
        <ele>1744</ele>
        <time>2022-07-27T09:17:41Z</time>
      </trkpt>
      <trkpt lat="45.63292" lon="6.59182">
        <ele>1744</ele>
        <time>2022-07-27T09:17:42Z</time>
      </trkpt>
      <trkpt lat="45.63292" lon="6.59181">
        <ele>1744</ele>
        <time>2022-07-27T09:17:43Z</time>
      </trkpt>
      <trkpt lat="45.63291" lon="6.5918">
        <ele>1744</ele>
        <time>2022-07-27T09:17:44Z</time>
      </trkpt>
      <trkpt lat="45.63291" lon="6.59179">
        <ele>1744</ele>
        <time>2022-07-27T09:17:45Z</time>
      </trkpt>
      <trkpt lat="45.6329" lon="6.59178">
        <ele>1743</ele>
        <time>2022-07-27T09:17:46Z</time>
      </trkpt>
      <trkpt lat="45.63289" lon="6.59178">
        <ele>1743</ele>
        <time>2022-07-27T09:17:47Z</time>
      </trkpt>
      <trkpt lat="45.63288" lon="6.59177">
        <ele>1743</ele>
        <time>2022-07-27T09:17:48Z</time>
      </trkpt>
      <trkpt lat="45.63287" lon="6.59177">
        <ele>1743</ele>
        <time>2022-07-27T09:17:49Z</time>
      </trkpt>
      <trkpt lat="45.63286" lon="6.59176">
        <ele>1743</ele>
        <time>2022-07-27T09:17:50Z</time>
      </trkpt>
      <trkpt lat="45.63285" lon="6.59176">
        <ele>1742</ele>
        <time>2022-07-27T09:17:51Z</time>
      </trkpt>
      <trkpt lat="45.63283" lon="6.59175">
        <ele>1742</ele>
        <time>2022-07-27T09:17:52Z</time>
      </trkpt>
      <trkpt lat="45.63282" lon="6.59175">
        <ele>1742</ele>
        <time>2022-07-27T09:17:53Z</time>
      </trkpt>
      <trkpt lat="45.63281" lon="6.59175">
        <ele>1742</ele>
        <time>2022-07-27T09:17:54Z</time>
      </trkpt>
      <trkpt lat="45.6328" lon="6.59174">
        <ele>1742</ele>
        <time>2022-07-27T09:17:55Z</time>
      </trkpt>
      <trkpt lat="45.6328" lon="6.59174">
        <ele>1741</ele>
        <time>2022-07-27T09:17:56Z</time>
      </trkpt>
      <trkpt lat="45.6328" lon="6.59173">
        <ele>1741</ele>
        <time>2022-07-27T09:17:57Z</time>
      </trkpt>
      <trkpt lat="45.6328" lon="6.59172">
        <ele>1741</ele>
        <time>2022-07-27T09:17:58Z</time>
      </trkpt>
      <trkpt lat="45.6328" lon="6.5917">
        <ele>1741</ele>
        <time>2022-07-27T09:17:59Z</time>
      </trkpt>
      <trkpt lat="45.63281" lon="6.59169">
        <ele>1741</ele>
        <time>2022-07-27T09:18:00Z</time>
      </trkpt>
      <trkpt lat="45.63281" lon="6.59168">
        <ele>1740</ele>
        <time>2022-07-27T09:18:01Z</time>
      </trkpt>
      <trkpt lat="45.63282" lon="6.59167">
        <ele>1740</ele>
        <time>2022-07-27T09:18:02Z</time>
      </trkpt>
      <trkpt lat="45.63283" lon="6.59166">
        <ele>1739</ele>
        <time>2022-07-27T09:18:03Z</time>
      </trkpt>
      <trkpt lat="45.63284" lon="6.59165">
        <ele>1739</ele>
        <time>2022-07-27T09:18:04Z</time>
      </trkpt>
      <trkpt lat="45.63285" lon="6.59164">
        <ele>1739</ele>
        <time>2022-07-27T09:18:05Z</time>
      </trkpt>
      <trkpt lat="45.63286" lon="6.59163">
        <ele>1738</ele>
        <time>2022-07-27T09:18:06Z</time>
      </trkpt>
      <trkpt lat="45.63287" lon="6.59162">
        <ele>1738</ele>
        <time>2022-07-27T09:18:07Z</time>
      </trkpt>
      <trkpt lat="45.63288" lon="6.59161">
        <ele>1738</ele>
        <time>2022-07-27T09:18:08Z</time>
      </trkpt>
      <trkpt lat="45.63289" lon="6.59161">
        <ele>1738</ele>
        <time>2022-07-27T09:18:09Z</time>
      </trkpt>
      <trkpt lat="45.6329" lon="6.5916">
        <ele>1738</ele>
        <time>2022-07-27T09:18:10Z</time>
      </trkpt>
      <trkpt lat="45.63291" lon="6.5916">
        <ele>1737</ele>
        <time>2022-07-27T09:18:11Z</time>
      </trkpt>
      <trkpt lat="45.63292" lon="6.5916">
        <ele>1737</ele>
        <time>2022-07-27T09:18:12Z</time>
      </trkpt>
      <trkpt lat="45.63293" lon="6.59159">
        <ele>1737</ele>
        <time>2022-07-27T09:18:13Z</time>
      </trkpt>
      <trkpt lat="45.63294" lon="6.59159">
        <ele>1737</ele>
        <time>2022-07-27T09:18:14Z</time>
      </trkpt>
      <trkpt lat="45.63295" lon="6.59158">
        <ele>1737</ele>
        <time>2022-07-27T09:18:15Z</time>
      </trkpt>
      <trkpt lat="45.63296" lon="6.59158">
        <ele>1736</ele>
        <time>2022-07-27T09:18:16Z</time>
      </trkpt>
      <trkpt lat="45.63297" lon="6.59157">
        <ele>1736</ele>
        <time>2022-07-27T09:18:17Z</time>
      </trkpt>
      <trkpt lat="45.63298" lon="6.59156">
        <ele>1736</ele>
        <time>2022-07-27T09:18:18Z</time>
      </trkpt>
      <trkpt lat="45.63299" lon="6.59155">
        <ele>1736</ele>
        <time>2022-07-27T09:18:19Z</time>
      </trkpt>
      <trkpt lat="45.633" lon="6.59154">
        <ele>1736</ele>
        <time>2022-07-27T09:18:20Z</time>
      </trkpt>
      <trkpt lat="45.63301" lon="6.59153">
        <ele>1736</ele>
        <time>2022-07-27T09:18:21Z</time>
      </trkpt>
      <trkpt lat="45.63302" lon="6.59152">
        <ele>1736</ele>
        <time>2022-07-27T09:18:22Z</time>
      </trkpt>
      <trkpt lat="45.63303" lon="6.59151">
        <ele>1736</ele>
        <time>2022-07-27T09:18:23Z</time>
      </trkpt>
      <trkpt lat="45.63304" lon="6.5915">
        <ele>1736</ele>
        <time>2022-07-27T09:18:24Z</time>
      </trkpt>
      <trkpt lat="45.63305" lon="6.59149">
        <ele>1736</ele>
        <time>2022-07-27T09:18:25Z</time>
      </trkpt>
      <trkpt lat="45.63306" lon="6.59149">
        <ele>1735</ele>
        <time>2022-07-27T09:18:26Z</time>
      </trkpt>
      <trkpt lat="45.63307" lon="6.59148">
        <ele>1735</ele>
        <time>2022-07-27T09:18:27Z</time>
      </trkpt>
      <trkpt lat="45.63308" lon="6.59147">
        <ele>1735</ele>
        <time>2022-07-27T09:18:28Z</time>
      </trkpt>
      <trkpt lat="45.63309" lon="6.59147">
        <ele>1735</ele>
        <time>2022-07-27T09:18:29Z</time>
      </trkpt>
      <trkpt lat="45.6331" lon="6.59146">
        <ele>1735</ele>
        <time>2022-07-27T09:18:30Z</time>
      </trkpt>
      <trkpt lat="45.63311" lon="6.59145">
        <ele>1734</ele>
        <time>2022-07-27T09:18:31Z</time>
      </trkpt>
      <trkpt lat="45.63312" lon="6.59145">
        <ele>1734</ele>
        <time>2022-07-27T09:18:32Z</time>
      </trkpt>
      <trkpt lat="45.63313" lon="6.59144">
        <ele>1734</ele>
        <time>2022-07-27T09:18:33Z</time>
      </trkpt>
      <trkpt lat="45.63314" lon="6.59144">
        <ele>1734</ele>
        <time>2022-07-27T09:18:34Z</time>
      </trkpt>
      <trkpt lat="45.63315" lon="6.59143">
        <ele>1734</ele>
        <time>2022-07-27T09:18:35Z</time>
      </trkpt>
      <trkpt lat="45.63316" lon="6.59142">
        <ele>1733</ele>
        <time>2022-07-27T09:18:36Z</time>
      </trkpt>
      <trkpt lat="45.63317" lon="6.59142">
        <ele>1733</ele>
        <time>2022-07-27T09:18:37Z</time>
      </trkpt>
      <trkpt lat="45.63318" lon="6.59141">
        <ele>1733</ele>
        <time>2022-07-27T09:18:38Z</time>
      </trkpt>
      <trkpt lat="45.63319" lon="6.5914">
        <ele>1733</ele>
        <time>2022-07-27T09:18:39Z</time>
      </trkpt>
      <trkpt lat="45.6332" lon="6.5914">
        <ele>1733</ele>
        <time>2022-07-27T09:18:40Z</time>
      </trkpt>
      <trkpt lat="45.63321" lon="6.59139">
        <ele>1732</ele>
        <time>2022-07-27T09:18:41Z</time>
      </trkpt>
      <trkpt lat="45.63322" lon="6.59138">
        <ele>1732</ele>
        <time>2022-07-27T09:18:42Z</time>
      </trkpt>
      <trkpt lat="45.63323" lon="6.59138">
        <ele>1732</ele>
        <time>2022-07-27T09:18:43Z</time>
      </trkpt>
      <trkpt lat="45.63324" lon="6.59137">
        <ele>1732</ele>
        <time>2022-07-27T09:18:44Z</time>
      </trkpt>
      <trkpt lat="45.63325" lon="6.59137">
        <ele>1732</ele>
        <time>2022-07-27T09:18:45Z</time>
      </trkpt>
      <trkpt lat="45.63326" lon="6.59136">
        <ele>1731</ele>
        <time>2022-07-27T09:18:46Z</time>
      </trkpt>
      <trkpt lat="45.63327" lon="6.59136">
        <ele>1731</ele>
        <time>2022-07-27T09:18:47Z</time>
      </trkpt>
      <trkpt lat="45.63328" lon="6.59135">
        <ele>1731</ele>
        <time>2022-07-27T09:18:48Z</time>
      </trkpt>
      <trkpt lat="45.63329" lon="6.59135">
        <ele>1731</ele>
        <time>2022-07-27T09:18:49Z</time>
      </trkpt>
      <trkpt lat="45.6333" lon="6.59134">
        <ele>1731</ele>
        <time>2022-07-27T09:18:50Z</time>
      </trkpt>
      <trkpt lat="45.63331" lon="6.59134">
        <ele>1731</ele>
        <time>2022-07-27T09:18:51Z</time>
      </trkpt>
      <trkpt lat="45.63333" lon="6.59133">
        <ele>1731</ele>
        <time>2022-07-27T09:18:52Z</time>
      </trkpt>
      <trkpt lat="45.63334" lon="6.59133">
        <ele>1731</ele>
        <time>2022-07-27T09:18:53Z</time>
      </trkpt>
      <trkpt lat="45.63335" lon="6.59133">
        <ele>1731</ele>
        <time>2022-07-27T09:18:54Z</time>
      </trkpt>
      <trkpt lat="45.63336" lon="6.59132">
        <ele>1731</ele>
        <time>2022-07-27T09:18:55Z</time>
      </trkpt>
      <trkpt lat="45.63337" lon="6.59132">
        <ele>1730</ele>
        <time>2022-07-27T09:18:56Z</time>
      </trkpt>
      <trkpt lat="45.63338" lon="6.59131">
        <ele>1730</ele>
        <time>2022-07-27T09:18:57Z</time>
      </trkpt>
      <trkpt lat="45.63339" lon="6.59131">
        <ele>1730</ele>
        <time>2022-07-27T09:18:58Z</time>
      </trkpt>
      <trkpt lat="45.6334" lon="6.5913">
        <ele>1730</ele>
        <time>2022-07-27T09:18:59Z</time>
      </trkpt>
      <trkpt lat="45.63341" lon="6.5913">
        <ele>1730</ele>
        <time>2022-07-27T09:19:00Z</time>
      </trkpt>
      <trkpt lat="45.63341" lon="6.59129">
        <ele>1729</ele>
        <time>2022-07-27T09:19:01Z</time>
      </trkpt>
      <trkpt lat="45.63342" lon="6.59129">
        <ele>1729</ele>
        <time>2022-07-27T09:19:02Z</time>
      </trkpt>
      <trkpt lat="45.63343" lon="6.59128">
        <ele>1729</ele>
        <time>2022-07-27T09:19:03Z</time>
      </trkpt>
      <trkpt lat="45.63344" lon="6.59128">
        <ele>1729</ele>
        <time>2022-07-27T09:19:04Z</time>
      </trkpt>
      <trkpt lat="45.63345" lon="6.59128">
        <ele>1729</ele>
        <time>2022-07-27T09:19:05Z</time>
      </trkpt>
      <trkpt lat="45.63346" lon="6.59128">
        <ele>1728</ele>
        <time>2022-07-27T09:19:06Z</time>
      </trkpt>
      <trkpt lat="45.63347" lon="6.59127">
        <ele>1728</ele>
        <time>2022-07-27T09:19:07Z</time>
      </trkpt>
      <trkpt lat="45.63348" lon="6.59127">
        <ele>1728</ele>
        <time>2022-07-27T09:19:08Z</time>
      </trkpt>
      <trkpt lat="45.63349" lon="6.59127">
        <ele>1728</ele>
        <time>2022-07-27T09:19:09Z</time>
      </trkpt>
      <trkpt lat="45.6335" lon="6.59127">
        <ele>1728</ele>
        <time>2022-07-27T09:19:10Z</time>
      </trkpt>
      <trkpt lat="45.63351" lon="6.59126">
        <ele>1728</ele>
        <time>2022-07-27T09:19:11Z</time>
      </trkpt>
      <trkpt lat="45.63352" lon="6.59126">
        <ele>1728</ele>
        <time>2022-07-27T09:19:12Z</time>
      </trkpt>
      <trkpt lat="45.63352" lon="6.59125">
        <ele>1728</ele>
        <time>2022-07-27T09:19:13Z</time>
      </trkpt>
      <trkpt lat="45.63353" lon="6.59125">
        <ele>1728</ele>
        <time>2022-07-27T09:19:14Z</time>
      </trkpt>
      <trkpt lat="45.63354" lon="6.59124">
        <ele>1728</ele>
        <time>2022-07-27T09:19:15Z</time>
      </trkpt>
      <trkpt lat="45.63354" lon="6.59124">
        <ele>1727</ele>
        <time>2022-07-27T09:19:16Z</time>
      </trkpt>
      <trkpt lat="45.63355" lon="6.59123">
        <ele>1727</ele>
        <time>2022-07-27T09:19:17Z</time>
      </trkpt>
      <trkpt lat="45.63356" lon="6.59122">
        <ele>1727</ele>
        <time>2022-07-27T09:19:18Z</time>
      </trkpt>
      <trkpt lat="45.63356" lon="6.59121">
        <ele>1727</ele>
        <time>2022-07-27T09:19:19Z</time>
      </trkpt>
      <trkpt lat="45.63357" lon="6.59119">
        <ele>1727</ele>
        <time>2022-07-27T09:19:20Z</time>
      </trkpt>
      <trkpt lat="45.63357" lon="6.59118">
        <ele>1727</ele>
        <time>2022-07-27T09:19:21Z</time>
      </trkpt>
      <trkpt lat="45.63358" lon="6.59117">
        <ele>1727</ele>
        <time>2022-07-27T09:19:22Z</time>
      </trkpt>
      <trkpt lat="45.63359" lon="6.59116">
        <ele>1727</ele>
        <time>2022-07-27T09:19:23Z</time>
      </trkpt>
      <trkpt lat="45.63359" lon="6.59115">
        <ele>1727</ele>
        <time>2022-07-27T09:19:24Z</time>
      </trkpt>
      <trkpt lat="45.6336" lon="6.59113">
        <ele>1727</ele>
        <time>2022-07-27T09:19:25Z</time>
      </trkpt>
      <trkpt lat="45.6336" lon="6.59112">
        <ele>1727</ele>
        <time>2022-07-27T09:19:26Z</time>
      </trkpt>
      <trkpt lat="45.63361" lon="6.59111">
        <ele>1727</ele>
        <time>2022-07-27T09:19:27Z</time>
      </trkpt>
      <trkpt lat="45.63361" lon="6.59109">
        <ele>1727</ele>
        <time>2022-07-27T09:19:28Z</time>
      </trkpt>
      <trkpt lat="45.63361" lon="6.59107">
        <ele>1727</ele>
        <time>2022-07-27T09:19:29Z</time>
      </trkpt>
      <trkpt lat="45.63362" lon="6.59106">
        <ele>1727</ele>
        <time>2022-07-27T09:19:30Z</time>
      </trkpt>
      <trkpt lat="45.63362" lon="6.59104">
        <ele>1726</ele>
        <time>2022-07-27T09:19:31Z</time>
      </trkpt>
      <trkpt lat="45.63363" lon="6.59103">
        <ele>1726</ele>
        <time>2022-07-27T09:19:32Z</time>
      </trkpt>
      <trkpt lat="45.63364" lon="6.59102">
        <ele>1726</ele>
        <time>2022-07-27T09:19:33Z</time>
      </trkpt>
      <trkpt lat="45.63364" lon="6.591">
        <ele>1726</ele>
        <time>2022-07-27T09:19:34Z</time>
      </trkpt>
      <trkpt lat="45.63365" lon="6.59099">
        <ele>1726</ele>
        <time>2022-07-27T09:19:35Z</time>
      </trkpt>
      <trkpt lat="45.63366" lon="6.59098">
        <ele>1725</ele>
        <time>2022-07-27T09:19:36Z</time>
      </trkpt>
      <trkpt lat="45.63367" lon="6.59097">
        <ele>1725</ele>
        <time>2022-07-27T09:19:37Z</time>
      </trkpt>
      <trkpt lat="45.63368" lon="6.59096">
        <ele>1725</ele>
        <time>2022-07-27T09:19:38Z</time>
      </trkpt>
      <trkpt lat="45.63369" lon="6.59094">
        <ele>1725</ele>
        <time>2022-07-27T09:19:39Z</time>
      </trkpt>
      <trkpt lat="45.6337" lon="6.59093">
        <ele>1725</ele>
        <time>2022-07-27T09:19:40Z</time>
      </trkpt>
      <trkpt lat="45.63371" lon="6.59092">
        <ele>1725</ele>
        <time>2022-07-27T09:19:41Z</time>
      </trkpt>
      <trkpt lat="45.63371" lon="6.59091">
        <ele>1725</ele>
        <time>2022-07-27T09:19:42Z</time>
      </trkpt>
      <trkpt lat="45.63372" lon="6.5909">
        <ele>1725</ele>
        <time>2022-07-27T09:19:43Z</time>
      </trkpt>
      <trkpt lat="45.63373" lon="6.59089">
        <ele>1725</ele>
        <time>2022-07-27T09:19:44Z</time>
      </trkpt>
      <trkpt lat="45.63374" lon="6.59088">
        <ele>1725</ele>
        <time>2022-07-27T09:19:45Z</time>
      </trkpt>
      <trkpt lat="45.63375" lon="6.59087">
        <ele>1724</ele>
        <time>2022-07-27T09:19:46Z</time>
      </trkpt>
      <trkpt lat="45.63376" lon="6.59086">
        <ele>1724</ele>
        <time>2022-07-27T09:19:47Z</time>
      </trkpt>
      <trkpt lat="45.63377" lon="6.59085">
        <ele>1724</ele>
        <time>2022-07-27T09:19:48Z</time>
      </trkpt>
      <trkpt lat="45.63378" lon="6.59084">
        <ele>1724</ele>
        <time>2022-07-27T09:19:49Z</time>
      </trkpt>
      <trkpt lat="45.63379" lon="6.59083">
        <ele>1724</ele>
        <time>2022-07-27T09:19:50Z</time>
      </trkpt>
      <trkpt lat="45.6338" lon="6.59082">
        <ele>1723</ele>
        <time>2022-07-27T09:19:51Z</time>
      </trkpt>
      <trkpt lat="45.63381" lon="6.59081">
        <ele>1723</ele>
        <time>2022-07-27T09:19:52Z</time>
      </trkpt>
      <trkpt lat="45.63382" lon="6.59081">
        <ele>1723</ele>
        <time>2022-07-27T09:19:53Z</time>
      </trkpt>
      <trkpt lat="45.63383" lon="6.5908">
        <ele>1723</ele>
        <time>2022-07-27T09:19:54Z</time>
      </trkpt>
      <trkpt lat="45.63384" lon="6.59079">
        <ele>1723</ele>
        <time>2022-07-27T09:19:55Z</time>
      </trkpt>
      <trkpt lat="45.63385" lon="6.59078">
        <ele>1723</ele>
        <time>2022-07-27T09:19:56Z</time>
      </trkpt>
      <trkpt lat="45.63386" lon="6.59078">
        <ele>1723</ele>
        <time>2022-07-27T09:19:57Z</time>
      </trkpt>
      <trkpt lat="45.63387" lon="6.59077">
        <ele>1723</ele>
        <time>2022-07-27T09:19:58Z</time>
      </trkpt>
      <trkpt lat="45.63389" lon="6.59077">
        <ele>1723</ele>
        <time>2022-07-27T09:19:59Z</time>
      </trkpt>
      <trkpt lat="45.6339" lon="6.59076">
        <ele>1723</ele>
        <time>2022-07-27T09:20:00Z</time>
      </trkpt>
      <trkpt lat="45.63391" lon="6.59076">
        <ele>1722</ele>
        <time>2022-07-27T09:20:01Z</time>
      </trkpt>
      <trkpt lat="45.63392" lon="6.59076">
        <ele>1722</ele>
        <time>2022-07-27T09:20:02Z</time>
      </trkpt>
      <trkpt lat="45.63393" lon="6.59075">
        <ele>1722</ele>
        <time>2022-07-27T09:20:03Z</time>
      </trkpt>
      <trkpt lat="45.63394" lon="6.59075">
        <ele>1722</ele>
        <time>2022-07-27T09:20:04Z</time>
      </trkpt>
      <trkpt lat="45.63396" lon="6.59074">
        <ele>1722</ele>
        <time>2022-07-27T09:20:05Z</time>
      </trkpt>
      <trkpt lat="45.63397" lon="6.59074">
        <ele>1721</ele>
        <time>2022-07-27T09:20:06Z</time>
      </trkpt>
      <trkpt lat="45.63398" lon="6.59073">
        <ele>1721</ele>
        <time>2022-07-27T09:20:07Z</time>
      </trkpt>
      <trkpt lat="45.63399" lon="6.59072">
        <ele>1721</ele>
        <time>2022-07-27T09:20:08Z</time>
      </trkpt>
      <trkpt lat="45.634" lon="6.59071">
        <ele>1721</ele>
        <time>2022-07-27T09:20:09Z</time>
      </trkpt>
      <trkpt lat="45.63401" lon="6.5907">
        <ele>1721</ele>
        <time>2022-07-27T09:20:10Z</time>
      </trkpt>
      <trkpt lat="45.63401" lon="6.59069">
        <ele>1720</ele>
        <time>2022-07-27T09:20:11Z</time>
      </trkpt>
      <trkpt lat="45.63402" lon="6.59068">
        <ele>1720</ele>
        <time>2022-07-27T09:20:12Z</time>
      </trkpt>
      <trkpt lat="45.63403" lon="6.59067">
        <ele>1720</ele>
        <time>2022-07-27T09:20:13Z</time>
      </trkpt>
      <trkpt lat="45.63404" lon="6.59066">
        <ele>1720</ele>
        <time>2022-07-27T09:20:14Z</time>
      </trkpt>
      <trkpt lat="45.63405" lon="6.59065">
        <ele>1720</ele>
        <time>2022-07-27T09:20:15Z</time>
      </trkpt>
      <trkpt lat="45.63406" lon="6.59064">
        <ele>1720</ele>
        <time>2022-07-27T09:20:16Z</time>
      </trkpt>
      <trkpt lat="45.63407" lon="6.59062">
        <ele>1720</ele>
        <time>2022-07-27T09:20:17Z</time>
      </trkpt>
      <trkpt lat="45.63408" lon="6.59061">
        <ele>1720</ele>
        <time>2022-07-27T09:20:18Z</time>
      </trkpt>
      <trkpt lat="45.63408" lon="6.5906">
        <ele>1720</ele>
        <time>2022-07-27T09:20:19Z</time>
      </trkpt>
      <trkpt lat="45.63409" lon="6.59059">
        <ele>1720</ele>
        <time>2022-07-27T09:20:20Z</time>
      </trkpt>
      <trkpt lat="45.63409" lon="6.59057">
        <ele>1719</ele>
        <time>2022-07-27T09:20:21Z</time>
      </trkpt>
      <trkpt lat="45.6341" lon="6.59056">
        <ele>1719</ele>
        <time>2022-07-27T09:20:22Z</time>
      </trkpt>
      <trkpt lat="45.63411" lon="6.59055">
        <ele>1719</ele>
        <time>2022-07-27T09:20:23Z</time>
      </trkpt>
      <trkpt lat="45.63411" lon="6.59054">
        <ele>1719</ele>
        <time>2022-07-27T09:20:24Z</time>
      </trkpt>
      <trkpt lat="45.63412" lon="6.59053">
        <ele>1719</ele>
        <time>2022-07-27T09:20:25Z</time>
      </trkpt>
      <trkpt lat="45.63413" lon="6.59052">
        <ele>1719</ele>
        <time>2022-07-27T09:20:26Z</time>
      </trkpt>
      <trkpt lat="45.63414" lon="6.59051">
        <ele>1719</ele>
        <time>2022-07-27T09:20:27Z</time>
      </trkpt>
      <trkpt lat="45.63414" lon="6.5905">
        <ele>1719</ele>
        <time>2022-07-27T09:20:28Z</time>
      </trkpt>
      <trkpt lat="45.63415" lon="6.59048">
        <ele>1719</ele>
        <time>2022-07-27T09:20:29Z</time>
      </trkpt>
      <trkpt lat="45.63416" lon="6.59047">
        <ele>1719</ele>
        <time>2022-07-27T09:20:30Z</time>
      </trkpt>
      <trkpt lat="45.63417" lon="6.59046">
        <ele>1718</ele>
        <time>2022-07-27T09:20:31Z</time>
      </trkpt>
      <trkpt lat="45.63418" lon="6.59045">
        <ele>1718</ele>
        <time>2022-07-27T09:20:32Z</time>
      </trkpt>
      <trkpt lat="45.63419" lon="6.59045">
        <ele>1718</ele>
        <time>2022-07-27T09:20:33Z</time>
      </trkpt>
      <trkpt lat="45.6342" lon="6.59044">
        <ele>1718</ele>
        <time>2022-07-27T09:20:34Z</time>
      </trkpt>
      <trkpt lat="45.63421" lon="6.59043">
        <ele>1718</ele>
        <time>2022-07-27T09:20:35Z</time>
      </trkpt>
      <trkpt lat="45.63422" lon="6.59043">
        <ele>1717</ele>
        <time>2022-07-27T09:20:36Z</time>
      </trkpt>
      <trkpt lat="45.63423" lon="6.59042">
        <ele>1717</ele>
        <time>2022-07-27T09:20:37Z</time>
      </trkpt>
      <trkpt lat="45.63424" lon="6.59042">
        <ele>1717</ele>
        <time>2022-07-27T09:20:38Z</time>
      </trkpt>
      <trkpt lat="45.63425" lon="6.59041">
        <ele>1717</ele>
        <time>2022-07-27T09:20:39Z</time>
      </trkpt>
      <trkpt lat="45.63426" lon="6.59041">
        <ele>1717</ele>
        <time>2022-07-27T09:20:40Z</time>
      </trkpt>
      <trkpt lat="45.63428" lon="6.59041">
        <ele>1716</ele>
        <time>2022-07-27T09:20:41Z</time>
      </trkpt>
      <trkpt lat="45.63429" lon="6.59041">
        <ele>1716</ele>
        <time>2022-07-27T09:20:42Z</time>
      </trkpt>
      <trkpt lat="45.6343" lon="6.59041">
        <ele>1715</ele>
        <time>2022-07-27T09:20:43Z</time>
      </trkpt>
      <trkpt lat="45.63431" lon="6.59042">
        <ele>1715</ele>
        <time>2022-07-27T09:20:44Z</time>
      </trkpt>
      <trkpt lat="45.63432" lon="6.59043">
        <ele>1715</ele>
        <time>2022-07-27T09:20:45Z</time>
      </trkpt>
      <trkpt lat="45.63434" lon="6.59043">
        <ele>1714</ele>
        <time>2022-07-27T09:20:46Z</time>
      </trkpt>
      <trkpt lat="45.63435" lon="6.59044">
        <ele>1714</ele>
        <time>2022-07-27T09:20:47Z</time>
      </trkpt>
      <trkpt lat="45.63436" lon="6.59045">
        <ele>1714</ele>
        <time>2022-07-27T09:20:48Z</time>
      </trkpt>
      <trkpt lat="45.63437" lon="6.59045">
        <ele>1714</ele>
        <time>2022-07-27T09:20:49Z</time>
      </trkpt>
      <trkpt lat="45.63438" lon="6.59046">
        <ele>1714</ele>
        <time>2022-07-27T09:20:50Z</time>
      </trkpt>
      <trkpt lat="45.63439" lon="6.59046">
        <ele>1714</ele>
        <time>2022-07-27T09:20:51Z</time>
      </trkpt>
      <trkpt lat="45.6344" lon="6.59046">
        <ele>1714</ele>
        <time>2022-07-27T09:20:52Z</time>
      </trkpt>
      <trkpt lat="45.63441" lon="6.59046">
        <ele>1714</ele>
        <time>2022-07-27T09:20:53Z</time>
      </trkpt>
      <trkpt lat="45.63442" lon="6.59046">
        <ele>1714</ele>
        <time>2022-07-27T09:20:54Z</time>
      </trkpt>
      <trkpt lat="45.63443" lon="6.59046">
        <ele>1714</ele>
        <time>2022-07-27T09:20:55Z</time>
      </trkpt>
      <trkpt lat="45.63444" lon="6.59046">
        <ele>1714</ele>
        <time>2022-07-27T09:20:56Z</time>
      </trkpt>
      <trkpt lat="45.63446" lon="6.59046">
        <ele>1714</ele>
        <time>2022-07-27T09:20:57Z</time>
      </trkpt>
      <trkpt lat="45.63447" lon="6.59046">
        <ele>1714</ele>
        <time>2022-07-27T09:20:58Z</time>
      </trkpt>
      <trkpt lat="45.63448" lon="6.59047">
        <ele>1714</ele>
        <time>2022-07-27T09:20:59Z</time>
      </trkpt>
      <trkpt lat="45.6345" lon="6.59047">
        <ele>1714</ele>
        <time>2022-07-27T09:21:00Z</time>
      </trkpt>
      <trkpt lat="45.63451" lon="6.59047">
        <ele>1714</ele>
        <time>2022-07-27T09:21:01Z</time>
      </trkpt>
      <trkpt lat="45.63452" lon="6.59046">
        <ele>1714</ele>
        <time>2022-07-27T09:21:02Z</time>
      </trkpt>
      <trkpt lat="45.63453" lon="6.59046">
        <ele>1714</ele>
        <time>2022-07-27T09:21:03Z</time>
      </trkpt>
      <trkpt lat="45.63455" lon="6.59046">
        <ele>1714</ele>
        <time>2022-07-27T09:21:04Z</time>
      </trkpt>
      <trkpt lat="45.63456" lon="6.59045">
        <ele>1714</ele>
        <time>2022-07-27T09:21:05Z</time>
      </trkpt>
      <trkpt lat="45.63457" lon="6.59044">
        <ele>1713</ele>
        <time>2022-07-27T09:21:06Z</time>
      </trkpt>
      <trkpt lat="45.63458" lon="6.59044">
        <ele>1713</ele>
        <time>2022-07-27T09:21:07Z</time>
      </trkpt>
      <trkpt lat="45.63459" lon="6.59043">
        <ele>1713</ele>
        <time>2022-07-27T09:21:08Z</time>
      </trkpt>
      <trkpt lat="45.6346" lon="6.59042">
        <ele>1713</ele>
        <time>2022-07-27T09:21:09Z</time>
      </trkpt>
      <trkpt lat="45.63461" lon="6.59041">
        <ele>1713</ele>
        <time>2022-07-27T09:21:10Z</time>
      </trkpt>
      <trkpt lat="45.63461" lon="6.5904">
        <ele>1713</ele>
        <time>2022-07-27T09:21:11Z</time>
      </trkpt>
      <trkpt lat="45.63462" lon="6.59039">
        <ele>1713</ele>
        <time>2022-07-27T09:21:12Z</time>
      </trkpt>
      <trkpt lat="45.63463" lon="6.59038">
        <ele>1713</ele>
        <time>2022-07-27T09:21:13Z</time>
      </trkpt>
      <trkpt lat="45.63464" lon="6.59037">
        <ele>1713</ele>
        <time>2022-07-27T09:21:14Z</time>
      </trkpt>
      <trkpt lat="45.63465" lon="6.59036">
        <ele>1713</ele>
        <time>2022-07-27T09:21:15Z</time>
      </trkpt>
      <trkpt lat="45.63466" lon="6.59035">
        <ele>1712</ele>
        <time>2022-07-27T09:21:16Z</time>
      </trkpt>
      <trkpt lat="45.63467" lon="6.59034">
        <ele>1712</ele>
        <time>2022-07-27T09:21:17Z</time>
      </trkpt>
      <trkpt lat="45.63469" lon="6.59033">
        <ele>1712</ele>
        <time>2022-07-27T09:21:18Z</time>
      </trkpt>
      <trkpt lat="45.6347" lon="6.59033">
        <ele>1712</ele>
        <time>2022-07-27T09:21:19Z</time>
      </trkpt>
      <trkpt lat="45.63471" lon="6.59033">
        <ele>1712</ele>
        <time>2022-07-27T09:21:20Z</time>
      </trkpt>
      <trkpt lat="45.63472" lon="6.59033">
        <ele>1712</ele>
        <time>2022-07-27T09:21:21Z</time>
      </trkpt>
      <trkpt lat="45.63473" lon="6.59033">
        <ele>1712</ele>
        <time>2022-07-27T09:21:22Z</time>
      </trkpt>
      <trkpt lat="45.63474" lon="6.59032">
        <ele>1712</ele>
        <time>2022-07-27T09:21:23Z</time>
      </trkpt>
      <trkpt lat="45.63475" lon="6.59032">
        <ele>1712</ele>
        <time>2022-07-27T09:21:24Z</time>
      </trkpt>
      <trkpt lat="45.63476" lon="6.59031">
        <ele>1712</ele>
        <time>2022-07-27T09:21:25Z</time>
      </trkpt>
      <trkpt lat="45.63477" lon="6.59031">
        <ele>1711</ele>
        <time>2022-07-27T09:21:26Z</time>
      </trkpt>
      <trkpt lat="45.63477" lon="6.5903">
        <ele>1711</ele>
        <time>2022-07-27T09:21:27Z</time>
      </trkpt>
      <trkpt lat="45.63478" lon="6.59028">
        <ele>1711</ele>
        <time>2022-07-27T09:21:28Z</time>
      </trkpt>
      <trkpt lat="45.63479" lon="6.59027">
        <ele>1711</ele>
        <time>2022-07-27T09:21:29Z</time>
      </trkpt>
      <trkpt lat="45.6348" lon="6.59026">
        <ele>1711</ele>
        <time>2022-07-27T09:21:30Z</time>
      </trkpt>
      <trkpt lat="45.63481" lon="6.59025">
        <ele>1710</ele>
        <time>2022-07-27T09:21:31Z</time>
      </trkpt>
      <trkpt lat="45.63483" lon="6.59024">
        <ele>1710</ele>
        <time>2022-07-27T09:21:32Z</time>
      </trkpt>
      <trkpt lat="45.63484" lon="6.59023">
        <ele>1710</ele>
        <time>2022-07-27T09:21:33Z</time>
      </trkpt>
      <trkpt lat="45.63485" lon="6.59022">
        <ele>1710</ele>
        <time>2022-07-27T09:21:34Z</time>
      </trkpt>
      <trkpt lat="45.63487" lon="6.59021">
        <ele>1710</ele>
        <time>2022-07-27T09:21:35Z</time>
      </trkpt>
      <trkpt lat="45.63488" lon="6.5902">
        <ele>1710</ele>
        <time>2022-07-27T09:21:36Z</time>
      </trkpt>
      <trkpt lat="45.63489" lon="6.59018">
        <ele>1710</ele>
        <time>2022-07-27T09:21:37Z</time>
      </trkpt>
      <trkpt lat="45.63491" lon="6.59017">
        <ele>1710</ele>
        <time>2022-07-27T09:21:38Z</time>
      </trkpt>
      <trkpt lat="45.63492" lon="6.59016">
        <ele>1710</ele>
        <time>2022-07-27T09:21:39Z</time>
      </trkpt>
      <trkpt lat="45.63493" lon="6.59015">
        <ele>1710</ele>
        <time>2022-07-27T09:21:40Z</time>
      </trkpt>
      <trkpt lat="45.63495" lon="6.59014">
        <ele>1709</ele>
        <time>2022-07-27T09:21:41Z</time>
      </trkpt>
      <trkpt lat="45.63496" lon="6.59013">
        <ele>1709</ele>
        <time>2022-07-27T09:21:42Z</time>
      </trkpt>
      <trkpt lat="45.63497" lon="6.59012">
        <ele>1709</ele>
        <time>2022-07-27T09:21:43Z</time>
      </trkpt>
      <trkpt lat="45.63499" lon="6.59011">
        <ele>1709</ele>
        <time>2022-07-27T09:21:44Z</time>
      </trkpt>
      <trkpt lat="45.635" lon="6.5901">
        <ele>1709</ele>
        <time>2022-07-27T09:21:45Z</time>
      </trkpt>
      <trkpt lat="45.63502" lon="6.59009">
        <ele>1708</ele>
        <time>2022-07-27T09:21:46Z</time>
      </trkpt>
      <trkpt lat="45.63503" lon="6.59008">
        <ele>1708</ele>
        <time>2022-07-27T09:21:47Z</time>
      </trkpt>
      <trkpt lat="45.63504" lon="6.59006">
        <ele>1708</ele>
        <time>2022-07-27T09:21:48Z</time>
      </trkpt>
      <trkpt lat="45.63505" lon="6.59005">
        <ele>1708</ele>
        <time>2022-07-27T09:21:49Z</time>
      </trkpt>
      <trkpt lat="45.63506" lon="6.59004">
        <ele>1708</ele>
        <time>2022-07-27T09:21:50Z</time>
      </trkpt>
      <trkpt lat="45.63507" lon="6.59002">
        <ele>1707</ele>
        <time>2022-07-27T09:21:51Z</time>
      </trkpt>
      <trkpt lat="45.63508" lon="6.59">
        <ele>1707</ele>
        <time>2022-07-27T09:21:52Z</time>
      </trkpt>
      <trkpt lat="45.63508" lon="6.58999">
        <ele>1707</ele>
        <time>2022-07-27T09:21:53Z</time>
      </trkpt>
      <trkpt lat="45.63509" lon="6.58997">
        <ele>1707</ele>
        <time>2022-07-27T09:21:54Z</time>
      </trkpt>
      <trkpt lat="45.6351" lon="6.58995">
        <ele>1707</ele>
        <time>2022-07-27T09:21:55Z</time>
      </trkpt>
      <trkpt lat="45.63511" lon="6.58993">
        <ele>1707</ele>
        <time>2022-07-27T09:21:56Z</time>
      </trkpt>
      <trkpt lat="45.63511" lon="6.58991">
        <ele>1707</ele>
        <time>2022-07-27T09:21:57Z</time>
      </trkpt>
      <trkpt lat="45.63512" lon="6.5899">
        <ele>1707</ele>
        <time>2022-07-27T09:21:58Z</time>
      </trkpt>
      <trkpt lat="45.63512" lon="6.58988">
        <ele>1707</ele>
        <time>2022-07-27T09:21:59Z</time>
      </trkpt>
      <trkpt lat="45.63513" lon="6.58986">
        <ele>1707</ele>
        <time>2022-07-27T09:22:00Z</time>
      </trkpt>
      <trkpt lat="45.63513" lon="6.58984">
        <ele>1706</ele>
        <time>2022-07-27T09:22:01Z</time>
      </trkpt>
      <trkpt lat="45.63513" lon="6.58982">
        <ele>1706</ele>
        <time>2022-07-27T09:22:02Z</time>
      </trkpt>
      <trkpt lat="45.63514" lon="6.5898">
        <ele>1706</ele>
        <time>2022-07-27T09:22:03Z</time>
      </trkpt>
      <trkpt lat="45.63515" lon="6.58978">
        <ele>1706</ele>
        <time>2022-07-27T09:22:04Z</time>
      </trkpt>
      <trkpt lat="45.63516" lon="6.58977">
        <ele>1706</ele>
        <time>2022-07-27T09:22:05Z</time>
      </trkpt>
      <trkpt lat="45.63516" lon="6.58976">
        <ele>1705</ele>
        <time>2022-07-27T09:22:06Z</time>
      </trkpt>
      <trkpt lat="45.63517" lon="6.58974">
        <ele>1705</ele>
        <time>2022-07-27T09:22:07Z</time>
      </trkpt>
      <trkpt lat="45.63519" lon="6.58973">
        <ele>1705</ele>
        <time>2022-07-27T09:22:08Z</time>
      </trkpt>
      <trkpt lat="45.6352" lon="6.58972">
        <ele>1705</ele>
        <time>2022-07-27T09:22:09Z</time>
      </trkpt>
      <trkpt lat="45.63521" lon="6.5897">
        <ele>1705</ele>
        <time>2022-07-27T09:22:10Z</time>
      </trkpt>
      <trkpt lat="45.63522" lon="6.58969">
        <ele>1704</ele>
        <time>2022-07-27T09:22:11Z</time>
      </trkpt>
      <trkpt lat="45.63523" lon="6.58968">
        <ele>1704</ele>
        <time>2022-07-27T09:22:12Z</time>
      </trkpt>
      <trkpt lat="45.63524" lon="6.58967">
        <ele>1704</ele>
        <time>2022-07-27T09:22:13Z</time>
      </trkpt>
      <trkpt lat="45.63525" lon="6.58966">
        <ele>1704</ele>
        <time>2022-07-27T09:22:14Z</time>
      </trkpt>
      <trkpt lat="45.63526" lon="6.58965">
        <ele>1704</ele>
        <time>2022-07-27T09:22:15Z</time>
      </trkpt>
      <trkpt lat="45.63527" lon="6.58964">
        <ele>1704</ele>
        <time>2022-07-27T09:22:16Z</time>
      </trkpt>
      <trkpt lat="45.63527" lon="6.58962">
        <ele>1704</ele>
        <time>2022-07-27T09:22:17Z</time>
      </trkpt>
      <trkpt lat="45.63528" lon="6.58961">
        <ele>1704</ele>
        <time>2022-07-27T09:22:18Z</time>
      </trkpt>
      <trkpt lat="45.63529" lon="6.5896">
        <ele>1704</ele>
        <time>2022-07-27T09:22:19Z</time>
      </trkpt>
      <trkpt lat="45.6353" lon="6.58958">
        <ele>1704</ele>
        <time>2022-07-27T09:22:20Z</time>
      </trkpt>
      <trkpt lat="45.63531" lon="6.58957">
        <ele>1703</ele>
        <time>2022-07-27T09:22:21Z</time>
      </trkpt>
      <trkpt lat="45.63531" lon="6.58955">
        <ele>1703</ele>
        <time>2022-07-27T09:22:22Z</time>
      </trkpt>
      <trkpt lat="45.63532" lon="6.58954">
        <ele>1703</ele>
        <time>2022-07-27T09:22:23Z</time>
      </trkpt>
      <trkpt lat="45.63533" lon="6.58952">
        <ele>1703</ele>
        <time>2022-07-27T09:22:24Z</time>
      </trkpt>
      <trkpt lat="45.63534" lon="6.58951">
        <ele>1703</ele>
        <time>2022-07-27T09:22:25Z</time>
      </trkpt>
      <trkpt lat="45.63535" lon="6.58949">
        <ele>1703</ele>
        <time>2022-07-27T09:22:26Z</time>
      </trkpt>
      <trkpt lat="45.63537" lon="6.58948">
        <ele>1703</ele>
        <time>2022-07-27T09:22:27Z</time>
      </trkpt>
      <trkpt lat="45.63538" lon="6.58947">
        <ele>1703</ele>
        <time>2022-07-27T09:22:28Z</time>
      </trkpt>
      <trkpt lat="45.63539" lon="6.58946">
        <ele>1703</ele>
        <time>2022-07-27T09:22:29Z</time>
      </trkpt>
      <trkpt lat="45.6354" lon="6.58945">
        <ele>1703</ele>
        <time>2022-07-27T09:22:30Z</time>
      </trkpt>
      <trkpt lat="45.63542" lon="6.58945">
        <ele>1702</ele>
        <time>2022-07-27T09:22:31Z</time>
      </trkpt>
      <trkpt lat="45.63543" lon="6.58944">
        <ele>1702</ele>
        <time>2022-07-27T09:22:32Z</time>
      </trkpt>
      <trkpt lat="45.63544" lon="6.58943">
        <ele>1702</ele>
        <time>2022-07-27T09:22:33Z</time>
      </trkpt>
      <trkpt lat="45.63545" lon="6.58943">
        <ele>1702</ele>
        <time>2022-07-27T09:22:34Z</time>
      </trkpt>
      <trkpt lat="45.63546" lon="6.58942">
        <ele>1702</ele>
        <time>2022-07-27T09:22:35Z</time>
      </trkpt>
      <trkpt lat="45.63547" lon="6.58941">
        <ele>1701</ele>
        <time>2022-07-27T09:22:36Z</time>
      </trkpt>
      <trkpt lat="45.63548" lon="6.5894">
        <ele>1701</ele>
        <time>2022-07-27T09:22:37Z</time>
      </trkpt>
      <trkpt lat="45.63549" lon="6.5894">
        <ele>1701</ele>
        <time>2022-07-27T09:22:38Z</time>
      </trkpt>
      <trkpt lat="45.6355" lon="6.58939">
        <ele>1701</ele>
        <time>2022-07-27T09:22:39Z</time>
      </trkpt>
      <trkpt lat="45.63551" lon="6.58938">
        <ele>1701</ele>
        <time>2022-07-27T09:22:40Z</time>
      </trkpt>
      <trkpt lat="45.63551" lon="6.58938">
        <ele>1701</ele>
        <time>2022-07-27T09:22:41Z</time>
      </trkpt>
      <trkpt lat="45.63552" lon="6.58937">
        <ele>1701</ele>
        <time>2022-07-27T09:22:42Z</time>
      </trkpt>
      <trkpt lat="45.63553" lon="6.58937">
        <ele>1701</ele>
        <time>2022-07-27T09:22:43Z</time>
      </trkpt>
      <trkpt lat="45.63553" lon="6.58936">
        <ele>1701</ele>
        <time>2022-07-27T09:22:44Z</time>
      </trkpt>
      <trkpt lat="45.63554" lon="6.58935">
        <ele>1701</ele>
        <time>2022-07-27T09:22:45Z</time>
      </trkpt>
      <trkpt lat="45.63555" lon="6.58934">
        <ele>1700</ele>
        <time>2022-07-27T09:22:46Z</time>
      </trkpt>
      <trkpt lat="45.63556" lon="6.58933">
        <ele>1700</ele>
        <time>2022-07-27T09:22:47Z</time>
      </trkpt>
      <trkpt lat="45.63557" lon="6.58932">
        <ele>1700</ele>
        <time>2022-07-27T09:22:48Z</time>
      </trkpt>
      <trkpt lat="45.63557" lon="6.58932">
        <ele>1700</ele>
        <time>2022-07-27T09:22:49Z</time>
      </trkpt>
      <trkpt lat="45.63557" lon="6.58932">
        <ele>1700</ele>
        <time>2022-07-27T09:22:50Z</time>
      </trkpt>
      <trkpt lat="45.63557" lon="6.58932">
        <ele>1699</ele>
        <time>2022-07-27T09:22:51Z</time>
      </trkpt>
      <trkpt lat="45.63558" lon="6.58932">
        <ele>1699</ele>
        <time>2022-07-27T09:22:52Z</time>
      </trkpt>
      <trkpt lat="45.63558" lon="6.58932">
        <ele>1699</ele>
        <time>2022-07-27T09:22:53Z</time>
      </trkpt>
      <trkpt lat="45.63558" lon="6.58931">
        <ele>1699</ele>
        <time>2022-07-27T09:22:54Z</time>
      </trkpt>
      <trkpt lat="45.63559" lon="6.58931">
        <ele>1699</ele>
        <time>2022-07-27T09:22:55Z</time>
      </trkpt>
      <trkpt lat="45.6356" lon="6.5893">
        <ele>1698</ele>
        <time>2022-07-27T09:22:56Z</time>
      </trkpt>
      <trkpt lat="45.6356" lon="6.5893">
        <ele>1698</ele>
        <time>2022-07-27T09:22:57Z</time>
      </trkpt>
      <trkpt lat="45.63561" lon="6.58929">
        <ele>1698</ele>
        <time>2022-07-27T09:22:58Z</time>
      </trkpt>
      <trkpt lat="45.63561" lon="6.58929">
        <ele>1698</ele>
        <time>2022-07-27T09:22:59Z</time>
      </trkpt>
      <trkpt lat="45.63561" lon="6.58929">
        <ele>1698</ele>
        <time>2022-07-27T09:23:00Z</time>
      </trkpt>
      <trkpt lat="45.63562" lon="6.58929">
        <ele>1698</ele>
        <time>2022-07-27T09:23:01Z</time>
      </trkpt>
      <trkpt lat="45.63562" lon="6.58928">
        <ele>1698</ele>
        <time>2022-07-27T09:23:02Z</time>
      </trkpt>
      <trkpt lat="45.63562" lon="6.58928">
        <ele>1698</ele>
        <time>2022-07-27T09:23:03Z</time>
      </trkpt>
      <trkpt lat="45.63563" lon="6.58927">
        <ele>1698</ele>
        <time>2022-07-27T09:23:04Z</time>
      </trkpt>
      <trkpt lat="45.63563" lon="6.58926">
        <ele>1698</ele>
        <time>2022-07-27T09:23:05Z</time>
      </trkpt>
      <trkpt lat="45.63563" lon="6.58925">
        <ele>1697</ele>
        <time>2022-07-27T09:23:06Z</time>
      </trkpt>
      <trkpt lat="45.63564" lon="6.58924">
        <ele>1697</ele>
        <time>2022-07-27T09:23:07Z</time>
      </trkpt>
      <trkpt lat="45.63565" lon="6.58923">
        <ele>1697</ele>
        <time>2022-07-27T09:23:08Z</time>
      </trkpt>
      <trkpt lat="45.63566" lon="6.58922">
        <ele>1697</ele>
        <time>2022-07-27T09:23:09Z</time>
      </trkpt>
      <trkpt lat="45.63566" lon="6.58921">
        <ele>1697</ele>
        <time>2022-07-27T09:23:10Z</time>
      </trkpt>
      <trkpt lat="45.63567" lon="6.5892">
        <ele>1697</ele>
        <time>2022-07-27T09:23:11Z</time>
      </trkpt>
      <trkpt lat="45.63568" lon="6.58919">
        <ele>1697</ele>
        <time>2022-07-27T09:23:12Z</time>
      </trkpt>
      <trkpt lat="45.6357" lon="6.58918">
        <ele>1697</ele>
        <time>2022-07-27T09:23:13Z</time>
      </trkpt>
      <trkpt lat="45.63571" lon="6.58917">
        <ele>1697</ele>
        <time>2022-07-27T09:23:14Z</time>
      </trkpt>
      <trkpt lat="45.63572" lon="6.58916">
        <ele>1697</ele>
        <time>2022-07-27T09:23:15Z</time>
      </trkpt>
      <trkpt lat="45.63573" lon="6.58915">
        <ele>1697</ele>
        <time>2022-07-27T09:23:16Z</time>
      </trkpt>
      <trkpt lat="45.63574" lon="6.58915">
        <ele>1697</ele>
        <time>2022-07-27T09:23:17Z</time>
      </trkpt>
      <trkpt lat="45.63575" lon="6.58914">
        <ele>1697</ele>
        <time>2022-07-27T09:23:18Z</time>
      </trkpt>
      <trkpt lat="45.63576" lon="6.58913">
        <ele>1697</ele>
        <time>2022-07-27T09:23:19Z</time>
      </trkpt>
      <trkpt lat="45.63577" lon="6.58912">
        <ele>1697</ele>
        <time>2022-07-27T09:23:20Z</time>
      </trkpt>
      <trkpt lat="45.63579" lon="6.58912">
        <ele>1697</ele>
        <time>2022-07-27T09:23:21Z</time>
      </trkpt>
      <trkpt lat="45.6358" lon="6.58911">
        <ele>1697</ele>
        <time>2022-07-27T09:23:22Z</time>
      </trkpt>
      <trkpt lat="45.63581" lon="6.58911">
        <ele>1697</ele>
        <time>2022-07-27T09:23:23Z</time>
      </trkpt>
      <trkpt lat="45.63582" lon="6.5891">
        <ele>1697</ele>
        <time>2022-07-27T09:23:24Z</time>
      </trkpt>
      <trkpt lat="45.63583" lon="6.5891">
        <ele>1698</ele>
        <time>2022-07-27T09:23:25Z</time>
      </trkpt>
      <trkpt lat="45.63584" lon="6.58909">
        <ele>1698</ele>
        <time>2022-07-27T09:23:26Z</time>
      </trkpt>
      <trkpt lat="45.63586" lon="6.58909">
        <ele>1698</ele>
        <time>2022-07-27T09:23:27Z</time>
      </trkpt>
      <trkpt lat="45.63587" lon="6.58909">
        <ele>1698</ele>
        <time>2022-07-27T09:23:28Z</time>
      </trkpt>
      <trkpt lat="45.63588" lon="6.58908">
        <ele>1698</ele>
        <time>2022-07-27T09:23:29Z</time>
      </trkpt>
      <trkpt lat="45.63589" lon="6.58908">
        <ele>1699</ele>
        <time>2022-07-27T09:23:30Z</time>
      </trkpt>
      <trkpt lat="45.6359" lon="6.58908">
        <ele>1698</ele>
        <time>2022-07-27T09:23:31Z</time>
      </trkpt>
      <trkpt lat="45.63591" lon="6.58908">
        <ele>1698</ele>
        <time>2022-07-27T09:23:32Z</time>
      </trkpt>
      <trkpt lat="45.63593" lon="6.58907">
        <ele>1698</ele>
        <time>2022-07-27T09:23:33Z</time>
      </trkpt>
      <trkpt lat="45.63594" lon="6.58907">
        <ele>1698</ele>
        <time>2022-07-27T09:23:34Z</time>
      </trkpt>
      <trkpt lat="45.63595" lon="6.58906">
        <ele>1698</ele>
        <time>2022-07-27T09:23:35Z</time>
      </trkpt>
      <trkpt lat="45.63596" lon="6.58906">
        <ele>1698</ele>
        <time>2022-07-27T09:23:36Z</time>
      </trkpt>
      <trkpt lat="45.63597" lon="6.58905">
        <ele>1698</ele>
        <time>2022-07-27T09:23:37Z</time>
      </trkpt>
      <trkpt lat="45.63597" lon="6.58904">
        <ele>1698</ele>
        <time>2022-07-27T09:23:38Z</time>
      </trkpt>
      <trkpt lat="45.63598" lon="6.58902">
        <ele>1698</ele>
        <time>2022-07-27T09:23:39Z</time>
      </trkpt>
      <trkpt lat="45.636" lon="6.58901">
        <ele>1698</ele>
        <time>2022-07-27T09:23:40Z</time>
      </trkpt>
      <trkpt lat="45.63601" lon="6.589">
        <ele>1697</ele>
        <time>2022-07-27T09:23:41Z</time>
      </trkpt>
      <trkpt lat="45.63602" lon="6.58899">
        <ele>1697</ele>
        <time>2022-07-27T09:23:42Z</time>
      </trkpt>
      <trkpt lat="45.63603" lon="6.58898">
        <ele>1697</ele>
        <time>2022-07-27T09:23:43Z</time>
      </trkpt>
      <trkpt lat="45.63603" lon="6.58897">
        <ele>1697</ele>
        <time>2022-07-27T09:23:44Z</time>
      </trkpt>
      <trkpt lat="45.63604" lon="6.58896">
        <ele>1697</ele>
        <time>2022-07-27T09:23:45Z</time>
      </trkpt>
      <trkpt lat="45.63605" lon="6.58895">
        <ele>1696</ele>
        <time>2022-07-27T09:23:46Z</time>
      </trkpt>
      <trkpt lat="45.63606" lon="6.58893">
        <ele>1696</ele>
        <time>2022-07-27T09:23:47Z</time>
      </trkpt>
      <trkpt lat="45.63607" lon="6.58892">
        <ele>1696</ele>
        <time>2022-07-27T09:23:48Z</time>
      </trkpt>
      <trkpt lat="45.63607" lon="6.58891">
        <ele>1696</ele>
        <time>2022-07-27T09:23:49Z</time>
      </trkpt>
      <trkpt lat="45.63608" lon="6.58889">
        <ele>1696</ele>
        <time>2022-07-27T09:23:50Z</time>
      </trkpt>
      <trkpt lat="45.63609" lon="6.58888">
        <ele>1694</ele>
        <time>2022-07-27T09:24:07Z</time>
      </trkpt>
      <trkpt lat="45.63609" lon="6.58887">
        <ele>1694</ele>
        <time>2022-07-27T09:24:08Z</time>
      </trkpt>
      <trkpt lat="45.63609" lon="6.58886">
        <ele>1694</ele>
        <time>2022-07-27T09:24:09Z</time>
      </trkpt>
      <trkpt lat="45.6361" lon="6.58885">
        <ele>1694</ele>
        <time>2022-07-27T09:24:10Z</time>
      </trkpt>
      <trkpt lat="45.6361" lon="6.58884">
        <ele>1693</ele>
        <time>2022-07-27T09:24:11Z</time>
      </trkpt>
      <trkpt lat="45.63611" lon="6.58882">
        <ele>1693</ele>
        <time>2022-07-27T09:24:12Z</time>
      </trkpt>
      <trkpt lat="45.63612" lon="6.58881">
        <ele>1693</ele>
        <time>2022-07-27T09:24:13Z</time>
      </trkpt>
      <trkpt lat="45.63613" lon="6.58879">
        <ele>1693</ele>
        <time>2022-07-27T09:24:14Z</time>
      </trkpt>
      <trkpt lat="45.63614" lon="6.58878">
        <ele>1693</ele>
        <time>2022-07-27T09:24:15Z</time>
      </trkpt>
      <trkpt lat="45.63615" lon="6.58876">
        <ele>1692</ele>
        <time>2022-07-27T09:24:16Z</time>
      </trkpt>
      <trkpt lat="45.63616" lon="6.58875">
        <ele>1692</ele>
        <time>2022-07-27T09:24:17Z</time>
      </trkpt>
      <trkpt lat="45.63617" lon="6.58873">
        <ele>1692</ele>
        <time>2022-07-27T09:24:18Z</time>
      </trkpt>
      <trkpt lat="45.63617" lon="6.58871">
        <ele>1692</ele>
        <time>2022-07-27T09:24:19Z</time>
      </trkpt>
      <trkpt lat="45.63618" lon="6.5887">
        <ele>1692</ele>
        <time>2022-07-27T09:24:20Z</time>
      </trkpt>
      <trkpt lat="45.63619" lon="6.58869">
        <ele>1691</ele>
        <time>2022-07-27T09:24:21Z</time>
      </trkpt>
      <trkpt lat="45.6362" lon="6.58868">
        <ele>1691</ele>
        <time>2022-07-27T09:24:22Z</time>
      </trkpt>
      <trkpt lat="45.63621" lon="6.58867">
        <ele>1691</ele>
        <time>2022-07-27T09:24:23Z</time>
      </trkpt>
      <trkpt lat="45.63622" lon="6.58867">
        <ele>1691</ele>
        <time>2022-07-27T09:24:24Z</time>
      </trkpt>
      <trkpt lat="45.63623" lon="6.58866">
        <ele>1691</ele>
        <time>2022-07-27T09:24:25Z</time>
      </trkpt>
      <trkpt lat="45.63623" lon="6.58866">
        <ele>1691</ele>
        <time>2022-07-27T09:24:26Z</time>
      </trkpt>
      <trkpt lat="45.63624" lon="6.58866">
        <ele>1691</ele>
        <time>2022-07-27T09:24:27Z</time>
      </trkpt>
      <trkpt lat="45.63625" lon="6.58865">
        <ele>1691</ele>
        <time>2022-07-27T09:24:28Z</time>
      </trkpt>
      <trkpt lat="45.63626" lon="6.58865">
        <ele>1691</ele>
        <time>2022-07-27T09:24:29Z</time>
      </trkpt>
      <trkpt lat="45.63627" lon="6.58864">
        <ele>1691</ele>
        <time>2022-07-27T09:24:30Z</time>
      </trkpt>
      <trkpt lat="45.63628" lon="6.58864">
        <ele>1691</ele>
        <time>2022-07-27T09:24:31Z</time>
      </trkpt>
      <trkpt lat="45.63629" lon="6.58863">
        <ele>1691</ele>
        <time>2022-07-27T09:24:32Z</time>
      </trkpt>
      <trkpt lat="45.6363" lon="6.58863">
        <ele>1691</ele>
        <time>2022-07-27T09:24:33Z</time>
      </trkpt>
      <trkpt lat="45.63632" lon="6.58863">
        <ele>1691</ele>
        <time>2022-07-27T09:24:34Z</time>
      </trkpt>
      <trkpt lat="45.63633" lon="6.58863">
        <ele>1691</ele>
        <time>2022-07-27T09:24:35Z</time>
      </trkpt>
      <trkpt lat="45.63634" lon="6.58863">
        <ele>1691</ele>
        <time>2022-07-27T09:24:36Z</time>
      </trkpt>
      <trkpt lat="45.63636" lon="6.58863">
        <ele>1691</ele>
        <time>2022-07-27T09:24:37Z</time>
      </trkpt>
      <trkpt lat="45.63637" lon="6.58863">
        <ele>1691</ele>
        <time>2022-07-27T09:24:38Z</time>
      </trkpt>
      <trkpt lat="45.63638" lon="6.58863">
        <ele>1691</ele>
        <time>2022-07-27T09:24:39Z</time>
      </trkpt>
      <trkpt lat="45.63639" lon="6.58862">
        <ele>1691</ele>
        <time>2022-07-27T09:24:40Z</time>
      </trkpt>
      <trkpt lat="45.6364" lon="6.58862">
        <ele>1690</ele>
        <time>2022-07-27T09:24:41Z</time>
      </trkpt>
      <trkpt lat="45.63641" lon="6.58861">
        <ele>1690</ele>
        <time>2022-07-27T09:24:42Z</time>
      </trkpt>
      <trkpt lat="45.63642" lon="6.58861">
        <ele>1690</ele>
        <time>2022-07-27T09:24:43Z</time>
      </trkpt>
      <trkpt lat="45.63644" lon="6.5886">
        <ele>1690</ele>
        <time>2022-07-27T09:24:44Z</time>
      </trkpt>
      <trkpt lat="45.63645" lon="6.5886">
        <ele>1690</ele>
        <time>2022-07-27T09:24:45Z</time>
      </trkpt>
      <trkpt lat="45.63646" lon="6.58859">
        <ele>1689</ele>
        <time>2022-07-27T09:24:46Z</time>
      </trkpt>
      <trkpt lat="45.63647" lon="6.58858">
        <ele>1689</ele>
        <time>2022-07-27T09:24:47Z</time>
      </trkpt>
      <trkpt lat="45.63648" lon="6.58858">
        <ele>1689</ele>
        <time>2022-07-27T09:24:48Z</time>
      </trkpt>
      <trkpt lat="45.63649" lon="6.58857">
        <ele>1689</ele>
        <time>2022-07-27T09:24:49Z</time>
      </trkpt>
      <trkpt lat="45.6365" lon="6.58856">
        <ele>1689</ele>
        <time>2022-07-27T09:24:50Z</time>
      </trkpt>
      <trkpt lat="45.63651" lon="6.58855">
        <ele>1689</ele>
        <time>2022-07-27T09:24:51Z</time>
      </trkpt>
      <trkpt lat="45.63652" lon="6.58854">
        <ele>1689</ele>
        <time>2022-07-27T09:24:52Z</time>
      </trkpt>
      <trkpt lat="45.63653" lon="6.58853">
        <ele>1689</ele>
        <time>2022-07-27T09:24:53Z</time>
      </trkpt>
      <trkpt lat="45.63654" lon="6.58852">
        <ele>1689</ele>
        <time>2022-07-27T09:24:54Z</time>
      </trkpt>
      <trkpt lat="45.63655" lon="6.58851">
        <ele>1689</ele>
        <time>2022-07-27T09:24:55Z</time>
      </trkpt>
      <trkpt lat="45.63657" lon="6.5885">
        <ele>1688</ele>
        <time>2022-07-27T09:24:56Z</time>
      </trkpt>
      <trkpt lat="45.63658" lon="6.58849">
        <ele>1688</ele>
        <time>2022-07-27T09:24:57Z</time>
      </trkpt>
      <trkpt lat="45.63659" lon="6.58848">
        <ele>1688</ele>
        <time>2022-07-27T09:24:58Z</time>
      </trkpt>
      <trkpt lat="45.6366" lon="6.58846">
        <ele>1688</ele>
        <time>2022-07-27T09:24:59Z</time>
      </trkpt>
      <trkpt lat="45.63661" lon="6.58845">
        <ele>1688</ele>
        <time>2022-07-27T09:25:00Z</time>
      </trkpt>
      <trkpt lat="45.63662" lon="6.58844">
        <ele>1687</ele>
        <time>2022-07-27T09:25:01Z</time>
      </trkpt>
      <trkpt lat="45.63663" lon="6.58843">
        <ele>1687</ele>
        <time>2022-07-27T09:25:02Z</time>
      </trkpt>
      <trkpt lat="45.63664" lon="6.58842">
        <ele>1687</ele>
        <time>2022-07-27T09:25:03Z</time>
      </trkpt>
      <trkpt lat="45.63666" lon="6.58841">
        <ele>1687</ele>
        <time>2022-07-27T09:25:04Z</time>
      </trkpt>
      <trkpt lat="45.63667" lon="6.58839">
        <ele>1687</ele>
        <time>2022-07-27T09:25:05Z</time>
      </trkpt>
      <trkpt lat="45.63668" lon="6.58838">
        <ele>1686</ele>
        <time>2022-07-27T09:25:06Z</time>
      </trkpt>
      <trkpt lat="45.63669" lon="6.58837">
        <ele>1686</ele>
        <time>2022-07-27T09:25:07Z</time>
      </trkpt>
      <trkpt lat="45.6367" lon="6.58836">
        <ele>1685</ele>
        <time>2022-07-27T09:25:08Z</time>
      </trkpt>
      <trkpt lat="45.63671" lon="6.58836">
        <ele>1685</ele>
        <time>2022-07-27T09:25:09Z</time>
      </trkpt>
      <trkpt lat="45.63672" lon="6.58835">
        <ele>1685</ele>
        <time>2022-07-27T09:25:10Z</time>
      </trkpt>
      <trkpt lat="45.63673" lon="6.58834">
        <ele>1684</ele>
        <time>2022-07-27T09:25:11Z</time>
      </trkpt>
      <trkpt lat="45.63674" lon="6.58833">
        <ele>1684</ele>
        <time>2022-07-27T09:25:12Z</time>
      </trkpt>
      <trkpt lat="45.63675" lon="6.58832">
        <ele>1684</ele>
        <time>2022-07-27T09:25:13Z</time>
      </trkpt>
      <trkpt lat="45.63676" lon="6.58832">
        <ele>1684</ele>
        <time>2022-07-27T09:25:14Z</time>
      </trkpt>
      <trkpt lat="45.63678" lon="6.58831">
        <ele>1684</ele>
        <time>2022-07-27T09:25:15Z</time>
      </trkpt>
      <trkpt lat="45.63679" lon="6.5883">
        <ele>1683</ele>
        <time>2022-07-27T09:25:16Z</time>
      </trkpt>
      <trkpt lat="45.6368" lon="6.5883">
        <ele>1683</ele>
        <time>2022-07-27T09:25:17Z</time>
      </trkpt>
      <trkpt lat="45.63681" lon="6.58829">
        <ele>1683</ele>
        <time>2022-07-27T09:25:18Z</time>
      </trkpt>
      <trkpt lat="45.63683" lon="6.58828">
        <ele>1683</ele>
        <time>2022-07-27T09:25:19Z</time>
      </trkpt>
      <trkpt lat="45.63684" lon="6.58827">
        <ele>1683</ele>
        <time>2022-07-27T09:25:20Z</time>
      </trkpt>
      <trkpt lat="45.63685" lon="6.58826">
        <ele>1682</ele>
        <time>2022-07-27T09:25:21Z</time>
      </trkpt>
      <trkpt lat="45.63686" lon="6.58825">
        <ele>1682</ele>
        <time>2022-07-27T09:25:22Z</time>
      </trkpt>
      <trkpt lat="45.63688" lon="6.58824">
        <ele>1682</ele>
        <time>2022-07-27T09:25:23Z</time>
      </trkpt>
      <trkpt lat="45.63689" lon="6.58823">
        <ele>1682</ele>
        <time>2022-07-27T09:25:24Z</time>
      </trkpt>
      <trkpt lat="45.63691" lon="6.58823">
        <ele>1682</ele>
        <time>2022-07-27T09:25:25Z</time>
      </trkpt>
      <trkpt lat="45.63692" lon="6.58822">
        <ele>1681</ele>
        <time>2022-07-27T09:25:26Z</time>
      </trkpt>
      <trkpt lat="45.63693" lon="6.58822">
        <ele>1681</ele>
        <time>2022-07-27T09:25:27Z</time>
      </trkpt>
      <trkpt lat="45.63695" lon="6.58822">
        <ele>1681</ele>
        <time>2022-07-27T09:25:28Z</time>
      </trkpt>
      <trkpt lat="45.63696" lon="6.58821">
        <ele>1681</ele>
        <time>2022-07-27T09:25:29Z</time>
      </trkpt>
      <trkpt lat="45.63697" lon="6.58821">
        <ele>1681</ele>
        <time>2022-07-27T09:25:30Z</time>
      </trkpt>
      <trkpt lat="45.63698" lon="6.5882">
        <ele>1680</ele>
        <time>2022-07-27T09:25:31Z</time>
      </trkpt>
      <trkpt lat="45.637" lon="6.5882">
        <ele>1680</ele>
        <time>2022-07-27T09:25:32Z</time>
      </trkpt>
      <trkpt lat="45.63701" lon="6.58819">
        <ele>1680</ele>
        <time>2022-07-27T09:25:33Z</time>
      </trkpt>
      <trkpt lat="45.63702" lon="6.58818">
        <ele>1680</ele>
        <time>2022-07-27T09:25:34Z</time>
      </trkpt>
      <trkpt lat="45.63703" lon="6.58818">
        <ele>1680</ele>
        <time>2022-07-27T09:25:35Z</time>
      </trkpt>
      <trkpt lat="45.63704" lon="6.58817">
        <ele>1679</ele>
        <time>2022-07-27T09:25:36Z</time>
      </trkpt>
      <trkpt lat="45.63706" lon="6.58816">
        <ele>1679</ele>
        <time>2022-07-27T09:25:37Z</time>
      </trkpt>
      <trkpt lat="45.63707" lon="6.58816">
        <ele>1679</ele>
        <time>2022-07-27T09:25:38Z</time>
      </trkpt>
      <trkpt lat="45.63708" lon="6.58815">
        <ele>1679</ele>
        <time>2022-07-27T09:25:39Z</time>
      </trkpt>
      <trkpt lat="45.63709" lon="6.58814">
        <ele>1679</ele>
        <time>2022-07-27T09:25:40Z</time>
      </trkpt>
      <trkpt lat="45.63711" lon="6.58814">
        <ele>1678</ele>
        <time>2022-07-27T09:25:41Z</time>
      </trkpt>
      <trkpt lat="45.63712" lon="6.58814">
        <ele>1678</ele>
        <time>2022-07-27T09:25:42Z</time>
      </trkpt>
      <trkpt lat="45.63714" lon="6.58814">
        <ele>1678</ele>
        <time>2022-07-27T09:25:43Z</time>
      </trkpt>
      <trkpt lat="45.63715" lon="6.58814">
        <ele>1678</ele>
        <time>2022-07-27T09:25:44Z</time>
      </trkpt>
      <trkpt lat="45.63716" lon="6.58814">
        <ele>1678</ele>
        <time>2022-07-27T09:25:45Z</time>
      </trkpt>
      <trkpt lat="45.63718" lon="6.58815">
        <ele>1677</ele>
        <time>2022-07-27T09:25:46Z</time>
      </trkpt>
      <trkpt lat="45.63719" lon="6.58816">
        <ele>1677</ele>
        <time>2022-07-27T09:25:47Z</time>
      </trkpt>
      <trkpt lat="45.6372" lon="6.58817">
        <ele>1677</ele>
        <time>2022-07-27T09:25:48Z</time>
      </trkpt>
      <trkpt lat="45.63721" lon="6.58818">
        <ele>1677</ele>
        <time>2022-07-27T09:25:49Z</time>
      </trkpt>
      <trkpt lat="45.63722" lon="6.58819">
        <ele>1677</ele>
        <time>2022-07-27T09:25:50Z</time>
      </trkpt>
      <trkpt lat="45.63723" lon="6.5882">
        <ele>1676</ele>
        <time>2022-07-27T09:25:51Z</time>
      </trkpt>
      <trkpt lat="45.63724" lon="6.58821">
        <ele>1676</ele>
        <time>2022-07-27T09:25:52Z</time>
      </trkpt>
      <trkpt lat="45.63725" lon="6.58822">
        <ele>1676</ele>
        <time>2022-07-27T09:25:53Z</time>
      </trkpt>
      <trkpt lat="45.63726" lon="6.58822">
        <ele>1676</ele>
        <time>2022-07-27T09:25:54Z</time>
      </trkpt>
      <trkpt lat="45.63727" lon="6.58823">
        <ele>1676</ele>
        <time>2022-07-27T09:25:55Z</time>
      </trkpt>
      <trkpt lat="45.63728" lon="6.58823">
        <ele>1675</ele>
        <time>2022-07-27T09:25:56Z</time>
      </trkpt>
      <trkpt lat="45.63729" lon="6.58823">
        <ele>1675</ele>
        <time>2022-07-27T09:25:57Z</time>
      </trkpt>
      <trkpt lat="45.6373" lon="6.58823">
        <ele>1675</ele>
        <time>2022-07-27T09:25:58Z</time>
      </trkpt>
      <trkpt lat="45.63731" lon="6.58823">
        <ele>1675</ele>
        <time>2022-07-27T09:25:59Z</time>
      </trkpt>
      <trkpt lat="45.63732" lon="6.58823">
        <ele>1675</ele>
        <time>2022-07-27T09:26:00Z</time>
      </trkpt>
      <trkpt lat="45.63733" lon="6.58824">
        <ele>1674</ele>
        <time>2022-07-27T09:26:01Z</time>
      </trkpt>
      <trkpt lat="45.63734" lon="6.58824">
        <ele>1674</ele>
        <time>2022-07-27T09:26:02Z</time>
      </trkpt>
      <trkpt lat="45.63734" lon="6.58824">
        <ele>1674</ele>
        <time>2022-07-27T09:26:03Z</time>
      </trkpt>
      <trkpt lat="45.63735" lon="6.58825">
        <ele>1674</ele>
        <time>2022-07-27T09:26:04Z</time>
      </trkpt>
      <trkpt lat="45.63736" lon="6.58825">
        <ele>1674</ele>
        <time>2022-07-27T09:26:05Z</time>
      </trkpt>
      <trkpt lat="45.63737" lon="6.58825">
        <ele>1673</ele>
        <time>2022-07-27T09:26:06Z</time>
      </trkpt>
      <trkpt lat="45.63738" lon="6.58825">
        <ele>1673</ele>
        <time>2022-07-27T09:26:07Z</time>
      </trkpt>
      <trkpt lat="45.63739" lon="6.58826">
        <ele>1672</ele>
        <time>2022-07-27T09:26:08Z</time>
      </trkpt>
      <trkpt lat="45.6374" lon="6.58826">
        <ele>1672</ele>
        <time>2022-07-27T09:26:09Z</time>
      </trkpt>
      <trkpt lat="45.6374" lon="6.58827">
        <ele>1672</ele>
        <time>2022-07-27T09:26:10Z</time>
      </trkpt>
      <trkpt lat="45.63741" lon="6.58827">
        <ele>1671</ele>
        <time>2022-07-27T09:26:11Z</time>
      </trkpt>
      <trkpt lat="45.63742" lon="6.58828">
        <ele>1671</ele>
        <time>2022-07-27T09:26:12Z</time>
      </trkpt>
      <trkpt lat="45.63743" lon="6.58828">
        <ele>1671</ele>
        <time>2022-07-27T09:26:13Z</time>
      </trkpt>
      <trkpt lat="45.63744" lon="6.58829">
        <ele>1671</ele>
        <time>2022-07-27T09:26:14Z</time>
      </trkpt>
      <trkpt lat="45.63745" lon="6.58829">
        <ele>1671</ele>
        <time>2022-07-27T09:26:15Z</time>
      </trkpt>
      <trkpt lat="45.63746" lon="6.58829">
        <ele>1670</ele>
        <time>2022-07-27T09:26:16Z</time>
      </trkpt>
      <trkpt lat="45.63747" lon="6.5883">
        <ele>1670</ele>
        <time>2022-07-27T09:26:17Z</time>
      </trkpt>
      <trkpt lat="45.63748" lon="6.58829">
        <ele>1668</ele>
        <time>2022-07-27T09:26:54Z</time>
      </trkpt>
      <trkpt lat="45.63748" lon="6.58829">
        <ele>1668</ele>
        <time>2022-07-27T09:26:55Z</time>
      </trkpt>
      <trkpt lat="45.63748" lon="6.58829">
        <ele>1668</ele>
        <time>2022-07-27T09:26:56Z</time>
      </trkpt>
      <trkpt lat="45.63749" lon="6.58828">
        <ele>1668</ele>
        <time>2022-07-27T09:27:04Z</time>
      </trkpt>
      <trkpt lat="45.63749" lon="6.58827">
        <ele>1668</ele>
        <time>2022-07-27T09:27:05Z</time>
      </trkpt>
      <trkpt lat="45.6375" lon="6.58827">
        <ele>1667</ele>
        <time>2022-07-27T09:27:06Z</time>
      </trkpt>
      <trkpt lat="45.6375" lon="6.58826">
        <ele>1667</ele>
        <time>2022-07-27T09:27:07Z</time>
      </trkpt>
      <trkpt lat="45.6375" lon="6.58825">
        <ele>1667</ele>
        <time>2022-07-27T09:27:08Z</time>
      </trkpt>
      <trkpt lat="45.63751" lon="6.58825">
        <ele>1667</ele>
        <time>2022-07-27T09:27:09Z</time>
      </trkpt>
      <trkpt lat="45.63751" lon="6.58825">
        <ele>1667</ele>
        <time>2022-07-27T09:27:10Z</time>
      </trkpt>
      <trkpt lat="45.63751" lon="6.58824">
        <ele>1667</ele>
        <time>2022-07-27T09:27:11Z</time>
      </trkpt>
      <trkpt lat="45.63752" lon="6.58824">
        <ele>1667</ele>
        <time>2022-07-27T09:27:12Z</time>
      </trkpt>
      <trkpt lat="45.63752" lon="6.58823">
        <ele>1667</ele>
        <time>2022-07-27T09:27:13Z</time>
      </trkpt>
      <trkpt lat="45.63752" lon="6.58822">
        <ele>1667</ele>
        <time>2022-07-27T09:27:14Z</time>
      </trkpt>
      <trkpt lat="45.63753" lon="6.58821">
        <ele>1667</ele>
        <time>2022-07-27T09:27:15Z</time>
      </trkpt>
      <trkpt lat="45.63753" lon="6.5882">
        <ele>1666</ele>
        <time>2022-07-27T09:27:16Z</time>
      </trkpt>
      <trkpt lat="45.63753" lon="6.58818">
        <ele>1666</ele>
        <time>2022-07-27T09:27:17Z</time>
      </trkpt>
      <trkpt lat="45.63753" lon="6.58817">
        <ele>1666</ele>
        <time>2022-07-27T09:27:18Z</time>
      </trkpt>
      <trkpt lat="45.63754" lon="6.58815">
        <ele>1666</ele>
        <time>2022-07-27T09:27:19Z</time>
      </trkpt>
      <trkpt lat="45.63754" lon="6.58813">
        <ele>1666</ele>
        <time>2022-07-27T09:27:20Z</time>
      </trkpt>
      <trkpt lat="45.63754" lon="6.58812">
        <ele>1665</ele>
        <time>2022-07-27T09:27:21Z</time>
      </trkpt>
      <trkpt lat="45.63755" lon="6.58811">
        <ele>1665</ele>
        <time>2022-07-27T09:27:22Z</time>
      </trkpt>
      <trkpt lat="45.63755" lon="6.5881">
        <ele>1665</ele>
        <time>2022-07-27T09:27:23Z</time>
      </trkpt>
      <trkpt lat="45.63756" lon="6.5881">
        <ele>1665</ele>
        <time>2022-07-27T09:27:24Z</time>
      </trkpt>
      <trkpt lat="45.63757" lon="6.5881">
        <ele>1665</ele>
        <time>2022-07-27T09:27:25Z</time>
      </trkpt>
      <trkpt lat="45.63757" lon="6.5881">
        <ele>1664</ele>
        <time>2022-07-27T09:27:26Z</time>
      </trkpt>
      <trkpt lat="45.63758" lon="6.5881">
        <ele>1664</ele>
        <time>2022-07-27T09:27:27Z</time>
      </trkpt>
      <trkpt lat="45.63759" lon="6.58811">
        <ele>1664</ele>
        <time>2022-07-27T09:27:28Z</time>
      </trkpt>
      <trkpt lat="45.6376" lon="6.58811">
        <ele>1664</ele>
        <time>2022-07-27T09:27:29Z</time>
      </trkpt>
      <trkpt lat="45.63761" lon="6.58811">
        <ele>1664</ele>
        <time>2022-07-27T09:27:30Z</time>
      </trkpt>
      <trkpt lat="45.63762" lon="6.58812">
        <ele>1663</ele>
        <time>2022-07-27T09:27:56Z</time>
      </trkpt>
      <trkpt lat="45.63763" lon="6.58812">
        <ele>1663</ele>
        <time>2022-07-27T09:27:57Z</time>
      </trkpt>
      <trkpt lat="45.63763" lon="6.58812">
        <ele>1663</ele>
        <time>2022-07-27T09:27:58Z</time>
      </trkpt>
      <trkpt lat="45.63764" lon="6.58812">
        <ele>1663</ele>
        <time>2022-07-27T09:27:59Z</time>
      </trkpt>
      <trkpt lat="45.63765" lon="6.58812">
        <ele>1663</ele>
        <time>2022-07-27T09:28:00Z</time>
      </trkpt>
      <trkpt lat="45.63766" lon="6.58811">
        <ele>1663</ele>
        <time>2022-07-27T09:28:01Z</time>
      </trkpt>
      <trkpt lat="45.63767" lon="6.58811">
        <ele>1663</ele>
        <time>2022-07-27T09:28:02Z</time>
      </trkpt>
      <trkpt lat="45.63768" lon="6.58811">
        <ele>1663</ele>
        <time>2022-07-27T09:28:03Z</time>
      </trkpt>
      <trkpt lat="45.6377" lon="6.5881">
        <ele>1663</ele>
        <time>2022-07-27T09:28:04Z</time>
      </trkpt>
      <trkpt lat="45.63771" lon="6.5881">
        <ele>1663</ele>
        <time>2022-07-27T09:28:05Z</time>
      </trkpt>
      <trkpt lat="45.63772" lon="6.58809">
        <ele>1663</ele>
        <time>2022-07-27T09:28:06Z</time>
      </trkpt>
      <trkpt lat="45.63774" lon="6.58809">
        <ele>1663</ele>
        <time>2022-07-27T09:28:07Z</time>
      </trkpt>
      <trkpt lat="45.63775" lon="6.58808">
        <ele>1663</ele>
        <time>2022-07-27T09:28:08Z</time>
      </trkpt>
      <trkpt lat="45.63777" lon="6.58808">
        <ele>1663</ele>
        <time>2022-07-27T09:28:09Z</time>
      </trkpt>
      <trkpt lat="45.63778" lon="6.58807">
        <ele>1663</ele>
        <time>2022-07-27T09:28:10Z</time>
      </trkpt>
      <trkpt lat="45.63779" lon="6.58806">
        <ele>1662</ele>
        <time>2022-07-27T09:28:11Z</time>
      </trkpt>
      <trkpt lat="45.63781" lon="6.58806">
        <ele>1662</ele>
        <time>2022-07-27T09:28:12Z</time>
      </trkpt>
      <trkpt lat="45.63782" lon="6.58805">
        <ele>1662</ele>
        <time>2022-07-27T09:28:13Z</time>
      </trkpt>
      <trkpt lat="45.63783" lon="6.58804">
        <ele>1662</ele>
        <time>2022-07-27T09:28:14Z</time>
      </trkpt>
      <trkpt lat="45.63784" lon="6.58803">
        <ele>1662</ele>
        <time>2022-07-27T09:28:15Z</time>
      </trkpt>
      <trkpt lat="45.63784" lon="6.58802">
        <ele>1662</ele>
        <time>2022-07-27T09:28:16Z</time>
      </trkpt>
      <trkpt lat="45.63785" lon="6.58801">
        <ele>1662</ele>
        <time>2022-07-27T09:28:17Z</time>
      </trkpt>
      <trkpt lat="45.63786" lon="6.588">
        <ele>1662</ele>
        <time>2022-07-27T09:28:18Z</time>
      </trkpt>
      <trkpt lat="45.63786" lon="6.58798">
        <ele>1662</ele>
        <time>2022-07-27T09:28:19Z</time>
      </trkpt>
      <trkpt lat="45.63787" lon="6.58797">
        <ele>1662</ele>
        <time>2022-07-27T09:28:20Z</time>
      </trkpt>
      <trkpt lat="45.63787" lon="6.58797">
        <ele>1662</ele>
        <time>2022-07-27T09:28:21Z</time>
      </trkpt>
      <trkpt lat="45.63787" lon="6.58796">
        <ele>1662</ele>
        <time>2022-07-27T09:28:22Z</time>
      </trkpt>
      <trkpt lat="45.63787" lon="6.58795">
        <ele>1662</ele>
        <time>2022-07-27T09:28:23Z</time>
      </trkpt>
      <trkpt lat="45.63787" lon="6.58795">
        <ele>1662</ele>
        <time>2022-07-27T09:28:24Z</time>
      </trkpt>
      <trkpt lat="45.63785" lon="6.58795">
        <ele>1662</ele>
        <time>2022-07-27T09:28:30Z</time>
      </trkpt>
      <trkpt lat="45.63784" lon="6.58795">
        <ele>1662</ele>
        <time>2022-07-27T09:28:31Z</time>
      </trkpt>
      <trkpt lat="45.63783" lon="6.58795">
        <ele>1662</ele>
        <time>2022-07-27T09:28:32Z</time>
      </trkpt>
      <trkpt lat="45.63782" lon="6.58796">
        <ele>1662</ele>
        <time>2022-07-27T09:28:33Z</time>
      </trkpt>
      <trkpt lat="45.63782" lon="6.58796">
        <ele>1662</ele>
        <time>2022-07-27T09:28:34Z</time>
      </trkpt>
      <trkpt lat="45.63781" lon="6.58796">
        <ele>1662</ele>
        <time>2022-07-27T09:28:35Z</time>
      </trkpt>
      <trkpt lat="45.6378" lon="6.58796">
        <ele>1661</ele>
        <time>2022-07-27T09:28:36Z</time>
      </trkpt>
      <trkpt lat="45.6378" lon="6.58796">
        <ele>1661</ele>
        <time>2022-07-27T09:28:37Z</time>
      </trkpt>
      <trkpt lat="45.63779" lon="6.58796">
        <ele>1661</ele>
        <time>2022-07-27T09:28:38Z</time>
      </trkpt>
      <trkpt lat="45.63779" lon="6.58795">
        <ele>1661</ele>
        <time>2022-07-27T09:28:39Z</time>
      </trkpt>
      <trkpt lat="45.63778" lon="6.58794">
        <ele>1661</ele>
        <time>2022-07-27T09:28:40Z</time>
      </trkpt>
      <trkpt lat="45.63778" lon="6.58793">
        <ele>1660</ele>
        <time>2022-07-27T09:28:41Z</time>
      </trkpt>
      <trkpt lat="45.63778" lon="6.58791">
        <ele>1660</ele>
        <time>2022-07-27T09:28:42Z</time>
      </trkpt>
      <trkpt lat="45.63778" lon="6.5879">
        <ele>1660</ele>
        <time>2022-07-27T09:28:43Z</time>
      </trkpt>
      <trkpt lat="45.63778" lon="6.58788">
        <ele>1660</ele>
        <time>2022-07-27T09:28:44Z</time>
      </trkpt>
      <trkpt lat="45.63778" lon="6.58786">
        <ele>1660</ele>
        <time>2022-07-27T09:28:45Z</time>
      </trkpt>
      <trkpt lat="45.63778" lon="6.58785">
        <ele>1659</ele>
        <time>2022-07-27T09:28:46Z</time>
      </trkpt>
      <trkpt lat="45.63778" lon="6.58783">
        <ele>1659</ele>
        <time>2022-07-27T09:28:47Z</time>
      </trkpt>
      <trkpt lat="45.63778" lon="6.58781">
        <ele>1659</ele>
        <time>2022-07-27T09:28:48Z</time>
      </trkpt>
      <trkpt lat="45.63778" lon="6.58779">
        <ele>1659</ele>
        <time>2022-07-27T09:28:49Z</time>
      </trkpt>
      <trkpt lat="45.63778" lon="6.58777">
        <ele>1659</ele>
        <time>2022-07-27T09:28:50Z</time>
      </trkpt>
      <trkpt lat="45.63778" lon="6.58776">
        <ele>1658</ele>
        <time>2022-07-27T09:28:51Z</time>
      </trkpt>
      <trkpt lat="45.63777" lon="6.58775">
        <ele>1658</ele>
        <time>2022-07-27T09:28:52Z</time>
      </trkpt>
      <trkpt lat="45.63777" lon="6.58774">
        <ele>1658</ele>
        <time>2022-07-27T09:28:53Z</time>
      </trkpt>
      <trkpt lat="45.63776" lon="6.58773">
        <ele>1658</ele>
        <time>2022-07-27T09:28:54Z</time>
      </trkpt>
      <trkpt lat="45.63775" lon="6.58772">
        <ele>1658</ele>
        <time>2022-07-27T09:28:55Z</time>
      </trkpt>
      <trkpt lat="45.63775" lon="6.58771">
        <ele>1658</ele>
        <time>2022-07-27T09:28:56Z</time>
      </trkpt>
      <trkpt lat="45.63774" lon="6.5877">
        <ele>1658</ele>
        <time>2022-07-27T09:28:57Z</time>
      </trkpt>
      <trkpt lat="45.63773" lon="6.58769">
        <ele>1658</ele>
        <time>2022-07-27T09:28:58Z</time>
      </trkpt>
      <trkpt lat="45.63772" lon="6.58768">
        <ele>1658</ele>
        <time>2022-07-27T09:28:59Z</time>
      </trkpt>
      <trkpt lat="45.63772" lon="6.58768">
        <ele>1658</ele>
        <time>2022-07-27T09:29:00Z</time>
      </trkpt>
      <trkpt lat="45.63772" lon="6.58766">
        <ele>1658</ele>
        <time>2022-07-27T09:29:01Z</time>
      </trkpt>
      <trkpt lat="45.63772" lon="6.58765">
        <ele>1658</ele>
        <time>2022-07-27T09:29:02Z</time>
      </trkpt>
      <trkpt lat="45.63773" lon="6.58764">
        <ele>1658</ele>
        <time>2022-07-27T09:29:03Z</time>
      </trkpt>
      <trkpt lat="45.63773" lon="6.58762">
        <ele>1658</ele>
        <time>2022-07-27T09:29:04Z</time>
      </trkpt>
      <trkpt lat="45.63773" lon="6.58761">
        <ele>1658</ele>
        <time>2022-07-27T09:29:05Z</time>
      </trkpt>
      <trkpt lat="45.63774" lon="6.58759">
        <ele>1657</ele>
        <time>2022-07-27T09:29:06Z</time>
      </trkpt>
      <trkpt lat="45.63774" lon="6.58757">
        <ele>1657</ele>
        <time>2022-07-27T09:29:07Z</time>
      </trkpt>
      <trkpt lat="45.63774" lon="6.58756">
        <ele>1657</ele>
        <time>2022-07-27T09:29:08Z</time>
      </trkpt>
      <trkpt lat="45.63774" lon="6.58754">
        <ele>1657</ele>
        <time>2022-07-27T09:29:09Z</time>
      </trkpt>
      <trkpt lat="45.63774" lon="6.58753">
        <ele>1657</ele>
        <time>2022-07-27T09:29:10Z</time>
      </trkpt>
      <trkpt lat="45.63775" lon="6.58751">
        <ele>1656</ele>
        <time>2022-07-27T09:29:11Z</time>
      </trkpt>
      <trkpt lat="45.63775" lon="6.58749">
        <ele>1656</ele>
        <time>2022-07-27T09:29:12Z</time>
      </trkpt>
      <trkpt lat="45.63775" lon="6.58748">
        <ele>1656</ele>
        <time>2022-07-27T09:29:13Z</time>
      </trkpt>
      <trkpt lat="45.63775" lon="6.58746">
        <ele>1656</ele>
        <time>2022-07-27T09:29:14Z</time>
      </trkpt>
      <trkpt lat="45.63775" lon="6.58745">
        <ele>1656</ele>
        <time>2022-07-27T09:29:15Z</time>
      </trkpt>
      <trkpt lat="45.63776" lon="6.58743">
        <ele>1655</ele>
        <time>2022-07-27T09:29:16Z</time>
      </trkpt>
      <trkpt lat="45.63776" lon="6.58741">
        <ele>1655</ele>
        <time>2022-07-27T09:29:17Z</time>
      </trkpt>
      <trkpt lat="45.63776" lon="6.5874">
        <ele>1655</ele>
        <time>2022-07-27T09:29:18Z</time>
      </trkpt>
      <trkpt lat="45.63777" lon="6.58738">
        <ele>1655</ele>
        <time>2022-07-27T09:29:19Z</time>
      </trkpt>
      <trkpt lat="45.63777" lon="6.58736">
        <ele>1655</ele>
        <time>2022-07-27T09:29:20Z</time>
      </trkpt>
      <trkpt lat="45.63778" lon="6.58735">
        <ele>1654</ele>
        <time>2022-07-27T09:29:21Z</time>
      </trkpt>
      <trkpt lat="45.63778" lon="6.58734">
        <ele>1654</ele>
        <time>2022-07-27T09:29:22Z</time>
      </trkpt>
      <trkpt lat="45.63779" lon="6.58733">
        <ele>1654</ele>
        <time>2022-07-27T09:29:23Z</time>
      </trkpt>
      <trkpt lat="45.6378" lon="6.58732">
        <ele>1654</ele>
        <time>2022-07-27T09:29:24Z</time>
      </trkpt>
      <trkpt lat="45.63781" lon="6.58731">
        <ele>1654</ele>
        <time>2022-07-27T09:29:25Z</time>
      </trkpt>
      <trkpt lat="45.63782" lon="6.5873">
        <ele>1653</ele>
        <time>2022-07-27T09:29:26Z</time>
      </trkpt>
      <trkpt lat="45.63782" lon="6.58729">
        <ele>1653</ele>
        <time>2022-07-27T09:29:27Z</time>
      </trkpt>
      <trkpt lat="45.63783" lon="6.58728">
        <ele>1653</ele>
        <time>2022-07-27T09:29:28Z</time>
      </trkpt>
      <trkpt lat="45.63784" lon="6.58727">
        <ele>1653</ele>
        <time>2022-07-27T09:29:29Z</time>
      </trkpt>
      <trkpt lat="45.63784" lon="6.58726">
        <ele>1653</ele>
        <time>2022-07-27T09:29:30Z</time>
      </trkpt>
      <trkpt lat="45.63785" lon="6.58725">
        <ele>1652</ele>
        <time>2022-07-27T09:29:31Z</time>
      </trkpt>
      <trkpt lat="45.63785" lon="6.58724">
        <ele>1652</ele>
        <time>2022-07-27T09:29:32Z</time>
      </trkpt>
      <trkpt lat="45.63786" lon="6.58723">
        <ele>1651</ele>
        <time>2022-07-27T09:29:33Z</time>
      </trkpt>
      <trkpt lat="45.63787" lon="6.58722">
        <ele>1651</ele>
        <time>2022-07-27T09:29:34Z</time>
      </trkpt>
      <trkpt lat="45.63788" lon="6.58721">
        <ele>1651</ele>
        <time>2022-07-27T09:29:35Z</time>
      </trkpt>
      <trkpt lat="45.63788" lon="6.58721">
        <ele>1650</ele>
        <time>2022-07-27T09:29:36Z</time>
      </trkpt>
      <trkpt lat="45.63789" lon="6.5872">
        <ele>1650</ele>
        <time>2022-07-27T09:29:37Z</time>
      </trkpt>
      <trkpt lat="45.63789" lon="6.58719">
        <ele>1650</ele>
        <time>2022-07-27T09:29:38Z</time>
      </trkpt>
      <trkpt lat="45.6379" lon="6.58717">
        <ele>1648</ele>
        <time>2022-07-27T09:29:55Z</time>
      </trkpt>
      <trkpt lat="45.6379" lon="6.58717">
        <ele>1648</ele>
        <time>2022-07-27T09:29:56Z</time>
      </trkpt>
      <trkpt lat="45.6379" lon="6.58716">
        <ele>1648</ele>
        <time>2022-07-27T09:29:57Z</time>
      </trkpt>
      <trkpt lat="45.63791" lon="6.58715">
        <ele>1648</ele>
        <time>2022-07-27T09:29:58Z</time>
      </trkpt>
      <trkpt lat="45.63791" lon="6.58715">
        <ele>1648</ele>
        <time>2022-07-27T09:29:59Z</time>
      </trkpt>
      <trkpt lat="45.63792" lon="6.58714">
        <ele>1648</ele>
        <time>2022-07-27T09:30:00Z</time>
      </trkpt>
      <trkpt lat="45.63792" lon="6.58713">
        <ele>1647</ele>
        <time>2022-07-27T09:30:01Z</time>
      </trkpt>
      <trkpt lat="45.63793" lon="6.58712">
        <ele>1647</ele>
        <time>2022-07-27T09:30:02Z</time>
      </trkpt>
      <trkpt lat="45.63794" lon="6.58711">
        <ele>1647</ele>
        <time>2022-07-27T09:30:03Z</time>
      </trkpt>
      <trkpt lat="45.63795" lon="6.58709">
        <ele>1647</ele>
        <time>2022-07-27T09:30:04Z</time>
      </trkpt>
      <trkpt lat="45.63795" lon="6.58708">
        <ele>1647</ele>
        <time>2022-07-27T09:30:05Z</time>
      </trkpt>
      <trkpt lat="45.63796" lon="6.58707">
        <ele>1647</ele>
        <time>2022-07-27T09:30:06Z</time>
      </trkpt>
      <trkpt lat="45.63797" lon="6.58705">
        <ele>1647</ele>
        <time>2022-07-27T09:30:07Z</time>
      </trkpt>
      <trkpt lat="45.63798" lon="6.58704">
        <ele>1647</ele>
        <time>2022-07-27T09:30:08Z</time>
      </trkpt>
      <trkpt lat="45.63798" lon="6.58703">
        <ele>1647</ele>
        <time>2022-07-27T09:30:09Z</time>
      </trkpt>
      <trkpt lat="45.63799" lon="6.58702">
        <ele>1647</ele>
        <time>2022-07-27T09:30:10Z</time>
      </trkpt>
      <trkpt lat="45.638" lon="6.58702">
        <ele>1646</ele>
        <time>2022-07-27T09:30:11Z</time>
      </trkpt>
      <trkpt lat="45.638" lon="6.58701">
        <ele>1646</ele>
        <time>2022-07-27T09:30:12Z</time>
      </trkpt>
      <trkpt lat="45.63801" lon="6.587">
        <ele>1646</ele>
        <time>2022-07-27T09:30:13Z</time>
      </trkpt>
      <trkpt lat="45.63802" lon="6.58699">
        <ele>1646</ele>
        <time>2022-07-27T09:30:14Z</time>
      </trkpt>
      <trkpt lat="45.63802" lon="6.58698">
        <ele>1646</ele>
        <time>2022-07-27T09:30:15Z</time>
      </trkpt>
      <trkpt lat="45.63803" lon="6.58697">
        <ele>1645</ele>
        <time>2022-07-27T09:30:16Z</time>
      </trkpt>
      <trkpt lat="45.63803" lon="6.58697">
        <ele>1645</ele>
        <time>2022-07-27T09:30:17Z</time>
      </trkpt>
      <trkpt lat="45.63803" lon="6.58696">
        <ele>1645</ele>
        <time>2022-07-27T09:30:18Z</time>
      </trkpt>
      <trkpt lat="45.63803" lon="6.58695">
        <ele>1645</ele>
        <time>2022-07-27T09:30:19Z</time>
      </trkpt>
      <trkpt lat="45.63803" lon="6.58694">
        <ele>1645</ele>
        <time>2022-07-27T09:30:20Z</time>
      </trkpt>
      <trkpt lat="45.63803" lon="6.58693">
        <ele>1644</ele>
        <time>2022-07-27T09:30:21Z</time>
      </trkpt>
      <trkpt lat="45.63804" lon="6.58692">
        <ele>1644</ele>
        <time>2022-07-27T09:30:22Z</time>
      </trkpt>
      <trkpt lat="45.63805" lon="6.58691">
        <ele>1644</ele>
        <time>2022-07-27T09:30:23Z</time>
      </trkpt>
      <trkpt lat="45.63805" lon="6.58691">
        <ele>1644</ele>
        <time>2022-07-27T09:30:24Z</time>
      </trkpt>
      <trkpt lat="45.63806" lon="6.5869">
        <ele>1644</ele>
        <time>2022-07-27T09:30:25Z</time>
      </trkpt>
      <trkpt lat="45.63807" lon="6.58689">
        <ele>1643</ele>
        <time>2022-07-27T09:30:26Z</time>
      </trkpt>
      <trkpt lat="45.63808" lon="6.58688">
        <ele>1643</ele>
        <time>2022-07-27T09:30:27Z</time>
      </trkpt>
      <trkpt lat="45.63809" lon="6.58687">
        <ele>1642</ele>
        <time>2022-07-27T09:30:28Z</time>
      </trkpt>
      <trkpt lat="45.6381" lon="6.58686">
        <ele>1642</ele>
        <time>2022-07-27T09:30:29Z</time>
      </trkpt>
      <trkpt lat="45.63811" lon="6.58685">
        <ele>1642</ele>
        <time>2022-07-27T09:30:30Z</time>
      </trkpt>
      <trkpt lat="45.63812" lon="6.58684">
        <ele>1641</ele>
        <time>2022-07-27T09:30:31Z</time>
      </trkpt>
      <trkpt lat="45.63813" lon="6.58683">
        <ele>1641</ele>
        <time>2022-07-27T09:30:32Z</time>
      </trkpt>
      <trkpt lat="45.63814" lon="6.58682">
        <ele>1641</ele>
        <time>2022-07-27T09:30:33Z</time>
      </trkpt>
      <trkpt lat="45.63814" lon="6.58681">
        <ele>1641</ele>
        <time>2022-07-27T09:30:34Z</time>
      </trkpt>
      <trkpt lat="45.63815" lon="6.5868">
        <ele>1641</ele>
        <time>2022-07-27T09:30:35Z</time>
      </trkpt>
      <trkpt lat="45.63816" lon="6.58679">
        <ele>1640</ele>
        <time>2022-07-27T09:30:36Z</time>
      </trkpt>
      <trkpt lat="45.63817" lon="6.58678">
        <ele>1640</ele>
        <time>2022-07-27T09:30:37Z</time>
      </trkpt>
      <trkpt lat="45.63817" lon="6.58677">
        <ele>1640</ele>
        <time>2022-07-27T09:30:38Z</time>
      </trkpt>
      <trkpt lat="45.63818" lon="6.58677">
        <ele>1640</ele>
        <time>2022-07-27T09:30:39Z</time>
      </trkpt>
      <trkpt lat="45.63819" lon="6.58676">
        <ele>1640</ele>
        <time>2022-07-27T09:30:40Z</time>
      </trkpt>
      <trkpt lat="45.6382" lon="6.58675">
        <ele>1639</ele>
        <time>2022-07-27T09:30:41Z</time>
      </trkpt>
      <trkpt lat="45.63821" lon="6.58674">
        <ele>1639</ele>
        <time>2022-07-27T09:30:42Z</time>
      </trkpt>
      <trkpt lat="45.63822" lon="6.58674">
        <ele>1639</ele>
        <time>2022-07-27T09:30:43Z</time>
      </trkpt>
      <trkpt lat="45.63822" lon="6.58673">
        <ele>1639</ele>
        <time>2022-07-27T09:30:44Z</time>
      </trkpt>
      <trkpt lat="45.63823" lon="6.58672">
        <ele>1639</ele>
        <time>2022-07-27T09:30:45Z</time>
      </trkpt>
      <trkpt lat="45.63824" lon="6.58671">
        <ele>1638</ele>
        <time>2022-07-27T09:30:46Z</time>
      </trkpt>
      <trkpt lat="45.63825" lon="6.58671">
        <ele>1638</ele>
        <time>2022-07-27T09:30:47Z</time>
      </trkpt>
      <trkpt lat="45.63826" lon="6.5867">
        <ele>1638</ele>
        <time>2022-07-27T09:30:48Z</time>
      </trkpt>
      <trkpt lat="45.63827" lon="6.58669">
        <ele>1638</ele>
        <time>2022-07-27T09:30:49Z</time>
      </trkpt>
      <trkpt lat="45.63828" lon="6.58669">
        <ele>1638</ele>
        <time>2022-07-27T09:30:50Z</time>
      </trkpt>
      <trkpt lat="45.63829" lon="6.58668">
        <ele>1637</ele>
        <time>2022-07-27T09:30:51Z</time>
      </trkpt>
      <trkpt lat="45.6383" lon="6.58668">
        <ele>1637</ele>
        <time>2022-07-27T09:30:52Z</time>
      </trkpt>
      <trkpt lat="45.63831" lon="6.58667">
        <ele>1637</ele>
        <time>2022-07-27T09:30:53Z</time>
      </trkpt>
      <trkpt lat="45.63832" lon="6.58667">
        <ele>1637</ele>
        <time>2022-07-27T09:30:54Z</time>
      </trkpt>
      <trkpt lat="45.63833" lon="6.58667">
        <ele>1637</ele>
        <time>2022-07-27T09:30:55Z</time>
      </trkpt>
      <trkpt lat="45.63834" lon="6.58666">
        <ele>1636</ele>
        <time>2022-07-27T09:30:56Z</time>
      </trkpt>
      <trkpt lat="45.63835" lon="6.58666">
        <ele>1636</ele>
        <time>2022-07-27T09:30:57Z</time>
      </trkpt>
      <trkpt lat="45.63836" lon="6.58665">
        <ele>1636</ele>
        <time>2022-07-27T09:30:58Z</time>
      </trkpt>
      <trkpt lat="45.63837" lon="6.58665">
        <ele>1636</ele>
        <time>2022-07-27T09:30:59Z</time>
      </trkpt>
      <trkpt lat="45.63838" lon="6.58664">
        <ele>1636</ele>
        <time>2022-07-27T09:31:00Z</time>
      </trkpt>
      <trkpt lat="45.63838" lon="6.58663">
        <ele>1635</ele>
        <time>2022-07-27T09:31:01Z</time>
      </trkpt>
      <trkpt lat="45.63839" lon="6.58663">
        <ele>1635</ele>
        <time>2022-07-27T09:31:02Z</time>
      </trkpt>
      <trkpt lat="45.6384" lon="6.58662">
        <ele>1635</ele>
        <time>2022-07-27T09:31:03Z</time>
      </trkpt>
      <trkpt lat="45.63841" lon="6.58661">
        <ele>1635</ele>
        <time>2022-07-27T09:31:04Z</time>
      </trkpt>
      <trkpt lat="45.63843" lon="6.5866">
        <ele>1635</ele>
        <time>2022-07-27T09:31:05Z</time>
      </trkpt>
      <trkpt lat="45.63844" lon="6.5866">
        <ele>1635</ele>
        <time>2022-07-27T09:31:06Z</time>
      </trkpt>
      <trkpt lat="45.63845" lon="6.58659">
        <ele>1635</ele>
        <time>2022-07-27T09:31:07Z</time>
      </trkpt>
      <trkpt lat="45.63846" lon="6.58658">
        <ele>1635</ele>
        <time>2022-07-27T09:31:08Z</time>
      </trkpt>
      <trkpt lat="45.63847" lon="6.58658">
        <ele>1635</ele>
        <time>2022-07-27T09:31:09Z</time>
      </trkpt>
      <trkpt lat="45.63848" lon="6.58657">
        <ele>1635</ele>
        <time>2022-07-27T09:31:10Z</time>
      </trkpt>
      <trkpt lat="45.63849" lon="6.58656">
        <ele>1634</ele>
        <time>2022-07-27T09:31:11Z</time>
      </trkpt>
      <trkpt lat="45.6385" lon="6.58656">
        <ele>1634</ele>
        <time>2022-07-27T09:31:12Z</time>
      </trkpt>
      <trkpt lat="45.63852" lon="6.58655">
        <ele>1634</ele>
        <time>2022-07-27T09:31:13Z</time>
      </trkpt>
      <trkpt lat="45.63853" lon="6.58654">
        <ele>1634</ele>
        <time>2022-07-27T09:31:14Z</time>
      </trkpt>
      <trkpt lat="45.63854" lon="6.58654">
        <ele>1634</ele>
        <time>2022-07-27T09:31:15Z</time>
      </trkpt>
      <trkpt lat="45.63855" lon="6.58653">
        <ele>1634</ele>
        <time>2022-07-27T09:31:16Z</time>
      </trkpt>
      <trkpt lat="45.63856" lon="6.58653">
        <ele>1634</ele>
        <time>2022-07-27T09:31:17Z</time>
      </trkpt>
      <trkpt lat="45.63858" lon="6.58652">
        <ele>1634</ele>
        <time>2022-07-27T09:31:18Z</time>
      </trkpt>
      <trkpt lat="45.63859" lon="6.58652">
        <ele>1634</ele>
        <time>2022-07-27T09:31:19Z</time>
      </trkpt>
      <trkpt lat="45.6386" lon="6.58651">
        <ele>1634</ele>
        <time>2022-07-27T09:31:20Z</time>
      </trkpt>
      <trkpt lat="45.63861" lon="6.58651">
        <ele>1634</ele>
        <time>2022-07-27T09:31:21Z</time>
      </trkpt>
      <trkpt lat="45.63863" lon="6.5865">
        <ele>1634</ele>
        <time>2022-07-27T09:31:22Z</time>
      </trkpt>
      <trkpt lat="45.63864" lon="6.5865">
        <ele>1634</ele>
        <time>2022-07-27T09:31:23Z</time>
      </trkpt>
      <trkpt lat="45.63865" lon="6.5865">
        <ele>1634</ele>
        <time>2022-07-27T09:31:24Z</time>
      </trkpt>
      <trkpt lat="45.63867" lon="6.5865">
        <ele>1634</ele>
        <time>2022-07-27T09:31:25Z</time>
      </trkpt>
      <trkpt lat="45.63868" lon="6.5865">
        <ele>1633</ele>
        <time>2022-07-27T09:31:26Z</time>
      </trkpt>
      <trkpt lat="45.63869" lon="6.5865">
        <ele>1633</ele>
        <time>2022-07-27T09:31:27Z</time>
      </trkpt>
      <trkpt lat="45.6387" lon="6.5865">
        <ele>1633</ele>
        <time>2022-07-27T09:31:28Z</time>
      </trkpt>
      <trkpt lat="45.63871" lon="6.5865">
        <ele>1633</ele>
        <time>2022-07-27T09:31:29Z</time>
      </trkpt>
      <trkpt lat="45.63873" lon="6.5865">
        <ele>1633</ele>
        <time>2022-07-27T09:31:30Z</time>
      </trkpt>
      <trkpt lat="45.63874" lon="6.5865">
        <ele>1633</ele>
        <time>2022-07-27T09:31:31Z</time>
      </trkpt>
      <trkpt lat="45.63875" lon="6.5865">
        <ele>1633</ele>
        <time>2022-07-27T09:31:32Z</time>
      </trkpt>
      <trkpt lat="45.63876" lon="6.58649">
        <ele>1633</ele>
        <time>2022-07-27T09:31:33Z</time>
      </trkpt>
      <trkpt lat="45.63877" lon="6.58649">
        <ele>1633</ele>
        <time>2022-07-27T09:31:34Z</time>
      </trkpt>
      <trkpt lat="45.63878" lon="6.58649">
        <ele>1633</ele>
        <time>2022-07-27T09:31:35Z</time>
      </trkpt>
      <trkpt lat="45.63879" lon="6.58648">
        <ele>1633</ele>
        <time>2022-07-27T09:31:36Z</time>
      </trkpt>
      <trkpt lat="45.6388" lon="6.58648">
        <ele>1633</ele>
        <time>2022-07-27T09:31:37Z</time>
      </trkpt>
      <trkpt lat="45.63881" lon="6.58648">
        <ele>1633</ele>
        <time>2022-07-27T09:31:38Z</time>
      </trkpt>
      <trkpt lat="45.63882" lon="6.58647">
        <ele>1633</ele>
        <time>2022-07-27T09:31:39Z</time>
      </trkpt>
      <trkpt lat="45.63883" lon="6.58647">
        <ele>1633</ele>
        <time>2022-07-27T09:31:40Z</time>
      </trkpt>
      <trkpt lat="45.63884" lon="6.58647">
        <ele>1632</ele>
        <time>2022-07-27T09:31:41Z</time>
      </trkpt>
      <trkpt lat="45.63885" lon="6.58646">
        <ele>1632</ele>
        <time>2022-07-27T09:31:42Z</time>
      </trkpt>
      <trkpt lat="45.63886" lon="6.58646">
        <ele>1632</ele>
        <time>2022-07-27T09:31:43Z</time>
      </trkpt>
      <trkpt lat="45.63887" lon="6.58646">
        <ele>1632</ele>
        <time>2022-07-27T09:31:44Z</time>
      </trkpt>
      <trkpt lat="45.63888" lon="6.58646">
        <ele>1632</ele>
        <time>2022-07-27T09:31:45Z</time>
      </trkpt>
      <trkpt lat="45.63889" lon="6.58646">
        <ele>1632</ele>
        <time>2022-07-27T09:31:46Z</time>
      </trkpt>
      <trkpt lat="45.6389" lon="6.58646">
        <ele>1632</ele>
        <time>2022-07-27T09:31:47Z</time>
      </trkpt>
      <trkpt lat="45.63891" lon="6.58645">
        <ele>1632</ele>
        <time>2022-07-27T09:31:48Z</time>
      </trkpt>
      <trkpt lat="45.63892" lon="6.58645">
        <ele>1632</ele>
        <time>2022-07-27T09:31:49Z</time>
      </trkpt>
      <trkpt lat="45.63892" lon="6.58645">
        <ele>1632</ele>
        <time>2022-07-27T09:31:50Z</time>
      </trkpt>
      <trkpt lat="45.63893" lon="6.58645">
        <ele>1631</ele>
        <time>2022-07-27T09:31:51Z</time>
      </trkpt>
      <trkpt lat="45.63894" lon="6.58644">
        <ele>1631</ele>
        <time>2022-07-27T09:31:52Z</time>
      </trkpt>
      <trkpt lat="45.63895" lon="6.58644">
        <ele>1631</ele>
        <time>2022-07-27T09:31:53Z</time>
      </trkpt>
      <trkpt lat="45.63896" lon="6.58644">
        <ele>1631</ele>
        <time>2022-07-27T09:31:54Z</time>
      </trkpt>
      <trkpt lat="45.63897" lon="6.58643">
        <ele>1631</ele>
        <time>2022-07-27T09:31:55Z</time>
      </trkpt>
      <trkpt lat="45.63898" lon="6.58643">
        <ele>1631</ele>
        <time>2022-07-27T09:31:56Z</time>
      </trkpt>
      <trkpt lat="45.63899" lon="6.58642">
        <ele>1631</ele>
        <time>2022-07-27T09:31:57Z</time>
      </trkpt>
      <trkpt lat="45.639" lon="6.58642">
        <ele>1631</ele>
        <time>2022-07-27T09:31:58Z</time>
      </trkpt>
      <trkpt lat="45.63901" lon="6.58642">
        <ele>1631</ele>
        <time>2022-07-27T09:31:59Z</time>
      </trkpt>
      <trkpt lat="45.63902" lon="6.58641">
        <ele>1631</ele>
        <time>2022-07-27T09:32:00Z</time>
      </trkpt>
      <trkpt lat="45.63903" lon="6.5864">
        <ele>1630</ele>
        <time>2022-07-27T09:32:01Z</time>
      </trkpt>
      <trkpt lat="45.63904" lon="6.5864">
        <ele>1630</ele>
        <time>2022-07-27T09:32:02Z</time>
      </trkpt>
      <trkpt lat="45.63905" lon="6.58639">
        <ele>1630</ele>
        <time>2022-07-27T09:32:03Z</time>
      </trkpt>
      <trkpt lat="45.63906" lon="6.58639">
        <ele>1630</ele>
        <time>2022-07-27T09:32:04Z</time>
      </trkpt>
      <trkpt lat="45.63906" lon="6.58638">
        <ele>1630</ele>
        <time>2022-07-27T09:32:05Z</time>
      </trkpt>
      <trkpt lat="45.63907" lon="6.58638">
        <ele>1630</ele>
        <time>2022-07-27T09:32:06Z</time>
      </trkpt>
      <trkpt lat="45.63908" lon="6.58637">
        <ele>1630</ele>
        <time>2022-07-27T09:32:07Z</time>
      </trkpt>
      <trkpt lat="45.63908" lon="6.58637">
        <ele>1630</ele>
        <time>2022-07-27T09:32:08Z</time>
      </trkpt>
      <trkpt lat="45.63909" lon="6.58636">
        <ele>1630</ele>
        <time>2022-07-27T09:32:09Z</time>
      </trkpt>
      <trkpt lat="45.63909" lon="6.58636">
        <ele>1630</ele>
        <time>2022-07-27T09:32:10Z</time>
      </trkpt>
      <trkpt lat="45.6391" lon="6.58635">
        <ele>1629</ele>
        <time>2022-07-27T09:32:11Z</time>
      </trkpt>
      <trkpt lat="45.6391" lon="6.58635">
        <ele>1629</ele>
        <time>2022-07-27T09:32:12Z</time>
      </trkpt>
      <trkpt lat="45.6391" lon="6.58635">
        <ele>1629</ele>
        <time>2022-07-27T09:32:13Z</time>
      </trkpt>
      <trkpt lat="45.6391" lon="6.58635">
        <ele>1629</ele>
        <time>2022-07-27T09:32:14Z</time>
      </trkpt>
      <trkpt lat="45.6391" lon="6.58634">
        <ele>1629</ele>
        <time>2022-07-27T09:32:15Z</time>
      </trkpt>
      <trkpt lat="45.6391" lon="6.58634">
        <ele>1628</ele>
        <time>2022-07-27T09:32:16Z</time>
      </trkpt>
      <trkpt lat="45.63911" lon="6.58633">
        <ele>1628</ele>
        <time>2022-07-27T09:32:17Z</time>
      </trkpt>
      <trkpt lat="45.63911" lon="6.58633">
        <ele>1628</ele>
        <time>2022-07-27T09:32:18Z</time>
      </trkpt>
      <trkpt lat="45.63911" lon="6.58632">
        <ele>1628</ele>
        <time>2022-07-27T09:32:19Z</time>
      </trkpt>
      <trkpt lat="45.63912" lon="6.58631">
        <ele>1628</ele>
        <time>2022-07-27T09:32:20Z</time>
      </trkpt>
      <trkpt lat="45.63913" lon="6.58631">
        <ele>1626</ele>
        <time>2022-07-27T09:32:51Z</time>
      </trkpt>
      <trkpt lat="45.63914" lon="6.58631">
        <ele>1626</ele>
        <time>2022-07-27T09:32:52Z</time>
      </trkpt>
      <trkpt lat="45.63915" lon="6.5863">
        <ele>1626</ele>
        <time>2022-07-27T09:32:53Z</time>
      </trkpt>
      <trkpt lat="45.63915" lon="6.5863">
        <ele>1626</ele>
        <time>2022-07-27T09:32:54Z</time>
      </trkpt>
      <trkpt lat="45.63916" lon="6.5863">
        <ele>1626</ele>
        <time>2022-07-27T09:32:55Z</time>
      </trkpt>
      <trkpt lat="45.63916" lon="6.58629">
        <ele>1626</ele>
        <time>2022-07-27T09:32:56Z</time>
      </trkpt>
      <trkpt lat="45.63917" lon="6.58629">
        <ele>1626</ele>
        <time>2022-07-27T09:32:57Z</time>
      </trkpt>
      <trkpt lat="45.63918" lon="6.58628">
        <ele>1626</ele>
        <time>2022-07-27T09:32:58Z</time>
      </trkpt>
      <trkpt lat="45.63919" lon="6.58627">
        <ele>1626</ele>
        <time>2022-07-27T09:32:59Z</time>
      </trkpt>
      <trkpt lat="45.63919" lon="6.58626">
        <ele>1626</ele>
        <time>2022-07-27T09:33:00Z</time>
      </trkpt>
      <trkpt lat="45.6392" lon="6.58626">
        <ele>1625</ele>
        <time>2022-07-27T09:33:01Z</time>
      </trkpt>
      <trkpt lat="45.63921" lon="6.58625">
        <ele>1625</ele>
        <time>2022-07-27T09:33:02Z</time>
      </trkpt>
      <trkpt lat="45.63922" lon="6.58624">
        <ele>1625</ele>
        <time>2022-07-27T09:33:03Z</time>
      </trkpt>
      <trkpt lat="45.63922" lon="6.58623">
        <ele>1625</ele>
        <time>2022-07-27T09:33:04Z</time>
      </trkpt>
      <trkpt lat="45.63923" lon="6.58623">
        <ele>1625</ele>
        <time>2022-07-27T09:33:05Z</time>
      </trkpt>
      <trkpt lat="45.63924" lon="6.58622">
        <ele>1625</ele>
        <time>2022-07-27T09:33:06Z</time>
      </trkpt>
      <trkpt lat="45.63925" lon="6.58621">
        <ele>1625</ele>
        <time>2022-07-27T09:33:07Z</time>
      </trkpt>
      <trkpt lat="45.63926" lon="6.5862">
        <ele>1625</ele>
        <time>2022-07-27T09:33:08Z</time>
      </trkpt>
      <trkpt lat="45.63927" lon="6.58619">
        <ele>1625</ele>
        <time>2022-07-27T09:33:09Z</time>
      </trkpt>
      <trkpt lat="45.63927" lon="6.58618">
        <ele>1625</ele>
        <time>2022-07-27T09:33:10Z</time>
      </trkpt>
      <trkpt lat="45.63928" lon="6.58617">
        <ele>1624</ele>
        <time>2022-07-27T09:33:11Z</time>
      </trkpt>
      <trkpt lat="45.63929" lon="6.58616">
        <ele>1624</ele>
        <time>2022-07-27T09:33:12Z</time>
      </trkpt>
      <trkpt lat="45.6393" lon="6.58616">
        <ele>1624</ele>
        <time>2022-07-27T09:33:13Z</time>
      </trkpt>
      <trkpt lat="45.63931" lon="6.58615">
        <ele>1624</ele>
        <time>2022-07-27T09:33:14Z</time>
      </trkpt>
      <trkpt lat="45.63931" lon="6.58614">
        <ele>1624</ele>
        <time>2022-07-27T09:33:15Z</time>
      </trkpt>
      <trkpt lat="45.63932" lon="6.58613">
        <ele>1623</ele>
        <time>2022-07-27T09:33:16Z</time>
      </trkpt>
      <trkpt lat="45.63933" lon="6.58613">
        <ele>1623</ele>
        <time>2022-07-27T09:33:17Z</time>
      </trkpt>
      <trkpt lat="45.63934" lon="6.58612">
        <ele>1623</ele>
        <time>2022-07-27T09:33:18Z</time>
      </trkpt>
      <trkpt lat="45.63935" lon="6.58612">
        <ele>1623</ele>
        <time>2022-07-27T09:33:19Z</time>
      </trkpt>
      <trkpt lat="45.63936" lon="6.58611">
        <ele>1623</ele>
        <time>2022-07-27T09:33:20Z</time>
      </trkpt>
      <trkpt lat="45.63936" lon="6.58611">
        <ele>1623</ele>
        <time>2022-07-27T09:33:21Z</time>
      </trkpt>
      <trkpt lat="45.63937" lon="6.5861">
        <ele>1623</ele>
        <time>2022-07-27T09:33:22Z</time>
      </trkpt>
      <trkpt lat="45.63938" lon="6.5861">
        <ele>1623</ele>
        <time>2022-07-27T09:33:23Z</time>
      </trkpt>
      <trkpt lat="45.63938" lon="6.58609">
        <ele>1623</ele>
        <time>2022-07-27T09:33:24Z</time>
      </trkpt>
      <trkpt lat="45.63939" lon="6.58608">
        <ele>1623</ele>
        <time>2022-07-27T09:33:25Z</time>
      </trkpt>
      <trkpt lat="45.63939" lon="6.58608">
        <ele>1622</ele>
        <time>2022-07-27T09:33:26Z</time>
      </trkpt>
      <trkpt lat="45.6394" lon="6.58607">
        <ele>1622</ele>
        <time>2022-07-27T09:33:27Z</time>
      </trkpt>
      <trkpt lat="45.63941" lon="6.58606">
        <ele>1622</ele>
        <time>2022-07-27T09:33:28Z</time>
      </trkpt>
      <trkpt lat="45.63942" lon="6.58605">
        <ele>1622</ele>
        <time>2022-07-27T09:33:29Z</time>
      </trkpt>
      <trkpt lat="45.63943" lon="6.58605">
        <ele>1622</ele>
        <time>2022-07-27T09:33:30Z</time>
      </trkpt>
      <trkpt lat="45.63943" lon="6.58604">
        <ele>1621</ele>
        <time>2022-07-27T09:33:31Z</time>
      </trkpt>
      <trkpt lat="45.63944" lon="6.58603">
        <ele>1621</ele>
        <time>2022-07-27T09:33:32Z</time>
      </trkpt>
      <trkpt lat="45.63945" lon="6.58603">
        <ele>1621</ele>
        <time>2022-07-27T09:33:33Z</time>
      </trkpt>
      <trkpt lat="45.63947" lon="6.58602">
        <ele>1621</ele>
        <time>2022-07-27T09:33:34Z</time>
      </trkpt>
      <trkpt lat="45.63948" lon="6.58601">
        <ele>1621</ele>
        <time>2022-07-27T09:33:35Z</time>
      </trkpt>
      <trkpt lat="45.63949" lon="6.58601">
        <ele>1620</ele>
        <time>2022-07-27T09:33:36Z</time>
      </trkpt>
      <trkpt lat="45.6395" lon="6.586">
        <ele>1620</ele>
        <time>2022-07-27T09:33:37Z</time>
      </trkpt>
      <trkpt lat="45.63951" lon="6.58599">
        <ele>1620</ele>
        <time>2022-07-27T09:33:38Z</time>
      </trkpt>
      <trkpt lat="45.63952" lon="6.58599">
        <ele>1620</ele>
        <time>2022-07-27T09:33:39Z</time>
      </trkpt>
      <trkpt lat="45.63953" lon="6.58598">
        <ele>1620</ele>
        <time>2022-07-27T09:33:40Z</time>
      </trkpt>
      <trkpt lat="45.63954" lon="6.58597">
        <ele>1620</ele>
        <time>2022-07-27T09:33:41Z</time>
      </trkpt>
      <trkpt lat="45.63955" lon="6.58597">
        <ele>1620</ele>
        <time>2022-07-27T09:33:42Z</time>
      </trkpt>
      <trkpt lat="45.63956" lon="6.58596">
        <ele>1620</ele>
        <time>2022-07-27T09:33:43Z</time>
      </trkpt>
      <trkpt lat="45.63957" lon="6.58596">
        <ele>1620</ele>
        <time>2022-07-27T09:33:44Z</time>
      </trkpt>
      <trkpt lat="45.63958" lon="6.58595">
        <ele>1620</ele>
        <time>2022-07-27T09:33:45Z</time>
      </trkpt>
      <trkpt lat="45.63959" lon="6.58595">
        <ele>1619</ele>
        <time>2022-07-27T09:33:46Z</time>
      </trkpt>
      <trkpt lat="45.6396" lon="6.58595">
        <ele>1619</ele>
        <time>2022-07-27T09:33:47Z</time>
      </trkpt>
      <trkpt lat="45.63961" lon="6.58595">
        <ele>1619</ele>
        <time>2022-07-27T09:33:48Z</time>
      </trkpt>
      <trkpt lat="45.63962" lon="6.58594">
        <ele>1619</ele>
        <time>2022-07-27T09:33:49Z</time>
      </trkpt>
      <trkpt lat="45.63963" lon="6.58594">
        <ele>1619</ele>
        <time>2022-07-27T09:33:50Z</time>
      </trkpt>
      <trkpt lat="45.63964" lon="6.58594">
        <ele>1619</ele>
        <time>2022-07-27T09:33:51Z</time>
      </trkpt>
      <trkpt lat="45.63965" lon="6.58593">
        <ele>1619</ele>
        <time>2022-07-27T09:33:52Z</time>
      </trkpt>
      <trkpt lat="45.63966" lon="6.58593">
        <ele>1619</ele>
        <time>2022-07-27T09:33:53Z</time>
      </trkpt>
      <trkpt lat="45.63967" lon="6.58592">
        <ele>1619</ele>
        <time>2022-07-27T09:33:54Z</time>
      </trkpt>
      <trkpt lat="45.63968" lon="6.58591">
        <ele>1619</ele>
        <time>2022-07-27T09:33:55Z</time>
      </trkpt>
      <trkpt lat="45.63969" lon="6.5859">
        <ele>1618</ele>
        <time>2022-07-27T09:33:56Z</time>
      </trkpt>
      <trkpt lat="45.6397" lon="6.58589">
        <ele>1618</ele>
        <time>2022-07-27T09:33:57Z</time>
      </trkpt>
      <trkpt lat="45.63971" lon="6.58588">
        <ele>1618</ele>
        <time>2022-07-27T09:33:58Z</time>
      </trkpt>
      <trkpt lat="45.63972" lon="6.58587">
        <ele>1618</ele>
        <time>2022-07-27T09:33:59Z</time>
      </trkpt>
      <trkpt lat="45.63973" lon="6.58586">
        <ele>1618</ele>
        <time>2022-07-27T09:34:00Z</time>
      </trkpt>
      <trkpt lat="45.63974" lon="6.58585">
        <ele>1618</ele>
        <time>2022-07-27T09:34:01Z</time>
      </trkpt>
      <trkpt lat="45.63975" lon="6.58585">
        <ele>1618</ele>
        <time>2022-07-27T09:34:02Z</time>
      </trkpt>
      <trkpt lat="45.63976" lon="6.58584">
        <ele>1618</ele>
        <time>2022-07-27T09:34:03Z</time>
      </trkpt>
      <trkpt lat="45.63976" lon="6.58584">
        <ele>1618</ele>
        <time>2022-07-27T09:34:04Z</time>
      </trkpt>
      <trkpt lat="45.63977" lon="6.58583">
        <ele>1618</ele>
        <time>2022-07-27T09:34:05Z</time>
      </trkpt>
      <trkpt lat="45.63978" lon="6.58582">
        <ele>1617</ele>
        <time>2022-07-27T09:34:06Z</time>
      </trkpt>
      <trkpt lat="45.63979" lon="6.58582">
        <ele>1617</ele>
        <time>2022-07-27T09:34:07Z</time>
      </trkpt>
      <trkpt lat="45.6398" lon="6.58581">
        <ele>1617</ele>
        <time>2022-07-27T09:34:08Z</time>
      </trkpt>
      <trkpt lat="45.63981" lon="6.58581">
        <ele>1617</ele>
        <time>2022-07-27T09:34:09Z</time>
      </trkpt>
      <trkpt lat="45.63981" lon="6.5858">
        <ele>1617</ele>
        <time>2022-07-27T09:34:10Z</time>
      </trkpt>
      <trkpt lat="45.63982" lon="6.5858">
        <ele>1617</ele>
        <time>2022-07-27T09:34:11Z</time>
      </trkpt>
      <trkpt lat="45.63983" lon="6.58579">
        <ele>1617</ele>
        <time>2022-07-27T09:34:12Z</time>
      </trkpt>
      <trkpt lat="45.63984" lon="6.58578">
        <ele>1617</ele>
        <time>2022-07-27T09:34:13Z</time>
      </trkpt>
      <trkpt lat="45.63985" lon="6.58578">
        <ele>1617</ele>
        <time>2022-07-27T09:34:14Z</time>
      </trkpt>
      <trkpt lat="45.63986" lon="6.58577">
        <ele>1617</ele>
        <time>2022-07-27T09:34:15Z</time>
      </trkpt>
      <trkpt lat="45.63987" lon="6.58576">
        <ele>1617</ele>
        <time>2022-07-27T09:34:16Z</time>
      </trkpt>
      <trkpt lat="45.63988" lon="6.58575">
        <ele>1617</ele>
        <time>2022-07-27T09:34:17Z</time>
      </trkpt>
      <trkpt lat="45.63989" lon="6.58574">
        <ele>1617</ele>
        <time>2022-07-27T09:34:18Z</time>
      </trkpt>
      <trkpt lat="45.6399" lon="6.58573">
        <ele>1617</ele>
        <time>2022-07-27T09:34:19Z</time>
      </trkpt>
      <trkpt lat="45.63991" lon="6.58572">
        <ele>1617</ele>
        <time>2022-07-27T09:34:20Z</time>
      </trkpt>
      <trkpt lat="45.63992" lon="6.58571">
        <ele>1617</ele>
        <time>2022-07-27T09:34:21Z</time>
      </trkpt>
      <trkpt lat="45.63993" lon="6.5857">
        <ele>1617</ele>
        <time>2022-07-27T09:34:22Z</time>
      </trkpt>
      <trkpt lat="45.63994" lon="6.58569">
        <ele>1617</ele>
        <time>2022-07-27T09:34:23Z</time>
      </trkpt>
      <trkpt lat="45.63995" lon="6.58568">
        <ele>1617</ele>
        <time>2022-07-27T09:34:24Z</time>
      </trkpt>
      <trkpt lat="45.63996" lon="6.58568">
        <ele>1617</ele>
        <time>2022-07-27T09:34:25Z</time>
      </trkpt>
      <trkpt lat="45.63997" lon="6.58567">
        <ele>1617</ele>
        <time>2022-07-27T09:34:26Z</time>
      </trkpt>
      <trkpt lat="45.63998" lon="6.58566">
        <ele>1617</ele>
        <time>2022-07-27T09:34:27Z</time>
      </trkpt>
      <trkpt lat="45.63999" lon="6.58566">
        <ele>1617</ele>
        <time>2022-07-27T09:34:28Z</time>
      </trkpt>
      <trkpt lat="45.64001" lon="6.58565">
        <ele>1617</ele>
        <time>2022-07-27T09:34:29Z</time>
      </trkpt>
      <trkpt lat="45.64002" lon="6.58564">
        <ele>1617</ele>
        <time>2022-07-27T09:34:30Z</time>
      </trkpt>
      <trkpt lat="45.64003" lon="6.58564">
        <ele>1616</ele>
        <time>2022-07-27T09:34:31Z</time>
      </trkpt>
      <trkpt lat="45.64004" lon="6.58563">
        <ele>1616</ele>
        <time>2022-07-27T09:34:32Z</time>
      </trkpt>
      <trkpt lat="45.64005" lon="6.58563">
        <ele>1616</ele>
        <time>2022-07-27T09:34:33Z</time>
      </trkpt>
      <trkpt lat="45.64006" lon="6.58563">
        <ele>1616</ele>
        <time>2022-07-27T09:34:34Z</time>
      </trkpt>
      <trkpt lat="45.64007" lon="6.58562">
        <ele>1616</ele>
        <time>2022-07-27T09:34:35Z</time>
      </trkpt>
      <trkpt lat="45.64008" lon="6.58562">
        <ele>1616</ele>
        <time>2022-07-27T09:34:36Z</time>
      </trkpt>
      <trkpt lat="45.64009" lon="6.58562">
        <ele>1616</ele>
        <time>2022-07-27T09:34:37Z</time>
      </trkpt>
      <trkpt lat="45.6401" lon="6.58562">
        <ele>1616</ele>
        <time>2022-07-27T09:34:38Z</time>
      </trkpt>
      <trkpt lat="45.64011" lon="6.58562">
        <ele>1616</ele>
        <time>2022-07-27T09:34:39Z</time>
      </trkpt>
      <trkpt lat="45.64013" lon="6.58561">
        <ele>1616</ele>
        <time>2022-07-27T09:34:40Z</time>
      </trkpt>
      <trkpt lat="45.64014" lon="6.58561">
        <ele>1615</ele>
        <time>2022-07-27T09:34:41Z</time>
      </trkpt>
      <trkpt lat="45.64015" lon="6.58561">
        <ele>1615</ele>
        <time>2022-07-27T09:34:42Z</time>
      </trkpt>
      <trkpt lat="45.64016" lon="6.58562">
        <ele>1615</ele>
        <time>2022-07-27T09:34:43Z</time>
      </trkpt>
      <trkpt lat="45.64017" lon="6.58562">
        <ele>1615</ele>
        <time>2022-07-27T09:34:44Z</time>
      </trkpt>
      <trkpt lat="45.64018" lon="6.58562">
        <ele>1615</ele>
        <time>2022-07-27T09:34:45Z</time>
      </trkpt>
      <trkpt lat="45.64019" lon="6.58563">
        <ele>1614</ele>
        <time>2022-07-27T09:34:46Z</time>
      </trkpt>
      <trkpt lat="45.64021" lon="6.58563">
        <ele>1614</ele>
        <time>2022-07-27T09:34:47Z</time>
      </trkpt>
      <trkpt lat="45.64022" lon="6.58564">
        <ele>1614</ele>
        <time>2022-07-27T09:34:48Z</time>
      </trkpt>
      <trkpt lat="45.64023" lon="6.58564">
        <ele>1614</ele>
        <time>2022-07-27T09:34:49Z</time>
      </trkpt>
      <trkpt lat="45.64024" lon="6.58564">
        <ele>1614</ele>
        <time>2022-07-27T09:34:50Z</time>
      </trkpt>
      <trkpt lat="45.64025" lon="6.58565">
        <ele>1613</ele>
        <time>2022-07-27T09:34:51Z</time>
      </trkpt>
      <trkpt lat="45.64026" lon="6.58565">
        <ele>1613</ele>
        <time>2022-07-27T09:34:52Z</time>
      </trkpt>
      <trkpt lat="45.64027" lon="6.58566">
        <ele>1613</ele>
        <time>2022-07-27T09:34:53Z</time>
      </trkpt>
      <trkpt lat="45.64028" lon="6.58566">
        <ele>1613</ele>
        <time>2022-07-27T09:34:54Z</time>
      </trkpt>
      <trkpt lat="45.6403" lon="6.58567">
        <ele>1613</ele>
        <time>2022-07-27T09:34:55Z</time>
      </trkpt>
      <trkpt lat="45.64031" lon="6.58567">
        <ele>1613</ele>
        <time>2022-07-27T09:34:56Z</time>
      </trkpt>
      <trkpt lat="45.64032" lon="6.58567">
        <ele>1613</ele>
        <time>2022-07-27T09:34:57Z</time>
      </trkpt>
      <trkpt lat="45.64033" lon="6.58568">
        <ele>1613</ele>
        <time>2022-07-27T09:34:58Z</time>
      </trkpt>
      <trkpt lat="45.64034" lon="6.58568">
        <ele>1613</ele>
        <time>2022-07-27T09:34:59Z</time>
      </trkpt>
      <trkpt lat="45.64035" lon="6.58568">
        <ele>1613</ele>
        <time>2022-07-27T09:35:00Z</time>
      </trkpt>
      <trkpt lat="45.64036" lon="6.58567">
        <ele>1612</ele>
        <time>2022-07-27T09:35:01Z</time>
      </trkpt>
      <trkpt lat="45.64037" lon="6.58567">
        <ele>1612</ele>
        <time>2022-07-27T09:35:02Z</time>
      </trkpt>
      <trkpt lat="45.64038" lon="6.58566">
        <ele>1612</ele>
        <time>2022-07-27T09:35:03Z</time>
      </trkpt>
      <trkpt lat="45.64038" lon="6.58565">
        <ele>1612</ele>
        <time>2022-07-27T09:35:04Z</time>
      </trkpt>
      <trkpt lat="45.64039" lon="6.58564">
        <ele>1612</ele>
        <time>2022-07-27T09:35:05Z</time>
      </trkpt>
      <trkpt lat="45.6404" lon="6.58563">
        <ele>1611</ele>
        <time>2022-07-27T09:35:06Z</time>
      </trkpt>
      <trkpt lat="45.64041" lon="6.58562">
        <ele>1611</ele>
        <time>2022-07-27T09:35:07Z</time>
      </trkpt>
      <trkpt lat="45.64042" lon="6.5856">
        <ele>1611</ele>
        <time>2022-07-27T09:35:08Z</time>
      </trkpt>
      <trkpt lat="45.64043" lon="6.58559">
        <ele>1611</ele>
        <time>2022-07-27T09:35:09Z</time>
      </trkpt>
      <trkpt lat="45.64043" lon="6.58557">
        <ele>1611</ele>
        <time>2022-07-27T09:35:10Z</time>
      </trkpt>
      <trkpt lat="45.64044" lon="6.58556">
        <ele>1610</ele>
        <time>2022-07-27T09:35:11Z</time>
      </trkpt>
      <trkpt lat="45.64045" lon="6.58554">
        <ele>1610</ele>
        <time>2022-07-27T09:35:12Z</time>
      </trkpt>
      <trkpt lat="45.64046" lon="6.58553">
        <ele>1610</ele>
        <time>2022-07-27T09:35:13Z</time>
      </trkpt>
      <trkpt lat="45.64047" lon="6.58551">
        <ele>1610</ele>
        <time>2022-07-27T09:35:14Z</time>
      </trkpt>
      <trkpt lat="45.64047" lon="6.5855">
        <ele>1610</ele>
        <time>2022-07-27T09:35:15Z</time>
      </trkpt>
      <trkpt lat="45.64048" lon="6.58548">
        <ele>1610</ele>
        <time>2022-07-27T09:35:16Z</time>
      </trkpt>
      <trkpt lat="45.64049" lon="6.58547">
        <ele>1610</ele>
        <time>2022-07-27T09:35:17Z</time>
      </trkpt>
      <trkpt lat="45.6405" lon="6.58546">
        <ele>1610</ele>
        <time>2022-07-27T09:35:18Z</time>
      </trkpt>
      <trkpt lat="45.6405" lon="6.58545">
        <ele>1610</ele>
        <time>2022-07-27T09:35:19Z</time>
      </trkpt>
      <trkpt lat="45.64051" lon="6.58543">
        <ele>1610</ele>
        <time>2022-07-27T09:35:20Z</time>
      </trkpt>
      <trkpt lat="45.64052" lon="6.58542">
        <ele>1610</ele>
        <time>2022-07-27T09:35:21Z</time>
      </trkpt>
      <trkpt lat="45.64052" lon="6.58541">
        <ele>1610</ele>
        <time>2022-07-27T09:35:32Z</time>
      </trkpt>
      <trkpt lat="45.64053" lon="6.58541">
        <ele>1610</ele>
        <time>2022-07-27T09:35:33Z</time>
      </trkpt>
      <trkpt lat="45.64053" lon="6.5854">
        <ele>1610</ele>
        <time>2022-07-27T09:35:34Z</time>
      </trkpt>
      <trkpt lat="45.64054" lon="6.58539">
        <ele>1610</ele>
        <time>2022-07-27T09:35:35Z</time>
      </trkpt>
      <trkpt lat="45.64054" lon="6.58539">
        <ele>1610</ele>
        <time>2022-07-27T09:35:36Z</time>
      </trkpt>
      <trkpt lat="45.64055" lon="6.58538">
        <ele>1610</ele>
        <time>2022-07-27T09:35:37Z</time>
      </trkpt>
      <trkpt lat="45.64055" lon="6.58537">
        <ele>1610</ele>
        <time>2022-07-27T09:35:38Z</time>
      </trkpt>
      <trkpt lat="45.64056" lon="6.58535">
        <ele>1610</ele>
        <time>2022-07-27T09:35:39Z</time>
      </trkpt>
      <trkpt lat="45.64057" lon="6.58534">
        <ele>1610</ele>
        <time>2022-07-27T09:35:40Z</time>
      </trkpt>
      <trkpt lat="45.64057" lon="6.58534">
        <ele>1610</ele>
        <time>2022-07-27T09:35:41Z</time>
      </trkpt>
      <trkpt lat="45.64057" lon="6.58533">
        <ele>1610</ele>
        <time>2022-07-27T09:35:42Z</time>
      </trkpt>
      <trkpt lat="45.64058" lon="6.58532">
        <ele>1610</ele>
        <time>2022-07-27T09:35:43Z</time>
      </trkpt>
      <trkpt lat="45.64058" lon="6.58531">
        <ele>1610</ele>
        <time>2022-07-27T09:35:44Z</time>
      </trkpt>
      <trkpt lat="45.64058" lon="6.5853">
        <ele>1610</ele>
        <time>2022-07-27T09:35:45Z</time>
      </trkpt>
      <trkpt lat="45.64058" lon="6.5853">
        <ele>1610</ele>
        <time>2022-07-27T09:35:46Z</time>
      </trkpt>
      <trkpt lat="45.64059" lon="6.58529">
        <ele>1610</ele>
        <time>2022-07-27T09:35:47Z</time>
      </trkpt>
      <trkpt lat="45.64059" lon="6.58528">
        <ele>1610</ele>
        <time>2022-07-27T09:35:48Z</time>
      </trkpt>
      <trkpt lat="45.64059" lon="6.58528">
        <ele>1610</ele>
        <time>2022-07-27T09:35:49Z</time>
      </trkpt>
      <trkpt lat="45.64059" lon="6.58527">
        <ele>1610</ele>
        <time>2022-07-27T09:35:50Z</time>
      </trkpt>
      <trkpt lat="45.6406" lon="6.58526">
        <ele>1610</ele>
        <time>2022-07-27T09:35:51Z</time>
      </trkpt>
      <trkpt lat="45.6406" lon="6.58525">
        <ele>1610</ele>
        <time>2022-07-27T09:35:52Z</time>
      </trkpt>
      <trkpt lat="45.64061" lon="6.58523">
        <ele>1610</ele>
        <time>2022-07-27T09:35:53Z</time>
      </trkpt>
      <trkpt lat="45.64061" lon="6.58522">
        <ele>1610</ele>
        <time>2022-07-27T09:35:54Z</time>
      </trkpt>
      <trkpt lat="45.64062" lon="6.5852">
        <ele>1610</ele>
        <time>2022-07-27T09:35:55Z</time>
      </trkpt>
      <trkpt lat="45.64063" lon="6.58518">
        <ele>1609</ele>
        <time>2022-07-27T09:35:56Z</time>
      </trkpt>
      <trkpt lat="45.64064" lon="6.58517">
        <ele>1609</ele>
        <time>2022-07-27T09:35:57Z</time>
      </trkpt>
      <trkpt lat="45.64064" lon="6.58515">
        <ele>1609</ele>
        <time>2022-07-27T09:35:58Z</time>
      </trkpt>
      <trkpt lat="45.64065" lon="6.58514">
        <ele>1609</ele>
        <time>2022-07-27T09:35:59Z</time>
      </trkpt>
      <trkpt lat="45.64066" lon="6.58512">
        <ele>1609</ele>
        <time>2022-07-27T09:36:00Z</time>
      </trkpt>
      <trkpt lat="45.64067" lon="6.58511">
        <ele>1608</ele>
        <time>2022-07-27T09:36:01Z</time>
      </trkpt>
      <trkpt lat="45.64068" lon="6.5851">
        <ele>1608</ele>
        <time>2022-07-27T09:36:02Z</time>
      </trkpt>
      <trkpt lat="45.64069" lon="6.58509">
        <ele>1608</ele>
        <time>2022-07-27T09:36:03Z</time>
      </trkpt>
      <trkpt lat="45.6407" lon="6.58507">
        <ele>1608</ele>
        <time>2022-07-27T09:36:04Z</time>
      </trkpt>
      <trkpt lat="45.64071" lon="6.58506">
        <ele>1608</ele>
        <time>2022-07-27T09:36:05Z</time>
      </trkpt>
      <trkpt lat="45.64071" lon="6.58505">
        <ele>1608</ele>
        <time>2022-07-27T09:36:06Z</time>
      </trkpt>
      <trkpt lat="45.64072" lon="6.58504">
        <ele>1608</ele>
        <time>2022-07-27T09:36:07Z</time>
      </trkpt>
      <trkpt lat="45.64073" lon="6.58503">
        <ele>1608</ele>
        <time>2022-07-27T09:36:08Z</time>
      </trkpt>
      <trkpt lat="45.64073" lon="6.58501">
        <ele>1608</ele>
        <time>2022-07-27T09:36:09Z</time>
      </trkpt>
      <trkpt lat="45.64074" lon="6.585">
        <ele>1608</ele>
        <time>2022-07-27T09:36:10Z</time>
      </trkpt>
      <trkpt lat="45.64075" lon="6.58499">
        <ele>1607</ele>
        <time>2022-07-27T09:36:11Z</time>
      </trkpt>
      <trkpt lat="45.64076" lon="6.58498">
        <ele>1607</ele>
        <time>2022-07-27T09:36:12Z</time>
      </trkpt>
      <trkpt lat="45.64077" lon="6.58497">
        <ele>1607</ele>
        <time>2022-07-27T09:36:13Z</time>
      </trkpt>
      <trkpt lat="45.64078" lon="6.58496">
        <ele>1607</ele>
        <time>2022-07-27T09:36:14Z</time>
      </trkpt>
      <trkpt lat="45.64079" lon="6.58495">
        <ele>1607</ele>
        <time>2022-07-27T09:36:15Z</time>
      </trkpt>
      <trkpt lat="45.6408" lon="6.58494">
        <ele>1607</ele>
        <time>2022-07-27T09:36:16Z</time>
      </trkpt>
      <trkpt lat="45.64081" lon="6.58494">
        <ele>1607</ele>
        <time>2022-07-27T09:36:17Z</time>
      </trkpt>
      <trkpt lat="45.64082" lon="6.58493">
        <ele>1607</ele>
        <time>2022-07-27T09:36:18Z</time>
      </trkpt>
      <trkpt lat="45.64083" lon="6.58492">
        <ele>1607</ele>
        <time>2022-07-27T09:36:19Z</time>
      </trkpt>
      <trkpt lat="45.64084" lon="6.58491">
        <ele>1607</ele>
        <time>2022-07-27T09:36:20Z</time>
      </trkpt>
      <trkpt lat="45.64085" lon="6.5849">
        <ele>1606</ele>
        <time>2022-07-27T09:36:21Z</time>
      </trkpt>
      <trkpt lat="45.64086" lon="6.58489">
        <ele>1606</ele>
        <time>2022-07-27T09:36:22Z</time>
      </trkpt>
      <trkpt lat="45.64087" lon="6.58488">
        <ele>1606</ele>
        <time>2022-07-27T09:36:23Z</time>
      </trkpt>
      <trkpt lat="45.64088" lon="6.58487">
        <ele>1606</ele>
        <time>2022-07-27T09:36:24Z</time>
      </trkpt>
      <trkpt lat="45.64089" lon="6.58486">
        <ele>1606</ele>
        <time>2022-07-27T09:36:25Z</time>
      </trkpt>
      <trkpt lat="45.6409" lon="6.58485">
        <ele>1605</ele>
        <time>2022-07-27T09:36:26Z</time>
      </trkpt>
      <trkpt lat="45.64091" lon="6.58485">
        <ele>1605</ele>
        <time>2022-07-27T09:36:27Z</time>
      </trkpt>
      <trkpt lat="45.64092" lon="6.58484">
        <ele>1605</ele>
        <time>2022-07-27T09:36:28Z</time>
      </trkpt>
      <trkpt lat="45.64093" lon="6.58483">
        <ele>1605</ele>
        <time>2022-07-27T09:36:29Z</time>
      </trkpt>
      <trkpt lat="45.64094" lon="6.58482">
        <ele>1605</ele>
        <time>2022-07-27T09:36:30Z</time>
      </trkpt>
      <trkpt lat="45.64095" lon="6.58481">
        <ele>1605</ele>
        <time>2022-07-27T09:36:31Z</time>
      </trkpt>
      <trkpt lat="45.64095" lon="6.5848">
        <ele>1605</ele>
        <time>2022-07-27T09:36:32Z</time>
      </trkpt>
      <trkpt lat="45.64096" lon="6.5848">
        <ele>1605</ele>
        <time>2022-07-27T09:36:33Z</time>
      </trkpt>
      <trkpt lat="45.64097" lon="6.58479">
        <ele>1605</ele>
        <time>2022-07-27T09:36:34Z</time>
      </trkpt>
      <trkpt lat="45.64098" lon="6.58478">
        <ele>1605</ele>
        <time>2022-07-27T09:36:35Z</time>
      </trkpt>
      <trkpt lat="45.64098" lon="6.58477">
        <ele>1605</ele>
        <time>2022-07-27T09:36:36Z</time>
      </trkpt>
      <trkpt lat="45.64099" lon="6.58476">
        <ele>1605</ele>
        <time>2022-07-27T09:36:37Z</time>
      </trkpt>
      <trkpt lat="45.64099" lon="6.58475">
        <ele>1605</ele>
        <time>2022-07-27T09:36:38Z</time>
      </trkpt>
      <trkpt lat="45.641" lon="6.58473">
        <ele>1605</ele>
        <time>2022-07-27T09:36:39Z</time>
      </trkpt>
      <trkpt lat="45.641" lon="6.58472">
        <ele>1605</ele>
        <time>2022-07-27T09:36:40Z</time>
      </trkpt>
      <trkpt lat="45.64101" lon="6.58471">
        <ele>1605</ele>
        <time>2022-07-27T09:36:41Z</time>
      </trkpt>
      <trkpt lat="45.64102" lon="6.5847">
        <ele>1605</ele>
        <time>2022-07-27T09:36:42Z</time>
      </trkpt>
      <trkpt lat="45.64102" lon="6.58469">
        <ele>1605</ele>
        <time>2022-07-27T09:36:43Z</time>
      </trkpt>
      <trkpt lat="45.64103" lon="6.58468">
        <ele>1605</ele>
        <time>2022-07-27T09:36:44Z</time>
      </trkpt>
      <trkpt lat="45.64103" lon="6.58467">
        <ele>1605</ele>
        <time>2022-07-27T09:36:45Z</time>
      </trkpt>
      <trkpt lat="45.64103" lon="6.58466">
        <ele>1605</ele>
        <time>2022-07-27T09:36:46Z</time>
      </trkpt>
      <trkpt lat="45.64104" lon="6.58465">
        <ele>1605</ele>
        <time>2022-07-27T09:36:47Z</time>
      </trkpt>
      <trkpt lat="45.64104" lon="6.58463">
        <ele>1605</ele>
        <time>2022-07-27T09:36:48Z</time>
      </trkpt>
      <trkpt lat="45.64105" lon="6.58462">
        <ele>1605</ele>
        <time>2022-07-27T09:36:49Z</time>
      </trkpt>
      <trkpt lat="45.64105" lon="6.58461">
        <ele>1605</ele>
        <time>2022-07-27T09:36:50Z</time>
      </trkpt>
      <trkpt lat="45.64106" lon="6.5846">
        <ele>1605</ele>
        <time>2022-07-27T09:36:51Z</time>
      </trkpt>
      <trkpt lat="45.64106" lon="6.58459">
        <ele>1605</ele>
        <time>2022-07-27T09:36:52Z</time>
      </trkpt>
      <trkpt lat="45.64107" lon="6.58458">
        <ele>1605</ele>
        <time>2022-07-27T09:36:53Z</time>
      </trkpt>
      <trkpt lat="45.64108" lon="6.58457">
        <ele>1605</ele>
        <time>2022-07-27T09:36:54Z</time>
      </trkpt>
      <trkpt lat="45.64109" lon="6.58456">
        <ele>1606</ele>
        <time>2022-07-27T09:36:55Z</time>
      </trkpt>
      <trkpt lat="45.6411" lon="6.58455">
        <ele>1606</ele>
        <time>2022-07-27T09:36:56Z</time>
      </trkpt>
      <trkpt lat="45.64111" lon="6.58454">
        <ele>1606</ele>
        <time>2022-07-27T09:36:57Z</time>
      </trkpt>
      <trkpt lat="45.64111" lon="6.58453">
        <ele>1606</ele>
        <time>2022-07-27T09:36:58Z</time>
      </trkpt>
      <trkpt lat="45.64112" lon="6.58452">
        <ele>1606</ele>
        <time>2022-07-27T09:36:59Z</time>
      </trkpt>
      <trkpt lat="45.64113" lon="6.58451">
        <ele>1606</ele>
        <time>2022-07-27T09:37:00Z</time>
      </trkpt>
      <trkpt lat="45.64114" lon="6.5845">
        <ele>1606</ele>
        <time>2022-07-27T09:37:01Z</time>
      </trkpt>
      <trkpt lat="45.64114" lon="6.58449">
        <ele>1606</ele>
        <time>2022-07-27T09:37:02Z</time>
      </trkpt>
      <trkpt lat="45.64115" lon="6.58449">
        <ele>1606</ele>
        <time>2022-07-27T09:37:03Z</time>
      </trkpt>
      <trkpt lat="45.64116" lon="6.58448">
        <ele>1606</ele>
        <time>2022-07-27T09:37:04Z</time>
      </trkpt>
      <trkpt lat="45.64116" lon="6.58448">
        <ele>1607</ele>
        <time>2022-07-27T09:37:05Z</time>
      </trkpt>
      <trkpt lat="45.64117" lon="6.58447">
        <ele>1607</ele>
        <time>2022-07-27T09:37:06Z</time>
      </trkpt>
      <trkpt lat="45.64118" lon="6.58447">
        <ele>1607</ele>
        <time>2022-07-27T09:37:07Z</time>
      </trkpt>
      <trkpt lat="45.64119" lon="6.58446">
        <ele>1607</ele>
        <time>2022-07-27T09:37:08Z</time>
      </trkpt>
      <trkpt lat="45.6412" lon="6.58445">
        <ele>1607</ele>
        <time>2022-07-27T09:37:09Z</time>
      </trkpt>
      <trkpt lat="45.64121" lon="6.58445">
        <ele>1607</ele>
        <time>2022-07-27T09:37:10Z</time>
      </trkpt>
      <trkpt lat="45.64121" lon="6.58444">
        <ele>1607</ele>
        <time>2022-07-27T09:37:11Z</time>
      </trkpt>
      <trkpt lat="45.64122" lon="6.58443">
        <ele>1607</ele>
        <time>2022-07-27T09:37:12Z</time>
      </trkpt>
      <trkpt lat="45.64123" lon="6.58443">
        <ele>1607</ele>
        <time>2022-07-27T09:37:13Z</time>
      </trkpt>
      <trkpt lat="45.64125" lon="6.58442">
        <ele>1607</ele>
        <time>2022-07-27T09:37:14Z</time>
      </trkpt>
      <trkpt lat="45.64126" lon="6.58442">
        <ele>1608</ele>
        <time>2022-07-27T09:37:15Z</time>
      </trkpt>
      <trkpt lat="45.64127" lon="6.58442">
        <ele>1608</ele>
        <time>2022-07-27T09:37:16Z</time>
      </trkpt>
      <trkpt lat="45.64128" lon="6.58442">
        <ele>1608</ele>
        <time>2022-07-27T09:37:17Z</time>
      </trkpt>
      <trkpt lat="45.64129" lon="6.58442">
        <ele>1608</ele>
        <time>2022-07-27T09:37:18Z</time>
      </trkpt>
      <trkpt lat="45.64131" lon="6.58442">
        <ele>1608</ele>
        <time>2022-07-27T09:37:19Z</time>
      </trkpt>
      <trkpt lat="45.64132" lon="6.58442">
        <ele>1608</ele>
        <time>2022-07-27T09:37:20Z</time>
      </trkpt>
      <trkpt lat="45.64133" lon="6.58442">
        <ele>1608</ele>
        <time>2022-07-27T09:37:21Z</time>
      </trkpt>
      <trkpt lat="45.64134" lon="6.58442">
        <ele>1608</ele>
        <time>2022-07-27T09:37:22Z</time>
      </trkpt>
      <trkpt lat="45.64135" lon="6.58442">
        <ele>1608</ele>
        <time>2022-07-27T09:37:23Z</time>
      </trkpt>
      <trkpt lat="45.64136" lon="6.58442">
        <ele>1608</ele>
        <time>2022-07-27T09:37:24Z</time>
      </trkpt>
      <trkpt lat="45.64137" lon="6.58442">
        <ele>1608</ele>
        <time>2022-07-27T09:37:25Z</time>
      </trkpt>
      <trkpt lat="45.64138" lon="6.58442">
        <ele>1608</ele>
        <time>2022-07-27T09:37:26Z</time>
      </trkpt>
      <trkpt lat="45.64139" lon="6.58442">
        <ele>1608</ele>
        <time>2022-07-27T09:37:27Z</time>
      </trkpt>
      <trkpt lat="45.6414" lon="6.58442">
        <ele>1608</ele>
        <time>2022-07-27T09:37:28Z</time>
      </trkpt>
      <trkpt lat="45.64141" lon="6.58441">
        <ele>1608</ele>
        <time>2022-07-27T09:37:29Z</time>
      </trkpt>
      <trkpt lat="45.64141" lon="6.58441">
        <ele>1608</ele>
        <time>2022-07-27T09:37:30Z</time>
      </trkpt>
      <trkpt lat="45.64142" lon="6.58441">
        <ele>1608</ele>
        <time>2022-07-27T09:37:31Z</time>
      </trkpt>
      <trkpt lat="45.64143" lon="6.5844">
        <ele>1608</ele>
        <time>2022-07-27T09:37:32Z</time>
      </trkpt>
      <trkpt lat="45.64144" lon="6.5844">
        <ele>1608</ele>
        <time>2022-07-27T09:37:33Z</time>
      </trkpt>
      <trkpt lat="45.64144" lon="6.58439">
        <ele>1608</ele>
        <time>2022-07-27T09:37:34Z</time>
      </trkpt>
      <trkpt lat="45.64145" lon="6.58439">
        <ele>1608</ele>
        <time>2022-07-27T09:37:35Z</time>
      </trkpt>
      <trkpt lat="45.64146" lon="6.58439">
        <ele>1608</ele>
        <time>2022-07-27T09:37:36Z</time>
      </trkpt>
      <trkpt lat="45.64147" lon="6.58439">
        <ele>1608</ele>
        <time>2022-07-27T09:37:37Z</time>
      </trkpt>
      <trkpt lat="45.64147" lon="6.58439">
        <ele>1608</ele>
        <time>2022-07-27T09:37:38Z</time>
      </trkpt>
      <trkpt lat="45.64148" lon="6.58438">
        <ele>1608</ele>
        <time>2022-07-27T09:37:39Z</time>
      </trkpt>
      <trkpt lat="45.64149" lon="6.58438">
        <ele>1608</ele>
        <time>2022-07-27T09:37:40Z</time>
      </trkpt>
      <trkpt lat="45.6415" lon="6.58438">
        <ele>1608</ele>
        <time>2022-07-27T09:37:41Z</time>
      </trkpt>
      <trkpt lat="45.64151" lon="6.58438">
        <ele>1608</ele>
        <time>2022-07-27T09:37:42Z</time>
      </trkpt>
      <trkpt lat="45.64152" lon="6.58438">
        <ele>1608</ele>
        <time>2022-07-27T09:37:43Z</time>
      </trkpt>
      <trkpt lat="45.64153" lon="6.58437">
        <ele>1608</ele>
        <time>2022-07-27T09:37:44Z</time>
      </trkpt>
      <trkpt lat="45.64154" lon="6.58437">
        <ele>1608</ele>
        <time>2022-07-27T09:37:45Z</time>
      </trkpt>
      <trkpt lat="45.64155" lon="6.58436">
        <ele>1608</ele>
        <time>2022-07-27T09:37:46Z</time>
      </trkpt>
      <trkpt lat="45.64156" lon="6.58435">
        <ele>1608</ele>
        <time>2022-07-27T09:37:47Z</time>
      </trkpt>
      <trkpt lat="45.64157" lon="6.58434">
        <ele>1608</ele>
        <time>2022-07-27T09:37:48Z</time>
      </trkpt>
      <trkpt lat="45.64158" lon="6.58433">
        <ele>1608</ele>
        <time>2022-07-27T09:37:49Z</time>
      </trkpt>
      <trkpt lat="45.64159" lon="6.58432">
        <ele>1608</ele>
        <time>2022-07-27T09:37:50Z</time>
      </trkpt>
      <trkpt lat="45.64161" lon="6.58431">
        <ele>1608</ele>
        <time>2022-07-27T09:37:51Z</time>
      </trkpt>
      <trkpt lat="45.64162" lon="6.58429">
        <ele>1608</ele>
        <time>2022-07-27T09:37:52Z</time>
      </trkpt>
      <trkpt lat="45.64163" lon="6.58428">
        <ele>1608</ele>
        <time>2022-07-27T09:37:53Z</time>
      </trkpt>
      <trkpt lat="45.64164" lon="6.58427">
        <ele>1608</ele>
        <time>2022-07-27T09:37:54Z</time>
      </trkpt>
      <trkpt lat="45.64165" lon="6.58426">
        <ele>1608</ele>
        <time>2022-07-27T09:37:55Z</time>
      </trkpt>
      <trkpt lat="45.64166" lon="6.58425">
        <ele>1607</ele>
        <time>2022-07-27T09:37:56Z</time>
      </trkpt>
      <trkpt lat="45.64167" lon="6.58424">
        <ele>1607</ele>
        <time>2022-07-27T09:37:57Z</time>
      </trkpt>
      <trkpt lat="45.64168" lon="6.58423">
        <ele>1607</ele>
        <time>2022-07-27T09:37:58Z</time>
      </trkpt>
      <trkpt lat="45.64169" lon="6.58421">
        <ele>1607</ele>
        <time>2022-07-27T09:37:59Z</time>
      </trkpt>
      <trkpt lat="45.6417" lon="6.5842">
        <ele>1607</ele>
        <time>2022-07-27T09:38:00Z</time>
      </trkpt>
      <trkpt lat="45.64171" lon="6.58419">
        <ele>1607</ele>
        <time>2022-07-27T09:38:01Z</time>
      </trkpt>
      <trkpt lat="45.64171" lon="6.58417">
        <ele>1607</ele>
        <time>2022-07-27T09:38:02Z</time>
      </trkpt>
      <trkpt lat="45.64172" lon="6.58416">
        <ele>1607</ele>
        <time>2022-07-27T09:38:03Z</time>
      </trkpt>
      <trkpt lat="45.64173" lon="6.58415">
        <ele>1607</ele>
        <time>2022-07-27T09:38:04Z</time>
      </trkpt>
      <trkpt lat="45.64173" lon="6.58414">
        <ele>1607</ele>
        <time>2022-07-27T09:38:05Z</time>
      </trkpt>
      <trkpt lat="45.64174" lon="6.58413">
        <ele>1606</ele>
        <time>2022-07-27T09:38:06Z</time>
      </trkpt>
      <trkpt lat="45.64174" lon="6.58412">
        <ele>1606</ele>
        <time>2022-07-27T09:38:07Z</time>
      </trkpt>
      <trkpt lat="45.64174" lon="6.58411">
        <ele>1606</ele>
        <time>2022-07-27T09:38:08Z</time>
      </trkpt>
      <trkpt lat="45.64175" lon="6.5841">
        <ele>1606</ele>
        <time>2022-07-27T09:38:09Z</time>
      </trkpt>
      <trkpt lat="45.64175" lon="6.58408">
        <ele>1606</ele>
        <time>2022-07-27T09:38:10Z</time>
      </trkpt>
      <trkpt lat="45.64175" lon="6.58407">
        <ele>1605</ele>
        <time>2022-07-27T09:38:11Z</time>
      </trkpt>
      <trkpt lat="45.64175" lon="6.58407">
        <ele>1605</ele>
        <time>2022-07-27T09:38:12Z</time>
      </trkpt>
      <trkpt lat="45.64175" lon="6.58406">
        <ele>1605</ele>
        <time>2022-07-27T09:38:13Z</time>
      </trkpt>
      <trkpt lat="45.64175" lon="6.58405">
        <ele>1605</ele>
        <time>2022-07-27T09:38:14Z</time>
      </trkpt>
      <trkpt lat="45.64175" lon="6.58404">
        <ele>1605</ele>
        <time>2022-07-27T09:38:15Z</time>
      </trkpt>
      <trkpt lat="45.64175" lon="6.58403">
        <ele>1605</ele>
        <time>2022-07-27T09:38:16Z</time>
      </trkpt>
      <trkpt lat="45.64175" lon="6.58402">
        <ele>1605</ele>
        <time>2022-07-27T09:38:17Z</time>
      </trkpt>
      <trkpt lat="45.64175" lon="6.58401">
        <ele>1605</ele>
        <time>2022-07-27T09:38:18Z</time>
      </trkpt>
      <trkpt lat="45.64176" lon="6.58398">
        <ele>1605</ele>
        <time>2022-07-27T09:38:46Z</time>
      </trkpt>
      <trkpt lat="45.64176" lon="6.58397">
        <ele>1605</ele>
        <time>2022-07-27T09:38:47Z</time>
      </trkpt>
      <trkpt lat="45.64176" lon="6.58396">
        <ele>1605</ele>
        <time>2022-07-27T09:38:48Z</time>
      </trkpt>
      <trkpt lat="45.64176" lon="6.58395">
        <ele>1605</ele>
        <time>2022-07-27T09:38:49Z</time>
      </trkpt>
      <trkpt lat="45.64177" lon="6.58394">
        <ele>1605</ele>
        <time>2022-07-27T09:38:50Z</time>
      </trkpt>
      <trkpt lat="45.64177" lon="6.58393">
        <ele>1605</ele>
        <time>2022-07-27T09:38:51Z</time>
      </trkpt>
      <trkpt lat="45.64177" lon="6.58392">
        <ele>1605</ele>
        <time>2022-07-27T09:38:52Z</time>
      </trkpt>
      <trkpt lat="45.64178" lon="6.58391">
        <ele>1605</ele>
        <time>2022-07-27T09:38:53Z</time>
      </trkpt>
      <trkpt lat="45.64178" lon="6.5839">
        <ele>1605</ele>
        <time>2022-07-27T09:38:54Z</time>
      </trkpt>
      <trkpt lat="45.64178" lon="6.58388">
        <ele>1605</ele>
        <time>2022-07-27T09:38:55Z</time>
      </trkpt>
      <trkpt lat="45.64178" lon="6.58387">
        <ele>1605</ele>
        <time>2022-07-27T09:38:56Z</time>
      </trkpt>
      <trkpt lat="45.64179" lon="6.58385">
        <ele>1605</ele>
        <time>2022-07-27T09:38:57Z</time>
      </trkpt>
      <trkpt lat="45.64179" lon="6.58384">
        <ele>1605</ele>
        <time>2022-07-27T09:38:58Z</time>
      </trkpt>
      <trkpt lat="45.64179" lon="6.58383">
        <ele>1605</ele>
        <time>2022-07-27T09:38:59Z</time>
      </trkpt>
      <trkpt lat="45.64179" lon="6.58382">
        <ele>1606</ele>
        <time>2022-07-27T09:39:00Z</time>
      </trkpt>
      <trkpt lat="45.6418" lon="6.58381">
        <ele>1606</ele>
        <time>2022-07-27T09:39:01Z</time>
      </trkpt>
      <trkpt lat="45.6418" lon="6.5838">
        <ele>1606</ele>
        <time>2022-07-27T09:39:02Z</time>
      </trkpt>
      <trkpt lat="45.6418" lon="6.58377">
        <ele>1605</ele>
        <time>2022-07-27T09:39:18Z</time>
      </trkpt>
      <trkpt lat="45.64179" lon="6.58377">
        <ele>1605</ele>
        <time>2022-07-27T09:39:19Z</time>
      </trkpt>
      <trkpt lat="45.64179" lon="6.58376">
        <ele>1605</ele>
        <time>2022-07-27T09:39:20Z</time>
      </trkpt>
      <trkpt lat="45.64178" lon="6.58375">
        <ele>1605</ele>
        <time>2022-07-27T09:39:21Z</time>
      </trkpt>
      <trkpt lat="45.64178" lon="6.58375">
        <ele>1605</ele>
        <time>2022-07-27T09:39:22Z</time>
      </trkpt>
      <trkpt lat="45.64177" lon="6.58374">
        <ele>1605</ele>
        <time>2022-07-27T09:39:23Z</time>
      </trkpt>
      <trkpt lat="45.64176" lon="6.58373">
        <ele>1605</ele>
        <time>2022-07-27T09:39:24Z</time>
      </trkpt>
      <trkpt lat="45.64176" lon="6.58372">
        <ele>1605</ele>
        <time>2022-07-27T09:39:31Z</time>
      </trkpt>
      <trkpt lat="45.64176" lon="6.58372">
        <ele>1605</ele>
        <time>2022-07-27T09:39:32Z</time>
      </trkpt>
      <trkpt lat="45.64176" lon="6.58372">
        <ele>1605</ele>
        <time>2022-07-27T09:39:33Z</time>
      </trkpt>
      <trkpt lat="45.64176" lon="6.58372">
        <ele>1605</ele>
        <time>2022-07-27T09:39:34Z</time>
      </trkpt>
      <trkpt lat="45.64176" lon="6.58373">
        <ele>1605</ele>
        <time>2022-07-27T09:39:35Z</time>
      </trkpt>
      <trkpt lat="45.64177" lon="6.58373">
        <ele>1605</ele>
        <time>2022-07-27T09:39:36Z</time>
      </trkpt>
      <trkpt lat="45.64177" lon="6.58374">
        <ele>1605</ele>
        <time>2022-07-27T09:39:37Z</time>
      </trkpt>
      <trkpt lat="45.64178" lon="6.58374">
        <ele>1605</ele>
        <time>2022-07-27T09:39:38Z</time>
      </trkpt>
      <trkpt lat="45.64178" lon="6.58375">
        <ele>1605</ele>
        <time>2022-07-27T09:39:39Z</time>
      </trkpt>
      <trkpt lat="45.64179" lon="6.58375">
        <ele>1605</ele>
        <time>2022-07-27T09:39:40Z</time>
      </trkpt>
      <trkpt lat="45.64179" lon="6.58376">
        <ele>1605</ele>
        <time>2022-07-27T09:39:41Z</time>
      </trkpt>
      <trkpt lat="45.6418" lon="6.58376">
        <ele>1605</ele>
        <time>2022-07-27T09:39:42Z</time>
      </trkpt>
      <trkpt lat="45.64181" lon="6.58374">
        <ele>1605</ele>
        <time>2022-07-27T09:42:11Z</time>
      </trkpt>
      <trkpt lat="45.64181" lon="6.58374">
        <ele>1605</ele>
        <time>2022-07-27T09:42:12Z</time>
      </trkpt>
      <trkpt lat="45.64181" lon="6.58373">
        <ele>1605</ele>
        <time>2022-07-27T09:42:13Z</time>
      </trkpt>
      <trkpt lat="45.64181" lon="6.58372">
        <ele>1605</ele>
        <time>2022-07-27T09:42:14Z</time>
      </trkpt>
      <trkpt lat="45.64181" lon="6.58371">
        <ele>1605</ele>
        <time>2022-07-27T09:42:15Z</time>
      </trkpt>
      <trkpt lat="45.64183" lon="6.58372">
        <ele>1605</ele>
        <time>2022-07-27T09:42:16Z</time>
      </trkpt>
      <trkpt lat="45.64184" lon="6.58372">
        <ele>1605</ele>
        <time>2022-07-27T09:42:17Z</time>
      </trkpt>
      <trkpt lat="45.64185" lon="6.58372">
        <ele>1605</ele>
        <time>2022-07-27T09:42:18Z</time>
      </trkpt>
      <trkpt lat="45.64187" lon="6.58372">
        <ele>1605</ele>
        <time>2022-07-27T09:42:19Z</time>
      </trkpt>
      <trkpt lat="45.64188" lon="6.58372">
        <ele>1605</ele>
        <time>2022-07-27T09:42:20Z</time>
      </trkpt>
      <trkpt lat="45.64189" lon="6.58372">
        <ele>1605</ele>
        <time>2022-07-27T09:42:21Z</time>
      </trkpt>
      <trkpt lat="45.6419" lon="6.58371">
        <ele>1605</ele>
        <time>2022-07-27T09:42:22Z</time>
      </trkpt>
      <trkpt lat="45.64191" lon="6.5837">
        <ele>1605</ele>
        <time>2022-07-27T09:42:23Z</time>
      </trkpt>
      <trkpt lat="45.64192" lon="6.5837">
        <ele>1605</ele>
        <time>2022-07-27T09:42:24Z</time>
      </trkpt>
      <trkpt lat="45.64193" lon="6.58369">
        <ele>1605</ele>
        <time>2022-07-27T09:42:25Z</time>
      </trkpt>
      <trkpt lat="45.64194" lon="6.58368">
        <ele>1605</ele>
        <time>2022-07-27T09:42:26Z</time>
      </trkpt>
      <trkpt lat="45.64194" lon="6.58367">
        <ele>1605</ele>
        <time>2022-07-27T09:42:27Z</time>
      </trkpt>
      <trkpt lat="45.64195" lon="6.58366">
        <ele>1605</ele>
        <time>2022-07-27T09:42:28Z</time>
      </trkpt>
      <trkpt lat="45.64196" lon="6.58365">
        <ele>1605</ele>
        <time>2022-07-27T09:42:29Z</time>
      </trkpt>
      <trkpt lat="45.64197" lon="6.58364">
        <ele>1605</ele>
        <time>2022-07-27T09:42:30Z</time>
      </trkpt>
      <trkpt lat="45.64198" lon="6.58363">
        <ele>1604</ele>
        <time>2022-07-27T09:42:31Z</time>
      </trkpt>
      <trkpt lat="45.642" lon="6.58362">
        <ele>1604</ele>
        <time>2022-07-27T09:42:32Z</time>
      </trkpt>
      <trkpt lat="45.64201" lon="6.58361">
        <ele>1604</ele>
        <time>2022-07-27T09:42:33Z</time>
      </trkpt>
      <trkpt lat="45.64202" lon="6.5836">
        <ele>1604</ele>
        <time>2022-07-27T09:42:34Z</time>
      </trkpt>
      <trkpt lat="45.64203" lon="6.5836">
        <ele>1604</ele>
        <time>2022-07-27T09:42:35Z</time>
      </trkpt>
      <trkpt lat="45.64204" lon="6.5836">
        <ele>1604</ele>
        <time>2022-07-27T09:42:36Z</time>
      </trkpt>
      <trkpt lat="45.64205" lon="6.58359">
        <ele>1604</ele>
        <time>2022-07-27T09:42:37Z</time>
      </trkpt>
      <trkpt lat="45.64207" lon="6.58359">
        <ele>1604</ele>
        <time>2022-07-27T09:42:38Z</time>
      </trkpt>
      <trkpt lat="45.64208" lon="6.58359">
        <ele>1604</ele>
        <time>2022-07-27T09:42:39Z</time>
      </trkpt>
      <trkpt lat="45.64209" lon="6.58358">
        <ele>1602</ele>
        <time>2022-07-27T09:43:02Z</time>
      </trkpt>
      <trkpt lat="45.6421" lon="6.58358">
        <ele>1602</ele>
        <time>2022-07-27T09:43:03Z</time>
      </trkpt>
      <trkpt lat="45.64211" lon="6.58358">
        <ele>1602</ele>
        <time>2022-07-27T09:43:04Z</time>
      </trkpt>
      <trkpt lat="45.64213" lon="6.58358">
        <ele>1602</ele>
        <time>2022-07-27T09:43:05Z</time>
      </trkpt>
      <trkpt lat="45.64214" lon="6.58358">
        <ele>1602</ele>
        <time>2022-07-27T09:43:06Z</time>
      </trkpt>
      <trkpt lat="45.64216" lon="6.58357">
        <ele>1602</ele>
        <time>2022-07-27T09:43:07Z</time>
      </trkpt>
      <trkpt lat="45.64218" lon="6.58357">
        <ele>1602</ele>
        <time>2022-07-27T09:43:08Z</time>
      </trkpt>
      <trkpt lat="45.6422" lon="6.58356">
        <ele>1602</ele>
        <time>2022-07-27T09:43:09Z</time>
      </trkpt>
      <trkpt lat="45.64221" lon="6.58355">
        <ele>1602</ele>
        <time>2022-07-27T09:43:10Z</time>
      </trkpt>
      <trkpt lat="45.64223" lon="6.58353">
        <ele>1602</ele>
        <time>2022-07-27T09:43:11Z</time>
      </trkpt>
      <trkpt lat="45.64224" lon="6.58352">
        <ele>1602</ele>
        <time>2022-07-27T09:43:12Z</time>
      </trkpt>
      <trkpt lat="45.64224" lon="6.58351">
        <ele>1602</ele>
        <time>2022-07-27T09:43:13Z</time>
      </trkpt>
      <trkpt lat="45.64225" lon="6.58349">
        <ele>1602</ele>
        <time>2022-07-27T09:43:14Z</time>
      </trkpt>
      <trkpt lat="45.64226" lon="6.58348">
        <ele>1602</ele>
        <time>2022-07-27T09:43:15Z</time>
      </trkpt>
      <trkpt lat="45.64227" lon="6.58346">
        <ele>1601</ele>
        <time>2022-07-27T09:43:16Z</time>
      </trkpt>
      <trkpt lat="45.64228" lon="6.58344">
        <ele>1601</ele>
        <time>2022-07-27T09:43:17Z</time>
      </trkpt>
      <trkpt lat="45.64229" lon="6.58342">
        <ele>1601</ele>
        <time>2022-07-27T09:43:18Z</time>
      </trkpt>
      <trkpt lat="45.6423" lon="6.5834">
        <ele>1601</ele>
        <time>2022-07-27T09:43:19Z</time>
      </trkpt>
      <trkpt lat="45.64231" lon="6.58338">
        <ele>1601</ele>
        <time>2022-07-27T09:43:20Z</time>
      </trkpt>
      <trkpt lat="45.64232" lon="6.58336">
        <ele>1600</ele>
        <time>2022-07-27T09:43:21Z</time>
      </trkpt>
      <trkpt lat="45.64233" lon="6.58333">
        <ele>1600</ele>
        <time>2022-07-27T09:43:22Z</time>
      </trkpt>
      <trkpt lat="45.64235" lon="6.58332">
        <ele>1600</ele>
        <time>2022-07-27T09:43:23Z</time>
      </trkpt>
      <trkpt lat="45.64236" lon="6.5833">
        <ele>1600</ele>
        <time>2022-07-27T09:43:24Z</time>
      </trkpt>
      <trkpt lat="45.64238" lon="6.58329">
        <ele>1600</ele>
        <time>2022-07-27T09:43:25Z</time>
      </trkpt>
      <trkpt lat="45.64239" lon="6.58327">
        <ele>1599</ele>
        <time>2022-07-27T09:43:26Z</time>
      </trkpt>
      <trkpt lat="45.6424" lon="6.58327">
        <ele>1599</ele>
        <time>2022-07-27T09:43:27Z</time>
      </trkpt>
      <trkpt lat="45.64242" lon="6.58326">
        <ele>1599</ele>
        <time>2022-07-27T09:43:28Z</time>
      </trkpt>
      <trkpt lat="45.64243" lon="6.58325">
        <ele>1599</ele>
        <time>2022-07-27T09:43:29Z</time>
      </trkpt>
      <trkpt lat="45.64245" lon="6.58325">
        <ele>1599</ele>
        <time>2022-07-27T09:43:30Z</time>
      </trkpt>
      <trkpt lat="45.64246" lon="6.58325">
        <ele>1598</ele>
        <time>2022-07-27T09:43:31Z</time>
      </trkpt>
      <trkpt lat="45.64248" lon="6.58325">
        <ele>1598</ele>
        <time>2022-07-27T09:43:32Z</time>
      </trkpt>
      <trkpt lat="45.64249" lon="6.58324">
        <ele>1598</ele>
        <time>2022-07-27T09:43:33Z</time>
      </trkpt>
      <trkpt lat="45.64251" lon="6.58324">
        <ele>1598</ele>
        <time>2022-07-27T09:43:34Z</time>
      </trkpt>
      <trkpt lat="45.64252" lon="6.58324">
        <ele>1598</ele>
        <time>2022-07-27T09:43:35Z</time>
      </trkpt>
      <trkpt lat="45.64253" lon="6.58324">
        <ele>1597</ele>
        <time>2022-07-27T09:43:36Z</time>
      </trkpt>
      <trkpt lat="45.64254" lon="6.58324">
        <ele>1597</ele>
        <time>2022-07-27T09:43:37Z</time>
      </trkpt>
      <trkpt lat="45.64256" lon="6.58324">
        <ele>1597</ele>
        <time>2022-07-27T09:43:38Z</time>
      </trkpt>
      <trkpt lat="45.64257" lon="6.58324">
        <ele>1597</ele>
        <time>2022-07-27T09:43:39Z</time>
      </trkpt>
      <trkpt lat="45.64258" lon="6.58325">
        <ele>1597</ele>
        <time>2022-07-27T09:43:40Z</time>
      </trkpt>
      <trkpt lat="45.64259" lon="6.58325">
        <ele>1596</ele>
        <time>2022-07-27T09:43:41Z</time>
      </trkpt>
      <trkpt lat="45.64261" lon="6.58325">
        <ele>1596</ele>
        <time>2022-07-27T09:43:42Z</time>
      </trkpt>
      <trkpt lat="45.64262" lon="6.58325">
        <ele>1596</ele>
        <time>2022-07-27T09:43:43Z</time>
      </trkpt>
      <trkpt lat="45.64264" lon="6.58325">
        <ele>1596</ele>
        <time>2022-07-27T09:43:44Z</time>
      </trkpt>
      <trkpt lat="45.64265" lon="6.58325">
        <ele>1596</ele>
        <time>2022-07-27T09:43:45Z</time>
      </trkpt>
      <trkpt lat="45.64267" lon="6.58325">
        <ele>1595</ele>
        <time>2022-07-27T09:43:46Z</time>
      </trkpt>
      <trkpt lat="45.64268" lon="6.58325">
        <ele>1595</ele>
        <time>2022-07-27T09:43:47Z</time>
      </trkpt>
      <trkpt lat="45.6427" lon="6.58325">
        <ele>1595</ele>
        <time>2022-07-27T09:43:48Z</time>
      </trkpt>
      <trkpt lat="45.64271" lon="6.58325">
        <ele>1595</ele>
        <time>2022-07-27T09:43:49Z</time>
      </trkpt>
      <trkpt lat="45.64273" lon="6.58324">
        <ele>1595</ele>
        <time>2022-07-27T09:43:50Z</time>
      </trkpt>
      <trkpt lat="45.64274" lon="6.58324">
        <ele>1594</ele>
        <time>2022-07-27T09:43:51Z</time>
      </trkpt>
      <trkpt lat="45.64275" lon="6.58324">
        <ele>1594</ele>
        <time>2022-07-27T09:43:52Z</time>
      </trkpt>
      <trkpt lat="45.64276" lon="6.58323">
        <ele>1594</ele>
        <time>2022-07-27T09:43:53Z</time>
      </trkpt>
      <trkpt lat="45.64277" lon="6.58323">
        <ele>1594</ele>
        <time>2022-07-27T09:43:54Z</time>
      </trkpt>
      <trkpt lat="45.64278" lon="6.58322">
        <ele>1594</ele>
        <time>2022-07-27T09:43:55Z</time>
      </trkpt>
      <trkpt lat="45.64279" lon="6.58321">
        <ele>1594</ele>
        <time>2022-07-27T09:43:56Z</time>
      </trkpt>
      <trkpt lat="45.64279" lon="6.58321">
        <ele>1593</ele>
        <time>2022-07-27T09:44:58Z</time>
      </trkpt>
      <trkpt lat="45.64279" lon="6.58321">
        <ele>1593</ele>
        <time>2022-07-27T09:44:59Z</time>
      </trkpt>
      <trkpt lat="45.6428" lon="6.58321">
        <ele>1593</ele>
        <time>2022-07-27T09:45:00Z</time>
      </trkpt>
      <trkpt lat="45.64279" lon="6.58321">
        <ele>1593</ele>
        <time>2022-07-27T09:45:01Z</time>
      </trkpt>
      <trkpt lat="45.64279" lon="6.58321">
        <ele>1593</ele>
        <time>2022-07-27T09:45:02Z</time>
      </trkpt>
      <trkpt lat="45.64278" lon="6.58321">
        <ele>1593</ele>
        <time>2022-07-27T09:45:03Z</time>
      </trkpt>
      <trkpt lat="45.64277" lon="6.58321">
        <ele>1593</ele>
        <time>2022-07-27T09:45:04Z</time>
      </trkpt>
      <trkpt lat="45.64277" lon="6.58322">
        <ele>1593</ele>
        <time>2022-07-27T09:45:05Z</time>
      </trkpt>
      <trkpt lat="45.64276" lon="6.58322">
        <ele>1593</ele>
        <time>2022-07-27T09:45:06Z</time>
      </trkpt>
      <trkpt lat="45.64275" lon="6.58322">
        <ele>1593</ele>
        <time>2022-07-27T09:45:07Z</time>
      </trkpt>
      <trkpt lat="45.64274" lon="6.58323">
        <ele>1593</ele>
        <time>2022-07-27T09:45:08Z</time>
      </trkpt>
      <trkpt lat="45.64273" lon="6.58323">
        <ele>1593</ele>
        <time>2022-07-27T09:45:09Z</time>
      </trkpt>
      <trkpt lat="45.64271" lon="6.58323">
        <ele>1593</ele>
        <time>2022-07-27T09:45:10Z</time>
      </trkpt>
      <trkpt lat="45.6427" lon="6.58323">
        <ele>1592</ele>
        <time>2022-07-27T09:45:11Z</time>
      </trkpt>
      <trkpt lat="45.64269" lon="6.58323">
        <ele>1592</ele>
        <time>2022-07-27T09:45:12Z</time>
      </trkpt>
      <trkpt lat="45.64268" lon="6.58323">
        <ele>1592</ele>
        <time>2022-07-27T09:45:13Z</time>
      </trkpt>
      <trkpt lat="45.64267" lon="6.58323">
        <ele>1592</ele>
        <time>2022-07-27T09:45:14Z</time>
      </trkpt>
      <trkpt lat="45.64267" lon="6.58323">
        <ele>1592</ele>
        <time>2022-07-27T09:45:15Z</time>
      </trkpt>
      <trkpt lat="45.64266" lon="6.58323">
        <ele>1592</ele>
        <time>2022-07-27T09:45:16Z</time>
      </trkpt>
      <trkpt lat="45.64266" lon="6.58322">
        <ele>1592</ele>
        <time>2022-07-27T09:45:17Z</time>
      </trkpt>
      <trkpt lat="45.64266" lon="6.58322">
        <ele>1592</ele>
        <time>2022-07-27T09:45:18Z</time>
      </trkpt>
      <trkpt lat="45.64265" lon="6.58322">
        <ele>1592</ele>
        <time>2022-07-27T09:45:19Z</time>
      </trkpt>
      <trkpt lat="45.64265" lon="6.58321">
        <ele>1592</ele>
        <time>2022-07-27T09:45:20Z</time>
      </trkpt>
      <trkpt lat="45.64264" lon="6.58321">
        <ele>1592</ele>
        <time>2022-07-27T09:45:21Z</time>
      </trkpt>
      <trkpt lat="45.64264" lon="6.5832">
        <ele>1592</ele>
        <time>2022-07-27T09:45:22Z</time>
      </trkpt>
      <trkpt lat="45.64263" lon="6.58319">
        <ele>1592</ele>
        <time>2022-07-27T09:45:23Z</time>
      </trkpt>
      <trkpt lat="45.64263" lon="6.58318">
        <ele>1592</ele>
        <time>2022-07-27T09:45:24Z</time>
      </trkpt>
      <trkpt lat="45.64262" lon="6.58318">
        <ele>1592</ele>
        <time>2022-07-27T09:45:25Z</time>
      </trkpt>
      <trkpt lat="45.64262" lon="6.58317">
        <ele>1591</ele>
        <time>2022-07-27T09:45:26Z</time>
      </trkpt>
      <trkpt lat="45.64261" lon="6.58316">
        <ele>1591</ele>
        <time>2022-07-27T09:45:27Z</time>
      </trkpt>
      <trkpt lat="45.6426" lon="6.58315">
        <ele>1591</ele>
        <time>2022-07-27T09:45:28Z</time>
      </trkpt>
      <trkpt lat="45.64259" lon="6.58314">
        <ele>1591</ele>
        <time>2022-07-27T09:45:29Z</time>
      </trkpt>
      <trkpt lat="45.64258" lon="6.58313">
        <ele>1591</ele>
        <time>2022-07-27T09:45:30Z</time>
      </trkpt>
      <trkpt lat="45.64257" lon="6.58312">
        <ele>1591</ele>
        <time>2022-07-27T09:45:31Z</time>
      </trkpt>
      <trkpt lat="45.64256" lon="6.58311">
        <ele>1591</ele>
        <time>2022-07-27T09:45:32Z</time>
      </trkpt>
      <trkpt lat="45.64255" lon="6.5831">
        <ele>1591</ele>
        <time>2022-07-27T09:45:33Z</time>
      </trkpt>
      <trkpt lat="45.64255" lon="6.5831">
        <ele>1591</ele>
        <time>2022-07-27T09:45:34Z</time>
      </trkpt>
      <trkpt lat="45.64255" lon="6.58309">
        <ele>1591</ele>
        <time>2022-07-27T09:45:35Z</time>
      </trkpt>
      <trkpt lat="45.64256" lon="6.58308">
        <ele>1591</ele>
        <time>2022-07-27T09:45:36Z</time>
      </trkpt>
      <trkpt lat="45.64257" lon="6.58308">
        <ele>1591</ele>
        <time>2022-07-27T09:45:37Z</time>
      </trkpt>
      <trkpt lat="45.64258" lon="6.58308">
        <ele>1591</ele>
        <time>2022-07-27T09:45:38Z</time>
      </trkpt>
      <trkpt lat="45.64259" lon="6.58308">
        <ele>1591</ele>
        <time>2022-07-27T09:45:39Z</time>
      </trkpt>
      <trkpt lat="45.6426" lon="6.58308">
        <ele>1591</ele>
        <time>2022-07-27T09:45:40Z</time>
      </trkpt>
      <trkpt lat="45.64261" lon="6.58308">
        <ele>1590</ele>
        <time>2022-07-27T09:45:41Z</time>
      </trkpt>
      <trkpt lat="45.64262" lon="6.58309">
        <ele>1590</ele>
        <time>2022-07-27T09:45:42Z</time>
      </trkpt>
      <trkpt lat="45.64263" lon="6.58309">
        <ele>1590</ele>
        <time>2022-07-27T09:45:43Z</time>
      </trkpt>
      <trkpt lat="45.64265" lon="6.5831">
        <ele>1590</ele>
        <time>2022-07-27T09:45:44Z</time>
      </trkpt>
      <trkpt lat="45.64266" lon="6.5831">
        <ele>1590</ele>
        <time>2022-07-27T09:45:45Z</time>
      </trkpt>
      <trkpt lat="45.64267" lon="6.58311">
        <ele>1590</ele>
        <time>2022-07-27T09:45:46Z</time>
      </trkpt>
      <trkpt lat="45.64268" lon="6.58311">
        <ele>1590</ele>
        <time>2022-07-27T09:45:47Z</time>
      </trkpt>
      <trkpt lat="45.6427" lon="6.58312">
        <ele>1590</ele>
        <time>2022-07-27T09:45:48Z</time>
      </trkpt>
      <trkpt lat="45.64271" lon="6.58312">
        <ele>1590</ele>
        <time>2022-07-27T09:45:49Z</time>
      </trkpt>
      <trkpt lat="45.64272" lon="6.58311">
        <ele>1590</ele>
        <time>2022-07-27T09:45:50Z</time>
      </trkpt>
      <trkpt lat="45.64272" lon="6.58311">
        <ele>1589</ele>
        <time>2022-07-27T09:45:51Z</time>
      </trkpt>
      <trkpt lat="45.64272" lon="6.5831">
        <ele>1589</ele>
        <time>2022-07-27T09:45:52Z</time>
      </trkpt>
      <trkpt lat="45.64271" lon="6.58309">
        <ele>1589</ele>
        <time>2022-07-27T09:45:53Z</time>
      </trkpt>
      <trkpt lat="45.64271" lon="6.58309">
        <ele>1589</ele>
        <time>2022-07-27T09:45:54Z</time>
      </trkpt>
      <trkpt lat="45.6427" lon="6.58308">
        <ele>1589</ele>
        <time>2022-07-27T09:45:55Z</time>
      </trkpt>
      <trkpt lat="45.64269" lon="6.58308">
        <ele>1589</ele>
        <time>2022-07-27T09:45:56Z</time>
      </trkpt>
      <trkpt lat="45.64267" lon="6.58307">
        <ele>1589</ele>
        <time>2022-07-27T09:45:57Z</time>
      </trkpt>
      <trkpt lat="45.64266" lon="6.58306">
        <ele>1589</ele>
        <time>2022-07-27T09:45:58Z</time>
      </trkpt>
      <trkpt lat="45.64265" lon="6.58306">
        <ele>1589</ele>
        <time>2022-07-27T09:45:59Z</time>
      </trkpt>
      <trkpt lat="45.64263" lon="6.58306">
        <ele>1589</ele>
        <time>2022-07-27T09:46:00Z</time>
      </trkpt>
      <trkpt lat="45.64262" lon="6.58305">
        <ele>1588</ele>
        <time>2022-07-27T09:46:01Z</time>
      </trkpt>
      <trkpt lat="45.6426" lon="6.58305">
        <ele>1588</ele>
        <time>2022-07-27T09:46:02Z</time>
      </trkpt>
      <trkpt lat="45.64259" lon="6.58305">
        <ele>1588</ele>
        <time>2022-07-27T09:46:03Z</time>
      </trkpt>
      <trkpt lat="45.64258" lon="6.58304">
        <ele>1588</ele>
        <time>2022-07-27T09:46:04Z</time>
      </trkpt>
      <trkpt lat="45.64256" lon="6.58303">
        <ele>1588</ele>
        <time>2022-07-27T09:46:05Z</time>
      </trkpt>
      <trkpt lat="45.64255" lon="6.58303">
        <ele>1588</ele>
        <time>2022-07-27T09:46:06Z</time>
      </trkpt>
      <trkpt lat="45.64254" lon="6.58302">
        <ele>1588</ele>
        <time>2022-07-27T09:46:07Z</time>
      </trkpt>
      <trkpt lat="45.64253" lon="6.58301">
        <ele>1588</ele>
        <time>2022-07-27T09:46:08Z</time>
      </trkpt>
      <trkpt lat="45.64252" lon="6.58301">
        <ele>1588</ele>
        <time>2022-07-27T09:46:09Z</time>
      </trkpt>
      <trkpt lat="45.64251" lon="6.583">
        <ele>1588</ele>
        <time>2022-07-27T09:46:10Z</time>
      </trkpt>
      <trkpt lat="45.6425" lon="6.583">
        <ele>1587</ele>
        <time>2022-07-27T09:46:11Z</time>
      </trkpt>
      <trkpt lat="45.64249" lon="6.583">
        <ele>1587</ele>
        <time>2022-07-27T09:46:12Z</time>
      </trkpt>
      <trkpt lat="45.64248" lon="6.58299">
        <ele>1587</ele>
        <time>2022-07-27T09:46:13Z</time>
      </trkpt>
      <trkpt lat="45.64247" lon="6.58299">
        <ele>1587</ele>
        <time>2022-07-27T09:46:14Z</time>
      </trkpt>
      <trkpt lat="45.64246" lon="6.58299">
        <ele>1586</ele>
        <time>2022-07-27T09:46:29Z</time>
      </trkpt>
      <trkpt lat="45.64246" lon="6.58299">
        <ele>1586</ele>
        <time>2022-07-27T09:46:30Z</time>
      </trkpt>
      <trkpt lat="45.64245" lon="6.58299">
        <ele>1586</ele>
        <time>2022-07-27T09:46:31Z</time>
      </trkpt>
      <trkpt lat="45.64244" lon="6.58299">
        <ele>1586</ele>
        <time>2022-07-27T09:46:32Z</time>
      </trkpt>
      <trkpt lat="45.64244" lon="6.58299">
        <ele>1586</ele>
        <time>2022-07-27T09:46:33Z</time>
      </trkpt>
      <trkpt lat="45.64243" lon="6.58298">
        <ele>1586</ele>
        <time>2022-07-27T09:46:57Z</time>
      </trkpt>
      <trkpt lat="45.64242" lon="6.58298">
        <ele>1586</ele>
        <time>2022-07-27T09:46:58Z</time>
      </trkpt>
      <trkpt lat="45.64242" lon="6.58297">
        <ele>1586</ele>
        <time>2022-07-27T09:46:59Z</time>
      </trkpt>
      <trkpt lat="45.64242" lon="6.58297">
        <ele>1586</ele>
        <time>2022-07-27T09:47:00Z</time>
      </trkpt>
      <trkpt lat="45.64242" lon="6.58297">
        <ele>1586</ele>
        <time>2022-07-27T09:47:01Z</time>
      </trkpt>
      <trkpt lat="45.64243" lon="6.58298">
        <ele>1586</ele>
        <time>2022-07-27T09:47:02Z</time>
      </trkpt>
      <trkpt lat="45.64243" lon="6.58298">
        <ele>1586</ele>
        <time>2022-07-27T09:47:03Z</time>
      </trkpt>
      <trkpt lat="45.64244" lon="6.58297">
        <ele>1586</ele>
        <time>2022-07-27T09:48:07Z</time>
      </trkpt>
      <trkpt lat="45.64244" lon="6.58297">
        <ele>1586</ele>
        <time>2022-07-27T09:48:08Z</time>
      </trkpt>
      <trkpt lat="45.64244" lon="6.58296">
        <ele>1586</ele>
        <time>2022-07-27T09:48:09Z</time>
      </trkpt>
      <trkpt lat="45.64243" lon="6.58296">
        <ele>1586</ele>
        <time>2022-07-27T09:48:10Z</time>
      </trkpt>
      <trkpt lat="45.64243" lon="6.58295">
        <ele>1586</ele>
        <time>2022-07-27T09:48:11Z</time>
      </trkpt>
      <trkpt lat="45.64242" lon="6.58295">
        <ele>1586</ele>
        <time>2022-07-27T09:48:12Z</time>
      </trkpt>
      <trkpt lat="45.64241" lon="6.58294">
        <ele>1586</ele>
        <time>2022-07-27T09:48:13Z</time>
      </trkpt>
      <trkpt lat="45.6424" lon="6.58293">
        <ele>1586</ele>
        <time>2022-07-27T09:48:14Z</time>
      </trkpt>
      <trkpt lat="45.64238" lon="6.58292">
        <ele>1586</ele>
        <time>2022-07-27T09:48:15Z</time>
      </trkpt>
      <trkpt lat="45.64237" lon="6.5829">
        <ele>1586</ele>
        <time>2022-07-27T09:48:16Z</time>
      </trkpt>
      <trkpt lat="45.64236" lon="6.58289">
        <ele>1586</ele>
        <time>2022-07-27T09:48:17Z</time>
      </trkpt>
      <trkpt lat="45.64235" lon="6.58288">
        <ele>1586</ele>
        <time>2022-07-27T09:48:18Z</time>
      </trkpt>
      <trkpt lat="45.64234" lon="6.58287">
        <ele>1586</ele>
        <time>2022-07-27T09:48:19Z</time>
      </trkpt>
      <trkpt lat="45.64233" lon="6.58286">
        <ele>1586</ele>
        <time>2022-07-27T09:48:20Z</time>
      </trkpt>
      <trkpt lat="45.64232" lon="6.58285">
        <ele>1585</ele>
        <time>2022-07-27T09:48:21Z</time>
      </trkpt>
      <trkpt lat="45.64231" lon="6.58284">
        <ele>1585</ele>
        <time>2022-07-27T09:48:22Z</time>
      </trkpt>
      <trkpt lat="45.6423" lon="6.58283">
        <ele>1585</ele>
        <time>2022-07-27T09:48:23Z</time>
      </trkpt>
      <trkpt lat="45.64229" lon="6.58282">
        <ele>1585</ele>
        <time>2022-07-27T09:48:24Z</time>
      </trkpt>
      <trkpt lat="45.64228" lon="6.58281">
        <ele>1585</ele>
        <time>2022-07-27T09:48:25Z</time>
      </trkpt>
      <trkpt lat="45.64228" lon="6.58279">
        <ele>1585</ele>
        <time>2022-07-27T09:48:31Z</time>
      </trkpt>
      <trkpt lat="45.64227" lon="6.58279">
        <ele>1585</ele>
        <time>2022-07-27T09:48:32Z</time>
      </trkpt>
      <trkpt lat="45.64227" lon="6.58278">
        <ele>1585</ele>
        <time>2022-07-27T09:48:33Z</time>
      </trkpt>
      <trkpt lat="45.64226" lon="6.58277">
        <ele>1585</ele>
        <time>2022-07-27T09:48:34Z</time>
      </trkpt>
      <trkpt lat="45.64226" lon="6.58276">
        <ele>1585</ele>
        <time>2022-07-27T09:48:35Z</time>
      </trkpt>
      <trkpt lat="45.64225" lon="6.58275">
        <ele>1584</ele>
        <time>2022-07-27T09:48:36Z</time>
      </trkpt>
      <trkpt lat="45.64224" lon="6.58274">
        <ele>1584</ele>
        <time>2022-07-27T09:48:37Z</time>
      </trkpt>
      <trkpt lat="45.64222" lon="6.58272">
        <ele>1584</ele>
        <time>2022-07-27T09:48:38Z</time>
      </trkpt>
      <trkpt lat="45.64221" lon="6.58271">
        <ele>1584</ele>
        <time>2022-07-27T09:48:39Z</time>
      </trkpt>
      <trkpt lat="45.6422" lon="6.58269">
        <ele>1584</ele>
        <time>2022-07-27T09:48:40Z</time>
      </trkpt>
      <trkpt lat="45.64219" lon="6.58268">
        <ele>1584</ele>
        <time>2022-07-27T09:48:41Z</time>
      </trkpt>
      <trkpt lat="45.64218" lon="6.58266">
        <ele>1584</ele>
        <time>2022-07-27T09:48:42Z</time>
      </trkpt>
      <trkpt lat="45.64217" lon="6.58265">
        <ele>1584</ele>
        <time>2022-07-27T09:48:43Z</time>
      </trkpt>
      <trkpt lat="45.64216" lon="6.58264">
        <ele>1584</ele>
        <time>2022-07-27T09:48:44Z</time>
      </trkpt>
      <trkpt lat="45.64215" lon="6.58263">
        <ele>1584</ele>
        <time>2022-07-27T09:48:45Z</time>
      </trkpt>
      <trkpt lat="45.64215" lon="6.58263">
        <ele>1584</ele>
        <time>2022-07-27T09:48:46Z</time>
      </trkpt>
      <trkpt lat="45.64214" lon="6.58262">
        <ele>1584</ele>
        <time>2022-07-27T09:48:47Z</time>
      </trkpt>
      <trkpt lat="45.64214" lon="6.58262">
        <ele>1584</ele>
        <time>2022-07-27T09:48:48Z</time>
      </trkpt>
      <trkpt lat="45.64213" lon="6.58261">
        <ele>1584</ele>
        <time>2022-07-27T09:48:49Z</time>
      </trkpt>
      <trkpt lat="45.64213" lon="6.58261">
        <ele>1584</ele>
        <time>2022-07-27T09:48:50Z</time>
      </trkpt>
      <trkpt lat="45.64212" lon="6.5826">
        <ele>1584</ele>
        <time>2022-07-27T09:48:51Z</time>
      </trkpt>
      <trkpt lat="45.64212" lon="6.5826">
        <ele>1584</ele>
        <time>2022-07-27T09:48:52Z</time>
      </trkpt>
      <trkpt lat="45.64211" lon="6.58259">
        <ele>1584</ele>
        <time>2022-07-27T09:48:53Z</time>
      </trkpt>
      <trkpt lat="45.6421" lon="6.58259">
        <ele>1584</ele>
        <time>2022-07-27T09:48:54Z</time>
      </trkpt>
      <trkpt lat="45.64209" lon="6.58258">
        <ele>1584</ele>
        <time>2022-07-27T09:48:55Z</time>
      </trkpt>
      <trkpt lat="45.64208" lon="6.58257">
        <ele>1583</ele>
        <time>2022-07-27T09:48:56Z</time>
      </trkpt>
      <trkpt lat="45.64207" lon="6.58256">
        <ele>1583</ele>
        <time>2022-07-27T09:48:57Z</time>
      </trkpt>
      <trkpt lat="45.64206" lon="6.58255">
        <ele>1583</ele>
        <time>2022-07-27T09:48:58Z</time>
      </trkpt>
      <trkpt lat="45.64204" lon="6.58254">
        <ele>1583</ele>
        <time>2022-07-27T09:48:59Z</time>
      </trkpt>
      <trkpt lat="45.64203" lon="6.58253">
        <ele>1583</ele>
        <time>2022-07-27T09:49:00Z</time>
      </trkpt>
      <trkpt lat="45.64202" lon="6.58251">
        <ele>1583</ele>
        <time>2022-07-27T09:49:01Z</time>
      </trkpt>
      <trkpt lat="45.642" lon="6.5825">
        <ele>1583</ele>
        <time>2022-07-27T09:49:02Z</time>
      </trkpt>
      <trkpt lat="45.64199" lon="6.58249">
        <ele>1583</ele>
        <time>2022-07-27T09:49:03Z</time>
      </trkpt>
      <trkpt lat="45.64198" lon="6.58248">
        <ele>1583</ele>
        <time>2022-07-27T09:49:04Z</time>
      </trkpt>
      <trkpt lat="45.64197" lon="6.58247">
        <ele>1583</ele>
        <time>2022-07-27T09:49:05Z</time>
      </trkpt>
      <trkpt lat="45.64196" lon="6.58246">
        <ele>1583</ele>
        <time>2022-07-27T09:49:06Z</time>
      </trkpt>
      <trkpt lat="45.64195" lon="6.58245">
        <ele>1583</ele>
        <time>2022-07-27T09:49:07Z</time>
      </trkpt>
      <trkpt lat="45.64194" lon="6.58244">
        <ele>1583</ele>
        <time>2022-07-27T09:49:08Z</time>
      </trkpt>
      <trkpt lat="45.64193" lon="6.58243">
        <ele>1583</ele>
        <time>2022-07-27T09:49:09Z</time>
      </trkpt>
      <trkpt lat="45.64192" lon="6.58242">
        <ele>1583</ele>
        <time>2022-07-27T09:49:10Z</time>
      </trkpt>
      <trkpt lat="45.64191" lon="6.58241">
        <ele>1583</ele>
        <time>2022-07-27T09:49:11Z</time>
      </trkpt>
      <trkpt lat="45.6419" lon="6.5824">
        <ele>1583</ele>
        <time>2022-07-27T09:49:12Z</time>
      </trkpt>
      <trkpt lat="45.64188" lon="6.58239">
        <ele>1583</ele>
        <time>2022-07-27T09:49:13Z</time>
      </trkpt>
      <trkpt lat="45.64187" lon="6.58238">
        <ele>1583</ele>
        <time>2022-07-27T09:49:14Z</time>
      </trkpt>
      <trkpt lat="45.64186" lon="6.58236">
        <ele>1583</ele>
        <time>2022-07-27T09:49:15Z</time>
      </trkpt>
      <trkpt lat="45.64184" lon="6.58235">
        <ele>1583</ele>
        <time>2022-07-27T09:49:16Z</time>
      </trkpt>
      <trkpt lat="45.64183" lon="6.58234">
        <ele>1583</ele>
        <time>2022-07-27T09:49:17Z</time>
      </trkpt>
      <trkpt lat="45.64182" lon="6.58233">
        <ele>1583</ele>
        <time>2022-07-27T09:49:18Z</time>
      </trkpt>
      <trkpt lat="45.64181" lon="6.58232">
        <ele>1583</ele>
        <time>2022-07-27T09:49:19Z</time>
      </trkpt>
      <trkpt lat="45.6418" lon="6.58231">
        <ele>1584</ele>
        <time>2022-07-27T09:49:20Z</time>
      </trkpt>
      <trkpt lat="45.64179" lon="6.58229">
        <ele>1585</ele>
        <time>2022-07-27T09:49:39Z</time>
      </trkpt>
      <trkpt lat="45.64178" lon="6.58228">
        <ele>1585</ele>
        <time>2022-07-27T09:49:40Z</time>
      </trkpt>
      <trkpt lat="45.64178" lon="6.58227">
        <ele>1585</ele>
        <time>2022-07-27T09:49:41Z</time>
      </trkpt>
      <trkpt lat="45.64177" lon="6.58227">
        <ele>1585</ele>
        <time>2022-07-27T09:49:42Z</time>
      </trkpt>
      <trkpt lat="45.64177" lon="6.58226">
        <ele>1585</ele>
        <time>2022-07-27T09:49:43Z</time>
      </trkpt>
      <trkpt lat="45.64176" lon="6.58225">
        <ele>1585</ele>
        <time>2022-07-27T09:49:44Z</time>
      </trkpt>
      <trkpt lat="45.64175" lon="6.58224">
        <ele>1585</ele>
        <time>2022-07-27T09:49:45Z</time>
      </trkpt>
      <trkpt lat="45.64174" lon="6.58223">
        <ele>1584</ele>
        <time>2022-07-27T09:49:46Z</time>
      </trkpt>
      <trkpt lat="45.64174" lon="6.58222">
        <ele>1584</ele>
        <time>2022-07-27T09:49:47Z</time>
      </trkpt>
      <trkpt lat="45.64173" lon="6.58221">
        <ele>1584</ele>
        <time>2022-07-27T09:49:48Z</time>
      </trkpt>
      <trkpt lat="45.64172" lon="6.58219">
        <ele>1584</ele>
        <time>2022-07-27T09:49:49Z</time>
      </trkpt>
      <trkpt lat="45.64172" lon="6.58218">
        <ele>1584</ele>
        <time>2022-07-27T09:49:50Z</time>
      </trkpt>
      <trkpt lat="45.64171" lon="6.58217">
        <ele>1584</ele>
        <time>2022-07-27T09:49:51Z</time>
      </trkpt>
      <trkpt lat="45.64171" lon="6.58216">
        <ele>1584</ele>
        <time>2022-07-27T09:50:27Z</time>
      </trkpt>
      <trkpt lat="45.64171" lon="6.58216">
        <ele>1584</ele>
        <time>2022-07-27T09:50:28Z</time>
      </trkpt>
      <trkpt lat="45.64171" lon="6.58215">
        <ele>1584</ele>
        <time>2022-07-27T09:50:29Z</time>
      </trkpt>
      <trkpt lat="45.64171" lon="6.58214">
        <ele>1584</ele>
        <time>2022-07-27T09:50:30Z</time>
      </trkpt>
      <trkpt lat="45.64171" lon="6.58213">
        <ele>1584</ele>
        <time>2022-07-27T09:50:31Z</time>
      </trkpt>
      <trkpt lat="45.64171" lon="6.58211">
        <ele>1584</ele>
        <time>2022-07-27T09:50:32Z</time>
      </trkpt>
      <trkpt lat="45.64171" lon="6.5821">
        <ele>1584</ele>
        <time>2022-07-27T09:50:33Z</time>
      </trkpt>
      <trkpt lat="45.64171" lon="6.58208">
        <ele>1584</ele>
        <time>2022-07-27T09:50:34Z</time>
      </trkpt>
      <trkpt lat="45.64171" lon="6.58206">
        <ele>1584</ele>
        <time>2022-07-27T09:50:35Z</time>
      </trkpt>
      <trkpt lat="45.64171" lon="6.58204">
        <ele>1584</ele>
        <time>2022-07-27T09:50:36Z</time>
      </trkpt>
      <trkpt lat="45.64171" lon="6.58201">
        <ele>1584</ele>
        <time>2022-07-27T09:50:37Z</time>
      </trkpt>
      <trkpt lat="45.64171" lon="6.58199">
        <ele>1584</ele>
        <time>2022-07-27T09:50:38Z</time>
      </trkpt>
      <trkpt lat="45.64171" lon="6.58197">
        <ele>1584</ele>
        <time>2022-07-27T09:50:39Z</time>
      </trkpt>
      <trkpt lat="45.64171" lon="6.58195">
        <ele>1584</ele>
        <time>2022-07-27T09:50:40Z</time>
      </trkpt>
      <trkpt lat="45.64171" lon="6.58193">
        <ele>1584</ele>
        <time>2022-07-27T09:50:41Z</time>
      </trkpt>
      <trkpt lat="45.6417" lon="6.58191">
        <ele>1584</ele>
        <time>2022-07-27T09:50:42Z</time>
      </trkpt>
      <trkpt lat="45.6417" lon="6.58189">
        <ele>1584</ele>
        <time>2022-07-27T09:50:43Z</time>
      </trkpt>
      <trkpt lat="45.64169" lon="6.58188">
        <ele>1584</ele>
        <time>2022-07-27T09:50:44Z</time>
      </trkpt>
      <trkpt lat="45.64169" lon="6.58186">
        <ele>1584</ele>
        <time>2022-07-27T09:50:45Z</time>
      </trkpt>
      <trkpt lat="45.64169" lon="6.58184">
        <ele>1584</ele>
        <time>2022-07-27T09:50:46Z</time>
      </trkpt>
      <trkpt lat="45.64168" lon="6.58182">
        <ele>1584</ele>
        <time>2022-07-27T09:50:47Z</time>
      </trkpt>
      <trkpt lat="45.64168" lon="6.58181">
        <ele>1584</ele>
        <time>2022-07-27T09:50:48Z</time>
      </trkpt>
      <trkpt lat="45.64167" lon="6.58179">
        <ele>1584</ele>
        <time>2022-07-27T09:50:49Z</time>
      </trkpt>
      <trkpt lat="45.64167" lon="6.58178">
        <ele>1584</ele>
        <time>2022-07-27T09:51:00Z</time>
      </trkpt>
      <trkpt lat="45.64167" lon="6.58177">
        <ele>1584</ele>
        <time>2022-07-27T09:51:01Z</time>
      </trkpt>
      <trkpt lat="45.64166" lon="6.58176">
        <ele>1584</ele>
        <time>2022-07-27T09:51:02Z</time>
      </trkpt>
      <trkpt lat="45.64166" lon="6.58175">
        <ele>1584</ele>
        <time>2022-07-27T09:51:03Z</time>
      </trkpt>
      <trkpt lat="45.64166" lon="6.58174">
        <ele>1584</ele>
        <time>2022-07-27T09:51:04Z</time>
      </trkpt>
      <trkpt lat="45.64165" lon="6.58172">
        <ele>1584</ele>
        <time>2022-07-27T09:51:05Z</time>
      </trkpt>
      <trkpt lat="45.64164" lon="6.58171">
        <ele>1584</ele>
        <time>2022-07-27T09:51:06Z</time>
      </trkpt>
      <trkpt lat="45.64164" lon="6.58169">
        <ele>1584</ele>
        <time>2022-07-27T09:51:07Z</time>
      </trkpt>
      <trkpt lat="45.64163" lon="6.58167">
        <ele>1584</ele>
        <time>2022-07-27T09:51:08Z</time>
      </trkpt>
      <trkpt lat="45.64163" lon="6.58166">
        <ele>1584</ele>
        <time>2022-07-27T09:51:09Z</time>
      </trkpt>
      <trkpt lat="45.64163" lon="6.58164">
        <ele>1584</ele>
        <time>2022-07-27T09:51:10Z</time>
      </trkpt>
      <trkpt lat="45.64162" lon="6.58162">
        <ele>1584</ele>
        <time>2022-07-27T09:51:11Z</time>
      </trkpt>
      <trkpt lat="45.64162" lon="6.5816">
        <ele>1584</ele>
        <time>2022-07-27T09:51:12Z</time>
      </trkpt>
      <trkpt lat="45.64162" lon="6.58159">
        <ele>1584</ele>
        <time>2022-07-27T09:51:13Z</time>
      </trkpt>
      <trkpt lat="45.64162" lon="6.58157">
        <ele>1584</ele>
        <time>2022-07-27T09:51:14Z</time>
      </trkpt>
      <trkpt lat="45.64161" lon="6.58156">
        <ele>1584</ele>
        <time>2022-07-27T09:51:15Z</time>
      </trkpt>
      <trkpt lat="45.64161" lon="6.58154">
        <ele>1583</ele>
        <time>2022-07-27T09:51:16Z</time>
      </trkpt>
      <trkpt lat="45.64161" lon="6.58153">
        <ele>1583</ele>
        <time>2022-07-27T09:51:17Z</time>
      </trkpt>
      <trkpt lat="45.64161" lon="6.58151">
        <ele>1583</ele>
        <time>2022-07-27T09:51:18Z</time>
      </trkpt>
      <trkpt lat="45.64161" lon="6.5815">
        <ele>1583</ele>
        <time>2022-07-27T09:51:19Z</time>
      </trkpt>
      <trkpt lat="45.6416" lon="6.58148">
        <ele>1583</ele>
        <time>2022-07-27T09:51:20Z</time>
      </trkpt>
      <trkpt lat="45.6416" lon="6.58147">
        <ele>1583</ele>
        <time>2022-07-27T09:51:21Z</time>
      </trkpt>
      <trkpt lat="45.6416" lon="6.58145">
        <ele>1583</ele>
        <time>2022-07-27T09:51:22Z</time>
      </trkpt>
      <trkpt lat="45.64159" lon="6.58143">
        <ele>1583</ele>
        <time>2022-07-27T09:51:23Z</time>
      </trkpt>
      <trkpt lat="45.64159" lon="6.58142">
        <ele>1583</ele>
        <time>2022-07-27T09:51:24Z</time>
      </trkpt>
      <trkpt lat="45.64159" lon="6.5814">
        <ele>1583</ele>
        <time>2022-07-27T09:51:25Z</time>
      </trkpt>
      <trkpt lat="45.64159" lon="6.58138">
        <ele>1583</ele>
        <time>2022-07-27T09:51:26Z</time>
      </trkpt>
      <trkpt lat="45.64159" lon="6.58136">
        <ele>1583</ele>
        <time>2022-07-27T09:51:27Z</time>
      </trkpt>
      <trkpt lat="45.64159" lon="6.58134">
        <ele>1583</ele>
        <time>2022-07-27T09:51:28Z</time>
      </trkpt>
      <trkpt lat="45.6416" lon="6.58132">
        <ele>1583</ele>
        <time>2022-07-27T09:51:29Z</time>
      </trkpt>
      <trkpt lat="45.6416" lon="6.5813">
        <ele>1583</ele>
        <time>2022-07-27T09:51:30Z</time>
      </trkpt>
      <trkpt lat="45.64161" lon="6.58129">
        <ele>1582</ele>
        <time>2022-07-27T09:51:31Z</time>
      </trkpt>
      <trkpt lat="45.64162" lon="6.58127">
        <ele>1582</ele>
        <time>2022-07-27T09:51:32Z</time>
      </trkpt>
      <trkpt lat="45.64162" lon="6.58125">
        <ele>1582</ele>
        <time>2022-07-27T09:51:33Z</time>
      </trkpt>
      <trkpt lat="45.64163" lon="6.58123">
        <ele>1582</ele>
        <time>2022-07-27T09:51:34Z</time>
      </trkpt>
      <trkpt lat="45.64163" lon="6.58121">
        <ele>1582</ele>
        <time>2022-07-27T09:51:35Z</time>
      </trkpt>
      <trkpt lat="45.64164" lon="6.58119">
        <ele>1582</ele>
        <time>2022-07-27T09:51:36Z</time>
      </trkpt>
      <trkpt lat="45.64164" lon="6.58118">
        <ele>1582</ele>
        <time>2022-07-27T09:51:37Z</time>
      </trkpt>
      <trkpt lat="45.64165" lon="6.58116">
        <ele>1582</ele>
        <time>2022-07-27T09:51:38Z</time>
      </trkpt>
      <trkpt lat="45.64165" lon="6.58115">
        <ele>1582</ele>
        <time>2022-07-27T09:51:39Z</time>
      </trkpt>
      <trkpt lat="45.64166" lon="6.58113">
        <ele>1582</ele>
        <time>2022-07-27T09:51:40Z</time>
      </trkpt>
      <trkpt lat="45.64166" lon="6.58112">
        <ele>1581</ele>
        <time>2022-07-27T09:51:41Z</time>
      </trkpt>
      <trkpt lat="45.64166" lon="6.5811">
        <ele>1581</ele>
        <time>2022-07-27T09:51:42Z</time>
      </trkpt>
      <trkpt lat="45.64167" lon="6.58109">
        <ele>1581</ele>
        <time>2022-07-27T09:51:43Z</time>
      </trkpt>
      <trkpt lat="45.64167" lon="6.58107">
        <ele>1581</ele>
        <time>2022-07-27T09:51:44Z</time>
      </trkpt>
      <trkpt lat="45.64168" lon="6.58106">
        <ele>1581</ele>
        <time>2022-07-27T09:51:45Z</time>
      </trkpt>
      <trkpt lat="45.64168" lon="6.58105">
        <ele>1581</ele>
        <time>2022-07-27T09:51:46Z</time>
      </trkpt>
      <trkpt lat="45.64168" lon="6.58103">
        <ele>1581</ele>
        <time>2022-07-27T09:51:47Z</time>
      </trkpt>
      <trkpt lat="45.64169" lon="6.58101">
        <ele>1581</ele>
        <time>2022-07-27T09:51:48Z</time>
      </trkpt>
      <trkpt lat="45.64169" lon="6.581">
        <ele>1581</ele>
        <time>2022-07-27T09:51:49Z</time>
      </trkpt>
      <trkpt lat="45.6417" lon="6.58098">
        <ele>1581</ele>
        <time>2022-07-27T09:51:50Z</time>
      </trkpt>
      <trkpt lat="45.6417" lon="6.58096">
        <ele>1581</ele>
        <time>2022-07-27T09:51:51Z</time>
      </trkpt>
      <trkpt lat="45.64171" lon="6.58095">
        <ele>1581</ele>
        <time>2022-07-27T09:51:52Z</time>
      </trkpt>
      <trkpt lat="45.64171" lon="6.58093">
        <ele>1581</ele>
        <time>2022-07-27T09:51:53Z</time>
      </trkpt>
      <trkpt lat="45.64171" lon="6.58091">
        <ele>1581</ele>
        <time>2022-07-27T09:51:54Z</time>
      </trkpt>
      <trkpt lat="45.64172" lon="6.58089">
        <ele>1581</ele>
        <time>2022-07-27T09:51:55Z</time>
      </trkpt>
      <trkpt lat="45.64172" lon="6.58088">
        <ele>1581</ele>
        <time>2022-07-27T09:51:56Z</time>
      </trkpt>
      <trkpt lat="45.64173" lon="6.58086">
        <ele>1581</ele>
        <time>2022-07-27T09:51:57Z</time>
      </trkpt>
      <trkpt lat="45.64174" lon="6.58084">
        <ele>1581</ele>
        <time>2022-07-27T09:51:58Z</time>
      </trkpt>
      <trkpt lat="45.64174" lon="6.58082">
        <ele>1581</ele>
        <time>2022-07-27T09:51:59Z</time>
      </trkpt>
      <trkpt lat="45.64175" lon="6.58081">
        <ele>1581</ele>
        <time>2022-07-27T09:52:00Z</time>
      </trkpt>
      <trkpt lat="45.64176" lon="6.58079">
        <ele>1581</ele>
        <time>2022-07-27T09:52:01Z</time>
      </trkpt>
      <trkpt lat="45.64176" lon="6.58078">
        <ele>1581</ele>
        <time>2022-07-27T09:52:02Z</time>
      </trkpt>
      <trkpt lat="45.64177" lon="6.58076">
        <ele>1581</ele>
        <time>2022-07-27T09:52:03Z</time>
      </trkpt>
      <trkpt lat="45.64178" lon="6.58075">
        <ele>1581</ele>
        <time>2022-07-27T09:52:04Z</time>
      </trkpt>
      <trkpt lat="45.64179" lon="6.58073">
        <ele>1581</ele>
        <time>2022-07-27T09:52:05Z</time>
      </trkpt>
      <trkpt lat="45.64179" lon="6.58072">
        <ele>1581</ele>
        <time>2022-07-27T09:52:06Z</time>
      </trkpt>
      <trkpt lat="45.6418" lon="6.5807">
        <ele>1581</ele>
        <time>2022-07-27T09:52:07Z</time>
      </trkpt>
      <trkpt lat="45.6418" lon="6.58069">
        <ele>1581</ele>
        <time>2022-07-27T09:52:08Z</time>
      </trkpt>
      <trkpt lat="45.64181" lon="6.58067">
        <ele>1581</ele>
        <time>2022-07-27T09:52:09Z</time>
      </trkpt>
      <trkpt lat="45.64181" lon="6.58066">
        <ele>1581</ele>
        <time>2022-07-27T09:52:10Z</time>
      </trkpt>
      <trkpt lat="45.64182" lon="6.58064">
        <ele>1581</ele>
        <time>2022-07-27T09:52:11Z</time>
      </trkpt>
      <trkpt lat="45.64183" lon="6.58063">
        <ele>1581</ele>
        <time>2022-07-27T09:52:12Z</time>
      </trkpt>
      <trkpt lat="45.64184" lon="6.58062">
        <ele>1581</ele>
        <time>2022-07-27T09:52:13Z</time>
      </trkpt>
      <trkpt lat="45.64185" lon="6.58061">
        <ele>1581</ele>
        <time>2022-07-27T09:52:14Z</time>
      </trkpt>
      <trkpt lat="45.64186" lon="6.5806">
        <ele>1581</ele>
        <time>2022-07-27T09:52:15Z</time>
      </trkpt>
      <trkpt lat="45.64187" lon="6.58058">
        <ele>1580</ele>
        <time>2022-07-27T09:52:16Z</time>
      </trkpt>
      <trkpt lat="45.64187" lon="6.58057">
        <ele>1580</ele>
        <time>2022-07-27T09:52:17Z</time>
      </trkpt>
      <trkpt lat="45.64188" lon="6.58056">
        <ele>1580</ele>
        <time>2022-07-27T09:52:18Z</time>
      </trkpt>
      <trkpt lat="45.64189" lon="6.58055">
        <ele>1580</ele>
        <time>2022-07-27T09:52:19Z</time>
      </trkpt>
      <trkpt lat="45.64189" lon="6.58054">
        <ele>1580</ele>
        <time>2022-07-27T09:52:20Z</time>
      </trkpt>
      <trkpt lat="45.6419" lon="6.58052">
        <ele>1580</ele>
        <time>2022-07-27T09:52:21Z</time>
      </trkpt>
      <trkpt lat="45.64191" lon="6.58051">
        <ele>1580</ele>
        <time>2022-07-27T09:52:22Z</time>
      </trkpt>
      <trkpt lat="45.64191" lon="6.58049">
        <ele>1580</ele>
        <time>2022-07-27T09:52:23Z</time>
      </trkpt>
      <trkpt lat="45.64192" lon="6.58048">
        <ele>1580</ele>
        <time>2022-07-27T09:52:24Z</time>
      </trkpt>
      <trkpt lat="45.64193" lon="6.58047">
        <ele>1580</ele>
        <time>2022-07-27T09:52:25Z</time>
      </trkpt>
      <trkpt lat="45.64194" lon="6.58045">
        <ele>1580</ele>
        <time>2022-07-27T09:52:26Z</time>
      </trkpt>
      <trkpt lat="45.64194" lon="6.58044">
        <ele>1580</ele>
        <time>2022-07-27T09:52:27Z</time>
      </trkpt>
      <trkpt lat="45.64195" lon="6.58043">
        <ele>1580</ele>
        <time>2022-07-27T09:52:28Z</time>
      </trkpt>
      <trkpt lat="45.64196" lon="6.58041">
        <ele>1580</ele>
        <time>2022-07-27T09:52:29Z</time>
      </trkpt>
      <trkpt lat="45.64197" lon="6.5804">
        <ele>1580</ele>
        <time>2022-07-27T09:52:30Z</time>
      </trkpt>
      <trkpt lat="45.64198" lon="6.58039">
        <ele>1580</ele>
        <time>2022-07-27T09:52:31Z</time>
      </trkpt>
      <trkpt lat="45.64199" lon="6.58038">
        <ele>1580</ele>
        <time>2022-07-27T09:52:32Z</time>
      </trkpt>
      <trkpt lat="45.642" lon="6.58036">
        <ele>1580</ele>
        <time>2022-07-27T09:52:33Z</time>
      </trkpt>
      <trkpt lat="45.642" lon="6.58035">
        <ele>1580</ele>
        <time>2022-07-27T09:52:34Z</time>
      </trkpt>
      <trkpt lat="45.64201" lon="6.58033">
        <ele>1580</ele>
        <time>2022-07-27T09:52:35Z</time>
      </trkpt>
      <trkpt lat="45.64201" lon="6.58031">
        <ele>1580</ele>
        <time>2022-07-27T09:52:36Z</time>
      </trkpt>
      <trkpt lat="45.64201" lon="6.58029">
        <ele>1580</ele>
        <time>2022-07-27T09:52:37Z</time>
      </trkpt>
      <trkpt lat="45.64201" lon="6.58027">
        <ele>1580</ele>
        <time>2022-07-27T09:52:38Z</time>
      </trkpt>
      <trkpt lat="45.64201" lon="6.58025">
        <ele>1580</ele>
        <time>2022-07-27T09:52:39Z</time>
      </trkpt>
      <trkpt lat="45.64201" lon="6.58024">
        <ele>1581</ele>
        <time>2022-07-27T09:52:40Z</time>
      </trkpt>
      <trkpt lat="45.64202" lon="6.58022">
        <ele>1581</ele>
        <time>2022-07-27T09:52:41Z</time>
      </trkpt>
      <trkpt lat="45.64202" lon="6.5802">
        <ele>1581</ele>
        <time>2022-07-27T09:52:42Z</time>
      </trkpt>
      <trkpt lat="45.64202" lon="6.58019">
        <ele>1581</ele>
        <time>2022-07-27T09:52:43Z</time>
      </trkpt>
      <trkpt lat="45.64202" lon="6.58017">
        <ele>1581</ele>
        <time>2022-07-27T09:52:44Z</time>
      </trkpt>
      <trkpt lat="45.64203" lon="6.58016">
        <ele>1581</ele>
        <time>2022-07-27T09:52:45Z</time>
      </trkpt>
      <trkpt lat="45.64203" lon="6.58014">
        <ele>1581</ele>
        <time>2022-07-27T09:52:46Z</time>
      </trkpt>
      <trkpt lat="45.64203" lon="6.58013">
        <ele>1581</ele>
        <time>2022-07-27T09:52:47Z</time>
      </trkpt>
      <trkpt lat="45.64202" lon="6.58011">
        <ele>1581</ele>
        <time>2022-07-27T09:52:48Z</time>
      </trkpt>
      <trkpt lat="45.64202" lon="6.5801">
        <ele>1581</ele>
        <time>2022-07-27T09:52:49Z</time>
      </trkpt>
      <trkpt lat="45.64202" lon="6.58009">
        <ele>1581</ele>
        <time>2022-07-27T09:52:50Z</time>
      </trkpt>
      <trkpt lat="45.64202" lon="6.58007">
        <ele>1581</ele>
        <time>2022-07-27T09:52:51Z</time>
      </trkpt>
      <trkpt lat="45.64201" lon="6.58006">
        <ele>1581</ele>
        <time>2022-07-27T09:52:52Z</time>
      </trkpt>
      <trkpt lat="45.64201" lon="6.58004">
        <ele>1581</ele>
        <time>2022-07-27T09:52:53Z</time>
      </trkpt>
      <trkpt lat="45.64201" lon="6.58002">
        <ele>1581</ele>
        <time>2022-07-27T09:52:54Z</time>
      </trkpt>
      <trkpt lat="45.642" lon="6.58001">
        <ele>1581</ele>
        <time>2022-07-27T09:52:55Z</time>
      </trkpt>
      <trkpt lat="45.642" lon="6.57999">
        <ele>1581</ele>
        <time>2022-07-27T09:52:56Z</time>
      </trkpt>
      <trkpt lat="45.642" lon="6.57998">
        <ele>1581</ele>
        <time>2022-07-27T09:52:57Z</time>
      </trkpt>
      <trkpt lat="45.642" lon="6.57996">
        <ele>1581</ele>
        <time>2022-07-27T09:52:58Z</time>
      </trkpt>
      <trkpt lat="45.64199" lon="6.57995">
        <ele>1581</ele>
        <time>2022-07-27T09:52:59Z</time>
      </trkpt>
      <trkpt lat="45.64199" lon="6.57993">
        <ele>1581</ele>
        <time>2022-07-27T09:53:00Z</time>
      </trkpt>
      <trkpt lat="45.64199" lon="6.57992">
        <ele>1581</ele>
        <time>2022-07-27T09:53:01Z</time>
      </trkpt>
      <trkpt lat="45.64198" lon="6.5799">
        <ele>1581</ele>
        <time>2022-07-27T09:53:02Z</time>
      </trkpt>
      <trkpt lat="45.64198" lon="6.57989">
        <ele>1581</ele>
        <time>2022-07-27T09:53:03Z</time>
      </trkpt>
      <trkpt lat="45.64197" lon="6.57987">
        <ele>1581</ele>
        <time>2022-07-27T09:53:04Z</time>
      </trkpt>
      <trkpt lat="45.64196" lon="6.57986">
        <ele>1581</ele>
        <time>2022-07-27T09:53:05Z</time>
      </trkpt>
      <trkpt lat="45.64196" lon="6.57984">
        <ele>1581</ele>
        <time>2022-07-27T09:53:06Z</time>
      </trkpt>
      <trkpt lat="45.64195" lon="6.57983">
        <ele>1581</ele>
        <time>2022-07-27T09:53:07Z</time>
      </trkpt>
      <trkpt lat="45.64195" lon="6.57981">
        <ele>1581</ele>
        <time>2022-07-27T09:53:08Z</time>
      </trkpt>
      <trkpt lat="45.64194" lon="6.57979">
        <ele>1581</ele>
        <time>2022-07-27T09:53:09Z</time>
      </trkpt>
      <trkpt lat="45.64193" lon="6.57978">
        <ele>1581</ele>
        <time>2022-07-27T09:53:10Z</time>
      </trkpt>
      <trkpt lat="45.64193" lon="6.57976">
        <ele>1581</ele>
        <time>2022-07-27T09:53:11Z</time>
      </trkpt>
      <trkpt lat="45.64192" lon="6.57974">
        <ele>1581</ele>
        <time>2022-07-27T09:53:12Z</time>
      </trkpt>
      <trkpt lat="45.64192" lon="6.57973">
        <ele>1581</ele>
        <time>2022-07-27T09:53:13Z</time>
      </trkpt>
      <trkpt lat="45.64191" lon="6.57971">
        <ele>1581</ele>
        <time>2022-07-27T09:53:14Z</time>
      </trkpt>
      <trkpt lat="45.64191" lon="6.57969">
        <ele>1581</ele>
        <time>2022-07-27T09:53:15Z</time>
      </trkpt>
      <trkpt lat="45.64191" lon="6.57968">
        <ele>1581</ele>
        <time>2022-07-27T09:53:16Z</time>
      </trkpt>
      <trkpt lat="45.64192" lon="6.57966">
        <ele>1581</ele>
        <time>2022-07-27T09:53:17Z</time>
      </trkpt>
      <trkpt lat="45.64192" lon="6.57965">
        <ele>1581</ele>
        <time>2022-07-27T09:53:18Z</time>
      </trkpt>
      <trkpt lat="45.64193" lon="6.57963">
        <ele>1581</ele>
        <time>2022-07-27T09:53:19Z</time>
      </trkpt>
      <trkpt lat="45.64194" lon="6.57962">
        <ele>1581</ele>
        <time>2022-07-27T09:53:20Z</time>
      </trkpt>
      <trkpt lat="45.64195" lon="6.57961">
        <ele>1581</ele>
        <time>2022-07-27T09:53:21Z</time>
      </trkpt>
      <trkpt lat="45.64196" lon="6.57959">
        <ele>1581</ele>
        <time>2022-07-27T09:53:22Z</time>
      </trkpt>
      <trkpt lat="45.64197" lon="6.57958">
        <ele>1581</ele>
        <time>2022-07-27T09:53:23Z</time>
      </trkpt>
      <trkpt lat="45.64197" lon="6.57957">
        <ele>1581</ele>
        <time>2022-07-27T09:53:24Z</time>
      </trkpt>
      <trkpt lat="45.64198" lon="6.57955">
        <ele>1581</ele>
        <time>2022-07-27T09:53:25Z</time>
      </trkpt>
      <trkpt lat="45.64199" lon="6.57954">
        <ele>1581</ele>
        <time>2022-07-27T09:53:26Z</time>
      </trkpt>
      <trkpt lat="45.64199" lon="6.57952">
        <ele>1581</ele>
        <time>2022-07-27T09:53:27Z</time>
      </trkpt>
      <trkpt lat="45.642" lon="6.5795">
        <ele>1581</ele>
        <time>2022-07-27T09:53:28Z</time>
      </trkpt>
      <trkpt lat="45.642" lon="6.57948">
        <ele>1581</ele>
        <time>2022-07-27T09:53:29Z</time>
      </trkpt>
      <trkpt lat="45.642" lon="6.57947">
        <ele>1581</ele>
        <time>2022-07-27T09:53:30Z</time>
      </trkpt>
      <trkpt lat="45.642" lon="6.57945">
        <ele>1581</ele>
        <time>2022-07-27T09:53:31Z</time>
      </trkpt>
      <trkpt lat="45.64199" lon="6.57943">
        <ele>1581</ele>
        <time>2022-07-27T09:53:32Z</time>
      </trkpt>
      <trkpt lat="45.64199" lon="6.57941">
        <ele>1581</ele>
        <time>2022-07-27T09:53:33Z</time>
      </trkpt>
      <trkpt lat="45.64199" lon="6.57939">
        <ele>1581</ele>
        <time>2022-07-27T09:53:34Z</time>
      </trkpt>
      <trkpt lat="45.64198" lon="6.57937">
        <ele>1581</ele>
        <time>2022-07-27T09:53:35Z</time>
      </trkpt>
      <trkpt lat="45.64197" lon="6.57935">
        <ele>1581</ele>
        <time>2022-07-27T09:53:36Z</time>
      </trkpt>
      <trkpt lat="45.64196" lon="6.57934">
        <ele>1581</ele>
        <time>2022-07-27T09:53:37Z</time>
      </trkpt>
      <trkpt lat="45.64195" lon="6.57932">
        <ele>1581</ele>
        <time>2022-07-27T09:53:38Z</time>
      </trkpt>
      <trkpt lat="45.64194" lon="6.5793">
        <ele>1581</ele>
        <time>2022-07-27T09:53:39Z</time>
      </trkpt>
      <trkpt lat="45.64193" lon="6.57929">
        <ele>1581</ele>
        <time>2022-07-27T09:53:40Z</time>
      </trkpt>
      <trkpt lat="45.64192" lon="6.57927">
        <ele>1581</ele>
        <time>2022-07-27T09:53:41Z</time>
      </trkpt>
      <trkpt lat="45.64191" lon="6.57926">
        <ele>1581</ele>
        <time>2022-07-27T09:53:42Z</time>
      </trkpt>
      <trkpt lat="45.6419" lon="6.57924">
        <ele>1581</ele>
        <time>2022-07-27T09:53:43Z</time>
      </trkpt>
      <trkpt lat="45.64189" lon="6.57923">
        <ele>1581</ele>
        <time>2022-07-27T09:53:44Z</time>
      </trkpt>
      <trkpt lat="45.64189" lon="6.57921">
        <ele>1581</ele>
        <time>2022-07-27T09:53:45Z</time>
      </trkpt>
      <trkpt lat="45.64188" lon="6.57919">
        <ele>1581</ele>
        <time>2022-07-27T09:53:46Z</time>
      </trkpt>
      <trkpt lat="45.64187" lon="6.57918">
        <ele>1581</ele>
        <time>2022-07-27T09:53:47Z</time>
      </trkpt>
      <trkpt lat="45.64187" lon="6.57916">
        <ele>1581</ele>
        <time>2022-07-27T09:53:48Z</time>
      </trkpt>
      <trkpt lat="45.64187" lon="6.57914">
        <ele>1581</ele>
        <time>2022-07-27T09:53:49Z</time>
      </trkpt>
      <trkpt lat="45.64186" lon="6.57913">
        <ele>1581</ele>
        <time>2022-07-27T09:53:50Z</time>
      </trkpt>
      <trkpt lat="45.64186" lon="6.57911">
        <ele>1581</ele>
        <time>2022-07-27T09:53:51Z</time>
      </trkpt>
      <trkpt lat="45.64186" lon="6.57909">
        <ele>1581</ele>
        <time>2022-07-27T09:53:52Z</time>
      </trkpt>
      <trkpt lat="45.64186" lon="6.57907">
        <ele>1581</ele>
        <time>2022-07-27T09:53:53Z</time>
      </trkpt>
      <trkpt lat="45.64186" lon="6.57905">
        <ele>1581</ele>
        <time>2022-07-27T09:53:54Z</time>
      </trkpt>
      <trkpt lat="45.64185" lon="6.57904">
        <ele>1581</ele>
        <time>2022-07-27T09:53:55Z</time>
      </trkpt>
      <trkpt lat="45.64185" lon="6.57902">
        <ele>1580</ele>
        <time>2022-07-27T09:53:56Z</time>
      </trkpt>
      <trkpt lat="45.64185" lon="6.579">
        <ele>1580</ele>
        <time>2022-07-27T09:53:57Z</time>
      </trkpt>
      <trkpt lat="45.64185" lon="6.57898">
        <ele>1580</ele>
        <time>2022-07-27T09:53:58Z</time>
      </trkpt>
      <trkpt lat="45.64185" lon="6.57897">
        <ele>1580</ele>
        <time>2022-07-27T09:53:59Z</time>
      </trkpt>
      <trkpt lat="45.64184" lon="6.57895">
        <ele>1580</ele>
        <time>2022-07-27T09:54:00Z</time>
      </trkpt>
      <trkpt lat="45.64184" lon="6.57893">
        <ele>1580</ele>
        <time>2022-07-27T09:54:01Z</time>
      </trkpt>
      <trkpt lat="45.64184" lon="6.57891">
        <ele>1580</ele>
        <time>2022-07-27T09:54:02Z</time>
      </trkpt>
      <trkpt lat="45.64184" lon="6.5789">
        <ele>1580</ele>
        <time>2022-07-27T09:54:03Z</time>
      </trkpt>
      <trkpt lat="45.64183" lon="6.57888">
        <ele>1580</ele>
        <time>2022-07-27T09:54:04Z</time>
      </trkpt>
      <trkpt lat="45.64183" lon="6.57886">
        <ele>1580</ele>
        <time>2022-07-27T09:54:05Z</time>
      </trkpt>
      <trkpt lat="45.64183" lon="6.57884">
        <ele>1580</ele>
        <time>2022-07-27T09:54:06Z</time>
      </trkpt>
      <trkpt lat="45.64182" lon="6.57882">
        <ele>1580</ele>
        <time>2022-07-27T09:54:07Z</time>
      </trkpt>
      <trkpt lat="45.64182" lon="6.57881">
        <ele>1580</ele>
        <time>2022-07-27T09:54:08Z</time>
      </trkpt>
      <trkpt lat="45.64182" lon="6.57879">
        <ele>1580</ele>
        <time>2022-07-27T09:54:09Z</time>
      </trkpt>
      <trkpt lat="45.64182" lon="6.57878">
        <ele>1580</ele>
        <time>2022-07-27T09:54:10Z</time>
      </trkpt>
      <trkpt lat="45.64182" lon="6.57876">
        <ele>1580</ele>
        <time>2022-07-27T09:54:11Z</time>
      </trkpt>
      <trkpt lat="45.64182" lon="6.57875">
        <ele>1580</ele>
        <time>2022-07-27T09:54:12Z</time>
      </trkpt>
      <trkpt lat="45.64181" lon="6.57873">
        <ele>1580</ele>
        <time>2022-07-27T09:54:13Z</time>
      </trkpt>
      <trkpt lat="45.64181" lon="6.57872">
        <ele>1580</ele>
        <time>2022-07-27T09:54:14Z</time>
      </trkpt>
      <trkpt lat="45.64181" lon="6.5787">
        <ele>1580</ele>
        <time>2022-07-27T09:54:15Z</time>
      </trkpt>
      <trkpt lat="45.6418" lon="6.57868">
        <ele>1580</ele>
        <time>2022-07-27T09:54:16Z</time>
      </trkpt>
      <trkpt lat="45.64179" lon="6.57867">
        <ele>1580</ele>
        <time>2022-07-27T09:54:17Z</time>
      </trkpt>
      <trkpt lat="45.64178" lon="6.57866">
        <ele>1580</ele>
        <time>2022-07-27T09:54:18Z</time>
      </trkpt>
      <trkpt lat="45.64178" lon="6.57864">
        <ele>1580</ele>
        <time>2022-07-27T09:54:19Z</time>
      </trkpt>
      <trkpt lat="45.64177" lon="6.57863">
        <ele>1580</ele>
        <time>2022-07-27T09:54:20Z</time>
      </trkpt>
      <trkpt lat="45.64176" lon="6.57861">
        <ele>1580</ele>
        <time>2022-07-27T09:54:21Z</time>
      </trkpt>
      <trkpt lat="45.64175" lon="6.5786">
        <ele>1580</ele>
        <time>2022-07-27T09:54:22Z</time>
      </trkpt>
      <trkpt lat="45.64174" lon="6.57858">
        <ele>1580</ele>
        <time>2022-07-27T09:54:23Z</time>
      </trkpt>
      <trkpt lat="45.64173" lon="6.57857">
        <ele>1580</ele>
        <time>2022-07-27T09:54:24Z</time>
      </trkpt>
      <trkpt lat="45.64172" lon="6.57855">
        <ele>1580</ele>
        <time>2022-07-27T09:54:25Z</time>
      </trkpt>
      <trkpt lat="45.64172" lon="6.57854">
        <ele>1580</ele>
        <time>2022-07-27T09:54:26Z</time>
      </trkpt>
      <trkpt lat="45.64171" lon="6.57852">
        <ele>1580</ele>
        <time>2022-07-27T09:54:27Z</time>
      </trkpt>
      <trkpt lat="45.6417" lon="6.57851">
        <ele>1580</ele>
        <time>2022-07-27T09:54:28Z</time>
      </trkpt>
      <trkpt lat="45.6417" lon="6.5785">
        <ele>1580</ele>
        <time>2022-07-27T09:54:29Z</time>
      </trkpt>
      <trkpt lat="45.64169" lon="6.57848">
        <ele>1580</ele>
        <time>2022-07-27T09:54:30Z</time>
      </trkpt>
      <trkpt lat="45.64169" lon="6.57847">
        <ele>1580</ele>
        <time>2022-07-27T09:54:31Z</time>
      </trkpt>
      <trkpt lat="45.64168" lon="6.57845">
        <ele>1580</ele>
        <time>2022-07-27T09:54:32Z</time>
      </trkpt>
      <trkpt lat="45.64168" lon="6.57844">
        <ele>1580</ele>
        <time>2022-07-27T09:54:33Z</time>
      </trkpt>
      <trkpt lat="45.64167" lon="6.57842">
        <ele>1580</ele>
        <time>2022-07-27T09:54:34Z</time>
      </trkpt>
      <trkpt lat="45.64167" lon="6.57841">
        <ele>1580</ele>
        <time>2022-07-27T09:54:35Z</time>
      </trkpt>
      <trkpt lat="45.64166" lon="6.57839">
        <ele>1580</ele>
        <time>2022-07-27T09:54:36Z</time>
      </trkpt>
      <trkpt lat="45.64166" lon="6.57838">
        <ele>1580</ele>
        <time>2022-07-27T09:54:37Z</time>
      </trkpt>
      <trkpt lat="45.64165" lon="6.57837">
        <ele>1580</ele>
        <time>2022-07-27T09:54:38Z</time>
      </trkpt>
      <trkpt lat="45.64165" lon="6.57835">
        <ele>1580</ele>
        <time>2022-07-27T09:54:39Z</time>
      </trkpt>
      <trkpt lat="45.64164" lon="6.57833">
        <ele>1580</ele>
        <time>2022-07-27T09:54:40Z</time>
      </trkpt>
      <trkpt lat="45.64164" lon="6.57832">
        <ele>1580</ele>
        <time>2022-07-27T09:54:41Z</time>
      </trkpt>
      <trkpt lat="45.64163" lon="6.5783">
        <ele>1580</ele>
        <time>2022-07-27T09:54:42Z</time>
      </trkpt>
      <trkpt lat="45.64162" lon="6.57829">
        <ele>1580</ele>
        <time>2022-07-27T09:54:43Z</time>
      </trkpt>
      <trkpt lat="45.64162" lon="6.57827">
        <ele>1580</ele>
        <time>2022-07-27T09:54:44Z</time>
      </trkpt>
      <trkpt lat="45.64162" lon="6.57825">
        <ele>1580</ele>
        <time>2022-07-27T09:54:45Z</time>
      </trkpt>
      <trkpt lat="45.64161" lon="6.57824">
        <ele>1580</ele>
        <time>2022-07-27T09:54:46Z</time>
      </trkpt>
      <trkpt lat="45.64161" lon="6.57822">
        <ele>1580</ele>
        <time>2022-07-27T09:54:47Z</time>
      </trkpt>
      <trkpt lat="45.64161" lon="6.5782">
        <ele>1580</ele>
        <time>2022-07-27T09:54:48Z</time>
      </trkpt>
      <trkpt lat="45.64161" lon="6.57819">
        <ele>1580</ele>
        <time>2022-07-27T09:54:49Z</time>
      </trkpt>
      <trkpt lat="45.64161" lon="6.57817">
        <ele>1580</ele>
        <time>2022-07-27T09:54:50Z</time>
      </trkpt>
      <trkpt lat="45.6416" lon="6.57815">
        <ele>1580</ele>
        <time>2022-07-27T09:54:51Z</time>
      </trkpt>
      <trkpt lat="45.6416" lon="6.57814">
        <ele>1580</ele>
        <time>2022-07-27T09:54:52Z</time>
      </trkpt>
      <trkpt lat="45.6416" lon="6.57813">
        <ele>1580</ele>
        <time>2022-07-27T09:54:53Z</time>
      </trkpt>
      <trkpt lat="45.6416" lon="6.57813">
        <ele>1580</ele>
        <time>2022-07-27T09:54:54Z</time>
      </trkpt>
      <trkpt lat="45.6416" lon="6.57812">
        <ele>1580</ele>
        <time>2022-07-27T09:54:55Z</time>
      </trkpt>
      <trkpt lat="45.6416" lon="6.57811">
        <ele>1580</ele>
        <time>2022-07-27T09:54:56Z</time>
      </trkpt>
      <trkpt lat="45.6416" lon="6.57811">
        <ele>1580</ele>
        <time>2022-07-27T09:54:57Z</time>
      </trkpt>
      <trkpt lat="45.6416" lon="6.5781">
        <ele>1580</ele>
        <time>2022-07-27T09:54:58Z</time>
      </trkpt>
      <trkpt lat="45.6416" lon="6.57809">
        <ele>1580</ele>
        <time>2022-07-27T09:54:59Z</time>
      </trkpt>
      <trkpt lat="45.6416" lon="6.57808">
        <ele>1580</ele>
        <time>2022-07-27T09:55:00Z</time>
      </trkpt>
      <trkpt lat="45.6416" lon="6.57806">
        <ele>1580</ele>
        <time>2022-07-27T09:55:01Z</time>
      </trkpt>
      <trkpt lat="45.6416" lon="6.57805">
        <ele>1580</ele>
        <time>2022-07-27T09:55:02Z</time>
      </trkpt>
      <trkpt lat="45.6416" lon="6.57803">
        <ele>1580</ele>
        <time>2022-07-27T09:55:03Z</time>
      </trkpt>
      <trkpt lat="45.64159" lon="6.57802">
        <ele>1580</ele>
        <time>2022-07-27T09:55:04Z</time>
      </trkpt>
      <trkpt lat="45.64159" lon="6.578">
        <ele>1580</ele>
        <time>2022-07-27T09:55:05Z</time>
      </trkpt>
      <trkpt lat="45.64158" lon="6.57798">
        <ele>1580</ele>
        <time>2022-07-27T09:55:06Z</time>
      </trkpt>
      <trkpt lat="45.64158" lon="6.57797">
        <ele>1580</ele>
        <time>2022-07-27T09:55:07Z</time>
      </trkpt>
      <trkpt lat="45.64157" lon="6.57795">
        <ele>1580</ele>
        <time>2022-07-27T09:55:08Z</time>
      </trkpt>
      <trkpt lat="45.64157" lon="6.57794">
        <ele>1580</ele>
        <time>2022-07-27T09:55:09Z</time>
      </trkpt>
      <trkpt lat="45.64156" lon="6.57792">
        <ele>1580</ele>
        <time>2022-07-27T09:55:10Z</time>
      </trkpt>
      <trkpt lat="45.64156" lon="6.57791">
        <ele>1580</ele>
        <time>2022-07-27T09:55:11Z</time>
      </trkpt>
      <trkpt lat="45.64155" lon="6.5779">
        <ele>1580</ele>
        <time>2022-07-27T09:55:12Z</time>
      </trkpt>
      <trkpt lat="45.64154" lon="6.57788">
        <ele>1580</ele>
        <time>2022-07-27T09:55:13Z</time>
      </trkpt>
      <trkpt lat="45.64153" lon="6.57787">
        <ele>1580</ele>
        <time>2022-07-27T09:55:14Z</time>
      </trkpt>
      <trkpt lat="45.64153" lon="6.57786">
        <ele>1580</ele>
        <time>2022-07-27T09:55:15Z</time>
      </trkpt>
      <trkpt lat="45.64152" lon="6.57784">
        <ele>1580</ele>
        <time>2022-07-27T09:55:16Z</time>
      </trkpt>
      <trkpt lat="45.64151" lon="6.57783">
        <ele>1580</ele>
        <time>2022-07-27T09:55:17Z</time>
      </trkpt>
      <trkpt lat="45.6415" lon="6.57782">
        <ele>1580</ele>
        <time>2022-07-27T09:55:18Z</time>
      </trkpt>
      <trkpt lat="45.64149" lon="6.5778">
        <ele>1580</ele>
        <time>2022-07-27T09:55:19Z</time>
      </trkpt>
      <trkpt lat="45.64149" lon="6.57779">
        <ele>1580</ele>
        <time>2022-07-27T09:55:20Z</time>
      </trkpt>
      <trkpt lat="45.64148" lon="6.57777">
        <ele>1580</ele>
        <time>2022-07-27T09:55:21Z</time>
      </trkpt>
      <trkpt lat="45.64148" lon="6.57776">
        <ele>1580</ele>
        <time>2022-07-27T09:55:22Z</time>
      </trkpt>
      <trkpt lat="45.64147" lon="6.57774">
        <ele>1580</ele>
        <time>2022-07-27T09:55:23Z</time>
      </trkpt>
      <trkpt lat="45.64147" lon="6.57773">
        <ele>1580</ele>
        <time>2022-07-27T09:55:24Z</time>
      </trkpt>
      <trkpt lat="45.64146" lon="6.57772">
        <ele>1580</ele>
        <time>2022-07-27T09:55:25Z</time>
      </trkpt>
      <trkpt lat="45.64146" lon="6.5777">
        <ele>1580</ele>
        <time>2022-07-27T09:55:26Z</time>
      </trkpt>
      <trkpt lat="45.64146" lon="6.57768">
        <ele>1580</ele>
        <time>2022-07-27T09:55:27Z</time>
      </trkpt>
      <trkpt lat="45.64146" lon="6.57767">
        <ele>1580</ele>
        <time>2022-07-27T09:55:28Z</time>
      </trkpt>
      <trkpt lat="45.64146" lon="6.57765">
        <ele>1580</ele>
        <time>2022-07-27T09:55:29Z</time>
      </trkpt>
      <trkpt lat="45.64146" lon="6.57764">
        <ele>1581</ele>
        <time>2022-07-27T09:55:30Z</time>
      </trkpt>
      <trkpt lat="45.64146" lon="6.57762">
        <ele>1580</ele>
        <time>2022-07-27T09:55:31Z</time>
      </trkpt>
      <trkpt lat="45.64146" lon="6.5776">
        <ele>1580</ele>
        <time>2022-07-27T09:55:32Z</time>
      </trkpt>
      <trkpt lat="45.64146" lon="6.57759">
        <ele>1580</ele>
        <time>2022-07-27T09:55:33Z</time>
      </trkpt>
      <trkpt lat="45.64146" lon="6.57757">
        <ele>1580</ele>
        <time>2022-07-27T09:55:34Z</time>
      </trkpt>
      <trkpt lat="45.64146" lon="6.57755">
        <ele>1580</ele>
        <time>2022-07-27T09:55:35Z</time>
      </trkpt>
      <trkpt lat="45.64145" lon="6.57754">
        <ele>1580</ele>
        <time>2022-07-27T09:55:36Z</time>
      </trkpt>
      <trkpt lat="45.64145" lon="6.57752">
        <ele>1580</ele>
        <time>2022-07-27T09:55:37Z</time>
      </trkpt>
      <trkpt lat="45.64145" lon="6.5775">
        <ele>1580</ele>
        <time>2022-07-27T09:55:38Z</time>
      </trkpt>
      <trkpt lat="45.64145" lon="6.57749">
        <ele>1580</ele>
        <time>2022-07-27T09:55:39Z</time>
      </trkpt>
      <trkpt lat="45.64145" lon="6.57747">
        <ele>1580</ele>
        <time>2022-07-27T09:55:40Z</time>
      </trkpt>
      <trkpt lat="45.64146" lon="6.57745">
        <ele>1580</ele>
        <time>2022-07-27T09:55:41Z</time>
      </trkpt>
      <trkpt lat="45.64146" lon="6.57744">
        <ele>1580</ele>
        <time>2022-07-27T09:55:42Z</time>
      </trkpt>
      <trkpt lat="45.64146" lon="6.57742">
        <ele>1580</ele>
        <time>2022-07-27T09:55:43Z</time>
      </trkpt>
      <trkpt lat="45.64146" lon="6.5774">
        <ele>1580</ele>
        <time>2022-07-27T09:55:44Z</time>
      </trkpt>
      <trkpt lat="45.64146" lon="6.57738">
        <ele>1580</ele>
        <time>2022-07-27T09:55:45Z</time>
      </trkpt>
      <trkpt lat="45.64146" lon="6.57737">
        <ele>1580</ele>
        <time>2022-07-27T09:55:46Z</time>
      </trkpt>
      <trkpt lat="45.64146" lon="6.57735">
        <ele>1580</ele>
        <time>2022-07-27T09:55:47Z</time>
      </trkpt>
      <trkpt lat="45.64146" lon="6.57733">
        <ele>1580</ele>
        <time>2022-07-27T09:55:48Z</time>
      </trkpt>
      <trkpt lat="45.64146" lon="6.57731">
        <ele>1580</ele>
        <time>2022-07-27T09:55:49Z</time>
      </trkpt>
      <trkpt lat="45.64146" lon="6.5773">
        <ele>1580</ele>
        <time>2022-07-27T09:55:50Z</time>
      </trkpt>
      <trkpt lat="45.64146" lon="6.57728">
        <ele>1580</ele>
        <time>2022-07-27T09:55:51Z</time>
      </trkpt>
      <trkpt lat="45.64146" lon="6.57726">
        <ele>1580</ele>
        <time>2022-07-27T09:55:52Z</time>
      </trkpt>
      <trkpt lat="45.64146" lon="6.57724">
        <ele>1580</ele>
        <time>2022-07-27T09:55:53Z</time>
      </trkpt>
      <trkpt lat="45.64146" lon="6.57722">
        <ele>1580</ele>
        <time>2022-07-27T09:55:54Z</time>
      </trkpt>
      <trkpt lat="45.64146" lon="6.57721">
        <ele>1581</ele>
        <time>2022-07-27T09:55:55Z</time>
      </trkpt>
      <trkpt lat="45.64146" lon="6.57719">
        <ele>1581</ele>
        <time>2022-07-27T09:55:56Z</time>
      </trkpt>
      <trkpt lat="45.64145" lon="6.57717">
        <ele>1581</ele>
        <time>2022-07-27T09:55:57Z</time>
      </trkpt>
      <trkpt lat="45.64145" lon="6.57715">
        <ele>1581</ele>
        <time>2022-07-27T09:55:58Z</time>
      </trkpt>
      <trkpt lat="45.64145" lon="6.57714">
        <ele>1581</ele>
        <time>2022-07-27T09:55:59Z</time>
      </trkpt>
      <trkpt lat="45.64144" lon="6.57712">
        <ele>1581</ele>
        <time>2022-07-27T09:56:00Z</time>
      </trkpt>
      <trkpt lat="45.64144" lon="6.5771">
        <ele>1581</ele>
        <time>2022-07-27T09:56:01Z</time>
      </trkpt>
      <trkpt lat="45.64143" lon="6.57708">
        <ele>1581</ele>
        <time>2022-07-27T09:56:02Z</time>
      </trkpt>
      <trkpt lat="45.64143" lon="6.57707">
        <ele>1581</ele>
        <time>2022-07-27T09:56:03Z</time>
      </trkpt>
      <trkpt lat="45.64143" lon="6.57706">
        <ele>1581</ele>
        <time>2022-07-27T09:56:04Z</time>
      </trkpt>
      <trkpt lat="45.64142" lon="6.57706">
        <ele>1581</ele>
        <time>2022-07-27T09:56:05Z</time>
      </trkpt>
      <trkpt lat="45.64142" lon="6.57705">
        <ele>1581</ele>
        <time>2022-07-27T09:56:06Z</time>
      </trkpt>
      <trkpt lat="45.64142" lon="6.57705">
        <ele>1581</ele>
        <time>2022-07-27T09:56:07Z</time>
      </trkpt>
      <trkpt lat="45.64141" lon="6.57704">
        <ele>1581</ele>
        <time>2022-07-27T09:56:08Z</time>
      </trkpt>
      <trkpt lat="45.64141" lon="6.57704">
        <ele>1581</ele>
        <time>2022-07-27T09:56:09Z</time>
      </trkpt>
      <trkpt lat="45.6414" lon="6.57704">
        <ele>1581</ele>
        <time>2022-07-27T09:56:10Z</time>
      </trkpt>
      <trkpt lat="45.6414" lon="6.57703">
        <ele>1581</ele>
        <time>2022-07-27T09:56:11Z</time>
      </trkpt>
      <trkpt lat="45.64139" lon="6.57702">
        <ele>1581</ele>
        <time>2022-07-27T09:56:12Z</time>
      </trkpt>
      <trkpt lat="45.64139" lon="6.57701">
        <ele>1581</ele>
        <time>2022-07-27T09:56:13Z</time>
      </trkpt>
      <trkpt lat="45.64139" lon="6.57701">
        <ele>1581</ele>
        <time>2022-07-27T09:56:14Z</time>
      </trkpt>
      <trkpt lat="45.64138" lon="6.577">
        <ele>1581</ele>
        <time>2022-07-27T09:56:15Z</time>
      </trkpt>
      <trkpt lat="45.64138" lon="6.57699">
        <ele>1581</ele>
        <time>2022-07-27T09:56:16Z</time>
      </trkpt>
      <trkpt lat="45.64138" lon="6.57698">
        <ele>1581</ele>
        <time>2022-07-27T09:56:17Z</time>
      </trkpt>
      <trkpt lat="45.64137" lon="6.57697">
        <ele>1581</ele>
        <time>2022-07-27T09:56:18Z</time>
      </trkpt>
      <trkpt lat="45.64137" lon="6.57696">
        <ele>1581</ele>
        <time>2022-07-27T09:56:19Z</time>
      </trkpt>
      <trkpt lat="45.64137" lon="6.57696">
        <ele>1581</ele>
        <time>2022-07-27T09:56:20Z</time>
      </trkpt>
      <trkpt lat="45.64138" lon="6.57695">
        <ele>1581</ele>
        <time>2022-07-27T09:56:21Z</time>
      </trkpt>
      <trkpt lat="45.64138" lon="6.57694">
        <ele>1581</ele>
        <time>2022-07-27T09:56:38Z</time>
      </trkpt>
      <trkpt lat="45.64138" lon="6.57693">
        <ele>1581</ele>
        <time>2022-07-27T09:56:39Z</time>
      </trkpt>
      <trkpt lat="45.64137" lon="6.57693">
        <ele>1581</ele>
        <time>2022-07-27T09:56:40Z</time>
      </trkpt>
      <trkpt lat="45.64137" lon="6.57692">
        <ele>1581</ele>
        <time>2022-07-27T09:56:41Z</time>
      </trkpt>
      <trkpt lat="45.64137" lon="6.57691">
        <ele>1581</ele>
        <time>2022-07-27T09:56:42Z</time>
      </trkpt>
      <trkpt lat="45.64136" lon="6.57691">
        <ele>1581</ele>
        <time>2022-07-27T09:56:43Z</time>
      </trkpt>
      <trkpt lat="45.64135" lon="6.5769">
        <ele>1581</ele>
        <time>2022-07-27T09:56:44Z</time>
      </trkpt>
      <trkpt lat="45.64134" lon="6.57689">
        <ele>1581</ele>
        <time>2022-07-27T09:56:45Z</time>
      </trkpt>
      <trkpt lat="45.64133" lon="6.57688">
        <ele>1581</ele>
        <time>2022-07-27T09:56:46Z</time>
      </trkpt>
      <trkpt lat="45.64132" lon="6.57688">
        <ele>1581</ele>
        <time>2022-07-27T09:56:47Z</time>
      </trkpt>
      <trkpt lat="45.64131" lon="6.57687">
        <ele>1581</ele>
        <time>2022-07-27T09:56:48Z</time>
      </trkpt>
      <trkpt lat="45.6413" lon="6.57686">
        <ele>1581</ele>
        <time>2022-07-27T09:56:49Z</time>
      </trkpt>
      <trkpt lat="45.64129" lon="6.57686">
        <ele>1581</ele>
        <time>2022-07-27T09:56:50Z</time>
      </trkpt>
      <trkpt lat="45.64128" lon="6.57685">
        <ele>1581</ele>
        <time>2022-07-27T09:56:51Z</time>
      </trkpt>
      <trkpt lat="45.64126" lon="6.57684">
        <ele>1581</ele>
        <time>2022-07-27T09:56:52Z</time>
      </trkpt>
      <trkpt lat="45.64125" lon="6.57684">
        <ele>1581</ele>
        <time>2022-07-27T09:56:53Z</time>
      </trkpt>
      <trkpt lat="45.64124" lon="6.57683">
        <ele>1581</ele>
        <time>2022-07-27T09:56:54Z</time>
      </trkpt>
      <trkpt lat="45.64123" lon="6.57683">
        <ele>1581</ele>
        <time>2022-07-27T09:56:55Z</time>
      </trkpt>
      <trkpt lat="45.64122" lon="6.57682">
        <ele>1581</ele>
        <time>2022-07-27T09:56:56Z</time>
      </trkpt>
      <trkpt lat="45.64121" lon="6.57681">
        <ele>1581</ele>
        <time>2022-07-27T09:56:57Z</time>
      </trkpt>
      <trkpt lat="45.64119" lon="6.57681">
        <ele>1581</ele>
        <time>2022-07-27T09:56:58Z</time>
      </trkpt>
      <trkpt lat="45.64118" lon="6.5768">
        <ele>1581</ele>
        <time>2022-07-27T09:56:59Z</time>
      </trkpt>
      <trkpt lat="45.64116" lon="6.57679">
        <ele>1581</ele>
        <time>2022-07-27T09:57:00Z</time>
      </trkpt>
      <trkpt lat="45.64115" lon="6.57678">
        <ele>1581</ele>
        <time>2022-07-27T09:57:01Z</time>
      </trkpt>
      <trkpt lat="45.64114" lon="6.57678">
        <ele>1581</ele>
        <time>2022-07-27T09:57:02Z</time>
      </trkpt>
      <trkpt lat="45.64113" lon="6.57677">
        <ele>1581</ele>
        <time>2022-07-27T09:57:03Z</time>
      </trkpt>
      <trkpt lat="45.64112" lon="6.57677">
        <ele>1581</ele>
        <time>2022-07-27T09:57:04Z</time>
      </trkpt>
      <trkpt lat="45.64111" lon="6.57676">
        <ele>1581</ele>
        <time>2022-07-27T09:57:05Z</time>
      </trkpt>
      <trkpt lat="45.6411" lon="6.57676">
        <ele>1581</ele>
        <time>2022-07-27T09:57:06Z</time>
      </trkpt>
      <trkpt lat="45.64109" lon="6.57675">
        <ele>1581</ele>
        <time>2022-07-27T09:57:07Z</time>
      </trkpt>
      <trkpt lat="45.64108" lon="6.57675">
        <ele>1581</ele>
        <time>2022-07-27T09:57:08Z</time>
      </trkpt>
      <trkpt lat="45.64107" lon="6.57674">
        <ele>1581</ele>
        <time>2022-07-27T09:57:09Z</time>
      </trkpt>
      <trkpt lat="45.64106" lon="6.57674">
        <ele>1582</ele>
        <time>2022-07-27T09:57:10Z</time>
      </trkpt>
      <trkpt lat="45.64105" lon="6.57673">
        <ele>1581</ele>
        <time>2022-07-27T09:57:11Z</time>
      </trkpt>
      <trkpt lat="45.64104" lon="6.57672">
        <ele>1581</ele>
        <time>2022-07-27T09:57:12Z</time>
      </trkpt>
      <trkpt lat="45.64103" lon="6.57671">
        <ele>1581</ele>
        <time>2022-07-27T09:57:13Z</time>
      </trkpt>
      <trkpt lat="45.64102" lon="6.5767">
        <ele>1581</ele>
        <time>2022-07-27T09:57:14Z</time>
      </trkpt>
      <trkpt lat="45.64101" lon="6.57669">
        <ele>1581</ele>
        <time>2022-07-27T09:57:15Z</time>
      </trkpt>
      <trkpt lat="45.641" lon="6.57668">
        <ele>1581</ele>
        <time>2022-07-27T09:57:16Z</time>
      </trkpt>
      <trkpt lat="45.64099" lon="6.57666">
        <ele>1581</ele>
        <time>2022-07-27T09:57:17Z</time>
      </trkpt>
      <trkpt lat="45.64098" lon="6.57665">
        <ele>1581</ele>
        <time>2022-07-27T09:57:18Z</time>
      </trkpt>
      <trkpt lat="45.64097" lon="6.57664">
        <ele>1581</ele>
        <time>2022-07-27T09:57:19Z</time>
      </trkpt>
      <trkpt lat="45.64096" lon="6.57663">
        <ele>1581</ele>
        <time>2022-07-27T09:57:20Z</time>
      </trkpt>
      <trkpt lat="45.64094" lon="6.57662">
        <ele>1581</ele>
        <time>2022-07-27T09:57:21Z</time>
      </trkpt>
      <trkpt lat="45.64093" lon="6.57661">
        <ele>1581</ele>
        <time>2022-07-27T09:57:22Z</time>
      </trkpt>
      <trkpt lat="45.64092" lon="6.5766">
        <ele>1581</ele>
        <time>2022-07-27T09:57:23Z</time>
      </trkpt>
      <trkpt lat="45.64091" lon="6.57659">
        <ele>1581</ele>
        <time>2022-07-27T09:57:24Z</time>
      </trkpt>
      <trkpt lat="45.6409" lon="6.57658">
        <ele>1581</ele>
        <time>2022-07-27T09:57:25Z</time>
      </trkpt>
      <trkpt lat="45.64089" lon="6.57657">
        <ele>1580</ele>
        <time>2022-07-27T09:57:26Z</time>
      </trkpt>
      <trkpt lat="45.64088" lon="6.57656">
        <ele>1580</ele>
        <time>2022-07-27T09:57:27Z</time>
      </trkpt>
      <trkpt lat="45.64087" lon="6.57655">
        <ele>1580</ele>
        <time>2022-07-27T09:57:28Z</time>
      </trkpt>
      <trkpt lat="45.64086" lon="6.57655">
        <ele>1580</ele>
        <time>2022-07-27T09:57:29Z</time>
      </trkpt>
      <trkpt lat="45.64085" lon="6.57654">
        <ele>1580</ele>
        <time>2022-07-27T09:57:30Z</time>
      </trkpt>
      <trkpt lat="45.64084" lon="6.57653">
        <ele>1580</ele>
        <time>2022-07-27T09:57:31Z</time>
      </trkpt>
      <trkpt lat="45.64083" lon="6.57652">
        <ele>1580</ele>
        <time>2022-07-27T09:57:32Z</time>
      </trkpt>
      <trkpt lat="45.64082" lon="6.57651">
        <ele>1580</ele>
        <time>2022-07-27T09:57:33Z</time>
      </trkpt>
      <trkpt lat="45.64081" lon="6.5765">
        <ele>1580</ele>
        <time>2022-07-27T09:57:34Z</time>
      </trkpt>
      <trkpt lat="45.6408" lon="6.57649">
        <ele>1580</ele>
        <time>2022-07-27T09:57:35Z</time>
      </trkpt>
      <trkpt lat="45.64079" lon="6.57647">
        <ele>1580</ele>
        <time>2022-07-27T09:57:36Z</time>
      </trkpt>
      <trkpt lat="45.64078" lon="6.57646">
        <ele>1580</ele>
        <time>2022-07-27T09:57:37Z</time>
      </trkpt>
      <trkpt lat="45.64077" lon="6.57645">
        <ele>1580</ele>
        <time>2022-07-27T09:57:38Z</time>
      </trkpt>
      <trkpt lat="45.64076" lon="6.57644">
        <ele>1580</ele>
        <time>2022-07-27T09:57:39Z</time>
      </trkpt>
      <trkpt lat="45.64075" lon="6.57642">
        <ele>1580</ele>
        <time>2022-07-27T09:57:40Z</time>
      </trkpt>
      <trkpt lat="45.64074" lon="6.57641">
        <ele>1580</ele>
        <time>2022-07-27T09:57:41Z</time>
      </trkpt>
      <trkpt lat="45.64074" lon="6.5764">
        <ele>1580</ele>
        <time>2022-07-27T09:57:42Z</time>
      </trkpt>
      <trkpt lat="45.64073" lon="6.57638">
        <ele>1580</ele>
        <time>2022-07-27T09:57:43Z</time>
      </trkpt>
      <trkpt lat="45.64072" lon="6.57637">
        <ele>1580</ele>
        <time>2022-07-27T09:57:44Z</time>
      </trkpt>
      <trkpt lat="45.64071" lon="6.57635">
        <ele>1580</ele>
        <time>2022-07-27T09:57:45Z</time>
      </trkpt>
      <trkpt lat="45.64071" lon="6.57633">
        <ele>1579</ele>
        <time>2022-07-27T09:57:46Z</time>
      </trkpt>
      <trkpt lat="45.6407" lon="6.57632">
        <ele>1579</ele>
        <time>2022-07-27T09:57:47Z</time>
      </trkpt>
      <trkpt lat="45.64069" lon="6.5763">
        <ele>1579</ele>
        <time>2022-07-27T09:57:48Z</time>
      </trkpt>
      <trkpt lat="45.64069" lon="6.57629">
        <ele>1579</ele>
        <time>2022-07-27T09:57:49Z</time>
      </trkpt>
      <trkpt lat="45.64068" lon="6.57627">
        <ele>1579</ele>
        <time>2022-07-27T09:57:50Z</time>
      </trkpt>
      <trkpt lat="45.64068" lon="6.57626">
        <ele>1579</ele>
        <time>2022-07-27T09:57:51Z</time>
      </trkpt>
      <trkpt lat="45.64067" lon="6.57624">
        <ele>1579</ele>
        <time>2022-07-27T09:57:52Z</time>
      </trkpt>
      <trkpt lat="45.64067" lon="6.57623">
        <ele>1579</ele>
        <time>2022-07-27T09:57:53Z</time>
      </trkpt>
      <trkpt lat="45.64067" lon="6.57621">
        <ele>1579</ele>
        <time>2022-07-27T09:57:54Z</time>
      </trkpt>
      <trkpt lat="45.64066" lon="6.57619">
        <ele>1579</ele>
        <time>2022-07-27T09:57:55Z</time>
      </trkpt>
      <trkpt lat="45.64066" lon="6.57618">
        <ele>1579</ele>
        <time>2022-07-27T09:57:56Z</time>
      </trkpt>
      <trkpt lat="45.64065" lon="6.57616">
        <ele>1579</ele>
        <time>2022-07-27T09:57:57Z</time>
      </trkpt>
      <trkpt lat="45.64065" lon="6.57615">
        <ele>1579</ele>
        <time>2022-07-27T09:57:58Z</time>
      </trkpt>
      <trkpt lat="45.64065" lon="6.57613">
        <ele>1579</ele>
        <time>2022-07-27T09:57:59Z</time>
      </trkpt>
      <trkpt lat="45.64064" lon="6.57611">
        <ele>1579</ele>
        <time>2022-07-27T09:58:00Z</time>
      </trkpt>
      <trkpt lat="45.64064" lon="6.5761">
        <ele>1579</ele>
        <time>2022-07-27T09:58:01Z</time>
      </trkpt>
      <trkpt lat="45.64064" lon="6.57608">
        <ele>1579</ele>
        <time>2022-07-27T09:58:02Z</time>
      </trkpt>
      <trkpt lat="45.64064" lon="6.57606">
        <ele>1579</ele>
        <time>2022-07-27T09:58:03Z</time>
      </trkpt>
      <trkpt lat="45.64064" lon="6.57604">
        <ele>1579</ele>
        <time>2022-07-27T09:58:04Z</time>
      </trkpt>
      <trkpt lat="45.64064" lon="6.57602">
        <ele>1579</ele>
        <time>2022-07-27T09:58:05Z</time>
      </trkpt>
      <trkpt lat="45.64064" lon="6.576">
        <ele>1579</ele>
        <time>2022-07-27T09:58:06Z</time>
      </trkpt>
      <trkpt lat="45.64064" lon="6.57598">
        <ele>1579</ele>
        <time>2022-07-27T09:58:07Z</time>
      </trkpt>
      <trkpt lat="45.64064" lon="6.57596">
        <ele>1579</ele>
        <time>2022-07-27T09:58:08Z</time>
      </trkpt>
      <trkpt lat="45.64064" lon="6.57594">
        <ele>1579</ele>
        <time>2022-07-27T09:58:09Z</time>
      </trkpt>
      <trkpt lat="45.64064" lon="6.57592">
        <ele>1579</ele>
        <time>2022-07-27T09:58:10Z</time>
      </trkpt>
      <trkpt lat="45.64064" lon="6.5759">
        <ele>1579</ele>
        <time>2022-07-27T09:58:11Z</time>
      </trkpt>
      <trkpt lat="45.64063" lon="6.57589">
        <ele>1579</ele>
        <time>2022-07-27T09:58:12Z</time>
      </trkpt>
      <trkpt lat="45.64063" lon="6.57587">
        <ele>1579</ele>
        <time>2022-07-27T09:58:13Z</time>
      </trkpt>
      <trkpt lat="45.64063" lon="6.57585">
        <ele>1579</ele>
        <time>2022-07-27T09:58:14Z</time>
      </trkpt>
      <trkpt lat="45.64063" lon="6.57583">
        <ele>1579</ele>
        <time>2022-07-27T09:58:15Z</time>
      </trkpt>
      <trkpt lat="45.64062" lon="6.57581">
        <ele>1579</ele>
        <time>2022-07-27T09:58:16Z</time>
      </trkpt>
      <trkpt lat="45.64062" lon="6.57579">
        <ele>1579</ele>
        <time>2022-07-27T09:58:17Z</time>
      </trkpt>
      <trkpt lat="45.64062" lon="6.57578">
        <ele>1579</ele>
        <time>2022-07-27T09:58:18Z</time>
      </trkpt>
      <trkpt lat="45.64062" lon="6.57576">
        <ele>1579</ele>
        <time>2022-07-27T09:58:19Z</time>
      </trkpt>
      <trkpt lat="45.64062" lon="6.57574">
        <ele>1579</ele>
        <time>2022-07-27T09:58:20Z</time>
      </trkpt>
      <trkpt lat="45.64063" lon="6.57572">
        <ele>1579</ele>
        <time>2022-07-27T09:58:21Z</time>
      </trkpt>
      <trkpt lat="45.64063" lon="6.5757">
        <ele>1579</ele>
        <time>2022-07-27T09:58:22Z</time>
      </trkpt>
      <trkpt lat="45.64063" lon="6.57569">
        <ele>1579</ele>
        <time>2022-07-27T09:58:23Z</time>
      </trkpt>
      <trkpt lat="45.64064" lon="6.57567">
        <ele>1579</ele>
        <time>2022-07-27T09:58:24Z</time>
      </trkpt>
      <trkpt lat="45.64064" lon="6.57565">
        <ele>1579</ele>
        <time>2022-07-27T09:58:25Z</time>
      </trkpt>
      <trkpt lat="45.64065" lon="6.57564">
        <ele>1579</ele>
        <time>2022-07-27T09:58:26Z</time>
      </trkpt>
      <trkpt lat="45.64065" lon="6.57562">
        <ele>1579</ele>
        <time>2022-07-27T09:58:27Z</time>
      </trkpt>
      <trkpt lat="45.64066" lon="6.57561">
        <ele>1579</ele>
        <time>2022-07-27T09:58:28Z</time>
      </trkpt>
      <trkpt lat="45.64067" lon="6.57559">
        <ele>1579</ele>
        <time>2022-07-27T09:58:29Z</time>
      </trkpt>
      <trkpt lat="45.64068" lon="6.57558">
        <ele>1579</ele>
        <time>2022-07-27T09:58:30Z</time>
      </trkpt>
      <trkpt lat="45.64069" lon="6.57557">
        <ele>1579</ele>
        <time>2022-07-27T09:58:31Z</time>
      </trkpt>
      <trkpt lat="45.64069" lon="6.57555">
        <ele>1579</ele>
        <time>2022-07-27T09:58:32Z</time>
      </trkpt>
      <trkpt lat="45.6407" lon="6.57554">
        <ele>1579</ele>
        <time>2022-07-27T09:58:33Z</time>
      </trkpt>
      <trkpt lat="45.64071" lon="6.57553">
        <ele>1579</ele>
        <time>2022-07-27T09:58:34Z</time>
      </trkpt>
      <trkpt lat="45.64072" lon="6.57552">
        <ele>1579</ele>
        <time>2022-07-27T09:58:59Z</time>
      </trkpt>
      <trkpt lat="45.64072" lon="6.57552">
        <ele>1579</ele>
        <time>2022-07-27T09:59:00Z</time>
      </trkpt>
      <trkpt lat="45.64072" lon="6.57552">
        <ele>1579</ele>
        <time>2022-07-27T09:59:01Z</time>
      </trkpt>
      <trkpt lat="45.64073" lon="6.57552">
        <ele>1579</ele>
        <time>2022-07-27T09:59:02Z</time>
      </trkpt>
      <trkpt lat="45.64073" lon="6.57553">
        <ele>1579</ele>
        <time>2022-07-27T09:59:03Z</time>
      </trkpt>
      <trkpt lat="45.64074" lon="6.57553">
        <ele>1579</ele>
        <time>2022-07-27T09:59:04Z</time>
      </trkpt>
      <trkpt lat="45.64075" lon="6.57554">
        <ele>1579</ele>
        <time>2022-07-27T09:59:05Z</time>
      </trkpt>
      <trkpt lat="45.64076" lon="6.57554">
        <ele>1579</ele>
        <time>2022-07-27T09:59:06Z</time>
      </trkpt>
      <trkpt lat="45.64076" lon="6.57555">
        <ele>1579</ele>
        <time>2022-07-27T09:59:07Z</time>
      </trkpt>
      <trkpt lat="45.64077" lon="6.57555">
        <ele>1579</ele>
        <time>2022-07-27T09:59:08Z</time>
      </trkpt>
      <trkpt lat="45.64078" lon="6.57556">
        <ele>1579</ele>
        <time>2022-07-27T09:59:09Z</time>
      </trkpt>
      <trkpt lat="45.64079" lon="6.57557">
        <ele>1579</ele>
        <time>2022-07-27T09:59:10Z</time>
      </trkpt>
      <trkpt lat="45.6408" lon="6.57558">
        <ele>1579</ele>
        <time>2022-07-27T09:59:11Z</time>
      </trkpt>
      <trkpt lat="45.64082" lon="6.57558">
        <ele>1579</ele>
        <time>2022-07-27T09:59:12Z</time>
      </trkpt>
      <trkpt lat="45.64083" lon="6.57559">
        <ele>1579</ele>
        <time>2022-07-27T09:59:13Z</time>
      </trkpt>
      <trkpt lat="45.64084" lon="6.5756">
        <ele>1579</ele>
        <time>2022-07-27T09:59:14Z</time>
      </trkpt>
      <trkpt lat="45.64085" lon="6.57561">
        <ele>1579</ele>
        <time>2022-07-27T09:59:15Z</time>
      </trkpt>
      <trkpt lat="45.64086" lon="6.57562">
        <ele>1579</ele>
        <time>2022-07-27T09:59:16Z</time>
      </trkpt>
      <trkpt lat="45.64088" lon="6.57563">
        <ele>1579</ele>
        <time>2022-07-27T09:59:17Z</time>
      </trkpt>
      <trkpt lat="45.64089" lon="6.57563">
        <ele>1579</ele>
        <time>2022-07-27T09:59:18Z</time>
      </trkpt>
      <trkpt lat="45.6409" lon="6.57564">
        <ele>1579</ele>
        <time>2022-07-27T09:59:19Z</time>
      </trkpt>
      <trkpt lat="45.64091" lon="6.57565">
        <ele>1579</ele>
        <time>2022-07-27T09:59:20Z</time>
      </trkpt>
      <trkpt lat="45.64092" lon="6.57566">
        <ele>1579</ele>
        <time>2022-07-27T09:59:21Z</time>
      </trkpt>
      <trkpt lat="45.64093" lon="6.57567">
        <ele>1579</ele>
        <time>2022-07-27T09:59:22Z</time>
      </trkpt>
      <trkpt lat="45.64094" lon="6.57568">
        <ele>1579</ele>
        <time>2022-07-27T09:59:23Z</time>
      </trkpt>
      <trkpt lat="45.64095" lon="6.57568">
        <ele>1579</ele>
        <time>2022-07-27T09:59:24Z</time>
      </trkpt>
      <trkpt lat="45.64096" lon="6.57569">
        <ele>1580</ele>
        <time>2022-07-27T09:59:25Z</time>
      </trkpt>
      <trkpt lat="45.64097" lon="6.5757">
        <ele>1580</ele>
        <time>2022-07-27T09:59:26Z</time>
      </trkpt>
      <trkpt lat="45.64098" lon="6.57571">
        <ele>1580</ele>
        <time>2022-07-27T09:59:27Z</time>
      </trkpt>
      <trkpt lat="45.64099" lon="6.57572">
        <ele>1580</ele>
        <time>2022-07-27T09:59:28Z</time>
      </trkpt>
      <trkpt lat="45.641" lon="6.57573">
        <ele>1580</ele>
        <time>2022-07-27T09:59:29Z</time>
      </trkpt>
      <trkpt lat="45.64101" lon="6.57574">
        <ele>1580</ele>
        <time>2022-07-27T09:59:30Z</time>
      </trkpt>
      <trkpt lat="45.64102" lon="6.57575">
        <ele>1580</ele>
        <time>2022-07-27T09:59:31Z</time>
      </trkpt>
      <trkpt lat="45.64103" lon="6.57576">
        <ele>1580</ele>
        <time>2022-07-27T09:59:32Z</time>
      </trkpt>
      <trkpt lat="45.64105" lon="6.57576">
        <ele>1580</ele>
        <time>2022-07-27T09:59:33Z</time>
      </trkpt>
      <trkpt lat="45.64106" lon="6.57577">
        <ele>1580</ele>
        <time>2022-07-27T09:59:34Z</time>
      </trkpt>
      <trkpt lat="45.64107" lon="6.57578">
        <ele>1580</ele>
        <time>2022-07-27T09:59:35Z</time>
      </trkpt>
      <trkpt lat="45.64108" lon="6.57579">
        <ele>1580</ele>
        <time>2022-07-27T09:59:36Z</time>
      </trkpt>
      <trkpt lat="45.64109" lon="6.5758">
        <ele>1580</ele>
        <time>2022-07-27T09:59:37Z</time>
      </trkpt>
      <trkpt lat="45.6411" lon="6.57581">
        <ele>1580</ele>
        <time>2022-07-27T09:59:38Z</time>
      </trkpt>
      <trkpt lat="45.64111" lon="6.57582">
        <ele>1580</ele>
        <time>2022-07-27T09:59:39Z</time>
      </trkpt>
      <trkpt lat="45.64112" lon="6.57582">
        <ele>1580</ele>
        <time>2022-07-27T09:59:40Z</time>
      </trkpt>
      <trkpt lat="45.64113" lon="6.57583">
        <ele>1580</ele>
        <time>2022-07-27T09:59:41Z</time>
      </trkpt>
      <trkpt lat="45.64114" lon="6.57583">
        <ele>1580</ele>
        <time>2022-07-27T09:59:42Z</time>
      </trkpt>
      <trkpt lat="45.64116" lon="6.57584">
        <ele>1580</ele>
        <time>2022-07-27T09:59:43Z</time>
      </trkpt>
      <trkpt lat="45.64117" lon="6.57584">
        <ele>1580</ele>
        <time>2022-07-27T09:59:44Z</time>
      </trkpt>
      <trkpt lat="45.64118" lon="6.57585">
        <ele>1580</ele>
        <time>2022-07-27T09:59:45Z</time>
      </trkpt>
      <trkpt lat="45.64119" lon="6.57585">
        <ele>1580</ele>
        <time>2022-07-27T09:59:46Z</time>
      </trkpt>
      <trkpt lat="45.64119" lon="6.57586">
        <ele>1580</ele>
        <time>2022-07-27T09:59:47Z</time>
      </trkpt>
      <trkpt lat="45.6412" lon="6.57586">
        <ele>1580</ele>
        <time>2022-07-27T09:59:48Z</time>
      </trkpt>
      <trkpt lat="45.64121" lon="6.57587">
        <ele>1580</ele>
        <time>2022-07-27T09:59:49Z</time>
      </trkpt>
      <trkpt lat="45.64122" lon="6.57587">
        <ele>1580</ele>
        <time>2022-07-27T09:59:50Z</time>
      </trkpt>
      <trkpt lat="45.64123" lon="6.57588">
        <ele>1580</ele>
        <time>2022-07-27T09:59:51Z</time>
      </trkpt>
      <trkpt lat="45.64124" lon="6.57588">
        <ele>1580</ele>
        <time>2022-07-27T09:59:52Z</time>
      </trkpt>
      <trkpt lat="45.64125" lon="6.57589">
        <ele>1580</ele>
        <time>2022-07-27T09:59:53Z</time>
      </trkpt>
      <trkpt lat="45.64126" lon="6.57589">
        <ele>1580</ele>
        <time>2022-07-27T09:59:54Z</time>
      </trkpt>
      <trkpt lat="45.64127" lon="6.5759">
        <ele>1581</ele>
        <time>2022-07-27T09:59:55Z</time>
      </trkpt>
      <trkpt lat="45.64128" lon="6.5759">
        <ele>1581</ele>
        <time>2022-07-27T09:59:56Z</time>
      </trkpt>
      <trkpt lat="45.64129" lon="6.5759">
        <ele>1581</ele>
        <time>2022-07-27T09:59:57Z</time>
      </trkpt>
      <trkpt lat="45.6413" lon="6.57591">
        <ele>1581</ele>
        <time>2022-07-27T09:59:58Z</time>
      </trkpt>
      <trkpt lat="45.64131" lon="6.57591">
        <ele>1581</ele>
        <time>2022-07-27T09:59:59Z</time>
      </trkpt>
      <trkpt lat="45.64132" lon="6.57591">
        <ele>1581</ele>
        <time>2022-07-27T10:00:00Z</time>
      </trkpt>
      <trkpt lat="45.64133" lon="6.57592">
        <ele>1581</ele>
        <time>2022-07-27T10:00:01Z</time>
      </trkpt>
      <trkpt lat="45.64133" lon="6.57592">
        <ele>1581</ele>
        <time>2022-07-27T10:00:02Z</time>
      </trkpt>
      <trkpt lat="45.64133" lon="6.57592">
        <ele>1581</ele>
        <time>2022-07-27T10:00:03Z</time>
      </trkpt>
      <trkpt lat="45.64134" lon="6.57592">
        <ele>1581</ele>
        <time>2022-07-27T10:00:04Z</time>
      </trkpt>
      <trkpt lat="45.64135" lon="6.57592">
        <ele>1581</ele>
        <time>2022-07-27T10:00:05Z</time>
      </trkpt>
      <trkpt lat="45.64136" lon="6.57593">
        <ele>1581</ele>
        <time>2022-07-27T10:00:06Z</time>
      </trkpt>
      <trkpt lat="45.64137" lon="6.57593">
        <ele>1581</ele>
        <time>2022-07-27T10:00:07Z</time>
      </trkpt>
      <trkpt lat="45.64138" lon="6.57594">
        <ele>1581</ele>
        <time>2022-07-27T10:00:08Z</time>
      </trkpt>
      <trkpt lat="45.64139" lon="6.57594">
        <ele>1581</ele>
        <time>2022-07-27T10:00:09Z</time>
      </trkpt>
      <trkpt lat="45.6414" lon="6.57595">
        <ele>1581</ele>
        <time>2022-07-27T10:00:10Z</time>
      </trkpt>
      <trkpt lat="45.64141" lon="6.57595">
        <ele>1581</ele>
        <time>2022-07-27T10:00:11Z</time>
      </trkpt>
      <trkpt lat="45.64142" lon="6.57596">
        <ele>1581</ele>
        <time>2022-07-27T10:00:12Z</time>
      </trkpt>
      <trkpt lat="45.64143" lon="6.57596">
        <ele>1581</ele>
        <time>2022-07-27T10:00:13Z</time>
      </trkpt>
      <trkpt lat="45.64143" lon="6.57597">
        <ele>1581</ele>
        <time>2022-07-27T10:00:14Z</time>
      </trkpt>
      <trkpt lat="45.64144" lon="6.57597">
        <ele>1582</ele>
        <time>2022-07-27T10:00:15Z</time>
      </trkpt>
      <trkpt lat="45.64145" lon="6.57597">
        <ele>1582</ele>
        <time>2022-07-27T10:00:16Z</time>
      </trkpt>
      <trkpt lat="45.64146" lon="6.57597">
        <ele>1582</ele>
        <time>2022-07-27T10:00:17Z</time>
      </trkpt>
      <trkpt lat="45.64147" lon="6.57597">
        <ele>1582</ele>
        <time>2022-07-27T10:00:18Z</time>
      </trkpt>
      <trkpt lat="45.64148" lon="6.57597">
        <ele>1582</ele>
        <time>2022-07-27T10:00:19Z</time>
      </trkpt>
      <trkpt lat="45.64149" lon="6.57597">
        <ele>1582</ele>
        <time>2022-07-27T10:00:20Z</time>
      </trkpt>
      <trkpt lat="45.6415" lon="6.57596">
        <ele>1582</ele>
        <time>2022-07-27T10:00:21Z</time>
      </trkpt>
      <trkpt lat="45.64151" lon="6.57596">
        <ele>1582</ele>
        <time>2022-07-27T10:00:22Z</time>
      </trkpt>
      <trkpt lat="45.64152" lon="6.57596">
        <ele>1582</ele>
        <time>2022-07-27T10:00:23Z</time>
      </trkpt>
      <trkpt lat="45.64153" lon="6.57596">
        <ele>1582</ele>
        <time>2022-07-27T10:00:24Z</time>
      </trkpt>
      <trkpt lat="45.64154" lon="6.57596">
        <ele>1582</ele>
        <time>2022-07-27T10:00:25Z</time>
      </trkpt>
      <trkpt lat="45.64155" lon="6.57596">
        <ele>1582</ele>
        <time>2022-07-27T10:00:26Z</time>
      </trkpt>
      <trkpt lat="45.64156" lon="6.57596">
        <ele>1582</ele>
        <time>2022-07-27T10:00:27Z</time>
      </trkpt>
      <trkpt lat="45.64157" lon="6.57596">
        <ele>1582</ele>
        <time>2022-07-27T10:00:28Z</time>
      </trkpt>
      <trkpt lat="45.64157" lon="6.57596">
        <ele>1582</ele>
        <time>2022-07-27T10:00:29Z</time>
      </trkpt>
      <trkpt lat="45.64158" lon="6.57595">
        <ele>1583</ele>
        <time>2022-07-27T10:00:30Z</time>
      </trkpt>
      <trkpt lat="45.64159" lon="6.57595">
        <ele>1583</ele>
        <time>2022-07-27T10:00:31Z</time>
      </trkpt>
      <trkpt lat="45.6416" lon="6.57594">
        <ele>1583</ele>
        <time>2022-07-27T10:00:32Z</time>
      </trkpt>
      <trkpt lat="45.64161" lon="6.57594">
        <ele>1583</ele>
        <time>2022-07-27T10:00:33Z</time>
      </trkpt>
      <trkpt lat="45.64162" lon="6.57593">
        <ele>1583</ele>
        <time>2022-07-27T10:00:34Z</time>
      </trkpt>
      <trkpt lat="45.64162" lon="6.57592">
        <ele>1583</ele>
        <time>2022-07-27T10:00:35Z</time>
      </trkpt>
      <trkpt lat="45.64163" lon="6.57591">
        <ele>1583</ele>
        <time>2022-07-27T10:00:36Z</time>
      </trkpt>
      <trkpt lat="45.64164" lon="6.57591">
        <ele>1583</ele>
        <time>2022-07-27T10:00:37Z</time>
      </trkpt>
      <trkpt lat="45.64165" lon="6.5759">
        <ele>1583</ele>
        <time>2022-07-27T10:00:38Z</time>
      </trkpt>
      <trkpt lat="45.64166" lon="6.57589">
        <ele>1583</ele>
        <time>2022-07-27T10:00:39Z</time>
      </trkpt>
      <trkpt lat="45.64166" lon="6.57588">
        <ele>1583</ele>
        <time>2022-07-27T10:00:40Z</time>
      </trkpt>
      <trkpt lat="45.64167" lon="6.57588">
        <ele>1583</ele>
        <time>2022-07-27T10:00:41Z</time>
      </trkpt>
      <trkpt lat="45.64167" lon="6.57586">
        <ele>1585</ele>
        <time>2022-07-27T10:01:18Z</time>
      </trkpt>
      <trkpt lat="45.64168" lon="6.57585">
        <ele>1585</ele>
        <time>2022-07-27T10:01:19Z</time>
      </trkpt>
      <trkpt lat="45.64169" lon="6.57584">
        <ele>1585</ele>
        <time>2022-07-27T10:01:20Z</time>
      </trkpt>
      <trkpt lat="45.6417" lon="6.57584">
        <ele>1585</ele>
        <time>2022-07-27T10:01:21Z</time>
      </trkpt>
      <trkpt lat="45.6417" lon="6.57583">
        <ele>1585</ele>
        <time>2022-07-27T10:01:22Z</time>
      </trkpt>
      <trkpt lat="45.64171" lon="6.57583">
        <ele>1585</ele>
        <time>2022-07-27T10:01:23Z</time>
      </trkpt>
      <trkpt lat="45.64172" lon="6.57583">
        <ele>1585</ele>
        <time>2022-07-27T10:01:24Z</time>
      </trkpt>
      <trkpt lat="45.64173" lon="6.57582">
        <ele>1585</ele>
        <time>2022-07-27T10:01:25Z</time>
      </trkpt>
      <trkpt lat="45.64174" lon="6.57582">
        <ele>1585</ele>
        <time>2022-07-27T10:01:26Z</time>
      </trkpt>
      <trkpt lat="45.64176" lon="6.57581">
        <ele>1585</ele>
        <time>2022-07-27T10:01:55Z</time>
      </trkpt>
      <trkpt lat="45.64176" lon="6.57581">
        <ele>1585</ele>
        <time>2022-07-27T10:01:56Z</time>
      </trkpt>
      <trkpt lat="45.64176" lon="6.57581">
        <ele>1585</ele>
        <time>2022-07-27T10:01:57Z</time>
      </trkpt>
      <trkpt lat="45.64177" lon="6.5758">
        <ele>1585</ele>
        <time>2022-07-27T10:01:58Z</time>
      </trkpt>
      <trkpt lat="45.64177" lon="6.5758">
        <ele>1585</ele>
        <time>2022-07-27T10:01:59Z</time>
      </trkpt>
      <trkpt lat="45.64178" lon="6.57579">
        <ele>1585</ele>
        <time>2022-07-27T10:02:00Z</time>
      </trkpt>
      <trkpt lat="45.64179" lon="6.57579">
        <ele>1585</ele>
        <time>2022-07-27T10:02:01Z</time>
      </trkpt>
      <trkpt lat="45.6418" lon="6.57579">
        <ele>1585</ele>
        <time>2022-07-27T10:02:02Z</time>
      </trkpt>
      <trkpt lat="45.6418" lon="6.57579">
        <ele>1585</ele>
        <time>2022-07-27T10:02:03Z</time>
      </trkpt>
      <trkpt lat="45.64181" lon="6.57579">
        <ele>1585</ele>
        <time>2022-07-27T10:02:04Z</time>
      </trkpt>
      <trkpt lat="45.64182" lon="6.57579">
        <ele>1585</ele>
        <time>2022-07-27T10:02:05Z</time>
      </trkpt>
      <trkpt lat="45.64183" lon="6.57579">
        <ele>1585</ele>
        <time>2022-07-27T10:02:06Z</time>
      </trkpt>
      <trkpt lat="45.64184" lon="6.57579">
        <ele>1585</ele>
        <time>2022-07-27T10:02:07Z</time>
      </trkpt>
      <trkpt lat="45.64184" lon="6.57579">
        <ele>1585</ele>
        <time>2022-07-27T10:02:08Z</time>
      </trkpt>
      <trkpt lat="45.64185" lon="6.57579">
        <ele>1585</ele>
        <time>2022-07-27T10:02:09Z</time>
      </trkpt>
      <trkpt lat="45.64186" lon="6.57578">
        <ele>1586</ele>
        <time>2022-07-27T10:02:10Z</time>
      </trkpt>
      <trkpt lat="45.64186" lon="6.57578">
        <ele>1586</ele>
        <time>2022-07-27T10:02:11Z</time>
      </trkpt>
      <trkpt lat="45.64187" lon="6.57577">
        <ele>1586</ele>
        <time>2022-07-27T10:02:12Z</time>
      </trkpt>
      <trkpt lat="45.64186" lon="6.57577">
        <ele>1586</ele>
        <time>2022-07-27T10:02:13Z</time>
      </trkpt>
      <trkpt lat="45.64186" lon="6.57576">
        <ele>1586</ele>
        <time>2022-07-27T10:02:14Z</time>
      </trkpt>
      <trkpt lat="45.64186" lon="6.57575">
        <ele>1586</ele>
        <time>2022-07-27T10:02:15Z</time>
      </trkpt>
      <trkpt lat="45.64186" lon="6.57574">
        <ele>1586</ele>
        <time>2022-07-27T10:02:16Z</time>
      </trkpt>
      <trkpt lat="45.64185" lon="6.57573">
        <ele>1586</ele>
        <time>2022-07-27T10:02:17Z</time>
      </trkpt>
      <trkpt lat="45.64185" lon="6.57572">
        <ele>1586</ele>
        <time>2022-07-27T10:02:18Z</time>
      </trkpt>
      <trkpt lat="45.64185" lon="6.57571">
        <ele>1586</ele>
        <time>2022-07-27T10:02:19Z</time>
      </trkpt>
      <trkpt lat="45.64185" lon="6.5757">
        <ele>1587</ele>
        <time>2022-07-27T10:02:20Z</time>
      </trkpt>
      <trkpt lat="45.64185" lon="6.57569">
        <ele>1587</ele>
        <time>2022-07-27T10:02:21Z</time>
      </trkpt>
      <trkpt lat="45.64185" lon="6.57568">
        <ele>1587</ele>
        <time>2022-07-27T10:02:22Z</time>
      </trkpt>
      <trkpt lat="45.64186" lon="6.57567">
        <ele>1587</ele>
        <time>2022-07-27T10:02:23Z</time>
      </trkpt>
      <trkpt lat="45.64186" lon="6.57566">
        <ele>1587</ele>
        <time>2022-07-27T10:02:24Z</time>
      </trkpt>
      <trkpt lat="45.64187" lon="6.57566">
        <ele>1588</ele>
        <time>2022-07-27T10:02:25Z</time>
      </trkpt>
      <trkpt lat="45.64187" lon="6.57565">
        <ele>1588</ele>
        <time>2022-07-27T10:02:26Z</time>
      </trkpt>
      <trkpt lat="45.64188" lon="6.57564">
        <ele>1588</ele>
        <time>2022-07-27T10:02:27Z</time>
      </trkpt>
      <trkpt lat="45.64188" lon="6.57564">
        <ele>1588</ele>
        <time>2022-07-27T10:02:28Z</time>
      </trkpt>
      <trkpt lat="45.64188" lon="6.57563">
        <ele>1588</ele>
        <time>2022-07-27T10:02:29Z</time>
      </trkpt>
      <trkpt lat="45.64189" lon="6.57562">
        <ele>1589</ele>
        <time>2022-07-27T10:02:30Z</time>
      </trkpt>
      <trkpt lat="45.64189" lon="6.57561">
        <ele>1589</ele>
        <time>2022-07-27T10:02:31Z</time>
      </trkpt>
      <trkpt lat="45.64189" lon="6.57561">
        <ele>1589</ele>
        <time>2022-07-27T10:02:32Z</time>
      </trkpt>
      <trkpt lat="45.64189" lon="6.5756">
        <ele>1589</ele>
        <time>2022-07-27T10:02:33Z</time>
      </trkpt>
      <trkpt lat="45.64189" lon="6.57559">
        <ele>1589</ele>
        <time>2022-07-27T10:02:34Z</time>
      </trkpt>
      <trkpt lat="45.64189" lon="6.57559">
        <ele>1590</ele>
        <time>2022-07-27T10:02:35Z</time>
      </trkpt>
      <trkpt lat="45.64188" lon="6.57558">
        <ele>1590</ele>
        <time>2022-07-27T10:02:36Z</time>
      </trkpt>
      <trkpt lat="45.64188" lon="6.57558">
        <ele>1590</ele>
        <time>2022-07-27T10:02:37Z</time>
      </trkpt>
      <trkpt lat="45.64187" lon="6.57557">
        <ele>1590</ele>
        <time>2022-07-27T10:02:38Z</time>
      </trkpt>
      <trkpt lat="45.64186" lon="6.57557">
        <ele>1590</ele>
        <time>2022-07-27T10:02:39Z</time>
      </trkpt>
      <trkpt lat="45.64186" lon="6.57556">
        <ele>1591</ele>
        <time>2022-07-27T10:02:40Z</time>
      </trkpt>
      <trkpt lat="45.64185" lon="6.57556">
        <ele>1591</ele>
        <time>2022-07-27T10:02:41Z</time>
      </trkpt>
      <trkpt lat="45.64184" lon="6.57555">
        <ele>1591</ele>
        <time>2022-07-27T10:02:42Z</time>
      </trkpt>
      <trkpt lat="45.64183" lon="6.57554">
        <ele>1591</ele>
        <time>2022-07-27T10:02:43Z</time>
      </trkpt>
      <trkpt lat="45.64183" lon="6.57554">
        <ele>1591</ele>
        <time>2022-07-27T10:02:44Z</time>
      </trkpt>
      <trkpt lat="45.64182" lon="6.57553">
        <ele>1591</ele>
        <time>2022-07-27T10:02:45Z</time>
      </trkpt>
      <trkpt lat="45.64181" lon="6.57551">
        <ele>1594</ele>
        <time>2022-07-27T10:03:52Z</time>
      </trkpt>
      <trkpt lat="45.6418" lon="6.5755">
        <ele>1594</ele>
        <time>2022-07-27T10:03:53Z</time>
      </trkpt>
      <trkpt lat="45.6418" lon="6.5755">
        <ele>1594</ele>
        <time>2022-07-27T10:03:54Z</time>
      </trkpt>
      <trkpt lat="45.6418" lon="6.57549">
        <ele>1594</ele>
        <time>2022-07-27T10:03:55Z</time>
      </trkpt>
      <trkpt lat="45.6418" lon="6.57548">
        <ele>1594</ele>
        <time>2022-07-27T10:03:56Z</time>
      </trkpt>
      <trkpt lat="45.64181" lon="6.57548">
        <ele>1594</ele>
        <time>2022-07-27T10:03:57Z</time>
      </trkpt>
      <trkpt lat="45.64181" lon="6.57547">
        <ele>1594</ele>
        <time>2022-07-27T10:03:58Z</time>
      </trkpt>
      <trkpt lat="45.64182" lon="6.57547">
        <ele>1594</ele>
        <time>2022-07-27T10:03:59Z</time>
      </trkpt>
      <trkpt lat="45.64183" lon="6.57547">
        <ele>1594</ele>
        <time>2022-07-27T10:04:00Z</time>
      </trkpt>
      <trkpt lat="45.64184" lon="6.57547">
        <ele>1594</ele>
        <time>2022-07-27T10:04:01Z</time>
      </trkpt>
      <trkpt lat="45.64185" lon="6.57547">
        <ele>1594</ele>
        <time>2022-07-27T10:04:02Z</time>
      </trkpt>
      <trkpt lat="45.64186" lon="6.57546">
        <ele>1594</ele>
        <time>2022-07-27T10:04:03Z</time>
      </trkpt>
      <trkpt lat="45.64186" lon="6.57546">
        <ele>1594</ele>
        <time>2022-07-27T10:04:04Z</time>
      </trkpt>
      <trkpt lat="45.64187" lon="6.57546">
        <ele>1595</ele>
        <time>2022-07-27T10:04:05Z</time>
      </trkpt>
      <trkpt lat="45.64188" lon="6.57546">
        <ele>1595</ele>
        <time>2022-07-27T10:04:06Z</time>
      </trkpt>
      <trkpt lat="45.64189" lon="6.57546">
        <ele>1595</ele>
        <time>2022-07-27T10:04:07Z</time>
      </trkpt>
      <trkpt lat="45.64189" lon="6.57545">
        <ele>1595</ele>
        <time>2022-07-27T10:04:08Z</time>
      </trkpt>
      <trkpt lat="45.6419" lon="6.57544">
        <ele>1595</ele>
        <time>2022-07-27T10:04:09Z</time>
      </trkpt>
      <trkpt lat="45.6419" lon="6.57544">
        <ele>1595</ele>
        <time>2022-07-27T10:04:10Z</time>
      </trkpt>
      <trkpt lat="45.64191" lon="6.57543">
        <ele>1595</ele>
        <time>2022-07-27T10:04:11Z</time>
      </trkpt>
      <trkpt lat="45.64191" lon="6.57542">
        <ele>1595</ele>
        <time>2022-07-27T10:04:12Z</time>
      </trkpt>
      <trkpt lat="45.64192" lon="6.57541">
        <ele>1595</ele>
        <time>2022-07-27T10:04:13Z</time>
      </trkpt>
      <trkpt lat="45.64192" lon="6.57541">
        <ele>1595</ele>
        <time>2022-07-27T10:04:14Z</time>
      </trkpt>
      <trkpt lat="45.64192" lon="6.5754">
        <ele>1597</ele>
        <time>2022-07-27T10:04:22Z</time>
      </trkpt>
      <trkpt lat="45.64193" lon="6.5754">
        <ele>1597</ele>
        <time>2022-07-27T10:04:23Z</time>
      </trkpt>
      <trkpt lat="45.64193" lon="6.57539">
        <ele>1597</ele>
        <time>2022-07-27T10:04:24Z</time>
      </trkpt>
      <trkpt lat="45.64193" lon="6.57538">
        <ele>1597</ele>
        <time>2022-07-27T10:04:25Z</time>
      </trkpt>
      <trkpt lat="45.64193" lon="6.57538">
        <ele>1597</ele>
        <time>2022-07-27T10:04:26Z</time>
      </trkpt>
      <trkpt lat="45.64193" lon="6.57537">
        <ele>1597</ele>
        <time>2022-07-27T10:04:27Z</time>
      </trkpt>
      <trkpt lat="45.64193" lon="6.57536">
        <ele>1597</ele>
        <time>2022-07-27T10:04:28Z</time>
      </trkpt>
      <trkpt lat="45.64193" lon="6.57535">
        <ele>1597</ele>
        <time>2022-07-27T10:04:29Z</time>
      </trkpt>
      <trkpt lat="45.64193" lon="6.57535">
        <ele>1598</ele>
        <time>2022-07-27T10:04:30Z</time>
      </trkpt>
      <trkpt lat="45.64193" lon="6.57534">
        <ele>1598</ele>
        <time>2022-07-27T10:04:31Z</time>
      </trkpt>
      <trkpt lat="45.64193" lon="6.57534">
        <ele>1598</ele>
        <time>2022-07-27T10:04:32Z</time>
      </trkpt>
      <trkpt lat="45.64194" lon="6.5753">
        <ele>1598</ele>
        <time>2022-07-27T10:04:41Z</time>
      </trkpt>
      <trkpt lat="45.64194" lon="6.57529">
        <ele>1598</ele>
        <time>2022-07-27T10:04:42Z</time>
      </trkpt>
      <trkpt lat="45.64195" lon="6.57528">
        <ele>1598</ele>
        <time>2022-07-27T10:04:43Z</time>
      </trkpt>
      <trkpt lat="45.64195" lon="6.57526">
        <ele>1598</ele>
        <time>2022-07-27T10:04:44Z</time>
      </trkpt>
      <trkpt lat="45.64195" lon="6.57525">
        <ele>1599</ele>
        <time>2022-07-27T10:04:45Z</time>
      </trkpt>
      <trkpt lat="45.64195" lon="6.57524">
        <ele>1599</ele>
        <time>2022-07-27T10:04:46Z</time>
      </trkpt>
      <trkpt lat="45.64196" lon="6.57523">
        <ele>1599</ele>
        <time>2022-07-27T10:04:47Z</time>
      </trkpt>
      <trkpt lat="45.64196" lon="6.57523">
        <ele>1599</ele>
        <time>2022-07-27T10:04:48Z</time>
      </trkpt>
      <trkpt lat="45.64196" lon="6.57522">
        <ele>1599</ele>
        <time>2022-07-27T10:04:49Z</time>
      </trkpt>
      <trkpt lat="45.64196" lon="6.57521">
        <ele>1600</ele>
        <time>2022-07-27T10:04:50Z</time>
      </trkpt>
      <trkpt lat="45.64197" lon="6.5752">
        <ele>1600</ele>
        <time>2022-07-27T10:04:51Z</time>
      </trkpt>
      <trkpt lat="45.64197" lon="6.57519">
        <ele>1600</ele>
        <time>2022-07-27T10:04:52Z</time>
      </trkpt>
      <trkpt lat="45.64197" lon="6.57518">
        <ele>1600</ele>
        <time>2022-07-27T10:04:53Z</time>
      </trkpt>
      <trkpt lat="45.64198" lon="6.57517">
        <ele>1600</ele>
        <time>2022-07-27T10:04:54Z</time>
      </trkpt>
      <trkpt lat="45.64198" lon="6.57514">
        <ele>1605</ele>
        <time>2022-07-27T10:06:08Z</time>
      </trkpt>
      <trkpt lat="45.64198" lon="6.57512">
        <ele>1605</ele>
        <time>2022-07-27T10:06:09Z</time>
      </trkpt>
      <trkpt lat="45.64198" lon="6.5751">
        <ele>1605</ele>
        <time>2022-07-27T10:06:10Z</time>
      </trkpt>
      <trkpt lat="45.64198" lon="6.57509">
        <ele>1605</ele>
        <time>2022-07-27T10:06:11Z</time>
      </trkpt>
      <trkpt lat="45.64198" lon="6.57508">
        <ele>1605</ele>
        <time>2022-07-27T10:06:12Z</time>
      </trkpt>
      <trkpt lat="45.64197" lon="6.57507">
        <ele>1605</ele>
        <time>2022-07-27T10:06:13Z</time>
      </trkpt>
      <trkpt lat="45.64197" lon="6.57505">
        <ele>1605</ele>
        <time>2022-07-27T10:06:14Z</time>
      </trkpt>
      <trkpt lat="45.64196" lon="6.57504">
        <ele>1606</ele>
        <time>2022-07-27T10:06:15Z</time>
      </trkpt>
      <trkpt lat="45.64196" lon="6.57502">
        <ele>1606</ele>
        <time>2022-07-27T10:06:16Z</time>
      </trkpt>
      <trkpt lat="45.64195" lon="6.57501">
        <ele>1606</ele>
        <time>2022-07-27T10:06:17Z</time>
      </trkpt>
      <trkpt lat="45.64195" lon="6.57499">
        <ele>1606</ele>
        <time>2022-07-27T10:06:18Z</time>
      </trkpt>
      <trkpt lat="45.64195" lon="6.57498">
        <ele>1606</ele>
        <time>2022-07-27T10:06:19Z</time>
      </trkpt>
      <trkpt lat="45.64195" lon="6.57497">
        <ele>1606</ele>
        <time>2022-07-27T10:06:20Z</time>
      </trkpt>
      <trkpt lat="45.64194" lon="6.57496">
        <ele>1606</ele>
        <time>2022-07-27T10:06:21Z</time>
      </trkpt>
      <trkpt lat="45.64194" lon="6.57495">
        <ele>1606</ele>
        <time>2022-07-27T10:06:22Z</time>
      </trkpt>
      <trkpt lat="45.64194" lon="6.57493">
        <ele>1606</ele>
        <time>2022-07-27T10:06:23Z</time>
      </trkpt>
      <trkpt lat="45.64193" lon="6.57492">
        <ele>1606</ele>
        <time>2022-07-27T10:06:24Z</time>
      </trkpt>
      <trkpt lat="45.64193" lon="6.57491">
        <ele>1606</ele>
        <time>2022-07-27T10:06:25Z</time>
      </trkpt>
      <trkpt lat="45.64193" lon="6.5749">
        <ele>1606</ele>
        <time>2022-07-27T10:06:26Z</time>
      </trkpt>
      <trkpt lat="45.64193" lon="6.57489">
        <ele>1606</ele>
        <time>2022-07-27T10:06:27Z</time>
      </trkpt>
      <trkpt lat="45.64193" lon="6.57488">
        <ele>1606</ele>
        <time>2022-07-27T10:06:28Z</time>
      </trkpt>
      <trkpt lat="45.64193" lon="6.57487">
        <ele>1606</ele>
        <time>2022-07-27T10:06:29Z</time>
      </trkpt>
      <trkpt lat="45.64192" lon="6.57486">
        <ele>1607</ele>
        <time>2022-07-27T10:06:30Z</time>
      </trkpt>
      <trkpt lat="45.64192" lon="6.57485">
        <ele>1607</ele>
        <time>2022-07-27T10:06:31Z</time>
      </trkpt>
      <trkpt lat="45.64192" lon="6.57484">
        <ele>1607</ele>
        <time>2022-07-27T10:06:32Z</time>
      </trkpt>
      <trkpt lat="45.64191" lon="6.57483">
        <ele>1607</ele>
        <time>2022-07-27T10:06:33Z</time>
      </trkpt>
      <trkpt lat="45.64191" lon="6.57482">
        <ele>1607</ele>
        <time>2022-07-27T10:06:34Z</time>
      </trkpt>
      <trkpt lat="45.6419" lon="6.57481">
        <ele>1607</ele>
        <time>2022-07-27T10:06:35Z</time>
      </trkpt>
      <trkpt lat="45.6419" lon="6.5748">
        <ele>1607</ele>
        <time>2022-07-27T10:06:36Z</time>
      </trkpt>
      <trkpt lat="45.64189" lon="6.57479">
        <ele>1607</ele>
        <time>2022-07-27T10:06:37Z</time>
      </trkpt>
      <trkpt lat="45.64188" lon="6.57478">
        <ele>1607</ele>
        <time>2022-07-27T10:06:38Z</time>
      </trkpt>
      <trkpt lat="45.64188" lon="6.57477">
        <ele>1607</ele>
        <time>2022-07-27T10:06:39Z</time>
      </trkpt>
      <trkpt lat="45.64187" lon="6.57476">
        <ele>1608</ele>
        <time>2022-07-27T10:06:40Z</time>
      </trkpt>
      <trkpt lat="45.64186" lon="6.57475">
        <ele>1608</ele>
        <time>2022-07-27T10:06:41Z</time>
      </trkpt>
      <trkpt lat="45.64186" lon="6.57474">
        <ele>1608</ele>
        <time>2022-07-27T10:06:42Z</time>
      </trkpt>
      <trkpt lat="45.64185" lon="6.57473">
        <ele>1608</ele>
        <time>2022-07-27T10:06:43Z</time>
      </trkpt>
      <trkpt lat="45.64185" lon="6.57473">
        <ele>1608</ele>
        <time>2022-07-27T10:06:44Z</time>
      </trkpt>
      <trkpt lat="45.64184" lon="6.57472">
        <ele>1609</ele>
        <time>2022-07-27T10:06:45Z</time>
      </trkpt>
      <trkpt lat="45.64183" lon="6.57472">
        <ele>1609</ele>
        <time>2022-07-27T10:06:46Z</time>
      </trkpt>
      <trkpt lat="45.64182" lon="6.57471">
        <ele>1609</ele>
        <time>2022-07-27T10:06:47Z</time>
      </trkpt>
      <trkpt lat="45.64181" lon="6.57471">
        <ele>1609</ele>
        <time>2022-07-27T10:06:48Z</time>
      </trkpt>
      <trkpt lat="45.6418" lon="6.5747">
        <ele>1609</ele>
        <time>2022-07-27T10:06:49Z</time>
      </trkpt>
      <trkpt lat="45.64179" lon="6.57469">
        <ele>1609</ele>
        <time>2022-07-27T10:06:50Z</time>
      </trkpt>
      <trkpt lat="45.64178" lon="6.57468">
        <ele>1609</ele>
        <time>2022-07-27T10:06:51Z</time>
      </trkpt>
      <trkpt lat="45.64177" lon="6.57468">
        <ele>1609</ele>
        <time>2022-07-27T10:06:52Z</time>
      </trkpt>
      <trkpt lat="45.64177" lon="6.57467">
        <ele>1609</ele>
        <time>2022-07-27T10:06:53Z</time>
      </trkpt>
      <trkpt lat="45.64176" lon="6.57466">
        <ele>1609</ele>
        <time>2022-07-27T10:06:54Z</time>
      </trkpt>
      <trkpt lat="45.64175" lon="6.57465">
        <ele>1609</ele>
        <time>2022-07-27T10:06:55Z</time>
      </trkpt>
      <trkpt lat="45.64175" lon="6.57465">
        <ele>1609</ele>
        <time>2022-07-27T10:06:56Z</time>
      </trkpt>
      <trkpt lat="45.64174" lon="6.57464">
        <ele>1609</ele>
        <time>2022-07-27T10:06:57Z</time>
      </trkpt>
      <trkpt lat="45.64173" lon="6.57463">
        <ele>1609</ele>
        <time>2022-07-27T10:06:58Z</time>
      </trkpt>
      <trkpt lat="45.64172" lon="6.57463">
        <ele>1609</ele>
        <time>2022-07-27T10:06:59Z</time>
      </trkpt>
      <trkpt lat="45.64172" lon="6.57462">
        <ele>1610</ele>
        <time>2022-07-27T10:07:00Z</time>
      </trkpt>
      <trkpt lat="45.64171" lon="6.57461">
        <ele>1610</ele>
        <time>2022-07-27T10:07:01Z</time>
      </trkpt>
      <trkpt lat="45.6417" lon="6.57461">
        <ele>1610</ele>
        <time>2022-07-27T10:07:02Z</time>
      </trkpt>
      <trkpt lat="45.64169" lon="6.57461">
        <ele>1610</ele>
        <time>2022-07-27T10:07:03Z</time>
      </trkpt>
      <trkpt lat="45.64168" lon="6.5746">
        <ele>1610</ele>
        <time>2022-07-27T10:07:04Z</time>
      </trkpt>
      <trkpt lat="45.64167" lon="6.5746">
        <ele>1610</ele>
        <time>2022-07-27T10:07:05Z</time>
      </trkpt>
      <trkpt lat="45.64166" lon="6.57459">
        <ele>1610</ele>
        <time>2022-07-27T10:07:06Z</time>
      </trkpt>
      <trkpt lat="45.64165" lon="6.57459">
        <ele>1610</ele>
        <time>2022-07-27T10:07:07Z</time>
      </trkpt>
      <trkpt lat="45.64164" lon="6.57459">
        <ele>1610</ele>
        <time>2022-07-27T10:07:08Z</time>
      </trkpt>
      <trkpt lat="45.64164" lon="6.57458">
        <ele>1610</ele>
        <time>2022-07-27T10:07:09Z</time>
      </trkpt>
      <trkpt lat="45.64163" lon="6.57457">
        <ele>1610</ele>
        <time>2022-07-27T10:07:10Z</time>
      </trkpt>
      <trkpt lat="45.64162" lon="6.57456">
        <ele>1610</ele>
        <time>2022-07-27T10:07:11Z</time>
      </trkpt>
      <trkpt lat="45.64161" lon="6.57456">
        <ele>1610</ele>
        <time>2022-07-27T10:07:12Z</time>
      </trkpt>
      <trkpt lat="45.6416" lon="6.57455">
        <ele>1610</ele>
        <time>2022-07-27T10:07:13Z</time>
      </trkpt>
      <trkpt lat="45.6416" lon="6.57454">
        <ele>1610</ele>
        <time>2022-07-27T10:07:14Z</time>
      </trkpt>
      <trkpt lat="45.64159" lon="6.57453">
        <ele>1611</ele>
        <time>2022-07-27T10:07:15Z</time>
      </trkpt>
      <trkpt lat="45.64158" lon="6.57452">
        <ele>1611</ele>
        <time>2022-07-27T10:07:16Z</time>
      </trkpt>
      <trkpt lat="45.64158" lon="6.57452">
        <ele>1611</ele>
        <time>2022-07-27T10:07:17Z</time>
      </trkpt>
      <trkpt lat="45.64157" lon="6.57451">
        <ele>1611</ele>
        <time>2022-07-27T10:07:18Z</time>
      </trkpt>
      <trkpt lat="45.64156" lon="6.5745">
        <ele>1611</ele>
        <time>2022-07-27T10:07:19Z</time>
      </trkpt>
      <trkpt lat="45.64156" lon="6.57449">
        <ele>1611</ele>
        <time>2022-07-27T10:07:20Z</time>
      </trkpt>
      <trkpt lat="45.64155" lon="6.57448">
        <ele>1611</ele>
        <time>2022-07-27T10:07:21Z</time>
      </trkpt>
      <trkpt lat="45.64155" lon="6.57447">
        <ele>1611</ele>
        <time>2022-07-27T10:07:22Z</time>
      </trkpt>
      <trkpt lat="45.64154" lon="6.57446">
        <ele>1611</ele>
        <time>2022-07-27T10:07:23Z</time>
      </trkpt>
      <trkpt lat="45.64153" lon="6.57445">
        <ele>1611</ele>
        <time>2022-07-27T10:07:24Z</time>
      </trkpt>
      <trkpt lat="45.64153" lon="6.57444">
        <ele>1611</ele>
        <time>2022-07-27T10:07:25Z</time>
      </trkpt>
      <trkpt lat="45.64152" lon="6.57442">
        <ele>1611</ele>
        <time>2022-07-27T10:07:26Z</time>
      </trkpt>
      <trkpt lat="45.64152" lon="6.57441">
        <ele>1611</ele>
        <time>2022-07-27T10:07:27Z</time>
      </trkpt>
      <trkpt lat="45.64151" lon="6.5744">
        <ele>1611</ele>
        <time>2022-07-27T10:07:28Z</time>
      </trkpt>
      <trkpt lat="45.64151" lon="6.57439">
        <ele>1611</ele>
        <time>2022-07-27T10:07:29Z</time>
      </trkpt>
      <trkpt lat="45.64151" lon="6.57438">
        <ele>1612</ele>
        <time>2022-07-27T10:07:30Z</time>
      </trkpt>
      <trkpt lat="45.6415" lon="6.57437">
        <ele>1612</ele>
        <time>2022-07-27T10:07:31Z</time>
      </trkpt>
      <trkpt lat="45.6415" lon="6.57435">
        <ele>1612</ele>
        <time>2022-07-27T10:07:32Z</time>
      </trkpt>
      <trkpt lat="45.6415" lon="6.57434">
        <ele>1612</ele>
        <time>2022-07-27T10:07:33Z</time>
      </trkpt>
      <trkpt lat="45.6415" lon="6.57433">
        <ele>1612</ele>
        <time>2022-07-27T10:07:34Z</time>
      </trkpt>
      <trkpt lat="45.64149" lon="6.57432">
        <ele>1612</ele>
        <time>2022-07-27T10:07:35Z</time>
      </trkpt>
      <trkpt lat="45.64149" lon="6.57431">
        <ele>1612</ele>
        <time>2022-07-27T10:07:36Z</time>
      </trkpt>
      <trkpt lat="45.64149" lon="6.5743">
        <ele>1612</ele>
        <time>2022-07-27T10:07:37Z</time>
      </trkpt>
      <trkpt lat="45.64148" lon="6.57429">
        <ele>1612</ele>
        <time>2022-07-27T10:07:38Z</time>
      </trkpt>
      <trkpt lat="45.64148" lon="6.57428">
        <ele>1612</ele>
        <time>2022-07-27T10:07:39Z</time>
      </trkpt>
      <trkpt lat="45.64148" lon="6.57427">
        <ele>1612</ele>
        <time>2022-07-27T10:07:40Z</time>
      </trkpt>
      <trkpt lat="45.64147" lon="6.57426">
        <ele>1612</ele>
        <time>2022-07-27T10:07:41Z</time>
      </trkpt>
      <trkpt lat="45.64147" lon="6.57425">
        <ele>1612</ele>
        <time>2022-07-27T10:07:42Z</time>
      </trkpt>
      <trkpt lat="45.64146" lon="6.57425">
        <ele>1612</ele>
        <time>2022-07-27T10:07:43Z</time>
      </trkpt>
      <trkpt lat="45.64145" lon="6.57424">
        <ele>1612</ele>
        <time>2022-07-27T10:07:44Z</time>
      </trkpt>
      <trkpt lat="45.64145" lon="6.57423">
        <ele>1613</ele>
        <time>2022-07-27T10:07:45Z</time>
      </trkpt>
      <trkpt lat="45.64144" lon="6.57422">
        <ele>1613</ele>
        <time>2022-07-27T10:07:46Z</time>
      </trkpt>
      <trkpt lat="45.64144" lon="6.57421">
        <ele>1613</ele>
        <time>2022-07-27T10:07:47Z</time>
      </trkpt>
      <trkpt lat="45.64144" lon="6.5742">
        <ele>1613</ele>
        <time>2022-07-27T10:07:48Z</time>
      </trkpt>
      <trkpt lat="45.64143" lon="6.57419">
        <ele>1613</ele>
        <time>2022-07-27T10:07:49Z</time>
      </trkpt>
      <trkpt lat="45.64143" lon="6.57419">
        <ele>1613</ele>
        <time>2022-07-27T10:07:50Z</time>
      </trkpt>
      <trkpt lat="45.64143" lon="6.57418">
        <ele>1613</ele>
        <time>2022-07-27T10:07:51Z</time>
      </trkpt>
      <trkpt lat="45.64143" lon="6.57417">
        <ele>1613</ele>
        <time>2022-07-27T10:07:52Z</time>
      </trkpt>
      <trkpt lat="45.64142" lon="6.57416">
        <ele>1613</ele>
        <time>2022-07-27T10:07:53Z</time>
      </trkpt>
      <trkpt lat="45.64142" lon="6.57415">
        <ele>1613</ele>
        <time>2022-07-27T10:07:54Z</time>
      </trkpt>
      <trkpt lat="45.64141" lon="6.57415">
        <ele>1614</ele>
        <time>2022-07-27T10:07:55Z</time>
      </trkpt>
      <trkpt lat="45.64141" lon="6.57414">
        <ele>1614</ele>
        <time>2022-07-27T10:07:56Z</time>
      </trkpt>
      <trkpt lat="45.6414" lon="6.57413">
        <ele>1614</ele>
        <time>2022-07-27T10:07:57Z</time>
      </trkpt>
      <trkpt lat="45.64139" lon="6.57412">
        <ele>1614</ele>
        <time>2022-07-27T10:07:58Z</time>
      </trkpt>
      <trkpt lat="45.64139" lon="6.57412">
        <ele>1614</ele>
        <time>2022-07-27T10:07:59Z</time>
      </trkpt>
      <trkpt lat="45.64138" lon="6.57411">
        <ele>1615</ele>
        <time>2022-07-27T10:08:00Z</time>
      </trkpt>
      <trkpt lat="45.64137" lon="6.5741">
        <ele>1615</ele>
        <time>2022-07-27T10:08:01Z</time>
      </trkpt>
      <trkpt lat="45.64137" lon="6.57409">
        <ele>1615</ele>
        <time>2022-07-27T10:08:02Z</time>
      </trkpt>
      <trkpt lat="45.64136" lon="6.57409">
        <ele>1615</ele>
        <time>2022-07-27T10:08:03Z</time>
      </trkpt>
      <trkpt lat="45.64135" lon="6.57408">
        <ele>1615</ele>
        <time>2022-07-27T10:08:04Z</time>
      </trkpt>
      <trkpt lat="45.64135" lon="6.57407">
        <ele>1615</ele>
        <time>2022-07-27T10:08:05Z</time>
      </trkpt>
      <trkpt lat="45.64134" lon="6.57406">
        <ele>1615</ele>
        <time>2022-07-27T10:08:06Z</time>
      </trkpt>
      <trkpt lat="45.64134" lon="6.57406">
        <ele>1615</ele>
        <time>2022-07-27T10:08:07Z</time>
      </trkpt>
      <trkpt lat="45.64133" lon="6.57405">
        <ele>1615</ele>
        <time>2022-07-27T10:08:08Z</time>
      </trkpt>
      <trkpt lat="45.64133" lon="6.57404">
        <ele>1615</ele>
        <time>2022-07-27T10:08:09Z</time>
      </trkpt>
      <trkpt lat="45.64132" lon="6.57403">
        <ele>1616</ele>
        <time>2022-07-27T10:08:10Z</time>
      </trkpt>
      <trkpt lat="45.64132" lon="6.57403">
        <ele>1616</ele>
        <time>2022-07-27T10:08:11Z</time>
      </trkpt>
      <trkpt lat="45.64132" lon="6.57402">
        <ele>1616</ele>
        <time>2022-07-27T10:08:12Z</time>
      </trkpt>
      <trkpt lat="45.64132" lon="6.57402">
        <ele>1616</ele>
        <time>2022-07-27T10:08:13Z</time>
      </trkpt>
      <trkpt lat="45.64132" lon="6.57401">
        <ele>1616</ele>
        <time>2022-07-27T10:08:14Z</time>
      </trkpt>
      <trkpt lat="45.64131" lon="6.57401">
        <ele>1617</ele>
        <time>2022-07-27T10:08:15Z</time>
      </trkpt>
      <trkpt lat="45.64131" lon="6.574">
        <ele>1617</ele>
        <time>2022-07-27T10:08:16Z</time>
      </trkpt>
      <trkpt lat="45.64131" lon="6.57399">
        <ele>1617</ele>
        <time>2022-07-27T10:08:17Z</time>
      </trkpt>
      <trkpt lat="45.64131" lon="6.57398">
        <ele>1617</ele>
        <time>2022-07-27T10:08:18Z</time>
      </trkpt>
      <trkpt lat="45.64131" lon="6.57398">
        <ele>1617</ele>
        <time>2022-07-27T10:08:19Z</time>
      </trkpt>
      <trkpt lat="45.6413" lon="6.57396">
        <ele>1618</ele>
        <time>2022-07-27T10:08:25Z</time>
      </trkpt>
      <trkpt lat="45.64129" lon="6.57395">
        <ele>1618</ele>
        <time>2022-07-27T10:08:26Z</time>
      </trkpt>
      <trkpt lat="45.64129" lon="6.57394">
        <ele>1618</ele>
        <time>2022-07-27T10:08:27Z</time>
      </trkpt>
      <trkpt lat="45.64128" lon="6.57393">
        <ele>1618</ele>
        <time>2022-07-27T10:08:28Z</time>
      </trkpt>
      <trkpt lat="45.64127" lon="6.57392">
        <ele>1618</ele>
        <time>2022-07-27T10:08:29Z</time>
      </trkpt>
      <trkpt lat="45.64127" lon="6.57391">
        <ele>1619</ele>
        <time>2022-07-27T10:08:30Z</time>
      </trkpt>
      <trkpt lat="45.64126" lon="6.57391">
        <ele>1619</ele>
        <time>2022-07-27T10:08:31Z</time>
      </trkpt>
      <trkpt lat="45.64126" lon="6.5739">
        <ele>1619</ele>
        <time>2022-07-27T10:08:32Z</time>
      </trkpt>
      <trkpt lat="45.64126" lon="6.5739">
        <ele>1619</ele>
        <time>2022-07-27T10:08:33Z</time>
      </trkpt>
      <trkpt lat="45.64125" lon="6.57389">
        <ele>1619</ele>
        <time>2022-07-27T10:08:34Z</time>
      </trkpt>
      <trkpt lat="45.64125" lon="6.57389">
        <ele>1619</ele>
        <time>2022-07-27T10:08:35Z</time>
      </trkpt>
      <trkpt lat="45.64123" lon="6.57386">
        <ele>1620</ele>
        <time>2022-07-27T10:08:43Z</time>
      </trkpt>
      <trkpt lat="45.64123" lon="6.57385">
        <ele>1620</ele>
        <time>2022-07-27T10:08:44Z</time>
      </trkpt>
      <trkpt lat="45.64122" lon="6.57384">
        <ele>1621</ele>
        <time>2022-07-27T10:08:45Z</time>
      </trkpt>
      <trkpt lat="45.64122" lon="6.57383">
        <ele>1621</ele>
        <time>2022-07-27T10:08:46Z</time>
      </trkpt>
      <trkpt lat="45.64121" lon="6.57382">
        <ele>1621</ele>
        <time>2022-07-27T10:08:47Z</time>
      </trkpt>
      <trkpt lat="45.64121" lon="6.57381">
        <ele>1621</ele>
        <time>2022-07-27T10:08:48Z</time>
      </trkpt>
      <trkpt lat="45.64121" lon="6.57381">
        <ele>1621</ele>
        <time>2022-07-27T10:08:49Z</time>
      </trkpt>
      <trkpt lat="45.6412" lon="6.5738">
        <ele>1621</ele>
        <time>2022-07-27T10:08:50Z</time>
      </trkpt>
      <trkpt lat="45.6412" lon="6.57379">
        <ele>1621</ele>
        <time>2022-07-27T10:08:51Z</time>
      </trkpt>
      <trkpt lat="45.64119" lon="6.57378">
        <ele>1621</ele>
        <time>2022-07-27T10:08:52Z</time>
      </trkpt>
      <trkpt lat="45.64119" lon="6.57378">
        <ele>1621</ele>
        <time>2022-07-27T10:08:53Z</time>
      </trkpt>
      <trkpt lat="45.64118" lon="6.57377">
        <ele>1621</ele>
        <time>2022-07-27T10:08:54Z</time>
      </trkpt>
      <trkpt lat="45.64118" lon="6.57376">
        <ele>1622</ele>
        <time>2022-07-27T10:08:55Z</time>
      </trkpt>
      <trkpt lat="45.64117" lon="6.57376">
        <ele>1622</ele>
        <time>2022-07-27T10:08:56Z</time>
      </trkpt>
      <trkpt lat="45.64117" lon="6.57375">
        <ele>1622</ele>
        <time>2022-07-27T10:08:57Z</time>
      </trkpt>
      <trkpt lat="45.64116" lon="6.57375">
        <ele>1622</ele>
        <time>2022-07-27T10:08:58Z</time>
      </trkpt>
      <trkpt lat="45.64115" lon="6.57374">
        <ele>1622</ele>
        <time>2022-07-27T10:08:59Z</time>
      </trkpt>
      <trkpt lat="45.64115" lon="6.57373">
        <ele>1622</ele>
        <time>2022-07-27T10:09:00Z</time>
      </trkpt>
      <trkpt lat="45.64114" lon="6.57373">
        <ele>1622</ele>
        <time>2022-07-27T10:09:01Z</time>
      </trkpt>
      <trkpt lat="45.64114" lon="6.57372">
        <ele>1622</ele>
        <time>2022-07-27T10:09:02Z</time>
      </trkpt>
      <trkpt lat="45.64114" lon="6.57372">
        <ele>1622</ele>
        <time>2022-07-27T10:09:03Z</time>
      </trkpt>
      <trkpt lat="45.64114" lon="6.57371">
        <ele>1622</ele>
        <time>2022-07-27T10:09:04Z</time>
      </trkpt>
      <trkpt lat="45.64114" lon="6.57371">
        <ele>1623</ele>
        <time>2022-07-27T10:09:05Z</time>
      </trkpt>
      <trkpt lat="45.64114" lon="6.5737">
        <ele>1623</ele>
        <time>2022-07-27T10:09:06Z</time>
      </trkpt>
      <trkpt lat="45.64114" lon="6.5737">
        <ele>1623</ele>
        <time>2022-07-27T10:09:07Z</time>
      </trkpt>
      <trkpt lat="45.64115" lon="6.57369">
        <ele>1623</ele>
        <time>2022-07-27T10:09:08Z</time>
      </trkpt>
      <trkpt lat="45.64115" lon="6.57369">
        <ele>1623</ele>
        <time>2022-07-27T10:09:09Z</time>
      </trkpt>
      <trkpt lat="45.64116" lon="6.57368">
        <ele>1624</ele>
        <time>2022-07-27T10:09:10Z</time>
      </trkpt>
      <trkpt lat="45.64116" lon="6.57368">
        <ele>1624</ele>
        <time>2022-07-27T10:09:11Z</time>
      </trkpt>
      <trkpt lat="45.64117" lon="6.57367">
        <ele>1624</ele>
        <time>2022-07-27T10:09:12Z</time>
      </trkpt>
      <trkpt lat="45.64117" lon="6.57366">
        <ele>1624</ele>
        <time>2022-07-27T10:09:13Z</time>
      </trkpt>
      <trkpt lat="45.64117" lon="6.57365">
        <ele>1624</ele>
        <time>2022-07-27T10:09:14Z</time>
      </trkpt>
      <trkpt lat="45.64118" lon="6.57364">
        <ele>1626</ele>
        <time>2022-07-27T10:09:26Z</time>
      </trkpt>
      <trkpt lat="45.64118" lon="6.57363">
        <ele>1626</ele>
        <time>2022-07-27T10:09:27Z</time>
      </trkpt>
      <trkpt lat="45.64118" lon="6.57362">
        <ele>1626</ele>
        <time>2022-07-27T10:09:28Z</time>
      </trkpt>
      <trkpt lat="45.64118" lon="6.57362">
        <ele>1626</ele>
        <time>2022-07-27T10:09:29Z</time>
      </trkpt>
      <trkpt lat="45.64117" lon="6.57361">
        <ele>1626</ele>
        <time>2022-07-27T10:09:30Z</time>
      </trkpt>
      <trkpt lat="45.64117" lon="6.5736">
        <ele>1626</ele>
        <time>2022-07-27T10:09:31Z</time>
      </trkpt>
      <trkpt lat="45.64117" lon="6.57359">
        <ele>1626</ele>
        <time>2022-07-27T10:09:32Z</time>
      </trkpt>
      <trkpt lat="45.64117" lon="6.57358">
        <ele>1626</ele>
        <time>2022-07-27T10:09:33Z</time>
      </trkpt>
      <trkpt lat="45.64117" lon="6.57356">
        <ele>1626</ele>
        <time>2022-07-27T10:09:34Z</time>
      </trkpt>
      <trkpt lat="45.64116" lon="6.57355">
        <ele>1626</ele>
        <time>2022-07-27T10:09:35Z</time>
      </trkpt>
      <trkpt lat="45.64116" lon="6.57354">
        <ele>1626</ele>
        <time>2022-07-27T10:09:36Z</time>
      </trkpt>
      <trkpt lat="45.64116" lon="6.57353">
        <ele>1626</ele>
        <time>2022-07-27T10:09:37Z</time>
      </trkpt>
      <trkpt lat="45.64116" lon="6.57352">
        <ele>1626</ele>
        <time>2022-07-27T10:09:38Z</time>
      </trkpt>
      <trkpt lat="45.64116" lon="6.57351">
        <ele>1626</ele>
        <time>2022-07-27T10:09:39Z</time>
      </trkpt>
      <trkpt lat="45.64115" lon="6.5735">
        <ele>1627</ele>
        <time>2022-07-27T10:09:40Z</time>
      </trkpt>
      <trkpt lat="45.64115" lon="6.57349">
        <ele>1627</ele>
        <time>2022-07-27T10:09:41Z</time>
      </trkpt>
      <trkpt lat="45.64115" lon="6.57348">
        <ele>1627</ele>
        <time>2022-07-27T10:09:42Z</time>
      </trkpt>
      <trkpt lat="45.64115" lon="6.57347">
        <ele>1627</ele>
        <time>2022-07-27T10:09:43Z</time>
      </trkpt>
      <trkpt lat="45.64115" lon="6.57346">
        <ele>1627</ele>
        <time>2022-07-27T10:09:44Z</time>
      </trkpt>
      <trkpt lat="45.64115" lon="6.57345">
        <ele>1627</ele>
        <time>2022-07-27T10:09:45Z</time>
      </trkpt>
      <trkpt lat="45.64115" lon="6.57344">
        <ele>1627</ele>
        <time>2022-07-27T10:09:46Z</time>
      </trkpt>
      <trkpt lat="45.64114" lon="6.57343">
        <ele>1627</ele>
        <time>2022-07-27T10:09:47Z</time>
      </trkpt>
      <trkpt lat="45.64114" lon="6.57342">
        <ele>1627</ele>
        <time>2022-07-27T10:09:48Z</time>
      </trkpt>
      <trkpt lat="45.64114" lon="6.57341">
        <ele>1627</ele>
        <time>2022-07-27T10:09:49Z</time>
      </trkpt>
      <trkpt lat="45.64114" lon="6.5734">
        <ele>1628</ele>
        <time>2022-07-27T10:09:50Z</time>
      </trkpt>
      <trkpt lat="45.64114" lon="6.5734">
        <ele>1628</ele>
        <time>2022-07-27T10:09:51Z</time>
      </trkpt>
      <trkpt lat="45.64114" lon="6.57339">
        <ele>1628</ele>
        <time>2022-07-27T10:09:52Z</time>
      </trkpt>
      <trkpt lat="45.64114" lon="6.57338">
        <ele>1628</ele>
        <time>2022-07-27T10:09:53Z</time>
      </trkpt>
      <trkpt lat="45.64114" lon="6.57337">
        <ele>1628</ele>
        <time>2022-07-27T10:09:54Z</time>
      </trkpt>
      <trkpt lat="45.64114" lon="6.57336">
        <ele>1629</ele>
        <time>2022-07-27T10:09:55Z</time>
      </trkpt>
      <trkpt lat="45.64114" lon="6.57335">
        <ele>1629</ele>
        <time>2022-07-27T10:09:56Z</time>
      </trkpt>
      <trkpt lat="45.64114" lon="6.57334">
        <ele>1629</ele>
        <time>2022-07-27T10:09:57Z</time>
      </trkpt>
      <trkpt lat="45.64115" lon="6.57333">
        <ele>1629</ele>
        <time>2022-07-27T10:09:58Z</time>
      </trkpt>
      <trkpt lat="45.64115" lon="6.57332">
        <ele>1629</ele>
        <time>2022-07-27T10:09:59Z</time>
      </trkpt>
      <trkpt lat="45.64115" lon="6.57331">
        <ele>1629</ele>
        <time>2022-07-27T10:10:00Z</time>
      </trkpt>
      <trkpt lat="45.64115" lon="6.57331">
        <ele>1629</ele>
        <time>2022-07-27T10:10:01Z</time>
      </trkpt>
      <trkpt lat="45.64116" lon="6.5733">
        <ele>1629</ele>
        <time>2022-07-27T10:10:02Z</time>
      </trkpt>
      <trkpt lat="45.64116" lon="6.5733">
        <ele>1629</ele>
        <time>2022-07-27T10:10:03Z</time>
      </trkpt>
      <trkpt lat="45.64116" lon="6.57329">
        <ele>1629</ele>
        <time>2022-07-27T10:10:04Z</time>
      </trkpt>
      <trkpt lat="45.64117" lon="6.57329">
        <ele>1630</ele>
        <time>2022-07-27T10:10:05Z</time>
      </trkpt>
      <trkpt lat="45.64117" lon="6.57328">
        <ele>1630</ele>
        <time>2022-07-27T10:10:06Z</time>
      </trkpt>
      <trkpt lat="45.64117" lon="6.57327">
        <ele>1630</ele>
        <time>2022-07-27T10:10:07Z</time>
      </trkpt>
      <trkpt lat="45.64118" lon="6.57326">
        <ele>1630</ele>
        <time>2022-07-27T10:10:08Z</time>
      </trkpt>
      <trkpt lat="45.64118" lon="6.57326">
        <ele>1630</ele>
        <time>2022-07-27T10:10:09Z</time>
      </trkpt>
      <trkpt lat="45.64118" lon="6.57325">
        <ele>1630</ele>
        <time>2022-07-27T10:10:10Z</time>
      </trkpt>
      <trkpt lat="45.64118" lon="6.57324">
        <ele>1630</ele>
        <time>2022-07-27T10:10:11Z</time>
      </trkpt>
      <trkpt lat="45.64119" lon="6.57323">
        <ele>1630</ele>
        <time>2022-07-27T10:10:12Z</time>
      </trkpt>
      <trkpt lat="45.64119" lon="6.57322">
        <ele>1630</ele>
        <time>2022-07-27T10:10:13Z</time>
      </trkpt>
      <trkpt lat="45.64119" lon="6.57321">
        <ele>1630</ele>
        <time>2022-07-27T10:10:14Z</time>
      </trkpt>
      <trkpt lat="45.6412" lon="6.5732">
        <ele>1631</ele>
        <time>2022-07-27T10:10:15Z</time>
      </trkpt>
      <trkpt lat="45.6412" lon="6.5732">
        <ele>1631</ele>
        <time>2022-07-27T10:10:16Z</time>
      </trkpt>
      <trkpt lat="45.6412" lon="6.57319">
        <ele>1631</ele>
        <time>2022-07-27T10:10:17Z</time>
      </trkpt>
      <trkpt lat="45.6412" lon="6.57319">
        <ele>1631</ele>
        <time>2022-07-27T10:10:18Z</time>
      </trkpt>
      <trkpt lat="45.6412" lon="6.57319">
        <ele>1631</ele>
        <time>2022-07-27T10:10:19Z</time>
      </trkpt>
      <trkpt lat="45.6412" lon="6.57317">
        <ele>1632</ele>
        <time>2022-07-27T10:10:20Z</time>
      </trkpt>
      <trkpt lat="45.6412" lon="6.57316">
        <ele>1632</ele>
        <time>2022-07-27T10:10:21Z</time>
      </trkpt>
      <trkpt lat="45.64121" lon="6.57315">
        <ele>1632</ele>
        <time>2022-07-27T10:10:22Z</time>
      </trkpt>
      <trkpt lat="45.64121" lon="6.57314">
        <ele>1632</ele>
        <time>2022-07-27T10:10:23Z</time>
      </trkpt>
      <trkpt lat="45.64121" lon="6.57313">
        <ele>1632</ele>
        <time>2022-07-27T10:10:24Z</time>
      </trkpt>
      <trkpt lat="45.64121" lon="6.57311">
        <ele>1633</ele>
        <time>2022-07-27T10:10:25Z</time>
      </trkpt>
      <trkpt lat="45.64122" lon="6.5731">
        <ele>1633</ele>
        <time>2022-07-27T10:10:26Z</time>
      </trkpt>
      <trkpt lat="45.64122" lon="6.57309">
        <ele>1633</ele>
        <time>2022-07-27T10:10:27Z</time>
      </trkpt>
      <trkpt lat="45.64122" lon="6.57308">
        <ele>1633</ele>
        <time>2022-07-27T10:10:28Z</time>
      </trkpt>
      <trkpt lat="45.64123" lon="6.57307">
        <ele>1633</ele>
        <time>2022-07-27T10:10:29Z</time>
      </trkpt>
      <trkpt lat="45.64123" lon="6.57306">
        <ele>1634</ele>
        <time>2022-07-27T10:10:30Z</time>
      </trkpt>
      <trkpt lat="45.64124" lon="6.57304">
        <ele>1634</ele>
        <time>2022-07-27T10:10:31Z</time>
      </trkpt>
      <trkpt lat="45.64124" lon="6.57304">
        <ele>1634</ele>
        <time>2022-07-27T10:10:32Z</time>
      </trkpt>
      <trkpt lat="45.64124" lon="6.57303">
        <ele>1634</ele>
        <time>2022-07-27T10:10:33Z</time>
      </trkpt>
      <trkpt lat="45.64124" lon="6.57302">
        <ele>1634</ele>
        <time>2022-07-27T10:10:34Z</time>
      </trkpt>
      <trkpt lat="45.64124" lon="6.57301">
        <ele>1634</ele>
        <time>2022-07-27T10:10:35Z</time>
      </trkpt>
      <trkpt lat="45.64124" lon="6.57299">
        <ele>1634</ele>
        <time>2022-07-27T10:10:36Z</time>
      </trkpt>
      <trkpt lat="45.64124" lon="6.57298">
        <ele>1634</ele>
        <time>2022-07-27T10:10:37Z</time>
      </trkpt>
      <trkpt lat="45.64123" lon="6.57297">
        <ele>1634</ele>
        <time>2022-07-27T10:10:38Z</time>
      </trkpt>
      <trkpt lat="45.64123" lon="6.57296">
        <ele>1634</ele>
        <time>2022-07-27T10:10:39Z</time>
      </trkpt>
      <trkpt lat="45.64123" lon="6.57294">
        <ele>1635</ele>
        <time>2022-07-27T10:10:40Z</time>
      </trkpt>
      <trkpt lat="45.64123" lon="6.57293">
        <ele>1635</ele>
        <time>2022-07-27T10:10:41Z</time>
      </trkpt>
      <trkpt lat="45.64123" lon="6.57292">
        <ele>1635</ele>
        <time>2022-07-27T10:10:42Z</time>
      </trkpt>
      <trkpt lat="45.64123" lon="6.57291">
        <ele>1635</ele>
        <time>2022-07-27T10:10:43Z</time>
      </trkpt>
      <trkpt lat="45.64122" lon="6.5729">
        <ele>1635</ele>
        <time>2022-07-27T10:10:44Z</time>
      </trkpt>
      <trkpt lat="45.64122" lon="6.5729">
        <ele>1636</ele>
        <time>2022-07-27T10:10:45Z</time>
      </trkpt>
      <trkpt lat="45.64121" lon="6.57289">
        <ele>1636</ele>
        <time>2022-07-27T10:10:46Z</time>
      </trkpt>
      <trkpt lat="45.64121" lon="6.57288">
        <ele>1636</ele>
        <time>2022-07-27T10:10:47Z</time>
      </trkpt>
      <trkpt lat="45.6412" lon="6.57287">
        <ele>1636</ele>
        <time>2022-07-27T10:10:48Z</time>
      </trkpt>
      <trkpt lat="45.64119" lon="6.57287">
        <ele>1636</ele>
        <time>2022-07-27T10:10:49Z</time>
      </trkpt>
      <trkpt lat="45.64119" lon="6.57286">
        <ele>1637</ele>
        <time>2022-07-27T10:10:50Z</time>
      </trkpt>
      <trkpt lat="45.64118" lon="6.57285">
        <ele>1637</ele>
        <time>2022-07-27T10:10:51Z</time>
      </trkpt>
      <trkpt lat="45.64117" lon="6.57285">
        <ele>1637</ele>
        <time>2022-07-27T10:10:52Z</time>
      </trkpt>
      <trkpt lat="45.64117" lon="6.57284">
        <ele>1637</ele>
        <time>2022-07-27T10:10:53Z</time>
      </trkpt>
      <trkpt lat="45.64116" lon="6.57283">
        <ele>1637</ele>
        <time>2022-07-27T10:10:54Z</time>
      </trkpt>
      <trkpt lat="45.64116" lon="6.57282">
        <ele>1637</ele>
        <time>2022-07-27T10:10:55Z</time>
      </trkpt>
      <trkpt lat="45.64115" lon="6.57281">
        <ele>1637</ele>
        <time>2022-07-27T10:10:56Z</time>
      </trkpt>
      <trkpt lat="45.64115" lon="6.5728">
        <ele>1637</ele>
        <time>2022-07-27T10:10:57Z</time>
      </trkpt>
      <trkpt lat="45.64115" lon="6.57279">
        <ele>1637</ele>
        <time>2022-07-27T10:10:58Z</time>
      </trkpt>
      <trkpt lat="45.64114" lon="6.57278">
        <ele>1637</ele>
        <time>2022-07-27T10:10:59Z</time>
      </trkpt>
      <trkpt lat="45.64114" lon="6.57277">
        <ele>1638</ele>
        <time>2022-07-27T10:11:00Z</time>
      </trkpt>
      <trkpt lat="45.64114" lon="6.57276">
        <ele>1638</ele>
        <time>2022-07-27T10:11:01Z</time>
      </trkpt>
      <trkpt lat="45.64114" lon="6.57275">
        <ele>1638</ele>
        <time>2022-07-27T10:11:02Z</time>
      </trkpt>
      <trkpt lat="45.64113" lon="6.57274">
        <ele>1638</ele>
        <time>2022-07-27T10:11:03Z</time>
      </trkpt>
      <trkpt lat="45.64113" lon="6.57273">
        <ele>1638</ele>
        <time>2022-07-27T10:11:04Z</time>
      </trkpt>
      <trkpt lat="45.64113" lon="6.57272">
        <ele>1639</ele>
        <time>2022-07-27T10:11:05Z</time>
      </trkpt>
      <trkpt lat="45.64113" lon="6.57271">
        <ele>1639</ele>
        <time>2022-07-27T10:11:06Z</time>
      </trkpt>
      <trkpt lat="45.64114" lon="6.57271">
        <ele>1639</ele>
        <time>2022-07-27T10:11:07Z</time>
      </trkpt>
      <trkpt lat="45.64114" lon="6.5727">
        <ele>1639</ele>
        <time>2022-07-27T10:11:08Z</time>
      </trkpt>
      <trkpt lat="45.64114" lon="6.5727">
        <ele>1639</ele>
        <time>2022-07-27T10:11:09Z</time>
      </trkpt>
      <trkpt lat="45.64115" lon="6.57269">
        <ele>1639</ele>
        <time>2022-07-27T10:11:10Z</time>
      </trkpt>
      <trkpt lat="45.64115" lon="6.57269">
        <ele>1639</ele>
        <time>2022-07-27T10:11:11Z</time>
      </trkpt>
      <trkpt lat="45.64116" lon="6.57269">
        <ele>1639</ele>
        <time>2022-07-27T10:11:12Z</time>
      </trkpt>
      <trkpt lat="45.64116" lon="6.57268">
        <ele>1639</ele>
        <time>2022-07-27T10:11:13Z</time>
      </trkpt>
      <trkpt lat="45.64116" lon="6.57268">
        <ele>1639</ele>
        <time>2022-07-27T10:11:14Z</time>
      </trkpt>
      <trkpt lat="45.64116" lon="6.57267">
        <ele>1640</ele>
        <time>2022-07-27T10:11:15Z</time>
      </trkpt>
      <trkpt lat="45.64117" lon="6.57266">
        <ele>1640</ele>
        <time>2022-07-27T10:11:16Z</time>
      </trkpt>
      <trkpt lat="45.64117" lon="6.57266">
        <ele>1640</ele>
        <time>2022-07-27T10:11:17Z</time>
      </trkpt>
      <trkpt lat="45.64117" lon="6.57265">
        <ele>1640</ele>
        <time>2022-07-27T10:11:18Z</time>
      </trkpt>
      <trkpt lat="45.64117" lon="6.57264">
        <ele>1640</ele>
        <time>2022-07-27T10:11:19Z</time>
      </trkpt>
      <trkpt lat="45.64117" lon="6.57263">
        <ele>1641</ele>
        <time>2022-07-27T10:11:20Z</time>
      </trkpt>
      <trkpt lat="45.64117" lon="6.57262">
        <ele>1641</ele>
        <time>2022-07-27T10:11:21Z</time>
      </trkpt>
      <trkpt lat="45.64117" lon="6.57261">
        <ele>1641</ele>
        <time>2022-07-27T10:11:22Z</time>
      </trkpt>
      <trkpt lat="45.64118" lon="6.57259">
        <ele>1642</ele>
        <time>2022-07-27T10:11:28Z</time>
      </trkpt>
      <trkpt lat="45.64119" lon="6.57258">
        <ele>1642</ele>
        <time>2022-07-27T10:11:29Z</time>
      </trkpt>
      <trkpt lat="45.64119" lon="6.57257">
        <ele>1642</ele>
        <time>2022-07-27T10:11:30Z</time>
      </trkpt>
      <trkpt lat="45.64119" lon="6.57255">
        <ele>1643</ele>
        <time>2022-07-27T10:11:37Z</time>
      </trkpt>
      <trkpt lat="45.64119" lon="6.57254">
        <ele>1643</ele>
        <time>2022-07-27T10:11:38Z</time>
      </trkpt>
      <trkpt lat="45.64119" lon="6.57254">
        <ele>1643</ele>
        <time>2022-07-27T10:11:39Z</time>
      </trkpt>
      <trkpt lat="45.64119" lon="6.57253">
        <ele>1643</ele>
        <time>2022-07-27T10:11:40Z</time>
      </trkpt>
      <trkpt lat="45.64119" lon="6.57252">
        <ele>1643</ele>
        <time>2022-07-27T10:11:41Z</time>
      </trkpt>
      <trkpt lat="45.64119" lon="6.57251">
        <ele>1643</ele>
        <time>2022-07-27T10:11:42Z</time>
      </trkpt>
      <trkpt lat="45.64118" lon="6.5725">
        <ele>1643</ele>
        <time>2022-07-27T10:11:43Z</time>
      </trkpt>
      <trkpt lat="45.64118" lon="6.57249">
        <ele>1643</ele>
        <time>2022-07-27T10:11:44Z</time>
      </trkpt>
      <trkpt lat="45.64118" lon="6.57248">
        <ele>1644</ele>
        <time>2022-07-27T10:11:45Z</time>
      </trkpt>
      <trkpt lat="45.64119" lon="6.57248">
        <ele>1644</ele>
        <time>2022-07-27T10:11:46Z</time>
      </trkpt>
      <trkpt lat="45.64119" lon="6.57247">
        <ele>1644</ele>
        <time>2022-07-27T10:11:47Z</time>
      </trkpt>
      <trkpt lat="45.64118" lon="6.57244">
        <ele>1646</ele>
        <time>2022-07-27T10:12:04Z</time>
      </trkpt>
      <trkpt lat="45.64118" lon="6.57243">
        <ele>1646</ele>
        <time>2022-07-27T10:12:05Z</time>
      </trkpt>
      <trkpt lat="45.64117" lon="6.57241">
        <ele>1646</ele>
        <time>2022-07-27T10:12:06Z</time>
      </trkpt>
      <trkpt lat="45.64117" lon="6.5724">
        <ele>1646</ele>
        <time>2022-07-27T10:12:07Z</time>
      </trkpt>
      <trkpt lat="45.64117" lon="6.57239">
        <ele>1646</ele>
        <time>2022-07-27T10:12:08Z</time>
      </trkpt>
      <trkpt lat="45.64117" lon="6.57238">
        <ele>1646</ele>
        <time>2022-07-27T10:12:09Z</time>
      </trkpt>
      <trkpt lat="45.64117" lon="6.57236">
        <ele>1646</ele>
        <time>2022-07-27T10:12:10Z</time>
      </trkpt>
      <trkpt lat="45.64117" lon="6.57235">
        <ele>1646</ele>
        <time>2022-07-27T10:12:11Z</time>
      </trkpt>
      <trkpt lat="45.64117" lon="6.57234">
        <ele>1646</ele>
        <time>2022-07-27T10:12:12Z</time>
      </trkpt>
      <trkpt lat="45.64117" lon="6.57232">
        <ele>1646</ele>
        <time>2022-07-27T10:12:13Z</time>
      </trkpt>
      <trkpt lat="45.64117" lon="6.57231">
        <ele>1646</ele>
        <time>2022-07-27T10:12:14Z</time>
      </trkpt>
      <trkpt lat="45.64117" lon="6.5723">
        <ele>1647</ele>
        <time>2022-07-27T10:12:15Z</time>
      </trkpt>
      <trkpt lat="45.64116" lon="6.57229">
        <ele>1647</ele>
        <time>2022-07-27T10:12:16Z</time>
      </trkpt>
      <trkpt lat="45.64116" lon="6.57228">
        <ele>1647</ele>
        <time>2022-07-27T10:12:17Z</time>
      </trkpt>
      <trkpt lat="45.64116" lon="6.57227">
        <ele>1647</ele>
        <time>2022-07-27T10:12:18Z</time>
      </trkpt>
      <trkpt lat="45.64116" lon="6.57226">
        <ele>1647</ele>
        <time>2022-07-27T10:12:19Z</time>
      </trkpt>
      <trkpt lat="45.64116" lon="6.57225">
        <ele>1647</ele>
        <time>2022-07-27T10:12:20Z</time>
      </trkpt>
      <trkpt lat="45.64116" lon="6.57224">
        <ele>1647</ele>
        <time>2022-07-27T10:12:21Z</time>
      </trkpt>
      <trkpt lat="45.64116" lon="6.57223">
        <ele>1647</ele>
        <time>2022-07-27T10:12:22Z</time>
      </trkpt>
      <trkpt lat="45.64115" lon="6.57222">
        <ele>1647</ele>
        <time>2022-07-27T10:12:23Z</time>
      </trkpt>
      <trkpt lat="45.64115" lon="6.57221">
        <ele>1647</ele>
        <time>2022-07-27T10:12:24Z</time>
      </trkpt>
      <trkpt lat="45.64115" lon="6.57221">
        <ele>1648</ele>
        <time>2022-07-27T10:12:25Z</time>
      </trkpt>
      <trkpt lat="45.64115" lon="6.5722">
        <ele>1648</ele>
        <time>2022-07-27T10:12:26Z</time>
      </trkpt>
      <trkpt lat="45.64114" lon="6.57219">
        <ele>1648</ele>
        <time>2022-07-27T10:12:27Z</time>
      </trkpt>
      <trkpt lat="45.64114" lon="6.57218">
        <ele>1648</ele>
        <time>2022-07-27T10:12:28Z</time>
      </trkpt>
      <trkpt lat="45.64114" lon="6.57218">
        <ele>1648</ele>
        <time>2022-07-27T10:12:29Z</time>
      </trkpt>
      <trkpt lat="45.64113" lon="6.57217">
        <ele>1649</ele>
        <time>2022-07-27T10:12:30Z</time>
      </trkpt>
      <trkpt lat="45.64113" lon="6.57216">
        <ele>1649</ele>
        <time>2022-07-27T10:12:31Z</time>
      </trkpt>
      <trkpt lat="45.64113" lon="6.57216">
        <ele>1649</ele>
        <time>2022-07-27T10:12:32Z</time>
      </trkpt>
      <trkpt lat="45.64112" lon="6.57215">
        <ele>1649</ele>
        <time>2022-07-27T10:12:33Z</time>
      </trkpt>
      <trkpt lat="45.64112" lon="6.57214">
        <ele>1649</ele>
        <time>2022-07-27T10:12:34Z</time>
      </trkpt>
      <trkpt lat="45.64111" lon="6.57213">
        <ele>1650</ele>
        <time>2022-07-27T10:12:35Z</time>
      </trkpt>
      <trkpt lat="45.64111" lon="6.57212">
        <ele>1650</ele>
        <time>2022-07-27T10:12:36Z</time>
      </trkpt>
      <trkpt lat="45.64111" lon="6.57211">
        <ele>1650</ele>
        <time>2022-07-27T10:12:37Z</time>
      </trkpt>
      <trkpt lat="45.64111" lon="6.5721">
        <ele>1650</ele>
        <time>2022-07-27T10:12:38Z</time>
      </trkpt>
      <trkpt lat="45.64111" lon="6.57209">
        <ele>1650</ele>
        <time>2022-07-27T10:12:39Z</time>
      </trkpt>
      <trkpt lat="45.64111" lon="6.57208">
        <ele>1651</ele>
        <time>2022-07-27T10:12:40Z</time>
      </trkpt>
      <trkpt lat="45.64111" lon="6.57207">
        <ele>1651</ele>
        <time>2022-07-27T10:12:41Z</time>
      </trkpt>
      <trkpt lat="45.64112" lon="6.57206">
        <ele>1652</ele>
        <time>2022-07-27T10:12:48Z</time>
      </trkpt>
      <trkpt lat="45.64112" lon="6.57206">
        <ele>1652</ele>
        <time>2022-07-27T10:12:49Z</time>
      </trkpt>
      <trkpt lat="45.64113" lon="6.57206">
        <ele>1652</ele>
        <time>2022-07-27T10:12:50Z</time>
      </trkpt>
      <trkpt lat="45.64113" lon="6.57205">
        <ele>1652</ele>
        <time>2022-07-27T10:12:51Z</time>
      </trkpt>
      <trkpt lat="45.64114" lon="6.57205">
        <ele>1652</ele>
        <time>2022-07-27T10:12:52Z</time>
      </trkpt>
      <trkpt lat="45.64114" lon="6.57204">
        <ele>1652</ele>
        <time>2022-07-27T10:12:53Z</time>
      </trkpt>
      <trkpt lat="45.64115" lon="6.57203">
        <ele>1652</ele>
        <time>2022-07-27T10:12:54Z</time>
      </trkpt>
      <trkpt lat="45.64115" lon="6.57202">
        <ele>1653</ele>
        <time>2022-07-27T10:12:55Z</time>
      </trkpt>
      <trkpt lat="45.64116" lon="6.57202">
        <ele>1653</ele>
        <time>2022-07-27T10:12:56Z</time>
      </trkpt>
      <trkpt lat="45.64116" lon="6.57201">
        <ele>1653</ele>
        <time>2022-07-27T10:12:57Z</time>
      </trkpt>
      <trkpt lat="45.64117" lon="6.572">
        <ele>1653</ele>
        <time>2022-07-27T10:12:58Z</time>
      </trkpt>
      <trkpt lat="45.64117" lon="6.57199">
        <ele>1653</ele>
        <time>2022-07-27T10:12:59Z</time>
      </trkpt>
      <trkpt lat="45.64117" lon="6.57198">
        <ele>1653</ele>
        <time>2022-07-27T10:13:00Z</time>
      </trkpt>
      <trkpt lat="45.64117" lon="6.57198">
        <ele>1653</ele>
        <time>2022-07-27T10:13:01Z</time>
      </trkpt>
      <trkpt lat="45.64117" lon="6.57197">
        <ele>1653</ele>
        <time>2022-07-27T10:13:02Z</time>
      </trkpt>
      <trkpt lat="45.64117" lon="6.57196">
        <ele>1653</ele>
        <time>2022-07-27T10:13:03Z</time>
      </trkpt>
      <trkpt lat="45.64116" lon="6.57195">
        <ele>1653</ele>
        <time>2022-07-27T10:13:04Z</time>
      </trkpt>
      <trkpt lat="45.64116" lon="6.57194">
        <ele>1654</ele>
        <time>2022-07-27T10:13:05Z</time>
      </trkpt>
      <trkpt lat="45.64116" lon="6.57193">
        <ele>1654</ele>
        <time>2022-07-27T10:13:06Z</time>
      </trkpt>
      <trkpt lat="45.64116" lon="6.57192">
        <ele>1654</ele>
        <time>2022-07-27T10:13:07Z</time>
      </trkpt>
      <trkpt lat="45.64115" lon="6.57191">
        <ele>1654</ele>
        <time>2022-07-27T10:13:08Z</time>
      </trkpt>
      <trkpt lat="45.64115" lon="6.57191">
        <ele>1654</ele>
        <time>2022-07-27T10:13:09Z</time>
      </trkpt>
      <trkpt lat="45.64115" lon="6.5719">
        <ele>1655</ele>
        <time>2022-07-27T10:13:10Z</time>
      </trkpt>
      <trkpt lat="45.64115" lon="6.57189">
        <ele>1655</ele>
        <time>2022-07-27T10:13:11Z</time>
      </trkpt>
      <trkpt lat="45.64114" lon="6.57188">
        <ele>1655</ele>
        <time>2022-07-27T10:13:12Z</time>
      </trkpt>
      <trkpt lat="45.64114" lon="6.57187">
        <ele>1655</ele>
        <time>2022-07-27T10:13:13Z</time>
      </trkpt>
      <trkpt lat="45.64114" lon="6.57186">
        <ele>1655</ele>
        <time>2022-07-27T10:13:14Z</time>
      </trkpt>
      <trkpt lat="45.64113" lon="6.57186">
        <ele>1656</ele>
        <time>2022-07-27T10:13:15Z</time>
      </trkpt>
      <trkpt lat="45.64113" lon="6.57185">
        <ele>1656</ele>
        <time>2022-07-27T10:13:16Z</time>
      </trkpt>
      <trkpt lat="45.64113" lon="6.57183">
        <ele>1658</ele>
        <time>2022-07-27T10:14:33Z</time>
      </trkpt>
      <trkpt lat="45.64114" lon="6.57183">
        <ele>1658</ele>
        <time>2022-07-27T10:14:34Z</time>
      </trkpt>
      <trkpt lat="45.64114" lon="6.57182">
        <ele>1658</ele>
        <time>2022-07-27T10:14:35Z</time>
      </trkpt>
      <trkpt lat="45.64115" lon="6.57182">
        <ele>1658</ele>
        <time>2022-07-27T10:14:36Z</time>
      </trkpt>
      <trkpt lat="45.64115" lon="6.57181">
        <ele>1658</ele>
        <time>2022-07-27T10:14:37Z</time>
      </trkpt>
      <trkpt lat="45.64116" lon="6.57181">
        <ele>1658</ele>
        <time>2022-07-27T10:14:38Z</time>
      </trkpt>
      <trkpt lat="45.64117" lon="6.57181">
        <ele>1658</ele>
        <time>2022-07-27T10:14:39Z</time>
      </trkpt>
      <trkpt lat="45.64118" lon="6.5718">
        <ele>1658</ele>
        <time>2022-07-27T10:14:40Z</time>
      </trkpt>
      <trkpt lat="45.64119" lon="6.5718">
        <ele>1658</ele>
        <time>2022-07-27T10:14:41Z</time>
      </trkpt>
      <trkpt lat="45.64119" lon="6.5718">
        <ele>1658</ele>
        <time>2022-07-27T10:14:42Z</time>
      </trkpt>
      <trkpt lat="45.6412" lon="6.5718">
        <ele>1658</ele>
        <time>2022-07-27T10:14:43Z</time>
      </trkpt>
      <trkpt lat="45.64121" lon="6.57179">
        <ele>1658</ele>
        <time>2022-07-27T10:14:44Z</time>
      </trkpt>
      <trkpt lat="45.64121" lon="6.57179">
        <ele>1659</ele>
        <time>2022-07-27T10:14:45Z</time>
      </trkpt>
      <trkpt lat="45.64122" lon="6.57179">
        <ele>1659</ele>
        <time>2022-07-27T10:14:46Z</time>
      </trkpt>
      <trkpt lat="45.64122" lon="6.57178">
        <ele>1659</ele>
        <time>2022-07-27T10:14:47Z</time>
      </trkpt>
      <trkpt lat="45.64122" lon="6.57177">
        <ele>1659</ele>
        <time>2022-07-27T10:14:48Z</time>
      </trkpt>
      <trkpt lat="45.64122" lon="6.57177">
        <ele>1659</ele>
        <time>2022-07-27T10:14:49Z</time>
      </trkpt>
      <trkpt lat="45.64122" lon="6.57176">
        <ele>1659</ele>
        <time>2022-07-27T10:14:50Z</time>
      </trkpt>
      <trkpt lat="45.64122" lon="6.57175">
        <ele>1659</ele>
        <time>2022-07-27T10:14:51Z</time>
      </trkpt>
      <trkpt lat="45.64122" lon="6.57174">
        <ele>1659</ele>
        <time>2022-07-27T10:14:52Z</time>
      </trkpt>
      <trkpt lat="45.64122" lon="6.57172">
        <ele>1659</ele>
        <time>2022-07-27T10:14:59Z</time>
      </trkpt>
      <trkpt lat="45.64121" lon="6.57171">
        <ele>1660</ele>
        <time>2022-07-27T10:15:00Z</time>
      </trkpt>
      <trkpt lat="45.64121" lon="6.5717">
        <ele>1660</ele>
        <time>2022-07-27T10:15:01Z</time>
      </trkpt>
      <trkpt lat="45.64121" lon="6.57169">
        <ele>1660</ele>
        <time>2022-07-27T10:15:02Z</time>
      </trkpt>
      <trkpt lat="45.64121" lon="6.57168">
        <ele>1660</ele>
        <time>2022-07-27T10:15:03Z</time>
      </trkpt>
      <trkpt lat="45.6412" lon="6.57168">
        <ele>1660</ele>
        <time>2022-07-27T10:15:04Z</time>
      </trkpt>
      <trkpt lat="45.6412" lon="6.57167">
        <ele>1661</ele>
        <time>2022-07-27T10:15:05Z</time>
      </trkpt>
      <trkpt lat="45.6412" lon="6.57166">
        <ele>1661</ele>
        <time>2022-07-27T10:15:06Z</time>
      </trkpt>
      <trkpt lat="45.64121" lon="6.57165">
        <ele>1661</ele>
        <time>2022-07-27T10:15:07Z</time>
      </trkpt>
      <trkpt lat="45.64121" lon="6.57165">
        <ele>1661</ele>
        <time>2022-07-27T10:15:08Z</time>
      </trkpt>
      <trkpt lat="45.64121" lon="6.57165">
        <ele>1661</ele>
        <time>2022-07-27T10:15:09Z</time>
      </trkpt>
      <trkpt lat="45.64121" lon="6.57164">
        <ele>1662</ele>
        <time>2022-07-27T10:15:10Z</time>
      </trkpt>
      <trkpt lat="45.64122" lon="6.57163">
        <ele>1662</ele>
        <time>2022-07-27T10:15:11Z</time>
      </trkpt>
      <trkpt lat="45.64123" lon="6.57163">
        <ele>1662</ele>
        <time>2022-07-27T10:15:12Z</time>
      </trkpt>
      <trkpt lat="45.64123" lon="6.57162">
        <ele>1662</ele>
        <time>2022-07-27T10:15:13Z</time>
      </trkpt>
      <trkpt lat="45.64124" lon="6.57162">
        <ele>1662</ele>
        <time>2022-07-27T10:15:14Z</time>
      </trkpt>
      <trkpt lat="45.64124" lon="6.57162">
        <ele>1663</ele>
        <time>2022-07-27T10:15:15Z</time>
      </trkpt>
      <trkpt lat="45.64125" lon="6.57162">
        <ele>1663</ele>
        <time>2022-07-27T10:15:16Z</time>
      </trkpt>
      <trkpt lat="45.64125" lon="6.57161">
        <ele>1663</ele>
        <time>2022-07-27T10:15:17Z</time>
      </trkpt>
      <trkpt lat="45.64127" lon="6.5716">
        <ele>1664</ele>
        <time>2022-07-27T10:15:29Z</time>
      </trkpt>
      <trkpt lat="45.64128" lon="6.5716">
        <ele>1665</ele>
        <time>2022-07-27T10:15:30Z</time>
      </trkpt>
      <trkpt lat="45.64129" lon="6.5716">
        <ele>1665</ele>
        <time>2022-07-27T10:15:31Z</time>
      </trkpt>
      <trkpt lat="45.6413" lon="6.5716">
        <ele>1665</ele>
        <time>2022-07-27T10:15:32Z</time>
      </trkpt>
      <trkpt lat="45.6413" lon="6.5716">
        <ele>1665</ele>
        <time>2022-07-27T10:15:33Z</time>
      </trkpt>
      <trkpt lat="45.64132" lon="6.57159">
        <ele>1666</ele>
        <time>2022-07-27T10:15:42Z</time>
      </trkpt>
      <trkpt lat="45.64133" lon="6.57158">
        <ele>1666</ele>
        <time>2022-07-27T10:15:43Z</time>
      </trkpt>
      <trkpt lat="45.64133" lon="6.57158">
        <ele>1666</ele>
        <time>2022-07-27T10:15:44Z</time>
      </trkpt>
      <trkpt lat="45.64134" lon="6.57157">
        <ele>1666</ele>
        <time>2022-07-27T10:15:45Z</time>
      </trkpt>
      <trkpt lat="45.64134" lon="6.57156">
        <ele>1666</ele>
        <time>2022-07-27T10:15:46Z</time>
      </trkpt>
      <trkpt lat="45.64134" lon="6.57154">
        <ele>1669</ele>
        <time>2022-07-27T10:16:08Z</time>
      </trkpt>
      <trkpt lat="45.64134" lon="6.57152">
        <ele>1669</ele>
        <time>2022-07-27T10:16:09Z</time>
      </trkpt>
      <trkpt lat="45.64135" lon="6.57151">
        <ele>1669</ele>
        <time>2022-07-27T10:16:10Z</time>
      </trkpt>
      <trkpt lat="45.64136" lon="6.57148">
        <ele>1670</ele>
        <time>2022-07-27T10:16:16Z</time>
      </trkpt>
      <trkpt lat="45.64137" lon="6.57147">
        <ele>1670</ele>
        <time>2022-07-27T10:16:17Z</time>
      </trkpt>
      <trkpt lat="45.64137" lon="6.57147">
        <ele>1670</ele>
        <time>2022-07-27T10:16:18Z</time>
      </trkpt>
      <trkpt lat="45.64138" lon="6.57147">
        <ele>1670</ele>
        <time>2022-07-27T10:16:19Z</time>
      </trkpt>
      <trkpt lat="45.64139" lon="6.57146">
        <ele>1671</ele>
        <time>2022-07-27T10:16:20Z</time>
      </trkpt>
      <trkpt lat="45.6414" lon="6.57146">
        <ele>1671</ele>
        <time>2022-07-27T10:16:21Z</time>
      </trkpt>
      <trkpt lat="45.6414" lon="6.57146">
        <ele>1671</ele>
        <time>2022-07-27T10:16:22Z</time>
      </trkpt>
      <trkpt lat="45.64141" lon="6.57147">
        <ele>1671</ele>
        <time>2022-07-27T10:16:23Z</time>
      </trkpt>
      <trkpt lat="45.64142" lon="6.57147">
        <ele>1671</ele>
        <time>2022-07-27T10:16:24Z</time>
      </trkpt>
      <trkpt lat="45.64142" lon="6.57147">
        <ele>1671</ele>
        <time>2022-07-27T10:16:25Z</time>
      </trkpt>
      <trkpt lat="45.64143" lon="6.57147">
        <ele>1671</ele>
        <time>2022-07-27T10:16:26Z</time>
      </trkpt>
      <trkpt lat="45.64144" lon="6.57147">
        <ele>1671</ele>
        <time>2022-07-27T10:16:27Z</time>
      </trkpt>
      <trkpt lat="45.64144" lon="6.57147">
        <ele>1671</ele>
        <time>2022-07-27T10:16:28Z</time>
      </trkpt>
      <trkpt lat="45.64145" lon="6.57147">
        <ele>1671</ele>
        <time>2022-07-27T10:16:29Z</time>
      </trkpt>
      <trkpt lat="45.64146" lon="6.57147">
        <ele>1672</ele>
        <time>2022-07-27T10:16:30Z</time>
      </trkpt>
      <trkpt lat="45.64146" lon="6.57147">
        <ele>1672</ele>
        <time>2022-07-27T10:16:31Z</time>
      </trkpt>
      <trkpt lat="45.64147" lon="6.57147">
        <ele>1672</ele>
        <time>2022-07-27T10:16:32Z</time>
      </trkpt>
      <trkpt lat="45.64148" lon="6.57147">
        <ele>1673</ele>
        <time>2022-07-27T10:16:39Z</time>
      </trkpt>
      <trkpt lat="45.64149" lon="6.57147">
        <ele>1674</ele>
        <time>2022-07-27T10:16:40Z</time>
      </trkpt>
      <trkpt lat="45.6415" lon="6.57147">
        <ele>1674</ele>
        <time>2022-07-27T10:16:41Z</time>
      </trkpt>
      <trkpt lat="45.64151" lon="6.57147">
        <ele>1674</ele>
        <time>2022-07-27T10:16:42Z</time>
      </trkpt>
      <trkpt lat="45.64152" lon="6.57147">
        <ele>1674</ele>
        <time>2022-07-27T10:16:43Z</time>
      </trkpt>
      <trkpt lat="45.64152" lon="6.57145">
        <ele>1677</ele>
        <time>2022-07-27T10:17:10Z</time>
      </trkpt>
      <trkpt lat="45.64151" lon="6.57144">
        <ele>1677</ele>
        <time>2022-07-27T10:17:11Z</time>
      </trkpt>
      <trkpt lat="45.64151" lon="6.57142">
        <ele>1677</ele>
        <time>2022-07-27T10:17:12Z</time>
      </trkpt>
      <trkpt lat="45.64151" lon="6.57141">
        <ele>1677</ele>
        <time>2022-07-27T10:17:13Z</time>
      </trkpt>
      <trkpt lat="45.64151" lon="6.5714">
        <ele>1677</ele>
        <time>2022-07-27T10:17:14Z</time>
      </trkpt>
      <trkpt lat="45.64151" lon="6.57139">
        <ele>1677</ele>
        <time>2022-07-27T10:17:15Z</time>
      </trkpt>
      <trkpt lat="45.64151" lon="6.57138">
        <ele>1677</ele>
        <time>2022-07-27T10:17:16Z</time>
      </trkpt>
      <trkpt lat="45.64151" lon="6.57137">
        <ele>1677</ele>
        <time>2022-07-27T10:17:17Z</time>
      </trkpt>
      <trkpt lat="45.64151" lon="6.57136">
        <ele>1677</ele>
        <time>2022-07-27T10:17:18Z</time>
      </trkpt>
      <trkpt lat="45.64151" lon="6.57135">
        <ele>1677</ele>
        <time>2022-07-27T10:17:19Z</time>
      </trkpt>
      <trkpt lat="45.64151" lon="6.57134">
        <ele>1678</ele>
        <time>2022-07-27T10:17:20Z</time>
      </trkpt>
      <trkpt lat="45.6415" lon="6.57133">
        <ele>1678</ele>
        <time>2022-07-27T10:17:21Z</time>
      </trkpt>
      <trkpt lat="45.64151" lon="6.57133">
        <ele>1678</ele>
        <time>2022-07-27T10:17:22Z</time>
      </trkpt>
      <trkpt lat="45.64151" lon="6.57132">
        <ele>1678</ele>
        <time>2022-07-27T10:17:23Z</time>
      </trkpt>
      <trkpt lat="45.64151" lon="6.57132">
        <ele>1678</ele>
        <time>2022-07-27T10:17:24Z</time>
      </trkpt>
      <trkpt lat="45.64151" lon="6.57131">
        <ele>1679</ele>
        <time>2022-07-27T10:17:25Z</time>
      </trkpt>
      <trkpt lat="45.64152" lon="6.5713">
        <ele>1679</ele>
        <time>2022-07-27T10:17:26Z</time>
      </trkpt>
      <trkpt lat="45.64152" lon="6.5713">
        <ele>1679</ele>
        <time>2022-07-27T10:17:27Z</time>
      </trkpt>
      <trkpt lat="45.64153" lon="6.5713">
        <ele>1679</ele>
        <time>2022-07-27T10:17:28Z</time>
      </trkpt>
      <trkpt lat="45.64154" lon="6.5713">
        <ele>1679</ele>
        <time>2022-07-27T10:17:29Z</time>
      </trkpt>
      <trkpt lat="45.64155" lon="6.5713">
        <ele>1679</ele>
        <time>2022-07-27T10:17:30Z</time>
      </trkpt>
      <trkpt lat="45.64156" lon="6.57131">
        <ele>1679</ele>
        <time>2022-07-27T10:17:31Z</time>
      </trkpt>
      <trkpt lat="45.64156" lon="6.57131">
        <ele>1679</ele>
        <time>2022-07-27T10:17:32Z</time>
      </trkpt>
      <trkpt lat="45.64157" lon="6.57132">
        <ele>1679</ele>
        <time>2022-07-27T10:17:33Z</time>
      </trkpt>
      <trkpt lat="45.64158" lon="6.57132">
        <ele>1679</ele>
        <time>2022-07-27T10:17:34Z</time>
      </trkpt>
      <trkpt lat="45.64158" lon="6.57133">
        <ele>1680</ele>
        <time>2022-07-27T10:17:35Z</time>
      </trkpt>
      <trkpt lat="45.64159" lon="6.57133">
        <ele>1680</ele>
        <time>2022-07-27T10:17:36Z</time>
      </trkpt>
      <trkpt lat="45.6416" lon="6.57134">
        <ele>1680</ele>
        <time>2022-07-27T10:17:37Z</time>
      </trkpt>
      <trkpt lat="45.6416" lon="6.57134">
        <ele>1680</ele>
        <time>2022-07-27T10:17:38Z</time>
      </trkpt>
      <trkpt lat="45.64161" lon="6.57134">
        <ele>1680</ele>
        <time>2022-07-27T10:17:39Z</time>
      </trkpt>
      <trkpt lat="45.64162" lon="6.57133">
        <ele>1681</ele>
        <time>2022-07-27T10:17:40Z</time>
      </trkpt>
      <trkpt lat="45.64162" lon="6.57133">
        <ele>1681</ele>
        <time>2022-07-27T10:17:41Z</time>
      </trkpt>
      <trkpt lat="45.64163" lon="6.57132">
        <ele>1681</ele>
        <time>2022-07-27T10:17:42Z</time>
      </trkpt>
      <trkpt lat="45.64163" lon="6.57132">
        <ele>1681</ele>
        <time>2022-07-27T10:17:43Z</time>
      </trkpt>
      <trkpt lat="45.64163" lon="6.57131">
        <ele>1681</ele>
        <time>2022-07-27T10:17:44Z</time>
      </trkpt>
      <trkpt lat="45.64163" lon="6.5713">
        <ele>1682</ele>
        <time>2022-07-27T10:17:45Z</time>
      </trkpt>
      <trkpt lat="45.64163" lon="6.57129">
        <ele>1682</ele>
        <time>2022-07-27T10:17:46Z</time>
      </trkpt>
      <trkpt lat="45.64162" lon="6.57129">
        <ele>1682</ele>
        <time>2022-07-27T10:17:47Z</time>
      </trkpt>
      <trkpt lat="45.64162" lon="6.57128">
        <ele>1682</ele>
        <time>2022-07-27T10:17:48Z</time>
      </trkpt>
      <trkpt lat="45.64161" lon="6.57127">
        <ele>1682</ele>
        <time>2022-07-27T10:17:49Z</time>
      </trkpt>
      <trkpt lat="45.64161" lon="6.57127">
        <ele>1683</ele>
        <time>2022-07-27T10:17:50Z</time>
      </trkpt>
      <trkpt lat="45.6416" lon="6.57126">
        <ele>1683</ele>
        <time>2022-07-27T10:17:51Z</time>
      </trkpt>
      <trkpt lat="45.6416" lon="6.57126">
        <ele>1683</ele>
        <time>2022-07-27T10:17:52Z</time>
      </trkpt>
      <trkpt lat="45.64159" lon="6.57125">
        <ele>1683</ele>
        <time>2022-07-27T10:17:53Z</time>
      </trkpt>
      <trkpt lat="45.64159" lon="6.57124">
        <ele>1683</ele>
        <time>2022-07-27T10:17:54Z</time>
      </trkpt>
      <trkpt lat="45.64158" lon="6.57124">
        <ele>1684</ele>
        <time>2022-07-27T10:17:55Z</time>
      </trkpt>
      <trkpt lat="45.64158" lon="6.57123">
        <ele>1684</ele>
        <time>2022-07-27T10:17:56Z</time>
      </trkpt>
      <trkpt lat="45.64157" lon="6.57122">
        <ele>1684</ele>
        <time>2022-07-27T10:17:57Z</time>
      </trkpt>
      <trkpt lat="45.64157" lon="6.57122">
        <ele>1684</ele>
        <time>2022-07-27T10:17:58Z</time>
      </trkpt>
      <trkpt lat="45.64157" lon="6.57121">
        <ele>1684</ele>
        <time>2022-07-27T10:17:59Z</time>
      </trkpt>
      <trkpt lat="45.64156" lon="6.5712">
        <ele>1684</ele>
        <time>2022-07-27T10:18:00Z</time>
      </trkpt>
      <trkpt lat="45.64156" lon="6.5712">
        <ele>1684</ele>
        <time>2022-07-27T10:18:01Z</time>
      </trkpt>
      <trkpt lat="45.64155" lon="6.5712">
        <ele>1684</ele>
        <time>2022-07-27T10:18:02Z</time>
      </trkpt>
      <trkpt lat="45.64155" lon="6.57119">
        <ele>1684</ele>
        <time>2022-07-27T10:18:03Z</time>
      </trkpt>
      <trkpt lat="45.64154" lon="6.57119">
        <ele>1684</ele>
        <time>2022-07-27T10:18:04Z</time>
      </trkpt>
      <trkpt lat="45.64153" lon="6.57119">
        <ele>1685</ele>
        <time>2022-07-27T10:18:05Z</time>
      </trkpt>
      <trkpt lat="45.64153" lon="6.57118">
        <ele>1685</ele>
        <time>2022-07-27T10:18:06Z</time>
      </trkpt>
      <trkpt lat="45.64152" lon="6.57117">
        <ele>1685</ele>
        <time>2022-07-27T10:18:07Z</time>
      </trkpt>
      <trkpt lat="45.64151" lon="6.57117">
        <ele>1685</ele>
        <time>2022-07-27T10:18:08Z</time>
      </trkpt>
      <trkpt lat="45.64151" lon="6.57116">
        <ele>1685</ele>
        <time>2022-07-27T10:18:09Z</time>
      </trkpt>
      <trkpt lat="45.6415" lon="6.57115">
        <ele>1685</ele>
        <time>2022-07-27T10:18:10Z</time>
      </trkpt>
      <trkpt lat="45.6415" lon="6.57114">
        <ele>1685</ele>
        <time>2022-07-27T10:18:11Z</time>
      </trkpt>
      <trkpt lat="45.6415" lon="6.57113">
        <ele>1685</ele>
        <time>2022-07-27T10:18:12Z</time>
      </trkpt>
      <trkpt lat="45.6415" lon="6.57113">
        <ele>1685</ele>
        <time>2022-07-27T10:18:13Z</time>
      </trkpt>
      <trkpt lat="45.6415" lon="6.57112">
        <ele>1685</ele>
        <time>2022-07-27T10:18:14Z</time>
      </trkpt>
      <trkpt lat="45.64151" lon="6.57112">
        <ele>1686</ele>
        <time>2022-07-27T10:18:15Z</time>
      </trkpt>
      <trkpt lat="45.64151" lon="6.57111">
        <ele>1686</ele>
        <time>2022-07-27T10:18:16Z</time>
      </trkpt>
      <trkpt lat="45.64152" lon="6.57111">
        <ele>1686</ele>
        <time>2022-07-27T10:18:17Z</time>
      </trkpt>
      <trkpt lat="45.64152" lon="6.5711">
        <ele>1686</ele>
        <time>2022-07-27T10:18:18Z</time>
      </trkpt>
      <trkpt lat="45.64153" lon="6.5711">
        <ele>1686</ele>
        <time>2022-07-27T10:18:19Z</time>
      </trkpt>
      <trkpt lat="45.64153" lon="6.5711">
        <ele>1686</ele>
        <time>2022-07-27T10:18:20Z</time>
      </trkpt>
      <trkpt lat="45.64153" lon="6.5711">
        <ele>1686</ele>
        <time>2022-07-27T10:18:21Z</time>
      </trkpt>
      <trkpt lat="45.64154" lon="6.5711">
        <ele>1686</ele>
        <time>2022-07-27T10:18:22Z</time>
      </trkpt>
      <trkpt lat="45.64154" lon="6.5711">
        <ele>1686</ele>
        <time>2022-07-27T10:18:23Z</time>
      </trkpt>
      <trkpt lat="45.64155" lon="6.5711">
        <ele>1686</ele>
        <time>2022-07-27T10:18:24Z</time>
      </trkpt>
      <trkpt lat="45.64156" lon="6.57111">
        <ele>1687</ele>
        <time>2022-07-27T10:18:25Z</time>
      </trkpt>
      <trkpt lat="45.64157" lon="6.57111">
        <ele>1687</ele>
        <time>2022-07-27T10:18:26Z</time>
      </trkpt>
      <trkpt lat="45.64157" lon="6.57112">
        <ele>1687</ele>
        <time>2022-07-27T10:18:27Z</time>
      </trkpt>
      <trkpt lat="45.64158" lon="6.57113">
        <ele>1687</ele>
        <time>2022-07-27T10:18:28Z</time>
      </trkpt>
      <trkpt lat="45.64159" lon="6.57113">
        <ele>1687</ele>
        <time>2022-07-27T10:18:29Z</time>
      </trkpt>
      <trkpt lat="45.6416" lon="6.57114">
        <ele>1688</ele>
        <time>2022-07-27T10:18:30Z</time>
      </trkpt>
      <trkpt lat="45.64161" lon="6.57114">
        <ele>1688</ele>
        <time>2022-07-27T10:18:31Z</time>
      </trkpt>
      <trkpt lat="45.64162" lon="6.57115">
        <ele>1688</ele>
        <time>2022-07-27T10:18:32Z</time>
      </trkpt>
      <trkpt lat="45.64163" lon="6.57116">
        <ele>1688</ele>
        <time>2022-07-27T10:18:33Z</time>
      </trkpt>
      <trkpt lat="45.64163" lon="6.57116">
        <ele>1688</ele>
        <time>2022-07-27T10:18:34Z</time>
      </trkpt>
      <trkpt lat="45.64164" lon="6.57117">
        <ele>1688</ele>
        <time>2022-07-27T10:18:35Z</time>
      </trkpt>
      <trkpt lat="45.64165" lon="6.57117">
        <ele>1688</ele>
        <time>2022-07-27T10:18:36Z</time>
      </trkpt>
      <trkpt lat="45.64166" lon="6.57118">
        <ele>1688</ele>
        <time>2022-07-27T10:18:37Z</time>
      </trkpt>
      <trkpt lat="45.64166" lon="6.57118">
        <ele>1688</ele>
        <time>2022-07-27T10:18:38Z</time>
      </trkpt>
      <trkpt lat="45.64166" lon="6.57118">
        <ele>1688</ele>
        <time>2022-07-27T10:18:39Z</time>
      </trkpt>
      <trkpt lat="45.64167" lon="6.57118">
        <ele>1689</ele>
        <time>2022-07-27T10:18:40Z</time>
      </trkpt>
      <trkpt lat="45.64167" lon="6.57117">
        <ele>1689</ele>
        <time>2022-07-27T10:18:41Z</time>
      </trkpt>
      <trkpt lat="45.64168" lon="6.57117">
        <ele>1689</ele>
        <time>2022-07-27T10:18:42Z</time>
      </trkpt>
      <trkpt lat="45.64168" lon="6.57117">
        <ele>1689</ele>
        <time>2022-07-27T10:18:43Z</time>
      </trkpt>
      <trkpt lat="45.64169" lon="6.57117">
        <ele>1689</ele>
        <time>2022-07-27T10:18:44Z</time>
      </trkpt>
      <trkpt lat="45.64169" lon="6.57117">
        <ele>1690</ele>
        <time>2022-07-27T10:18:45Z</time>
      </trkpt>
      <trkpt lat="45.6417" lon="6.57117">
        <ele>1690</ele>
        <time>2022-07-27T10:18:46Z</time>
      </trkpt>
      <trkpt lat="45.6417" lon="6.57118">
        <ele>1690</ele>
        <time>2022-07-27T10:18:47Z</time>
      </trkpt>
      <trkpt lat="45.64171" lon="6.57118">
        <ele>1690</ele>
        <time>2022-07-27T10:18:48Z</time>
      </trkpt>
      <trkpt lat="45.64172" lon="6.57119">
        <ele>1690</ele>
        <time>2022-07-27T10:18:49Z</time>
      </trkpt>
      <trkpt lat="45.64172" lon="6.57119">
        <ele>1690</ele>
        <time>2022-07-27T10:18:50Z</time>
      </trkpt>
      <trkpt lat="45.64173" lon="6.5712">
        <ele>1690</ele>
        <time>2022-07-27T10:18:51Z</time>
      </trkpt>
      <trkpt lat="45.64174" lon="6.57121">
        <ele>1690</ele>
        <time>2022-07-27T10:18:52Z</time>
      </trkpt>
      <trkpt lat="45.64174" lon="6.57121">
        <ele>1690</ele>
        <time>2022-07-27T10:18:53Z</time>
      </trkpt>
      <trkpt lat="45.64175" lon="6.57122">
        <ele>1690</ele>
        <time>2022-07-27T10:18:54Z</time>
      </trkpt>
      <trkpt lat="45.64176" lon="6.57122">
        <ele>1691</ele>
        <time>2022-07-27T10:18:55Z</time>
      </trkpt>
      <trkpt lat="45.64177" lon="6.57123">
        <ele>1691</ele>
        <time>2022-07-27T10:18:56Z</time>
      </trkpt>
      <trkpt lat="45.64177" lon="6.57123">
        <ele>1691</ele>
        <time>2022-07-27T10:18:57Z</time>
      </trkpt>
      <trkpt lat="45.6418" lon="6.57124">
        <ele>1693</ele>
        <time>2022-07-27T10:19:16Z</time>
      </trkpt>
      <trkpt lat="45.64181" lon="6.57124">
        <ele>1693</ele>
        <time>2022-07-27T10:19:17Z</time>
      </trkpt>
      <trkpt lat="45.64183" lon="6.57125">
        <ele>1693</ele>
        <time>2022-07-27T10:19:18Z</time>
      </trkpt>
      <trkpt lat="45.64183" lon="6.57125">
        <ele>1693</ele>
        <time>2022-07-27T10:19:19Z</time>
      </trkpt>
      <trkpt lat="45.64184" lon="6.57125">
        <ele>1693</ele>
        <time>2022-07-27T10:19:20Z</time>
      </trkpt>
      <trkpt lat="45.64185" lon="6.57126">
        <ele>1693</ele>
        <time>2022-07-27T10:19:21Z</time>
      </trkpt>
      <trkpt lat="45.64186" lon="6.57126">
        <ele>1693</ele>
        <time>2022-07-27T10:19:22Z</time>
      </trkpt>
      <trkpt lat="45.64186" lon="6.57126">
        <ele>1693</ele>
        <time>2022-07-27T10:19:23Z</time>
      </trkpt>
      <trkpt lat="45.64187" lon="6.57126">
        <ele>1693</ele>
        <time>2022-07-27T10:19:24Z</time>
      </trkpt>
      <trkpt lat="45.64188" lon="6.57128">
        <ele>1694</ele>
        <time>2022-07-27T10:21:16Z</time>
      </trkpt>
      <trkpt lat="45.64189" lon="6.57128">
        <ele>1694</ele>
        <time>2022-07-27T10:21:17Z</time>
      </trkpt>
      <trkpt lat="45.64189" lon="6.57129">
        <ele>1694</ele>
        <time>2022-07-27T10:21:18Z</time>
      </trkpt>
      <trkpt lat="45.6419" lon="6.57129">
        <ele>1694</ele>
        <time>2022-07-27T10:21:19Z</time>
      </trkpt>
      <trkpt lat="45.6419" lon="6.57129">
        <ele>1694</ele>
        <time>2022-07-27T10:21:20Z</time>
      </trkpt>
      <trkpt lat="45.64191" lon="6.57129">
        <ele>1694</ele>
        <time>2022-07-27T10:21:21Z</time>
      </trkpt>
      <trkpt lat="45.64192" lon="6.57129">
        <ele>1694</ele>
        <time>2022-07-27T10:21:22Z</time>
      </trkpt>
      <trkpt lat="45.64193" lon="6.57129">
        <ele>1694</ele>
        <time>2022-07-27T10:21:23Z</time>
      </trkpt>
      <trkpt lat="45.64194" lon="6.57129">
        <ele>1694</ele>
        <time>2022-07-27T10:21:24Z</time>
      </trkpt>
      <trkpt lat="45.64195" lon="6.57129">
        <ele>1694</ele>
        <time>2022-07-27T10:21:25Z</time>
      </trkpt>
      <trkpt lat="45.64196" lon="6.57128">
        <ele>1694</ele>
        <time>2022-07-27T10:21:26Z</time>
      </trkpt>
      <trkpt lat="45.64197" lon="6.57128">
        <ele>1694</ele>
        <time>2022-07-27T10:21:27Z</time>
      </trkpt>
      <trkpt lat="45.64198" lon="6.57128">
        <ele>1694</ele>
        <time>2022-07-27T10:21:28Z</time>
      </trkpt>
      <trkpt lat="45.64199" lon="6.57127">
        <ele>1694</ele>
        <time>2022-07-27T10:21:29Z</time>
      </trkpt>
      <trkpt lat="45.64199" lon="6.57127">
        <ele>1695</ele>
        <time>2022-07-27T10:21:30Z</time>
      </trkpt>
      <trkpt lat="45.642" lon="6.57127">
        <ele>1695</ele>
        <time>2022-07-27T10:21:31Z</time>
      </trkpt>
      <trkpt lat="45.642" lon="6.57126">
        <ele>1695</ele>
        <time>2022-07-27T10:21:32Z</time>
      </trkpt>
      <trkpt lat="45.64201" lon="6.57126">
        <ele>1695</ele>
        <time>2022-07-27T10:21:33Z</time>
      </trkpt>
      <trkpt lat="45.64201" lon="6.57125">
        <ele>1695</ele>
        <time>2022-07-27T10:21:34Z</time>
      </trkpt>
      <trkpt lat="45.64202" lon="6.57124">
        <ele>1696</ele>
        <time>2022-07-27T10:21:35Z</time>
      </trkpt>
      <trkpt lat="45.64203" lon="6.57124">
        <ele>1696</ele>
        <time>2022-07-27T10:21:36Z</time>
      </trkpt>
      <trkpt lat="45.64203" lon="6.57124">
        <ele>1696</ele>
        <time>2022-07-27T10:21:37Z</time>
      </trkpt>
      <trkpt lat="45.64204" lon="6.57123">
        <ele>1696</ele>
        <time>2022-07-27T10:21:38Z</time>
      </trkpt>
      <trkpt lat="45.64204" lon="6.57123">
        <ele>1696</ele>
        <time>2022-07-27T10:21:39Z</time>
      </trkpt>
      <trkpt lat="45.64205" lon="6.57123">
        <ele>1697</ele>
        <time>2022-07-27T10:21:40Z</time>
      </trkpt>
      <trkpt lat="45.64206" lon="6.57123">
        <ele>1697</ele>
        <time>2022-07-27T10:21:41Z</time>
      </trkpt>
      <trkpt lat="45.64207" lon="6.57124">
        <ele>1697</ele>
        <time>2022-07-27T10:21:42Z</time>
      </trkpt>
      <trkpt lat="45.64207" lon="6.57124">
        <ele>1697</ele>
        <time>2022-07-27T10:21:43Z</time>
      </trkpt>
      <trkpt lat="45.64208" lon="6.57125">
        <ele>1697</ele>
        <time>2022-07-27T10:21:44Z</time>
      </trkpt>
      <trkpt lat="45.64209" lon="6.57126">
        <ele>1698</ele>
        <time>2022-07-27T10:21:45Z</time>
      </trkpt>
      <trkpt lat="45.6421" lon="6.57127">
        <ele>1698</ele>
        <time>2022-07-27T10:21:46Z</time>
      </trkpt>
      <trkpt lat="45.64211" lon="6.57128">
        <ele>1698</ele>
        <time>2022-07-27T10:21:47Z</time>
      </trkpt>
      <trkpt lat="45.64212" lon="6.57129">
        <ele>1698</ele>
        <time>2022-07-27T10:21:48Z</time>
      </trkpt>
      <trkpt lat="45.64212" lon="6.5713">
        <ele>1698</ele>
        <time>2022-07-27T10:21:49Z</time>
      </trkpt>
      <trkpt lat="45.64213" lon="6.57131">
        <ele>1698</ele>
        <time>2022-07-27T10:21:50Z</time>
      </trkpt>
      <trkpt lat="45.64214" lon="6.57132">
        <ele>1698</ele>
        <time>2022-07-27T10:21:51Z</time>
      </trkpt>
      <trkpt lat="45.64214" lon="6.57133">
        <ele>1698</ele>
        <time>2022-07-27T10:21:52Z</time>
      </trkpt>
      <trkpt lat="45.64215" lon="6.57133">
        <ele>1698</ele>
        <time>2022-07-27T10:21:53Z</time>
      </trkpt>
      <trkpt lat="45.64216" lon="6.57134">
        <ele>1698</ele>
        <time>2022-07-27T10:21:54Z</time>
      </trkpt>
      <trkpt lat="45.64216" lon="6.57135">
        <ele>1699</ele>
        <time>2022-07-27T10:21:55Z</time>
      </trkpt>
      <trkpt lat="45.64217" lon="6.57135">
        <ele>1699</ele>
        <time>2022-07-27T10:21:56Z</time>
      </trkpt>
      <trkpt lat="45.64217" lon="6.57135">
        <ele>1699</ele>
        <time>2022-07-27T10:21:57Z</time>
      </trkpt>
      <trkpt lat="45.64218" lon="6.57135">
        <ele>1699</ele>
        <time>2022-07-27T10:21:58Z</time>
      </trkpt>
      <trkpt lat="45.64219" lon="6.57136">
        <ele>1699</ele>
        <time>2022-07-27T10:21:59Z</time>
      </trkpt>
      <trkpt lat="45.64219" lon="6.57136">
        <ele>1700</ele>
        <time>2022-07-27T10:22:00Z</time>
      </trkpt>
      <trkpt lat="45.6422" lon="6.57137">
        <ele>1700</ele>
        <time>2022-07-27T10:22:01Z</time>
      </trkpt>
      <trkpt lat="45.64222" lon="6.57138">
        <ele>1700</ele>
        <time>2022-07-27T10:22:09Z</time>
      </trkpt>
      <trkpt lat="45.64222" lon="6.57138">
        <ele>1701</ele>
        <time>2022-07-27T10:22:10Z</time>
      </trkpt>
      <trkpt lat="45.64223" lon="6.57138">
        <ele>1701</ele>
        <time>2022-07-27T10:22:11Z</time>
      </trkpt>
      <trkpt lat="45.64223" lon="6.57138">
        <ele>1701</ele>
        <time>2022-07-27T10:22:12Z</time>
      </trkpt>
      <trkpt lat="45.64224" lon="6.57139">
        <ele>1701</ele>
        <time>2022-07-27T10:22:13Z</time>
      </trkpt>
      <trkpt lat="45.64225" lon="6.57141">
        <ele>1702</ele>
        <time>2022-07-27T10:22:22Z</time>
      </trkpt>
      <trkpt lat="45.64225" lon="6.57143">
        <ele>1702</ele>
        <time>2022-07-27T10:22:23Z</time>
      </trkpt>
      <trkpt lat="45.64226" lon="6.57144">
        <ele>1702</ele>
        <time>2022-07-27T10:22:24Z</time>
      </trkpt>
      <trkpt lat="45.64226" lon="6.57144">
        <ele>1703</ele>
        <time>2022-07-27T10:22:25Z</time>
      </trkpt>
      <trkpt lat="45.64227" lon="6.57145">
        <ele>1703</ele>
        <time>2022-07-27T10:22:26Z</time>
      </trkpt>
      <trkpt lat="45.64228" lon="6.57145">
        <ele>1703</ele>
        <time>2022-07-27T10:22:27Z</time>
      </trkpt>
      <trkpt lat="45.64228" lon="6.57146">
        <ele>1703</ele>
        <time>2022-07-27T10:22:28Z</time>
      </trkpt>
      <trkpt lat="45.64229" lon="6.57146">
        <ele>1703</ele>
        <time>2022-07-27T10:22:29Z</time>
      </trkpt>
      <trkpt lat="45.6423" lon="6.57146">
        <ele>1703</ele>
        <time>2022-07-27T10:22:30Z</time>
      </trkpt>
      <trkpt lat="45.6423" lon="6.57146">
        <ele>1703</ele>
        <time>2022-07-27T10:22:31Z</time>
      </trkpt>
      <trkpt lat="45.64231" lon="6.57146">
        <ele>1703</ele>
        <time>2022-07-27T10:22:32Z</time>
      </trkpt>
      <trkpt lat="45.64232" lon="6.57146">
        <ele>1703</ele>
        <time>2022-07-27T10:22:33Z</time>
      </trkpt>
      <trkpt lat="45.64233" lon="6.57146">
        <ele>1703</ele>
        <time>2022-07-27T10:22:34Z</time>
      </trkpt>
      <trkpt lat="45.64234" lon="6.57146">
        <ele>1703</ele>
        <time>2022-07-27T10:22:35Z</time>
      </trkpt>
      <trkpt lat="45.64235" lon="6.57146">
        <ele>1703</ele>
        <time>2022-07-27T10:22:36Z</time>
      </trkpt>
      <trkpt lat="45.64236" lon="6.57147">
        <ele>1703</ele>
        <time>2022-07-27T10:22:37Z</time>
      </trkpt>
      <trkpt lat="45.64236" lon="6.57147">
        <ele>1703</ele>
        <time>2022-07-27T10:22:38Z</time>
      </trkpt>
      <trkpt lat="45.64237" lon="6.57147">
        <ele>1703</ele>
        <time>2022-07-27T10:22:39Z</time>
      </trkpt>
      <trkpt lat="45.64238" lon="6.57147">
        <ele>1704</ele>
        <time>2022-07-27T10:22:40Z</time>
      </trkpt>
      <trkpt lat="45.64238" lon="6.57147">
        <ele>1704</ele>
        <time>2022-07-27T10:22:41Z</time>
      </trkpt>
      <trkpt lat="45.64239" lon="6.57147">
        <ele>1704</ele>
        <time>2022-07-27T10:22:42Z</time>
      </trkpt>
      <trkpt lat="45.6424" lon="6.57147">
        <ele>1704</ele>
        <time>2022-07-27T10:22:43Z</time>
      </trkpt>
      <trkpt lat="45.6424" lon="6.57148">
        <ele>1704</ele>
        <time>2022-07-27T10:22:44Z</time>
      </trkpt>
      <trkpt lat="45.64241" lon="6.57148">
        <ele>1705</ele>
        <time>2022-07-27T10:22:45Z</time>
      </trkpt>
      <trkpt lat="45.64241" lon="6.57149">
        <ele>1705</ele>
        <time>2022-07-27T10:22:46Z</time>
      </trkpt>
      <trkpt lat="45.64242" lon="6.57149">
        <ele>1705</ele>
        <time>2022-07-27T10:22:47Z</time>
      </trkpt>
      <trkpt lat="45.64243" lon="6.5715">
        <ele>1705</ele>
        <time>2022-07-27T10:22:48Z</time>
      </trkpt>
      <trkpt lat="45.64244" lon="6.57152">
        <ele>1705</ele>
        <time>2022-07-27T10:22:49Z</time>
      </trkpt>
      <trkpt lat="45.64245" lon="6.57153">
        <ele>1706</ele>
        <time>2022-07-27T10:22:50Z</time>
      </trkpt>
      <trkpt lat="45.64245" lon="6.57154">
        <ele>1706</ele>
        <time>2022-07-27T10:22:51Z</time>
      </trkpt>
      <trkpt lat="45.64246" lon="6.57155">
        <ele>1707</ele>
        <time>2022-07-27T10:23:26Z</time>
      </trkpt>
      <trkpt lat="45.64246" lon="6.57155">
        <ele>1707</ele>
        <time>2022-07-27T10:23:27Z</time>
      </trkpt>
      <trkpt lat="45.64247" lon="6.57156">
        <ele>1707</ele>
        <time>2022-07-27T10:23:28Z</time>
      </trkpt>
      <trkpt lat="45.64247" lon="6.57156">
        <ele>1707</ele>
        <time>2022-07-27T10:23:29Z</time>
      </trkpt>
      <trkpt lat="45.64248" lon="6.57157">
        <ele>1707</ele>
        <time>2022-07-27T10:23:30Z</time>
      </trkpt>
      <trkpt lat="45.64248" lon="6.57158">
        <ele>1707</ele>
        <time>2022-07-27T10:23:31Z</time>
      </trkpt>
      <trkpt lat="45.64249" lon="6.57159">
        <ele>1707</ele>
        <time>2022-07-27T10:23:32Z</time>
      </trkpt>
      <trkpt lat="45.6425" lon="6.57159">
        <ele>1707</ele>
        <time>2022-07-27T10:23:33Z</time>
      </trkpt>
      <trkpt lat="45.64251" lon="6.5716">
        <ele>1707</ele>
        <time>2022-07-27T10:23:34Z</time>
      </trkpt>
      <trkpt lat="45.64251" lon="6.57161">
        <ele>1707</ele>
        <time>2022-07-27T10:23:35Z</time>
      </trkpt>
      <trkpt lat="45.64252" lon="6.57162">
        <ele>1707</ele>
        <time>2022-07-27T10:23:36Z</time>
      </trkpt>
      <trkpt lat="45.64253" lon="6.57162">
        <ele>1707</ele>
        <time>2022-07-27T10:23:37Z</time>
      </trkpt>
      <trkpt lat="45.64253" lon="6.57163">
        <ele>1707</ele>
        <time>2022-07-27T10:23:38Z</time>
      </trkpt>
      <trkpt lat="45.64254" lon="6.57163">
        <ele>1707</ele>
        <time>2022-07-27T10:23:39Z</time>
      </trkpt>
      <trkpt lat="45.64254" lon="6.57164">
        <ele>1707</ele>
        <time>2022-07-27T10:23:40Z</time>
      </trkpt>
      <trkpt lat="45.64255" lon="6.57164">
        <ele>1707</ele>
        <time>2022-07-27T10:23:41Z</time>
      </trkpt>
      <trkpt lat="45.64256" lon="6.57164">
        <ele>1707</ele>
        <time>2022-07-27T10:23:42Z</time>
      </trkpt>
      <trkpt lat="45.64257" lon="6.57165">
        <ele>1707</ele>
        <time>2022-07-27T10:23:43Z</time>
      </trkpt>
      <trkpt lat="45.64257" lon="6.57165">
        <ele>1707</ele>
        <time>2022-07-27T10:23:44Z</time>
      </trkpt>
      <trkpt lat="45.64258" lon="6.57165">
        <ele>1707</ele>
        <time>2022-07-27T10:23:45Z</time>
      </trkpt>
      <trkpt lat="45.64259" lon="6.57166">
        <ele>1707</ele>
        <time>2022-07-27T10:23:46Z</time>
      </trkpt>
      <trkpt lat="45.6426" lon="6.57166">
        <ele>1707</ele>
        <time>2022-07-27T10:23:47Z</time>
      </trkpt>
      <trkpt lat="45.64261" lon="6.57166">
        <ele>1707</ele>
        <time>2022-07-27T10:23:48Z</time>
      </trkpt>
      <trkpt lat="45.64262" lon="6.57166">
        <ele>1707</ele>
        <time>2022-07-27T10:23:49Z</time>
      </trkpt>
      <trkpt lat="45.64263" lon="6.57166">
        <ele>1707</ele>
        <time>2022-07-27T10:23:50Z</time>
      </trkpt>
      <trkpt lat="45.64264" lon="6.57166">
        <ele>1707</ele>
        <time>2022-07-27T10:23:51Z</time>
      </trkpt>
      <trkpt lat="45.64265" lon="6.57167">
        <ele>1707</ele>
        <time>2022-07-27T10:23:52Z</time>
      </trkpt>
      <trkpt lat="45.64266" lon="6.57167">
        <ele>1707</ele>
        <time>2022-07-27T10:23:53Z</time>
      </trkpt>
      <trkpt lat="45.64267" lon="6.57168">
        <ele>1708</ele>
        <time>2022-07-27T10:23:59Z</time>
      </trkpt>
      <trkpt lat="45.64268" lon="6.57168">
        <ele>1709</ele>
        <time>2022-07-27T10:24:00Z</time>
      </trkpt>
      <trkpt lat="45.64269" lon="6.57169">
        <ele>1709</ele>
        <time>2022-07-27T10:24:01Z</time>
      </trkpt>
      <trkpt lat="45.64269" lon="6.57169">
        <ele>1709</ele>
        <time>2022-07-27T10:24:02Z</time>
      </trkpt>
      <trkpt lat="45.6427" lon="6.5717">
        <ele>1709</ele>
        <time>2022-07-27T10:24:03Z</time>
      </trkpt>
      <trkpt lat="45.6427" lon="6.5717">
        <ele>1709</ele>
        <time>2022-07-27T10:24:04Z</time>
      </trkpt>
      <trkpt lat="45.64271" lon="6.57171">
        <ele>1709</ele>
        <time>2022-07-27T10:24:05Z</time>
      </trkpt>
      <trkpt lat="45.64271" lon="6.57171">
        <ele>1709</ele>
        <time>2022-07-27T10:24:06Z</time>
      </trkpt>
      <trkpt lat="45.64272" lon="6.57172">
        <ele>1709</ele>
        <time>2022-07-27T10:24:07Z</time>
      </trkpt>
      <trkpt lat="45.64273" lon="6.57172">
        <ele>1709</ele>
        <time>2022-07-27T10:24:08Z</time>
      </trkpt>
      <trkpt lat="45.64273" lon="6.57173">
        <ele>1709</ele>
        <time>2022-07-27T10:24:09Z</time>
      </trkpt>
      <trkpt lat="45.64274" lon="6.57173">
        <ele>1710</ele>
        <time>2022-07-27T10:24:10Z</time>
      </trkpt>
      <trkpt lat="45.64275" lon="6.57173">
        <ele>1710</ele>
        <time>2022-07-27T10:24:11Z</time>
      </trkpt>
      <trkpt lat="45.64276" lon="6.57174">
        <ele>1712</ele>
        <time>2022-07-27T10:24:23Z</time>
      </trkpt>
      <trkpt lat="45.64277" lon="6.57174">
        <ele>1712</ele>
        <time>2022-07-27T10:24:24Z</time>
      </trkpt>
      <trkpt lat="45.64278" lon="6.57174">
        <ele>1713</ele>
        <time>2022-07-27T10:24:25Z</time>
      </trkpt>
      <trkpt lat="45.64278" lon="6.57175">
        <ele>1713</ele>
        <time>2022-07-27T10:24:26Z</time>
      </trkpt>
      <trkpt lat="45.64279" lon="6.57175">
        <ele>1713</ele>
        <time>2022-07-27T10:24:27Z</time>
      </trkpt>
      <trkpt lat="45.6428" lon="6.57176">
        <ele>1713</ele>
        <time>2022-07-27T10:24:28Z</time>
      </trkpt>
      <trkpt lat="45.64281" lon="6.57177">
        <ele>1713</ele>
        <time>2022-07-27T10:24:29Z</time>
      </trkpt>
      <trkpt lat="45.64282" lon="6.57177">
        <ele>1714</ele>
        <time>2022-07-27T10:24:30Z</time>
      </trkpt>
      <trkpt lat="45.64283" lon="6.57178">
        <ele>1714</ele>
        <time>2022-07-27T10:24:31Z</time>
      </trkpt>
      <trkpt lat="45.64284" lon="6.57179">
        <ele>1714</ele>
        <time>2022-07-27T10:24:32Z</time>
      </trkpt>
      <trkpt lat="45.64285" lon="6.5718">
        <ele>1714</ele>
        <time>2022-07-27T10:24:33Z</time>
      </trkpt>
      <trkpt lat="45.64286" lon="6.5718">
        <ele>1714</ele>
        <time>2022-07-27T10:24:34Z</time>
      </trkpt>
      <trkpt lat="45.64287" lon="6.5718">
        <ele>1714</ele>
        <time>2022-07-27T10:24:35Z</time>
      </trkpt>
      <trkpt lat="45.64288" lon="6.57181">
        <ele>1714</ele>
        <time>2022-07-27T10:24:36Z</time>
      </trkpt>
      <trkpt lat="45.64289" lon="6.57181">
        <ele>1714</ele>
        <time>2022-07-27T10:24:37Z</time>
      </trkpt>
      <trkpt lat="45.6429" lon="6.57182">
        <ele>1714</ele>
        <time>2022-07-27T10:24:38Z</time>
      </trkpt>
      <trkpt lat="45.64291" lon="6.57183">
        <ele>1714</ele>
        <time>2022-07-27T10:24:39Z</time>
      </trkpt>
      <trkpt lat="45.64292" lon="6.57183">
        <ele>1714</ele>
        <time>2022-07-27T10:24:40Z</time>
      </trkpt>
      <trkpt lat="45.64292" lon="6.57184">
        <ele>1714</ele>
        <time>2022-07-27T10:24:41Z</time>
      </trkpt>
      <trkpt lat="45.64293" lon="6.57185">
        <ele>1714</ele>
        <time>2022-07-27T10:24:42Z</time>
      </trkpt>
      <trkpt lat="45.64294" lon="6.57185">
        <ele>1714</ele>
        <time>2022-07-27T10:24:43Z</time>
      </trkpt>
      <trkpt lat="45.64295" lon="6.57186">
        <ele>1714</ele>
        <time>2022-07-27T10:24:44Z</time>
      </trkpt>
      <trkpt lat="45.64296" lon="6.57186">
        <ele>1715</ele>
        <time>2022-07-27T10:24:45Z</time>
      </trkpt>
      <trkpt lat="45.64296" lon="6.57186">
        <ele>1715</ele>
        <time>2022-07-27T10:24:46Z</time>
      </trkpt>
      <trkpt lat="45.64297" lon="6.57186">
        <ele>1715</ele>
        <time>2022-07-27T10:24:47Z</time>
      </trkpt>
      <trkpt lat="45.64297" lon="6.57187">
        <ele>1715</ele>
        <time>2022-07-27T10:24:48Z</time>
      </trkpt>
      <trkpt lat="45.64298" lon="6.57188">
        <ele>1715</ele>
        <time>2022-07-27T10:24:49Z</time>
      </trkpt>
      <trkpt lat="45.64298" lon="6.57189">
        <ele>1715</ele>
        <time>2022-07-27T10:24:50Z</time>
      </trkpt>
      <trkpt lat="45.64298" lon="6.57191">
        <ele>1715</ele>
        <time>2022-07-27T10:24:51Z</time>
      </trkpt>
      <trkpt lat="45.64299" lon="6.57192">
        <ele>1715</ele>
        <time>2022-07-27T10:24:52Z</time>
      </trkpt>
      <trkpt lat="45.643" lon="6.57193">
        <ele>1715</ele>
        <time>2022-07-27T10:24:53Z</time>
      </trkpt>
      <trkpt lat="45.643" lon="6.57193">
        <ele>1715</ele>
        <time>2022-07-27T10:24:54Z</time>
      </trkpt>
      <trkpt lat="45.64301" lon="6.57194">
        <ele>1715</ele>
        <time>2022-07-27T10:24:55Z</time>
      </trkpt>
      <trkpt lat="45.64302" lon="6.57194">
        <ele>1715</ele>
        <time>2022-07-27T10:24:56Z</time>
      </trkpt>
      <trkpt lat="45.64302" lon="6.57195">
        <ele>1715</ele>
        <time>2022-07-27T10:24:57Z</time>
      </trkpt>
      <trkpt lat="45.64303" lon="6.57195">
        <ele>1715</ele>
        <time>2022-07-27T10:24:58Z</time>
      </trkpt>
      <trkpt lat="45.64304" lon="6.57195">
        <ele>1715</ele>
        <time>2022-07-27T10:24:59Z</time>
      </trkpt>
      <trkpt lat="45.64305" lon="6.57197">
        <ele>1716</ele>
        <time>2022-07-27T10:25:13Z</time>
      </trkpt>
      <trkpt lat="45.64306" lon="6.57198">
        <ele>1716</ele>
        <time>2022-07-27T10:25:14Z</time>
      </trkpt>
      <trkpt lat="45.64307" lon="6.57199">
        <ele>1717</ele>
        <time>2022-07-27T10:25:15Z</time>
      </trkpt>
      <trkpt lat="45.64308" lon="6.572">
        <ele>1717</ele>
        <time>2022-07-27T10:25:16Z</time>
      </trkpt>
      <trkpt lat="45.64309" lon="6.57201">
        <ele>1717</ele>
        <time>2022-07-27T10:25:17Z</time>
      </trkpt>
      <trkpt lat="45.64309" lon="6.57202">
        <ele>1717</ele>
        <time>2022-07-27T10:25:18Z</time>
      </trkpt>
      <trkpt lat="45.6431" lon="6.57203">
        <ele>1717</ele>
        <time>2022-07-27T10:25:19Z</time>
      </trkpt>
      <trkpt lat="45.64311" lon="6.57204">
        <ele>1718</ele>
        <time>2022-07-27T10:25:20Z</time>
      </trkpt>
      <trkpt lat="45.64312" lon="6.57205">
        <ele>1718</ele>
        <time>2022-07-27T10:25:21Z</time>
      </trkpt>
      <trkpt lat="45.64312" lon="6.57206">
        <ele>1718</ele>
        <time>2022-07-27T10:25:22Z</time>
      </trkpt>
      <trkpt lat="45.64313" lon="6.57207">
        <ele>1718</ele>
        <time>2022-07-27T10:25:23Z</time>
      </trkpt>
      <trkpt lat="45.64314" lon="6.57209">
        <ele>1718</ele>
        <time>2022-07-27T10:25:24Z</time>
      </trkpt>
      <trkpt lat="45.64315" lon="6.5721">
        <ele>1718</ele>
        <time>2022-07-27T10:25:25Z</time>
      </trkpt>
      <trkpt lat="45.64316" lon="6.57211">
        <ele>1718</ele>
        <time>2022-07-27T10:25:26Z</time>
      </trkpt>
      <trkpt lat="45.64317" lon="6.57212">
        <ele>1718</ele>
        <time>2022-07-27T10:25:27Z</time>
      </trkpt>
      <trkpt lat="45.64317" lon="6.57213">
        <ele>1718</ele>
        <time>2022-07-27T10:25:28Z</time>
      </trkpt>
      <trkpt lat="45.64318" lon="6.57214">
        <ele>1718</ele>
        <time>2022-07-27T10:25:29Z</time>
      </trkpt>
      <trkpt lat="45.64319" lon="6.57215">
        <ele>1719</ele>
        <time>2022-07-27T10:25:30Z</time>
      </trkpt>
      <trkpt lat="45.64319" lon="6.57216">
        <ele>1719</ele>
        <time>2022-07-27T10:25:31Z</time>
      </trkpt>
      <trkpt lat="45.6432" lon="6.57217">
        <ele>1719</ele>
        <time>2022-07-27T10:25:32Z</time>
      </trkpt>
      <trkpt lat="45.64321" lon="6.57218">
        <ele>1719</ele>
        <time>2022-07-27T10:25:33Z</time>
      </trkpt>
      <trkpt lat="45.64322" lon="6.57218">
        <ele>1719</ele>
        <time>2022-07-27T10:25:34Z</time>
      </trkpt>
      <trkpt lat="45.64323" lon="6.57219">
        <ele>1719</ele>
        <time>2022-07-27T10:25:35Z</time>
      </trkpt>
      <trkpt lat="45.64323" lon="6.5722">
        <ele>1719</ele>
        <time>2022-07-27T10:25:36Z</time>
      </trkpt>
      <trkpt lat="45.64324" lon="6.57221">
        <ele>1719</ele>
        <time>2022-07-27T10:25:37Z</time>
      </trkpt>
      <trkpt lat="45.64325" lon="6.57221">
        <ele>1719</ele>
        <time>2022-07-27T10:25:38Z</time>
      </trkpt>
      <trkpt lat="45.64325" lon="6.57222">
        <ele>1719</ele>
        <time>2022-07-27T10:25:39Z</time>
      </trkpt>
      <trkpt lat="45.64326" lon="6.57223">
        <ele>1719</ele>
        <time>2022-07-27T10:25:40Z</time>
      </trkpt>
      <trkpt lat="45.64327" lon="6.57224">
        <ele>1719</ele>
        <time>2022-07-27T10:25:41Z</time>
      </trkpt>
      <trkpt lat="45.64327" lon="6.57225">
        <ele>1719</ele>
        <time>2022-07-27T10:25:42Z</time>
      </trkpt>
      <trkpt lat="45.64328" lon="6.57226">
        <ele>1719</ele>
        <time>2022-07-27T10:25:43Z</time>
      </trkpt>
      <trkpt lat="45.64329" lon="6.57226">
        <ele>1719</ele>
        <time>2022-07-27T10:25:44Z</time>
      </trkpt>
      <trkpt lat="45.6433" lon="6.57227">
        <ele>1719</ele>
        <time>2022-07-27T10:25:45Z</time>
      </trkpt>
      <trkpt lat="45.6433" lon="6.57228">
        <ele>1719</ele>
        <time>2022-07-27T10:25:46Z</time>
      </trkpt>
      <trkpt lat="45.64331" lon="6.57229">
        <ele>1719</ele>
        <time>2022-07-27T10:25:47Z</time>
      </trkpt>
      <trkpt lat="45.64332" lon="6.57229">
        <ele>1719</ele>
        <time>2022-07-27T10:25:48Z</time>
      </trkpt>
      <trkpt lat="45.64332" lon="6.5723">
        <ele>1719</ele>
        <time>2022-07-27T10:25:49Z</time>
      </trkpt>
      <trkpt lat="45.64332" lon="6.57231">
        <ele>1719</ele>
        <time>2022-07-27T10:25:50Z</time>
      </trkpt>
      <trkpt lat="45.64333" lon="6.57231">
        <ele>1719</ele>
        <time>2022-07-27T10:25:51Z</time>
      </trkpt>
      <trkpt lat="45.64333" lon="6.57232">
        <ele>1719</ele>
        <time>2022-07-27T10:25:52Z</time>
      </trkpt>
      <trkpt lat="45.64334" lon="6.57232">
        <ele>1719</ele>
        <time>2022-07-27T10:25:53Z</time>
      </trkpt>
      <trkpt lat="45.64334" lon="6.57232">
        <ele>1719</ele>
        <time>2022-07-27T10:25:54Z</time>
      </trkpt>
      <trkpt lat="45.64334" lon="6.57233">
        <ele>1720</ele>
        <time>2022-07-27T10:25:55Z</time>
      </trkpt>
      <trkpt lat="45.64334" lon="6.57233">
        <ele>1720</ele>
        <time>2022-07-27T10:25:56Z</time>
      </trkpt>
      <trkpt lat="45.64335" lon="6.57234">
        <ele>1720</ele>
        <time>2022-07-27T10:25:57Z</time>
      </trkpt>
      <trkpt lat="45.64335" lon="6.57235">
        <ele>1720</ele>
        <time>2022-07-27T10:25:58Z</time>
      </trkpt>
      <trkpt lat="45.64336" lon="6.57235">
        <ele>1720</ele>
        <time>2022-07-27T10:25:59Z</time>
      </trkpt>
      <trkpt lat="45.64336" lon="6.57236">
        <ele>1720</ele>
        <time>2022-07-27T10:26:00Z</time>
      </trkpt>
      <trkpt lat="45.64336" lon="6.57237">
        <ele>1720</ele>
        <time>2022-07-27T10:26:01Z</time>
      </trkpt>
      <trkpt lat="45.64336" lon="6.57237">
        <ele>1720</ele>
        <time>2022-07-27T10:26:02Z</time>
      </trkpt>
      <trkpt lat="45.64336" lon="6.57238">
        <ele>1720</ele>
        <time>2022-07-27T10:26:03Z</time>
      </trkpt>
      <trkpt lat="45.64337" lon="6.57239">
        <ele>1720</ele>
        <time>2022-07-27T10:26:04Z</time>
      </trkpt>
      <trkpt lat="45.64337" lon="6.57239">
        <ele>1721</ele>
        <time>2022-07-27T10:26:05Z</time>
      </trkpt>
      <trkpt lat="45.64338" lon="6.5724">
        <ele>1721</ele>
        <time>2022-07-27T10:26:06Z</time>
      </trkpt>
      <trkpt lat="45.64338" lon="6.5724">
        <ele>1721</ele>
        <time>2022-07-27T10:26:07Z</time>
      </trkpt>
      <trkpt lat="45.64339" lon="6.57241">
        <ele>1721</ele>
        <time>2022-07-27T10:26:08Z</time>
      </trkpt>
      <trkpt lat="45.6434" lon="6.57241">
        <ele>1721</ele>
        <time>2022-07-27T10:26:09Z</time>
      </trkpt>
      <trkpt lat="45.64341" lon="6.57241">
        <ele>1721</ele>
        <time>2022-07-27T10:26:10Z</time>
      </trkpt>
      <trkpt lat="45.64341" lon="6.57241">
        <ele>1721</ele>
        <time>2022-07-27T10:26:11Z</time>
      </trkpt>
      <trkpt lat="45.64343" lon="6.57241">
        <ele>1722</ele>
        <time>2022-07-27T10:26:20Z</time>
      </trkpt>
      <trkpt lat="45.64343" lon="6.5724">
        <ele>1722</ele>
        <time>2022-07-27T10:26:21Z</time>
      </trkpt>
      <trkpt lat="45.64344" lon="6.5724">
        <ele>1722</ele>
        <time>2022-07-27T10:26:22Z</time>
      </trkpt>
      <trkpt lat="45.64345" lon="6.5724">
        <ele>1722</ele>
        <time>2022-07-27T10:26:23Z</time>
      </trkpt>
      <trkpt lat="45.64346" lon="6.5724">
        <ele>1722</ele>
        <time>2022-07-27T10:26:24Z</time>
      </trkpt>
      <trkpt lat="45.64346" lon="6.57241">
        <ele>1723</ele>
        <time>2022-07-27T10:26:25Z</time>
      </trkpt>
      <trkpt lat="45.64347" lon="6.57241">
        <ele>1723</ele>
        <time>2022-07-27T10:26:26Z</time>
      </trkpt>
      <trkpt lat="45.64348" lon="6.57242">
        <ele>1723</ele>
        <time>2022-07-27T10:26:27Z</time>
      </trkpt>
      <trkpt lat="45.64349" lon="6.57243">
        <ele>1723</ele>
        <time>2022-07-27T10:26:28Z</time>
      </trkpt>
      <trkpt lat="45.6435" lon="6.57243">
        <ele>1723</ele>
        <time>2022-07-27T10:26:29Z</time>
      </trkpt>
      <trkpt lat="45.6435" lon="6.57244">
        <ele>1723</ele>
        <time>2022-07-27T10:26:30Z</time>
      </trkpt>
      <trkpt lat="45.64351" lon="6.57245">
        <ele>1723</ele>
        <time>2022-07-27T10:26:31Z</time>
      </trkpt>
      <trkpt lat="45.64352" lon="6.57245">
        <ele>1723</ele>
        <time>2022-07-27T10:26:32Z</time>
      </trkpt>
      <trkpt lat="45.64353" lon="6.57246">
        <ele>1723</ele>
        <time>2022-07-27T10:26:33Z</time>
      </trkpt>
      <trkpt lat="45.64354" lon="6.57246">
        <ele>1723</ele>
        <time>2022-07-27T10:26:34Z</time>
      </trkpt>
      <trkpt lat="45.64355" lon="6.57246">
        <ele>1724</ele>
        <time>2022-07-27T10:26:35Z</time>
      </trkpt>
      <trkpt lat="45.64355" lon="6.57246">
        <ele>1724</ele>
        <time>2022-07-27T10:26:36Z</time>
      </trkpt>
      <trkpt lat="45.64356" lon="6.57246">
        <ele>1724</ele>
        <time>2022-07-27T10:26:37Z</time>
      </trkpt>
      <trkpt lat="45.64357" lon="6.57246">
        <ele>1724</ele>
        <time>2022-07-27T10:26:38Z</time>
      </trkpt>
      <trkpt lat="45.64357" lon="6.57246">
        <ele>1724</ele>
        <time>2022-07-27T10:26:39Z</time>
      </trkpt>
      <trkpt lat="45.64358" lon="6.57246">
        <ele>1724</ele>
        <time>2022-07-27T10:26:40Z</time>
      </trkpt>
      <trkpt lat="45.64361" lon="6.57248">
        <ele>1727</ele>
        <time>2022-07-27T10:27:19Z</time>
      </trkpt>
      <trkpt lat="45.64362" lon="6.5725">
        <ele>1727</ele>
        <time>2022-07-27T10:27:20Z</time>
      </trkpt>
      <trkpt lat="45.64363" lon="6.57251">
        <ele>1727</ele>
        <time>2022-07-27T10:27:21Z</time>
      </trkpt>
      <trkpt lat="45.64364" lon="6.57253">
        <ele>1727</ele>
        <time>2022-07-27T10:27:22Z</time>
      </trkpt>
      <trkpt lat="45.64365" lon="6.57254">
        <ele>1727</ele>
        <time>2022-07-27T10:27:23Z</time>
      </trkpt>
      <trkpt lat="45.64365" lon="6.57255">
        <ele>1727</ele>
        <time>2022-07-27T10:27:24Z</time>
      </trkpt>
      <trkpt lat="45.64366" lon="6.57256">
        <ele>1727</ele>
        <time>2022-07-27T10:27:25Z</time>
      </trkpt>
      <trkpt lat="45.64367" lon="6.57256">
        <ele>1727</ele>
        <time>2022-07-27T10:27:26Z</time>
      </trkpt>
      <trkpt lat="45.64368" lon="6.57257">
        <ele>1727</ele>
        <time>2022-07-27T10:27:27Z</time>
      </trkpt>
      <trkpt lat="45.64368" lon="6.57257">
        <ele>1727</ele>
        <time>2022-07-27T10:27:28Z</time>
      </trkpt>
      <trkpt lat="45.64369" lon="6.57258">
        <ele>1727</ele>
        <time>2022-07-27T10:27:29Z</time>
      </trkpt>
      <trkpt lat="45.6437" lon="6.57258">
        <ele>1727</ele>
        <time>2022-07-27T10:27:30Z</time>
      </trkpt>
      <trkpt lat="45.64371" lon="6.57259">
        <ele>1727</ele>
        <time>2022-07-27T10:27:31Z</time>
      </trkpt>
      <trkpt lat="45.64371" lon="6.57259">
        <ele>1727</ele>
        <time>2022-07-27T10:27:32Z</time>
      </trkpt>
      <trkpt lat="45.64372" lon="6.5726">
        <ele>1727</ele>
        <time>2022-07-27T10:27:33Z</time>
      </trkpt>
      <trkpt lat="45.64373" lon="6.5726">
        <ele>1727</ele>
        <time>2022-07-27T10:27:34Z</time>
      </trkpt>
      <trkpt lat="45.64374" lon="6.5726">
        <ele>1728</ele>
        <time>2022-07-27T10:27:35Z</time>
      </trkpt>
      <trkpt lat="45.64375" lon="6.5726">
        <ele>1728</ele>
        <time>2022-07-27T10:27:36Z</time>
      </trkpt>
      <trkpt lat="45.64375" lon="6.5726">
        <ele>1728</ele>
        <time>2022-07-27T10:27:37Z</time>
      </trkpt>
      <trkpt lat="45.64376" lon="6.5726">
        <ele>1728</ele>
        <time>2022-07-27T10:27:38Z</time>
      </trkpt>
      <trkpt lat="45.64377" lon="6.57261">
        <ele>1728</ele>
        <time>2022-07-27T10:27:39Z</time>
      </trkpt>
      <trkpt lat="45.64378" lon="6.57261">
        <ele>1728</ele>
        <time>2022-07-27T10:27:40Z</time>
      </trkpt>
      <trkpt lat="45.64378" lon="6.57261">
        <ele>1728</ele>
        <time>2022-07-27T10:27:41Z</time>
      </trkpt>
      <trkpt lat="45.64379" lon="6.57262">
        <ele>1728</ele>
        <time>2022-07-27T10:27:42Z</time>
      </trkpt>
      <trkpt lat="45.64379" lon="6.57262">
        <ele>1728</ele>
        <time>2022-07-27T10:27:43Z</time>
      </trkpt>
      <trkpt lat="45.6438" lon="6.57262">
        <ele>1728</ele>
        <time>2022-07-27T10:27:44Z</time>
      </trkpt>
      <trkpt lat="45.6438" lon="6.57262">
        <ele>1729</ele>
        <time>2022-07-27T10:27:45Z</time>
      </trkpt>
      <trkpt lat="45.64381" lon="6.57262">
        <ele>1729</ele>
        <time>2022-07-27T10:27:46Z</time>
      </trkpt>
      <trkpt lat="45.64382" lon="6.57263">
        <ele>1729</ele>
        <time>2022-07-27T10:27:47Z</time>
      </trkpt>
      <trkpt lat="45.64383" lon="6.57263">
        <ele>1729</ele>
        <time>2022-07-27T10:27:48Z</time>
      </trkpt>
      <trkpt lat="45.64384" lon="6.57264">
        <ele>1729</ele>
        <time>2022-07-27T10:27:49Z</time>
      </trkpt>
      <trkpt lat="45.64385" lon="6.57264">
        <ele>1729</ele>
        <time>2022-07-27T10:27:50Z</time>
      </trkpt>
      <trkpt lat="45.64386" lon="6.57265">
        <ele>1729</ele>
        <time>2022-07-27T10:27:51Z</time>
      </trkpt>
      <trkpt lat="45.64387" lon="6.57265">
        <ele>1729</ele>
        <time>2022-07-27T10:27:52Z</time>
      </trkpt>
      <trkpt lat="45.64388" lon="6.57265">
        <ele>1729</ele>
        <time>2022-07-27T10:27:53Z</time>
      </trkpt>
      <trkpt lat="45.64389" lon="6.57266">
        <ele>1729</ele>
        <time>2022-07-27T10:27:54Z</time>
      </trkpt>
      <trkpt lat="45.6439" lon="6.57267">
        <ele>1730</ele>
        <time>2022-07-27T10:27:55Z</time>
      </trkpt>
      <trkpt lat="45.64391" lon="6.57267">
        <ele>1730</ele>
        <time>2022-07-27T10:27:56Z</time>
      </trkpt>
      <trkpt lat="45.64392" lon="6.57268">
        <ele>1730</ele>
        <time>2022-07-27T10:27:57Z</time>
      </trkpt>
      <trkpt lat="45.64392" lon="6.57269">
        <ele>1730</ele>
        <time>2022-07-27T10:27:58Z</time>
      </trkpt>
      <trkpt lat="45.64393" lon="6.5727">
        <ele>1730</ele>
        <time>2022-07-27T10:27:59Z</time>
      </trkpt>
      <trkpt lat="45.64394" lon="6.57271">
        <ele>1730</ele>
        <time>2022-07-27T10:28:00Z</time>
      </trkpt>
      <trkpt lat="45.64394" lon="6.57272">
        <ele>1730</ele>
        <time>2022-07-27T10:28:01Z</time>
      </trkpt>
      <trkpt lat="45.64395" lon="6.57273">
        <ele>1730</ele>
        <time>2022-07-27T10:28:02Z</time>
      </trkpt>
      <trkpt lat="45.64395" lon="6.57274">
        <ele>1730</ele>
        <time>2022-07-27T10:28:03Z</time>
      </trkpt>
      <trkpt lat="45.64396" lon="6.57275">
        <ele>1730</ele>
        <time>2022-07-27T10:28:04Z</time>
      </trkpt>
      <trkpt lat="45.64397" lon="6.57276">
        <ele>1731</ele>
        <time>2022-07-27T10:28:05Z</time>
      </trkpt>
      <trkpt lat="45.64397" lon="6.57276">
        <ele>1731</ele>
        <time>2022-07-27T10:28:06Z</time>
      </trkpt>
      <trkpt lat="45.64398" lon="6.57277">
        <ele>1731</ele>
        <time>2022-07-27T10:28:07Z</time>
      </trkpt>
      <trkpt lat="45.64399" lon="6.57278">
        <ele>1731</ele>
        <time>2022-07-27T10:28:08Z</time>
      </trkpt>
      <trkpt lat="45.644" lon="6.57279">
        <ele>1731</ele>
        <time>2022-07-27T10:28:09Z</time>
      </trkpt>
      <trkpt lat="45.644" lon="6.5728">
        <ele>1731</ele>
        <time>2022-07-27T10:28:10Z</time>
      </trkpt>
      <trkpt lat="45.64401" lon="6.57281">
        <ele>1731</ele>
        <time>2022-07-27T10:28:11Z</time>
      </trkpt>
      <trkpt lat="45.64401" lon="6.57282">
        <ele>1731</ele>
        <time>2022-07-27T10:28:12Z</time>
      </trkpt>
      <trkpt lat="45.64402" lon="6.57283">
        <ele>1731</ele>
        <time>2022-07-27T10:28:13Z</time>
      </trkpt>
      <trkpt lat="45.64402" lon="6.57285">
        <ele>1731</ele>
        <time>2022-07-27T10:28:14Z</time>
      </trkpt>
      <trkpt lat="45.64403" lon="6.57285">
        <ele>1731</ele>
        <time>2022-07-27T10:28:15Z</time>
      </trkpt>
      <trkpt lat="45.64403" lon="6.57286">
        <ele>1731</ele>
        <time>2022-07-27T10:28:16Z</time>
      </trkpt>
      <trkpt lat="45.64404" lon="6.57287">
        <ele>1731</ele>
        <time>2022-07-27T10:28:17Z</time>
      </trkpt>
      <trkpt lat="45.64405" lon="6.57288">
        <ele>1731</ele>
        <time>2022-07-27T10:28:18Z</time>
      </trkpt>
      <trkpt lat="45.64405" lon="6.57289">
        <ele>1731</ele>
        <time>2022-07-27T10:28:19Z</time>
      </trkpt>
      <trkpt lat="45.64406" lon="6.5729">
        <ele>1731</ele>
        <time>2022-07-27T10:28:20Z</time>
      </trkpt>
      <trkpt lat="45.64408" lon="6.57292">
        <ele>1732</ele>
        <time>2022-07-27T10:28:34Z</time>
      </trkpt>
      <trkpt lat="45.6441" lon="6.57293">
        <ele>1732</ele>
        <time>2022-07-27T10:28:35Z</time>
      </trkpt>
      <trkpt lat="45.64411" lon="6.57294">
        <ele>1732</ele>
        <time>2022-07-27T10:28:36Z</time>
      </trkpt>
      <trkpt lat="45.64411" lon="6.57294">
        <ele>1732</ele>
        <time>2022-07-27T10:28:37Z</time>
      </trkpt>
      <trkpt lat="45.64412" lon="6.57295">
        <ele>1732</ele>
        <time>2022-07-27T10:28:38Z</time>
      </trkpt>
      <trkpt lat="45.64413" lon="6.57296">
        <ele>1732</ele>
        <time>2022-07-27T10:28:39Z</time>
      </trkpt>
      <trkpt lat="45.64414" lon="6.57296">
        <ele>1733</ele>
        <time>2022-07-27T10:28:40Z</time>
      </trkpt>
      <trkpt lat="45.64414" lon="6.57297">
        <ele>1733</ele>
        <time>2022-07-27T10:28:41Z</time>
      </trkpt>
      <trkpt lat="45.64415" lon="6.57297">
        <ele>1733</ele>
        <time>2022-07-27T10:28:42Z</time>
      </trkpt>
      <trkpt lat="45.64415" lon="6.57298">
        <ele>1733</ele>
        <time>2022-07-27T10:28:43Z</time>
      </trkpt>
      <trkpt lat="45.64416" lon="6.57298">
        <ele>1733</ele>
        <time>2022-07-27T10:28:44Z</time>
      </trkpt>
      <trkpt lat="45.64417" lon="6.57299">
        <ele>1733</ele>
        <time>2022-07-27T10:28:45Z</time>
      </trkpt>
      <trkpt lat="45.64417" lon="6.57299">
        <ele>1733</ele>
        <time>2022-07-27T10:28:46Z</time>
      </trkpt>
      <trkpt lat="45.64418" lon="6.57299">
        <ele>1733</ele>
        <time>2022-07-27T10:28:47Z</time>
      </trkpt>
      <trkpt lat="45.64419" lon="6.57299">
        <ele>1733</ele>
        <time>2022-07-27T10:28:48Z</time>
      </trkpt>
      <trkpt lat="45.64419" lon="6.573">
        <ele>1733</ele>
        <time>2022-07-27T10:28:49Z</time>
      </trkpt>
      <trkpt lat="45.6442" lon="6.573">
        <ele>1733</ele>
        <time>2022-07-27T10:28:50Z</time>
      </trkpt>
      <trkpt lat="45.64421" lon="6.573">
        <ele>1733</ele>
        <time>2022-07-27T10:28:51Z</time>
      </trkpt>
      <trkpt lat="45.64422" lon="6.573">
        <ele>1733</ele>
        <time>2022-07-27T10:28:52Z</time>
      </trkpt>
      <trkpt lat="45.64423" lon="6.573">
        <ele>1733</ele>
        <time>2022-07-27T10:28:53Z</time>
      </trkpt>
      <trkpt lat="45.64423" lon="6.573">
        <ele>1733</ele>
        <time>2022-07-27T10:28:54Z</time>
      </trkpt>
      <trkpt lat="45.64424" lon="6.573">
        <ele>1734</ele>
        <time>2022-07-27T10:28:55Z</time>
      </trkpt>
      <trkpt lat="45.64425" lon="6.57301">
        <ele>1734</ele>
        <time>2022-07-27T10:28:56Z</time>
      </trkpt>
      <trkpt lat="45.64426" lon="6.57302">
        <ele>1734</ele>
        <time>2022-07-27T10:28:57Z</time>
      </trkpt>
      <trkpt lat="45.64427" lon="6.57303">
        <ele>1734</ele>
        <time>2022-07-27T10:28:58Z</time>
      </trkpt>
      <trkpt lat="45.64428" lon="6.57304">
        <ele>1734</ele>
        <time>2022-07-27T10:28:59Z</time>
      </trkpt>
      <trkpt lat="45.64428" lon="6.57305">
        <ele>1735</ele>
        <time>2022-07-27T10:29:00Z</time>
      </trkpt>
      <trkpt lat="45.64429" lon="6.57306">
        <ele>1735</ele>
        <time>2022-07-27T10:29:01Z</time>
      </trkpt>
      <trkpt lat="45.6443" lon="6.57307">
        <ele>1735</ele>
        <time>2022-07-27T10:29:02Z</time>
      </trkpt>
      <trkpt lat="45.64431" lon="6.57308">
        <ele>1735</ele>
        <time>2022-07-27T10:29:03Z</time>
      </trkpt>
      <trkpt lat="45.64432" lon="6.57309">
        <ele>1735</ele>
        <time>2022-07-27T10:29:04Z</time>
      </trkpt>
      <trkpt lat="45.64433" lon="6.57309">
        <ele>1735</ele>
        <time>2022-07-27T10:29:05Z</time>
      </trkpt>
      <trkpt lat="45.64434" lon="6.5731">
        <ele>1735</ele>
        <time>2022-07-27T10:29:06Z</time>
      </trkpt>
      <trkpt lat="45.64435" lon="6.57311">
        <ele>1735</ele>
        <time>2022-07-27T10:29:07Z</time>
      </trkpt>
      <trkpt lat="45.64436" lon="6.57312">
        <ele>1735</ele>
        <time>2022-07-27T10:29:08Z</time>
      </trkpt>
      <trkpt lat="45.64437" lon="6.57312">
        <ele>1735</ele>
        <time>2022-07-27T10:29:09Z</time>
      </trkpt>
      <trkpt lat="45.64438" lon="6.57313">
        <ele>1735</ele>
        <time>2022-07-27T10:29:10Z</time>
      </trkpt>
      <trkpt lat="45.64439" lon="6.57313">
        <ele>1735</ele>
        <time>2022-07-27T10:29:11Z</time>
      </trkpt>
      <trkpt lat="45.6444" lon="6.57314">
        <ele>1735</ele>
        <time>2022-07-27T10:29:12Z</time>
      </trkpt>
      <trkpt lat="45.64441" lon="6.57315">
        <ele>1735</ele>
        <time>2022-07-27T10:29:13Z</time>
      </trkpt>
      <trkpt lat="45.64442" lon="6.57315">
        <ele>1735</ele>
        <time>2022-07-27T10:29:14Z</time>
      </trkpt>
      <trkpt lat="45.64443" lon="6.57316">
        <ele>1736</ele>
        <time>2022-07-27T10:29:15Z</time>
      </trkpt>
      <trkpt lat="45.64444" lon="6.57317">
        <ele>1736</ele>
        <time>2022-07-27T10:29:16Z</time>
      </trkpt>
      <trkpt lat="45.64445" lon="6.57318">
        <ele>1736</ele>
        <time>2022-07-27T10:29:17Z</time>
      </trkpt>
      <trkpt lat="45.64446" lon="6.57319">
        <ele>1736</ele>
        <time>2022-07-27T10:29:18Z</time>
      </trkpt>
      <trkpt lat="45.64447" lon="6.5732">
        <ele>1736</ele>
        <time>2022-07-27T10:29:19Z</time>
      </trkpt>
      <trkpt lat="45.64448" lon="6.57321">
        <ele>1736</ele>
        <time>2022-07-27T10:29:20Z</time>
      </trkpt>
      <trkpt lat="45.64448" lon="6.57321">
        <ele>1736</ele>
        <time>2022-07-27T10:29:21Z</time>
      </trkpt>
      <trkpt lat="45.64449" lon="6.57321">
        <ele>1736</ele>
        <time>2022-07-27T10:29:22Z</time>
      </trkpt>
      <trkpt lat="45.64449" lon="6.57321">
        <ele>1736</ele>
        <time>2022-07-27T10:29:23Z</time>
      </trkpt>
      <trkpt lat="45.64451" lon="6.57321">
        <ele>1738</ele>
        <time>2022-07-27T10:29:36Z</time>
      </trkpt>
      <trkpt lat="45.64452" lon="6.57321">
        <ele>1738</ele>
        <time>2022-07-27T10:29:37Z</time>
      </trkpt>
      <trkpt lat="45.64453" lon="6.5732">
        <ele>1738</ele>
        <time>2022-07-27T10:29:38Z</time>
      </trkpt>
      <trkpt lat="45.64454" lon="6.5732">
        <ele>1738</ele>
        <time>2022-07-27T10:29:39Z</time>
      </trkpt>
      <trkpt lat="45.64455" lon="6.5732">
        <ele>1738</ele>
        <time>2022-07-27T10:29:40Z</time>
      </trkpt>
      <trkpt lat="45.64456" lon="6.57321">
        <ele>1738</ele>
        <time>2022-07-27T10:29:41Z</time>
      </trkpt>
      <trkpt lat="45.64457" lon="6.57321">
        <ele>1738</ele>
        <time>2022-07-27T10:29:42Z</time>
      </trkpt>
      <trkpt lat="45.64458" lon="6.57322">
        <ele>1738</ele>
        <time>2022-07-27T10:29:43Z</time>
      </trkpt>
      <trkpt lat="45.6446" lon="6.57323">
        <ele>1738</ele>
        <time>2022-07-27T10:29:44Z</time>
      </trkpt>
      <trkpt lat="45.64461" lon="6.57324">
        <ele>1739</ele>
        <time>2022-07-27T10:29:45Z</time>
      </trkpt>
      <trkpt lat="45.64462" lon="6.57325">
        <ele>1739</ele>
        <time>2022-07-27T10:29:46Z</time>
      </trkpt>
      <trkpt lat="45.64462" lon="6.57326">
        <ele>1739</ele>
        <time>2022-07-27T10:29:47Z</time>
      </trkpt>
      <trkpt lat="45.64463" lon="6.57327">
        <ele>1739</ele>
        <time>2022-07-27T10:29:48Z</time>
      </trkpt>
      <trkpt lat="45.64464" lon="6.57328">
        <ele>1739</ele>
        <time>2022-07-27T10:29:49Z</time>
      </trkpt>
      <trkpt lat="45.64465" lon="6.57329">
        <ele>1739</ele>
        <time>2022-07-27T10:29:50Z</time>
      </trkpt>
      <trkpt lat="45.64466" lon="6.5733">
        <ele>1739</ele>
        <time>2022-07-27T10:29:51Z</time>
      </trkpt>
      <trkpt lat="45.64466" lon="6.57331">
        <ele>1739</ele>
        <time>2022-07-27T10:29:52Z</time>
      </trkpt>
      <trkpt lat="45.64467" lon="6.57332">
        <ele>1739</ele>
        <time>2022-07-27T10:29:53Z</time>
      </trkpt>
      <trkpt lat="45.64468" lon="6.57333">
        <ele>1739</ele>
        <time>2022-07-27T10:29:54Z</time>
      </trkpt>
      <trkpt lat="45.64468" lon="6.57334">
        <ele>1740</ele>
        <time>2022-07-27T10:29:55Z</time>
      </trkpt>
      <trkpt lat="45.64469" lon="6.57334">
        <ele>1739</ele>
        <time>2022-07-27T10:29:56Z</time>
      </trkpt>
      <trkpt lat="45.64469" lon="6.57335">
        <ele>1739</ele>
        <time>2022-07-27T10:29:57Z</time>
      </trkpt>
      <trkpt lat="45.6447" lon="6.57336">
        <ele>1739</ele>
        <time>2022-07-27T10:29:58Z</time>
      </trkpt>
      <trkpt lat="45.6447" lon="6.57337">
        <ele>1739</ele>
        <time>2022-07-27T10:29:59Z</time>
      </trkpt>
      <trkpt lat="45.6447" lon="6.57337">
        <ele>1739</ele>
        <time>2022-07-27T10:30:00Z</time>
      </trkpt>
      <trkpt lat="45.64471" lon="6.57338">
        <ele>1739</ele>
        <time>2022-07-27T10:30:01Z</time>
      </trkpt>
      <trkpt lat="45.64471" lon="6.57338">
        <ele>1739</ele>
        <time>2022-07-27T10:30:02Z</time>
      </trkpt>
      <trkpt lat="45.64471" lon="6.57338">
        <ele>1739</ele>
        <time>2022-07-27T10:30:03Z</time>
      </trkpt>
      <trkpt lat="45.64472" lon="6.57339">
        <ele>1739</ele>
        <time>2022-07-27T10:30:04Z</time>
      </trkpt>
      <trkpt lat="45.64473" lon="6.57339">
        <ele>1739</ele>
        <time>2022-07-27T10:30:05Z</time>
      </trkpt>
      <trkpt lat="45.64473" lon="6.5734">
        <ele>1739</ele>
        <time>2022-07-27T10:30:06Z</time>
      </trkpt>
      <trkpt lat="45.64474" lon="6.5734">
        <ele>1739</ele>
        <time>2022-07-27T10:30:07Z</time>
      </trkpt>
      <trkpt lat="45.64475" lon="6.5734">
        <ele>1739</ele>
        <time>2022-07-27T10:30:08Z</time>
      </trkpt>
      <trkpt lat="45.64476" lon="6.57341">
        <ele>1739</ele>
        <time>2022-07-27T10:30:09Z</time>
      </trkpt>
      <trkpt lat="45.64476" lon="6.57341">
        <ele>1739</ele>
        <time>2022-07-27T10:30:10Z</time>
      </trkpt>
      <trkpt lat="45.64477" lon="6.57341">
        <ele>1738</ele>
        <time>2022-07-27T10:30:11Z</time>
      </trkpt>
      <trkpt lat="45.64478" lon="6.57342">
        <ele>1738</ele>
        <time>2022-07-27T10:30:12Z</time>
      </trkpt>
      <trkpt lat="45.64479" lon="6.57342">
        <ele>1738</ele>
        <time>2022-07-27T10:30:13Z</time>
      </trkpt>
      <trkpt lat="45.6448" lon="6.57343">
        <ele>1738</ele>
        <time>2022-07-27T10:30:14Z</time>
      </trkpt>
      <trkpt lat="45.64481" lon="6.57343">
        <ele>1738</ele>
        <time>2022-07-27T10:30:15Z</time>
      </trkpt>
      <trkpt lat="45.64482" lon="6.57343">
        <ele>1738</ele>
        <time>2022-07-27T10:30:16Z</time>
      </trkpt>
      <trkpt lat="45.64483" lon="6.57343">
        <ele>1738</ele>
        <time>2022-07-27T10:30:17Z</time>
      </trkpt>
      <trkpt lat="45.64484" lon="6.57344">
        <ele>1738</ele>
        <time>2022-07-27T10:30:18Z</time>
      </trkpt>
      <trkpt lat="45.64484" lon="6.57344">
        <ele>1738</ele>
        <time>2022-07-27T10:30:19Z</time>
      </trkpt>
      <trkpt lat="45.64485" lon="6.57344">
        <ele>1738</ele>
        <time>2022-07-27T10:30:20Z</time>
      </trkpt>
      <trkpt lat="45.64485" lon="6.57344">
        <ele>1738</ele>
        <time>2022-07-27T10:30:21Z</time>
      </trkpt>
      <trkpt lat="45.64486" lon="6.57345">
        <ele>1738</ele>
        <time>2022-07-27T10:30:22Z</time>
      </trkpt>
      <trkpt lat="45.64487" lon="6.57346">
        <ele>1738</ele>
        <time>2022-07-27T10:30:23Z</time>
      </trkpt>
      <trkpt lat="45.64487" lon="6.57346">
        <ele>1738</ele>
        <time>2022-07-27T10:30:24Z</time>
      </trkpt>
      <trkpt lat="45.64488" lon="6.57347">
        <ele>1739</ele>
        <time>2022-07-27T10:30:25Z</time>
      </trkpt>
      <trkpt lat="45.64488" lon="6.57348">
        <ele>1739</ele>
        <time>2022-07-27T10:30:26Z</time>
      </trkpt>
      <trkpt lat="45.64489" lon="6.57349">
        <ele>1739</ele>
        <time>2022-07-27T10:30:27Z</time>
      </trkpt>
      <trkpt lat="45.64489" lon="6.5735">
        <ele>1739</ele>
        <time>2022-07-27T10:30:28Z</time>
      </trkpt>
      <trkpt lat="45.6449" lon="6.57351">
        <ele>1739</ele>
        <time>2022-07-27T10:30:29Z</time>
      </trkpt>
      <trkpt lat="45.6449" lon="6.57352">
        <ele>1739</ele>
        <time>2022-07-27T10:30:30Z</time>
      </trkpt>
      <trkpt lat="45.64491" lon="6.57353">
        <ele>1739</ele>
        <time>2022-07-27T10:30:31Z</time>
      </trkpt>
      <trkpt lat="45.64491" lon="6.57354">
        <ele>1739</ele>
        <time>2022-07-27T10:30:32Z</time>
      </trkpt>
      <trkpt lat="45.64492" lon="6.57354">
        <ele>1739</ele>
        <time>2022-07-27T10:30:33Z</time>
      </trkpt>
      <trkpt lat="45.64492" lon="6.57355">
        <ele>1739</ele>
        <time>2022-07-27T10:30:34Z</time>
      </trkpt>
      <trkpt lat="45.64494" lon="6.57356">
        <ele>1739</ele>
        <time>2022-07-27T10:30:41Z</time>
      </trkpt>
      <trkpt lat="45.64495" lon="6.57356">
        <ele>1739</ele>
        <time>2022-07-27T10:30:42Z</time>
      </trkpt>
      <trkpt lat="45.64496" lon="6.57356">
        <ele>1739</ele>
        <time>2022-07-27T10:30:43Z</time>
      </trkpt>
      <trkpt lat="45.64497" lon="6.57357">
        <ele>1739</ele>
        <time>2022-07-27T10:30:44Z</time>
      </trkpt>
      <trkpt lat="45.64497" lon="6.57357">
        <ele>1739</ele>
        <time>2022-07-27T10:30:45Z</time>
      </trkpt>
      <trkpt lat="45.64498" lon="6.57358">
        <ele>1739</ele>
        <time>2022-07-27T10:30:46Z</time>
      </trkpt>
      <trkpt lat="45.64499" lon="6.57358">
        <ele>1739</ele>
        <time>2022-07-27T10:30:47Z</time>
      </trkpt>
      <trkpt lat="45.645" lon="6.57359">
        <ele>1739</ele>
        <time>2022-07-27T10:30:48Z</time>
      </trkpt>
      <trkpt lat="45.64501" lon="6.57359">
        <ele>1739</ele>
        <time>2022-07-27T10:30:49Z</time>
      </trkpt>
      <trkpt lat="45.64503" lon="6.57359">
        <ele>1740</ele>
        <time>2022-07-27T10:30:50Z</time>
      </trkpt>
      <trkpt lat="45.64504" lon="6.5736">
        <ele>1740</ele>
        <time>2022-07-27T10:30:51Z</time>
      </trkpt>
      <trkpt lat="45.64505" lon="6.5736">
        <ele>1740</ele>
        <time>2022-07-27T10:30:52Z</time>
      </trkpt>
      <trkpt lat="45.64506" lon="6.5736">
        <ele>1740</ele>
        <time>2022-07-27T10:30:53Z</time>
      </trkpt>
      <trkpt lat="45.64507" lon="6.5736">
        <ele>1740</ele>
        <time>2022-07-27T10:30:54Z</time>
      </trkpt>
      <trkpt lat="45.64508" lon="6.5736">
        <ele>1740</ele>
        <time>2022-07-27T10:30:55Z</time>
      </trkpt>
      <trkpt lat="45.64508" lon="6.5736">
        <ele>1740</ele>
        <time>2022-07-27T10:30:56Z</time>
      </trkpt>
      <trkpt lat="45.64509" lon="6.5736">
        <ele>1740</ele>
        <time>2022-07-27T10:30:57Z</time>
      </trkpt>
      <trkpt lat="45.6451" lon="6.5736">
        <ele>1740</ele>
        <time>2022-07-27T10:30:58Z</time>
      </trkpt>
      <trkpt lat="45.64512" lon="6.5736">
        <ele>1740</ele>
        <time>2022-07-27T10:30:59Z</time>
      </trkpt>
      <trkpt lat="45.64513" lon="6.5736">
        <ele>1740</ele>
        <time>2022-07-27T10:31:00Z</time>
      </trkpt>
      <trkpt lat="45.64514" lon="6.5736">
        <ele>1740</ele>
        <time>2022-07-27T10:31:01Z</time>
      </trkpt>
      <trkpt lat="45.64515" lon="6.5736">
        <ele>1740</ele>
        <time>2022-07-27T10:31:02Z</time>
      </trkpt>
      <trkpt lat="45.64516" lon="6.5736">
        <ele>1740</ele>
        <time>2022-07-27T10:31:03Z</time>
      </trkpt>
      <trkpt lat="45.64514" lon="6.57357">
        <ele>1746</ele>
        <time>2022-07-27T10:32:07Z</time>
      </trkpt>
      <trkpt lat="45.64512" lon="6.57356">
        <ele>1746</ele>
        <time>2022-07-27T10:32:08Z</time>
      </trkpt>
      <trkpt lat="45.64511" lon="6.57355">
        <ele>1746</ele>
        <time>2022-07-27T10:32:09Z</time>
      </trkpt>
      <trkpt lat="45.6451" lon="6.57354">
        <ele>1747</ele>
        <time>2022-07-27T10:32:10Z</time>
      </trkpt>
      <trkpt lat="45.6451" lon="6.57353">
        <ele>1747</ele>
        <time>2022-07-27T10:32:11Z</time>
      </trkpt>
      <trkpt lat="45.64509" lon="6.57352">
        <ele>1747</ele>
        <time>2022-07-27T10:32:12Z</time>
      </trkpt>
      <trkpt lat="45.64508" lon="6.57351">
        <ele>1747</ele>
        <time>2022-07-27T10:32:13Z</time>
      </trkpt>
      <trkpt lat="45.64508" lon="6.5735">
        <ele>1747</ele>
        <time>2022-07-27T10:32:14Z</time>
      </trkpt>
      <trkpt lat="45.64507" lon="6.57348">
        <ele>1748</ele>
        <time>2022-07-27T10:32:15Z</time>
      </trkpt>
      <trkpt lat="45.64507" lon="6.57347">
        <ele>1748</ele>
        <time>2022-07-27T10:32:16Z</time>
      </trkpt>
      <trkpt lat="45.64506" lon="6.57345">
        <ele>1748</ele>
        <time>2022-07-27T10:32:17Z</time>
      </trkpt>
      <trkpt lat="45.64506" lon="6.57345">
        <ele>1748</ele>
        <time>2022-07-27T10:32:18Z</time>
      </trkpt>
      <trkpt lat="45.64506" lon="6.57344">
        <ele>1748</ele>
        <time>2022-07-27T10:32:19Z</time>
      </trkpt>
      <trkpt lat="45.64506" lon="6.57343">
        <ele>1749</ele>
        <time>2022-07-27T10:32:20Z</time>
      </trkpt>
      <trkpt lat="45.64506" lon="6.57342">
        <ele>1749</ele>
        <time>2022-07-27T10:32:21Z</time>
      </trkpt>
      <trkpt lat="45.64506" lon="6.57341">
        <ele>1749</ele>
        <time>2022-07-27T10:32:22Z</time>
      </trkpt>
      <trkpt lat="45.64507" lon="6.57338">
        <ele>1750</ele>
        <time>2022-07-27T10:32:32Z</time>
      </trkpt>
      <trkpt lat="45.64508" lon="6.57338">
        <ele>1750</ele>
        <time>2022-07-27T10:32:33Z</time>
      </trkpt>
      <trkpt lat="45.64509" lon="6.57337">
        <ele>1750</ele>
        <time>2022-07-27T10:32:34Z</time>
      </trkpt>
      <trkpt lat="45.64511" lon="6.57338">
        <ele>1752</ele>
        <time>2022-07-27T10:36:01Z</time>
      </trkpt>
      <trkpt lat="45.64511" lon="6.57339">
        <ele>1752</ele>
        <time>2022-07-27T10:36:02Z</time>
      </trkpt>
      <trkpt lat="45.64511" lon="6.57339">
        <ele>1752</ele>
        <time>2022-07-27T10:36:03Z</time>
      </trkpt>
      <trkpt lat="45.64512" lon="6.5734">
        <ele>1752</ele>
        <time>2022-07-27T10:36:04Z</time>
      </trkpt>
      <trkpt lat="45.64512" lon="6.57341">
        <ele>1752</ele>
        <time>2022-07-27T10:36:05Z</time>
      </trkpt>
      <trkpt lat="45.64513" lon="6.57341">
        <ele>1752</ele>
        <time>2022-07-27T10:36:06Z</time>
      </trkpt>
      <trkpt lat="45.64513" lon="6.57342">
        <ele>1752</ele>
        <time>2022-07-27T10:36:07Z</time>
      </trkpt>
      <trkpt lat="45.64514" lon="6.57342">
        <ele>1752</ele>
        <time>2022-07-27T10:36:08Z</time>
      </trkpt>
      <trkpt lat="45.64515" lon="6.57342">
        <ele>1752</ele>
        <time>2022-07-27T10:36:09Z</time>
      </trkpt>
      <trkpt lat="45.64515" lon="6.57343">
        <ele>1753</ele>
        <time>2022-07-27T10:36:10Z</time>
      </trkpt>
      <trkpt lat="45.64516" lon="6.57343">
        <ele>1753</ele>
        <time>2022-07-27T10:36:11Z</time>
      </trkpt>
      <trkpt lat="45.64517" lon="6.57343">
        <ele>1753</ele>
        <time>2022-07-27T10:36:12Z</time>
      </trkpt>
      <trkpt lat="45.64518" lon="6.57343">
        <ele>1753</ele>
        <time>2022-07-27T10:36:13Z</time>
      </trkpt>
      <trkpt lat="45.64519" lon="6.57343">
        <ele>1753</ele>
        <time>2022-07-27T10:36:14Z</time>
      </trkpt>
      <trkpt lat="45.6452" lon="6.57343">
        <ele>1753</ele>
        <time>2022-07-27T10:36:15Z</time>
      </trkpt>
      <trkpt lat="45.64521" lon="6.57343">
        <ele>1753</ele>
        <time>2022-07-27T10:36:16Z</time>
      </trkpt>
      <trkpt lat="45.64522" lon="6.57344">
        <ele>1753</ele>
        <time>2022-07-27T10:36:17Z</time>
      </trkpt>
      <trkpt lat="45.64522" lon="6.57344">
        <ele>1753</ele>
        <time>2022-07-27T10:36:18Z</time>
      </trkpt>
      <trkpt lat="45.64523" lon="6.57345">
        <ele>1753</ele>
        <time>2022-07-27T10:36:19Z</time>
      </trkpt>
      <trkpt lat="45.64524" lon="6.57346">
        <ele>1753</ele>
        <time>2022-07-27T10:36:20Z</time>
      </trkpt>
      <trkpt lat="45.64525" lon="6.57346">
        <ele>1753</ele>
        <time>2022-07-27T10:36:21Z</time>
      </trkpt>
      <trkpt lat="45.64525" lon="6.57347">
        <ele>1753</ele>
        <time>2022-07-27T10:36:22Z</time>
      </trkpt>
      <trkpt lat="45.64526" lon="6.57348">
        <ele>1753</ele>
        <time>2022-07-27T10:36:23Z</time>
      </trkpt>
      <trkpt lat="45.64526" lon="6.57348">
        <ele>1753</ele>
        <time>2022-07-27T10:36:24Z</time>
      </trkpt>
      <trkpt lat="45.64527" lon="6.57348">
        <ele>1754</ele>
        <time>2022-07-27T10:36:25Z</time>
      </trkpt>
      <trkpt lat="45.64527" lon="6.57348">
        <ele>1754</ele>
        <time>2022-07-27T10:36:26Z</time>
      </trkpt>
      <trkpt lat="45.64528" lon="6.57348">
        <ele>1754</ele>
        <time>2022-07-27T10:36:27Z</time>
      </trkpt>
      <trkpt lat="45.64529" lon="6.57348">
        <ele>1754</ele>
        <time>2022-07-27T10:36:28Z</time>
      </trkpt>
      <trkpt lat="45.6453" lon="6.57348">
        <ele>1754</ele>
        <time>2022-07-27T10:36:29Z</time>
      </trkpt>
      <trkpt lat="45.6453" lon="6.57348">
        <ele>1754</ele>
        <time>2022-07-27T10:36:30Z</time>
      </trkpt>
      <trkpt lat="45.64531" lon="6.57348">
        <ele>1754</ele>
        <time>2022-07-27T10:36:31Z</time>
      </trkpt>
      <trkpt lat="45.64532" lon="6.57349">
        <ele>1754</ele>
        <time>2022-07-27T10:36:32Z</time>
      </trkpt>
      <trkpt lat="45.64533" lon="6.57349">
        <ele>1754</ele>
        <time>2022-07-27T10:36:33Z</time>
      </trkpt>
      <trkpt lat="45.64533" lon="6.57349">
        <ele>1754</ele>
        <time>2022-07-27T10:36:34Z</time>
      </trkpt>
      <trkpt lat="45.64533" lon="6.57349">
        <ele>1754</ele>
        <time>2022-07-27T10:36:35Z</time>
      </trkpt>
      <trkpt lat="45.64534" lon="6.57349">
        <ele>1754</ele>
        <time>2022-07-27T10:36:36Z</time>
      </trkpt>
      <trkpt lat="45.64535" lon="6.57349">
        <ele>1754</ele>
        <time>2022-07-27T10:36:37Z</time>
      </trkpt>
      <trkpt lat="45.64536" lon="6.57349">
        <ele>1754</ele>
        <time>2022-07-27T10:36:38Z</time>
      </trkpt>
      <trkpt lat="45.64536" lon="6.57349">
        <ele>1754</ele>
        <time>2022-07-27T10:36:39Z</time>
      </trkpt>
      <trkpt lat="45.64537" lon="6.57349">
        <ele>1755</ele>
        <time>2022-07-27T10:36:40Z</time>
      </trkpt>
      <trkpt lat="45.64537" lon="6.57349">
        <ele>1755</ele>
        <time>2022-07-27T10:36:41Z</time>
      </trkpt>
      <trkpt lat="45.64538" lon="6.57349">
        <ele>1755</ele>
        <time>2022-07-27T10:36:42Z</time>
      </trkpt>
      <trkpt lat="45.64539" lon="6.57349">
        <ele>1755</ele>
        <time>2022-07-27T10:36:43Z</time>
      </trkpt>
      <trkpt lat="45.6454" lon="6.5735">
        <ele>1755</ele>
        <time>2022-07-27T10:36:44Z</time>
      </trkpt>
      <trkpt lat="45.64541" lon="6.5735">
        <ele>1756</ele>
        <time>2022-07-27T10:36:45Z</time>
      </trkpt>
      <trkpt lat="45.64541" lon="6.57351">
        <ele>1756</ele>
        <time>2022-07-27T10:36:46Z</time>
      </trkpt>
      <trkpt lat="45.64542" lon="6.57352">
        <ele>1756</ele>
        <time>2022-07-27T10:36:47Z</time>
      </trkpt>
      <trkpt lat="45.64543" lon="6.57352">
        <ele>1756</ele>
        <time>2022-07-27T10:36:48Z</time>
      </trkpt>
      <trkpt lat="45.64544" lon="6.57353">
        <ele>1756</ele>
        <time>2022-07-27T10:36:49Z</time>
      </trkpt>
      <trkpt lat="45.64545" lon="6.57353">
        <ele>1756</ele>
        <time>2022-07-27T10:36:50Z</time>
      </trkpt>
      <trkpt lat="45.64545" lon="6.57354">
        <ele>1756</ele>
        <time>2022-07-27T10:36:51Z</time>
      </trkpt>
      <trkpt lat="45.64546" lon="6.57354">
        <ele>1756</ele>
        <time>2022-07-27T10:36:52Z</time>
      </trkpt>
      <trkpt lat="45.64547" lon="6.57355">
        <ele>1756</ele>
        <time>2022-07-27T10:36:53Z</time>
      </trkpt>
      <trkpt lat="45.64548" lon="6.57355">
        <ele>1756</ele>
        <time>2022-07-27T10:36:54Z</time>
      </trkpt>
      <trkpt lat="45.64549" lon="6.57355">
        <ele>1757</ele>
        <time>2022-07-27T10:36:55Z</time>
      </trkpt>
      <trkpt lat="45.64549" lon="6.57355">
        <ele>1757</ele>
        <time>2022-07-27T10:36:56Z</time>
      </trkpt>
      <trkpt lat="45.6455" lon="6.57355">
        <ele>1757</ele>
        <time>2022-07-27T10:36:57Z</time>
      </trkpt>
      <trkpt lat="45.6455" lon="6.57356">
        <ele>1757</ele>
        <time>2022-07-27T10:36:58Z</time>
      </trkpt>
      <trkpt lat="45.64551" lon="6.57356">
        <ele>1757</ele>
        <time>2022-07-27T10:36:59Z</time>
      </trkpt>
      <trkpt lat="45.64552" lon="6.57356">
        <ele>1757</ele>
        <time>2022-07-27T10:37:00Z</time>
      </trkpt>
      <trkpt lat="45.64552" lon="6.57356">
        <ele>1757</ele>
        <time>2022-07-27T10:37:01Z</time>
      </trkpt>
      <trkpt lat="45.64553" lon="6.57356">
        <ele>1757</ele>
        <time>2022-07-27T10:37:02Z</time>
      </trkpt>
      <trkpt lat="45.64554" lon="6.57356">
        <ele>1757</ele>
        <time>2022-07-27T10:37:03Z</time>
      </trkpt>
      <trkpt lat="45.64554" lon="6.57356">
        <ele>1757</ele>
        <time>2022-07-27T10:37:04Z</time>
      </trkpt>
      <trkpt lat="45.64554" lon="6.57356">
        <ele>1758</ele>
        <time>2022-07-27T10:37:05Z</time>
      </trkpt>
      <trkpt lat="45.64554" lon="6.57356">
        <ele>1758</ele>
        <time>2022-07-27T10:37:06Z</time>
      </trkpt>
      <trkpt lat="45.64555" lon="6.57356">
        <ele>1758</ele>
        <time>2022-07-27T10:37:07Z</time>
      </trkpt>
      <trkpt lat="45.64555" lon="6.57355">
        <ele>1758</ele>
        <time>2022-07-27T10:37:08Z</time>
      </trkpt>
      <trkpt lat="45.64556" lon="6.57355">
        <ele>1758</ele>
        <time>2022-07-27T10:37:09Z</time>
      </trkpt>
      <trkpt lat="45.64556" lon="6.57354">
        <ele>1758</ele>
        <time>2022-07-27T10:37:10Z</time>
      </trkpt>
      <trkpt lat="45.64556" lon="6.57353">
        <ele>1758</ele>
        <time>2022-07-27T10:37:11Z</time>
      </trkpt>
      <trkpt lat="45.64557" lon="6.57353">
        <ele>1758</ele>
        <time>2022-07-27T10:37:12Z</time>
      </trkpt>
      <trkpt lat="45.64557" lon="6.57348">
        <ele>1765</ele>
        <time>2022-07-27T10:38:24Z</time>
      </trkpt>
      <trkpt lat="45.64558" lon="6.57346">
        <ele>1765</ele>
        <time>2022-07-27T10:38:25Z</time>
      </trkpt>
      <trkpt lat="45.64558" lon="6.57343">
        <ele>1765</ele>
        <time>2022-07-27T10:38:26Z</time>
      </trkpt>
      <trkpt lat="45.64559" lon="6.57342">
        <ele>1765</ele>
        <time>2022-07-27T10:38:27Z</time>
      </trkpt>
      <trkpt lat="45.64559" lon="6.57341">
        <ele>1765</ele>
        <time>2022-07-27T10:38:28Z</time>
      </trkpt>
      <trkpt lat="45.6456" lon="6.57341">
        <ele>1765</ele>
        <time>2022-07-27T10:38:29Z</time>
      </trkpt>
      <trkpt lat="45.64561" lon="6.57341">
        <ele>1766</ele>
        <time>2022-07-27T10:38:30Z</time>
      </trkpt>
      <trkpt lat="45.64562" lon="6.57341">
        <ele>1766</ele>
        <time>2022-07-27T10:38:31Z</time>
      </trkpt>
      <trkpt lat="45.64563" lon="6.57342">
        <ele>1766</ele>
        <time>2022-07-27T10:38:32Z</time>
      </trkpt>
      <trkpt lat="45.64564" lon="6.57342">
        <ele>1766</ele>
        <time>2022-07-27T10:38:33Z</time>
      </trkpt>
      <trkpt lat="45.64565" lon="6.57342">
        <ele>1766</ele>
        <time>2022-07-27T10:38:34Z</time>
      </trkpt>
      <trkpt lat="45.64566" lon="6.57342">
        <ele>1766</ele>
        <time>2022-07-27T10:38:35Z</time>
      </trkpt>
      <trkpt lat="45.64567" lon="6.57342">
        <ele>1766</ele>
        <time>2022-07-27T10:38:36Z</time>
      </trkpt>
      <trkpt lat="45.64568" lon="6.57341">
        <ele>1766</ele>
        <time>2022-07-27T10:38:37Z</time>
      </trkpt>
      <trkpt lat="45.64569" lon="6.57341">
        <ele>1766</ele>
        <time>2022-07-27T10:38:38Z</time>
      </trkpt>
      <trkpt lat="45.64571" lon="6.57341">
        <ele>1766</ele>
        <time>2022-07-27T10:38:39Z</time>
      </trkpt>
      <trkpt lat="45.64572" lon="6.57342">
        <ele>1767</ele>
        <time>2022-07-27T10:38:40Z</time>
      </trkpt>
      <trkpt lat="45.64573" lon="6.57342">
        <ele>1767</ele>
        <time>2022-07-27T10:38:41Z</time>
      </trkpt>
      <trkpt lat="45.64574" lon="6.57342">
        <ele>1767</ele>
        <time>2022-07-27T10:38:42Z</time>
      </trkpt>
      <trkpt lat="45.64575" lon="6.57342">
        <ele>1767</ele>
        <time>2022-07-27T10:38:43Z</time>
      </trkpt>
      <trkpt lat="45.64578" lon="6.57341">
        <ele>1768</ele>
        <time>2022-07-27T10:38:56Z</time>
      </trkpt>
      <trkpt lat="45.64579" lon="6.57341">
        <ele>1768</ele>
        <time>2022-07-27T10:38:57Z</time>
      </trkpt>
      <trkpt lat="45.6458" lon="6.5734">
        <ele>1768</ele>
        <time>2022-07-27T10:38:58Z</time>
      </trkpt>
      <trkpt lat="45.64581" lon="6.5734">
        <ele>1768</ele>
        <time>2022-07-27T10:38:59Z</time>
      </trkpt>
      <trkpt lat="45.64581" lon="6.5734">
        <ele>1769</ele>
        <time>2022-07-27T10:39:00Z</time>
      </trkpt>
      <trkpt lat="45.64582" lon="6.57339">
        <ele>1769</ele>
        <time>2022-07-27T10:39:01Z</time>
      </trkpt>
      <trkpt lat="45.64583" lon="6.57339">
        <ele>1769</ele>
        <time>2022-07-27T10:39:02Z</time>
      </trkpt>
      <trkpt lat="45.64584" lon="6.57339">
        <ele>1769</ele>
        <time>2022-07-27T10:39:03Z</time>
      </trkpt>
      <trkpt lat="45.64585" lon="6.57339">
        <ele>1769</ele>
        <time>2022-07-27T10:39:04Z</time>
      </trkpt>
      <trkpt lat="45.64586" lon="6.57339">
        <ele>1770</ele>
        <time>2022-07-27T10:39:05Z</time>
      </trkpt>
      <trkpt lat="45.64587" lon="6.57339">
        <ele>1770</ele>
        <time>2022-07-27T10:39:06Z</time>
      </trkpt>
      <trkpt lat="45.64588" lon="6.57339">
        <ele>1770</ele>
        <time>2022-07-27T10:39:07Z</time>
      </trkpt>
      <trkpt lat="45.64589" lon="6.57339">
        <ele>1770</ele>
        <time>2022-07-27T10:39:08Z</time>
      </trkpt>
      <trkpt lat="45.6459" lon="6.57339">
        <ele>1770</ele>
        <time>2022-07-27T10:39:09Z</time>
      </trkpt>
      <trkpt lat="45.64591" lon="6.57339">
        <ele>1771</ele>
        <time>2022-07-27T10:39:10Z</time>
      </trkpt>
      <trkpt lat="45.64591" lon="6.57339">
        <ele>1771</ele>
        <time>2022-07-27T10:39:11Z</time>
      </trkpt>
      <trkpt lat="45.64592" lon="6.57339">
        <ele>1771</ele>
        <time>2022-07-27T10:39:12Z</time>
      </trkpt>
      <trkpt lat="45.64593" lon="6.57338">
        <ele>1772</ele>
        <time>2022-07-27T10:39:42Z</time>
      </trkpt>
      <trkpt lat="45.64593" lon="6.57339">
        <ele>1772</ele>
        <time>2022-07-27T10:39:43Z</time>
      </trkpt>
      <trkpt lat="45.64593" lon="6.57339">
        <ele>1772</ele>
        <time>2022-07-27T10:39:44Z</time>
      </trkpt>
      <trkpt lat="45.64594" lon="6.5734">
        <ele>1773</ele>
        <time>2022-07-27T10:40:24Z</time>
      </trkpt>
      <trkpt lat="45.64595" lon="6.57341">
        <ele>1773</ele>
        <time>2022-07-27T10:40:25Z</time>
      </trkpt>
      <trkpt lat="45.64596" lon="6.57341">
        <ele>1773</ele>
        <time>2022-07-27T10:40:26Z</time>
      </trkpt>
      <trkpt lat="45.64597" lon="6.57342">
        <ele>1773</ele>
        <time>2022-07-27T10:40:27Z</time>
      </trkpt>
      <trkpt lat="45.64597" lon="6.57342">
        <ele>1773</ele>
        <time>2022-07-27T10:40:28Z</time>
      </trkpt>
      <trkpt lat="45.64598" lon="6.57345">
        <ele>1773</ele>
        <time>2022-07-27T10:42:25Z</time>
      </trkpt>
      <trkpt lat="45.64598" lon="6.57346">
        <ele>1773</ele>
        <time>2022-07-27T10:42:26Z</time>
      </trkpt>
      <trkpt lat="45.64598" lon="6.57347">
        <ele>1773</ele>
        <time>2022-07-27T10:42:27Z</time>
      </trkpt>
      <trkpt lat="45.64598" lon="6.57348">
        <ele>1773</ele>
        <time>2022-07-27T10:42:28Z</time>
      </trkpt>
      <trkpt lat="45.64598" lon="6.57348">
        <ele>1773</ele>
        <time>2022-07-27T10:42:29Z</time>
      </trkpt>
      <trkpt lat="45.64598" lon="6.57348">
        <ele>1773</ele>
        <time>2022-07-27T10:42:30Z</time>
      </trkpt>
      <trkpt lat="45.64598" lon="6.57349">
        <ele>1773</ele>
        <time>2022-07-27T10:42:31Z</time>
      </trkpt>
      <trkpt lat="45.64598" lon="6.57349">
        <ele>1773</ele>
        <time>2022-07-27T10:42:32Z</time>
      </trkpt>
      <trkpt lat="45.64598" lon="6.57349">
        <ele>1773</ele>
        <time>2022-07-27T10:42:33Z</time>
      </trkpt>
      <trkpt lat="45.64598" lon="6.5735">
        <ele>1773</ele>
        <time>2022-07-27T10:42:34Z</time>
      </trkpt>
      <trkpt lat="45.64599" lon="6.5735">
        <ele>1773</ele>
        <time>2022-07-27T10:42:35Z</time>
      </trkpt>
      <trkpt lat="45.646" lon="6.57351">
        <ele>1773</ele>
        <time>2022-07-27T10:42:36Z</time>
      </trkpt>
      <trkpt lat="45.64601" lon="6.57351">
        <ele>1773</ele>
        <time>2022-07-27T10:42:37Z</time>
      </trkpt>
      <trkpt lat="45.64601" lon="6.57352">
        <ele>1773</ele>
        <time>2022-07-27T10:42:38Z</time>
      </trkpt>
      <trkpt lat="45.64602" lon="6.57352">
        <ele>1773</ele>
        <time>2022-07-27T10:42:39Z</time>
      </trkpt>
      <trkpt lat="45.64603" lon="6.57352">
        <ele>1773</ele>
        <time>2022-07-27T10:42:40Z</time>
      </trkpt>
      <trkpt lat="45.64604" lon="6.57352">
        <ele>1773</ele>
        <time>2022-07-27T10:42:41Z</time>
      </trkpt>
      <trkpt lat="45.64605" lon="6.57352">
        <ele>1773</ele>
        <time>2022-07-27T10:42:42Z</time>
      </trkpt>
      <trkpt lat="45.64606" lon="6.57352">
        <ele>1773</ele>
        <time>2022-07-27T10:42:43Z</time>
      </trkpt>
      <trkpt lat="45.64607" lon="6.57352">
        <ele>1773</ele>
        <time>2022-07-27T10:42:44Z</time>
      </trkpt>
      <trkpt lat="45.64609" lon="6.57351">
        <ele>1773</ele>
        <time>2022-07-27T10:42:45Z</time>
      </trkpt>
      <trkpt lat="45.64609" lon="6.57351">
        <ele>1773</ele>
        <time>2022-07-27T10:42:46Z</time>
      </trkpt>
      <trkpt lat="45.6461" lon="6.57351">
        <ele>1773</ele>
        <time>2022-07-27T10:42:47Z</time>
      </trkpt>
      <trkpt lat="45.64611" lon="6.57351">
        <ele>1773</ele>
        <time>2022-07-27T10:42:48Z</time>
      </trkpt>
      <trkpt lat="45.64612" lon="6.57351">
        <ele>1773</ele>
        <time>2022-07-27T10:42:49Z</time>
      </trkpt>
      <trkpt lat="45.64612" lon="6.57351">
        <ele>1774</ele>
        <time>2022-07-27T10:42:50Z</time>
      </trkpt>
      <trkpt lat="45.64612" lon="6.57351">
        <ele>1774</ele>
        <time>2022-07-27T10:42:51Z</time>
      </trkpt>
      <trkpt lat="45.64613" lon="6.57351">
        <ele>1774</ele>
        <time>2022-07-27T10:42:52Z</time>
      </trkpt>
      <trkpt lat="45.64613" lon="6.57351">
        <ele>1774</ele>
        <time>2022-07-27T10:42:53Z</time>
      </trkpt>
      <trkpt lat="45.64614" lon="6.57351">
        <ele>1774</ele>
        <time>2022-07-27T10:42:54Z</time>
      </trkpt>
      <trkpt lat="45.64614" lon="6.57351">
        <ele>1774</ele>
        <time>2022-07-27T10:42:55Z</time>
      </trkpt>
      <trkpt lat="45.64615" lon="6.57351">
        <ele>1774</ele>
        <time>2022-07-27T10:42:56Z</time>
      </trkpt>
      <trkpt lat="45.64615" lon="6.57351">
        <ele>1774</ele>
        <time>2022-07-27T10:42:57Z</time>
      </trkpt>
      <trkpt lat="45.64615" lon="6.5735">
        <ele>1774</ele>
        <time>2022-07-27T10:42:58Z</time>
      </trkpt>
      <trkpt lat="45.64616" lon="6.5735">
        <ele>1774</ele>
        <time>2022-07-27T10:42:59Z</time>
      </trkpt>
      <trkpt lat="45.64616" lon="6.5735">
        <ele>1775</ele>
        <time>2022-07-27T10:43:00Z</time>
      </trkpt>
      <trkpt lat="45.64617" lon="6.57349">
        <ele>1775</ele>
        <time>2022-07-27T10:43:01Z</time>
      </trkpt>
      <trkpt lat="45.64617" lon="6.57349">
        <ele>1775</ele>
        <time>2022-07-27T10:43:02Z</time>
      </trkpt>
      <trkpt lat="45.64618" lon="6.57348">
        <ele>1775</ele>
        <time>2022-07-27T10:43:03Z</time>
      </trkpt>
      <trkpt lat="45.64618" lon="6.57348">
        <ele>1775</ele>
        <time>2022-07-27T10:43:04Z</time>
      </trkpt>
      <trkpt lat="45.64617" lon="6.57344">
        <ele>1780</ele>
        <time>2022-07-27T10:43:35Z</time>
      </trkpt>
      <trkpt lat="45.64616" lon="6.57342">
        <ele>1780</ele>
        <time>2022-07-27T10:43:36Z</time>
      </trkpt>
      <trkpt lat="45.64615" lon="6.5734">
        <ele>1780</ele>
        <time>2022-07-27T10:43:37Z</time>
      </trkpt>
      <trkpt lat="45.64614" lon="6.57338">
        <ele>1780</ele>
        <time>2022-07-27T10:43:38Z</time>
      </trkpt>
      <trkpt lat="45.64614" lon="6.57337">
        <ele>1780</ele>
        <time>2022-07-27T10:43:39Z</time>
      </trkpt>
      <trkpt lat="45.64614" lon="6.57337">
        <ele>1780</ele>
        <time>2022-07-27T10:43:40Z</time>
      </trkpt>
      <trkpt lat="45.64613" lon="6.57336">
        <ele>1780</ele>
        <time>2022-07-27T10:43:41Z</time>
      </trkpt>
      <trkpt lat="45.64613" lon="6.57336">
        <ele>1780</ele>
        <time>2022-07-27T10:43:42Z</time>
      </trkpt>
      <trkpt lat="45.64613" lon="6.57335">
        <ele>1780</ele>
        <time>2022-07-27T10:43:43Z</time>
      </trkpt>
      <trkpt lat="45.64613" lon="6.57334">
        <ele>1780</ele>
        <time>2022-07-27T10:43:44Z</time>
      </trkpt>
      <trkpt lat="45.64612" lon="6.57333">
        <ele>1781</ele>
        <time>2022-07-27T10:43:45Z</time>
      </trkpt>
      <trkpt lat="45.64612" lon="6.57332">
        <ele>1781</ele>
        <time>2022-07-27T10:43:46Z</time>
      </trkpt>
      <trkpt lat="45.64612" lon="6.57331">
        <ele>1781</ele>
        <time>2022-07-27T10:43:47Z</time>
      </trkpt>
      <trkpt lat="45.64611" lon="6.5733">
        <ele>1781</ele>
        <time>2022-07-27T10:43:48Z</time>
      </trkpt>
      <trkpt lat="45.64612" lon="6.57329">
        <ele>1781</ele>
        <time>2022-07-27T10:43:49Z</time>
      </trkpt>
      <trkpt lat="45.64612" lon="6.57328">
        <ele>1782</ele>
        <time>2022-07-27T10:43:50Z</time>
      </trkpt>
      <trkpt lat="45.64612" lon="6.57328">
        <ele>1782</ele>
        <time>2022-07-27T10:43:51Z</time>
      </trkpt>
      <trkpt lat="45.64613" lon="6.57328">
        <ele>1782</ele>
        <time>2022-07-27T10:43:52Z</time>
      </trkpt>
      <trkpt lat="45.64613" lon="6.57328">
        <ele>1782</ele>
        <time>2022-07-27T10:43:53Z</time>
      </trkpt>
      <trkpt lat="45.64614" lon="6.57328">
        <ele>1782</ele>
        <time>2022-07-27T10:43:54Z</time>
      </trkpt>
      <trkpt lat="45.64615" lon="6.57328">
        <ele>1783</ele>
        <time>2022-07-27T10:43:55Z</time>
      </trkpt>
      <trkpt lat="45.64615" lon="6.57328">
        <ele>1783</ele>
        <time>2022-07-27T10:43:56Z</time>
      </trkpt>
      <trkpt lat="45.64616" lon="6.57328">
        <ele>1783</ele>
        <time>2022-07-27T10:43:57Z</time>
      </trkpt>
      <trkpt lat="45.64617" lon="6.57328">
        <ele>1783</ele>
        <time>2022-07-27T10:43:58Z</time>
      </trkpt>
      <trkpt lat="45.64617" lon="6.57327">
        <ele>1783</ele>
        <time>2022-07-27T10:43:59Z</time>
      </trkpt>
      <trkpt lat="45.64618" lon="6.57327">
        <ele>1784</ele>
        <time>2022-07-27T10:44:00Z</time>
      </trkpt>
      <trkpt lat="45.64622" lon="6.57325">
        <ele>1789</ele>
        <time>2022-07-27T10:44:38Z</time>
      </trkpt>
      <trkpt lat="45.64624" lon="6.57324">
        <ele>1789</ele>
        <time>2022-07-27T10:44:39Z</time>
      </trkpt>
      <trkpt lat="45.64626" lon="6.57323">
        <ele>1790</ele>
        <time>2022-07-27T10:44:40Z</time>
      </trkpt>
      <trkpt lat="45.64627" lon="6.57323">
        <ele>1790</ele>
        <time>2022-07-27T10:44:41Z</time>
      </trkpt>
      <trkpt lat="45.64629" lon="6.57323">
        <ele>1790</ele>
        <time>2022-07-27T10:44:42Z</time>
      </trkpt>
      <trkpt lat="45.6463" lon="6.57323">
        <ele>1790</ele>
        <time>2022-07-27T10:44:43Z</time>
      </trkpt>
      <trkpt lat="45.64631" lon="6.57323">
        <ele>1790</ele>
        <time>2022-07-27T10:44:44Z</time>
      </trkpt>
      <trkpt lat="45.64632" lon="6.57323">
        <ele>1790</ele>
        <time>2022-07-27T10:44:45Z</time>
      </trkpt>
      <trkpt lat="45.64633" lon="6.57323">
        <ele>1790</ele>
        <time>2022-07-27T10:44:46Z</time>
      </trkpt>
      <trkpt lat="45.64634" lon="6.57323">
        <ele>1790</ele>
        <time>2022-07-27T10:44:47Z</time>
      </trkpt>
      <trkpt lat="45.64635" lon="6.57322">
        <ele>1790</ele>
        <time>2022-07-27T10:44:48Z</time>
      </trkpt>
      <trkpt lat="45.64636" lon="6.57322">
        <ele>1790</ele>
        <time>2022-07-27T10:44:49Z</time>
      </trkpt>
      <trkpt lat="45.64637" lon="6.57321">
        <ele>1791</ele>
        <time>2022-07-27T10:44:50Z</time>
      </trkpt>
      <trkpt lat="45.6464" lon="6.5732">
        <ele>1792</ele>
        <time>2022-07-27T10:45:02Z</time>
      </trkpt>
      <trkpt lat="45.64641" lon="6.57319">
        <ele>1792</ele>
        <time>2022-07-27T10:45:03Z</time>
      </trkpt>
      <trkpt lat="45.64643" lon="6.57318">
        <ele>1792</ele>
        <time>2022-07-27T10:45:04Z</time>
      </trkpt>
      <trkpt lat="45.64644" lon="6.57318">
        <ele>1793</ele>
        <time>2022-07-27T10:45:05Z</time>
      </trkpt>
      <trkpt lat="45.64645" lon="6.57318">
        <ele>1793</ele>
        <time>2022-07-27T10:45:06Z</time>
      </trkpt>
      <trkpt lat="45.64645" lon="6.57318">
        <ele>1793</ele>
        <time>2022-07-27T10:45:07Z</time>
      </trkpt>
      <trkpt lat="45.64646" lon="6.57318">
        <ele>1793</ele>
        <time>2022-07-27T10:45:08Z</time>
      </trkpt>
      <trkpt lat="45.64647" lon="6.57318">
        <ele>1793</ele>
        <time>2022-07-27T10:45:09Z</time>
      </trkpt>
      <trkpt lat="45.64648" lon="6.57318">
        <ele>1794</ele>
        <time>2022-07-27T10:45:10Z</time>
      </trkpt>
      <trkpt lat="45.64649" lon="6.57318">
        <ele>1794</ele>
        <time>2022-07-27T10:45:11Z</time>
      </trkpt>
      <trkpt lat="45.6465" lon="6.57318">
        <ele>1794</ele>
        <time>2022-07-27T10:45:12Z</time>
      </trkpt>
      <trkpt lat="45.64651" lon="6.57317">
        <ele>1796</ele>
        <time>2022-07-27T10:45:22Z</time>
      </trkpt>
      <trkpt lat="45.64652" lon="6.57316">
        <ele>1796</ele>
        <time>2022-07-27T10:45:23Z</time>
      </trkpt>
      <trkpt lat="45.64652" lon="6.57315">
        <ele>1796</ele>
        <time>2022-07-27T10:45:24Z</time>
      </trkpt>
      <trkpt lat="45.64652" lon="6.57314">
        <ele>1796</ele>
        <time>2022-07-27T10:45:25Z</time>
      </trkpt>
      <trkpt lat="45.64653" lon="6.57314">
        <ele>1796</ele>
        <time>2022-07-27T10:45:26Z</time>
      </trkpt>
      <trkpt lat="45.64654" lon="6.57314">
        <ele>1796</ele>
        <time>2022-07-27T10:45:27Z</time>
      </trkpt>
      <trkpt lat="45.64655" lon="6.57314">
        <ele>1796</ele>
        <time>2022-07-27T10:45:28Z</time>
      </trkpt>
      <trkpt lat="45.64655" lon="6.57314">
        <ele>1796</ele>
        <time>2022-07-27T10:45:29Z</time>
      </trkpt>
      <trkpt lat="45.64656" lon="6.57314">
        <ele>1797</ele>
        <time>2022-07-27T10:45:30Z</time>
      </trkpt>
      <trkpt lat="45.64657" lon="6.57315">
        <ele>1797</ele>
        <time>2022-07-27T10:45:31Z</time>
      </trkpt>
      <trkpt lat="45.64658" lon="6.57315">
        <ele>1797</ele>
        <time>2022-07-27T10:45:32Z</time>
      </trkpt>
      <trkpt lat="45.64659" lon="6.57315">
        <ele>1797</ele>
        <time>2022-07-27T10:45:33Z</time>
      </trkpt>
      <trkpt lat="45.64659" lon="6.57315">
        <ele>1797</ele>
        <time>2022-07-27T10:45:34Z</time>
      </trkpt>
      <trkpt lat="45.6466" lon="6.57315">
        <ele>1798</ele>
        <time>2022-07-27T10:45:35Z</time>
      </trkpt>
      <trkpt lat="45.6466" lon="6.57315">
        <ele>1798</ele>
        <time>2022-07-27T10:45:36Z</time>
      </trkpt>
      <trkpt lat="45.64661" lon="6.57315">
        <ele>1798</ele>
        <time>2022-07-27T10:45:37Z</time>
      </trkpt>
      <trkpt lat="45.64661" lon="6.57315">
        <ele>1798</ele>
        <time>2022-07-27T10:45:38Z</time>
      </trkpt>
      <trkpt lat="45.64663" lon="6.57315">
        <ele>1799</ele>
        <time>2022-07-27T10:45:45Z</time>
      </trkpt>
      <trkpt lat="45.64663" lon="6.57315">
        <ele>1799</ele>
        <time>2022-07-27T10:45:46Z</time>
      </trkpt>
      <trkpt lat="45.64664" lon="6.57315">
        <ele>1799</ele>
        <time>2022-07-27T10:45:47Z</time>
      </trkpt>
      <trkpt lat="45.64664" lon="6.57315">
        <ele>1799</ele>
        <time>2022-07-27T10:45:48Z</time>
      </trkpt>
      <trkpt lat="45.64665" lon="6.57315">
        <ele>1799</ele>
        <time>2022-07-27T10:45:49Z</time>
      </trkpt>
      <trkpt lat="45.64665" lon="6.57315">
        <ele>1800</ele>
        <time>2022-07-27T10:45:50Z</time>
      </trkpt>
      <trkpt lat="45.64666" lon="6.57317">
        <ele>1801</ele>
        <time>2022-07-27T10:46:02Z</time>
      </trkpt>
      <trkpt lat="45.64667" lon="6.57318">
        <ele>1801</ele>
        <time>2022-07-27T10:46:03Z</time>
      </trkpt>
      <trkpt lat="45.64668" lon="6.57319">
        <ele>1801</ele>
        <time>2022-07-27T10:46:04Z</time>
      </trkpt>
      <trkpt lat="45.64669" lon="6.5732">
        <ele>1802</ele>
        <time>2022-07-27T10:46:05Z</time>
      </trkpt>
      <trkpt lat="45.64669" lon="6.5732">
        <ele>1802</ele>
        <time>2022-07-27T10:46:06Z</time>
      </trkpt>
      <trkpt lat="45.6467" lon="6.57321">
        <ele>1802</ele>
        <time>2022-07-27T10:46:07Z</time>
      </trkpt>
      <trkpt lat="45.6467" lon="6.57322">
        <ele>1802</ele>
        <time>2022-07-27T10:46:08Z</time>
      </trkpt>
      <trkpt lat="45.64671" lon="6.57323">
        <ele>1802</ele>
        <time>2022-07-27T10:46:09Z</time>
      </trkpt>
      <trkpt lat="45.64672" lon="6.57324">
        <ele>1802</ele>
        <time>2022-07-27T10:46:10Z</time>
      </trkpt>
      <trkpt lat="45.64673" lon="6.57325">
        <ele>1802</ele>
        <time>2022-07-27T10:46:11Z</time>
      </trkpt>
      <trkpt lat="45.64674" lon="6.57326">
        <ele>1802</ele>
        <time>2022-07-27T10:46:12Z</time>
      </trkpt>
      <trkpt lat="45.64675" lon="6.57327">
        <ele>1802</ele>
        <time>2022-07-27T10:46:13Z</time>
      </trkpt>
      <trkpt lat="45.64676" lon="6.57328">
        <ele>1802</ele>
        <time>2022-07-27T10:46:14Z</time>
      </trkpt>
      <trkpt lat="45.64677" lon="6.5733">
        <ele>1802</ele>
        <time>2022-07-27T10:46:15Z</time>
      </trkpt>
      <trkpt lat="45.64678" lon="6.57331">
        <ele>1802</ele>
        <time>2022-07-27T10:46:16Z</time>
      </trkpt>
      <trkpt lat="45.64679" lon="6.57333">
        <ele>1802</ele>
        <time>2022-07-27T10:46:17Z</time>
      </trkpt>
      <trkpt lat="45.6468" lon="6.57334">
        <ele>1802</ele>
        <time>2022-07-27T10:46:18Z</time>
      </trkpt>
      <trkpt lat="45.64681" lon="6.57335">
        <ele>1802</ele>
        <time>2022-07-27T10:46:19Z</time>
      </trkpt>
      <trkpt lat="45.64682" lon="6.57336">
        <ele>1802</ele>
        <time>2022-07-27T10:46:20Z</time>
      </trkpt>
      <trkpt lat="45.64683" lon="6.57336">
        <ele>1802</ele>
        <time>2022-07-27T10:46:21Z</time>
      </trkpt>
      <trkpt lat="45.64684" lon="6.57337">
        <ele>1802</ele>
        <time>2022-07-27T10:46:22Z</time>
      </trkpt>
      <trkpt lat="45.64685" lon="6.57337">
        <ele>1802</ele>
        <time>2022-07-27T10:46:23Z</time>
      </trkpt>
      <trkpt lat="45.64686" lon="6.57337">
        <ele>1802</ele>
        <time>2022-07-27T10:46:24Z</time>
      </trkpt>
      <trkpt lat="45.64687" lon="6.57338">
        <ele>1802</ele>
        <time>2022-07-27T10:46:25Z</time>
      </trkpt>
      <trkpt lat="45.64688" lon="6.57338">
        <ele>1802</ele>
        <time>2022-07-27T10:46:26Z</time>
      </trkpt>
      <trkpt lat="45.64689" lon="6.57338">
        <ele>1802</ele>
        <time>2022-07-27T10:46:27Z</time>
      </trkpt>
      <trkpt lat="45.6469" lon="6.57339">
        <ele>1802</ele>
        <time>2022-07-27T10:46:28Z</time>
      </trkpt>
      <trkpt lat="45.64691" lon="6.57339">
        <ele>1802</ele>
        <time>2022-07-27T10:46:29Z</time>
      </trkpt>
      <trkpt lat="45.64693" lon="6.5734">
        <ele>1803</ele>
        <time>2022-07-27T10:46:30Z</time>
      </trkpt>
      <trkpt lat="45.64694" lon="6.5734">
        <ele>1803</ele>
        <time>2022-07-27T10:46:31Z</time>
      </trkpt>
      <trkpt lat="45.64695" lon="6.57341">
        <ele>1803</ele>
        <time>2022-07-27T10:46:32Z</time>
      </trkpt>
      <trkpt lat="45.64696" lon="6.57341">
        <ele>1803</ele>
        <time>2022-07-27T10:46:33Z</time>
      </trkpt>
      <trkpt lat="45.64697" lon="6.57342">
        <ele>1803</ele>
        <time>2022-07-27T10:46:34Z</time>
      </trkpt>
      <trkpt lat="45.64697" lon="6.57343">
        <ele>1803</ele>
        <time>2022-07-27T10:46:35Z</time>
      </trkpt>
      <trkpt lat="45.64698" lon="6.57344">
        <ele>1803</ele>
        <time>2022-07-27T10:46:36Z</time>
      </trkpt>
      <trkpt lat="45.64699" lon="6.57345">
        <ele>1803</ele>
        <time>2022-07-27T10:46:37Z</time>
      </trkpt>
      <trkpt lat="45.647" lon="6.57346">
        <ele>1803</ele>
        <time>2022-07-27T10:46:38Z</time>
      </trkpt>
      <trkpt lat="45.64701" lon="6.57348">
        <ele>1804</ele>
        <time>2022-07-27T10:46:47Z</time>
      </trkpt>
      <trkpt lat="45.64701" lon="6.57348">
        <ele>1804</ele>
        <time>2022-07-27T10:46:48Z</time>
      </trkpt>
      <trkpt lat="45.64701" lon="6.57349">
        <ele>1804</ele>
        <time>2022-07-27T10:46:49Z</time>
      </trkpt>
      <trkpt lat="45.64702" lon="6.57349">
        <ele>1804</ele>
        <time>2022-07-27T10:46:50Z</time>
      </trkpt>
      <trkpt lat="45.64703" lon="6.5735">
        <ele>1804</ele>
        <time>2022-07-27T10:46:51Z</time>
      </trkpt>
      <trkpt lat="45.64703" lon="6.5735">
        <ele>1804</ele>
        <time>2022-07-27T10:46:52Z</time>
      </trkpt>
      <trkpt lat="45.64704" lon="6.57351">
        <ele>1804</ele>
        <time>2022-07-27T10:46:53Z</time>
      </trkpt>
      <trkpt lat="45.64705" lon="6.57351">
        <ele>1804</ele>
        <time>2022-07-27T10:46:54Z</time>
      </trkpt>
      <trkpt lat="45.64706" lon="6.57352">
        <ele>1804</ele>
        <time>2022-07-27T10:46:55Z</time>
      </trkpt>
      <trkpt lat="45.64707" lon="6.57352">
        <ele>1804</ele>
        <time>2022-07-27T10:46:56Z</time>
      </trkpt>
      <trkpt lat="45.64708" lon="6.57353">
        <ele>1804</ele>
        <time>2022-07-27T10:46:57Z</time>
      </trkpt>
      <trkpt lat="45.64709" lon="6.57354">
        <ele>1804</ele>
        <time>2022-07-27T10:46:58Z</time>
      </trkpt>
      <trkpt lat="45.6471" lon="6.57354">
        <ele>1804</ele>
        <time>2022-07-27T10:46:59Z</time>
      </trkpt>
      <trkpt lat="45.64711" lon="6.57355">
        <ele>1804</ele>
        <time>2022-07-27T10:47:00Z</time>
      </trkpt>
      <trkpt lat="45.64712" lon="6.57355">
        <ele>1804</ele>
        <time>2022-07-27T10:47:01Z</time>
      </trkpt>
      <trkpt lat="45.64713" lon="6.57355">
        <ele>1804</ele>
        <time>2022-07-27T10:47:02Z</time>
      </trkpt>
      <trkpt lat="45.64714" lon="6.57356">
        <ele>1804</ele>
        <time>2022-07-27T10:47:03Z</time>
      </trkpt>
      <trkpt lat="45.64714" lon="6.57356">
        <ele>1804</ele>
        <time>2022-07-27T10:47:04Z</time>
      </trkpt>
      <trkpt lat="45.64715" lon="6.57357">
        <ele>1805</ele>
        <time>2022-07-27T10:47:05Z</time>
      </trkpt>
      <trkpt lat="45.64716" lon="6.57357">
        <ele>1805</ele>
        <time>2022-07-27T10:47:06Z</time>
      </trkpt>
      <trkpt lat="45.64716" lon="6.57358">
        <ele>1805</ele>
        <time>2022-07-27T10:47:07Z</time>
      </trkpt>
      <trkpt lat="45.64716" lon="6.57358">
        <ele>1805</ele>
        <time>2022-07-27T10:47:08Z</time>
      </trkpt>
      <trkpt lat="45.64717" lon="6.57358">
        <ele>1805</ele>
        <time>2022-07-27T10:47:09Z</time>
      </trkpt>
      <trkpt lat="45.64717" lon="6.57358">
        <ele>1805</ele>
        <time>2022-07-27T10:47:10Z</time>
      </trkpt>
      <trkpt lat="45.64717" lon="6.57358">
        <ele>1805</ele>
        <time>2022-07-27T10:47:11Z</time>
      </trkpt>
      <trkpt lat="45.64718" lon="6.57358">
        <ele>1805</ele>
        <time>2022-07-27T10:47:12Z</time>
      </trkpt>
      <trkpt lat="45.64718" lon="6.57358">
        <ele>1805</ele>
        <time>2022-07-27T10:47:13Z</time>
      </trkpt>
      <trkpt lat="45.64719" lon="6.57358">
        <ele>1805</ele>
        <time>2022-07-27T10:47:14Z</time>
      </trkpt>
      <trkpt lat="45.6472" lon="6.57358">
        <ele>1806</ele>
        <time>2022-07-27T10:47:15Z</time>
      </trkpt>
      <trkpt lat="45.64721" lon="6.57358">
        <ele>1806</ele>
        <time>2022-07-27T10:47:16Z</time>
      </trkpt>
      <trkpt lat="45.64722" lon="6.57358">
        <ele>1806</ele>
        <time>2022-07-27T10:47:17Z</time>
      </trkpt>
      <trkpt lat="45.64723" lon="6.57358">
        <ele>1806</ele>
        <time>2022-07-27T10:47:18Z</time>
      </trkpt>
      <trkpt lat="45.64724" lon="6.57359">
        <ele>1806</ele>
        <time>2022-07-27T10:47:19Z</time>
      </trkpt>
      <trkpt lat="45.64725" lon="6.57359">
        <ele>1807</ele>
        <time>2022-07-27T10:47:20Z</time>
      </trkpt>
      <trkpt lat="45.64726" lon="6.57359">
        <ele>1807</ele>
        <time>2022-07-27T10:47:21Z</time>
      </trkpt>
      <trkpt lat="45.64727" lon="6.57356">
        <ele>1809</ele>
        <time>2022-07-27T10:47:39Z</time>
      </trkpt>
      <trkpt lat="45.64728" lon="6.57355">
        <ele>1810</ele>
        <time>2022-07-27T10:47:40Z</time>
      </trkpt>
      <trkpt lat="45.64728" lon="6.57353">
        <ele>1810</ele>
        <time>2022-07-27T10:47:41Z</time>
      </trkpt>
      <trkpt lat="45.64729" lon="6.57352">
        <ele>1810</ele>
        <time>2022-07-27T10:47:42Z</time>
      </trkpt>
      <trkpt lat="45.64729" lon="6.57351">
        <ele>1810</ele>
        <time>2022-07-27T10:47:43Z</time>
      </trkpt>
      <trkpt lat="45.6473" lon="6.5735">
        <ele>1810</ele>
        <time>2022-07-27T10:47:44Z</time>
      </trkpt>
      <trkpt lat="45.6473" lon="6.57349">
        <ele>1811</ele>
        <time>2022-07-27T10:47:45Z</time>
      </trkpt>
      <trkpt lat="45.64731" lon="6.57348">
        <ele>1811</ele>
        <time>2022-07-27T10:47:46Z</time>
      </trkpt>
      <trkpt lat="45.64731" lon="6.57348">
        <ele>1811</ele>
        <time>2022-07-27T10:47:47Z</time>
      </trkpt>
      <trkpt lat="45.64732" lon="6.57347">
        <ele>1811</ele>
        <time>2022-07-27T10:47:48Z</time>
      </trkpt>
      <trkpt lat="45.64733" lon="6.57346">
        <ele>1811</ele>
        <time>2022-07-27T10:47:49Z</time>
      </trkpt>
      <trkpt lat="45.64733" lon="6.57346">
        <ele>1812</ele>
        <time>2022-07-27T10:47:50Z</time>
      </trkpt>
      <trkpt lat="45.64734" lon="6.57345">
        <ele>1812</ele>
        <time>2022-07-27T10:47:51Z</time>
      </trkpt>
      <trkpt lat="45.64734" lon="6.57345">
        <ele>1812</ele>
        <time>2022-07-27T10:47:52Z</time>
      </trkpt>
      <trkpt lat="45.64735" lon="6.57345">
        <ele>1812</ele>
        <time>2022-07-27T10:47:53Z</time>
      </trkpt>
      <trkpt lat="45.64735" lon="6.57345">
        <ele>1812</ele>
        <time>2022-07-27T10:47:54Z</time>
      </trkpt>
      <trkpt lat="45.64736" lon="6.57345">
        <ele>1812</ele>
        <time>2022-07-27T10:47:55Z</time>
      </trkpt>
      <trkpt lat="45.64736" lon="6.57344">
        <ele>1812</ele>
        <time>2022-07-27T10:47:56Z</time>
      </trkpt>
      <trkpt lat="45.64737" lon="6.57344">
        <ele>1812</ele>
        <time>2022-07-27T10:47:57Z</time>
      </trkpt>
      <trkpt lat="45.64737" lon="6.57344">
        <ele>1812</ele>
        <time>2022-07-27T10:47:58Z</time>
      </trkpt>
      <trkpt lat="45.64738" lon="6.57344">
        <ele>1812</ele>
        <time>2022-07-27T10:47:59Z</time>
      </trkpt>
      <trkpt lat="45.64738" lon="6.57344">
        <ele>1813</ele>
        <time>2022-07-27T10:48:00Z</time>
      </trkpt>
      <trkpt lat="45.64739" lon="6.57344">
        <ele>1813</ele>
        <time>2022-07-27T10:48:01Z</time>
      </trkpt>
      <trkpt lat="45.64741" lon="6.57344">
        <ele>1814</ele>
        <time>2022-07-27T10:48:15Z</time>
      </trkpt>
      <trkpt lat="45.64742" lon="6.57344">
        <ele>1814</ele>
        <time>2022-07-27T10:48:16Z</time>
      </trkpt>
      <trkpt lat="45.64743" lon="6.57344">
        <ele>1814</ele>
        <time>2022-07-27T10:48:17Z</time>
      </trkpt>
      <trkpt lat="45.64743" lon="6.57344">
        <ele>1814</ele>
        <time>2022-07-27T10:48:18Z</time>
      </trkpt>
      <trkpt lat="45.64743" lon="6.57344">
        <ele>1814</ele>
        <time>2022-07-27T10:48:19Z</time>
      </trkpt>
      <trkpt lat="45.64743" lon="6.57343">
        <ele>1814</ele>
        <time>2022-07-27T10:48:20Z</time>
      </trkpt>
      <trkpt lat="45.64743" lon="6.57343">
        <ele>1814</ele>
        <time>2022-07-27T10:48:21Z</time>
      </trkpt>
      <trkpt lat="45.64743" lon="6.57342">
        <ele>1814</ele>
        <time>2022-07-27T10:48:22Z</time>
      </trkpt>
      <trkpt lat="45.64743" lon="6.57341">
        <ele>1815</ele>
        <time>2022-07-27T10:48:23Z</time>
      </trkpt>
      <trkpt lat="45.64743" lon="6.57341">
        <ele>1815</ele>
        <time>2022-07-27T10:48:24Z</time>
      </trkpt>
      <trkpt lat="45.64743" lon="6.5734">
        <ele>1816</ele>
        <time>2022-07-27T10:48:25Z</time>
      </trkpt>
      <trkpt lat="45.64745" lon="6.57338">
        <ele>1817</ele>
        <time>2022-07-27T10:48:34Z</time>
      </trkpt>
      <trkpt lat="45.64745" lon="6.57337">
        <ele>1818</ele>
        <time>2022-07-27T10:48:35Z</time>
      </trkpt>
      <trkpt lat="45.64746" lon="6.57337">
        <ele>1818</ele>
        <time>2022-07-27T10:48:36Z</time>
      </trkpt>
      <trkpt lat="45.64746" lon="6.57336">
        <ele>1818</ele>
        <time>2022-07-27T10:48:37Z</time>
      </trkpt>
      <trkpt lat="45.64747" lon="6.57336">
        <ele>1818</ele>
        <time>2022-07-27T10:48:38Z</time>
      </trkpt>
      <trkpt lat="45.64748" lon="6.57336">
        <ele>1818</ele>
        <time>2022-07-27T10:48:39Z</time>
      </trkpt>
      <trkpt lat="45.64748" lon="6.57336">
        <ele>1819</ele>
        <time>2022-07-27T10:48:40Z</time>
      </trkpt>
      <trkpt lat="45.64749" lon="6.57335">
        <ele>1819</ele>
        <time>2022-07-27T10:48:41Z</time>
      </trkpt>
      <trkpt lat="45.6475" lon="6.57335">
        <ele>1819</ele>
        <time>2022-07-27T10:48:42Z</time>
      </trkpt>
      <trkpt lat="45.64751" lon="6.57334">
        <ele>1819</ele>
        <time>2022-07-27T10:48:43Z</time>
      </trkpt>
      <trkpt lat="45.64752" lon="6.57333">
        <ele>1819</ele>
        <time>2022-07-27T10:48:44Z</time>
      </trkpt>
      <trkpt lat="45.64752" lon="6.57333">
        <ele>1819</ele>
        <time>2022-07-27T10:48:45Z</time>
      </trkpt>
      <trkpt lat="45.64753" lon="6.57332">
        <ele>1819</ele>
        <time>2022-07-27T10:48:46Z</time>
      </trkpt>
      <trkpt lat="45.64753" lon="6.57332">
        <ele>1819</ele>
        <time>2022-07-27T10:48:47Z</time>
      </trkpt>
      <trkpt lat="45.64753" lon="6.57332">
        <ele>1819</ele>
        <time>2022-07-27T10:48:48Z</time>
      </trkpt>
      <trkpt lat="45.64753" lon="6.57331">
        <ele>1819</ele>
        <time>2022-07-27T10:48:49Z</time>
      </trkpt>
      <trkpt lat="45.64754" lon="6.57331">
        <ele>1820</ele>
        <time>2022-07-27T10:48:50Z</time>
      </trkpt>
      <trkpt lat="45.64754" lon="6.5733">
        <ele>1820</ele>
        <time>2022-07-27T10:48:51Z</time>
      </trkpt>
      <trkpt lat="45.64755" lon="6.57329">
        <ele>1820</ele>
        <time>2022-07-27T10:48:52Z</time>
      </trkpt>
      <trkpt lat="45.64756" lon="6.57329">
        <ele>1820</ele>
        <time>2022-07-27T10:48:53Z</time>
      </trkpt>
      <trkpt lat="45.64756" lon="6.57328">
        <ele>1820</ele>
        <time>2022-07-27T10:48:54Z</time>
      </trkpt>
      <trkpt lat="45.64757" lon="6.57328">
        <ele>1821</ele>
        <time>2022-07-27T10:48:55Z</time>
      </trkpt>
      <trkpt lat="45.64758" lon="6.57327">
        <ele>1821</ele>
        <time>2022-07-27T10:48:56Z</time>
      </trkpt>
      <trkpt lat="45.64759" lon="6.57327">
        <ele>1821</ele>
        <time>2022-07-27T10:48:57Z</time>
      </trkpt>
      <trkpt lat="45.6476" lon="6.57327">
        <ele>1821</ele>
        <time>2022-07-27T10:48:58Z</time>
      </trkpt>
      <trkpt lat="45.64761" lon="6.57327">
        <ele>1821</ele>
        <time>2022-07-27T10:48:59Z</time>
      </trkpt>
      <trkpt lat="45.64761" lon="6.57326">
        <ele>1821</ele>
        <time>2022-07-27T10:49:00Z</time>
      </trkpt>
      <trkpt lat="45.64762" lon="6.57325">
        <ele>1821</ele>
        <time>2022-07-27T10:49:01Z</time>
      </trkpt>
      <trkpt lat="45.64762" lon="6.57325">
        <ele>1821</ele>
        <time>2022-07-27T10:49:02Z</time>
      </trkpt>
      <trkpt lat="45.64763" lon="6.57324">
        <ele>1821</ele>
        <time>2022-07-27T10:49:03Z</time>
      </trkpt>
      <trkpt lat="45.64763" lon="6.57324">
        <ele>1821</ele>
        <time>2022-07-27T10:49:04Z</time>
      </trkpt>
      <trkpt lat="45.64764" lon="6.57324">
        <ele>1822</ele>
        <time>2022-07-27T10:49:05Z</time>
      </trkpt>
      <trkpt lat="45.64765" lon="6.57323">
        <ele>1822</ele>
        <time>2022-07-27T10:49:06Z</time>
      </trkpt>
      <trkpt lat="45.64766" lon="6.57323">
        <ele>1822</ele>
        <time>2022-07-27T10:49:07Z</time>
      </trkpt>
      <trkpt lat="45.64766" lon="6.57323">
        <ele>1822</ele>
        <time>2022-07-27T10:49:08Z</time>
      </trkpt>
      <trkpt lat="45.64767" lon="6.57324">
        <ele>1822</ele>
        <time>2022-07-27T10:49:09Z</time>
      </trkpt>
      <trkpt lat="45.64768" lon="6.57324">
        <ele>1823</ele>
        <time>2022-07-27T10:49:10Z</time>
      </trkpt>
      <trkpt lat="45.64769" lon="6.57325">
        <ele>1823</ele>
        <time>2022-07-27T10:49:11Z</time>
      </trkpt>
      <trkpt lat="45.64769" lon="6.57325">
        <ele>1823</ele>
        <time>2022-07-27T10:49:12Z</time>
      </trkpt>
      <trkpt lat="45.6477" lon="6.57326">
        <ele>1823</ele>
        <time>2022-07-27T10:49:13Z</time>
      </trkpt>
      <trkpt lat="45.64771" lon="6.57326">
        <ele>1823</ele>
        <time>2022-07-27T10:49:14Z</time>
      </trkpt>
      <trkpt lat="45.64771" lon="6.57326">
        <ele>1824</ele>
        <time>2022-07-27T10:49:15Z</time>
      </trkpt>
      <trkpt lat="45.64772" lon="6.57327">
        <ele>1824</ele>
        <time>2022-07-27T10:49:16Z</time>
      </trkpt>
      <trkpt lat="45.64772" lon="6.57327">
        <ele>1824</ele>
        <time>2022-07-27T10:49:17Z</time>
      </trkpt>
      <trkpt lat="45.64773" lon="6.57327">
        <ele>1824</ele>
        <time>2022-07-27T10:49:18Z</time>
      </trkpt>
      <trkpt lat="45.64773" lon="6.57328">
        <ele>1824</ele>
        <time>2022-07-27T10:49:19Z</time>
      </trkpt>
      <trkpt lat="45.64774" lon="6.57328">
        <ele>1825</ele>
        <time>2022-07-27T10:49:20Z</time>
      </trkpt>
      <trkpt lat="45.64775" lon="6.57328">
        <ele>1825</ele>
        <time>2022-07-27T10:49:21Z</time>
      </trkpt>
      <trkpt lat="45.64775" lon="6.57328">
        <ele>1825</ele>
        <time>2022-07-27T10:49:22Z</time>
      </trkpt>
      <trkpt lat="45.64776" lon="6.57328">
        <ele>1825</ele>
        <time>2022-07-27T10:49:23Z</time>
      </trkpt>
      <trkpt lat="45.64776" lon="6.57328">
        <ele>1825</ele>
        <time>2022-07-27T10:49:24Z</time>
      </trkpt>
      <trkpt lat="45.64776" lon="6.57327">
        <ele>1825</ele>
        <time>2022-07-27T10:49:25Z</time>
      </trkpt>
      <trkpt lat="45.64777" lon="6.57327">
        <ele>1825</ele>
        <time>2022-07-27T10:49:26Z</time>
      </trkpt>
      <trkpt lat="45.64777" lon="6.57327">
        <ele>1825</ele>
        <time>2022-07-27T10:49:27Z</time>
      </trkpt>
      <trkpt lat="45.64778" lon="6.57327">
        <ele>1825</ele>
        <time>2022-07-27T10:49:28Z</time>
      </trkpt>
      <trkpt lat="45.64779" lon="6.57327">
        <ele>1825</ele>
        <time>2022-07-27T10:49:29Z</time>
      </trkpt>
      <trkpt lat="45.64779" lon="6.57326">
        <ele>1826</ele>
        <time>2022-07-27T10:49:30Z</time>
      </trkpt>
      <trkpt lat="45.6478" lon="6.57326">
        <ele>1826</ele>
        <time>2022-07-27T10:49:31Z</time>
      </trkpt>
      <trkpt lat="45.64781" lon="6.57326">
        <ele>1826</ele>
        <time>2022-07-27T10:49:32Z</time>
      </trkpt>
      <trkpt lat="45.64781" lon="6.57326">
        <ele>1826</ele>
        <time>2022-07-27T10:49:33Z</time>
      </trkpt>
      <trkpt lat="45.64782" lon="6.57325">
        <ele>1826</ele>
        <time>2022-07-27T10:49:34Z</time>
      </trkpt>
      <trkpt lat="45.64783" lon="6.57325">
        <ele>1827</ele>
        <time>2022-07-27T10:49:35Z</time>
      </trkpt>
      <trkpt lat="45.64784" lon="6.57325">
        <ele>1827</ele>
        <time>2022-07-27T10:49:36Z</time>
      </trkpt>
      <trkpt lat="45.64785" lon="6.57326">
        <ele>1827</ele>
        <time>2022-07-27T10:49:37Z</time>
      </trkpt>
      <trkpt lat="45.64786" lon="6.57326">
        <ele>1827</ele>
        <time>2022-07-27T10:49:38Z</time>
      </trkpt>
      <trkpt lat="45.64786" lon="6.57325">
        <ele>1830</ele>
        <time>2022-07-27T10:50:05Z</time>
      </trkpt>
      <trkpt lat="45.64786" lon="6.57324">
        <ele>1830</ele>
        <time>2022-07-27T10:50:06Z</time>
      </trkpt>
      <trkpt lat="45.64786" lon="6.57324">
        <ele>1830</ele>
        <time>2022-07-27T10:50:07Z</time>
      </trkpt>
      <trkpt lat="45.64786" lon="6.57323">
        <ele>1830</ele>
        <time>2022-07-27T10:50:08Z</time>
      </trkpt>
      <trkpt lat="45.64787" lon="6.57323">
        <ele>1830</ele>
        <time>2022-07-27T10:50:09Z</time>
      </trkpt>
      <trkpt lat="45.64787" lon="6.57323">
        <ele>1831</ele>
        <time>2022-07-27T10:50:10Z</time>
      </trkpt>
      <trkpt lat="45.64788" lon="6.57322">
        <ele>1831</ele>
        <time>2022-07-27T10:50:11Z</time>
      </trkpt>
      <trkpt lat="45.64791" lon="6.57324">
        <ele>1833</ele>
        <time>2022-07-27T10:51:50Z</time>
      </trkpt>
      <trkpt lat="45.64792" lon="6.57325">
        <ele>1833</ele>
        <time>2022-07-27T10:51:51Z</time>
      </trkpt>
      <trkpt lat="45.64794" lon="6.57325">
        <ele>1833</ele>
        <time>2022-07-27T10:51:52Z</time>
      </trkpt>
      <trkpt lat="45.64795" lon="6.57326">
        <ele>1833</ele>
        <time>2022-07-27T10:51:53Z</time>
      </trkpt>
      <trkpt lat="45.64796" lon="6.57326">
        <ele>1833</ele>
        <time>2022-07-27T10:51:54Z</time>
      </trkpt>
      <trkpt lat="45.64797" lon="6.57326">
        <ele>1833</ele>
        <time>2022-07-27T10:51:55Z</time>
      </trkpt>
      <trkpt lat="45.64798" lon="6.57327">
        <ele>1833</ele>
        <time>2022-07-27T10:51:56Z</time>
      </trkpt>
      <trkpt lat="45.64799" lon="6.57327">
        <ele>1833</ele>
        <time>2022-07-27T10:51:57Z</time>
      </trkpt>
      <trkpt lat="45.648" lon="6.57327">
        <ele>1833</ele>
        <time>2022-07-27T10:51:58Z</time>
      </trkpt>
      <trkpt lat="45.64802" lon="6.57326">
        <ele>1834</ele>
        <time>2022-07-27T10:52:08Z</time>
      </trkpt>
      <trkpt lat="45.64803" lon="6.57326">
        <ele>1834</ele>
        <time>2022-07-27T10:52:09Z</time>
      </trkpt>
      <trkpt lat="45.64804" lon="6.57325">
        <ele>1834</ele>
        <time>2022-07-27T10:52:10Z</time>
      </trkpt>
      <trkpt lat="45.64805" lon="6.57324">
        <ele>1834</ele>
        <time>2022-07-27T10:52:11Z</time>
      </trkpt>
      <trkpt lat="45.64805" lon="6.57324">
        <ele>1834</ele>
        <time>2022-07-27T10:52:12Z</time>
      </trkpt>
      <trkpt lat="45.64808" lon="6.57322">
        <ele>1836</ele>
        <time>2022-07-27T10:52:29Z</time>
      </trkpt>
      <trkpt lat="45.64809" lon="6.57321">
        <ele>1837</ele>
        <time>2022-07-27T10:52:30Z</time>
      </trkpt>
      <trkpt lat="45.6481" lon="6.57321">
        <ele>1837</ele>
        <time>2022-07-27T10:52:31Z</time>
      </trkpt>
      <trkpt lat="45.64811" lon="6.5732">
        <ele>1837</ele>
        <time>2022-07-27T10:52:32Z</time>
      </trkpt>
      <trkpt lat="45.64812" lon="6.5732">
        <ele>1837</ele>
        <time>2022-07-27T10:52:33Z</time>
      </trkpt>
      <trkpt lat="45.64813" lon="6.5732">
        <ele>1837</ele>
        <time>2022-07-27T10:52:34Z</time>
      </trkpt>
      <trkpt lat="45.64814" lon="6.57321">
        <ele>1838</ele>
        <time>2022-07-27T10:52:35Z</time>
      </trkpt>
      <trkpt lat="45.64814" lon="6.57321">
        <ele>1838</ele>
        <time>2022-07-27T10:52:36Z</time>
      </trkpt>
      <trkpt lat="45.64815" lon="6.57322">
        <ele>1838</ele>
        <time>2022-07-27T10:52:37Z</time>
      </trkpt>
      <trkpt lat="45.64815" lon="6.57322">
        <ele>1838</ele>
        <time>2022-07-27T10:52:38Z</time>
      </trkpt>
      <trkpt lat="45.64816" lon="6.57323">
        <ele>1838</ele>
        <time>2022-07-27T10:52:39Z</time>
      </trkpt>
      <trkpt lat="45.64816" lon="6.57323">
        <ele>1839</ele>
        <time>2022-07-27T10:52:40Z</time>
      </trkpt>
      <trkpt lat="45.64816" lon="6.57324">
        <ele>1839</ele>
        <time>2022-07-27T10:52:41Z</time>
      </trkpt>
      <trkpt lat="45.64816" lon="6.57325">
        <ele>1839</ele>
        <time>2022-07-27T10:52:42Z</time>
      </trkpt>
      <trkpt lat="45.64816" lon="6.57325">
        <ele>1839</ele>
        <time>2022-07-27T10:52:43Z</time>
      </trkpt>
      <trkpt lat="45.64817" lon="6.57326">
        <ele>1839</ele>
        <time>2022-07-27T10:52:44Z</time>
      </trkpt>
      <trkpt lat="45.64817" lon="6.57327">
        <ele>1840</ele>
        <time>2022-07-27T10:52:45Z</time>
      </trkpt>
      <trkpt lat="45.64817" lon="6.57327">
        <ele>1840</ele>
        <time>2022-07-27T10:52:46Z</time>
      </trkpt>
      <trkpt lat="45.64818" lon="6.57328">
        <ele>1840</ele>
        <time>2022-07-27T10:52:47Z</time>
      </trkpt>
      <trkpt lat="45.64818" lon="6.57329">
        <ele>1840</ele>
        <time>2022-07-27T10:52:48Z</time>
      </trkpt>
      <trkpt lat="45.64819" lon="6.57329">
        <ele>1840</ele>
        <time>2022-07-27T10:52:49Z</time>
      </trkpt>
      <trkpt lat="45.6482" lon="6.57329">
        <ele>1840</ele>
        <time>2022-07-27T10:52:50Z</time>
      </trkpt>
      <trkpt lat="45.6482" lon="6.5733">
        <ele>1840</ele>
        <time>2022-07-27T10:52:51Z</time>
      </trkpt>
      <trkpt lat="45.64821" lon="6.5733">
        <ele>1840</ele>
        <time>2022-07-27T10:52:52Z</time>
      </trkpt>
      <trkpt lat="45.64822" lon="6.5733">
        <ele>1840</ele>
        <time>2022-07-27T10:52:53Z</time>
      </trkpt>
      <trkpt lat="45.64823" lon="6.5733">
        <ele>1840</ele>
        <time>2022-07-27T10:52:54Z</time>
      </trkpt>
      <trkpt lat="45.64824" lon="6.5733">
        <ele>1841</ele>
        <time>2022-07-27T10:52:55Z</time>
      </trkpt>
      <trkpt lat="45.64825" lon="6.5733">
        <ele>1841</ele>
        <time>2022-07-27T10:52:56Z</time>
      </trkpt>
      <trkpt lat="45.64826" lon="6.57331">
        <ele>1841</ele>
        <time>2022-07-27T10:52:57Z</time>
      </trkpt>
      <trkpt lat="45.64826" lon="6.57331">
        <ele>1841</ele>
        <time>2022-07-27T10:52:58Z</time>
      </trkpt>
      <trkpt lat="45.64827" lon="6.57331">
        <ele>1841</ele>
        <time>2022-07-27T10:52:59Z</time>
      </trkpt>
      <trkpt lat="45.64828" lon="6.57332">
        <ele>1841</ele>
        <time>2022-07-27T10:53:00Z</time>
      </trkpt>
      <trkpt lat="45.64829" lon="6.57332">
        <ele>1841</ele>
        <time>2022-07-27T10:53:01Z</time>
      </trkpt>
      <trkpt lat="45.6483" lon="6.57333">
        <ele>1841</ele>
        <time>2022-07-27T10:53:02Z</time>
      </trkpt>
      <trkpt lat="45.64831" lon="6.57333">
        <ele>1841</ele>
        <time>2022-07-27T10:53:03Z</time>
      </trkpt>
      <trkpt lat="45.64832" lon="6.57333">
        <ele>1841</ele>
        <time>2022-07-27T10:53:04Z</time>
      </trkpt>
      <trkpt lat="45.64832" lon="6.57333">
        <ele>1842</ele>
        <time>2022-07-27T10:53:05Z</time>
      </trkpt>
      <trkpt lat="45.64833" lon="6.57333">
        <ele>1842</ele>
        <time>2022-07-27T10:53:06Z</time>
      </trkpt>
      <trkpt lat="45.64834" lon="6.57332">
        <ele>1843</ele>
        <time>2022-07-27T10:53:17Z</time>
      </trkpt>
      <trkpt lat="45.64835" lon="6.57331">
        <ele>1843</ele>
        <time>2022-07-27T10:53:18Z</time>
      </trkpt>
      <trkpt lat="45.64836" lon="6.5733">
        <ele>1843</ele>
        <time>2022-07-27T10:53:19Z</time>
      </trkpt>
      <trkpt lat="45.64837" lon="6.5733">
        <ele>1843</ele>
        <time>2022-07-27T10:53:20Z</time>
      </trkpt>
      <trkpt lat="45.64838" lon="6.57329">
        <ele>1843</ele>
        <time>2022-07-27T10:53:21Z</time>
      </trkpt>
      <trkpt lat="45.64839" lon="6.5733">
        <ele>1843</ele>
        <time>2022-07-27T10:53:22Z</time>
      </trkpt>
      <trkpt lat="45.6484" lon="6.5733">
        <ele>1843</ele>
        <time>2022-07-27T10:53:23Z</time>
      </trkpt>
      <trkpt lat="45.6484" lon="6.5733">
        <ele>1843</ele>
        <time>2022-07-27T10:53:24Z</time>
      </trkpt>
      <trkpt lat="45.64841" lon="6.57331">
        <ele>1844</ele>
        <time>2022-07-27T10:53:25Z</time>
      </trkpt>
      <trkpt lat="45.64842" lon="6.57332">
        <ele>1844</ele>
        <time>2022-07-27T10:53:26Z</time>
      </trkpt>
      <trkpt lat="45.64842" lon="6.57334">
        <ele>1844</ele>
        <time>2022-07-27T10:53:27Z</time>
      </trkpt>
      <trkpt lat="45.64843" lon="6.57335">
        <ele>1844</ele>
        <time>2022-07-27T10:53:28Z</time>
      </trkpt>
      <trkpt lat="45.64844" lon="6.57336">
        <ele>1844</ele>
        <time>2022-07-27T10:53:29Z</time>
      </trkpt>
      <trkpt lat="45.64845" lon="6.57337">
        <ele>1845</ele>
        <time>2022-07-27T10:53:30Z</time>
      </trkpt>
      <trkpt lat="45.64845" lon="6.57338">
        <ele>1845</ele>
        <time>2022-07-27T10:53:31Z</time>
      </trkpt>
      <trkpt lat="45.64846" lon="6.57339">
        <ele>1845</ele>
        <time>2022-07-27T10:53:32Z</time>
      </trkpt>
      <trkpt lat="45.64847" lon="6.5734">
        <ele>1845</ele>
        <time>2022-07-27T10:53:33Z</time>
      </trkpt>
      <trkpt lat="45.64848" lon="6.57342">
        <ele>1845</ele>
        <time>2022-07-27T10:53:34Z</time>
      </trkpt>
      <trkpt lat="45.64849" lon="6.57343">
        <ele>1845</ele>
        <time>2022-07-27T10:53:35Z</time>
      </trkpt>
      <trkpt lat="45.64851" lon="6.57343">
        <ele>1847</ele>
        <time>2022-07-27T10:53:48Z</time>
      </trkpt>
      <trkpt lat="45.64851" lon="6.57343">
        <ele>1847</ele>
        <time>2022-07-27T10:53:49Z</time>
      </trkpt>
      <trkpt lat="45.64852" lon="6.57342">
        <ele>1848</ele>
        <time>2022-07-27T10:53:50Z</time>
      </trkpt>
      <trkpt lat="45.64853" lon="6.57342">
        <ele>1848</ele>
        <time>2022-07-27T10:53:51Z</time>
      </trkpt>
      <trkpt lat="45.64854" lon="6.57342">
        <ele>1848</ele>
        <time>2022-07-27T10:53:52Z</time>
      </trkpt>
      <trkpt lat="45.64854" lon="6.57343">
        <ele>1848</ele>
        <time>2022-07-27T10:53:53Z</time>
      </trkpt>
      <trkpt lat="45.64855" lon="6.57343">
        <ele>1848</ele>
        <time>2022-07-27T10:53:54Z</time>
      </trkpt>
      <trkpt lat="45.64856" lon="6.57344">
        <ele>1848</ele>
        <time>2022-07-27T10:53:55Z</time>
      </trkpt>
      <trkpt lat="45.64856" lon="6.57344">
        <ele>1848</ele>
        <time>2022-07-27T10:53:56Z</time>
      </trkpt>
      <trkpt lat="45.64857" lon="6.57345">
        <ele>1848</ele>
        <time>2022-07-27T10:53:57Z</time>
      </trkpt>
      <trkpt lat="45.64858" lon="6.57345">
        <ele>1848</ele>
        <time>2022-07-27T10:53:58Z</time>
      </trkpt>
      <trkpt lat="45.64858" lon="6.57345">
        <ele>1850</ele>
        <time>2022-07-27T10:54:09Z</time>
      </trkpt>
      <trkpt lat="45.64859" lon="6.57345">
        <ele>1850</ele>
        <time>2022-07-27T10:54:10Z</time>
      </trkpt>
      <trkpt lat="45.6486" lon="6.57346">
        <ele>1850</ele>
        <time>2022-07-27T10:54:11Z</time>
      </trkpt>
      <trkpt lat="45.6486" lon="6.57346">
        <ele>1850</ele>
        <time>2022-07-27T10:54:12Z</time>
      </trkpt>
      <trkpt lat="45.64861" lon="6.57346">
        <ele>1850</ele>
        <time>2022-07-27T10:54:13Z</time>
      </trkpt>
      <trkpt lat="45.64861" lon="6.57346">
        <ele>1850</ele>
        <time>2022-07-27T10:54:14Z</time>
      </trkpt>
      <trkpt lat="45.64862" lon="6.57346">
        <ele>1850</ele>
        <time>2022-07-27T10:54:15Z</time>
      </trkpt>
      <trkpt lat="45.64862" lon="6.57346">
        <ele>1850</ele>
        <time>2022-07-27T10:54:16Z</time>
      </trkpt>
      <trkpt lat="45.64863" lon="6.57346">
        <ele>1850</ele>
        <time>2022-07-27T10:54:17Z</time>
      </trkpt>
      <trkpt lat="45.64864" lon="6.57346">
        <ele>1850</ele>
        <time>2022-07-27T10:54:18Z</time>
      </trkpt>
      <trkpt lat="45.64864" lon="6.57346">
        <ele>1850</ele>
        <time>2022-07-27T10:54:19Z</time>
      </trkpt>
      <trkpt lat="45.64865" lon="6.57346">
        <ele>1851</ele>
        <time>2022-07-27T10:54:20Z</time>
      </trkpt>
      <trkpt lat="45.64866" lon="6.57346">
        <ele>1851</ele>
        <time>2022-07-27T10:54:21Z</time>
      </trkpt>
      <trkpt lat="45.64866" lon="6.57345">
        <ele>1851</ele>
        <time>2022-07-27T10:54:22Z</time>
      </trkpt>
      <trkpt lat="45.64867" lon="6.57345">
        <ele>1851</ele>
        <time>2022-07-27T10:54:23Z</time>
      </trkpt>
      <trkpt lat="45.64867" lon="6.57345">
        <ele>1851</ele>
        <time>2022-07-27T10:54:24Z</time>
      </trkpt>
      <trkpt lat="45.64868" lon="6.57344">
        <ele>1851</ele>
        <time>2022-07-27T10:54:25Z</time>
      </trkpt>
      <trkpt lat="45.64868" lon="6.57344">
        <ele>1851</ele>
        <time>2022-07-27T10:54:26Z</time>
      </trkpt>
      <trkpt lat="45.64868" lon="6.57344">
        <ele>1851</ele>
        <time>2022-07-27T10:54:27Z</time>
      </trkpt>
      <trkpt lat="45.64869" lon="6.57344">
        <ele>1851</ele>
        <time>2022-07-27T10:54:28Z</time>
      </trkpt>
      <trkpt lat="45.6487" lon="6.57342">
        <ele>1853</ele>
        <time>2022-07-27T10:54:41Z</time>
      </trkpt>
      <trkpt lat="45.6487" lon="6.57341">
        <ele>1853</ele>
        <time>2022-07-27T10:54:42Z</time>
      </trkpt>
      <trkpt lat="45.64871" lon="6.5734">
        <ele>1853</ele>
        <time>2022-07-27T10:54:43Z</time>
      </trkpt>
      <trkpt lat="45.64871" lon="6.57339">
        <ele>1853</ele>
        <time>2022-07-27T10:54:44Z</time>
      </trkpt>
      <trkpt lat="45.64872" lon="6.57338">
        <ele>1854</ele>
        <time>2022-07-27T10:54:45Z</time>
      </trkpt>
      <trkpt lat="45.64872" lon="6.57337">
        <ele>1854</ele>
        <time>2022-07-27T10:54:46Z</time>
      </trkpt>
      <trkpt lat="45.64872" lon="6.57337">
        <ele>1854</ele>
        <time>2022-07-27T10:54:47Z</time>
      </trkpt>
      <trkpt lat="45.64873" lon="6.57337">
        <ele>1854</ele>
        <time>2022-07-27T10:54:48Z</time>
      </trkpt>
      <trkpt lat="45.64873" lon="6.57336">
        <ele>1854</ele>
        <time>2022-07-27T10:54:49Z</time>
      </trkpt>
      <trkpt lat="45.64874" lon="6.57336">
        <ele>1855</ele>
        <time>2022-07-27T10:54:50Z</time>
      </trkpt>
      <trkpt lat="45.64874" lon="6.57336">
        <ele>1855</ele>
        <time>2022-07-27T10:54:51Z</time>
      </trkpt>
      <trkpt lat="45.64875" lon="6.57335">
        <ele>1855</ele>
        <time>2022-07-27T10:54:52Z</time>
      </trkpt>
      <trkpt lat="45.64875" lon="6.57335">
        <ele>1855</ele>
        <time>2022-07-27T10:54:53Z</time>
      </trkpt>
      <trkpt lat="45.64876" lon="6.57335">
        <ele>1855</ele>
        <time>2022-07-27T10:54:54Z</time>
      </trkpt>
      <trkpt lat="45.64876" lon="6.57335">
        <ele>1856</ele>
        <time>2022-07-27T10:54:55Z</time>
      </trkpt>
      <trkpt lat="45.64877" lon="6.57335">
        <ele>1856</ele>
        <time>2022-07-27T10:54:56Z</time>
      </trkpt>
      <trkpt lat="45.64878" lon="6.57335">
        <ele>1856</ele>
        <time>2022-07-27T10:54:57Z</time>
      </trkpt>
      <trkpt lat="45.64878" lon="6.57335">
        <ele>1856</ele>
        <time>2022-07-27T10:54:58Z</time>
      </trkpt>
      <trkpt lat="45.64879" lon="6.57335">
        <ele>1856</ele>
        <time>2022-07-27T10:54:59Z</time>
      </trkpt>
      <trkpt lat="45.64879" lon="6.57335">
        <ele>1857</ele>
        <time>2022-07-27T10:55:00Z</time>
      </trkpt>
      <trkpt lat="45.6488" lon="6.57335">
        <ele>1857</ele>
        <time>2022-07-27T10:55:01Z</time>
      </trkpt>
      <trkpt lat="45.6488" lon="6.57335">
        <ele>1857</ele>
        <time>2022-07-27T10:55:02Z</time>
      </trkpt>
      <trkpt lat="45.64881" lon="6.57335">
        <ele>1857</ele>
        <time>2022-07-27T10:55:03Z</time>
      </trkpt>
      <trkpt lat="45.64882" lon="6.57335">
        <ele>1857</ele>
        <time>2022-07-27T10:55:04Z</time>
      </trkpt>
      <trkpt lat="45.64883" lon="6.57335">
        <ele>1857</ele>
        <time>2022-07-27T10:55:05Z</time>
      </trkpt>
      <trkpt lat="45.64884" lon="6.57336">
        <ele>1857</ele>
        <time>2022-07-27T10:55:06Z</time>
      </trkpt>
      <trkpt lat="45.64885" lon="6.57336">
        <ele>1857</ele>
        <time>2022-07-27T10:55:07Z</time>
      </trkpt>
      <trkpt lat="45.64886" lon="6.57336">
        <ele>1857</ele>
        <time>2022-07-27T10:55:08Z</time>
      </trkpt>
      <trkpt lat="45.64887" lon="6.57337">
        <ele>1857</ele>
        <time>2022-07-27T10:55:09Z</time>
      </trkpt>
      <trkpt lat="45.64888" lon="6.57337">
        <ele>1858</ele>
        <time>2022-07-27T10:55:10Z</time>
      </trkpt>
      <trkpt lat="45.64889" lon="6.57337">
        <ele>1858</ele>
        <time>2022-07-27T10:55:11Z</time>
      </trkpt>
      <trkpt lat="45.64891" lon="6.57339">
        <ele>1860</ele>
        <time>2022-07-27T10:55:48Z</time>
      </trkpt>
      <trkpt lat="45.64892" lon="6.57339">
        <ele>1860</ele>
        <time>2022-07-27T10:55:49Z</time>
      </trkpt>
      <trkpt lat="45.64892" lon="6.57339">
        <ele>1860</ele>
        <time>2022-07-27T10:55:50Z</time>
      </trkpt>
      <trkpt lat="45.64892" lon="6.57339">
        <ele>1860</ele>
        <time>2022-07-27T10:55:51Z</time>
      </trkpt>
      <trkpt lat="45.64893" lon="6.57338">
        <ele>1860</ele>
        <time>2022-07-27T10:55:52Z</time>
      </trkpt>
      <trkpt lat="45.64893" lon="6.57337">
        <ele>1860</ele>
        <time>2022-07-27T10:55:53Z</time>
      </trkpt>
      <trkpt lat="45.64892" lon="6.57336">
        <ele>1860</ele>
        <time>2022-07-27T10:55:54Z</time>
      </trkpt>
      <trkpt lat="45.64892" lon="6.57335">
        <ele>1860</ele>
        <time>2022-07-27T10:55:55Z</time>
      </trkpt>
      <trkpt lat="45.64892" lon="6.57333">
        <ele>1860</ele>
        <time>2022-07-27T10:55:56Z</time>
      </trkpt>
      <trkpt lat="45.64892" lon="6.57332">
        <ele>1860</ele>
        <time>2022-07-27T10:55:57Z</time>
      </trkpt>
      <trkpt lat="45.64892" lon="6.57331">
        <ele>1860</ele>
        <time>2022-07-27T10:55:58Z</time>
      </trkpt>
      <trkpt lat="45.64891" lon="6.5733">
        <ele>1860</ele>
        <time>2022-07-27T10:55:59Z</time>
      </trkpt>
      <trkpt lat="45.64891" lon="6.57329">
        <ele>1861</ele>
        <time>2022-07-27T10:56:00Z</time>
      </trkpt>
      <trkpt lat="45.64891" lon="6.57328">
        <ele>1861</ele>
        <time>2022-07-27T10:56:01Z</time>
      </trkpt>
      <trkpt lat="45.64891" lon="6.57327">
        <ele>1861</ele>
        <time>2022-07-27T10:56:02Z</time>
      </trkpt>
      <trkpt lat="45.64891" lon="6.57326">
        <ele>1861</ele>
        <time>2022-07-27T10:56:03Z</time>
      </trkpt>
      <trkpt lat="45.6489" lon="6.57324">
        <ele>1861</ele>
        <time>2022-07-27T10:56:04Z</time>
      </trkpt>
      <trkpt lat="45.6489" lon="6.57324">
        <ele>1861</ele>
        <time>2022-07-27T10:56:05Z</time>
      </trkpt>
      <trkpt lat="45.6489" lon="6.57323">
        <ele>1861</ele>
        <time>2022-07-27T10:56:06Z</time>
      </trkpt>
      <trkpt lat="45.6489" lon="6.57322">
        <ele>1861</ele>
        <time>2022-07-27T10:56:07Z</time>
      </trkpt>
      <trkpt lat="45.6489" lon="6.57321">
        <ele>1861</ele>
        <time>2022-07-27T10:56:08Z</time>
      </trkpt>
      <trkpt lat="45.6489" lon="6.5732">
        <ele>1861</ele>
        <time>2022-07-27T10:56:09Z</time>
      </trkpt>
      <trkpt lat="45.6489" lon="6.57319">
        <ele>1861</ele>
        <time>2022-07-27T10:56:10Z</time>
      </trkpt>
      <trkpt lat="45.6489" lon="6.57318">
        <ele>1861</ele>
        <time>2022-07-27T10:56:11Z</time>
      </trkpt>
      <trkpt lat="45.64891" lon="6.57317">
        <ele>1861</ele>
        <time>2022-07-27T10:56:12Z</time>
      </trkpt>
      <trkpt lat="45.64892" lon="6.57317">
        <ele>1861</ele>
        <time>2022-07-27T10:56:13Z</time>
      </trkpt>
      <trkpt lat="45.64892" lon="6.57316">
        <ele>1861</ele>
        <time>2022-07-27T10:56:14Z</time>
      </trkpt>
      <trkpt lat="45.64893" lon="6.57316">
        <ele>1862</ele>
        <time>2022-07-27T10:56:15Z</time>
      </trkpt>
      <trkpt lat="45.64894" lon="6.57316">
        <ele>1862</ele>
        <time>2022-07-27T10:56:16Z</time>
      </trkpt>
      <trkpt lat="45.64895" lon="6.57315">
        <ele>1862</ele>
        <time>2022-07-27T10:56:17Z</time>
      </trkpt>
      <trkpt lat="45.64896" lon="6.57315">
        <ele>1862</ele>
        <time>2022-07-27T10:56:18Z</time>
      </trkpt>
      <trkpt lat="45.64897" lon="6.57314">
        <ele>1862</ele>
        <time>2022-07-27T10:56:19Z</time>
      </trkpt>
      <trkpt lat="45.64898" lon="6.57313">
        <ele>1863</ele>
        <time>2022-07-27T10:56:20Z</time>
      </trkpt>
      <trkpt lat="45.64899" lon="6.57312">
        <ele>1863</ele>
        <time>2022-07-27T10:56:21Z</time>
      </trkpt>
      <trkpt lat="45.649" lon="6.57311">
        <ele>1863</ele>
        <time>2022-07-27T10:56:22Z</time>
      </trkpt>
      <trkpt lat="45.64901" lon="6.57311">
        <ele>1864</ele>
        <time>2022-07-27T10:56:23Z</time>
      </trkpt>
      <trkpt lat="45.64902" lon="6.5731">
        <ele>1864</ele>
        <time>2022-07-27T10:56:24Z</time>
      </trkpt>
      <trkpt lat="45.64903" lon="6.57309">
        <ele>1865</ele>
        <time>2022-07-27T10:56:25Z</time>
      </trkpt>
      <trkpt lat="45.64904" lon="6.57309">
        <ele>1865</ele>
        <time>2022-07-27T10:56:26Z</time>
      </trkpt>
      <trkpt lat="45.64906" lon="6.57308">
        <ele>1865</ele>
        <time>2022-07-27T10:56:27Z</time>
      </trkpt>
      <trkpt lat="45.64907" lon="6.57308">
        <ele>1865</ele>
        <time>2022-07-27T10:56:28Z</time>
      </trkpt>
      <trkpt lat="45.64908" lon="6.57307">
        <ele>1865</ele>
        <time>2022-07-27T10:56:29Z</time>
      </trkpt>
      <trkpt lat="45.64909" lon="6.57306">
        <ele>1865</ele>
        <time>2022-07-27T10:56:30Z</time>
      </trkpt>
      <trkpt lat="45.64909" lon="6.57305">
        <ele>1865</ele>
        <time>2022-07-27T10:56:31Z</time>
      </trkpt>
      <trkpt lat="45.6491" lon="6.57305">
        <ele>1865</ele>
        <time>2022-07-27T10:56:32Z</time>
      </trkpt>
      <trkpt lat="45.64911" lon="6.57304">
        <ele>1865</ele>
        <time>2022-07-27T10:56:33Z</time>
      </trkpt>
      <trkpt lat="45.64912" lon="6.57303">
        <ele>1865</ele>
        <time>2022-07-27T10:56:34Z</time>
      </trkpt>
      <trkpt lat="45.64913" lon="6.57302">
        <ele>1865</ele>
        <time>2022-07-27T10:56:35Z</time>
      </trkpt>
      <trkpt lat="45.64913" lon="6.57302">
        <ele>1865</ele>
        <time>2022-07-27T10:56:36Z</time>
      </trkpt>
      <trkpt lat="45.64913" lon="6.57301">
        <ele>1865</ele>
        <time>2022-07-27T10:56:37Z</time>
      </trkpt>
      <trkpt lat="45.64914" lon="6.573">
        <ele>1865</ele>
        <time>2022-07-27T10:56:38Z</time>
      </trkpt>
      <trkpt lat="45.64914" lon="6.57299">
        <ele>1865</ele>
        <time>2022-07-27T10:56:39Z</time>
      </trkpt>
      <trkpt lat="45.64914" lon="6.57298">
        <ele>1865</ele>
        <time>2022-07-27T10:56:40Z</time>
      </trkpt>
      <trkpt lat="45.64914" lon="6.57297">
        <ele>1865</ele>
        <time>2022-07-27T10:56:41Z</time>
      </trkpt>
      <trkpt lat="45.64914" lon="6.57295">
        <ele>1865</ele>
        <time>2022-07-27T10:56:42Z</time>
      </trkpt>
      <trkpt lat="45.64913" lon="6.57293">
        <ele>1871</ele>
        <time>2022-07-27T10:58:35Z</time>
      </trkpt>
      <trkpt lat="45.64913" lon="6.57293">
        <ele>1871</ele>
        <time>2022-07-27T10:58:36Z</time>
      </trkpt>
      <trkpt lat="45.64912" lon="6.57292">
        <ele>1871</ele>
        <time>2022-07-27T10:58:37Z</time>
      </trkpt>
      <trkpt lat="45.64912" lon="6.57292">
        <ele>1871</ele>
        <time>2022-07-27T10:58:38Z</time>
      </trkpt>
      <trkpt lat="45.64911" lon="6.57291">
        <ele>1871</ele>
        <time>2022-07-27T10:58:39Z</time>
      </trkpt>
      <trkpt lat="45.6491" lon="6.5729">
        <ele>1871</ele>
        <time>2022-07-27T10:58:40Z</time>
      </trkpt>
      <trkpt lat="45.6491" lon="6.57289">
        <ele>1870</ele>
        <time>2022-07-27T10:58:41Z</time>
      </trkpt>
      <trkpt lat="45.64909" lon="6.57288">
        <ele>1870</ele>
        <time>2022-07-27T10:58:42Z</time>
      </trkpt>
      <trkpt lat="45.64908" lon="6.57287">
        <ele>1870</ele>
        <time>2022-07-27T10:58:43Z</time>
      </trkpt>
      <trkpt lat="45.64907" lon="6.57285">
        <ele>1870</ele>
        <time>2022-07-27T10:58:44Z</time>
      </trkpt>
      <trkpt lat="45.64907" lon="6.57284">
        <ele>1870</ele>
        <time>2022-07-27T10:58:45Z</time>
      </trkpt>
      <trkpt lat="45.64906" lon="6.57283">
        <ele>1870</ele>
        <time>2022-07-27T10:58:46Z</time>
      </trkpt>
      <trkpt lat="45.64906" lon="6.57282">
        <ele>1870</ele>
        <time>2022-07-27T10:58:47Z</time>
      </trkpt>
      <trkpt lat="45.64906" lon="6.57282">
        <ele>1870</ele>
        <time>2022-07-27T10:58:48Z</time>
      </trkpt>
      <trkpt lat="45.64905" lon="6.57281">
        <ele>1870</ele>
        <time>2022-07-27T10:58:49Z</time>
      </trkpt>
      <trkpt lat="45.64905" lon="6.5728">
        <ele>1871</ele>
        <time>2022-07-27T10:58:50Z</time>
      </trkpt>
      <trkpt lat="45.64904" lon="6.57278">
        <ele>1871</ele>
        <time>2022-07-27T10:58:51Z</time>
      </trkpt>
      <trkpt lat="45.64904" lon="6.57277">
        <ele>1871</ele>
        <time>2022-07-27T10:58:52Z</time>
      </trkpt>
      <trkpt lat="45.64903" lon="6.57276">
        <ele>1871</ele>
        <time>2022-07-27T10:58:53Z</time>
      </trkpt>
      <trkpt lat="45.64903" lon="6.57274">
        <ele>1871</ele>
        <time>2022-07-27T10:58:54Z</time>
      </trkpt>
      <trkpt lat="45.64902" lon="6.57272">
        <ele>1871</ele>
        <time>2022-07-27T10:58:55Z</time>
      </trkpt>
      <trkpt lat="45.64902" lon="6.57271">
        <ele>1871</ele>
        <time>2022-07-27T10:58:56Z</time>
      </trkpt>
      <trkpt lat="45.64901" lon="6.57269">
        <ele>1871</ele>
        <time>2022-07-27T10:58:57Z</time>
      </trkpt>
      <trkpt lat="45.64901" lon="6.57267">
        <ele>1871</ele>
        <time>2022-07-27T10:58:58Z</time>
      </trkpt>
      <trkpt lat="45.64901" lon="6.57265">
        <ele>1871</ele>
        <time>2022-07-27T10:58:59Z</time>
      </trkpt>
      <trkpt lat="45.64901" lon="6.57263">
        <ele>1871</ele>
        <time>2022-07-27T10:59:00Z</time>
      </trkpt>
      <trkpt lat="45.649" lon="6.57262">
        <ele>1871</ele>
        <time>2022-07-27T10:59:01Z</time>
      </trkpt>
      <trkpt lat="45.649" lon="6.5726">
        <ele>1871</ele>
        <time>2022-07-27T10:59:02Z</time>
      </trkpt>
      <trkpt lat="45.649" lon="6.57258">
        <ele>1871</ele>
        <time>2022-07-27T10:59:03Z</time>
      </trkpt>
      <trkpt lat="45.649" lon="6.57256">
        <ele>1871</ele>
        <time>2022-07-27T10:59:04Z</time>
      </trkpt>
      <trkpt lat="45.649" lon="6.57254">
        <ele>1871</ele>
        <time>2022-07-27T10:59:05Z</time>
      </trkpt>
      <trkpt lat="45.649" lon="6.57253">
        <ele>1871</ele>
        <time>2022-07-27T10:59:06Z</time>
      </trkpt>
      <trkpt lat="45.649" lon="6.57251">
        <ele>1871</ele>
        <time>2022-07-27T10:59:07Z</time>
      </trkpt>
      <trkpt lat="45.649" lon="6.57249">
        <ele>1871</ele>
        <time>2022-07-27T10:59:08Z</time>
      </trkpt>
      <trkpt lat="45.649" lon="6.57248">
        <ele>1871</ele>
        <time>2022-07-27T10:59:09Z</time>
      </trkpt>
      <trkpt lat="45.649" lon="6.57246">
        <ele>1872</ele>
        <time>2022-07-27T10:59:10Z</time>
      </trkpt>
      <trkpt lat="45.649" lon="6.57245">
        <ele>1872</ele>
        <time>2022-07-27T10:59:11Z</time>
      </trkpt>
      <trkpt lat="45.649" lon="6.57244">
        <ele>1872</ele>
        <time>2022-07-27T10:59:12Z</time>
      </trkpt>
      <trkpt lat="45.64901" lon="6.57242">
        <ele>1872</ele>
        <time>2022-07-27T10:59:13Z</time>
      </trkpt>
      <trkpt lat="45.64901" lon="6.57241">
        <ele>1872</ele>
        <time>2022-07-27T10:59:14Z</time>
      </trkpt>
      <trkpt lat="45.64902" lon="6.57239">
        <ele>1873</ele>
        <time>2022-07-27T10:59:15Z</time>
      </trkpt>
      <trkpt lat="45.64902" lon="6.57238">
        <ele>1873</ele>
        <time>2022-07-27T10:59:16Z</time>
      </trkpt>
      <trkpt lat="45.64903" lon="6.57237">
        <ele>1873</ele>
        <time>2022-07-27T10:59:17Z</time>
      </trkpt>
      <trkpt lat="45.64904" lon="6.57235">
        <ele>1873</ele>
        <time>2022-07-27T10:59:18Z</time>
      </trkpt>
      <trkpt lat="45.64904" lon="6.57234">
        <ele>1873</ele>
        <time>2022-07-27T10:59:19Z</time>
      </trkpt>
      <trkpt lat="45.64905" lon="6.57233">
        <ele>1874</ele>
        <time>2022-07-27T10:59:20Z</time>
      </trkpt>
      <trkpt lat="45.64905" lon="6.57231">
        <ele>1874</ele>
        <time>2022-07-27T10:59:21Z</time>
      </trkpt>
      <trkpt lat="45.64906" lon="6.5723">
        <ele>1874</ele>
        <time>2022-07-27T10:59:22Z</time>
      </trkpt>
      <trkpt lat="45.64906" lon="6.57229">
        <ele>1874</ele>
        <time>2022-07-27T10:59:23Z</time>
      </trkpt>
      <trkpt lat="45.64907" lon="6.57228">
        <ele>1874</ele>
        <time>2022-07-27T10:59:24Z</time>
      </trkpt>
      <trkpt lat="45.64908" lon="6.57227">
        <ele>1874</ele>
        <time>2022-07-27T10:59:25Z</time>
      </trkpt>
      <trkpt lat="45.64908" lon="6.57226">
        <ele>1874</ele>
        <time>2022-07-27T10:59:26Z</time>
      </trkpt>
      <trkpt lat="45.64909" lon="6.57226">
        <ele>1874</ele>
        <time>2022-07-27T10:59:34Z</time>
      </trkpt>
      <trkpt lat="45.64909" lon="6.57225">
        <ele>1875</ele>
        <time>2022-07-27T10:59:35Z</time>
      </trkpt>
      <trkpt lat="45.6491" lon="6.57225">
        <ele>1874</ele>
        <time>2022-07-27T10:59:36Z</time>
      </trkpt>
      <trkpt lat="45.6491" lon="6.57225">
        <ele>1874</ele>
        <time>2022-07-27T10:59:37Z</time>
      </trkpt>
      <trkpt lat="45.64911" lon="6.57224">
        <ele>1874</ele>
        <time>2022-07-27T10:59:38Z</time>
      </trkpt>
      <trkpt lat="45.64911" lon="6.57224">
        <ele>1874</ele>
        <time>2022-07-27T10:59:39Z</time>
      </trkpt>
      <trkpt lat="45.64912" lon="6.57224">
        <ele>1874</ele>
        <time>2022-07-27T10:59:40Z</time>
      </trkpt>
      <trkpt lat="45.64913" lon="6.57223">
        <ele>1874</ele>
        <time>2022-07-27T10:59:41Z</time>
      </trkpt>
      <trkpt lat="45.64913" lon="6.57223">
        <ele>1874</ele>
        <time>2022-07-27T10:59:42Z</time>
      </trkpt>
      <trkpt lat="45.64914" lon="6.57223">
        <ele>1874</ele>
        <time>2022-07-27T10:59:43Z</time>
      </trkpt>
      <trkpt lat="45.64915" lon="6.57223">
        <ele>1874</ele>
        <time>2022-07-27T10:59:44Z</time>
      </trkpt>
      <trkpt lat="45.64915" lon="6.57222">
        <ele>1876</ele>
        <time>2022-07-27T11:00:44Z</time>
      </trkpt>
      <trkpt lat="45.64915" lon="6.57221">
        <ele>1876</ele>
        <time>2022-07-27T11:00:45Z</time>
      </trkpt>
      <trkpt lat="45.64916" lon="6.57221">
        <ele>1876</ele>
        <time>2022-07-27T11:00:46Z</time>
      </trkpt>
      <trkpt lat="45.64916" lon="6.5722">
        <ele>1876</ele>
        <time>2022-07-27T11:00:47Z</time>
      </trkpt>
      <trkpt lat="45.64916" lon="6.57219">
        <ele>1876</ele>
        <time>2022-07-27T11:00:48Z</time>
      </trkpt>
      <trkpt lat="45.64916" lon="6.57218">
        <ele>1876</ele>
        <time>2022-07-27T11:00:49Z</time>
      </trkpt>
      <trkpt lat="45.64916" lon="6.57216">
        <ele>1876</ele>
        <time>2022-07-27T11:00:50Z</time>
      </trkpt>
      <trkpt lat="45.64917" lon="6.57215">
        <ele>1876</ele>
        <time>2022-07-27T11:00:51Z</time>
      </trkpt>
      <trkpt lat="45.64917" lon="6.57213">
        <ele>1876</ele>
        <time>2022-07-27T11:00:52Z</time>
      </trkpt>
      <trkpt lat="45.64918" lon="6.57212">
        <ele>1876</ele>
        <time>2022-07-27T11:00:53Z</time>
      </trkpt>
      <trkpt lat="45.64919" lon="6.5721">
        <ele>1876</ele>
        <time>2022-07-27T11:00:54Z</time>
      </trkpt>
      <trkpt lat="45.6492" lon="6.57209">
        <ele>1876</ele>
        <time>2022-07-27T11:00:55Z</time>
      </trkpt>
      <trkpt lat="45.6492" lon="6.57207">
        <ele>1876</ele>
        <time>2022-07-27T11:00:56Z</time>
      </trkpt>
      <trkpt lat="45.64921" lon="6.57206">
        <ele>1876</ele>
        <time>2022-07-27T11:00:57Z</time>
      </trkpt>
      <trkpt lat="45.64922" lon="6.57204">
        <ele>1876</ele>
        <time>2022-07-27T11:00:58Z</time>
      </trkpt>
      <trkpt lat="45.64922" lon="6.57203">
        <ele>1876</ele>
        <time>2022-07-27T11:00:59Z</time>
      </trkpt>
      <trkpt lat="45.64923" lon="6.57201">
        <ele>1876</ele>
        <time>2022-07-27T11:01:00Z</time>
      </trkpt>
      <trkpt lat="45.64923" lon="6.572">
        <ele>1876</ele>
        <time>2022-07-27T11:01:01Z</time>
      </trkpt>
      <trkpt lat="45.64923" lon="6.57198">
        <ele>1876</ele>
        <time>2022-07-27T11:01:02Z</time>
      </trkpt>
      <trkpt lat="45.64923" lon="6.57196">
        <ele>1876</ele>
        <time>2022-07-27T11:01:03Z</time>
      </trkpt>
      <trkpt lat="45.64923" lon="6.57195">
        <ele>1876</ele>
        <time>2022-07-27T11:01:04Z</time>
      </trkpt>
      <trkpt lat="45.64923" lon="6.57193">
        <ele>1876</ele>
        <time>2022-07-27T11:01:05Z</time>
      </trkpt>
      <trkpt lat="45.64923" lon="6.57191">
        <ele>1876</ele>
        <time>2022-07-27T11:01:06Z</time>
      </trkpt>
      <trkpt lat="45.64922" lon="6.5719">
        <ele>1876</ele>
        <time>2022-07-27T11:01:07Z</time>
      </trkpt>
      <trkpt lat="45.64922" lon="6.57189">
        <ele>1876</ele>
        <time>2022-07-27T11:01:08Z</time>
      </trkpt>
      <trkpt lat="45.6492" lon="6.57187">
        <ele>1877</ele>
        <time>2022-07-27T11:01:22Z</time>
      </trkpt>
      <trkpt lat="45.6492" lon="6.57186">
        <ele>1877</ele>
        <time>2022-07-27T11:01:23Z</time>
      </trkpt>
      <trkpt lat="45.64919" lon="6.57185">
        <ele>1877</ele>
        <time>2022-07-27T11:01:24Z</time>
      </trkpt>
      <trkpt lat="45.64919" lon="6.57185">
        <ele>1878</ele>
        <time>2022-07-27T11:01:25Z</time>
      </trkpt>
      <trkpt lat="45.64919" lon="6.57184">
        <ele>1878</ele>
        <time>2022-07-27T11:01:26Z</time>
      </trkpt>
      <trkpt lat="45.64919" lon="6.57184">
        <ele>1878</ele>
        <time>2022-07-27T11:01:27Z</time>
      </trkpt>
      <trkpt lat="45.64919" lon="6.57183">
        <ele>1878</ele>
        <time>2022-07-27T11:01:28Z</time>
      </trkpt>
      <trkpt lat="45.64918" lon="6.57182">
        <ele>1878</ele>
        <time>2022-07-27T11:01:29Z</time>
      </trkpt>
      <trkpt lat="45.64918" lon="6.57181">
        <ele>1878</ele>
        <time>2022-07-27T11:01:30Z</time>
      </trkpt>
      <trkpt lat="45.64918" lon="6.5718">
        <ele>1878</ele>
        <time>2022-07-27T11:01:31Z</time>
      </trkpt>
      <trkpt lat="45.64918" lon="6.57179">
        <ele>1878</ele>
        <time>2022-07-27T11:01:32Z</time>
      </trkpt>
      <trkpt lat="45.64917" lon="6.57178">
        <ele>1878</ele>
        <time>2022-07-27T11:01:33Z</time>
      </trkpt>
      <trkpt lat="45.64916" lon="6.57177">
        <ele>1878</ele>
        <time>2022-07-27T11:01:34Z</time>
      </trkpt>
      <trkpt lat="45.64916" lon="6.57176">
        <ele>1879</ele>
        <time>2022-07-27T11:01:35Z</time>
      </trkpt>
      <trkpt lat="45.64915" lon="6.57175">
        <ele>1879</ele>
        <time>2022-07-27T11:01:36Z</time>
      </trkpt>
      <trkpt lat="45.64915" lon="6.57174">
        <ele>1879</ele>
        <time>2022-07-27T11:01:37Z</time>
      </trkpt>
      <trkpt lat="45.64914" lon="6.57173">
        <ele>1879</ele>
        <time>2022-07-27T11:01:38Z</time>
      </trkpt>
      <trkpt lat="45.64914" lon="6.57172">
        <ele>1879</ele>
        <time>2022-07-27T11:01:39Z</time>
      </trkpt>
      <trkpt lat="45.64913" lon="6.57171">
        <ele>1880</ele>
        <time>2022-07-27T11:01:40Z</time>
      </trkpt>
      <trkpt lat="45.64913" lon="6.5717">
        <ele>1880</ele>
        <time>2022-07-27T11:01:41Z</time>
      </trkpt>
      <trkpt lat="45.64912" lon="6.5717">
        <ele>1880</ele>
        <time>2022-07-27T11:01:42Z</time>
      </trkpt>
      <trkpt lat="45.64912" lon="6.57169">
        <ele>1880</ele>
        <time>2022-07-27T11:01:43Z</time>
      </trkpt>
      <trkpt lat="45.64911" lon="6.57168">
        <ele>1880</ele>
        <time>2022-07-27T11:01:44Z</time>
      </trkpt>
      <trkpt lat="45.64911" lon="6.57167">
        <ele>1881</ele>
        <time>2022-07-27T11:01:45Z</time>
      </trkpt>
      <trkpt lat="45.6491" lon="6.57166">
        <ele>1881</ele>
        <time>2022-07-27T11:01:46Z</time>
      </trkpt>
      <trkpt lat="45.64909" lon="6.57166">
        <ele>1881</ele>
        <time>2022-07-27T11:01:47Z</time>
      </trkpt>
      <trkpt lat="45.64909" lon="6.57165">
        <ele>1881</ele>
        <time>2022-07-27T11:01:48Z</time>
      </trkpt>
      <trkpt lat="45.64909" lon="6.57164">
        <ele>1881</ele>
        <time>2022-07-27T11:01:49Z</time>
      </trkpt>
      <trkpt lat="45.64908" lon="6.57163">
        <ele>1882</ele>
        <time>2022-07-27T11:01:50Z</time>
      </trkpt>
      <trkpt lat="45.64908" lon="6.57161">
        <ele>1882</ele>
        <time>2022-07-27T11:01:51Z</time>
      </trkpt>
      <trkpt lat="45.64908" lon="6.5716">
        <ele>1882</ele>
        <time>2022-07-27T11:01:52Z</time>
      </trkpt>
      <trkpt lat="45.64908" lon="6.57159">
        <ele>1882</ele>
        <time>2022-07-27T11:01:53Z</time>
      </trkpt>
      <trkpt lat="45.64909" lon="6.57158">
        <ele>1882</ele>
        <time>2022-07-27T11:01:54Z</time>
      </trkpt>
      <trkpt lat="45.64909" lon="6.57157">
        <ele>1883</ele>
        <time>2022-07-27T11:01:55Z</time>
      </trkpt>
      <trkpt lat="45.64909" lon="6.57157">
        <ele>1883</ele>
        <time>2022-07-27T11:01:56Z</time>
      </trkpt>
      <trkpt lat="45.6491" lon="6.57156">
        <ele>1886</ele>
        <time>2022-07-27T11:02:11Z</time>
      </trkpt>
      <trkpt lat="45.64911" lon="6.57155">
        <ele>1886</ele>
        <time>2022-07-27T11:02:12Z</time>
      </trkpt>
      <trkpt lat="45.64911" lon="6.57154">
        <ele>1886</ele>
        <time>2022-07-27T11:02:13Z</time>
      </trkpt>
      <trkpt lat="45.64912" lon="6.57153">
        <ele>1886</ele>
        <time>2022-07-27T11:02:14Z</time>
      </trkpt>
      <trkpt lat="45.64912" lon="6.57153">
        <ele>1886</ele>
        <time>2022-07-27T11:02:15Z</time>
      </trkpt>
      <trkpt lat="45.64913" lon="6.57152">
        <ele>1886</ele>
        <time>2022-07-27T11:02:16Z</time>
      </trkpt>
      <trkpt lat="45.64914" lon="6.57151">
        <ele>1886</ele>
        <time>2022-07-27T11:02:17Z</time>
      </trkpt>
      <trkpt lat="45.64915" lon="6.5715">
        <ele>1886</ele>
        <time>2022-07-27T11:02:18Z</time>
      </trkpt>
      <trkpt lat="45.64915" lon="6.57149">
        <ele>1886</ele>
        <time>2022-07-27T11:02:19Z</time>
      </trkpt>
      <trkpt lat="45.64916" lon="6.57148">
        <ele>1886</ele>
        <time>2022-07-27T11:02:20Z</time>
      </trkpt>
      <trkpt lat="45.64917" lon="6.57147">
        <ele>1886</ele>
        <time>2022-07-27T11:02:21Z</time>
      </trkpt>
      <trkpt lat="45.64918" lon="6.57146">
        <ele>1886</ele>
        <time>2022-07-27T11:02:22Z</time>
      </trkpt>
      <trkpt lat="45.64918" lon="6.57145">
        <ele>1886</ele>
        <time>2022-07-27T11:02:23Z</time>
      </trkpt>
      <trkpt lat="45.64919" lon="6.57143">
        <ele>1886</ele>
        <time>2022-07-27T11:02:24Z</time>
      </trkpt>
      <trkpt lat="45.6492" lon="6.57142">
        <ele>1887</ele>
        <time>2022-07-27T11:02:25Z</time>
      </trkpt>
      <trkpt lat="45.6492" lon="6.57141">
        <ele>1887</ele>
        <time>2022-07-27T11:02:26Z</time>
      </trkpt>
      <trkpt lat="45.64921" lon="6.5714">
        <ele>1887</ele>
        <time>2022-07-27T11:02:27Z</time>
      </trkpt>
      <trkpt lat="45.64921" lon="6.57139">
        <ele>1887</ele>
        <time>2022-07-27T11:02:28Z</time>
      </trkpt>
      <trkpt lat="45.64922" lon="6.57138">
        <ele>1887</ele>
        <time>2022-07-27T11:02:29Z</time>
      </trkpt>
      <trkpt lat="45.64922" lon="6.57136">
        <ele>1887</ele>
        <time>2022-07-27T11:02:30Z</time>
      </trkpt>
      <trkpt lat="45.64922" lon="6.57135">
        <ele>1887</ele>
        <time>2022-07-27T11:02:31Z</time>
      </trkpt>
      <trkpt lat="45.64923" lon="6.57134">
        <ele>1887</ele>
        <time>2022-07-27T11:02:32Z</time>
      </trkpt>
      <trkpt lat="45.64923" lon="6.57132">
        <ele>1887</ele>
        <time>2022-07-27T11:02:33Z</time>
      </trkpt>
      <trkpt lat="45.64922" lon="6.57131">
        <ele>1887</ele>
        <time>2022-07-27T11:02:34Z</time>
      </trkpt>
      <trkpt lat="45.64922" lon="6.5713">
        <ele>1888</ele>
        <time>2022-07-27T11:02:35Z</time>
      </trkpt>
      <trkpt lat="45.64922" lon="6.57129">
        <ele>1888</ele>
        <time>2022-07-27T11:02:36Z</time>
      </trkpt>
      <trkpt lat="45.64921" lon="6.57127">
        <ele>1888</ele>
        <time>2022-07-27T11:02:37Z</time>
      </trkpt>
      <trkpt lat="45.64921" lon="6.57126">
        <ele>1888</ele>
        <time>2022-07-27T11:02:38Z</time>
      </trkpt>
      <trkpt lat="45.64921" lon="6.57125">
        <ele>1888</ele>
        <time>2022-07-27T11:02:39Z</time>
      </trkpt>
      <trkpt lat="45.6492" lon="6.57124">
        <ele>1889</ele>
        <time>2022-07-27T11:02:40Z</time>
      </trkpt>
      <trkpt lat="45.6492" lon="6.57122">
        <ele>1889</ele>
        <time>2022-07-27T11:02:41Z</time>
      </trkpt>
      <trkpt lat="45.64919" lon="6.57121">
        <ele>1889</ele>
        <time>2022-07-27T11:02:42Z</time>
      </trkpt>
      <trkpt lat="45.64919" lon="6.5712">
        <ele>1889</ele>
        <time>2022-07-27T11:02:43Z</time>
      </trkpt>
      <trkpt lat="45.64918" lon="6.57119">
        <ele>1889</ele>
        <time>2022-07-27T11:02:44Z</time>
      </trkpt>
      <trkpt lat="45.64918" lon="6.57117">
        <ele>1889</ele>
        <time>2022-07-27T11:02:45Z</time>
      </trkpt>
      <trkpt lat="45.64918" lon="6.57116">
        <ele>1889</ele>
        <time>2022-07-27T11:02:46Z</time>
      </trkpt>
      <trkpt lat="45.64917" lon="6.57115">
        <ele>1889</ele>
        <time>2022-07-27T11:02:47Z</time>
      </trkpt>
      <trkpt lat="45.64917" lon="6.57114">
        <ele>1889</ele>
        <time>2022-07-27T11:02:48Z</time>
      </trkpt>
      <trkpt lat="45.64917" lon="6.57113">
        <ele>1889</ele>
        <time>2022-07-27T11:02:49Z</time>
      </trkpt>
      <trkpt lat="45.64917" lon="6.57113">
        <ele>1890</ele>
        <time>2022-07-27T11:02:50Z</time>
      </trkpt>
      <trkpt lat="45.64916" lon="6.57112">
        <ele>1890</ele>
        <time>2022-07-27T11:02:51Z</time>
      </trkpt>
      <trkpt lat="45.64916" lon="6.57111">
        <ele>1890</ele>
        <time>2022-07-27T11:02:52Z</time>
      </trkpt>
      <trkpt lat="45.64916" lon="6.5711">
        <ele>1890</ele>
        <time>2022-07-27T11:02:53Z</time>
      </trkpt>
      <trkpt lat="45.64915" lon="6.5711">
        <ele>1890</ele>
        <time>2022-07-27T11:02:54Z</time>
      </trkpt>
      <trkpt lat="45.64915" lon="6.57109">
        <ele>1891</ele>
        <time>2022-07-27T11:02:55Z</time>
      </trkpt>
      <trkpt lat="45.64914" lon="6.57108">
        <ele>1891</ele>
        <time>2022-07-27T11:02:56Z</time>
      </trkpt>
      <trkpt lat="45.64914" lon="6.57108">
        <ele>1891</ele>
        <time>2022-07-27T11:02:57Z</time>
      </trkpt>
      <trkpt lat="45.64913" lon="6.57108">
        <ele>1891</ele>
        <time>2022-07-27T11:02:58Z</time>
      </trkpt>
      <trkpt lat="45.64913" lon="6.57107">
        <ele>1891</ele>
        <time>2022-07-27T11:02:59Z</time>
      </trkpt>
      <trkpt lat="45.64913" lon="6.57107">
        <ele>1891</ele>
        <time>2022-07-27T11:03:00Z</time>
      </trkpt>
      <trkpt lat="45.64912" lon="6.57107">
        <ele>1891</ele>
        <time>2022-07-27T11:03:01Z</time>
      </trkpt>
      <trkpt lat="45.64911" lon="6.57107">
        <ele>1891</ele>
        <time>2022-07-27T11:03:02Z</time>
      </trkpt>
      <trkpt lat="45.6491" lon="6.57107">
        <ele>1892</ele>
        <time>2022-07-27T11:03:03Z</time>
      </trkpt>
      <trkpt lat="45.6491" lon="6.57108">
        <ele>1892</ele>
        <time>2022-07-27T11:03:04Z</time>
      </trkpt>
      <trkpt lat="45.64909" lon="6.57107">
        <ele>1893</ele>
        <time>2022-07-27T11:03:05Z</time>
      </trkpt>
      <trkpt lat="45.64908" lon="6.57107">
        <ele>1893</ele>
        <time>2022-07-27T11:03:06Z</time>
      </trkpt>
      <trkpt lat="45.64907" lon="6.57107">
        <ele>1893</ele>
        <time>2022-07-27T11:03:07Z</time>
      </trkpt>
      <trkpt lat="45.64907" lon="6.57107">
        <ele>1893</ele>
        <time>2022-07-27T11:03:08Z</time>
      </trkpt>
      <trkpt lat="45.64906" lon="6.57107">
        <ele>1893</ele>
        <time>2022-07-27T11:03:09Z</time>
      </trkpt>
      <trkpt lat="45.64905" lon="6.57106">
        <ele>1894</ele>
        <time>2022-07-27T11:03:10Z</time>
      </trkpt>
      <trkpt lat="45.64905" lon="6.57106">
        <ele>1894</ele>
        <time>2022-07-27T11:03:11Z</time>
      </trkpt>
      <trkpt lat="45.64904" lon="6.57105">
        <ele>1894</ele>
        <time>2022-07-27T11:03:12Z</time>
      </trkpt>
      <trkpt lat="45.64903" lon="6.57104">
        <ele>1894</ele>
        <time>2022-07-27T11:03:13Z</time>
      </trkpt>
      <trkpt lat="45.64903" lon="6.57104">
        <ele>1894</ele>
        <time>2022-07-27T11:03:14Z</time>
      </trkpt>
      <trkpt lat="45.64902" lon="6.57103">
        <ele>1894</ele>
        <time>2022-07-27T11:03:15Z</time>
      </trkpt>
      <trkpt lat="45.64902" lon="6.57102">
        <ele>1894</ele>
        <time>2022-07-27T11:03:16Z</time>
      </trkpt>
      <trkpt lat="45.64902" lon="6.57101">
        <ele>1894</ele>
        <time>2022-07-27T11:03:17Z</time>
      </trkpt>
      <trkpt lat="45.64902" lon="6.571">
        <ele>1894</ele>
        <time>2022-07-27T11:03:18Z</time>
      </trkpt>
      <trkpt lat="45.64902" lon="6.571">
        <ele>1896</ele>
        <time>2022-07-27T11:04:11Z</time>
      </trkpt>
      <trkpt lat="45.64902" lon="6.57099">
        <ele>1896</ele>
        <time>2022-07-27T11:04:12Z</time>
      </trkpt>
      <trkpt lat="45.64902" lon="6.57099">
        <ele>1896</ele>
        <time>2022-07-27T11:04:13Z</time>
      </trkpt>
      <trkpt lat="45.64902" lon="6.57098">
        <ele>1896</ele>
        <time>2022-07-27T11:04:14Z</time>
      </trkpt>
      <trkpt lat="45.64902" lon="6.57098">
        <ele>1896</ele>
        <time>2022-07-27T11:04:15Z</time>
      </trkpt>
      <trkpt lat="45.64902" lon="6.57097">
        <ele>1896</ele>
        <time>2022-07-27T11:04:16Z</time>
      </trkpt>
      <trkpt lat="45.64902" lon="6.57096">
        <ele>1896</ele>
        <time>2022-07-27T11:04:17Z</time>
      </trkpt>
      <trkpt lat="45.64902" lon="6.57096">
        <ele>1896</ele>
        <time>2022-07-27T11:04:18Z</time>
      </trkpt>
      <trkpt lat="45.64902" lon="6.57095">
        <ele>1896</ele>
        <time>2022-07-27T11:04:19Z</time>
      </trkpt>
      <trkpt lat="45.64902" lon="6.57094">
        <ele>1896</ele>
        <time>2022-07-27T11:04:20Z</time>
      </trkpt>
      <trkpt lat="45.64903" lon="6.57093">
        <ele>1896</ele>
        <time>2022-07-27T11:04:21Z</time>
      </trkpt>
      <trkpt lat="45.64903" lon="6.57092">
        <ele>1896</ele>
        <time>2022-07-27T11:04:22Z</time>
      </trkpt>
      <trkpt lat="45.64903" lon="6.57091">
        <ele>1896</ele>
        <time>2022-07-27T11:04:23Z</time>
      </trkpt>
      <trkpt lat="45.64903" lon="6.57091">
        <ele>1896</ele>
        <time>2022-07-27T11:04:24Z</time>
      </trkpt>
      <trkpt lat="45.64904" lon="6.57091">
        <ele>1897</ele>
        <time>2022-07-27T11:04:25Z</time>
      </trkpt>
      <trkpt lat="45.64904" lon="6.5709">
        <ele>1897</ele>
        <time>2022-07-27T11:04:26Z</time>
      </trkpt>
      <trkpt lat="45.64904" lon="6.5709">
        <ele>1897</ele>
        <time>2022-07-27T11:04:27Z</time>
      </trkpt>
      <trkpt lat="45.64905" lon="6.57089">
        <ele>1897</ele>
        <time>2022-07-27T11:04:28Z</time>
      </trkpt>
      <trkpt lat="45.64905" lon="6.57088">
        <ele>1897</ele>
        <time>2022-07-27T11:04:29Z</time>
      </trkpt>
      <trkpt lat="45.64906" lon="6.57087">
        <ele>1897</ele>
        <time>2022-07-27T11:04:30Z</time>
      </trkpt>
      <trkpt lat="45.64906" lon="6.57087">
        <ele>1897</ele>
        <time>2022-07-27T11:04:31Z</time>
      </trkpt>
      <trkpt lat="45.64907" lon="6.57087">
        <ele>1897</ele>
        <time>2022-07-27T11:04:32Z</time>
      </trkpt>
      <trkpt lat="45.64907" lon="6.57086">
        <ele>1897</ele>
        <time>2022-07-27T11:04:33Z</time>
      </trkpt>
      <trkpt lat="45.64907" lon="6.57086">
        <ele>1897</ele>
        <time>2022-07-27T11:04:34Z</time>
      </trkpt>
      <trkpt lat="45.64908" lon="6.57085">
        <ele>1898</ele>
        <time>2022-07-27T11:04:35Z</time>
      </trkpt>
      <trkpt lat="45.64908" lon="6.57085">
        <ele>1898</ele>
        <time>2022-07-27T11:04:36Z</time>
      </trkpt>
      <trkpt lat="45.64909" lon="6.57084">
        <ele>1898</ele>
        <time>2022-07-27T11:04:37Z</time>
      </trkpt>
      <trkpt lat="45.64909" lon="6.57084">
        <ele>1898</ele>
        <time>2022-07-27T11:04:38Z</time>
      </trkpt>
      <trkpt lat="45.64909" lon="6.57083">
        <ele>1898</ele>
        <time>2022-07-27T11:04:39Z</time>
      </trkpt>
      <trkpt lat="45.64909" lon="6.57083">
        <ele>1898</ele>
        <time>2022-07-27T11:04:40Z</time>
      </trkpt>
      <trkpt lat="45.6491" lon="6.57082">
        <ele>1898</ele>
        <time>2022-07-27T11:04:41Z</time>
      </trkpt>
      <trkpt lat="45.6491" lon="6.57082">
        <ele>1898</ele>
        <time>2022-07-27T11:04:42Z</time>
      </trkpt>
      <trkpt lat="45.6491" lon="6.57082">
        <ele>1898</ele>
        <time>2022-07-27T11:04:43Z</time>
      </trkpt>
      <trkpt lat="45.6491" lon="6.57081">
        <ele>1898</ele>
        <time>2022-07-27T11:04:44Z</time>
      </trkpt>
      <trkpt lat="45.6491" lon="6.5708">
        <ele>1899</ele>
        <time>2022-07-27T11:04:45Z</time>
      </trkpt>
      <trkpt lat="45.64911" lon="6.57079">
        <ele>1899</ele>
        <time>2022-07-27T11:04:46Z</time>
      </trkpt>
      <trkpt lat="45.64911" lon="6.57078">
        <ele>1899</ele>
        <time>2022-07-27T11:04:47Z</time>
      </trkpt>
      <trkpt lat="45.64911" lon="6.57078">
        <ele>1899</ele>
        <time>2022-07-27T11:04:48Z</time>
      </trkpt>
      <trkpt lat="45.64911" lon="6.57077">
        <ele>1899</ele>
        <time>2022-07-27T11:04:49Z</time>
      </trkpt>
      <trkpt lat="45.64912" lon="6.57077">
        <ele>1899</ele>
        <time>2022-07-27T11:04:50Z</time>
      </trkpt>
      <trkpt lat="45.64912" lon="6.57077">
        <ele>1899</ele>
        <time>2022-07-27T11:04:51Z</time>
      </trkpt>
      <trkpt lat="45.64912" lon="6.57076">
        <ele>1899</ele>
        <time>2022-07-27T11:04:52Z</time>
      </trkpt>
      <trkpt lat="45.64912" lon="6.57076">
        <ele>1899</ele>
        <time>2022-07-27T11:04:53Z</time>
      </trkpt>
      <trkpt lat="45.64912" lon="6.57075">
        <ele>1899</ele>
        <time>2022-07-27T11:04:54Z</time>
      </trkpt>
      <trkpt lat="45.64913" lon="6.57074">
        <ele>1900</ele>
        <time>2022-07-27T11:04:55Z</time>
      </trkpt>
      <trkpt lat="45.64913" lon="6.57074">
        <ele>1900</ele>
        <time>2022-07-27T11:04:56Z</time>
      </trkpt>
      <trkpt lat="45.64914" lon="6.57074">
        <ele>1900</ele>
        <time>2022-07-27T11:04:57Z</time>
      </trkpt>
      <trkpt lat="45.64914" lon="6.57073">
        <ele>1900</ele>
        <time>2022-07-27T11:04:58Z</time>
      </trkpt>
      <trkpt lat="45.64915" lon="6.57072">
        <ele>1901</ele>
        <time>2022-07-27T11:05:04Z</time>
      </trkpt>
      <trkpt lat="45.64916" lon="6.57071">
        <ele>1902</ele>
        <time>2022-07-27T11:05:05Z</time>
      </trkpt>
      <trkpt lat="45.64916" lon="6.5707">
        <ele>1902</ele>
        <time>2022-07-27T11:05:06Z</time>
      </trkpt>
      <trkpt lat="45.64916" lon="6.5707">
        <ele>1902</ele>
        <time>2022-07-27T11:05:07Z</time>
      </trkpt>
      <trkpt lat="45.64917" lon="6.57069">
        <ele>1902</ele>
        <time>2022-07-27T11:05:08Z</time>
      </trkpt>
      <trkpt lat="45.64916" lon="6.57066">
        <ele>1906</ele>
        <time>2022-07-27T11:05:35Z</time>
      </trkpt>
      <trkpt lat="45.64916" lon="6.57065">
        <ele>1906</ele>
        <time>2022-07-27T11:05:36Z</time>
      </trkpt>
      <trkpt lat="45.64915" lon="6.57063">
        <ele>1906</ele>
        <time>2022-07-27T11:05:37Z</time>
      </trkpt>
      <trkpt lat="45.64914" lon="6.57063">
        <ele>1906</ele>
        <time>2022-07-27T11:05:38Z</time>
      </trkpt>
      <trkpt lat="45.64914" lon="6.57062">
        <ele>1906</ele>
        <time>2022-07-27T11:05:39Z</time>
      </trkpt>
      <trkpt lat="45.64913" lon="6.57063">
        <ele>1906</ele>
        <time>2022-07-27T11:05:40Z</time>
      </trkpt>
      <trkpt lat="45.64912" lon="6.57063">
        <ele>1906</ele>
        <time>2022-07-27T11:05:41Z</time>
      </trkpt>
      <trkpt lat="45.64911" lon="6.57063">
        <ele>1906</ele>
        <time>2022-07-27T11:05:42Z</time>
      </trkpt>
      <trkpt lat="45.64911" lon="6.57063">
        <ele>1906</ele>
        <time>2022-07-27T11:05:43Z</time>
      </trkpt>
      <trkpt lat="45.6491" lon="6.57064">
        <ele>1906</ele>
        <time>2022-07-27T11:05:44Z</time>
      </trkpt>
      <trkpt lat="45.64909" lon="6.57064">
        <ele>1906</ele>
        <time>2022-07-27T11:05:45Z</time>
      </trkpt>
      <trkpt lat="45.64909" lon="6.57064">
        <ele>1906</ele>
        <time>2022-07-27T11:05:46Z</time>
      </trkpt>
      <trkpt lat="45.64908" lon="6.57064">
        <ele>1906</ele>
        <time>2022-07-27T11:05:47Z</time>
      </trkpt>
      <trkpt lat="45.64907" lon="6.57064">
        <ele>1906</ele>
        <time>2022-07-27T11:05:48Z</time>
      </trkpt>
      <trkpt lat="45.64907" lon="6.57065">
        <ele>1906</ele>
        <time>2022-07-27T11:05:49Z</time>
      </trkpt>
      <trkpt lat="45.64906" lon="6.57065">
        <ele>1907</ele>
        <time>2022-07-27T11:05:50Z</time>
      </trkpt>
      <trkpt lat="45.64906" lon="6.57064">
        <ele>1907</ele>
        <time>2022-07-27T11:05:51Z</time>
      </trkpt>
      <trkpt lat="45.64905" lon="6.57064">
        <ele>1907</ele>
        <time>2022-07-27T11:05:52Z</time>
      </trkpt>
      <trkpt lat="45.64905" lon="6.57064">
        <ele>1907</ele>
        <time>2022-07-27T11:05:53Z</time>
      </trkpt>
      <trkpt lat="45.64904" lon="6.57064">
        <ele>1907</ele>
        <time>2022-07-27T11:05:54Z</time>
      </trkpt>
      <trkpt lat="45.64904" lon="6.57063">
        <ele>1907</ele>
        <time>2022-07-27T11:05:55Z</time>
      </trkpt>
      <trkpt lat="45.64903" lon="6.57063">
        <ele>1907</ele>
        <time>2022-07-27T11:05:56Z</time>
      </trkpt>
      <trkpt lat="45.64903" lon="6.57062">
        <ele>1907</ele>
        <time>2022-07-27T11:05:57Z</time>
      </trkpt>
      <trkpt lat="45.64902" lon="6.57061">
        <ele>1907</ele>
        <time>2022-07-27T11:05:58Z</time>
      </trkpt>
      <trkpt lat="45.64902" lon="6.5706">
        <ele>1907</ele>
        <time>2022-07-27T11:05:59Z</time>
      </trkpt>
      <trkpt lat="45.64902" lon="6.57059">
        <ele>1908</ele>
        <time>2022-07-27T11:06:00Z</time>
      </trkpt>
      <trkpt lat="45.64902" lon="6.57058">
        <ele>1908</ele>
        <time>2022-07-27T11:06:01Z</time>
      </trkpt>
      <trkpt lat="45.64901" lon="6.57058">
        <ele>1908</ele>
        <time>2022-07-27T11:06:02Z</time>
      </trkpt>
      <trkpt lat="45.64901" lon="6.57057">
        <ele>1908</ele>
        <time>2022-07-27T11:06:03Z</time>
      </trkpt>
      <trkpt lat="45.64901" lon="6.57056">
        <ele>1908</ele>
        <time>2022-07-27T11:06:04Z</time>
      </trkpt>
      <trkpt lat="45.64901" lon="6.57055">
        <ele>1908</ele>
        <time>2022-07-27T11:06:05Z</time>
      </trkpt>
      <trkpt lat="45.64901" lon="6.57054">
        <ele>1908</ele>
        <time>2022-07-27T11:06:06Z</time>
      </trkpt>
      <trkpt lat="45.64901" lon="6.57054">
        <ele>1908</ele>
        <time>2022-07-27T11:06:07Z</time>
      </trkpt>
      <trkpt lat="45.64901" lon="6.57052">
        <ele>1908</ele>
        <time>2022-07-27T11:06:08Z</time>
      </trkpt>
      <trkpt lat="45.64901" lon="6.57051">
        <ele>1908</ele>
        <time>2022-07-27T11:06:09Z</time>
      </trkpt>
      <trkpt lat="45.64901" lon="6.5705">
        <ele>1909</ele>
        <time>2022-07-27T11:06:10Z</time>
      </trkpt>
      <trkpt lat="45.64901" lon="6.5705">
        <ele>1909</ele>
        <time>2022-07-27T11:06:11Z</time>
      </trkpt>
      <trkpt lat="45.64901" lon="6.57049">
        <ele>1909</ele>
        <time>2022-07-27T11:06:12Z</time>
      </trkpt>
      <trkpt lat="45.64901" lon="6.57048">
        <ele>1909</ele>
        <time>2022-07-27T11:06:13Z</time>
      </trkpt>
      <trkpt lat="45.64901" lon="6.57048">
        <ele>1909</ele>
        <time>2022-07-27T11:06:14Z</time>
      </trkpt>
      <trkpt lat="45.64901" lon="6.57047">
        <ele>1909</ele>
        <time>2022-07-27T11:06:15Z</time>
      </trkpt>
      <trkpt lat="45.64901" lon="6.57046">
        <ele>1909</ele>
        <time>2022-07-27T11:06:16Z</time>
      </trkpt>
      <trkpt lat="45.64901" lon="6.57045">
        <ele>1909</ele>
        <time>2022-07-27T11:06:17Z</time>
      </trkpt>
      <trkpt lat="45.64901" lon="6.57044">
        <ele>1909</ele>
        <time>2022-07-27T11:06:18Z</time>
      </trkpt>
      <trkpt lat="45.64901" lon="6.57043">
        <ele>1909</ele>
        <time>2022-07-27T11:06:19Z</time>
      </trkpt>
      <trkpt lat="45.649" lon="6.57042">
        <ele>1910</ele>
        <time>2022-07-27T11:06:20Z</time>
      </trkpt>
      <trkpt lat="45.649" lon="6.57041">
        <ele>1910</ele>
        <time>2022-07-27T11:06:21Z</time>
      </trkpt>
      <trkpt lat="45.649" lon="6.5704">
        <ele>1910</ele>
        <time>2022-07-27T11:06:22Z</time>
      </trkpt>
      <trkpt lat="45.64899" lon="6.57039">
        <ele>1910</ele>
        <time>2022-07-27T11:06:23Z</time>
      </trkpt>
      <trkpt lat="45.64899" lon="6.57039">
        <ele>1910</ele>
        <time>2022-07-27T11:06:24Z</time>
      </trkpt>
      <trkpt lat="45.64898" lon="6.57038">
        <ele>1910</ele>
        <time>2022-07-27T11:06:25Z</time>
      </trkpt>
      <trkpt lat="45.64898" lon="6.57038">
        <ele>1910</ele>
        <time>2022-07-27T11:06:26Z</time>
      </trkpt>
      <trkpt lat="45.64897" lon="6.57037">
        <ele>1910</ele>
        <time>2022-07-27T11:06:27Z</time>
      </trkpt>
      <trkpt lat="45.64897" lon="6.57037">
        <ele>1910</ele>
        <time>2022-07-27T11:06:28Z</time>
      </trkpt>
      <trkpt lat="45.64897" lon="6.57036">
        <ele>1910</ele>
        <time>2022-07-27T11:06:29Z</time>
      </trkpt>
      <trkpt lat="45.64896" lon="6.57036">
        <ele>1911</ele>
        <time>2022-07-27T11:06:30Z</time>
      </trkpt>
      <trkpt lat="45.64895" lon="6.57035">
        <ele>1911</ele>
        <time>2022-07-27T11:06:31Z</time>
      </trkpt>
      <trkpt lat="45.64895" lon="6.57035">
        <ele>1911</ele>
        <time>2022-07-27T11:06:32Z</time>
      </trkpt>
      <trkpt lat="45.64894" lon="6.57034">
        <ele>1911</ele>
        <time>2022-07-27T11:06:33Z</time>
      </trkpt>
      <trkpt lat="45.64894" lon="6.57034">
        <ele>1911</ele>
        <time>2022-07-27T11:06:34Z</time>
      </trkpt>
      <trkpt lat="45.64893" lon="6.57034">
        <ele>1912</ele>
        <time>2022-07-27T11:06:35Z</time>
      </trkpt>
      <trkpt lat="45.64892" lon="6.57034">
        <ele>1912</ele>
        <time>2022-07-27T11:06:36Z</time>
      </trkpt>
      <trkpt lat="45.64891" lon="6.57034">
        <ele>1912</ele>
        <time>2022-07-27T11:06:37Z</time>
      </trkpt>
      <trkpt lat="45.6489" lon="6.57034">
        <ele>1912</ele>
        <time>2022-07-27T11:06:38Z</time>
      </trkpt>
      <trkpt lat="45.64889" lon="6.57034">
        <ele>1912</ele>
        <time>2022-07-27T11:06:39Z</time>
      </trkpt>
      <trkpt lat="45.64888" lon="6.57034">
        <ele>1913</ele>
        <time>2022-07-27T11:06:40Z</time>
      </trkpt>
      <trkpt lat="45.64887" lon="6.57034">
        <ele>1913</ele>
        <time>2022-07-27T11:06:41Z</time>
      </trkpt>
      <trkpt lat="45.64886" lon="6.57034">
        <ele>1913</ele>
        <time>2022-07-27T11:06:42Z</time>
      </trkpt>
      <trkpt lat="45.64886" lon="6.57034">
        <ele>1913</ele>
        <time>2022-07-27T11:06:43Z</time>
      </trkpt>
      <trkpt lat="45.64885" lon="6.57034">
        <ele>1913</ele>
        <time>2022-07-27T11:06:44Z</time>
      </trkpt>
      <trkpt lat="45.64884" lon="6.57034">
        <ele>1913</ele>
        <time>2022-07-27T11:06:45Z</time>
      </trkpt>
      <trkpt lat="45.64883" lon="6.57034">
        <ele>1913</ele>
        <time>2022-07-27T11:06:46Z</time>
      </trkpt>
      <trkpt lat="45.64882" lon="6.57034">
        <ele>1913</ele>
        <time>2022-07-27T11:06:47Z</time>
      </trkpt>
      <trkpt lat="45.64881" lon="6.57034">
        <ele>1913</ele>
        <time>2022-07-27T11:06:48Z</time>
      </trkpt>
      <trkpt lat="45.6488" lon="6.57033">
        <ele>1913</ele>
        <time>2022-07-27T11:06:49Z</time>
      </trkpt>
      <trkpt lat="45.64879" lon="6.57033">
        <ele>1913</ele>
        <time>2022-07-27T11:06:50Z</time>
      </trkpt>
      <trkpt lat="45.64879" lon="6.57033">
        <ele>1913</ele>
        <time>2022-07-27T11:06:51Z</time>
      </trkpt>
      <trkpt lat="45.64878" lon="6.57032">
        <ele>1913</ele>
        <time>2022-07-27T11:06:52Z</time>
      </trkpt>
      <trkpt lat="45.64877" lon="6.57032">
        <ele>1913</ele>
        <time>2022-07-27T11:06:53Z</time>
      </trkpt>
      <trkpt lat="45.64876" lon="6.57032">
        <ele>1913</ele>
        <time>2022-07-27T11:06:54Z</time>
      </trkpt>
      <trkpt lat="45.64875" lon="6.57032">
        <ele>1913</ele>
        <time>2022-07-27T11:06:55Z</time>
      </trkpt>
      <trkpt lat="45.64874" lon="6.57032">
        <ele>1913</ele>
        <time>2022-07-27T11:06:56Z</time>
      </trkpt>
      <trkpt lat="45.64873" lon="6.57032">
        <ele>1913</ele>
        <time>2022-07-27T11:06:57Z</time>
      </trkpt>
      <trkpt lat="45.64873" lon="6.57032">
        <ele>1913</ele>
        <time>2022-07-27T11:06:58Z</time>
      </trkpt>
      <trkpt lat="45.64872" lon="6.57031">
        <ele>1913</ele>
        <time>2022-07-27T11:06:59Z</time>
      </trkpt>
      <trkpt lat="45.64871" lon="6.57031">
        <ele>1914</ele>
        <time>2022-07-27T11:07:00Z</time>
      </trkpt>
      <trkpt lat="45.6487" lon="6.57031">
        <ele>1914</ele>
        <time>2022-07-27T11:07:01Z</time>
      </trkpt>
      <trkpt lat="45.64869" lon="6.5703">
        <ele>1914</ele>
        <time>2022-07-27T11:07:02Z</time>
      </trkpt>
      <trkpt lat="45.64869" lon="6.5703">
        <ele>1914</ele>
        <time>2022-07-27T11:07:03Z</time>
      </trkpt>
      <trkpt lat="45.64868" lon="6.5703">
        <ele>1914</ele>
        <time>2022-07-27T11:07:04Z</time>
      </trkpt>
      <trkpt lat="45.64867" lon="6.57029">
        <ele>1914</ele>
        <time>2022-07-27T11:07:05Z</time>
      </trkpt>
      <trkpt lat="45.64866" lon="6.57029">
        <ele>1914</ele>
        <time>2022-07-27T11:07:06Z</time>
      </trkpt>
      <trkpt lat="45.64866" lon="6.57029">
        <ele>1914</ele>
        <time>2022-07-27T11:07:07Z</time>
      </trkpt>
      <trkpt lat="45.64865" lon="6.57029">
        <ele>1914</ele>
        <time>2022-07-27T11:07:08Z</time>
      </trkpt>
      <trkpt lat="45.64864" lon="6.57029">
        <ele>1914</ele>
        <time>2022-07-27T11:07:09Z</time>
      </trkpt>
      <trkpt lat="45.64863" lon="6.57028">
        <ele>1914</ele>
        <time>2022-07-27T11:07:10Z</time>
      </trkpt>
      <trkpt lat="45.64862" lon="6.57028">
        <ele>1914</ele>
        <time>2022-07-27T11:07:11Z</time>
      </trkpt>
      <trkpt lat="45.64861" lon="6.57028">
        <ele>1914</ele>
        <time>2022-07-27T11:07:12Z</time>
      </trkpt>
      <trkpt lat="45.6486" lon="6.57027">
        <ele>1914</ele>
        <time>2022-07-27T11:07:13Z</time>
      </trkpt>
      <trkpt lat="45.64859" lon="6.57027">
        <ele>1914</ele>
        <time>2022-07-27T11:07:14Z</time>
      </trkpt>
      <trkpt lat="45.64858" lon="6.57027">
        <ele>1915</ele>
        <time>2022-07-27T11:07:15Z</time>
      </trkpt>
      <trkpt lat="45.64858" lon="6.57026">
        <ele>1915</ele>
        <time>2022-07-27T11:07:16Z</time>
      </trkpt>
      <trkpt lat="45.64857" lon="6.57026">
        <ele>1915</ele>
        <time>2022-07-27T11:07:17Z</time>
      </trkpt>
      <trkpt lat="45.64856" lon="6.57026">
        <ele>1915</ele>
        <time>2022-07-27T11:07:18Z</time>
      </trkpt>
      <trkpt lat="45.64855" lon="6.57026">
        <ele>1915</ele>
        <time>2022-07-27T11:07:19Z</time>
      </trkpt>
      <trkpt lat="45.64855" lon="6.57026">
        <ele>1915</ele>
        <time>2022-07-27T11:07:20Z</time>
      </trkpt>
      <trkpt lat="45.64854" lon="6.57026">
        <ele>1915</ele>
        <time>2022-07-27T11:07:21Z</time>
      </trkpt>
      <trkpt lat="45.64853" lon="6.57026">
        <ele>1915</ele>
        <time>2022-07-27T11:07:22Z</time>
      </trkpt>
      <trkpt lat="45.64852" lon="6.57026">
        <ele>1915</ele>
        <time>2022-07-27T11:07:23Z</time>
      </trkpt>
      <trkpt lat="45.64851" lon="6.57026">
        <ele>1915</ele>
        <time>2022-07-27T11:07:24Z</time>
      </trkpt>
      <trkpt lat="45.6485" lon="6.57026">
        <ele>1916</ele>
        <time>2022-07-27T11:07:25Z</time>
      </trkpt>
      <trkpt lat="45.64849" lon="6.57027">
        <ele>1916</ele>
        <time>2022-07-27T11:07:26Z</time>
      </trkpt>
      <trkpt lat="45.64848" lon="6.57027">
        <ele>1916</ele>
        <time>2022-07-27T11:07:27Z</time>
      </trkpt>
      <trkpt lat="45.64848" lon="6.57027">
        <ele>1916</ele>
        <time>2022-07-27T11:07:28Z</time>
      </trkpt>
      <trkpt lat="45.64847" lon="6.57027">
        <ele>1916</ele>
        <time>2022-07-27T11:07:29Z</time>
      </trkpt>
      <trkpt lat="45.64846" lon="6.57027">
        <ele>1917</ele>
        <time>2022-07-27T11:07:30Z</time>
      </trkpt>
      <trkpt lat="45.64845" lon="6.57027">
        <ele>1917</ele>
        <time>2022-07-27T11:07:31Z</time>
      </trkpt>
      <trkpt lat="45.64844" lon="6.57027">
        <ele>1917</ele>
        <time>2022-07-27T11:07:32Z</time>
      </trkpt>
      <trkpt lat="45.64843" lon="6.57027">
        <ele>1917</ele>
        <time>2022-07-27T11:07:33Z</time>
      </trkpt>
      <trkpt lat="45.64843" lon="6.57027">
        <ele>1917</ele>
        <time>2022-07-27T11:07:34Z</time>
      </trkpt>
      <trkpt lat="45.64842" lon="6.57026">
        <ele>1917</ele>
        <time>2022-07-27T11:07:35Z</time>
      </trkpt>
      <trkpt lat="45.64841" lon="6.57026">
        <ele>1917</ele>
        <time>2022-07-27T11:07:36Z</time>
      </trkpt>
      <trkpt lat="45.6484" lon="6.57026">
        <ele>1917</ele>
        <time>2022-07-27T11:07:37Z</time>
      </trkpt>
      <trkpt lat="45.6484" lon="6.57026">
        <ele>1917</ele>
        <time>2022-07-27T11:07:38Z</time>
      </trkpt>
      <trkpt lat="45.64839" lon="6.57025">
        <ele>1917</ele>
        <time>2022-07-27T11:07:39Z</time>
      </trkpt>
      <trkpt lat="45.64838" lon="6.57025">
        <ele>1918</ele>
        <time>2022-07-27T11:07:40Z</time>
      </trkpt>
      <trkpt lat="45.64837" lon="6.57024">
        <ele>1918</ele>
        <time>2022-07-27T11:07:41Z</time>
      </trkpt>
      <trkpt lat="45.64837" lon="6.57024">
        <ele>1918</ele>
        <time>2022-07-27T11:07:42Z</time>
      </trkpt>
      <trkpt lat="45.64836" lon="6.57023">
        <ele>1918</ele>
        <time>2022-07-27T11:07:43Z</time>
      </trkpt>
      <trkpt lat="45.64835" lon="6.57023">
        <ele>1918</ele>
        <time>2022-07-27T11:07:44Z</time>
      </trkpt>
      <trkpt lat="45.64835" lon="6.57022">
        <ele>1919</ele>
        <time>2022-07-27T11:07:45Z</time>
      </trkpt>
      <trkpt lat="45.64834" lon="6.57021">
        <ele>1919</ele>
        <time>2022-07-27T11:07:46Z</time>
      </trkpt>
      <trkpt lat="45.64833" lon="6.5702">
        <ele>1919</ele>
        <time>2022-07-27T11:07:47Z</time>
      </trkpt>
      <trkpt lat="45.64833" lon="6.57019">
        <ele>1919</ele>
        <time>2022-07-27T11:07:48Z</time>
      </trkpt>
      <trkpt lat="45.64833" lon="6.57018">
        <ele>1919</ele>
        <time>2022-07-27T11:07:49Z</time>
      </trkpt>
      <trkpt lat="45.64833" lon="6.57017">
        <ele>1919</ele>
        <time>2022-07-27T11:07:50Z</time>
      </trkpt>
      <trkpt lat="45.64833" lon="6.57016">
        <ele>1919</ele>
        <time>2022-07-27T11:07:51Z</time>
      </trkpt>
      <trkpt lat="45.64833" lon="6.57015">
        <ele>1919</ele>
        <time>2022-07-27T11:07:52Z</time>
      </trkpt>
      <trkpt lat="45.64833" lon="6.57015">
        <ele>1919</ele>
        <time>2022-07-27T11:07:53Z</time>
      </trkpt>
      <trkpt lat="45.64834" lon="6.57014">
        <ele>1919</ele>
        <time>2022-07-27T11:07:54Z</time>
      </trkpt>
      <trkpt lat="45.64834" lon="6.57013">
        <ele>1920</ele>
        <time>2022-07-27T11:07:55Z</time>
      </trkpt>
      <trkpt lat="45.64834" lon="6.57013">
        <ele>1920</ele>
        <time>2022-07-27T11:07:56Z</time>
      </trkpt>
      <trkpt lat="45.64835" lon="6.57012">
        <ele>1920</ele>
        <time>2022-07-27T11:07:57Z</time>
      </trkpt>
      <trkpt lat="45.64835" lon="6.57011">
        <ele>1920</ele>
        <time>2022-07-27T11:07:58Z</time>
      </trkpt>
      <trkpt lat="45.64835" lon="6.57009">
        <ele>1920</ele>
        <time>2022-07-27T11:07:59Z</time>
      </trkpt>
      <trkpt lat="45.64836" lon="6.57008">
        <ele>1921</ele>
        <time>2022-07-27T11:08:00Z</time>
      </trkpt>
      <trkpt lat="45.64836" lon="6.57007">
        <ele>1921</ele>
        <time>2022-07-27T11:08:01Z</time>
      </trkpt>
      <trkpt lat="45.64836" lon="6.57006">
        <ele>1921</ele>
        <time>2022-07-27T11:08:02Z</time>
      </trkpt>
      <trkpt lat="45.64837" lon="6.57005">
        <ele>1921</ele>
        <time>2022-07-27T11:08:03Z</time>
      </trkpt>
      <trkpt lat="45.64837" lon="6.57004">
        <ele>1921</ele>
        <time>2022-07-27T11:08:04Z</time>
      </trkpt>
      <trkpt lat="45.64837" lon="6.57003">
        <ele>1922</ele>
        <time>2022-07-27T11:08:05Z</time>
      </trkpt>
      <trkpt lat="45.64838" lon="6.57002">
        <ele>1922</ele>
        <time>2022-07-27T11:08:06Z</time>
      </trkpt>
      <trkpt lat="45.64838" lon="6.57001">
        <ele>1922</ele>
        <time>2022-07-27T11:08:07Z</time>
      </trkpt>
      <trkpt lat="45.64839" lon="6.57">
        <ele>1922</ele>
        <time>2022-07-27T11:08:08Z</time>
      </trkpt>
      <trkpt lat="45.64839" lon="6.57">
        <ele>1922</ele>
        <time>2022-07-27T11:08:09Z</time>
      </trkpt>
      <trkpt lat="45.6484" lon="6.56999">
        <ele>1923</ele>
        <time>2022-07-27T11:08:10Z</time>
      </trkpt>
      <trkpt lat="45.64841" lon="6.56998">
        <ele>1923</ele>
        <time>2022-07-27T11:08:11Z</time>
      </trkpt>
      <trkpt lat="45.64841" lon="6.56997">
        <ele>1923</ele>
        <time>2022-07-27T11:08:12Z</time>
      </trkpt>
      <trkpt lat="45.64842" lon="6.56997">
        <ele>1923</ele>
        <time>2022-07-27T11:08:13Z</time>
      </trkpt>
      <trkpt lat="45.64843" lon="6.56996">
        <ele>1923</ele>
        <time>2022-07-27T11:08:14Z</time>
      </trkpt>
      <trkpt lat="45.64844" lon="6.56996">
        <ele>1923</ele>
        <time>2022-07-27T11:08:15Z</time>
      </trkpt>
      <trkpt lat="45.64845" lon="6.56995">
        <ele>1923</ele>
        <time>2022-07-27T11:08:16Z</time>
      </trkpt>
      <trkpt lat="45.64845" lon="6.56995">
        <ele>1923</ele>
        <time>2022-07-27T11:08:17Z</time>
      </trkpt>
      <trkpt lat="45.64846" lon="6.56994">
        <ele>1923</ele>
        <time>2022-07-27T11:08:18Z</time>
      </trkpt>
      <trkpt lat="45.64846" lon="6.56993">
        <ele>1923</ele>
        <time>2022-07-27T11:08:19Z</time>
      </trkpt>
      <trkpt lat="45.64847" lon="6.56993">
        <ele>1924</ele>
        <time>2022-07-27T11:08:20Z</time>
      </trkpt>
      <trkpt lat="45.64848" lon="6.56992">
        <ele>1924</ele>
        <time>2022-07-27T11:08:21Z</time>
      </trkpt>
      <trkpt lat="45.64849" lon="6.56991">
        <ele>1924</ele>
        <time>2022-07-27T11:08:22Z</time>
      </trkpt>
      <trkpt lat="45.6485" lon="6.56991">
        <ele>1924</ele>
        <time>2022-07-27T11:08:23Z</time>
      </trkpt>
      <trkpt lat="45.6485" lon="6.56991">
        <ele>1924</ele>
        <time>2022-07-27T11:08:24Z</time>
      </trkpt>
      <trkpt lat="45.64851" lon="6.5699">
        <ele>1924</ele>
        <time>2022-07-27T11:08:25Z</time>
      </trkpt>
      <trkpt lat="45.64852" lon="6.5699">
        <ele>1924</ele>
        <time>2022-07-27T11:08:26Z</time>
      </trkpt>
      <trkpt lat="45.64853" lon="6.5699">
        <ele>1924</ele>
        <time>2022-07-27T11:08:27Z</time>
      </trkpt>
      <trkpt lat="45.64853" lon="6.5699">
        <ele>1924</ele>
        <time>2022-07-27T11:08:28Z</time>
      </trkpt>
      <trkpt lat="45.64854" lon="6.5699">
        <ele>1924</ele>
        <time>2022-07-27T11:08:29Z</time>
      </trkpt>
      <trkpt lat="45.64855" lon="6.5699">
        <ele>1924</ele>
        <time>2022-07-27T11:08:30Z</time>
      </trkpt>
      <trkpt lat="45.64856" lon="6.5699">
        <ele>1924</ele>
        <time>2022-07-27T11:08:31Z</time>
      </trkpt>
      <trkpt lat="45.64856" lon="6.56989">
        <ele>1924</ele>
        <time>2022-07-27T11:08:32Z</time>
      </trkpt>
      <trkpt lat="45.64857" lon="6.56989">
        <ele>1924</ele>
        <time>2022-07-27T11:08:33Z</time>
      </trkpt>
      <trkpt lat="45.64858" lon="6.56989">
        <ele>1924</ele>
        <time>2022-07-27T11:08:34Z</time>
      </trkpt>
      <trkpt lat="45.64859" lon="6.56988">
        <ele>1925</ele>
        <time>2022-07-27T11:08:35Z</time>
      </trkpt>
      <trkpt lat="45.64859" lon="6.56988">
        <ele>1925</ele>
        <time>2022-07-27T11:08:36Z</time>
      </trkpt>
      <trkpt lat="45.6486" lon="6.56988">
        <ele>1925</ele>
        <time>2022-07-27T11:08:37Z</time>
      </trkpt>
      <trkpt lat="45.64861" lon="6.56988">
        <ele>1925</ele>
        <time>2022-07-27T11:08:38Z</time>
      </trkpt>
      <trkpt lat="45.64862" lon="6.56987">
        <ele>1925</ele>
        <time>2022-07-27T11:08:39Z</time>
      </trkpt>
      <trkpt lat="45.64862" lon="6.56987">
        <ele>1925</ele>
        <time>2022-07-27T11:08:40Z</time>
      </trkpt>
      <trkpt lat="45.64863" lon="6.56987">
        <ele>1925</ele>
        <time>2022-07-27T11:08:41Z</time>
      </trkpt>
      <trkpt lat="45.64864" lon="6.56987">
        <ele>1925</ele>
        <time>2022-07-27T11:08:42Z</time>
      </trkpt>
      <trkpt lat="45.64865" lon="6.56986">
        <ele>1925</ele>
        <time>2022-07-27T11:08:43Z</time>
      </trkpt>
      <trkpt lat="45.64865" lon="6.56986">
        <ele>1925</ele>
        <time>2022-07-27T11:08:44Z</time>
      </trkpt>
      <trkpt lat="45.64866" lon="6.56986">
        <ele>1926</ele>
        <time>2022-07-27T11:08:45Z</time>
      </trkpt>
      <trkpt lat="45.64866" lon="6.56985">
        <ele>1926</ele>
        <time>2022-07-27T11:08:46Z</time>
      </trkpt>
      <trkpt lat="45.64866" lon="6.56985">
        <ele>1926</ele>
        <time>2022-07-27T11:08:47Z</time>
      </trkpt>
      <trkpt lat="45.64866" lon="6.56984">
        <ele>1926</ele>
        <time>2022-07-27T11:08:48Z</time>
      </trkpt>
      <trkpt lat="45.64866" lon="6.56984">
        <ele>1926</ele>
        <time>2022-07-27T11:08:49Z</time>
      </trkpt>
      <trkpt lat="45.64865" lon="6.56984">
        <ele>1926</ele>
        <time>2022-07-27T11:08:50Z</time>
      </trkpt>
      <trkpt lat="45.64864" lon="6.56983">
        <ele>1926</ele>
        <time>2022-07-27T11:08:51Z</time>
      </trkpt>
      <trkpt lat="45.64864" lon="6.56983">
        <ele>1926</ele>
        <time>2022-07-27T11:08:52Z</time>
      </trkpt>
      <trkpt lat="45.64863" lon="6.56983">
        <ele>1926</ele>
        <time>2022-07-27T11:08:53Z</time>
      </trkpt>
      <trkpt lat="45.64862" lon="6.56983">
        <ele>1926</ele>
        <time>2022-07-27T11:08:54Z</time>
      </trkpt>
      <trkpt lat="45.64861" lon="6.56983">
        <ele>1927</ele>
        <time>2022-07-27T11:08:55Z</time>
      </trkpt>
      <trkpt lat="45.6486" lon="6.56982">
        <ele>1927</ele>
        <time>2022-07-27T11:08:56Z</time>
      </trkpt>
      <trkpt lat="45.64859" lon="6.56982">
        <ele>1927</ele>
        <time>2022-07-27T11:08:57Z</time>
      </trkpt>
      <trkpt lat="45.64859" lon="6.56982">
        <ele>1927</ele>
        <time>2022-07-27T11:08:58Z</time>
      </trkpt>
      <trkpt lat="45.64858" lon="6.56981">
        <ele>1927</ele>
        <time>2022-07-27T11:08:59Z</time>
      </trkpt>
      <trkpt lat="45.64857" lon="6.56981">
        <ele>1927</ele>
        <time>2022-07-27T11:09:00Z</time>
      </trkpt>
      <trkpt lat="45.64857" lon="6.56981">
        <ele>1927</ele>
        <time>2022-07-27T11:09:01Z</time>
      </trkpt>
      <trkpt lat="45.64857" lon="6.5698">
        <ele>1927</ele>
        <time>2022-07-27T11:09:02Z</time>
      </trkpt>
      <trkpt lat="45.64856" lon="6.5698">
        <ele>1927</ele>
        <time>2022-07-27T11:09:03Z</time>
      </trkpt>
      <trkpt lat="45.64856" lon="6.56979">
        <ele>1927</ele>
        <time>2022-07-27T11:09:04Z</time>
      </trkpt>
      <trkpt lat="45.64854" lon="6.56977">
        <ele>1929</ele>
        <time>2022-07-27T11:09:14Z</time>
      </trkpt>
      <trkpt lat="45.64853" lon="6.56976">
        <ele>1930</ele>
        <time>2022-07-27T11:09:15Z</time>
      </trkpt>
      <trkpt lat="45.64852" lon="6.56974">
        <ele>1930</ele>
        <time>2022-07-27T11:09:16Z</time>
      </trkpt>
      <trkpt lat="45.64851" lon="6.56974">
        <ele>1930</ele>
        <time>2022-07-27T11:09:17Z</time>
      </trkpt>
      <trkpt lat="45.64851" lon="6.56973">
        <ele>1930</ele>
        <time>2022-07-27T11:09:18Z</time>
      </trkpt>
      <trkpt lat="45.6485" lon="6.56972">
        <ele>1930</ele>
        <time>2022-07-27T11:09:19Z</time>
      </trkpt>
      <trkpt lat="45.64849" lon="6.56971">
        <ele>1931</ele>
        <time>2022-07-27T11:09:20Z</time>
      </trkpt>
      <trkpt lat="45.64849" lon="6.5697">
        <ele>1931</ele>
        <time>2022-07-27T11:09:21Z</time>
      </trkpt>
      <trkpt lat="45.64849" lon="6.56969">
        <ele>1931</ele>
        <time>2022-07-27T11:09:22Z</time>
      </trkpt>
      <trkpt lat="45.64848" lon="6.56969">
        <ele>1931</ele>
        <time>2022-07-27T11:09:23Z</time>
      </trkpt>
      <trkpt lat="45.64848" lon="6.56969">
        <ele>1931</ele>
        <time>2022-07-27T11:09:24Z</time>
      </trkpt>
      <trkpt lat="45.64847" lon="6.56968">
        <ele>1932</ele>
        <time>2022-07-27T11:09:25Z</time>
      </trkpt>
      <trkpt lat="45.64847" lon="6.56967">
        <ele>1932</ele>
        <time>2022-07-27T11:09:26Z</time>
      </trkpt>
      <trkpt lat="45.64846" lon="6.56967">
        <ele>1932</ele>
        <time>2022-07-27T11:09:27Z</time>
      </trkpt>
      <trkpt lat="45.64845" lon="6.56966">
        <ele>1932</ele>
        <time>2022-07-27T11:09:28Z</time>
      </trkpt>
      <trkpt lat="45.64844" lon="6.56966">
        <ele>1932</ele>
        <time>2022-07-27T11:09:29Z</time>
      </trkpt>
      <trkpt lat="45.64844" lon="6.56965">
        <ele>1932</ele>
        <time>2022-07-27T11:09:30Z</time>
      </trkpt>
      <trkpt lat="45.64843" lon="6.56965">
        <ele>1932</ele>
        <time>2022-07-27T11:09:31Z</time>
      </trkpt>
      <trkpt lat="45.64842" lon="6.56964">
        <ele>1932</ele>
        <time>2022-07-27T11:09:32Z</time>
      </trkpt>
      <trkpt lat="45.64841" lon="6.56963">
        <ele>1932</ele>
        <time>2022-07-27T11:09:33Z</time>
      </trkpt>
      <trkpt lat="45.6484" lon="6.56963">
        <ele>1932</ele>
        <time>2022-07-27T11:09:34Z</time>
      </trkpt>
      <trkpt lat="45.6484" lon="6.56962">
        <ele>1933</ele>
        <time>2022-07-27T11:09:35Z</time>
      </trkpt>
      <trkpt lat="45.64839" lon="6.56962">
        <ele>1933</ele>
        <time>2022-07-27T11:09:36Z</time>
      </trkpt>
      <trkpt lat="45.64838" lon="6.56961">
        <ele>1933</ele>
        <time>2022-07-27T11:09:37Z</time>
      </trkpt>
      <trkpt lat="45.64837" lon="6.56961">
        <ele>1933</ele>
        <time>2022-07-27T11:09:38Z</time>
      </trkpt>
      <trkpt lat="45.64837" lon="6.5696">
        <ele>1933</ele>
        <time>2022-07-27T11:09:39Z</time>
      </trkpt>
      <trkpt lat="45.64836" lon="6.5696">
        <ele>1934</ele>
        <time>2022-07-27T11:09:40Z</time>
      </trkpt>
      <trkpt lat="45.64834" lon="6.56959">
        <ele>1934</ele>
        <time>2022-07-27T11:09:46Z</time>
      </trkpt>
      <trkpt lat="45.64834" lon="6.56959">
        <ele>1934</ele>
        <time>2022-07-27T11:09:47Z</time>
      </trkpt>
      <trkpt lat="45.64833" lon="6.56958">
        <ele>1934</ele>
        <time>2022-07-27T11:09:48Z</time>
      </trkpt>
      <trkpt lat="45.64832" lon="6.56958">
        <ele>1934</ele>
        <time>2022-07-27T11:09:49Z</time>
      </trkpt>
      <trkpt lat="45.64832" lon="6.56958">
        <ele>1934</ele>
        <time>2022-07-27T11:09:50Z</time>
      </trkpt>
      <trkpt lat="45.64831" lon="6.56957">
        <ele>1934</ele>
        <time>2022-07-27T11:09:51Z</time>
      </trkpt>
      <trkpt lat="45.6483" lon="6.56956">
        <ele>1934</ele>
        <time>2022-07-27T11:09:52Z</time>
      </trkpt>
      <trkpt lat="45.6483" lon="6.56955">
        <ele>1935</ele>
        <time>2022-07-27T11:10:19Z</time>
      </trkpt>
      <trkpt lat="45.6483" lon="6.56955">
        <ele>1935</ele>
        <time>2022-07-27T11:10:20Z</time>
      </trkpt>
      <trkpt lat="45.6483" lon="6.56954">
        <ele>1935</ele>
        <time>2022-07-27T11:10:21Z</time>
      </trkpt>
      <trkpt lat="45.6483" lon="6.56953">
        <ele>1935</ele>
        <time>2022-07-27T11:10:22Z</time>
      </trkpt>
      <trkpt lat="45.64829" lon="6.56953">
        <ele>1935</ele>
        <time>2022-07-27T11:10:23Z</time>
      </trkpt>
      <trkpt lat="45.64829" lon="6.56952">
        <ele>1935</ele>
        <time>2022-07-27T11:10:24Z</time>
      </trkpt>
      <trkpt lat="45.64829" lon="6.56952">
        <ele>1935</ele>
        <time>2022-07-27T11:10:25Z</time>
      </trkpt>
      <trkpt lat="45.64828" lon="6.56951">
        <ele>1935</ele>
        <time>2022-07-27T11:10:26Z</time>
      </trkpt>
      <trkpt lat="45.64828" lon="6.56951">
        <ele>1935</ele>
        <time>2022-07-27T11:10:27Z</time>
      </trkpt>
      <trkpt lat="45.64827" lon="6.5695">
        <ele>1935</ele>
        <time>2022-07-27T11:10:28Z</time>
      </trkpt>
      <trkpt lat="45.64826" lon="6.5695">
        <ele>1935</ele>
        <time>2022-07-27T11:10:29Z</time>
      </trkpt>
      <trkpt lat="45.64826" lon="6.56949">
        <ele>1935</ele>
        <time>2022-07-27T11:10:30Z</time>
      </trkpt>
      <trkpt lat="45.64825" lon="6.56948">
        <ele>1935</ele>
        <time>2022-07-27T11:10:31Z</time>
      </trkpt>
      <trkpt lat="45.64824" lon="6.56948">
        <ele>1935</ele>
        <time>2022-07-27T11:10:32Z</time>
      </trkpt>
      <trkpt lat="45.64823" lon="6.56947">
        <ele>1935</ele>
        <time>2022-07-27T11:10:33Z</time>
      </trkpt>
      <trkpt lat="45.64822" lon="6.56946">
        <ele>1935</ele>
        <time>2022-07-27T11:10:34Z</time>
      </trkpt>
      <trkpt lat="45.64821" lon="6.56945">
        <ele>1936</ele>
        <time>2022-07-27T11:10:35Z</time>
      </trkpt>
      <trkpt lat="45.6482" lon="6.56944">
        <ele>1936</ele>
        <time>2022-07-27T11:10:36Z</time>
      </trkpt>
      <trkpt lat="45.6482" lon="6.56942">
        <ele>1936</ele>
        <time>2022-07-27T11:10:37Z</time>
      </trkpt>
      <trkpt lat="45.64819" lon="6.56941">
        <ele>1936</ele>
        <time>2022-07-27T11:10:38Z</time>
      </trkpt>
      <trkpt lat="45.64819" lon="6.5694">
        <ele>1936</ele>
        <time>2022-07-27T11:10:39Z</time>
      </trkpt>
      <trkpt lat="45.64818" lon="6.56939">
        <ele>1936</ele>
        <time>2022-07-27T11:10:40Z</time>
      </trkpt>
      <trkpt lat="45.64818" lon="6.56937">
        <ele>1936</ele>
        <time>2022-07-27T11:10:41Z</time>
      </trkpt>
      <trkpt lat="45.64817" lon="6.56936">
        <ele>1936</ele>
        <time>2022-07-27T11:10:42Z</time>
      </trkpt>
      <trkpt lat="45.64817" lon="6.56935">
        <ele>1936</ele>
        <time>2022-07-27T11:10:43Z</time>
      </trkpt>
      <trkpt lat="45.64816" lon="6.56933">
        <ele>1936</ele>
        <time>2022-07-27T11:10:44Z</time>
      </trkpt>
      <trkpt lat="45.64816" lon="6.56932">
        <ele>1936</ele>
        <time>2022-07-27T11:10:45Z</time>
      </trkpt>
      <trkpt lat="45.64815" lon="6.56931">
        <ele>1936</ele>
        <time>2022-07-27T11:10:46Z</time>
      </trkpt>
      <trkpt lat="45.64815" lon="6.5693">
        <ele>1936</ele>
        <time>2022-07-27T11:10:47Z</time>
      </trkpt>
      <trkpt lat="45.64814" lon="6.56929">
        <ele>1936</ele>
        <time>2022-07-27T11:10:48Z</time>
      </trkpt>
      <trkpt lat="45.64814" lon="6.56927">
        <ele>1936</ele>
        <time>2022-07-27T11:10:49Z</time>
      </trkpt>
      <trkpt lat="45.64813" lon="6.56926">
        <ele>1937</ele>
        <time>2022-07-27T11:10:50Z</time>
      </trkpt>
      <trkpt lat="45.64813" lon="6.56925">
        <ele>1937</ele>
        <time>2022-07-27T11:10:51Z</time>
      </trkpt>
      <trkpt lat="45.64813" lon="6.56924">
        <ele>1937</ele>
        <time>2022-07-27T11:10:52Z</time>
      </trkpt>
      <trkpt lat="45.64812" lon="6.56923">
        <ele>1937</ele>
        <time>2022-07-27T11:10:53Z</time>
      </trkpt>
      <trkpt lat="45.64812" lon="6.56921">
        <ele>1937</ele>
        <time>2022-07-27T11:10:54Z</time>
      </trkpt>
      <trkpt lat="45.64811" lon="6.5692">
        <ele>1937</ele>
        <time>2022-07-27T11:10:55Z</time>
      </trkpt>
      <trkpt lat="45.64811" lon="6.56919">
        <ele>1937</ele>
        <time>2022-07-27T11:10:56Z</time>
      </trkpt>
      <trkpt lat="45.6481" lon="6.56918">
        <ele>1937</ele>
        <time>2022-07-27T11:10:57Z</time>
      </trkpt>
      <trkpt lat="45.6481" lon="6.56916">
        <ele>1937</ele>
        <time>2022-07-27T11:10:58Z</time>
      </trkpt>
      <trkpt lat="45.64809" lon="6.56915">
        <ele>1937</ele>
        <time>2022-07-27T11:10:59Z</time>
      </trkpt>
      <trkpt lat="45.64809" lon="6.56914">
        <ele>1937</ele>
        <time>2022-07-27T11:11:00Z</time>
      </trkpt>
      <trkpt lat="45.64808" lon="6.56912">
        <ele>1937</ele>
        <time>2022-07-27T11:11:01Z</time>
      </trkpt>
      <trkpt lat="45.64808" lon="6.56911">
        <ele>1937</ele>
        <time>2022-07-27T11:11:02Z</time>
      </trkpt>
      <trkpt lat="45.64807" lon="6.56909">
        <ele>1937</ele>
        <time>2022-07-27T11:11:03Z</time>
      </trkpt>
      <trkpt lat="45.64806" lon="6.56908">
        <ele>1937</ele>
        <time>2022-07-27T11:11:04Z</time>
      </trkpt>
      <trkpt lat="45.64806" lon="6.56906">
        <ele>1937</ele>
        <time>2022-07-27T11:11:05Z</time>
      </trkpt>
      <trkpt lat="45.64805" lon="6.56905">
        <ele>1937</ele>
        <time>2022-07-27T11:11:06Z</time>
      </trkpt>
      <trkpt lat="45.64805" lon="6.56904">
        <ele>1937</ele>
        <time>2022-07-27T11:11:07Z</time>
      </trkpt>
      <trkpt lat="45.64804" lon="6.56902">
        <ele>1937</ele>
        <time>2022-07-27T11:11:08Z</time>
      </trkpt>
      <trkpt lat="45.64804" lon="6.56901">
        <ele>1937</ele>
        <time>2022-07-27T11:11:09Z</time>
      </trkpt>
      <trkpt lat="45.64803" lon="6.56899">
        <ele>1938</ele>
        <time>2022-07-27T11:11:10Z</time>
      </trkpt>
      <trkpt lat="45.64803" lon="6.56898">
        <ele>1938</ele>
        <time>2022-07-27T11:11:11Z</time>
      </trkpt>
      <trkpt lat="45.64802" lon="6.56897">
        <ele>1938</ele>
        <time>2022-07-27T11:11:12Z</time>
      </trkpt>
      <trkpt lat="45.64802" lon="6.56896">
        <ele>1938</ele>
        <time>2022-07-27T11:11:13Z</time>
      </trkpt>
      <trkpt lat="45.64801" lon="6.56894">
        <ele>1938</ele>
        <time>2022-07-27T11:11:14Z</time>
      </trkpt>
      <trkpt lat="45.648" lon="6.56892">
        <ele>1938</ele>
        <time>2022-07-27T11:11:35Z</time>
      </trkpt>
      <trkpt lat="45.64799" lon="6.56891">
        <ele>1938</ele>
        <time>2022-07-27T11:11:36Z</time>
      </trkpt>
      <trkpt lat="45.64799" lon="6.5689">
        <ele>1938</ele>
        <time>2022-07-27T11:11:37Z</time>
      </trkpt>
      <trkpt lat="45.64799" lon="6.56889">
        <ele>1938</ele>
        <time>2022-07-27T11:11:38Z</time>
      </trkpt>
      <trkpt lat="45.64798" lon="6.56888">
        <ele>1938</ele>
        <time>2022-07-27T11:11:39Z</time>
      </trkpt>
      <trkpt lat="45.64797" lon="6.56886">
        <ele>1938</ele>
        <time>2022-07-27T11:11:40Z</time>
      </trkpt>
      <trkpt lat="45.64797" lon="6.56885">
        <ele>1938</ele>
        <time>2022-07-27T11:11:41Z</time>
      </trkpt>
      <trkpt lat="45.64796" lon="6.56884">
        <ele>1938</ele>
        <time>2022-07-27T11:11:42Z</time>
      </trkpt>
      <trkpt lat="45.64796" lon="6.56882">
        <ele>1938</ele>
        <time>2022-07-27T11:11:43Z</time>
      </trkpt>
      <trkpt lat="45.64795" lon="6.56881">
        <ele>1938</ele>
        <time>2022-07-27T11:11:44Z</time>
      </trkpt>
      <trkpt lat="45.64795" lon="6.5688">
        <ele>1938</ele>
        <time>2022-07-27T11:11:45Z</time>
      </trkpt>
      <trkpt lat="45.64794" lon="6.56878">
        <ele>1938</ele>
        <time>2022-07-27T11:11:46Z</time>
      </trkpt>
      <trkpt lat="45.64794" lon="6.56877">
        <ele>1938</ele>
        <time>2022-07-27T11:11:47Z</time>
      </trkpt>
      <trkpt lat="45.64794" lon="6.56875">
        <ele>1938</ele>
        <time>2022-07-27T11:11:48Z</time>
      </trkpt>
      <trkpt lat="45.64793" lon="6.56874">
        <ele>1938</ele>
        <time>2022-07-27T11:11:49Z</time>
      </trkpt>
      <trkpt lat="45.64793" lon="6.56872">
        <ele>1938</ele>
        <time>2022-07-27T11:11:50Z</time>
      </trkpt>
      <trkpt lat="45.64793" lon="6.56871">
        <ele>1938</ele>
        <time>2022-07-27T11:11:51Z</time>
      </trkpt>
      <trkpt lat="45.64793" lon="6.56869">
        <ele>1938</ele>
        <time>2022-07-27T11:11:52Z</time>
      </trkpt>
      <trkpt lat="45.64793" lon="6.56868">
        <ele>1938</ele>
        <time>2022-07-27T11:11:53Z</time>
      </trkpt>
      <trkpt lat="45.64793" lon="6.56867">
        <ele>1938</ele>
        <time>2022-07-27T11:11:54Z</time>
      </trkpt>
      <trkpt lat="45.64793" lon="6.56865">
        <ele>1938</ele>
        <time>2022-07-27T11:11:55Z</time>
      </trkpt>
      <trkpt lat="45.64793" lon="6.56864">
        <ele>1938</ele>
        <time>2022-07-27T11:11:56Z</time>
      </trkpt>
      <trkpt lat="45.64793" lon="6.56863">
        <ele>1938</ele>
        <time>2022-07-27T11:11:57Z</time>
      </trkpt>
      <trkpt lat="45.64793" lon="6.56862">
        <ele>1938</ele>
        <time>2022-07-27T11:11:58Z</time>
      </trkpt>
      <trkpt lat="45.64792" lon="6.5686">
        <ele>1938</ele>
        <time>2022-07-27T11:11:59Z</time>
      </trkpt>
      <trkpt lat="45.64792" lon="6.56859">
        <ele>1939</ele>
        <time>2022-07-27T11:12:00Z</time>
      </trkpt>
      <trkpt lat="45.64792" lon="6.56859">
        <ele>1939</ele>
        <time>2022-07-27T11:12:01Z</time>
      </trkpt>
      <trkpt lat="45.64792" lon="6.56858">
        <ele>1939</ele>
        <time>2022-07-27T11:12:02Z</time>
      </trkpt>
      <trkpt lat="45.64792" lon="6.56858">
        <ele>1939</ele>
        <time>2022-07-27T11:12:03Z</time>
      </trkpt>
      <trkpt lat="45.64791" lon="6.56858">
        <ele>1939</ele>
        <time>2022-07-27T11:12:04Z</time>
      </trkpt>
      <trkpt lat="45.64791" lon="6.56857">
        <ele>1939</ele>
        <time>2022-07-27T11:12:05Z</time>
      </trkpt>
      <trkpt lat="45.64791" lon="6.56856">
        <ele>1939</ele>
        <time>2022-07-27T11:12:06Z</time>
      </trkpt>
      <trkpt lat="45.6479" lon="6.56856">
        <ele>1939</ele>
        <time>2022-07-27T11:12:07Z</time>
      </trkpt>
      <trkpt lat="45.6479" lon="6.56855">
        <ele>1939</ele>
        <time>2022-07-27T11:12:08Z</time>
      </trkpt>
      <trkpt lat="45.64789" lon="6.56854">
        <ele>1939</ele>
        <time>2022-07-27T11:12:09Z</time>
      </trkpt>
      <trkpt lat="45.64789" lon="6.56853">
        <ele>1940</ele>
        <time>2022-07-27T11:12:10Z</time>
      </trkpt>
      <trkpt lat="45.64788" lon="6.56852">
        <ele>1940</ele>
        <time>2022-07-27T11:12:11Z</time>
      </trkpt>
      <trkpt lat="45.64788" lon="6.56851">
        <ele>1940</ele>
        <time>2022-07-27T11:12:12Z</time>
      </trkpt>
      <trkpt lat="45.64787" lon="6.56851">
        <ele>1940</ele>
        <time>2022-07-27T11:12:13Z</time>
      </trkpt>
      <trkpt lat="45.64787" lon="6.5685">
        <ele>1940</ele>
        <time>2022-07-27T11:12:14Z</time>
      </trkpt>
      <trkpt lat="45.64787" lon="6.56849">
        <ele>1940</ele>
        <time>2022-07-27T11:12:15Z</time>
      </trkpt>
      <trkpt lat="45.64786" lon="6.56848">
        <ele>1940</ele>
        <time>2022-07-27T11:12:16Z</time>
      </trkpt>
      <trkpt lat="45.64785" lon="6.56847">
        <ele>1940</ele>
        <time>2022-07-27T11:12:17Z</time>
      </trkpt>
      <trkpt lat="45.64785" lon="6.56847">
        <ele>1940</ele>
        <time>2022-07-27T11:12:18Z</time>
      </trkpt>
      <trkpt lat="45.64784" lon="6.56846">
        <ele>1940</ele>
        <time>2022-07-27T11:12:19Z</time>
      </trkpt>
      <trkpt lat="45.64783" lon="6.56845">
        <ele>1941</ele>
        <time>2022-07-27T11:12:20Z</time>
      </trkpt>
      <trkpt lat="45.64783" lon="6.56844">
        <ele>1941</ele>
        <time>2022-07-27T11:12:21Z</time>
      </trkpt>
      <trkpt lat="45.64782" lon="6.56844">
        <ele>1941</ele>
        <time>2022-07-27T11:12:22Z</time>
      </trkpt>
      <trkpt lat="45.64782" lon="6.56843">
        <ele>1941</ele>
        <time>2022-07-27T11:12:23Z</time>
      </trkpt>
      <trkpt lat="45.64781" lon="6.56842">
        <ele>1941</ele>
        <time>2022-07-27T11:12:24Z</time>
      </trkpt>
      <trkpt lat="45.6478" lon="6.56841">
        <ele>1941</ele>
        <time>2022-07-27T11:12:25Z</time>
      </trkpt>
      <trkpt lat="45.6478" lon="6.56841">
        <ele>1941</ele>
        <time>2022-07-27T11:12:26Z</time>
      </trkpt>
      <trkpt lat="45.64779" lon="6.5684">
        <ele>1941</ele>
        <time>2022-07-27T11:12:27Z</time>
      </trkpt>
      <trkpt lat="45.64779" lon="6.56839">
        <ele>1941</ele>
        <time>2022-07-27T11:12:28Z</time>
      </trkpt>
      <trkpt lat="45.64778" lon="6.56838">
        <ele>1941</ele>
        <time>2022-07-27T11:12:29Z</time>
      </trkpt>
      <trkpt lat="45.64777" lon="6.56838">
        <ele>1941</ele>
        <time>2022-07-27T11:12:30Z</time>
      </trkpt>
      <trkpt lat="45.64777" lon="6.56837">
        <ele>1941</ele>
        <time>2022-07-27T11:12:31Z</time>
      </trkpt>
      <trkpt lat="45.64776" lon="6.56837">
        <ele>1941</ele>
        <time>2022-07-27T11:12:32Z</time>
      </trkpt>
      <trkpt lat="45.64775" lon="6.56836">
        <ele>1941</ele>
        <time>2022-07-27T11:12:33Z</time>
      </trkpt>
      <trkpt lat="45.64774" lon="6.56835">
        <ele>1941</ele>
        <time>2022-07-27T11:12:34Z</time>
      </trkpt>
      <trkpt lat="45.64774" lon="6.56835">
        <ele>1942</ele>
        <time>2022-07-27T11:12:35Z</time>
      </trkpt>
      <trkpt lat="45.64773" lon="6.56834">
        <ele>1942</ele>
        <time>2022-07-27T11:12:36Z</time>
      </trkpt>
      <trkpt lat="45.64772" lon="6.56833">
        <ele>1942</ele>
        <time>2022-07-27T11:12:37Z</time>
      </trkpt>
      <trkpt lat="45.64771" lon="6.56833">
        <ele>1942</ele>
        <time>2022-07-27T11:12:38Z</time>
      </trkpt>
      <trkpt lat="45.64771" lon="6.56832">
        <ele>1942</ele>
        <time>2022-07-27T11:12:39Z</time>
      </trkpt>
      <trkpt lat="45.6477" lon="6.56832">
        <ele>1942</ele>
        <time>2022-07-27T11:12:40Z</time>
      </trkpt>
      <trkpt lat="45.64769" lon="6.56831">
        <ele>1942</ele>
        <time>2022-07-27T11:12:41Z</time>
      </trkpt>
      <trkpt lat="45.64769" lon="6.5683">
        <ele>1942</ele>
        <time>2022-07-27T11:12:42Z</time>
      </trkpt>
      <trkpt lat="45.64768" lon="6.5683">
        <ele>1942</ele>
        <time>2022-07-27T11:12:43Z</time>
      </trkpt>
      <trkpt lat="45.64767" lon="6.56829">
        <ele>1942</ele>
        <time>2022-07-27T11:12:44Z</time>
      </trkpt>
      <trkpt lat="45.64766" lon="6.56828">
        <ele>1943</ele>
        <time>2022-07-27T11:12:45Z</time>
      </trkpt>
      <trkpt lat="45.64766" lon="6.56828">
        <ele>1943</ele>
        <time>2022-07-27T11:12:46Z</time>
      </trkpt>
      <trkpt lat="45.64765" lon="6.56827">
        <ele>1943</ele>
        <time>2022-07-27T11:12:47Z</time>
      </trkpt>
      <trkpt lat="45.64764" lon="6.56826">
        <ele>1943</ele>
        <time>2022-07-27T11:12:48Z</time>
      </trkpt>
      <trkpt lat="45.64764" lon="6.56826">
        <ele>1943</ele>
        <time>2022-07-27T11:12:49Z</time>
      </trkpt>
      <trkpt lat="45.64763" lon="6.56825">
        <ele>1943</ele>
        <time>2022-07-27T11:12:50Z</time>
      </trkpt>
      <trkpt lat="45.64763" lon="6.56824">
        <ele>1943</ele>
        <time>2022-07-27T11:12:51Z</time>
      </trkpt>
      <trkpt lat="45.64762" lon="6.56823">
        <ele>1943</ele>
        <time>2022-07-27T11:12:52Z</time>
      </trkpt>
      <trkpt lat="45.64762" lon="6.56822">
        <ele>1943</ele>
        <time>2022-07-27T11:12:53Z</time>
      </trkpt>
      <trkpt lat="45.64761" lon="6.56822">
        <ele>1943</ele>
        <time>2022-07-27T11:12:54Z</time>
      </trkpt>
      <trkpt lat="45.6476" lon="6.56821">
        <ele>1943</ele>
        <time>2022-07-27T11:12:55Z</time>
      </trkpt>
      <trkpt lat="45.6476" lon="6.5682">
        <ele>1943</ele>
        <time>2022-07-27T11:12:56Z</time>
      </trkpt>
      <trkpt lat="45.6476" lon="6.56819">
        <ele>1943</ele>
        <time>2022-07-27T11:12:57Z</time>
      </trkpt>
      <trkpt lat="45.64759" lon="6.56818">
        <ele>1943</ele>
        <time>2022-07-27T11:12:58Z</time>
      </trkpt>
      <trkpt lat="45.64759" lon="6.56817">
        <ele>1943</ele>
        <time>2022-07-27T11:12:59Z</time>
      </trkpt>
      <trkpt lat="45.64759" lon="6.56816">
        <ele>1944</ele>
        <time>2022-07-27T11:13:00Z</time>
      </trkpt>
      <trkpt lat="45.64759" lon="6.56814">
        <ele>1944</ele>
        <time>2022-07-27T11:13:01Z</time>
      </trkpt>
      <trkpt lat="45.64759" lon="6.56813">
        <ele>1944</ele>
        <time>2022-07-27T11:13:02Z</time>
      </trkpt>
      <trkpt lat="45.64759" lon="6.56812">
        <ele>1944</ele>
        <time>2022-07-27T11:13:03Z</time>
      </trkpt>
      <trkpt lat="45.64759" lon="6.56811">
        <ele>1944</ele>
        <time>2022-07-27T11:13:04Z</time>
      </trkpt>
      <trkpt lat="45.64759" lon="6.5681">
        <ele>1944</ele>
        <time>2022-07-27T11:13:05Z</time>
      </trkpt>
      <trkpt lat="45.64759" lon="6.56809">
        <ele>1944</ele>
        <time>2022-07-27T11:13:06Z</time>
      </trkpt>
      <trkpt lat="45.64759" lon="6.56809">
        <ele>1944</ele>
        <time>2022-07-27T11:13:07Z</time>
      </trkpt>
      <trkpt lat="45.64759" lon="6.56808">
        <ele>1944</ele>
        <time>2022-07-27T11:13:08Z</time>
      </trkpt>
      <trkpt lat="45.64759" lon="6.56807">
        <ele>1944</ele>
        <time>2022-07-27T11:13:09Z</time>
      </trkpt>
      <trkpt lat="45.64759" lon="6.56806">
        <ele>1944</ele>
        <time>2022-07-27T11:13:10Z</time>
      </trkpt>
      <trkpt lat="45.64759" lon="6.56805">
        <ele>1944</ele>
        <time>2022-07-27T11:13:11Z</time>
      </trkpt>
      <trkpt lat="45.6476" lon="6.56804">
        <ele>1944</ele>
        <time>2022-07-27T11:13:12Z</time>
      </trkpt>
      <trkpt lat="45.6476" lon="6.56803">
        <ele>1944</ele>
        <time>2022-07-27T11:13:13Z</time>
      </trkpt>
      <trkpt lat="45.6476" lon="6.56802">
        <ele>1944</ele>
        <time>2022-07-27T11:13:14Z</time>
      </trkpt>
      <trkpt lat="45.6476" lon="6.56801">
        <ele>1945</ele>
        <time>2022-07-27T11:13:15Z</time>
      </trkpt>
      <trkpt lat="45.6476" lon="6.568">
        <ele>1945</ele>
        <time>2022-07-27T11:13:16Z</time>
      </trkpt>
      <trkpt lat="45.6476" lon="6.568">
        <ele>1945</ele>
        <time>2022-07-27T11:13:17Z</time>
      </trkpt>
      <trkpt lat="45.6476" lon="6.568">
        <ele>1945</ele>
        <time>2022-07-27T11:13:18Z</time>
      </trkpt>
      <trkpt lat="45.6476" lon="6.56799">
        <ele>1945</ele>
        <time>2022-07-27T11:13:19Z</time>
      </trkpt>
      <trkpt lat="45.6476" lon="6.56799">
        <ele>1946</ele>
        <time>2022-07-27T11:13:20Z</time>
      </trkpt>
      <trkpt lat="45.6476" lon="6.56798">
        <ele>1946</ele>
        <time>2022-07-27T11:13:21Z</time>
      </trkpt>
      <trkpt lat="45.6476" lon="6.56798">
        <ele>1946</ele>
        <time>2022-07-27T11:13:22Z</time>
      </trkpt>
      <trkpt lat="45.6476" lon="6.56797">
        <ele>1946</ele>
        <time>2022-07-27T11:13:23Z</time>
      </trkpt>
      <trkpt lat="45.6476" lon="6.56796">
        <ele>1946</ele>
        <time>2022-07-27T11:13:24Z</time>
      </trkpt>
      <trkpt lat="45.64759" lon="6.56794">
        <ele>1948</ele>
        <time>2022-07-27T11:13:55Z</time>
      </trkpt>
      <trkpt lat="45.64759" lon="6.56793">
        <ele>1948</ele>
        <time>2022-07-27T11:13:56Z</time>
      </trkpt>
      <trkpt lat="45.64759" lon="6.56792">
        <ele>1948</ele>
        <time>2022-07-27T11:13:57Z</time>
      </trkpt>
      <trkpt lat="45.6476" lon="6.56791">
        <ele>1948</ele>
        <time>2022-07-27T11:13:58Z</time>
      </trkpt>
      <trkpt lat="45.6476" lon="6.5679">
        <ele>1948</ele>
        <time>2022-07-27T11:13:59Z</time>
      </trkpt>
      <trkpt lat="45.6476" lon="6.56788">
        <ele>1948</ele>
        <time>2022-07-27T11:14:00Z</time>
      </trkpt>
      <trkpt lat="45.6476" lon="6.56787">
        <ele>1948</ele>
        <time>2022-07-27T11:14:01Z</time>
      </trkpt>
      <trkpt lat="45.6476" lon="6.56786">
        <ele>1948</ele>
        <time>2022-07-27T11:14:02Z</time>
      </trkpt>
      <trkpt lat="45.64759" lon="6.56784">
        <ele>1948</ele>
        <time>2022-07-27T11:14:03Z</time>
      </trkpt>
      <trkpt lat="45.64759" lon="6.56783">
        <ele>1948</ele>
        <time>2022-07-27T11:14:04Z</time>
      </trkpt>
      <trkpt lat="45.64759" lon="6.56782">
        <ele>1949</ele>
        <time>2022-07-27T11:14:05Z</time>
      </trkpt>
      <trkpt lat="45.64758" lon="6.5678">
        <ele>1949</ele>
        <time>2022-07-27T11:14:06Z</time>
      </trkpt>
      <trkpt lat="45.64758" lon="6.56779">
        <ele>1949</ele>
        <time>2022-07-27T11:14:07Z</time>
      </trkpt>
      <trkpt lat="45.64758" lon="6.56778">
        <ele>1949</ele>
        <time>2022-07-27T11:14:08Z</time>
      </trkpt>
      <trkpt lat="45.64757" lon="6.56777">
        <ele>1949</ele>
        <time>2022-07-27T11:14:09Z</time>
      </trkpt>
      <trkpt lat="45.64757" lon="6.56776">
        <ele>1949</ele>
        <time>2022-07-27T11:14:10Z</time>
      </trkpt>
      <trkpt lat="45.64756" lon="6.56775">
        <ele>1949</ele>
        <time>2022-07-27T11:14:11Z</time>
      </trkpt>
      <trkpt lat="45.64756" lon="6.56773">
        <ele>1949</ele>
        <time>2022-07-27T11:14:12Z</time>
      </trkpt>
      <trkpt lat="45.64756" lon="6.56772">
        <ele>1949</ele>
        <time>2022-07-27T11:14:13Z</time>
      </trkpt>
      <trkpt lat="45.64755" lon="6.56771">
        <ele>1949</ele>
        <time>2022-07-27T11:14:14Z</time>
      </trkpt>
      <trkpt lat="45.64755" lon="6.5677">
        <ele>1950</ele>
        <time>2022-07-27T11:14:15Z</time>
      </trkpt>
      <trkpt lat="45.64755" lon="6.56769">
        <ele>1950</ele>
        <time>2022-07-27T11:14:16Z</time>
      </trkpt>
      <trkpt lat="45.64754" lon="6.56768">
        <ele>1950</ele>
        <time>2022-07-27T11:14:17Z</time>
      </trkpt>
      <trkpt lat="45.64754" lon="6.56767">
        <ele>1950</ele>
        <time>2022-07-27T11:14:18Z</time>
      </trkpt>
      <trkpt lat="45.64753" lon="6.56766">
        <ele>1950</ele>
        <time>2022-07-27T11:14:19Z</time>
      </trkpt>
      <trkpt lat="45.64753" lon="6.56765">
        <ele>1951</ele>
        <time>2022-07-27T11:14:20Z</time>
      </trkpt>
      <trkpt lat="45.64752" lon="6.56764">
        <ele>1951</ele>
        <time>2022-07-27T11:14:21Z</time>
      </trkpt>
      <trkpt lat="45.64752" lon="6.56763">
        <ele>1951</ele>
        <time>2022-07-27T11:14:22Z</time>
      </trkpt>
      <trkpt lat="45.64751" lon="6.56763">
        <ele>1951</ele>
        <time>2022-07-27T11:14:23Z</time>
      </trkpt>
      <trkpt lat="45.64751" lon="6.56762">
        <ele>1951</ele>
        <time>2022-07-27T11:14:24Z</time>
      </trkpt>
      <trkpt lat="45.6475" lon="6.56761">
        <ele>1952</ele>
        <time>2022-07-27T11:14:25Z</time>
      </trkpt>
      <trkpt lat="45.64749" lon="6.5676">
        <ele>1952</ele>
        <time>2022-07-27T11:14:26Z</time>
      </trkpt>
      <trkpt lat="45.64749" lon="6.56759">
        <ele>1952</ele>
        <time>2022-07-27T11:14:27Z</time>
      </trkpt>
      <trkpt lat="45.64748" lon="6.56758">
        <ele>1952</ele>
        <time>2022-07-27T11:14:28Z</time>
      </trkpt>
      <trkpt lat="45.64748" lon="6.56758">
        <ele>1952</ele>
        <time>2022-07-27T11:14:29Z</time>
      </trkpt>
      <trkpt lat="45.64747" lon="6.56757">
        <ele>1953</ele>
        <time>2022-07-27T11:14:30Z</time>
      </trkpt>
      <trkpt lat="45.64746" lon="6.56756">
        <ele>1953</ele>
        <time>2022-07-27T11:14:31Z</time>
      </trkpt>
      <trkpt lat="45.64746" lon="6.56755">
        <ele>1953</ele>
        <time>2022-07-27T11:14:32Z</time>
      </trkpt>
      <trkpt lat="45.64745" lon="6.56754">
        <ele>1953</ele>
        <time>2022-07-27T11:14:33Z</time>
      </trkpt>
      <trkpt lat="45.64745" lon="6.56753">
        <ele>1953</ele>
        <time>2022-07-27T11:14:34Z</time>
      </trkpt>
      <trkpt lat="45.64745" lon="6.56752">
        <ele>1953</ele>
        <time>2022-07-27T11:14:35Z</time>
      </trkpt>
      <trkpt lat="45.64744" lon="6.5675">
        <ele>1956</ele>
        <time>2022-07-27T11:15:00Z</time>
      </trkpt>
      <trkpt lat="45.64744" lon="6.5675">
        <ele>1956</ele>
        <time>2022-07-27T11:15:01Z</time>
      </trkpt>
      <trkpt lat="45.64744" lon="6.56749">
        <ele>1956</ele>
        <time>2022-07-27T11:15:02Z</time>
      </trkpt>
      <trkpt lat="45.64744" lon="6.56748">
        <ele>1956</ele>
        <time>2022-07-27T11:15:03Z</time>
      </trkpt>
      <trkpt lat="45.64743" lon="6.56748">
        <ele>1956</ele>
        <time>2022-07-27T11:15:04Z</time>
      </trkpt>
      <trkpt lat="45.64743" lon="6.56747">
        <ele>1956</ele>
        <time>2022-07-27T11:15:05Z</time>
      </trkpt>
      <trkpt lat="45.64743" lon="6.56746">
        <ele>1956</ele>
        <time>2022-07-27T11:15:06Z</time>
      </trkpt>
      <trkpt lat="45.64743" lon="6.56745">
        <ele>1956</ele>
        <time>2022-07-27T11:15:07Z</time>
      </trkpt>
      <trkpt lat="45.64743" lon="6.56744">
        <ele>1956</ele>
        <time>2022-07-27T11:15:08Z</time>
      </trkpt>
      <trkpt lat="45.64743" lon="6.56743">
        <ele>1956</ele>
        <time>2022-07-27T11:15:09Z</time>
      </trkpt>
      <trkpt lat="45.64742" lon="6.56742">
        <ele>1957</ele>
        <time>2022-07-27T11:15:10Z</time>
      </trkpt>
      <trkpt lat="45.64742" lon="6.56741">
        <ele>1957</ele>
        <time>2022-07-27T11:15:11Z</time>
      </trkpt>
      <trkpt lat="45.64742" lon="6.5674">
        <ele>1957</ele>
        <time>2022-07-27T11:15:12Z</time>
      </trkpt>
      <trkpt lat="45.64742" lon="6.56739">
        <ele>1957</ele>
        <time>2022-07-27T11:15:13Z</time>
      </trkpt>
      <trkpt lat="45.64742" lon="6.56738">
        <ele>1957</ele>
        <time>2022-07-27T11:15:14Z</time>
      </trkpt>
      <trkpt lat="45.64742" lon="6.56737">
        <ele>1958</ele>
        <time>2022-07-27T11:15:15Z</time>
      </trkpt>
      <trkpt lat="45.64742" lon="6.56737">
        <ele>1958</ele>
        <time>2022-07-27T11:15:16Z</time>
      </trkpt>
      <trkpt lat="45.64742" lon="6.56736">
        <ele>1958</ele>
        <time>2022-07-27T11:15:17Z</time>
      </trkpt>
      <trkpt lat="45.64742" lon="6.56735">
        <ele>1958</ele>
        <time>2022-07-27T11:15:18Z</time>
      </trkpt>
      <trkpt lat="45.64742" lon="6.56734">
        <ele>1958</ele>
        <time>2022-07-27T11:15:19Z</time>
      </trkpt>
      <trkpt lat="45.64741" lon="6.56733">
        <ele>1959</ele>
        <time>2022-07-27T11:15:20Z</time>
      </trkpt>
      <trkpt lat="45.64741" lon="6.56732">
        <ele>1959</ele>
        <time>2022-07-27T11:15:21Z</time>
      </trkpt>
      <trkpt lat="45.64741" lon="6.56732">
        <ele>1959</ele>
        <time>2022-07-27T11:15:22Z</time>
      </trkpt>
      <trkpt lat="45.6474" lon="6.56731">
        <ele>1959</ele>
        <time>2022-07-27T11:15:23Z</time>
      </trkpt>
      <trkpt lat="45.6474" lon="6.5673">
        <ele>1959</ele>
        <time>2022-07-27T11:15:24Z</time>
      </trkpt>
      <trkpt lat="45.64739" lon="6.56729">
        <ele>1960</ele>
        <time>2022-07-27T11:15:25Z</time>
      </trkpt>
      <trkpt lat="45.64739" lon="6.56729">
        <ele>1960</ele>
        <time>2022-07-27T11:15:26Z</time>
      </trkpt>
      <trkpt lat="45.64739" lon="6.56728">
        <ele>1960</ele>
        <time>2022-07-27T11:15:27Z</time>
      </trkpt>
      <trkpt lat="45.64738" lon="6.56727">
        <ele>1960</ele>
        <time>2022-07-27T11:15:28Z</time>
      </trkpt>
      <trkpt lat="45.64738" lon="6.56726">
        <ele>1960</ele>
        <time>2022-07-27T11:15:29Z</time>
      </trkpt>
      <trkpt lat="45.64738" lon="6.56725">
        <ele>1961</ele>
        <time>2022-07-27T11:15:30Z</time>
      </trkpt>
      <trkpt lat="45.64738" lon="6.56724">
        <ele>1961</ele>
        <time>2022-07-27T11:15:31Z</time>
      </trkpt>
      <trkpt lat="45.64738" lon="6.56722">
        <ele>1961</ele>
        <time>2022-07-27T11:15:32Z</time>
      </trkpt>
      <trkpt lat="45.64738" lon="6.56721">
        <ele>1961</ele>
        <time>2022-07-27T11:15:33Z</time>
      </trkpt>
      <trkpt lat="45.64738" lon="6.5672">
        <ele>1961</ele>
        <time>2022-07-27T11:15:34Z</time>
      </trkpt>
      <trkpt lat="45.64737" lon="6.56719">
        <ele>1962</ele>
        <time>2022-07-27T11:15:35Z</time>
      </trkpt>
      <trkpt lat="45.64737" lon="6.56718">
        <ele>1962</ele>
        <time>2022-07-27T11:15:36Z</time>
      </trkpt>
      <trkpt lat="45.64737" lon="6.56718">
        <ele>1962</ele>
        <time>2022-07-27T11:15:37Z</time>
      </trkpt>
      <trkpt lat="45.64737" lon="6.56716">
        <ele>1964</ele>
        <time>2022-07-27T11:15:52Z</time>
      </trkpt>
      <trkpt lat="45.64737" lon="6.56716">
        <ele>1964</ele>
        <time>2022-07-27T11:15:53Z</time>
      </trkpt>
      <trkpt lat="45.64737" lon="6.56715">
        <ele>1964</ele>
        <time>2022-07-27T11:15:54Z</time>
      </trkpt>
      <trkpt lat="45.64736" lon="6.56714">
        <ele>1964</ele>
        <time>2022-07-27T11:15:55Z</time>
      </trkpt>
      <trkpt lat="45.64736" lon="6.56713">
        <ele>1964</ele>
        <time>2022-07-27T11:15:56Z</time>
      </trkpt>
      <trkpt lat="45.64736" lon="6.56711">
        <ele>1964</ele>
        <time>2022-07-27T11:15:57Z</time>
      </trkpt>
      <trkpt lat="45.64736" lon="6.5671">
        <ele>1964</ele>
        <time>2022-07-27T11:15:58Z</time>
      </trkpt>
      <trkpt lat="45.64736" lon="6.56708">
        <ele>1964</ele>
        <time>2022-07-27T11:15:59Z</time>
      </trkpt>
      <trkpt lat="45.64736" lon="6.56706">
        <ele>1964</ele>
        <time>2022-07-27T11:16:00Z</time>
      </trkpt>
      <trkpt lat="45.64736" lon="6.56705">
        <ele>1964</ele>
        <time>2022-07-27T11:16:01Z</time>
      </trkpt>
      <trkpt lat="45.64736" lon="6.56703">
        <ele>1964</ele>
        <time>2022-07-27T11:16:02Z</time>
      </trkpt>
      <trkpt lat="45.64736" lon="6.56701">
        <ele>1964</ele>
        <time>2022-07-27T11:16:03Z</time>
      </trkpt>
      <trkpt lat="45.64736" lon="6.56699">
        <ele>1964</ele>
        <time>2022-07-27T11:16:04Z</time>
      </trkpt>
      <trkpt lat="45.64736" lon="6.56697">
        <ele>1964</ele>
        <time>2022-07-27T11:16:05Z</time>
      </trkpt>
      <trkpt lat="45.64736" lon="6.56696">
        <ele>1964</ele>
        <time>2022-07-27T11:16:06Z</time>
      </trkpt>
      <trkpt lat="45.64736" lon="6.56694">
        <ele>1964</ele>
        <time>2022-07-27T11:16:07Z</time>
      </trkpt>
      <trkpt lat="45.64737" lon="6.56692">
        <ele>1964</ele>
        <time>2022-07-27T11:16:08Z</time>
      </trkpt>
      <trkpt lat="45.64737" lon="6.5669">
        <ele>1964</ele>
        <time>2022-07-27T11:16:09Z</time>
      </trkpt>
      <trkpt lat="45.64737" lon="6.56688">
        <ele>1965</ele>
        <time>2022-07-27T11:16:10Z</time>
      </trkpt>
      <trkpt lat="45.64737" lon="6.56686">
        <ele>1964</ele>
        <time>2022-07-27T11:16:11Z</time>
      </trkpt>
      <trkpt lat="45.64737" lon="6.56685">
        <ele>1964</ele>
        <time>2022-07-27T11:16:12Z</time>
      </trkpt>
      <trkpt lat="45.64737" lon="6.56683">
        <ele>1964</ele>
        <time>2022-07-27T11:16:13Z</time>
      </trkpt>
      <trkpt lat="45.64738" lon="6.56681">
        <ele>1964</ele>
        <time>2022-07-27T11:16:14Z</time>
      </trkpt>
      <trkpt lat="45.64738" lon="6.56679">
        <ele>1964</ele>
        <time>2022-07-27T11:16:15Z</time>
      </trkpt>
      <trkpt lat="45.64738" lon="6.56677">
        <ele>1964</ele>
        <time>2022-07-27T11:16:16Z</time>
      </trkpt>
      <trkpt lat="45.64738" lon="6.56676">
        <ele>1964</ele>
        <time>2022-07-27T11:16:17Z</time>
      </trkpt>
      <trkpt lat="45.64738" lon="6.56674">
        <ele>1964</ele>
        <time>2022-07-27T11:16:18Z</time>
      </trkpt>
      <trkpt lat="45.64738" lon="6.56672">
        <ele>1964</ele>
        <time>2022-07-27T11:16:19Z</time>
      </trkpt>
      <trkpt lat="45.64738" lon="6.56671">
        <ele>1964</ele>
        <time>2022-07-27T11:16:20Z</time>
      </trkpt>
      <trkpt lat="45.64738" lon="6.56669">
        <ele>1964</ele>
        <time>2022-07-27T11:16:21Z</time>
      </trkpt>
      <trkpt lat="45.64738" lon="6.56667">
        <ele>1964</ele>
        <time>2022-07-27T11:16:22Z</time>
      </trkpt>
      <trkpt lat="45.64738" lon="6.56666">
        <ele>1964</ele>
        <time>2022-07-27T11:16:23Z</time>
      </trkpt>
      <trkpt lat="45.64738" lon="6.56664">
        <ele>1964</ele>
        <time>2022-07-27T11:16:24Z</time>
      </trkpt>
      <trkpt lat="45.64739" lon="6.56662">
        <ele>1964</ele>
        <time>2022-07-27T11:16:25Z</time>
      </trkpt>
      <trkpt lat="45.64739" lon="6.56661">
        <ele>1964</ele>
        <time>2022-07-27T11:16:26Z</time>
      </trkpt>
      <trkpt lat="45.64739" lon="6.56659">
        <ele>1964</ele>
        <time>2022-07-27T11:16:27Z</time>
      </trkpt>
      <trkpt lat="45.64739" lon="6.56657">
        <ele>1964</ele>
        <time>2022-07-27T11:16:28Z</time>
      </trkpt>
      <trkpt lat="45.64739" lon="6.56656">
        <ele>1964</ele>
        <time>2022-07-27T11:16:29Z</time>
      </trkpt>
      <trkpt lat="45.64739" lon="6.56654">
        <ele>1964</ele>
        <time>2022-07-27T11:16:30Z</time>
      </trkpt>
      <trkpt lat="45.6474" lon="6.56652">
        <ele>1964</ele>
        <time>2022-07-27T11:16:31Z</time>
      </trkpt>
      <trkpt lat="45.6474" lon="6.56651">
        <ele>1964</ele>
        <time>2022-07-27T11:16:32Z</time>
      </trkpt>
      <trkpt lat="45.6474" lon="6.56649">
        <ele>1964</ele>
        <time>2022-07-27T11:16:33Z</time>
      </trkpt>
      <trkpt lat="45.6474" lon="6.56648">
        <ele>1964</ele>
        <time>2022-07-27T11:16:34Z</time>
      </trkpt>
      <trkpt lat="45.6474" lon="6.56646">
        <ele>1964</ele>
        <time>2022-07-27T11:16:35Z</time>
      </trkpt>
      <trkpt lat="45.6474" lon="6.56644">
        <ele>1964</ele>
        <time>2022-07-27T11:16:36Z</time>
      </trkpt>
      <trkpt lat="45.6474" lon="6.56643">
        <ele>1964</ele>
        <time>2022-07-27T11:16:37Z</time>
      </trkpt>
      <trkpt lat="45.64741" lon="6.56641">
        <ele>1964</ele>
        <time>2022-07-27T11:16:38Z</time>
      </trkpt>
      <trkpt lat="45.64741" lon="6.5664">
        <ele>1964</ele>
        <time>2022-07-27T11:16:39Z</time>
      </trkpt>
      <trkpt lat="45.64741" lon="6.56638">
        <ele>1964</ele>
        <time>2022-07-27T11:16:40Z</time>
      </trkpt>
      <trkpt lat="45.64741" lon="6.56636">
        <ele>1964</ele>
        <time>2022-07-27T11:16:41Z</time>
      </trkpt>
      <trkpt lat="45.64741" lon="6.56635">
        <ele>1964</ele>
        <time>2022-07-27T11:16:42Z</time>
      </trkpt>
      <trkpt lat="45.64741" lon="6.56633">
        <ele>1964</ele>
        <time>2022-07-27T11:16:43Z</time>
      </trkpt>
      <trkpt lat="45.64741" lon="6.56631">
        <ele>1964</ele>
        <time>2022-07-27T11:16:44Z</time>
      </trkpt>
      <trkpt lat="45.64741" lon="6.5663">
        <ele>1964</ele>
        <time>2022-07-27T11:16:45Z</time>
      </trkpt>
      <trkpt lat="45.64741" lon="6.56628">
        <ele>1964</ele>
        <time>2022-07-27T11:16:46Z</time>
      </trkpt>
      <trkpt lat="45.64742" lon="6.56626">
        <ele>1964</ele>
        <time>2022-07-27T11:16:47Z</time>
      </trkpt>
      <trkpt lat="45.64742" lon="6.56625">
        <ele>1964</ele>
        <time>2022-07-27T11:16:48Z</time>
      </trkpt>
      <trkpt lat="45.64742" lon="6.56623">
        <ele>1964</ele>
        <time>2022-07-27T11:16:49Z</time>
      </trkpt>
      <trkpt lat="45.64742" lon="6.56621">
        <ele>1964</ele>
        <time>2022-07-27T11:16:50Z</time>
      </trkpt>
      <trkpt lat="45.64742" lon="6.5662">
        <ele>1964</ele>
        <time>2022-07-27T11:16:51Z</time>
      </trkpt>
      <trkpt lat="45.64742" lon="6.56618">
        <ele>1964</ele>
        <time>2022-07-27T11:16:52Z</time>
      </trkpt>
      <trkpt lat="45.64742" lon="6.56617">
        <ele>1964</ele>
        <time>2022-07-27T11:16:53Z</time>
      </trkpt>
      <trkpt lat="45.64742" lon="6.56615">
        <ele>1964</ele>
        <time>2022-07-27T11:16:54Z</time>
      </trkpt>
      <trkpt lat="45.64742" lon="6.56613">
        <ele>1964</ele>
        <time>2022-07-27T11:16:55Z</time>
      </trkpt>
      <trkpt lat="45.64742" lon="6.56612">
        <ele>1964</ele>
        <time>2022-07-27T11:16:56Z</time>
      </trkpt>
      <trkpt lat="45.64742" lon="6.5661">
        <ele>1964</ele>
        <time>2022-07-27T11:16:57Z</time>
      </trkpt>
      <trkpt lat="45.64742" lon="6.56608">
        <ele>1964</ele>
        <time>2022-07-27T11:16:58Z</time>
      </trkpt>
      <trkpt lat="45.64742" lon="6.56607">
        <ele>1964</ele>
        <time>2022-07-27T11:16:59Z</time>
      </trkpt>
      <trkpt lat="45.64742" lon="6.56605">
        <ele>1965</ele>
        <time>2022-07-27T11:17:00Z</time>
      </trkpt>
      <trkpt lat="45.64742" lon="6.56603">
        <ele>1965</ele>
        <time>2022-07-27T11:17:01Z</time>
      </trkpt>
      <trkpt lat="45.64741" lon="6.56602">
        <ele>1965</ele>
        <time>2022-07-27T11:17:02Z</time>
      </trkpt>
      <trkpt lat="45.64741" lon="6.566">
        <ele>1965</ele>
        <time>2022-07-27T11:17:03Z</time>
      </trkpt>
      <trkpt lat="45.64741" lon="6.56598">
        <ele>1965</ele>
        <time>2022-07-27T11:17:04Z</time>
      </trkpt>
      <trkpt lat="45.64741" lon="6.56597">
        <ele>1965</ele>
        <time>2022-07-27T11:17:05Z</time>
      </trkpt>
      <trkpt lat="45.6474" lon="6.56595">
        <ele>1965</ele>
        <time>2022-07-27T11:17:06Z</time>
      </trkpt>
      <trkpt lat="45.6474" lon="6.56594">
        <ele>1965</ele>
        <time>2022-07-27T11:17:07Z</time>
      </trkpt>
      <trkpt lat="45.6474" lon="6.56592">
        <ele>1965</ele>
        <time>2022-07-27T11:17:08Z</time>
      </trkpt>
      <trkpt lat="45.64739" lon="6.56591">
        <ele>1965</ele>
        <time>2022-07-27T11:17:09Z</time>
      </trkpt>
      <trkpt lat="45.64739" lon="6.5659">
        <ele>1965</ele>
        <time>2022-07-27T11:17:10Z</time>
      </trkpt>
      <trkpt lat="45.64738" lon="6.56588">
        <ele>1965</ele>
        <time>2022-07-27T11:17:11Z</time>
      </trkpt>
      <trkpt lat="45.64737" lon="6.56587">
        <ele>1965</ele>
        <time>2022-07-27T11:17:12Z</time>
      </trkpt>
      <trkpt lat="45.64737" lon="6.56586">
        <ele>1965</ele>
        <time>2022-07-27T11:17:13Z</time>
      </trkpt>
      <trkpt lat="45.64736" lon="6.56585">
        <ele>1965</ele>
        <time>2022-07-27T11:17:14Z</time>
      </trkpt>
      <trkpt lat="45.64736" lon="6.56584">
        <ele>1965</ele>
        <time>2022-07-27T11:17:15Z</time>
      </trkpt>
      <trkpt lat="45.64735" lon="6.56583">
        <ele>1965</ele>
        <time>2022-07-27T11:17:16Z</time>
      </trkpt>
      <trkpt lat="45.64734" lon="6.56581">
        <ele>1965</ele>
        <time>2022-07-27T11:17:17Z</time>
      </trkpt>
      <trkpt lat="45.64734" lon="6.5658">
        <ele>1965</ele>
        <time>2022-07-27T11:17:18Z</time>
      </trkpt>
      <trkpt lat="45.64733" lon="6.56579">
        <ele>1965</ele>
        <time>2022-07-27T11:17:19Z</time>
      </trkpt>
      <trkpt lat="45.64733" lon="6.56578">
        <ele>1965</ele>
        <time>2022-07-27T11:17:20Z</time>
      </trkpt>
      <trkpt lat="45.64733" lon="6.56577">
        <ele>1965</ele>
        <time>2022-07-27T11:17:21Z</time>
      </trkpt>
      <trkpt lat="45.64732" lon="6.56576">
        <ele>1965</ele>
        <time>2022-07-27T11:17:22Z</time>
      </trkpt>
      <trkpt lat="45.64732" lon="6.56575">
        <ele>1965</ele>
        <time>2022-07-27T11:17:23Z</time>
      </trkpt>
      <trkpt lat="45.64732" lon="6.56574">
        <ele>1965</ele>
        <time>2022-07-27T11:17:24Z</time>
      </trkpt>
      <trkpt lat="45.64731" lon="6.56573">
        <ele>1966</ele>
        <time>2022-07-27T11:17:25Z</time>
      </trkpt>
      <trkpt lat="45.64731" lon="6.56572">
        <ele>1966</ele>
        <time>2022-07-27T11:17:26Z</time>
      </trkpt>
      <trkpt lat="45.64731" lon="6.56571">
        <ele>1966</ele>
        <time>2022-07-27T11:17:27Z</time>
      </trkpt>
      <trkpt lat="45.6473" lon="6.5657">
        <ele>1966</ele>
        <time>2022-07-27T11:17:28Z</time>
      </trkpt>
      <trkpt lat="45.6473" lon="6.56569">
        <ele>1966</ele>
        <time>2022-07-27T11:17:29Z</time>
      </trkpt>
      <trkpt lat="45.64729" lon="6.56568">
        <ele>1966</ele>
        <time>2022-07-27T11:17:30Z</time>
      </trkpt>
      <trkpt lat="45.64728" lon="6.56567">
        <ele>1966</ele>
        <time>2022-07-27T11:17:31Z</time>
      </trkpt>
      <trkpt lat="45.64728" lon="6.56566">
        <ele>1966</ele>
        <time>2022-07-27T11:17:32Z</time>
      </trkpt>
      <trkpt lat="45.64727" lon="6.56565">
        <ele>1966</ele>
        <time>2022-07-27T11:17:33Z</time>
      </trkpt>
      <trkpt lat="45.64727" lon="6.56564">
        <ele>1966</ele>
        <time>2022-07-27T11:17:34Z</time>
      </trkpt>
      <trkpt lat="45.64727" lon="6.56563">
        <ele>1966</ele>
        <time>2022-07-27T11:17:35Z</time>
      </trkpt>
      <trkpt lat="45.64726" lon="6.56561">
        <ele>1966</ele>
        <time>2022-07-27T11:17:36Z</time>
      </trkpt>
      <trkpt lat="45.64726" lon="6.5656">
        <ele>1966</ele>
        <time>2022-07-27T11:17:37Z</time>
      </trkpt>
      <trkpt lat="45.64726" lon="6.56559">
        <ele>1966</ele>
        <time>2022-07-27T11:17:38Z</time>
      </trkpt>
      <trkpt lat="45.64726" lon="6.56557">
        <ele>1966</ele>
        <time>2022-07-27T11:17:39Z</time>
      </trkpt>
      <trkpt lat="45.64726" lon="6.56556">
        <ele>1967</ele>
        <time>2022-07-27T11:17:40Z</time>
      </trkpt>
      <trkpt lat="45.64726" lon="6.56555">
        <ele>1967</ele>
        <time>2022-07-27T11:17:41Z</time>
      </trkpt>
      <trkpt lat="45.64726" lon="6.56555">
        <ele>1967</ele>
        <time>2022-07-27T11:17:42Z</time>
      </trkpt>
      <trkpt lat="45.64726" lon="6.56554">
        <ele>1967</ele>
        <time>2022-07-27T11:17:43Z</time>
      </trkpt>
      <trkpt lat="45.64726" lon="6.56554">
        <ele>1967</ele>
        <time>2022-07-27T11:17:44Z</time>
      </trkpt>
      <trkpt lat="45.64726" lon="6.56553">
        <ele>1967</ele>
        <time>2022-07-27T11:17:45Z</time>
      </trkpt>
      <trkpt lat="45.64727" lon="6.56553">
        <ele>1967</ele>
        <time>2022-07-27T11:17:46Z</time>
      </trkpt>
      <trkpt lat="45.64727" lon="6.56553">
        <ele>1967</ele>
        <time>2022-07-27T11:17:47Z</time>
      </trkpt>
      <trkpt lat="45.64728" lon="6.56553">
        <ele>1967</ele>
        <time>2022-07-27T11:17:48Z</time>
      </trkpt>
      <trkpt lat="45.64728" lon="6.56553">
        <ele>1967</ele>
        <time>2022-07-27T11:17:49Z</time>
      </trkpt>
      <trkpt lat="45.64729" lon="6.56553">
        <ele>1967</ele>
        <time>2022-07-27T11:17:50Z</time>
      </trkpt>
      <trkpt lat="45.6473" lon="6.56552">
        <ele>1967</ele>
        <time>2022-07-27T11:17:51Z</time>
      </trkpt>
      <trkpt lat="45.64731" lon="6.56552">
        <ele>1967</ele>
        <time>2022-07-27T11:17:52Z</time>
      </trkpt>
      <trkpt lat="45.64732" lon="6.56551">
        <ele>1967</ele>
        <time>2022-07-27T11:17:53Z</time>
      </trkpt>
      <trkpt lat="45.64733" lon="6.56551">
        <ele>1967</ele>
        <time>2022-07-27T11:17:54Z</time>
      </trkpt>
      <trkpt lat="45.64734" lon="6.5655">
        <ele>1968</ele>
        <time>2022-07-27T11:17:55Z</time>
      </trkpt>
      <trkpt lat="45.64735" lon="6.56549">
        <ele>1968</ele>
        <time>2022-07-27T11:17:56Z</time>
      </trkpt>
      <trkpt lat="45.64735" lon="6.56548">
        <ele>1968</ele>
        <time>2022-07-27T11:17:57Z</time>
      </trkpt>
      <trkpt lat="45.64736" lon="6.56547">
        <ele>1968</ele>
        <time>2022-07-27T11:17:58Z</time>
      </trkpt>
      <trkpt lat="45.64737" lon="6.56546">
        <ele>1968</ele>
        <time>2022-07-27T11:17:59Z</time>
      </trkpt>
      <trkpt lat="45.64737" lon="6.56546">
        <ele>1968</ele>
        <time>2022-07-27T11:18:00Z</time>
      </trkpt>
      <trkpt lat="45.64738" lon="6.56545">
        <ele>1968</ele>
        <time>2022-07-27T11:18:01Z</time>
      </trkpt>
      <trkpt lat="45.64739" lon="6.56544">
        <ele>1968</ele>
        <time>2022-07-27T11:18:02Z</time>
      </trkpt>
      <trkpt lat="45.64739" lon="6.56544">
        <ele>1968</ele>
        <time>2022-07-27T11:18:03Z</time>
      </trkpt>
      <trkpt lat="45.6474" lon="6.56544">
        <ele>1968</ele>
        <time>2022-07-27T11:18:04Z</time>
      </trkpt>
      <trkpt lat="45.6474" lon="6.56544">
        <ele>1969</ele>
        <time>2022-07-27T11:18:05Z</time>
      </trkpt>
      <trkpt lat="45.64741" lon="6.56543">
        <ele>1969</ele>
        <time>2022-07-27T11:18:06Z</time>
      </trkpt>
      <trkpt lat="45.64741" lon="6.56543">
        <ele>1969</ele>
        <time>2022-07-27T11:18:07Z</time>
      </trkpt>
      <trkpt lat="45.64742" lon="6.56542">
        <ele>1969</ele>
        <time>2022-07-27T11:18:08Z</time>
      </trkpt>
      <trkpt lat="45.64742" lon="6.56541">
        <ele>1969</ele>
        <time>2022-07-27T11:18:09Z</time>
      </trkpt>
      <trkpt lat="45.64742" lon="6.56541">
        <ele>1970</ele>
        <time>2022-07-27T11:18:10Z</time>
      </trkpt>
      <trkpt lat="45.64742" lon="6.5654">
        <ele>1971</ele>
        <time>2022-07-27T11:18:17Z</time>
      </trkpt>
      <trkpt lat="45.64742" lon="6.56539">
        <ele>1971</ele>
        <time>2022-07-27T11:18:18Z</time>
      </trkpt>
      <trkpt lat="45.64742" lon="6.56538">
        <ele>1971</ele>
        <time>2022-07-27T11:18:19Z</time>
      </trkpt>
      <trkpt lat="45.64743" lon="6.56537">
        <ele>1971</ele>
        <time>2022-07-27T11:18:20Z</time>
      </trkpt>
      <trkpt lat="45.64743" lon="6.56536">
        <ele>1971</ele>
        <time>2022-07-27T11:18:21Z</time>
      </trkpt>
      <trkpt lat="45.64743" lon="6.56535">
        <ele>1971</ele>
        <time>2022-07-27T11:18:22Z</time>
      </trkpt>
      <trkpt lat="45.64743" lon="6.56534">
        <ele>1971</ele>
        <time>2022-07-27T11:18:23Z</time>
      </trkpt>
      <trkpt lat="45.64743" lon="6.56533">
        <ele>1971</ele>
        <time>2022-07-27T11:18:24Z</time>
      </trkpt>
      <trkpt lat="45.64743" lon="6.56532">
        <ele>1972</ele>
        <time>2022-07-27T11:18:25Z</time>
      </trkpt>
      <trkpt lat="45.64743" lon="6.5653">
        <ele>1972</ele>
        <time>2022-07-27T11:18:26Z</time>
      </trkpt>
      <trkpt lat="45.64743" lon="6.56529">
        <ele>1972</ele>
        <time>2022-07-27T11:18:27Z</time>
      </trkpt>
      <trkpt lat="45.64743" lon="6.56528">
        <ele>1972</ele>
        <time>2022-07-27T11:18:28Z</time>
      </trkpt>
      <trkpt lat="45.64744" lon="6.56528">
        <ele>1972</ele>
        <time>2022-07-27T11:18:29Z</time>
      </trkpt>
      <trkpt lat="45.64744" lon="6.56527">
        <ele>1973</ele>
        <time>2022-07-27T11:18:30Z</time>
      </trkpt>
      <trkpt lat="45.64744" lon="6.56526">
        <ele>1973</ele>
        <time>2022-07-27T11:18:31Z</time>
      </trkpt>
      <trkpt lat="45.64744" lon="6.56525">
        <ele>1973</ele>
        <time>2022-07-27T11:18:32Z</time>
      </trkpt>
      <trkpt lat="45.64744" lon="6.56524">
        <ele>1973</ele>
        <time>2022-07-27T11:18:33Z</time>
      </trkpt>
      <trkpt lat="45.64744" lon="6.56522">
        <ele>1973</ele>
        <time>2022-07-27T11:18:34Z</time>
      </trkpt>
      <trkpt lat="45.64744" lon="6.56521">
        <ele>1974</ele>
        <time>2022-07-27T11:18:35Z</time>
      </trkpt>
      <trkpt lat="45.64744" lon="6.5652">
        <ele>1974</ele>
        <time>2022-07-27T11:18:36Z</time>
      </trkpt>
      <trkpt lat="45.64744" lon="6.56518">
        <ele>1974</ele>
        <time>2022-07-27T11:18:37Z</time>
      </trkpt>
      <trkpt lat="45.64744" lon="6.56517">
        <ele>1974</ele>
        <time>2022-07-27T11:18:38Z</time>
      </trkpt>
      <trkpt lat="45.64744" lon="6.56516">
        <ele>1974</ele>
        <time>2022-07-27T11:18:39Z</time>
      </trkpt>
      <trkpt lat="45.64744" lon="6.56514">
        <ele>1975</ele>
        <time>2022-07-27T11:18:40Z</time>
      </trkpt>
      <trkpt lat="45.64744" lon="6.56513">
        <ele>1975</ele>
        <time>2022-07-27T11:18:41Z</time>
      </trkpt>
      <trkpt lat="45.64744" lon="6.56512">
        <ele>1975</ele>
        <time>2022-07-27T11:18:42Z</time>
      </trkpt>
      <trkpt lat="45.64744" lon="6.56511">
        <ele>1975</ele>
        <time>2022-07-27T11:18:43Z</time>
      </trkpt>
      <trkpt lat="45.64745" lon="6.5651">
        <ele>1975</ele>
        <time>2022-07-27T11:18:44Z</time>
      </trkpt>
      <trkpt lat="45.64744" lon="6.56509">
        <ele>1978</ele>
        <time>2022-07-27T11:19:01Z</time>
      </trkpt>
      <trkpt lat="45.64744" lon="6.56508">
        <ele>1978</ele>
        <time>2022-07-27T11:19:02Z</time>
      </trkpt>
      <trkpt lat="45.64744" lon="6.56507">
        <ele>1978</ele>
        <time>2022-07-27T11:19:03Z</time>
      </trkpt>
      <trkpt lat="45.64743" lon="6.56506">
        <ele>1978</ele>
        <time>2022-07-27T11:19:04Z</time>
      </trkpt>
      <trkpt lat="45.64743" lon="6.56505">
        <ele>1978</ele>
        <time>2022-07-27T11:19:05Z</time>
      </trkpt>
      <trkpt lat="45.64743" lon="6.56504">
        <ele>1978</ele>
        <time>2022-07-27T11:19:06Z</time>
      </trkpt>
      <trkpt lat="45.64743" lon="6.56503">
        <ele>1978</ele>
        <time>2022-07-27T11:19:07Z</time>
      </trkpt>
      <trkpt lat="45.64743" lon="6.565">
        <ele>1978</ele>
        <time>2022-07-27T11:19:51Z</time>
      </trkpt>
      <trkpt lat="45.64743" lon="6.56499">
        <ele>1978</ele>
        <time>2022-07-27T11:19:52Z</time>
      </trkpt>
      <trkpt lat="45.64743" lon="6.56498">
        <ele>1978</ele>
        <time>2022-07-27T11:19:53Z</time>
      </trkpt>
      <trkpt lat="45.64743" lon="6.56496">
        <ele>1979</ele>
        <time>2022-07-27T11:20:03Z</time>
      </trkpt>
      <trkpt lat="45.64744" lon="6.56495">
        <ele>1979</ele>
        <time>2022-07-27T11:20:04Z</time>
      </trkpt>
      <trkpt lat="45.64744" lon="6.56494">
        <ele>1979</ele>
        <time>2022-07-27T11:20:05Z</time>
      </trkpt>
      <trkpt lat="45.64745" lon="6.56493">
        <ele>1979</ele>
        <time>2022-07-27T11:20:06Z</time>
      </trkpt>
      <trkpt lat="45.64745" lon="6.56492">
        <ele>1979</ele>
        <time>2022-07-27T11:20:07Z</time>
      </trkpt>
      <trkpt lat="45.64746" lon="6.5649">
        <ele>1979</ele>
        <time>2022-07-27T11:20:08Z</time>
      </trkpt>
      <trkpt lat="45.64746" lon="6.56489">
        <ele>1979</ele>
        <time>2022-07-27T11:20:09Z</time>
      </trkpt>
      <trkpt lat="45.64747" lon="6.56488">
        <ele>1979</ele>
        <time>2022-07-27T11:20:10Z</time>
      </trkpt>
      <trkpt lat="45.64747" lon="6.56487">
        <ele>1979</ele>
        <time>2022-07-27T11:20:11Z</time>
      </trkpt>
      <trkpt lat="45.64748" lon="6.56486">
        <ele>1979</ele>
        <time>2022-07-27T11:20:12Z</time>
      </trkpt>
      <trkpt lat="45.64748" lon="6.56485">
        <ele>1979</ele>
        <time>2022-07-27T11:20:13Z</time>
      </trkpt>
      <trkpt lat="45.64749" lon="6.56484">
        <ele>1979</ele>
        <time>2022-07-27T11:20:14Z</time>
      </trkpt>
      <trkpt lat="45.64749" lon="6.56483">
        <ele>1979</ele>
        <time>2022-07-27T11:20:15Z</time>
      </trkpt>
      <trkpt lat="45.6475" lon="6.56482">
        <ele>1979</ele>
        <time>2022-07-27T11:20:16Z</time>
      </trkpt>
      <trkpt lat="45.64751" lon="6.56482">
        <ele>1979</ele>
        <time>2022-07-27T11:20:17Z</time>
      </trkpt>
      <trkpt lat="45.64752" lon="6.56481">
        <ele>1979</ele>
        <time>2022-07-27T11:20:18Z</time>
      </trkpt>
      <trkpt lat="45.64753" lon="6.56481">
        <ele>1979</ele>
        <time>2022-07-27T11:20:19Z</time>
      </trkpt>
      <trkpt lat="45.64753" lon="6.56481">
        <ele>1979</ele>
        <time>2022-07-27T11:20:20Z</time>
      </trkpt>
      <trkpt lat="45.64754" lon="6.5648">
        <ele>1979</ele>
        <time>2022-07-27T11:20:21Z</time>
      </trkpt>
      <trkpt lat="45.64755" lon="6.5648">
        <ele>1979</ele>
        <time>2022-07-27T11:20:22Z</time>
      </trkpt>
      <trkpt lat="45.64756" lon="6.5648">
        <ele>1979</ele>
        <time>2022-07-27T11:20:23Z</time>
      </trkpt>
      <trkpt lat="45.64757" lon="6.5648">
        <ele>1979</ele>
        <time>2022-07-27T11:20:24Z</time>
      </trkpt>
      <trkpt lat="45.64758" lon="6.5648">
        <ele>1980</ele>
        <time>2022-07-27T11:20:25Z</time>
      </trkpt>
      <trkpt lat="45.64759" lon="6.56481">
        <ele>1980</ele>
        <time>2022-07-27T11:20:26Z</time>
      </trkpt>
      <trkpt lat="45.6476" lon="6.56481">
        <ele>1980</ele>
        <time>2022-07-27T11:20:27Z</time>
      </trkpt>
      <trkpt lat="45.64761" lon="6.56481">
        <ele>1980</ele>
        <time>2022-07-27T11:20:28Z</time>
      </trkpt>
      <trkpt lat="45.64762" lon="6.56482">
        <ele>1980</ele>
        <time>2022-07-27T11:20:29Z</time>
      </trkpt>
      <trkpt lat="45.64762" lon="6.56482">
        <ele>1980</ele>
        <time>2022-07-27T11:20:30Z</time>
      </trkpt>
      <trkpt lat="45.64763" lon="6.56483">
        <ele>1980</ele>
        <time>2022-07-27T11:20:31Z</time>
      </trkpt>
      <trkpt lat="45.64764" lon="6.56483">
        <ele>1980</ele>
        <time>2022-07-27T11:20:32Z</time>
      </trkpt>
      <trkpt lat="45.64765" lon="6.56484">
        <ele>1980</ele>
        <time>2022-07-27T11:20:33Z</time>
      </trkpt>
      <trkpt lat="45.64766" lon="6.56485">
        <ele>1980</ele>
        <time>2022-07-27T11:20:34Z</time>
      </trkpt>
      <trkpt lat="45.64767" lon="6.56485">
        <ele>1981</ele>
        <time>2022-07-27T11:20:35Z</time>
      </trkpt>
      <trkpt lat="45.64767" lon="6.56486">
        <ele>1981</ele>
        <time>2022-07-27T11:20:36Z</time>
      </trkpt>
      <trkpt lat="45.64768" lon="6.56487">
        <ele>1981</ele>
        <time>2022-07-27T11:20:37Z</time>
      </trkpt>
      <trkpt lat="45.64769" lon="6.56487">
        <ele>1981</ele>
        <time>2022-07-27T11:20:38Z</time>
      </trkpt>
      <trkpt lat="45.6477" lon="6.56488">
        <ele>1981</ele>
        <time>2022-07-27T11:20:39Z</time>
      </trkpt>
      <trkpt lat="45.64771" lon="6.56488">
        <ele>1981</ele>
        <time>2022-07-27T11:20:40Z</time>
      </trkpt>
      <trkpt lat="45.64772" lon="6.56488">
        <ele>1981</ele>
        <time>2022-07-27T11:20:41Z</time>
      </trkpt>
      <trkpt lat="45.64773" lon="6.56489">
        <ele>1981</ele>
        <time>2022-07-27T11:20:42Z</time>
      </trkpt>
      <trkpt lat="45.64774" lon="6.56489">
        <ele>1981</ele>
        <time>2022-07-27T11:20:43Z</time>
      </trkpt>
      <trkpt lat="45.64775" lon="6.56489">
        <ele>1981</ele>
        <time>2022-07-27T11:20:44Z</time>
      </trkpt>
      <trkpt lat="45.64776" lon="6.5649">
        <ele>1981</ele>
        <time>2022-07-27T11:20:45Z</time>
      </trkpt>
      <trkpt lat="45.64776" lon="6.5649">
        <ele>1981</ele>
        <time>2022-07-27T11:20:46Z</time>
      </trkpt>
      <trkpt lat="45.64777" lon="6.5649">
        <ele>1981</ele>
        <time>2022-07-27T11:20:47Z</time>
      </trkpt>
      <trkpt lat="45.64778" lon="6.56491">
        <ele>1981</ele>
        <time>2022-07-27T11:20:48Z</time>
      </trkpt>
      <trkpt lat="45.64779" lon="6.56491">
        <ele>1981</ele>
        <time>2022-07-27T11:20:49Z</time>
      </trkpt>
      <trkpt lat="45.6478" lon="6.56491">
        <ele>1982</ele>
        <time>2022-07-27T11:20:50Z</time>
      </trkpt>
      <trkpt lat="45.64781" lon="6.56491">
        <ele>1982</ele>
        <time>2022-07-27T11:20:51Z</time>
      </trkpt>
      <trkpt lat="45.64781" lon="6.56491">
        <ele>1982</ele>
        <time>2022-07-27T11:20:52Z</time>
      </trkpt>
      <trkpt lat="45.64782" lon="6.56491">
        <ele>1982</ele>
        <time>2022-07-27T11:20:53Z</time>
      </trkpt>
      <trkpt lat="45.64783" lon="6.56491">
        <ele>1982</ele>
        <time>2022-07-27T11:20:54Z</time>
      </trkpt>
      <trkpt lat="45.64784" lon="6.56492">
        <ele>1982</ele>
        <time>2022-07-27T11:20:55Z</time>
      </trkpt>
      <trkpt lat="45.64785" lon="6.56492">
        <ele>1982</ele>
        <time>2022-07-27T11:20:56Z</time>
      </trkpt>
      <trkpt lat="45.64786" lon="6.56492">
        <ele>1982</ele>
        <time>2022-07-27T11:20:57Z</time>
      </trkpt>
      <trkpt lat="45.64787" lon="6.56492">
        <ele>1982</ele>
        <time>2022-07-27T11:20:58Z</time>
      </trkpt>
      <trkpt lat="45.64788" lon="6.56492">
        <ele>1982</ele>
        <time>2022-07-27T11:20:59Z</time>
      </trkpt>
      <trkpt lat="45.64789" lon="6.56492">
        <ele>1983</ele>
        <time>2022-07-27T11:21:00Z</time>
      </trkpt>
      <trkpt lat="45.64789" lon="6.56492">
        <ele>1983</ele>
        <time>2022-07-27T11:21:01Z</time>
      </trkpt>
      <trkpt lat="45.6479" lon="6.56492">
        <ele>1983</ele>
        <time>2022-07-27T11:21:02Z</time>
      </trkpt>
      <trkpt lat="45.64791" lon="6.56492">
        <ele>1983</ele>
        <time>2022-07-27T11:21:03Z</time>
      </trkpt>
      <trkpt lat="45.64792" lon="6.56492">
        <ele>1983</ele>
        <time>2022-07-27T11:21:04Z</time>
      </trkpt>
      <trkpt lat="45.64793" lon="6.56493">
        <ele>1983</ele>
        <time>2022-07-27T11:21:05Z</time>
      </trkpt>
      <trkpt lat="45.64793" lon="6.56493">
        <ele>1983</ele>
        <time>2022-07-27T11:21:06Z</time>
      </trkpt>
      <trkpt lat="45.64794" lon="6.56493">
        <ele>1983</ele>
        <time>2022-07-27T11:21:07Z</time>
      </trkpt>
      <trkpt lat="45.64795" lon="6.56493">
        <ele>1983</ele>
        <time>2022-07-27T11:21:08Z</time>
      </trkpt>
      <trkpt lat="45.64796" lon="6.56493">
        <ele>1983</ele>
        <time>2022-07-27T11:21:09Z</time>
      </trkpt>
      <trkpt lat="45.64797" lon="6.56493">
        <ele>1983</ele>
        <time>2022-07-27T11:21:10Z</time>
      </trkpt>
      <trkpt lat="45.64798" lon="6.56493">
        <ele>1983</ele>
        <time>2022-07-27T11:21:11Z</time>
      </trkpt>
      <trkpt lat="45.64799" lon="6.56492">
        <ele>1983</ele>
        <time>2022-07-27T11:21:12Z</time>
      </trkpt>
      <trkpt lat="45.648" lon="6.56492">
        <ele>1983</ele>
        <time>2022-07-27T11:21:13Z</time>
      </trkpt>
      <trkpt lat="45.64801" lon="6.56492">
        <ele>1983</ele>
        <time>2022-07-27T11:21:14Z</time>
      </trkpt>
      <trkpt lat="45.64802" lon="6.56491">
        <ele>1984</ele>
        <time>2022-07-27T11:21:15Z</time>
      </trkpt>
      <trkpt lat="45.64803" lon="6.56491">
        <ele>1984</ele>
        <time>2022-07-27T11:21:16Z</time>
      </trkpt>
      <trkpt lat="45.64804" lon="6.56491">
        <ele>1984</ele>
        <time>2022-07-27T11:21:17Z</time>
      </trkpt>
      <trkpt lat="45.64804" lon="6.5649">
        <ele>1984</ele>
        <time>2022-07-27T11:21:18Z</time>
      </trkpt>
      <trkpt lat="45.64805" lon="6.5649">
        <ele>1984</ele>
        <time>2022-07-27T11:21:19Z</time>
      </trkpt>
      <trkpt lat="45.64806" lon="6.56489">
        <ele>1984</ele>
        <time>2022-07-27T11:21:20Z</time>
      </trkpt>
      <trkpt lat="45.64807" lon="6.56488">
        <ele>1984</ele>
        <time>2022-07-27T11:21:21Z</time>
      </trkpt>
      <trkpt lat="45.64808" lon="6.56487">
        <ele>1984</ele>
        <time>2022-07-27T11:21:22Z</time>
      </trkpt>
      <trkpt lat="45.64809" lon="6.56487">
        <ele>1984</ele>
        <time>2022-07-27T11:21:23Z</time>
      </trkpt>
      <trkpt lat="45.64809" lon="6.56486">
        <ele>1984</ele>
        <time>2022-07-27T11:21:24Z</time>
      </trkpt>
      <trkpt lat="45.6481" lon="6.56486">
        <ele>1984</ele>
        <time>2022-07-27T11:21:25Z</time>
      </trkpt>
      <trkpt lat="45.64811" lon="6.56485">
        <ele>1984</ele>
        <time>2022-07-27T11:21:26Z</time>
      </trkpt>
      <trkpt lat="45.64812" lon="6.56485">
        <ele>1984</ele>
        <time>2022-07-27T11:21:27Z</time>
      </trkpt>
      <trkpt lat="45.64813" lon="6.56485">
        <ele>1984</ele>
        <time>2022-07-27T11:21:28Z</time>
      </trkpt>
      <trkpt lat="45.64813" lon="6.56484">
        <ele>1984</ele>
        <time>2022-07-27T11:21:29Z</time>
      </trkpt>
      <trkpt lat="45.64814" lon="6.56484">
        <ele>1984</ele>
        <time>2022-07-27T11:21:30Z</time>
      </trkpt>
      <trkpt lat="45.64815" lon="6.56484">
        <ele>1984</ele>
        <time>2022-07-27T11:21:31Z</time>
      </trkpt>
      <trkpt lat="45.64816" lon="6.56483">
        <ele>1984</ele>
        <time>2022-07-27T11:21:32Z</time>
      </trkpt>
      <trkpt lat="45.64817" lon="6.56483">
        <ele>1984</ele>
        <time>2022-07-27T11:21:33Z</time>
      </trkpt>
      <trkpt lat="45.64818" lon="6.56482">
        <ele>1984</ele>
        <time>2022-07-27T11:21:34Z</time>
      </trkpt>
      <trkpt lat="45.64819" lon="6.56481">
        <ele>1984</ele>
        <time>2022-07-27T11:21:35Z</time>
      </trkpt>
      <trkpt lat="45.6482" lon="6.56481">
        <ele>1984</ele>
        <time>2022-07-27T11:21:36Z</time>
      </trkpt>
      <trkpt lat="45.6482" lon="6.5648">
        <ele>1984</ele>
        <time>2022-07-27T11:21:37Z</time>
      </trkpt>
      <trkpt lat="45.64821" lon="6.56479">
        <ele>1984</ele>
        <time>2022-07-27T11:21:38Z</time>
      </trkpt>
      <trkpt lat="45.64822" lon="6.56479">
        <ele>1984</ele>
        <time>2022-07-27T11:21:39Z</time>
      </trkpt>
      <trkpt lat="45.64823" lon="6.56478">
        <ele>1985</ele>
        <time>2022-07-27T11:21:40Z</time>
      </trkpt>
      <trkpt lat="45.64824" lon="6.56478">
        <ele>1985</ele>
        <time>2022-07-27T11:21:41Z</time>
      </trkpt>
      <trkpt lat="45.64825" lon="6.56477">
        <ele>1985</ele>
        <time>2022-07-27T11:21:42Z</time>
      </trkpt>
      <trkpt lat="45.64825" lon="6.56477">
        <ele>1985</ele>
        <time>2022-07-27T11:21:43Z</time>
      </trkpt>
      <trkpt lat="45.64826" lon="6.56476">
        <ele>1985</ele>
        <time>2022-07-27T11:21:44Z</time>
      </trkpt>
      <trkpt lat="45.64827" lon="6.56476">
        <ele>1985</ele>
        <time>2022-07-27T11:21:45Z</time>
      </trkpt>
      <trkpt lat="45.64828" lon="6.56475">
        <ele>1985</ele>
        <time>2022-07-27T11:21:46Z</time>
      </trkpt>
      <trkpt lat="45.64829" lon="6.56475">
        <ele>1985</ele>
        <time>2022-07-27T11:21:47Z</time>
      </trkpt>
      <trkpt lat="45.6483" lon="6.56475">
        <ele>1985</ele>
        <time>2022-07-27T11:21:48Z</time>
      </trkpt>
      <trkpt lat="45.6483" lon="6.56474">
        <ele>1985</ele>
        <time>2022-07-27T11:21:49Z</time>
      </trkpt>
      <trkpt lat="45.64831" lon="6.56474">
        <ele>1986</ele>
        <time>2022-07-27T11:21:50Z</time>
      </trkpt>
      <trkpt lat="45.64832" lon="6.56474">
        <ele>1986</ele>
        <time>2022-07-27T11:21:51Z</time>
      </trkpt>
      <trkpt lat="45.64833" lon="6.56473">
        <ele>1986</ele>
        <time>2022-07-27T11:21:52Z</time>
      </trkpt>
      <trkpt lat="45.64834" lon="6.56473">
        <ele>1986</ele>
        <time>2022-07-27T11:21:53Z</time>
      </trkpt>
      <trkpt lat="45.64835" lon="6.56473">
        <ele>1986</ele>
        <time>2022-07-27T11:21:54Z</time>
      </trkpt>
      <trkpt lat="45.64836" lon="6.56473">
        <ele>1986</ele>
        <time>2022-07-27T11:21:55Z</time>
      </trkpt>
      <trkpt lat="45.64837" lon="6.56472">
        <ele>1986</ele>
        <time>2022-07-27T11:21:56Z</time>
      </trkpt>
      <trkpt lat="45.64838" lon="6.56472">
        <ele>1986</ele>
        <time>2022-07-27T11:21:57Z</time>
      </trkpt>
      <trkpt lat="45.64839" lon="6.56472">
        <ele>1986</ele>
        <time>2022-07-27T11:21:58Z</time>
      </trkpt>
      <trkpt lat="45.6484" lon="6.56472">
        <ele>1986</ele>
        <time>2022-07-27T11:21:59Z</time>
      </trkpt>
      <trkpt lat="45.64841" lon="6.56472">
        <ele>1987</ele>
        <time>2022-07-27T11:22:00Z</time>
      </trkpt>
      <trkpt lat="45.64841" lon="6.56472">
        <ele>1987</ele>
        <time>2022-07-27T11:22:01Z</time>
      </trkpt>
      <trkpt lat="45.64842" lon="6.56472">
        <ele>1987</ele>
        <time>2022-07-27T11:22:02Z</time>
      </trkpt>
      <trkpt lat="45.64843" lon="6.56473">
        <ele>1987</ele>
        <time>2022-07-27T11:22:03Z</time>
      </trkpt>
      <trkpt lat="45.64844" lon="6.56473">
        <ele>1987</ele>
        <time>2022-07-27T11:22:04Z</time>
      </trkpt>
      <trkpt lat="45.64845" lon="6.56473">
        <ele>1987</ele>
        <time>2022-07-27T11:22:05Z</time>
      </trkpt>
      <trkpt lat="45.64845" lon="6.56473">
        <ele>1987</ele>
        <time>2022-07-27T11:22:06Z</time>
      </trkpt>
      <trkpt lat="45.64846" lon="6.56473">
        <ele>1987</ele>
        <time>2022-07-27T11:22:07Z</time>
      </trkpt>
      <trkpt lat="45.64847" lon="6.56473">
        <ele>1987</ele>
        <time>2022-07-27T11:22:08Z</time>
      </trkpt>
      <trkpt lat="45.64848" lon="6.56473">
        <ele>1987</ele>
        <time>2022-07-27T11:22:09Z</time>
      </trkpt>
      <trkpt lat="45.64849" lon="6.56473">
        <ele>1987</ele>
        <time>2022-07-27T11:22:10Z</time>
      </trkpt>
      <trkpt lat="45.6485" lon="6.56473">
        <ele>1987</ele>
        <time>2022-07-27T11:22:11Z</time>
      </trkpt>
      <trkpt lat="45.64851" lon="6.56473">
        <ele>1987</ele>
        <time>2022-07-27T11:22:12Z</time>
      </trkpt>
      <trkpt lat="45.64852" lon="6.56473">
        <ele>1987</ele>
        <time>2022-07-27T11:22:13Z</time>
      </trkpt>
      <trkpt lat="45.64852" lon="6.56474">
        <ele>1987</ele>
        <time>2022-07-27T11:22:14Z</time>
      </trkpt>
      <trkpt lat="45.64853" lon="6.56474">
        <ele>1988</ele>
        <time>2022-07-27T11:22:15Z</time>
      </trkpt>
      <trkpt lat="45.64854" lon="6.56474">
        <ele>1988</ele>
        <time>2022-07-27T11:22:16Z</time>
      </trkpt>
      <trkpt lat="45.64855" lon="6.56474">
        <ele>1988</ele>
        <time>2022-07-27T11:22:17Z</time>
      </trkpt>
      <trkpt lat="45.64855" lon="6.56475">
        <ele>1988</ele>
        <time>2022-07-27T11:22:18Z</time>
      </trkpt>
      <trkpt lat="45.64856" lon="6.56475">
        <ele>1988</ele>
        <time>2022-07-27T11:22:19Z</time>
      </trkpt>
      <trkpt lat="45.64857" lon="6.56475">
        <ele>1988</ele>
        <time>2022-07-27T11:22:20Z</time>
      </trkpt>
      <trkpt lat="45.64858" lon="6.56476">
        <ele>1988</ele>
        <time>2022-07-27T11:22:21Z</time>
      </trkpt>
      <trkpt lat="45.64859" lon="6.56476">
        <ele>1988</ele>
        <time>2022-07-27T11:22:22Z</time>
      </trkpt>
      <trkpt lat="45.6486" lon="6.56476">
        <ele>1988</ele>
        <time>2022-07-27T11:22:23Z</time>
      </trkpt>
      <trkpt lat="45.64861" lon="6.56477">
        <ele>1988</ele>
        <time>2022-07-27T11:22:24Z</time>
      </trkpt>
      <trkpt lat="45.64862" lon="6.56477">
        <ele>1989</ele>
        <time>2022-07-27T11:22:25Z</time>
      </trkpt>
      <trkpt lat="45.64862" lon="6.56477">
        <ele>1989</ele>
        <time>2022-07-27T11:22:26Z</time>
      </trkpt>
      <trkpt lat="45.64863" lon="6.56478">
        <ele>1989</ele>
        <time>2022-07-27T11:22:27Z</time>
      </trkpt>
      <trkpt lat="45.64864" lon="6.56478">
        <ele>1989</ele>
        <time>2022-07-27T11:22:28Z</time>
      </trkpt>
      <trkpt lat="45.64865" lon="6.56478">
        <ele>1989</ele>
        <time>2022-07-27T11:22:29Z</time>
      </trkpt>
      <trkpt lat="45.64866" lon="6.56479">
        <ele>1989</ele>
        <time>2022-07-27T11:22:30Z</time>
      </trkpt>
      <trkpt lat="45.64867" lon="6.56479">
        <ele>1989</ele>
        <time>2022-07-27T11:22:31Z</time>
      </trkpt>
      <trkpt lat="45.64867" lon="6.56479">
        <ele>1989</ele>
        <time>2022-07-27T11:22:32Z</time>
      </trkpt>
      <trkpt lat="45.64868" lon="6.5648">
        <ele>1989</ele>
        <time>2022-07-27T11:22:33Z</time>
      </trkpt>
      <trkpt lat="45.64869" lon="6.5648">
        <ele>1989</ele>
        <time>2022-07-27T11:22:34Z</time>
      </trkpt>
      <trkpt lat="45.6487" lon="6.5648">
        <ele>1990</ele>
        <time>2022-07-27T11:22:35Z</time>
      </trkpt>
      <trkpt lat="45.64871" lon="6.56481">
        <ele>1990</ele>
        <time>2022-07-27T11:22:36Z</time>
      </trkpt>
      <trkpt lat="45.64872" lon="6.56481">
        <ele>1990</ele>
        <time>2022-07-27T11:22:37Z</time>
      </trkpt>
      <trkpt lat="45.64873" lon="6.56481">
        <ele>1990</ele>
        <time>2022-07-27T11:22:38Z</time>
      </trkpt>
      <trkpt lat="45.64874" lon="6.56482">
        <ele>1990</ele>
        <time>2022-07-27T11:22:39Z</time>
      </trkpt>
      <trkpt lat="45.64874" lon="6.56482">
        <ele>1990</ele>
        <time>2022-07-27T11:22:40Z</time>
      </trkpt>
      <trkpt lat="45.64875" lon="6.56483">
        <ele>1990</ele>
        <time>2022-07-27T11:22:41Z</time>
      </trkpt>
      <trkpt lat="45.64876" lon="6.56483">
        <ele>1990</ele>
        <time>2022-07-27T11:22:42Z</time>
      </trkpt>
      <trkpt lat="45.64877" lon="6.56483">
        <ele>1990</ele>
        <time>2022-07-27T11:22:43Z</time>
      </trkpt>
      <trkpt lat="45.64878" lon="6.56484">
        <ele>1990</ele>
        <time>2022-07-27T11:22:44Z</time>
      </trkpt>
      <trkpt lat="45.64878" lon="6.56484">
        <ele>1990</ele>
        <time>2022-07-27T11:22:45Z</time>
      </trkpt>
      <trkpt lat="45.64879" lon="6.56484">
        <ele>1990</ele>
        <time>2022-07-27T11:22:46Z</time>
      </trkpt>
      <trkpt lat="45.6488" lon="6.56485">
        <ele>1990</ele>
        <time>2022-07-27T11:22:47Z</time>
      </trkpt>
      <trkpt lat="45.64881" lon="6.56485">
        <ele>1990</ele>
        <time>2022-07-27T11:22:48Z</time>
      </trkpt>
      <trkpt lat="45.64881" lon="6.56485">
        <ele>1990</ele>
        <time>2022-07-27T11:22:49Z</time>
      </trkpt>
      <trkpt lat="45.64882" lon="6.56486">
        <ele>1991</ele>
        <time>2022-07-27T11:22:50Z</time>
      </trkpt>
      <trkpt lat="45.64883" lon="6.56486">
        <ele>1991</ele>
        <time>2022-07-27T11:22:51Z</time>
      </trkpt>
      <trkpt lat="45.64883" lon="6.56486">
        <ele>1991</ele>
        <time>2022-07-27T11:22:52Z</time>
      </trkpt>
      <trkpt lat="45.64884" lon="6.56487">
        <ele>1991</ele>
        <time>2022-07-27T11:22:53Z</time>
      </trkpt>
      <trkpt lat="45.64885" lon="6.56487">
        <ele>1991</ele>
        <time>2022-07-27T11:22:54Z</time>
      </trkpt>
      <trkpt lat="45.64886" lon="6.56487">
        <ele>1991</ele>
        <time>2022-07-27T11:22:55Z</time>
      </trkpt>
      <trkpt lat="45.64887" lon="6.56488">
        <ele>1991</ele>
        <time>2022-07-27T11:22:56Z</time>
      </trkpt>
      <trkpt lat="45.64887" lon="6.56488">
        <ele>1991</ele>
        <time>2022-07-27T11:22:57Z</time>
      </trkpt>
      <trkpt lat="45.64888" lon="6.56488">
        <ele>1991</ele>
        <time>2022-07-27T11:22:58Z</time>
      </trkpt>
      <trkpt lat="45.64889" lon="6.56488">
        <ele>1991</ele>
        <time>2022-07-27T11:22:59Z</time>
      </trkpt>
      <trkpt lat="45.6489" lon="6.56489">
        <ele>1991</ele>
        <time>2022-07-27T11:23:00Z</time>
      </trkpt>
      <trkpt lat="45.64891" lon="6.56489">
        <ele>1991</ele>
        <time>2022-07-27T11:23:01Z</time>
      </trkpt>
      <trkpt lat="45.64892" lon="6.56489">
        <ele>1991</ele>
        <time>2022-07-27T11:23:02Z</time>
      </trkpt>
      <trkpt lat="45.64893" lon="6.56489">
        <ele>1991</ele>
        <time>2022-07-27T11:23:03Z</time>
      </trkpt>
      <trkpt lat="45.64894" lon="6.56489">
        <ele>1991</ele>
        <time>2022-07-27T11:23:04Z</time>
      </trkpt>
      <trkpt lat="45.64895" lon="6.56489">
        <ele>1991</ele>
        <time>2022-07-27T11:23:05Z</time>
      </trkpt>
      <trkpt lat="45.64896" lon="6.56488">
        <ele>1991</ele>
        <time>2022-07-27T11:23:06Z</time>
      </trkpt>
      <trkpt lat="45.64897" lon="6.56488">
        <ele>1991</ele>
        <time>2022-07-27T11:23:07Z</time>
      </trkpt>
      <trkpt lat="45.64898" lon="6.56488">
        <ele>1991</ele>
        <time>2022-07-27T11:23:08Z</time>
      </trkpt>
      <trkpt lat="45.64899" lon="6.56488">
        <ele>1991</ele>
        <time>2022-07-27T11:23:09Z</time>
      </trkpt>
      <trkpt lat="45.64901" lon="6.56488">
        <ele>1992</ele>
        <time>2022-07-27T11:23:23Z</time>
      </trkpt>
      <trkpt lat="45.64901" lon="6.56488">
        <ele>1992</ele>
        <time>2022-07-27T11:23:24Z</time>
      </trkpt>
      <trkpt lat="45.64902" lon="6.56487">
        <ele>1992</ele>
        <time>2022-07-27T11:23:25Z</time>
      </trkpt>
      <trkpt lat="45.64902" lon="6.56487">
        <ele>1992</ele>
        <time>2022-07-27T11:23:26Z</time>
      </trkpt>
      <trkpt lat="45.64903" lon="6.56487">
        <ele>1992</ele>
        <time>2022-07-27T11:23:27Z</time>
      </trkpt>
      <trkpt lat="45.64904" lon="6.56487">
        <ele>1992</ele>
        <time>2022-07-27T11:23:28Z</time>
      </trkpt>
      <trkpt lat="45.64905" lon="6.56487">
        <ele>1992</ele>
        <time>2022-07-27T11:23:29Z</time>
      </trkpt>
      <trkpt lat="45.64906" lon="6.56487">
        <ele>1993</ele>
        <time>2022-07-27T11:23:30Z</time>
      </trkpt>
      <trkpt lat="45.64907" lon="6.56487">
        <ele>1993</ele>
        <time>2022-07-27T11:23:31Z</time>
      </trkpt>
      <trkpt lat="45.64908" lon="6.56487">
        <ele>1993</ele>
        <time>2022-07-27T11:23:32Z</time>
      </trkpt>
      <trkpt lat="45.64909" lon="6.56487">
        <ele>1993</ele>
        <time>2022-07-27T11:23:33Z</time>
      </trkpt>
      <trkpt lat="45.6491" lon="6.56488">
        <ele>1993</ele>
        <time>2022-07-27T11:24:12Z</time>
      </trkpt>
      <trkpt lat="45.64911" lon="6.56488">
        <ele>1993</ele>
        <time>2022-07-27T11:24:13Z</time>
      </trkpt>
      <trkpt lat="45.64911" lon="6.56489">
        <ele>1993</ele>
        <time>2022-07-27T11:24:14Z</time>
      </trkpt>
      <trkpt lat="45.64912" lon="6.56489">
        <ele>1993</ele>
        <time>2022-07-27T11:24:15Z</time>
      </trkpt>
      <trkpt lat="45.64912" lon="6.5649">
        <ele>1993</ele>
        <time>2022-07-27T11:24:16Z</time>
      </trkpt>
      <trkpt lat="45.64912" lon="6.5649">
        <ele>1993</ele>
        <time>2022-07-27T11:24:17Z</time>
      </trkpt>
      <trkpt lat="45.64912" lon="6.56491">
        <ele>1993</ele>
        <time>2022-07-27T11:24:18Z</time>
      </trkpt>
      <trkpt lat="45.64912" lon="6.56491">
        <ele>1993</ele>
        <time>2022-07-27T11:24:19Z</time>
      </trkpt>
      <trkpt lat="45.64912" lon="6.56491">
        <ele>1993</ele>
        <time>2022-07-27T11:24:20Z</time>
      </trkpt>
      <trkpt lat="45.64913" lon="6.56491">
        <ele>1993</ele>
        <time>2022-07-27T11:24:21Z</time>
      </trkpt>
      <trkpt lat="45.64913" lon="6.56492">
        <ele>1993</ele>
        <time>2022-07-27T11:24:22Z</time>
      </trkpt>
      <trkpt lat="45.64914" lon="6.56492">
        <ele>1993</ele>
        <time>2022-07-27T11:24:23Z</time>
      </trkpt>
      <trkpt lat="45.64915" lon="6.56492">
        <ele>1993</ele>
        <time>2022-07-27T11:24:24Z</time>
      </trkpt>
      <trkpt lat="45.64915" lon="6.56492">
        <ele>1993</ele>
        <time>2022-07-27T11:24:25Z</time>
      </trkpt>
      <trkpt lat="45.64916" lon="6.56492">
        <ele>1993</ele>
        <time>2022-07-27T11:24:26Z</time>
      </trkpt>
      <trkpt lat="45.64917" lon="6.56491">
        <ele>1993</ele>
        <time>2022-07-27T11:24:27Z</time>
      </trkpt>
      <trkpt lat="45.64918" lon="6.56491">
        <ele>1993</ele>
        <time>2022-07-27T11:24:28Z</time>
      </trkpt>
      <trkpt lat="45.64918" lon="6.56491">
        <ele>1993</ele>
        <time>2022-07-27T11:24:29Z</time>
      </trkpt>
      <trkpt lat="45.64919" lon="6.56491">
        <ele>1993</ele>
        <time>2022-07-27T11:24:30Z</time>
      </trkpt>
      <trkpt lat="45.6492" lon="6.56492">
        <ele>1994</ele>
        <time>2022-07-27T11:24:57Z</time>
      </trkpt>
      <trkpt lat="45.6492" lon="6.56492">
        <ele>1994</ele>
        <time>2022-07-27T11:24:58Z</time>
      </trkpt>
      <trkpt lat="45.6492" lon="6.56493">
        <ele>1994</ele>
        <time>2022-07-27T11:24:59Z</time>
      </trkpt>
      <trkpt lat="45.64919" lon="6.56493">
        <ele>1994</ele>
        <time>2022-07-27T11:25:00Z</time>
      </trkpt>
      <trkpt lat="45.64918" lon="6.56493">
        <ele>1994</ele>
        <time>2022-07-27T11:25:01Z</time>
      </trkpt>
      <trkpt lat="45.64917" lon="6.56493">
        <ele>1994</ele>
        <time>2022-07-27T11:25:02Z</time>
      </trkpt>
      <trkpt lat="45.64916" lon="6.56493">
        <ele>1994</ele>
        <time>2022-07-27T11:25:03Z</time>
      </trkpt>
      <trkpt lat="45.64915" lon="6.56493">
        <ele>1994</ele>
        <time>2022-07-27T11:25:19Z</time>
      </trkpt>
      <trkpt lat="45.64915" lon="6.56494">
        <ele>1994</ele>
        <time>2022-07-27T11:25:20Z</time>
      </trkpt>
      <trkpt lat="45.64915" lon="6.56494">
        <ele>1994</ele>
        <time>2022-07-27T11:25:21Z</time>
      </trkpt>
      <trkpt lat="45.64916" lon="6.56495">
        <ele>1994</ele>
        <time>2022-07-27T11:25:22Z</time>
      </trkpt>
      <trkpt lat="45.64917" lon="6.56495">
        <ele>1994</ele>
        <time>2022-07-27T11:25:23Z</time>
      </trkpt>
      <trkpt lat="45.64913" lon="6.56477">
        <ele>1995</ele>
        <time>2022-07-27T12:26:55Z</time>
      </trkpt>
      <trkpt lat="45.64914" lon="6.56477">
        <ele>1995</ele>
        <time>2022-07-27T12:26:56Z</time>
      </trkpt>
      <trkpt lat="45.64914" lon="6.56476">
        <ele>1995</ele>
        <time>2022-07-27T12:26:57Z</time>
      </trkpt>
      <trkpt lat="45.64914" lon="6.56476">
        <ele>1995</ele>
        <time>2022-07-27T12:26:58Z</time>
      </trkpt>
      <trkpt lat="45.64914" lon="6.56475">
        <ele>1995</ele>
        <time>2022-07-27T12:26:59Z</time>
      </trkpt>
      <trkpt lat="45.64914" lon="6.56475">
        <ele>1995</ele>
        <time>2022-07-27T12:27:00Z</time>
      </trkpt>
      <trkpt lat="45.64915" lon="6.56474">
        <ele>1995</ele>
        <time>2022-07-27T12:27:01Z</time>
      </trkpt>
      <trkpt lat="45.64915" lon="6.56474">
        <ele>1995</ele>
        <time>2022-07-27T12:27:02Z</time>
      </trkpt>
      <trkpt lat="45.64916" lon="6.56473">
        <ele>1995</ele>
        <time>2022-07-27T12:27:03Z</time>
      </trkpt>
      <trkpt lat="45.64916" lon="6.56472">
        <ele>1995</ele>
        <time>2022-07-27T12:27:04Z</time>
      </trkpt>
      <trkpt lat="45.64917" lon="6.56472">
        <ele>1995</ele>
        <time>2022-07-27T12:27:05Z</time>
      </trkpt>
      <trkpt lat="45.64918" lon="6.56471">
        <ele>1995</ele>
        <time>2022-07-27T12:27:06Z</time>
      </trkpt>
      <trkpt lat="45.64918" lon="6.5647">
        <ele>1995</ele>
        <time>2022-07-27T12:27:07Z</time>
      </trkpt>
      <trkpt lat="45.64919" lon="6.5647">
        <ele>1995</ele>
        <time>2022-07-27T12:27:08Z</time>
      </trkpt>
      <trkpt lat="45.6492" lon="6.56469">
        <ele>1995</ele>
        <time>2022-07-27T12:27:09Z</time>
      </trkpt>
      <trkpt lat="45.6492" lon="6.56468">
        <ele>1995</ele>
        <time>2022-07-27T12:27:10Z</time>
      </trkpt>
      <trkpt lat="45.64921" lon="6.56467">
        <ele>1995</ele>
        <time>2022-07-27T12:27:11Z</time>
      </trkpt>
      <trkpt lat="45.64921" lon="6.56467">
        <ele>1995</ele>
        <time>2022-07-27T12:27:12Z</time>
      </trkpt>
      <trkpt lat="45.64922" lon="6.56466">
        <ele>1995</ele>
        <time>2022-07-27T12:27:13Z</time>
      </trkpt>
      <trkpt lat="45.64923" lon="6.56465">
        <ele>1995</ele>
        <time>2022-07-27T12:27:14Z</time>
      </trkpt>
      <trkpt lat="45.64923" lon="6.56465">
        <ele>1995</ele>
        <time>2022-07-27T12:27:15Z</time>
      </trkpt>
      <trkpt lat="45.64924" lon="6.56464">
        <ele>1995</ele>
        <time>2022-07-27T12:27:16Z</time>
      </trkpt>
      <trkpt lat="45.64924" lon="6.56464">
        <ele>1995</ele>
        <time>2022-07-27T12:27:17Z</time>
      </trkpt>
      <trkpt lat="45.64925" lon="6.56463">
        <ele>1995</ele>
        <time>2022-07-27T12:27:18Z</time>
      </trkpt>
      <trkpt lat="45.64925" lon="6.56462">
        <ele>1995</ele>
        <time>2022-07-27T12:27:19Z</time>
      </trkpt>
      <trkpt lat="45.64926" lon="6.56462">
        <ele>1995</ele>
        <time>2022-07-27T12:27:20Z</time>
      </trkpt>
      <trkpt lat="45.64927" lon="6.56461">
        <ele>1995</ele>
        <time>2022-07-27T12:27:21Z</time>
      </trkpt>
      <trkpt lat="45.64927" lon="6.5646">
        <ele>1995</ele>
        <time>2022-07-27T12:27:22Z</time>
      </trkpt>
      <trkpt lat="45.64928" lon="6.5646">
        <ele>1995</ele>
        <time>2022-07-27T12:27:23Z</time>
      </trkpt>
      <trkpt lat="45.64929" lon="6.56459">
        <ele>1995</ele>
        <time>2022-07-27T12:27:24Z</time>
      </trkpt>
      <trkpt lat="45.64929" lon="6.56458">
        <ele>1996</ele>
        <time>2022-07-27T12:27:25Z</time>
      </trkpt>
      <trkpt lat="45.6493" lon="6.56457">
        <ele>1996</ele>
        <time>2022-07-27T12:27:26Z</time>
      </trkpt>
      <trkpt lat="45.64931" lon="6.56457">
        <ele>1996</ele>
        <time>2022-07-27T12:27:27Z</time>
      </trkpt>
      <trkpt lat="45.64932" lon="6.56456">
        <ele>1996</ele>
        <time>2022-07-27T12:27:28Z</time>
      </trkpt>
      <trkpt lat="45.64932" lon="6.56455">
        <ele>1996</ele>
        <time>2022-07-27T12:27:29Z</time>
      </trkpt>
      <trkpt lat="45.64933" lon="6.56455">
        <ele>1996</ele>
        <time>2022-07-27T12:27:30Z</time>
      </trkpt>
      <trkpt lat="45.64933" lon="6.56454">
        <ele>1996</ele>
        <time>2022-07-27T12:27:31Z</time>
      </trkpt>
      <trkpt lat="45.64934" lon="6.56454">
        <ele>1996</ele>
        <time>2022-07-27T12:27:32Z</time>
      </trkpt>
      <trkpt lat="45.64935" lon="6.56453">
        <ele>1996</ele>
        <time>2022-07-27T12:27:33Z</time>
      </trkpt>
      <trkpt lat="45.64936" lon="6.56453">
        <ele>1996</ele>
        <time>2022-07-27T12:27:34Z</time>
      </trkpt>
      <trkpt lat="45.64936" lon="6.56452">
        <ele>1996</ele>
        <time>2022-07-27T12:27:35Z</time>
      </trkpt>
      <trkpt lat="45.64937" lon="6.56451">
        <ele>1996</ele>
        <time>2022-07-27T12:27:36Z</time>
      </trkpt>
      <trkpt lat="45.64938" lon="6.56451">
        <ele>1996</ele>
        <time>2022-07-27T12:27:37Z</time>
      </trkpt>
      <trkpt lat="45.64938" lon="6.5645">
        <ele>1996</ele>
        <time>2022-07-27T12:27:38Z</time>
      </trkpt>
      <trkpt lat="45.64939" lon="6.56449">
        <ele>1996</ele>
        <time>2022-07-27T12:27:39Z</time>
      </trkpt>
      <trkpt lat="45.6494" lon="6.56449">
        <ele>1996</ele>
        <time>2022-07-27T12:27:40Z</time>
      </trkpt>
      <trkpt lat="45.6494" lon="6.56448">
        <ele>1996</ele>
        <time>2022-07-27T12:27:41Z</time>
      </trkpt>
      <trkpt lat="45.64941" lon="6.56447">
        <ele>1996</ele>
        <time>2022-07-27T12:27:42Z</time>
      </trkpt>
      <trkpt lat="45.64942" lon="6.56447">
        <ele>1996</ele>
        <time>2022-07-27T12:27:43Z</time>
      </trkpt>
      <trkpt lat="45.64942" lon="6.56446">
        <ele>1996</ele>
        <time>2022-07-27T12:27:44Z</time>
      </trkpt>
      <trkpt lat="45.64943" lon="6.56445">
        <ele>1996</ele>
        <time>2022-07-27T12:27:45Z</time>
      </trkpt>
      <trkpt lat="45.64943" lon="6.56444">
        <ele>1996</ele>
        <time>2022-07-27T12:27:46Z</time>
      </trkpt>
      <trkpt lat="45.64944" lon="6.56443">
        <ele>1996</ele>
        <time>2022-07-27T12:27:47Z</time>
      </trkpt>
      <trkpt lat="45.64944" lon="6.56442">
        <ele>1996</ele>
        <time>2022-07-27T12:27:48Z</time>
      </trkpt>
      <trkpt lat="45.64945" lon="6.56442">
        <ele>1996</ele>
        <time>2022-07-27T12:27:49Z</time>
      </trkpt>
      <trkpt lat="45.64945" lon="6.56441">
        <ele>1997</ele>
        <time>2022-07-27T12:27:50Z</time>
      </trkpt>
      <trkpt lat="45.64946" lon="6.5644">
        <ele>1997</ele>
        <time>2022-07-27T12:27:51Z</time>
      </trkpt>
      <trkpt lat="45.64947" lon="6.56439">
        <ele>1997</ele>
        <time>2022-07-27T12:27:52Z</time>
      </trkpt>
      <trkpt lat="45.64947" lon="6.56438">
        <ele>1997</ele>
        <time>2022-07-27T12:27:53Z</time>
      </trkpt>
      <trkpt lat="45.64948" lon="6.56437">
        <ele>1997</ele>
        <time>2022-07-27T12:27:54Z</time>
      </trkpt>
      <trkpt lat="45.64948" lon="6.56436">
        <ele>1997</ele>
        <time>2022-07-27T12:27:55Z</time>
      </trkpt>
      <trkpt lat="45.64949" lon="6.56435">
        <ele>1997</ele>
        <time>2022-07-27T12:27:56Z</time>
      </trkpt>
      <trkpt lat="45.64949" lon="6.56434">
        <ele>1997</ele>
        <time>2022-07-27T12:27:57Z</time>
      </trkpt>
      <trkpt lat="45.6495" lon="6.56433">
        <ele>1997</ele>
        <time>2022-07-27T12:27:58Z</time>
      </trkpt>
      <trkpt lat="45.6495" lon="6.56432">
        <ele>1997</ele>
        <time>2022-07-27T12:27:59Z</time>
      </trkpt>
      <trkpt lat="45.64951" lon="6.56432">
        <ele>1997</ele>
        <time>2022-07-27T12:28:00Z</time>
      </trkpt>
      <trkpt lat="45.64951" lon="6.56431">
        <ele>1997</ele>
        <time>2022-07-27T12:28:01Z</time>
      </trkpt>
      <trkpt lat="45.64952" lon="6.5643">
        <ele>1997</ele>
        <time>2022-07-27T12:28:02Z</time>
      </trkpt>
      <trkpt lat="45.64952" lon="6.56429">
        <ele>1997</ele>
        <time>2022-07-27T12:28:03Z</time>
      </trkpt>
      <trkpt lat="45.64953" lon="6.56428">
        <ele>1997</ele>
        <time>2022-07-27T12:28:04Z</time>
      </trkpt>
      <trkpt lat="45.64953" lon="6.56427">
        <ele>1997</ele>
        <time>2022-07-27T12:28:05Z</time>
      </trkpt>
      <trkpt lat="45.64954" lon="6.56426">
        <ele>1997</ele>
        <time>2022-07-27T12:28:06Z</time>
      </trkpt>
      <trkpt lat="45.64954" lon="6.56425">
        <ele>1997</ele>
        <time>2022-07-27T12:28:07Z</time>
      </trkpt>
      <trkpt lat="45.64955" lon="6.56424">
        <ele>1997</ele>
        <time>2022-07-27T12:28:08Z</time>
      </trkpt>
      <trkpt lat="45.64955" lon="6.56423">
        <ele>1997</ele>
        <time>2022-07-27T12:28:09Z</time>
      </trkpt>
      <trkpt lat="45.64955" lon="6.56422">
        <ele>1998</ele>
        <time>2022-07-27T12:28:10Z</time>
      </trkpt>
      <trkpt lat="45.64956" lon="6.56421">
        <ele>1998</ele>
        <time>2022-07-27T12:28:11Z</time>
      </trkpt>
      <trkpt lat="45.64956" lon="6.5642">
        <ele>1998</ele>
        <time>2022-07-27T12:28:12Z</time>
      </trkpt>
      <trkpt lat="45.64957" lon="6.5642">
        <ele>1998</ele>
        <time>2022-07-27T12:28:13Z</time>
      </trkpt>
      <trkpt lat="45.64957" lon="6.56419">
        <ele>1998</ele>
        <time>2022-07-27T12:28:14Z</time>
      </trkpt>
      <trkpt lat="45.64957" lon="6.56418">
        <ele>1998</ele>
        <time>2022-07-27T12:28:15Z</time>
      </trkpt>
      <trkpt lat="45.64958" lon="6.56417">
        <ele>1998</ele>
        <time>2022-07-27T12:28:16Z</time>
      </trkpt>
      <trkpt lat="45.64958" lon="6.56416">
        <ele>1998</ele>
        <time>2022-07-27T12:28:17Z</time>
      </trkpt>
      <trkpt lat="45.64958" lon="6.56415">
        <ele>1998</ele>
        <time>2022-07-27T12:28:18Z</time>
      </trkpt>
      <trkpt lat="45.64958" lon="6.56414">
        <ele>1998</ele>
        <time>2022-07-27T12:28:19Z</time>
      </trkpt>
      <trkpt lat="45.64959" lon="6.56414">
        <ele>1998</ele>
        <time>2022-07-27T12:28:20Z</time>
      </trkpt>
      <trkpt lat="45.64959" lon="6.56413">
        <ele>1998</ele>
        <time>2022-07-27T12:28:21Z</time>
      </trkpt>
      <trkpt lat="45.64959" lon="6.56412">
        <ele>1998</ele>
        <time>2022-07-27T12:28:22Z</time>
      </trkpt>
      <trkpt lat="45.6496" lon="6.56411">
        <ele>1998</ele>
        <time>2022-07-27T12:28:23Z</time>
      </trkpt>
      <trkpt lat="45.6496" lon="6.5641">
        <ele>1998</ele>
        <time>2022-07-27T12:28:24Z</time>
      </trkpt>
      <trkpt lat="45.64961" lon="6.56409">
        <ele>1999</ele>
        <time>2022-07-27T12:28:25Z</time>
      </trkpt>
      <trkpt lat="45.64961" lon="6.56408">
        <ele>1999</ele>
        <time>2022-07-27T12:28:26Z</time>
      </trkpt>
      <trkpt lat="45.64961" lon="6.56407">
        <ele>1999</ele>
        <time>2022-07-27T12:28:27Z</time>
      </trkpt>
      <trkpt lat="45.64962" lon="6.56406">
        <ele>1999</ele>
        <time>2022-07-27T12:28:28Z</time>
      </trkpt>
      <trkpt lat="45.64962" lon="6.56405">
        <ele>1999</ele>
        <time>2022-07-27T12:28:29Z</time>
      </trkpt>
      <trkpt lat="45.64963" lon="6.56404">
        <ele>1999</ele>
        <time>2022-07-27T12:28:30Z</time>
      </trkpt>
      <trkpt lat="45.64963" lon="6.56403">
        <ele>1999</ele>
        <time>2022-07-27T12:28:31Z</time>
      </trkpt>
      <trkpt lat="45.64963" lon="6.56402">
        <ele>1999</ele>
        <time>2022-07-27T12:28:32Z</time>
      </trkpt>
      <trkpt lat="45.64963" lon="6.56401">
        <ele>1999</ele>
        <time>2022-07-27T12:28:33Z</time>
      </trkpt>
      <trkpt lat="45.64964" lon="6.56401">
        <ele>1999</ele>
        <time>2022-07-27T12:28:34Z</time>
      </trkpt>
      <trkpt lat="45.64964" lon="6.56401">
        <ele>1999</ele>
        <time>2022-07-27T12:28:35Z</time>
      </trkpt>
      <trkpt lat="45.64964" lon="6.56401">
        <ele>1999</ele>
        <time>2022-07-27T12:28:36Z</time>
      </trkpt>
      <trkpt lat="45.64964" lon="6.56401">
        <ele>1999</ele>
        <time>2022-07-27T12:28:37Z</time>
      </trkpt>
      <trkpt lat="45.64964" lon="6.564">
        <ele>1999</ele>
        <time>2022-07-27T12:28:38Z</time>
      </trkpt>
      <trkpt lat="45.64964" lon="6.56399">
        <ele>1999</ele>
        <time>2022-07-27T12:28:39Z</time>
      </trkpt>
      <trkpt lat="45.64965" lon="6.56399">
        <ele>2000</ele>
        <time>2022-07-27T12:28:40Z</time>
      </trkpt>
      <trkpt lat="45.64965" lon="6.56398">
        <ele>2000</ele>
        <time>2022-07-27T12:28:41Z</time>
      </trkpt>
      <trkpt lat="45.64965" lon="6.56398">
        <ele>2000</ele>
        <time>2022-07-27T12:28:42Z</time>
      </trkpt>
      <trkpt lat="45.64966" lon="6.56397">
        <ele>2000</ele>
        <time>2022-07-27T12:28:43Z</time>
      </trkpt>
      <trkpt lat="45.64966" lon="6.56396">
        <ele>2000</ele>
        <time>2022-07-27T12:28:44Z</time>
      </trkpt>
      <trkpt lat="45.64966" lon="6.56395">
        <ele>2000</ele>
        <time>2022-07-27T12:28:45Z</time>
      </trkpt>
      <trkpt lat="45.64967" lon="6.56394">
        <ele>2000</ele>
        <time>2022-07-27T12:28:46Z</time>
      </trkpt>
      <trkpt lat="45.64967" lon="6.56393">
        <ele>2000</ele>
        <time>2022-07-27T12:28:47Z</time>
      </trkpt>
      <trkpt lat="45.64968" lon="6.56392">
        <ele>2000</ele>
        <time>2022-07-27T12:28:48Z</time>
      </trkpt>
      <trkpt lat="45.64968" lon="6.56392">
        <ele>2000</ele>
        <time>2022-07-27T12:28:49Z</time>
      </trkpt>
      <trkpt lat="45.64969" lon="6.56391">
        <ele>2000</ele>
        <time>2022-07-27T12:28:50Z</time>
      </trkpt>
      <trkpt lat="45.64969" lon="6.5639">
        <ele>2000</ele>
        <time>2022-07-27T12:28:51Z</time>
      </trkpt>
      <trkpt lat="45.6497" lon="6.5639">
        <ele>2000</ele>
        <time>2022-07-27T12:28:52Z</time>
      </trkpt>
      <trkpt lat="45.6497" lon="6.56389">
        <ele>2000</ele>
        <time>2022-07-27T12:28:53Z</time>
      </trkpt>
      <trkpt lat="45.64971" lon="6.56389">
        <ele>2000</ele>
        <time>2022-07-27T12:28:54Z</time>
      </trkpt>
      <trkpt lat="45.64971" lon="6.56388">
        <ele>2001</ele>
        <time>2022-07-27T12:28:55Z</time>
      </trkpt>
      <trkpt lat="45.64971" lon="6.56388">
        <ele>2001</ele>
        <time>2022-07-27T12:28:56Z</time>
      </trkpt>
      <trkpt lat="45.64972" lon="6.56387">
        <ele>2001</ele>
        <time>2022-07-27T12:28:57Z</time>
      </trkpt>
      <trkpt lat="45.64972" lon="6.56386">
        <ele>2001</ele>
        <time>2022-07-27T12:28:58Z</time>
      </trkpt>
      <trkpt lat="45.64972" lon="6.56386">
        <ele>2001</ele>
        <time>2022-07-27T12:28:59Z</time>
      </trkpt>
      <trkpt lat="45.64973" lon="6.56385">
        <ele>2001</ele>
        <time>2022-07-27T12:29:00Z</time>
      </trkpt>
      <trkpt lat="45.64973" lon="6.56384">
        <ele>2001</ele>
        <time>2022-07-27T12:29:01Z</time>
      </trkpt>
      <trkpt lat="45.64974" lon="6.56384">
        <ele>2001</ele>
        <time>2022-07-27T12:29:02Z</time>
      </trkpt>
      <trkpt lat="45.64974" lon="6.56383">
        <ele>2001</ele>
        <time>2022-07-27T12:29:03Z</time>
      </trkpt>
      <trkpt lat="45.64975" lon="6.56382">
        <ele>2001</ele>
        <time>2022-07-27T12:29:04Z</time>
      </trkpt>
      <trkpt lat="45.64975" lon="6.56382">
        <ele>2001</ele>
        <time>2022-07-27T12:29:05Z</time>
      </trkpt>
      <trkpt lat="45.64976" lon="6.56381">
        <ele>2001</ele>
        <time>2022-07-27T12:29:06Z</time>
      </trkpt>
      <trkpt lat="45.64976" lon="6.5638">
        <ele>2001</ele>
        <time>2022-07-27T12:29:07Z</time>
      </trkpt>
      <trkpt lat="45.64977" lon="6.56379">
        <ele>2001</ele>
        <time>2022-07-27T12:29:08Z</time>
      </trkpt>
      <trkpt lat="45.64977" lon="6.56379">
        <ele>2001</ele>
        <time>2022-07-27T12:29:09Z</time>
      </trkpt>
      <trkpt lat="45.64977" lon="6.56378">
        <ele>2001</ele>
        <time>2022-07-27T12:29:10Z</time>
      </trkpt>
      <trkpt lat="45.64978" lon="6.56377">
        <ele>2001</ele>
        <time>2022-07-27T12:29:11Z</time>
      </trkpt>
      <trkpt lat="45.64978" lon="6.56376">
        <ele>2001</ele>
        <time>2022-07-27T12:29:12Z</time>
      </trkpt>
      <trkpt lat="45.64979" lon="6.56376">
        <ele>2001</ele>
        <time>2022-07-27T12:29:13Z</time>
      </trkpt>
      <trkpt lat="45.64979" lon="6.56375">
        <ele>2001</ele>
        <time>2022-07-27T12:29:14Z</time>
      </trkpt>
      <trkpt lat="45.64979" lon="6.56374">
        <ele>2002</ele>
        <time>2022-07-27T12:29:15Z</time>
      </trkpt>
      <trkpt lat="45.6498" lon="6.56373">
        <ele>2002</ele>
        <time>2022-07-27T12:29:16Z</time>
      </trkpt>
      <trkpt lat="45.6498" lon="6.56372">
        <ele>2002</ele>
        <time>2022-07-27T12:29:17Z</time>
      </trkpt>
      <trkpt lat="45.6498" lon="6.56371">
        <ele>2002</ele>
        <time>2022-07-27T12:29:18Z</time>
      </trkpt>
      <trkpt lat="45.64981" lon="6.56371">
        <ele>2002</ele>
        <time>2022-07-27T12:29:19Z</time>
      </trkpt>
      <trkpt lat="45.64981" lon="6.5637">
        <ele>2002</ele>
        <time>2022-07-27T12:29:20Z</time>
      </trkpt>
      <trkpt lat="45.64981" lon="6.56369">
        <ele>2002</ele>
        <time>2022-07-27T12:29:21Z</time>
      </trkpt>
      <trkpt lat="45.64982" lon="6.56368">
        <ele>2002</ele>
        <time>2022-07-27T12:29:22Z</time>
      </trkpt>
      <trkpt lat="45.64982" lon="6.56367">
        <ele>2002</ele>
        <time>2022-07-27T12:29:23Z</time>
      </trkpt>
      <trkpt lat="45.64982" lon="6.56366">
        <ele>2002</ele>
        <time>2022-07-27T12:29:24Z</time>
      </trkpt>
      <trkpt lat="45.64983" lon="6.56365">
        <ele>2002</ele>
        <time>2022-07-27T12:29:25Z</time>
      </trkpt>
      <trkpt lat="45.64983" lon="6.56364">
        <ele>2002</ele>
        <time>2022-07-27T12:29:26Z</time>
      </trkpt>
      <trkpt lat="45.64983" lon="6.56363">
        <ele>2002</ele>
        <time>2022-07-27T12:29:27Z</time>
      </trkpt>
      <trkpt lat="45.64984" lon="6.56362">
        <ele>2002</ele>
        <time>2022-07-27T12:29:28Z</time>
      </trkpt>
      <trkpt lat="45.64984" lon="6.56361">
        <ele>2002</ele>
        <time>2022-07-27T12:29:29Z</time>
      </trkpt>
      <trkpt lat="45.64985" lon="6.5636">
        <ele>2002</ele>
        <time>2022-07-27T12:29:30Z</time>
      </trkpt>
      <trkpt lat="45.64985" lon="6.56359">
        <ele>2002</ele>
        <time>2022-07-27T12:29:31Z</time>
      </trkpt>
      <trkpt lat="45.64986" lon="6.56358">
        <ele>2002</ele>
        <time>2022-07-27T12:29:32Z</time>
      </trkpt>
      <trkpt lat="45.64986" lon="6.56358">
        <ele>2002</ele>
        <time>2022-07-27T12:29:33Z</time>
      </trkpt>
      <trkpt lat="45.64987" lon="6.56357">
        <ele>2002</ele>
        <time>2022-07-27T12:29:34Z</time>
      </trkpt>
      <trkpt lat="45.64987" lon="6.56356">
        <ele>2002</ele>
        <time>2022-07-27T12:29:35Z</time>
      </trkpt>
      <trkpt lat="45.64988" lon="6.56355">
        <ele>2003</ele>
        <time>2022-07-27T12:29:42Z</time>
      </trkpt>
      <trkpt lat="45.64988" lon="6.56354">
        <ele>2003</ele>
        <time>2022-07-27T12:29:43Z</time>
      </trkpt>
      <trkpt lat="45.64989" lon="6.56353">
        <ele>2003</ele>
        <time>2022-07-27T12:29:44Z</time>
      </trkpt>
      <trkpt lat="45.64989" lon="6.56353">
        <ele>2003</ele>
        <time>2022-07-27T12:29:45Z</time>
      </trkpt>
      <trkpt lat="45.64989" lon="6.56352">
        <ele>2003</ele>
        <time>2022-07-27T12:29:46Z</time>
      </trkpt>
      <trkpt lat="45.6499" lon="6.56352">
        <ele>2003</ele>
        <time>2022-07-27T12:29:55Z</time>
      </trkpt>
      <trkpt lat="45.6499" lon="6.56352">
        <ele>2003</ele>
        <time>2022-07-27T12:29:56Z</time>
      </trkpt>
      <trkpt lat="45.64991" lon="6.56352">
        <ele>2003</ele>
        <time>2022-07-27T12:29:57Z</time>
      </trkpt>
      <trkpt lat="45.64991" lon="6.56351">
        <ele>2003</ele>
        <time>2022-07-27T12:29:58Z</time>
      </trkpt>
      <trkpt lat="45.64991" lon="6.56351">
        <ele>2003</ele>
        <time>2022-07-27T12:29:59Z</time>
      </trkpt>
      <trkpt lat="45.64992" lon="6.5635">
        <ele>2003</ele>
        <time>2022-07-27T12:30:00Z</time>
      </trkpt>
      <trkpt lat="45.64992" lon="6.56349">
        <ele>2003</ele>
        <time>2022-07-27T12:30:01Z</time>
      </trkpt>
      <trkpt lat="45.64992" lon="6.56348">
        <ele>2003</ele>
        <time>2022-07-27T12:30:02Z</time>
      </trkpt>
      <trkpt lat="45.64993" lon="6.56347">
        <ele>2003</ele>
        <time>2022-07-27T12:30:03Z</time>
      </trkpt>
      <trkpt lat="45.64993" lon="6.56346">
        <ele>2003</ele>
        <time>2022-07-27T12:30:04Z</time>
      </trkpt>
      <trkpt lat="45.64993" lon="6.56345">
        <ele>2003</ele>
        <time>2022-07-27T12:30:05Z</time>
      </trkpt>
      <trkpt lat="45.64993" lon="6.56344">
        <ele>2003</ele>
        <time>2022-07-27T12:30:06Z</time>
      </trkpt>
      <trkpt lat="45.64993" lon="6.56343">
        <ele>2003</ele>
        <time>2022-07-27T12:30:07Z</time>
      </trkpt>
      <trkpt lat="45.64994" lon="6.56342">
        <ele>2003</ele>
        <time>2022-07-27T12:30:08Z</time>
      </trkpt>
      <trkpt lat="45.64994" lon="6.56341">
        <ele>2003</ele>
        <time>2022-07-27T12:30:09Z</time>
      </trkpt>
      <trkpt lat="45.64994" lon="6.5634">
        <ele>2003</ele>
        <time>2022-07-27T12:30:10Z</time>
      </trkpt>
      <trkpt lat="45.64994" lon="6.56339">
        <ele>2003</ele>
        <time>2022-07-27T12:30:11Z</time>
      </trkpt>
      <trkpt lat="45.64994" lon="6.56338">
        <ele>2003</ele>
        <time>2022-07-27T12:30:12Z</time>
      </trkpt>
      <trkpt lat="45.64994" lon="6.56337">
        <ele>2003</ele>
        <time>2022-07-27T12:30:13Z</time>
      </trkpt>
      <trkpt lat="45.64995" lon="6.56335">
        <ele>2003</ele>
        <time>2022-07-27T12:30:14Z</time>
      </trkpt>
      <trkpt lat="45.64995" lon="6.56334">
        <ele>2004</ele>
        <time>2022-07-27T12:30:15Z</time>
      </trkpt>
      <trkpt lat="45.64995" lon="6.56333">
        <ele>2004</ele>
        <time>2022-07-27T12:30:16Z</time>
      </trkpt>
      <trkpt lat="45.64995" lon="6.56332">
        <ele>2004</ele>
        <time>2022-07-27T12:30:17Z</time>
      </trkpt>
      <trkpt lat="45.64996" lon="6.56331">
        <ele>2004</ele>
        <time>2022-07-27T12:30:18Z</time>
      </trkpt>
      <trkpt lat="45.64996" lon="6.5633">
        <ele>2004</ele>
        <time>2022-07-27T12:30:19Z</time>
      </trkpt>
      <trkpt lat="45.64996" lon="6.56329">
        <ele>2004</ele>
        <time>2022-07-27T12:30:20Z</time>
      </trkpt>
      <trkpt lat="45.64996" lon="6.56327">
        <ele>2004</ele>
        <time>2022-07-27T12:30:21Z</time>
      </trkpt>
      <trkpt lat="45.64996" lon="6.56326">
        <ele>2004</ele>
        <time>2022-07-27T12:30:22Z</time>
      </trkpt>
      <trkpt lat="45.64997" lon="6.56325">
        <ele>2004</ele>
        <time>2022-07-27T12:30:23Z</time>
      </trkpt>
      <trkpt lat="45.64997" lon="6.56324">
        <ele>2004</ele>
        <time>2022-07-27T12:30:24Z</time>
      </trkpt>
      <trkpt lat="45.64997" lon="6.56323">
        <ele>2004</ele>
        <time>2022-07-27T12:30:25Z</time>
      </trkpt>
      <trkpt lat="45.64997" lon="6.56322">
        <ele>2004</ele>
        <time>2022-07-27T12:30:26Z</time>
      </trkpt>
      <trkpt lat="45.64997" lon="6.56321">
        <ele>2004</ele>
        <time>2022-07-27T12:30:27Z</time>
      </trkpt>
      <trkpt lat="45.64997" lon="6.5632">
        <ele>2004</ele>
        <time>2022-07-27T12:30:28Z</time>
      </trkpt>
      <trkpt lat="45.64997" lon="6.56319">
        <ele>2004</ele>
        <time>2022-07-27T12:30:29Z</time>
      </trkpt>
      <trkpt lat="45.64997" lon="6.56317">
        <ele>2005</ele>
        <time>2022-07-27T12:30:30Z</time>
      </trkpt>
      <trkpt lat="45.64997" lon="6.56316">
        <ele>2005</ele>
        <time>2022-07-27T12:30:31Z</time>
      </trkpt>
      <trkpt lat="45.64997" lon="6.56315">
        <ele>2005</ele>
        <time>2022-07-27T12:30:32Z</time>
      </trkpt>
      <trkpt lat="45.64997" lon="6.56314">
        <ele>2005</ele>
        <time>2022-07-27T12:30:33Z</time>
      </trkpt>
      <trkpt lat="45.64997" lon="6.56312">
        <ele>2005</ele>
        <time>2022-07-27T12:30:34Z</time>
      </trkpt>
      <trkpt lat="45.64997" lon="6.56311">
        <ele>2005</ele>
        <time>2022-07-27T12:30:35Z</time>
      </trkpt>
      <trkpt lat="45.64997" lon="6.5631">
        <ele>2005</ele>
        <time>2022-07-27T12:30:36Z</time>
      </trkpt>
      <trkpt lat="45.64996" lon="6.56309">
        <ele>2005</ele>
        <time>2022-07-27T12:30:37Z</time>
      </trkpt>
      <trkpt lat="45.64996" lon="6.56307">
        <ele>2005</ele>
        <time>2022-07-27T12:30:38Z</time>
      </trkpt>
      <trkpt lat="45.64996" lon="6.56306">
        <ele>2005</ele>
        <time>2022-07-27T12:30:39Z</time>
      </trkpt>
      <trkpt lat="45.64996" lon="6.56305">
        <ele>2005</ele>
        <time>2022-07-27T12:30:40Z</time>
      </trkpt>
      <trkpt lat="45.64995" lon="6.56305">
        <ele>2005</ele>
        <time>2022-07-27T12:30:41Z</time>
      </trkpt>
      <trkpt lat="45.64995" lon="6.56304">
        <ele>2005</ele>
        <time>2022-07-27T12:30:42Z</time>
      </trkpt>
      <trkpt lat="45.64995" lon="6.56303">
        <ele>2005</ele>
        <time>2022-07-27T12:30:43Z</time>
      </trkpt>
      <trkpt lat="45.64994" lon="6.56302">
        <ele>2005</ele>
        <time>2022-07-27T12:30:44Z</time>
      </trkpt>
      <trkpt lat="45.64994" lon="6.56302">
        <ele>2006</ele>
        <time>2022-07-27T12:30:45Z</time>
      </trkpt>
      <trkpt lat="45.64993" lon="6.56301">
        <ele>2006</ele>
        <time>2022-07-27T12:31:44Z</time>
      </trkpt>
      <trkpt lat="45.64993" lon="6.56301">
        <ele>2006</ele>
        <time>2022-07-27T12:31:45Z</time>
      </trkpt>
      <trkpt lat="45.64993" lon="6.563">
        <ele>2006</ele>
        <time>2022-07-27T12:31:46Z</time>
      </trkpt>
      <trkpt lat="45.64993" lon="6.56299">
        <ele>2006</ele>
        <time>2022-07-27T12:31:47Z</time>
      </trkpt>
      <trkpt lat="45.64993" lon="6.56299">
        <ele>2006</ele>
        <time>2022-07-27T12:31:48Z</time>
      </trkpt>
      <trkpt lat="45.64993" lon="6.56297">
        <ele>2006</ele>
        <time>2022-07-27T12:31:49Z</time>
      </trkpt>
      <trkpt lat="45.64992" lon="6.56296">
        <ele>2006</ele>
        <time>2022-07-27T12:31:50Z</time>
      </trkpt>
      <trkpt lat="45.64992" lon="6.56294">
        <ele>2006</ele>
        <time>2022-07-27T12:31:51Z</time>
      </trkpt>
      <trkpt lat="45.64992" lon="6.56293">
        <ele>2006</ele>
        <time>2022-07-27T12:31:52Z</time>
      </trkpt>
      <trkpt lat="45.64992" lon="6.56291">
        <ele>2006</ele>
        <time>2022-07-27T12:31:53Z</time>
      </trkpt>
      <trkpt lat="45.64992" lon="6.56289">
        <ele>2006</ele>
        <time>2022-07-27T12:31:54Z</time>
      </trkpt>
      <trkpt lat="45.64992" lon="6.56288">
        <ele>2006</ele>
        <time>2022-07-27T12:31:55Z</time>
      </trkpt>
      <trkpt lat="45.64992" lon="6.56286">
        <ele>2006</ele>
        <time>2022-07-27T12:31:56Z</time>
      </trkpt>
      <trkpt lat="45.64992" lon="6.56285">
        <ele>2006</ele>
        <time>2022-07-27T12:31:57Z</time>
      </trkpt>
      <trkpt lat="45.64992" lon="6.56284">
        <ele>2006</ele>
        <time>2022-07-27T12:31:58Z</time>
      </trkpt>
      <trkpt lat="45.64992" lon="6.56282">
        <ele>2006</ele>
        <time>2022-07-27T12:31:59Z</time>
      </trkpt>
      <trkpt lat="45.64992" lon="6.56281">
        <ele>2006</ele>
        <time>2022-07-27T12:32:00Z</time>
      </trkpt>
      <trkpt lat="45.64993" lon="6.5628">
        <ele>2006</ele>
        <time>2022-07-27T12:32:01Z</time>
      </trkpt>
      <trkpt lat="45.64993" lon="6.56279">
        <ele>2006</ele>
        <time>2022-07-27T12:32:02Z</time>
      </trkpt>
      <trkpt lat="45.64993" lon="6.56277">
        <ele>2006</ele>
        <time>2022-07-27T12:32:03Z</time>
      </trkpt>
      <trkpt lat="45.64994" lon="6.56276">
        <ele>2006</ele>
        <time>2022-07-27T12:32:04Z</time>
      </trkpt>
      <trkpt lat="45.64994" lon="6.56275">
        <ele>2007</ele>
        <time>2022-07-27T12:32:05Z</time>
      </trkpt>
      <trkpt lat="45.64994" lon="6.56274">
        <ele>2007</ele>
        <time>2022-07-27T12:32:06Z</time>
      </trkpt>
      <trkpt lat="45.64995" lon="6.56273">
        <ele>2007</ele>
        <time>2022-07-27T12:32:07Z</time>
      </trkpt>
      <trkpt lat="45.64995" lon="6.56272">
        <ele>2007</ele>
        <time>2022-07-27T12:32:08Z</time>
      </trkpt>
      <trkpt lat="45.64996" lon="6.56271">
        <ele>2007</ele>
        <time>2022-07-27T12:32:09Z</time>
      </trkpt>
      <trkpt lat="45.64996" lon="6.56271">
        <ele>2007</ele>
        <time>2022-07-27T12:32:10Z</time>
      </trkpt>
      <trkpt lat="45.64997" lon="6.5627">
        <ele>2007</ele>
        <time>2022-07-27T12:32:11Z</time>
      </trkpt>
      <trkpt lat="45.64998" lon="6.56269">
        <ele>2007</ele>
        <time>2022-07-27T12:32:12Z</time>
      </trkpt>
      <trkpt lat="45.64998" lon="6.56269">
        <ele>2007</ele>
        <time>2022-07-27T12:32:13Z</time>
      </trkpt>
      <trkpt lat="45.64999" lon="6.56268">
        <ele>2007</ele>
        <time>2022-07-27T12:32:14Z</time>
      </trkpt>
      <trkpt lat="45.64999" lon="6.56267">
        <ele>2007</ele>
        <time>2022-07-27T12:32:15Z</time>
      </trkpt>
      <trkpt lat="45.65" lon="6.56267">
        <ele>2007</ele>
        <time>2022-07-27T12:32:16Z</time>
      </trkpt>
      <trkpt lat="45.65001" lon="6.56266">
        <ele>2007</ele>
        <time>2022-07-27T12:32:17Z</time>
      </trkpt>
      <trkpt lat="45.65002" lon="6.56266">
        <ele>2007</ele>
        <time>2022-07-27T12:32:18Z</time>
      </trkpt>
      <trkpt lat="45.65003" lon="6.56266">
        <ele>2007</ele>
        <time>2022-07-27T12:32:19Z</time>
      </trkpt>
      <trkpt lat="45.65003" lon="6.56265">
        <ele>2008</ele>
        <time>2022-07-27T12:32:20Z</time>
      </trkpt>
      <trkpt lat="45.65004" lon="6.56265">
        <ele>2008</ele>
        <time>2022-07-27T12:32:21Z</time>
      </trkpt>
      <trkpt lat="45.65005" lon="6.56265">
        <ele>2008</ele>
        <time>2022-07-27T12:32:22Z</time>
      </trkpt>
      <trkpt lat="45.65006" lon="6.56265">
        <ele>2008</ele>
        <time>2022-07-27T12:32:23Z</time>
      </trkpt>
      <trkpt lat="45.65006" lon="6.56264">
        <ele>2008</ele>
        <time>2022-07-27T12:32:24Z</time>
      </trkpt>
      <trkpt lat="45.65007" lon="6.56264">
        <ele>2008</ele>
        <time>2022-07-27T12:32:25Z</time>
      </trkpt>
      <trkpt lat="45.65008" lon="6.56264">
        <ele>2008</ele>
        <time>2022-07-27T12:32:26Z</time>
      </trkpt>
      <trkpt lat="45.65008" lon="6.56263">
        <ele>2008</ele>
        <time>2022-07-27T12:32:27Z</time>
      </trkpt>
      <trkpt lat="45.65009" lon="6.56263">
        <ele>2008</ele>
        <time>2022-07-27T12:32:28Z</time>
      </trkpt>
      <trkpt lat="45.6501" lon="6.56263">
        <ele>2008</ele>
        <time>2022-07-27T12:32:29Z</time>
      </trkpt>
      <trkpt lat="45.65011" lon="6.56262">
        <ele>2009</ele>
        <time>2022-07-27T12:32:30Z</time>
      </trkpt>
      <trkpt lat="45.65012" lon="6.56262">
        <ele>2009</ele>
        <time>2022-07-27T12:32:31Z</time>
      </trkpt>
      <trkpt lat="45.65013" lon="6.56262">
        <ele>2009</ele>
        <time>2022-07-27T12:32:32Z</time>
      </trkpt>
      <trkpt lat="45.65014" lon="6.56262">
        <ele>2009</ele>
        <time>2022-07-27T12:32:33Z</time>
      </trkpt>
      <trkpt lat="45.65015" lon="6.56262">
        <ele>2009</ele>
        <time>2022-07-27T12:32:34Z</time>
      </trkpt>
      <trkpt lat="45.65016" lon="6.56262">
        <ele>2009</ele>
        <time>2022-07-27T12:32:35Z</time>
      </trkpt>
      <trkpt lat="45.65017" lon="6.56262">
        <ele>2009</ele>
        <time>2022-07-27T12:32:36Z</time>
      </trkpt>
      <trkpt lat="45.65018" lon="6.56262">
        <ele>2009</ele>
        <time>2022-07-27T12:32:37Z</time>
      </trkpt>
      <trkpt lat="45.65019" lon="6.56263">
        <ele>2009</ele>
        <time>2022-07-27T12:32:38Z</time>
      </trkpt>
      <trkpt lat="45.65019" lon="6.56263">
        <ele>2009</ele>
        <time>2022-07-27T12:32:39Z</time>
      </trkpt>
      <trkpt lat="45.6502" lon="6.56263">
        <ele>2009</ele>
        <time>2022-07-27T12:32:40Z</time>
      </trkpt>
      <trkpt lat="45.65021" lon="6.56264">
        <ele>2009</ele>
        <time>2022-07-27T12:32:41Z</time>
      </trkpt>
      <trkpt lat="45.65022" lon="6.56264">
        <ele>2009</ele>
        <time>2022-07-27T12:32:42Z</time>
      </trkpt>
      <trkpt lat="45.65023" lon="6.56264">
        <ele>2009</ele>
        <time>2022-07-27T12:32:43Z</time>
      </trkpt>
      <trkpt lat="45.65024" lon="6.56264">
        <ele>2009</ele>
        <time>2022-07-27T12:32:44Z</time>
      </trkpt>
      <trkpt lat="45.65024" lon="6.56265">
        <ele>2010</ele>
        <time>2022-07-27T12:32:45Z</time>
      </trkpt>
      <trkpt lat="45.65025" lon="6.56265">
        <ele>2010</ele>
        <time>2022-07-27T12:32:46Z</time>
      </trkpt>
      <trkpt lat="45.65026" lon="6.56265">
        <ele>2010</ele>
        <time>2022-07-27T12:32:47Z</time>
      </trkpt>
      <trkpt lat="45.65027" lon="6.56265">
        <ele>2010</ele>
        <time>2022-07-27T12:32:48Z</time>
      </trkpt>
      <trkpt lat="45.65028" lon="6.56265">
        <ele>2010</ele>
        <time>2022-07-27T12:32:49Z</time>
      </trkpt>
      <trkpt lat="45.65029" lon="6.56265">
        <ele>2010</ele>
        <time>2022-07-27T12:32:50Z</time>
      </trkpt>
      <trkpt lat="45.6503" lon="6.56266">
        <ele>2010</ele>
        <time>2022-07-27T12:32:51Z</time>
      </trkpt>
      <trkpt lat="45.65031" lon="6.56266">
        <ele>2010</ele>
        <time>2022-07-27T12:32:52Z</time>
      </trkpt>
      <trkpt lat="45.65031" lon="6.56266">
        <ele>2010</ele>
        <time>2022-07-27T12:32:53Z</time>
      </trkpt>
      <trkpt lat="45.65032" lon="6.56266">
        <ele>2010</ele>
        <time>2022-07-27T12:32:54Z</time>
      </trkpt>
      <trkpt lat="45.65033" lon="6.56266">
        <ele>2010</ele>
        <time>2022-07-27T12:32:55Z</time>
      </trkpt>
      <trkpt lat="45.65034" lon="6.56266">
        <ele>2010</ele>
        <time>2022-07-27T12:32:56Z</time>
      </trkpt>
      <trkpt lat="45.65035" lon="6.56266">
        <ele>2010</ele>
        <time>2022-07-27T12:32:57Z</time>
      </trkpt>
      <trkpt lat="45.65036" lon="6.56265">
        <ele>2010</ele>
        <time>2022-07-27T12:32:58Z</time>
      </trkpt>
      <trkpt lat="45.65037" lon="6.56265">
        <ele>2010</ele>
        <time>2022-07-27T12:32:59Z</time>
      </trkpt>
      <trkpt lat="45.65038" lon="6.56265">
        <ele>2010</ele>
        <time>2022-07-27T12:33:00Z</time>
      </trkpt>
      <trkpt lat="45.65038" lon="6.56265">
        <ele>2010</ele>
        <time>2022-07-27T12:33:01Z</time>
      </trkpt>
      <trkpt lat="45.65039" lon="6.56265">
        <ele>2010</ele>
        <time>2022-07-27T12:33:02Z</time>
      </trkpt>
      <trkpt lat="45.6504" lon="6.56264">
        <ele>2010</ele>
        <time>2022-07-27T12:33:03Z</time>
      </trkpt>
      <trkpt lat="45.65041" lon="6.56264">
        <ele>2010</ele>
        <time>2022-07-27T12:33:04Z</time>
      </trkpt>
      <trkpt lat="45.65042" lon="6.56264">
        <ele>2011</ele>
        <time>2022-07-27T12:33:05Z</time>
      </trkpt>
      <trkpt lat="45.65043" lon="6.56264">
        <ele>2011</ele>
        <time>2022-07-27T12:33:06Z</time>
      </trkpt>
      <trkpt lat="45.65044" lon="6.56263">
        <ele>2011</ele>
        <time>2022-07-27T12:33:07Z</time>
      </trkpt>
      <trkpt lat="45.65044" lon="6.56263">
        <ele>2011</ele>
        <time>2022-07-27T12:33:08Z</time>
      </trkpt>
      <trkpt lat="45.65045" lon="6.56263">
        <ele>2011</ele>
        <time>2022-07-27T12:33:09Z</time>
      </trkpt>
      <trkpt lat="45.65046" lon="6.56262">
        <ele>2011</ele>
        <time>2022-07-27T12:33:10Z</time>
      </trkpt>
      <trkpt lat="45.65047" lon="6.56262">
        <ele>2011</ele>
        <time>2022-07-27T12:33:11Z</time>
      </trkpt>
      <trkpt lat="45.65047" lon="6.56261">
        <ele>2011</ele>
        <time>2022-07-27T12:33:12Z</time>
      </trkpt>
      <trkpt lat="45.65048" lon="6.5626">
        <ele>2011</ele>
        <time>2022-07-27T12:33:13Z</time>
      </trkpt>
      <trkpt lat="45.65049" lon="6.56259">
        <ele>2011</ele>
        <time>2022-07-27T12:33:14Z</time>
      </trkpt>
      <trkpt lat="45.6505" lon="6.56259">
        <ele>2011</ele>
        <time>2022-07-27T12:33:15Z</time>
      </trkpt>
      <trkpt lat="45.6505" lon="6.56258">
        <ele>2011</ele>
        <time>2022-07-27T12:33:16Z</time>
      </trkpt>
      <trkpt lat="45.65051" lon="6.56257">
        <ele>2011</ele>
        <time>2022-07-27T12:33:17Z</time>
      </trkpt>
      <trkpt lat="45.65052" lon="6.56256">
        <ele>2011</ele>
        <time>2022-07-27T12:33:18Z</time>
      </trkpt>
      <trkpt lat="45.65052" lon="6.56256">
        <ele>2011</ele>
        <time>2022-07-27T12:33:19Z</time>
      </trkpt>
      <trkpt lat="45.65053" lon="6.56255">
        <ele>2011</ele>
        <time>2022-07-27T12:33:20Z</time>
      </trkpt>
      <trkpt lat="45.65054" lon="6.56254">
        <ele>2011</ele>
        <time>2022-07-27T12:33:21Z</time>
      </trkpt>
      <trkpt lat="45.65055" lon="6.56254">
        <ele>2011</ele>
        <time>2022-07-27T12:33:22Z</time>
      </trkpt>
      <trkpt lat="45.65055" lon="6.56253">
        <ele>2011</ele>
        <time>2022-07-27T12:33:23Z</time>
      </trkpt>
      <trkpt lat="45.65056" lon="6.56253">
        <ele>2011</ele>
        <time>2022-07-27T12:33:24Z</time>
      </trkpt>
      <trkpt lat="45.65057" lon="6.56252">
        <ele>2012</ele>
        <time>2022-07-27T12:33:25Z</time>
      </trkpt>
      <trkpt lat="45.65058" lon="6.56251">
        <ele>2012</ele>
        <time>2022-07-27T12:33:26Z</time>
      </trkpt>
      <trkpt lat="45.65059" lon="6.5625">
        <ele>2012</ele>
        <time>2022-07-27T12:33:27Z</time>
      </trkpt>
      <trkpt lat="45.65059" lon="6.56249">
        <ele>2012</ele>
        <time>2022-07-27T12:33:28Z</time>
      </trkpt>
      <trkpt lat="45.6506" lon="6.56249">
        <ele>2012</ele>
        <time>2022-07-27T12:33:29Z</time>
      </trkpt>
      <trkpt lat="45.65061" lon="6.56248">
        <ele>2012</ele>
        <time>2022-07-27T12:33:30Z</time>
      </trkpt>
      <trkpt lat="45.65062" lon="6.56248">
        <ele>2012</ele>
        <time>2022-07-27T12:33:31Z</time>
      </trkpt>
      <trkpt lat="45.65063" lon="6.56247">
        <ele>2012</ele>
        <time>2022-07-27T12:33:32Z</time>
      </trkpt>
      <trkpt lat="45.65064" lon="6.56247">
        <ele>2012</ele>
        <time>2022-07-27T12:33:33Z</time>
      </trkpt>
      <trkpt lat="45.65065" lon="6.56246">
        <ele>2012</ele>
        <time>2022-07-27T12:33:34Z</time>
      </trkpt>
      <trkpt lat="45.65066" lon="6.56246">
        <ele>2012</ele>
        <time>2022-07-27T12:33:35Z</time>
      </trkpt>
      <trkpt lat="45.65067" lon="6.56245">
        <ele>2012</ele>
        <time>2022-07-27T12:33:36Z</time>
      </trkpt>
      <trkpt lat="45.65068" lon="6.56245">
        <ele>2012</ele>
        <time>2022-07-27T12:33:37Z</time>
      </trkpt>
      <trkpt lat="45.65069" lon="6.56245">
        <ele>2012</ele>
        <time>2022-07-27T12:33:38Z</time>
      </trkpt>
      <trkpt lat="45.6507" lon="6.56245">
        <ele>2012</ele>
        <time>2022-07-27T12:33:39Z</time>
      </trkpt>
      <trkpt lat="45.65071" lon="6.56244">
        <ele>2012</ele>
        <time>2022-07-27T12:33:40Z</time>
      </trkpt>
      <trkpt lat="45.65071" lon="6.56244">
        <ele>2012</ele>
        <time>2022-07-27T12:33:41Z</time>
      </trkpt>
      <trkpt lat="45.65072" lon="6.56244">
        <ele>2012</ele>
        <time>2022-07-27T12:33:42Z</time>
      </trkpt>
      <trkpt lat="45.65073" lon="6.56244">
        <ele>2012</ele>
        <time>2022-07-27T12:33:43Z</time>
      </trkpt>
      <trkpt lat="45.65074" lon="6.56245">
        <ele>2012</ele>
        <time>2022-07-27T12:33:44Z</time>
      </trkpt>
      <trkpt lat="45.65075" lon="6.56245">
        <ele>2013</ele>
        <time>2022-07-27T12:33:45Z</time>
      </trkpt>
      <trkpt lat="45.65076" lon="6.56245">
        <ele>2013</ele>
        <time>2022-07-27T12:33:46Z</time>
      </trkpt>
      <trkpt lat="45.65077" lon="6.56245">
        <ele>2013</ele>
        <time>2022-07-27T12:33:47Z</time>
      </trkpt>
      <trkpt lat="45.65078" lon="6.56246">
        <ele>2013</ele>
        <time>2022-07-27T12:33:48Z</time>
      </trkpt>
      <trkpt lat="45.65079" lon="6.56246">
        <ele>2013</ele>
        <time>2022-07-27T12:33:49Z</time>
      </trkpt>
      <trkpt lat="45.6508" lon="6.56246">
        <ele>2014</ele>
        <time>2022-07-27T12:33:50Z</time>
      </trkpt>
      <trkpt lat="45.65081" lon="6.56247">
        <ele>2014</ele>
        <time>2022-07-27T12:33:51Z</time>
      </trkpt>
      <trkpt lat="45.65082" lon="6.56247">
        <ele>2014</ele>
        <time>2022-07-27T12:33:52Z</time>
      </trkpt>
      <trkpt lat="45.65083" lon="6.56247">
        <ele>2014</ele>
        <time>2022-07-27T12:33:53Z</time>
      </trkpt>
      <trkpt lat="45.65084" lon="6.56248">
        <ele>2014</ele>
        <time>2022-07-27T12:33:54Z</time>
      </trkpt>
      <trkpt lat="45.65085" lon="6.56248">
        <ele>2014</ele>
        <time>2022-07-27T12:33:55Z</time>
      </trkpt>
      <trkpt lat="45.65086" lon="6.56249">
        <ele>2014</ele>
        <time>2022-07-27T12:33:56Z</time>
      </trkpt>
      <trkpt lat="45.65087" lon="6.56249">
        <ele>2014</ele>
        <time>2022-07-27T12:33:57Z</time>
      </trkpt>
      <trkpt lat="45.65087" lon="6.56249">
        <ele>2014</ele>
        <time>2022-07-27T12:33:58Z</time>
      </trkpt>
      <trkpt lat="45.65088" lon="6.5625">
        <ele>2014</ele>
        <time>2022-07-27T12:33:59Z</time>
      </trkpt>
      <trkpt lat="45.65089" lon="6.5625">
        <ele>2014</ele>
        <time>2022-07-27T12:34:00Z</time>
      </trkpt>
      <trkpt lat="45.6509" lon="6.56251">
        <ele>2014</ele>
        <time>2022-07-27T12:34:01Z</time>
      </trkpt>
      <trkpt lat="45.65091" lon="6.56252">
        <ele>2014</ele>
        <time>2022-07-27T12:34:02Z</time>
      </trkpt>
      <trkpt lat="45.65092" lon="6.56252">
        <ele>2014</ele>
        <time>2022-07-27T12:34:03Z</time>
      </trkpt>
      <trkpt lat="45.65093" lon="6.56253">
        <ele>2014</ele>
        <time>2022-07-27T12:34:04Z</time>
      </trkpt>
      <trkpt lat="45.65093" lon="6.56254">
        <ele>2015</ele>
        <time>2022-07-27T12:34:05Z</time>
      </trkpt>
      <trkpt lat="45.65094" lon="6.56254">
        <ele>2015</ele>
        <time>2022-07-27T12:34:06Z</time>
      </trkpt>
      <trkpt lat="45.65095" lon="6.56255">
        <ele>2015</ele>
        <time>2022-07-27T12:34:07Z</time>
      </trkpt>
      <trkpt lat="45.65096" lon="6.56256">
        <ele>2015</ele>
        <time>2022-07-27T12:34:08Z</time>
      </trkpt>
      <trkpt lat="45.65096" lon="6.56256">
        <ele>2015</ele>
        <time>2022-07-27T12:34:09Z</time>
      </trkpt>
      <trkpt lat="45.65097" lon="6.56257">
        <ele>2015</ele>
        <time>2022-07-27T12:34:10Z</time>
      </trkpt>
      <trkpt lat="45.65098" lon="6.56257">
        <ele>2016</ele>
        <time>2022-07-27T12:34:16Z</time>
      </trkpt>
      <trkpt lat="45.65098" lon="6.56257">
        <ele>2016</ele>
        <time>2022-07-27T12:34:17Z</time>
      </trkpt>
      <trkpt lat="45.65099" lon="6.56257">
        <ele>2016</ele>
        <time>2022-07-27T12:34:18Z</time>
      </trkpt>
      <trkpt lat="45.65099" lon="6.56258">
        <ele>2016</ele>
        <time>2022-07-27T12:34:19Z</time>
      </trkpt>
      <trkpt lat="45.651" lon="6.56258">
        <ele>2016</ele>
        <time>2022-07-27T12:34:20Z</time>
      </trkpt>
      <trkpt lat="45.65101" lon="6.56258">
        <ele>2016</ele>
        <time>2022-07-27T12:34:21Z</time>
      </trkpt>
      <trkpt lat="45.65101" lon="6.56258">
        <ele>2016</ele>
        <time>2022-07-27T12:34:22Z</time>
      </trkpt>
      <trkpt lat="45.65102" lon="6.56259">
        <ele>2016</ele>
        <time>2022-07-27T12:34:23Z</time>
      </trkpt>
      <trkpt lat="45.65103" lon="6.56259">
        <ele>2016</ele>
        <time>2022-07-27T12:34:24Z</time>
      </trkpt>
      <trkpt lat="45.65104" lon="6.5626">
        <ele>2016</ele>
        <time>2022-07-27T12:34:25Z</time>
      </trkpt>
      <trkpt lat="45.65105" lon="6.5626">
        <ele>2016</ele>
        <time>2022-07-27T12:34:26Z</time>
      </trkpt>
      <trkpt lat="45.65106" lon="6.56261">
        <ele>2016</ele>
        <time>2022-07-27T12:34:27Z</time>
      </trkpt>
      <trkpt lat="45.65107" lon="6.56262">
        <ele>2016</ele>
        <time>2022-07-27T12:34:28Z</time>
      </trkpt>
      <trkpt lat="45.65107" lon="6.56262">
        <ele>2016</ele>
        <time>2022-07-27T12:34:29Z</time>
      </trkpt>
      <trkpt lat="45.65108" lon="6.56263">
        <ele>2016</ele>
        <time>2022-07-27T12:34:30Z</time>
      </trkpt>
      <trkpt lat="45.65109" lon="6.56264">
        <ele>2016</ele>
        <time>2022-07-27T12:34:31Z</time>
      </trkpt>
      <trkpt lat="45.6511" lon="6.56265">
        <ele>2016</ele>
        <time>2022-07-27T12:34:32Z</time>
      </trkpt>
      <trkpt lat="45.65111" lon="6.56266">
        <ele>2016</ele>
        <time>2022-07-27T12:34:33Z</time>
      </trkpt>
      <trkpt lat="45.65112" lon="6.56266">
        <ele>2016</ele>
        <time>2022-07-27T12:34:34Z</time>
      </trkpt>
      <trkpt lat="45.65113" lon="6.56267">
        <ele>2017</ele>
        <time>2022-07-27T12:34:35Z</time>
      </trkpt>
      <trkpt lat="45.65113" lon="6.56268">
        <ele>2017</ele>
        <time>2022-07-27T12:34:36Z</time>
      </trkpt>
      <trkpt lat="45.65114" lon="6.56268">
        <ele>2017</ele>
        <time>2022-07-27T12:34:37Z</time>
      </trkpt>
      <trkpt lat="45.65115" lon="6.56269">
        <ele>2017</ele>
        <time>2022-07-27T12:34:38Z</time>
      </trkpt>
      <trkpt lat="45.65116" lon="6.5627">
        <ele>2017</ele>
        <time>2022-07-27T12:34:39Z</time>
      </trkpt>
      <trkpt lat="45.65117" lon="6.5627">
        <ele>2017</ele>
        <time>2022-07-27T12:34:40Z</time>
      </trkpt>
      <trkpt lat="45.65118" lon="6.56271">
        <ele>2017</ele>
        <time>2022-07-27T12:34:41Z</time>
      </trkpt>
      <trkpt lat="45.65119" lon="6.56272">
        <ele>2017</ele>
        <time>2022-07-27T12:34:42Z</time>
      </trkpt>
      <trkpt lat="45.6512" lon="6.56272">
        <ele>2017</ele>
        <time>2022-07-27T12:34:43Z</time>
      </trkpt>
      <trkpt lat="45.6512" lon="6.56273">
        <ele>2017</ele>
        <time>2022-07-27T12:34:44Z</time>
      </trkpt>
      <trkpt lat="45.65121" lon="6.56273">
        <ele>2017</ele>
        <time>2022-07-27T12:34:45Z</time>
      </trkpt>
      <trkpt lat="45.65122" lon="6.56274">
        <ele>2017</ele>
        <time>2022-07-27T12:34:46Z</time>
      </trkpt>
      <trkpt lat="45.65123" lon="6.56275">
        <ele>2017</ele>
        <time>2022-07-27T12:34:47Z</time>
      </trkpt>
      <trkpt lat="45.65124" lon="6.56275">
        <ele>2017</ele>
        <time>2022-07-27T12:34:48Z</time>
      </trkpt>
      <trkpt lat="45.65125" lon="6.56276">
        <ele>2017</ele>
        <time>2022-07-27T12:34:49Z</time>
      </trkpt>
      <trkpt lat="45.65125" lon="6.56276">
        <ele>2017</ele>
        <time>2022-07-27T12:34:50Z</time>
      </trkpt>
      <trkpt lat="45.65126" lon="6.56277">
        <ele>2017</ele>
        <time>2022-07-27T12:34:51Z</time>
      </trkpt>
      <trkpt lat="45.65127" lon="6.56278">
        <ele>2017</ele>
        <time>2022-07-27T12:34:52Z</time>
      </trkpt>
      <trkpt lat="45.65128" lon="6.56278">
        <ele>2017</ele>
        <time>2022-07-27T12:34:53Z</time>
      </trkpt>
      <trkpt lat="45.65129" lon="6.56279">
        <ele>2017</ele>
        <time>2022-07-27T12:34:54Z</time>
      </trkpt>
      <trkpt lat="45.65129" lon="6.56279">
        <ele>2018</ele>
        <time>2022-07-27T12:34:55Z</time>
      </trkpt>
      <trkpt lat="45.6513" lon="6.5628">
        <ele>2018</ele>
        <time>2022-07-27T12:34:56Z</time>
      </trkpt>
      <trkpt lat="45.65131" lon="6.56281">
        <ele>2018</ele>
        <time>2022-07-27T12:34:57Z</time>
      </trkpt>
      <trkpt lat="45.65132" lon="6.56281">
        <ele>2018</ele>
        <time>2022-07-27T12:34:58Z</time>
      </trkpt>
      <trkpt lat="45.65133" lon="6.56282">
        <ele>2018</ele>
        <time>2022-07-27T12:34:59Z</time>
      </trkpt>
      <trkpt lat="45.65133" lon="6.56282">
        <ele>2018</ele>
        <time>2022-07-27T12:35:00Z</time>
      </trkpt>
      <trkpt lat="45.65134" lon="6.56283">
        <ele>2018</ele>
        <time>2022-07-27T12:35:01Z</time>
      </trkpt>
      <trkpt lat="45.65135" lon="6.56284">
        <ele>2018</ele>
        <time>2022-07-27T12:35:02Z</time>
      </trkpt>
      <trkpt lat="45.65136" lon="6.56284">
        <ele>2018</ele>
        <time>2022-07-27T12:35:13Z</time>
      </trkpt>
      <trkpt lat="45.65137" lon="6.56285">
        <ele>2018</ele>
        <time>2022-07-27T12:35:14Z</time>
      </trkpt>
      <trkpt lat="45.65138" lon="6.56285">
        <ele>2019</ele>
        <time>2022-07-27T12:35:15Z</time>
      </trkpt>
      <trkpt lat="45.65139" lon="6.56285">
        <ele>2019</ele>
        <time>2022-07-27T12:35:16Z</time>
      </trkpt>
      <trkpt lat="45.6514" lon="6.56285">
        <ele>2019</ele>
        <time>2022-07-27T12:35:17Z</time>
      </trkpt>
      <trkpt lat="45.6514" lon="6.56285">
        <ele>2019</ele>
        <time>2022-07-27T12:35:18Z</time>
      </trkpt>
      <trkpt lat="45.65141" lon="6.56286">
        <ele>2019</ele>
        <time>2022-07-27T12:35:19Z</time>
      </trkpt>
      <trkpt lat="45.65142" lon="6.56286">
        <ele>2019</ele>
        <time>2022-07-27T12:35:20Z</time>
      </trkpt>
      <trkpt lat="45.65143" lon="6.56286">
        <ele>2019</ele>
        <time>2022-07-27T12:35:21Z</time>
      </trkpt>
      <trkpt lat="45.65144" lon="6.56286">
        <ele>2019</ele>
        <time>2022-07-27T12:35:22Z</time>
      </trkpt>
      <trkpt lat="45.65145" lon="6.56286">
        <ele>2019</ele>
        <time>2022-07-27T12:35:23Z</time>
      </trkpt>
      <trkpt lat="45.65146" lon="6.56286">
        <ele>2019</ele>
        <time>2022-07-27T12:35:24Z</time>
      </trkpt>
      <trkpt lat="45.65147" lon="6.56286">
        <ele>2019</ele>
        <time>2022-07-27T12:35:25Z</time>
      </trkpt>
      <trkpt lat="45.65148" lon="6.56286">
        <ele>2019</ele>
        <time>2022-07-27T12:35:26Z</time>
      </trkpt>
      <trkpt lat="45.65149" lon="6.56286">
        <ele>2019</ele>
        <time>2022-07-27T12:35:27Z</time>
      </trkpt>
      <trkpt lat="45.65149" lon="6.56286">
        <ele>2019</ele>
        <time>2022-07-27T12:35:28Z</time>
      </trkpt>
      <trkpt lat="45.6515" lon="6.56285">
        <ele>2019</ele>
        <time>2022-07-27T12:35:29Z</time>
      </trkpt>
      <trkpt lat="45.65151" lon="6.56285">
        <ele>2019</ele>
        <time>2022-07-27T12:35:30Z</time>
      </trkpt>
      <trkpt lat="45.65152" lon="6.56285">
        <ele>2019</ele>
        <time>2022-07-27T12:35:31Z</time>
      </trkpt>
      <trkpt lat="45.65153" lon="6.56285">
        <ele>2019</ele>
        <time>2022-07-27T12:35:32Z</time>
      </trkpt>
      <trkpt lat="45.65154" lon="6.56284">
        <ele>2019</ele>
        <time>2022-07-27T12:35:33Z</time>
      </trkpt>
      <trkpt lat="45.65154" lon="6.56284">
        <ele>2019</ele>
        <time>2022-07-27T12:35:34Z</time>
      </trkpt>
      <trkpt lat="45.65155" lon="6.56284">
        <ele>2019</ele>
        <time>2022-07-27T12:35:35Z</time>
      </trkpt>
      <trkpt lat="45.65156" lon="6.56284">
        <ele>2019</ele>
        <time>2022-07-27T12:35:36Z</time>
      </trkpt>
      <trkpt lat="45.65157" lon="6.56284">
        <ele>2019</ele>
        <time>2022-07-27T12:35:37Z</time>
      </trkpt>
      <trkpt lat="45.65158" lon="6.56284">
        <ele>2019</ele>
        <time>2022-07-27T12:35:38Z</time>
      </trkpt>
      <trkpt lat="45.65158" lon="6.56284">
        <ele>2019</ele>
        <time>2022-07-27T12:35:39Z</time>
      </trkpt>
      <trkpt lat="45.65159" lon="6.56284">
        <ele>2020</ele>
        <time>2022-07-27T12:35:40Z</time>
      </trkpt>
      <trkpt lat="45.6516" lon="6.56283">
        <ele>2020</ele>
        <time>2022-07-27T12:35:41Z</time>
      </trkpt>
      <trkpt lat="45.65161" lon="6.56283">
        <ele>2020</ele>
        <time>2022-07-27T12:35:42Z</time>
      </trkpt>
      <trkpt lat="45.65162" lon="6.56283">
        <ele>2020</ele>
        <time>2022-07-27T12:35:43Z</time>
      </trkpt>
      <trkpt lat="45.65162" lon="6.56283">
        <ele>2020</ele>
        <time>2022-07-27T12:35:44Z</time>
      </trkpt>
      <trkpt lat="45.65163" lon="6.56283">
        <ele>2020</ele>
        <time>2022-07-27T12:35:45Z</time>
      </trkpt>
      <trkpt lat="45.65164" lon="6.56284">
        <ele>2020</ele>
        <time>2022-07-27T12:35:46Z</time>
      </trkpt>
      <trkpt lat="45.65165" lon="6.56284">
        <ele>2020</ele>
        <time>2022-07-27T12:35:47Z</time>
      </trkpt>
      <trkpt lat="45.65166" lon="6.56284">
        <ele>2020</ele>
        <time>2022-07-27T12:35:48Z</time>
      </trkpt>
      <trkpt lat="45.65167" lon="6.56284">
        <ele>2020</ele>
        <time>2022-07-27T12:35:49Z</time>
      </trkpt>
      <trkpt lat="45.65168" lon="6.56284">
        <ele>2020</ele>
        <time>2022-07-27T12:35:50Z</time>
      </trkpt>
      <trkpt lat="45.65169" lon="6.56285">
        <ele>2020</ele>
        <time>2022-07-27T12:35:51Z</time>
      </trkpt>
      <trkpt lat="45.6517" lon="6.56285">
        <ele>2020</ele>
        <time>2022-07-27T12:35:52Z</time>
      </trkpt>
      <trkpt lat="45.65171" lon="6.56286">
        <ele>2020</ele>
        <time>2022-07-27T12:35:53Z</time>
      </trkpt>
      <trkpt lat="45.65172" lon="6.56286">
        <ele>2020</ele>
        <time>2022-07-27T12:35:54Z</time>
      </trkpt>
      <trkpt lat="45.65172" lon="6.56286">
        <ele>2021</ele>
        <time>2022-07-27T12:35:55Z</time>
      </trkpt>
      <trkpt lat="45.65173" lon="6.56287">
        <ele>2021</ele>
        <time>2022-07-27T12:35:56Z</time>
      </trkpt>
      <trkpt lat="45.65174" lon="6.56287">
        <ele>2021</ele>
        <time>2022-07-27T12:35:57Z</time>
      </trkpt>
      <trkpt lat="45.65175" lon="6.56287">
        <ele>2021</ele>
        <time>2022-07-27T12:35:58Z</time>
      </trkpt>
      <trkpt lat="45.65176" lon="6.56288">
        <ele>2021</ele>
        <time>2022-07-27T12:35:59Z</time>
      </trkpt>
      <trkpt lat="45.65177" lon="6.56288">
        <ele>2021</ele>
        <time>2022-07-27T12:36:00Z</time>
      </trkpt>
      <trkpt lat="45.65178" lon="6.56288">
        <ele>2021</ele>
        <time>2022-07-27T12:36:01Z</time>
      </trkpt>
      <trkpt lat="45.65179" lon="6.56289">
        <ele>2021</ele>
        <time>2022-07-27T12:36:02Z</time>
      </trkpt>
      <trkpt lat="45.6518" lon="6.56289">
        <ele>2021</ele>
        <time>2022-07-27T12:36:03Z</time>
      </trkpt>
      <trkpt lat="45.65181" lon="6.5629">
        <ele>2021</ele>
        <time>2022-07-27T12:36:04Z</time>
      </trkpt>
      <trkpt lat="45.65182" lon="6.5629">
        <ele>2021</ele>
        <time>2022-07-27T12:36:05Z</time>
      </trkpt>
      <trkpt lat="45.65183" lon="6.56291">
        <ele>2021</ele>
        <time>2022-07-27T12:36:06Z</time>
      </trkpt>
      <trkpt lat="45.65184" lon="6.56291">
        <ele>2021</ele>
        <time>2022-07-27T12:36:07Z</time>
      </trkpt>
      <trkpt lat="45.65185" lon="6.56291">
        <ele>2021</ele>
        <time>2022-07-27T12:36:08Z</time>
      </trkpt>
      <trkpt lat="45.65185" lon="6.56292">
        <ele>2021</ele>
        <time>2022-07-27T12:36:09Z</time>
      </trkpt>
      <trkpt lat="45.65186" lon="6.56292">
        <ele>2022</ele>
        <time>2022-07-27T12:36:10Z</time>
      </trkpt>
      <trkpt lat="45.65187" lon="6.56293">
        <ele>2022</ele>
        <time>2022-07-27T12:36:11Z</time>
      </trkpt>
      <trkpt lat="45.65188" lon="6.56293">
        <ele>2022</ele>
        <time>2022-07-27T12:36:12Z</time>
      </trkpt>
      <trkpt lat="45.65188" lon="6.56294">
        <ele>2022</ele>
        <time>2022-07-27T12:36:13Z</time>
      </trkpt>
      <trkpt lat="45.65189" lon="6.56294">
        <ele>2022</ele>
        <time>2022-07-27T12:36:14Z</time>
      </trkpt>
      <trkpt lat="45.6519" lon="6.56295">
        <ele>2022</ele>
        <time>2022-07-27T12:36:15Z</time>
      </trkpt>
      <trkpt lat="45.65191" lon="6.56296">
        <ele>2022</ele>
        <time>2022-07-27T12:36:29Z</time>
      </trkpt>
      <trkpt lat="45.65191" lon="6.56296">
        <ele>2022</ele>
        <time>2022-07-27T12:36:30Z</time>
      </trkpt>
      <trkpt lat="45.65191" lon="6.56296">
        <ele>2022</ele>
        <time>2022-07-27T12:36:31Z</time>
      </trkpt>
      <trkpt lat="45.65192" lon="6.56297">
        <ele>2022</ele>
        <time>2022-07-27T12:36:32Z</time>
      </trkpt>
      <trkpt lat="45.65192" lon="6.56297">
        <ele>2022</ele>
        <time>2022-07-27T12:36:33Z</time>
      </trkpt>
      <trkpt lat="45.65193" lon="6.56297">
        <ele>2022</ele>
        <time>2022-07-27T12:36:34Z</time>
      </trkpt>
      <trkpt lat="45.65194" lon="6.56297">
        <ele>2022</ele>
        <time>2022-07-27T12:36:35Z</time>
      </trkpt>
      <trkpt lat="45.65194" lon="6.56298">
        <ele>2022</ele>
        <time>2022-07-27T12:36:36Z</time>
      </trkpt>
      <trkpt lat="45.65195" lon="6.56298">
        <ele>2022</ele>
        <time>2022-07-27T12:36:37Z</time>
      </trkpt>
      <trkpt lat="45.65196" lon="6.56298">
        <ele>2022</ele>
        <time>2022-07-27T12:36:38Z</time>
      </trkpt>
      <trkpt lat="45.65197" lon="6.56299">
        <ele>2022</ele>
        <time>2022-07-27T12:36:39Z</time>
      </trkpt>
      <trkpt lat="45.65198" lon="6.56299">
        <ele>2023</ele>
        <time>2022-07-27T12:36:40Z</time>
      </trkpt>
      <trkpt lat="45.652" lon="6.56299">
        <ele>2023</ele>
        <time>2022-07-27T12:36:41Z</time>
      </trkpt>
      <trkpt lat="45.65201" lon="6.563">
        <ele>2023</ele>
        <time>2022-07-27T12:36:42Z</time>
      </trkpt>
      <trkpt lat="45.65202" lon="6.563">
        <ele>2023</ele>
        <time>2022-07-27T12:36:43Z</time>
      </trkpt>
      <trkpt lat="45.65203" lon="6.56301">
        <ele>2023</ele>
        <time>2022-07-27T12:36:44Z</time>
      </trkpt>
      <trkpt lat="45.65204" lon="6.56301">
        <ele>2023</ele>
        <time>2022-07-27T12:36:45Z</time>
      </trkpt>
      <trkpt lat="45.65205" lon="6.56301">
        <ele>2023</ele>
        <time>2022-07-27T12:36:46Z</time>
      </trkpt>
      <trkpt lat="45.65206" lon="6.56302">
        <ele>2023</ele>
        <time>2022-07-27T12:36:47Z</time>
      </trkpt>
      <trkpt lat="45.65207" lon="6.56302">
        <ele>2023</ele>
        <time>2022-07-27T12:36:48Z</time>
      </trkpt>
      <trkpt lat="45.65208" lon="6.56302">
        <ele>2023</ele>
        <time>2022-07-27T12:36:49Z</time>
      </trkpt>
      <trkpt lat="45.65209" lon="6.56303">
        <ele>2023</ele>
        <time>2022-07-27T12:36:50Z</time>
      </trkpt>
      <trkpt lat="45.6521" lon="6.56303">
        <ele>2023</ele>
        <time>2022-07-27T12:36:51Z</time>
      </trkpt>
      <trkpt lat="45.65211" lon="6.56303">
        <ele>2023</ele>
        <time>2022-07-27T12:36:52Z</time>
      </trkpt>
      <trkpt lat="45.65212" lon="6.56303">
        <ele>2023</ele>
        <time>2022-07-27T12:36:53Z</time>
      </trkpt>
      <trkpt lat="45.65212" lon="6.56304">
        <ele>2023</ele>
        <time>2022-07-27T12:36:54Z</time>
      </trkpt>
      <trkpt lat="45.65213" lon="6.56304">
        <ele>2023</ele>
        <time>2022-07-27T12:36:55Z</time>
      </trkpt>
      <trkpt lat="45.65213" lon="6.56305">
        <ele>2023</ele>
        <time>2022-07-27T12:36:56Z</time>
      </trkpt>
      <trkpt lat="45.65214" lon="6.56306">
        <ele>2023</ele>
        <time>2022-07-27T12:36:57Z</time>
      </trkpt>
      <trkpt lat="45.65214" lon="6.56307">
        <ele>2023</ele>
        <time>2022-07-27T12:36:58Z</time>
      </trkpt>
      <trkpt lat="45.65215" lon="6.56308">
        <ele>2023</ele>
        <time>2022-07-27T12:36:59Z</time>
      </trkpt>
      <trkpt lat="45.65215" lon="6.56308">
        <ele>2024</ele>
        <time>2022-07-27T12:37:00Z</time>
      </trkpt>
      <trkpt lat="45.65216" lon="6.56309">
        <ele>2024</ele>
        <time>2022-07-27T12:37:01Z</time>
      </trkpt>
      <trkpt lat="45.65217" lon="6.56309">
        <ele>2024</ele>
        <time>2022-07-27T12:37:02Z</time>
      </trkpt>
      <trkpt lat="45.65218" lon="6.56309">
        <ele>2024</ele>
        <time>2022-07-27T12:37:03Z</time>
      </trkpt>
      <trkpt lat="45.65219" lon="6.56309">
        <ele>2024</ele>
        <time>2022-07-27T12:37:04Z</time>
      </trkpt>
      <trkpt lat="45.6522" lon="6.56309">
        <ele>2024</ele>
        <time>2022-07-27T12:37:05Z</time>
      </trkpt>
      <trkpt lat="45.65221" lon="6.5631">
        <ele>2024</ele>
        <time>2022-07-27T12:37:06Z</time>
      </trkpt>
      <trkpt lat="45.65222" lon="6.5631">
        <ele>2024</ele>
        <time>2022-07-27T12:37:07Z</time>
      </trkpt>
      <trkpt lat="45.65223" lon="6.5631">
        <ele>2024</ele>
        <time>2022-07-27T12:37:08Z</time>
      </trkpt>
      <trkpt lat="45.65224" lon="6.5631">
        <ele>2024</ele>
        <time>2022-07-27T12:37:09Z</time>
      </trkpt>
      <trkpt lat="45.65225" lon="6.56311">
        <ele>2025</ele>
        <time>2022-07-27T12:37:35Z</time>
      </trkpt>
      <trkpt lat="45.65225" lon="6.56311">
        <ele>2025</ele>
        <time>2022-07-27T12:37:36Z</time>
      </trkpt>
      <trkpt lat="45.65225" lon="6.56312">
        <ele>2025</ele>
        <time>2022-07-27T12:37:37Z</time>
      </trkpt>
      <trkpt lat="45.65226" lon="6.56311">
        <ele>2025</ele>
        <time>2022-07-27T12:37:38Z</time>
      </trkpt>
      <trkpt lat="45.65226" lon="6.56311">
        <ele>2025</ele>
        <time>2022-07-27T12:37:39Z</time>
      </trkpt>
      <trkpt lat="45.65227" lon="6.56311">
        <ele>2025</ele>
        <time>2022-07-27T12:37:40Z</time>
      </trkpt>
      <trkpt lat="45.65228" lon="6.5631">
        <ele>2025</ele>
        <time>2022-07-27T12:37:41Z</time>
      </trkpt>
      <trkpt lat="45.65229" lon="6.5631">
        <ele>2025</ele>
        <time>2022-07-27T12:37:42Z</time>
      </trkpt>
      <trkpt lat="45.6523" lon="6.56309">
        <ele>2025</ele>
        <time>2022-07-27T12:37:43Z</time>
      </trkpt>
      <trkpt lat="45.65231" lon="6.56309">
        <ele>2025</ele>
        <time>2022-07-27T12:37:44Z</time>
      </trkpt>
      <trkpt lat="45.65232" lon="6.56308">
        <ele>2025</ele>
        <time>2022-07-27T12:37:45Z</time>
      </trkpt>
      <trkpt lat="45.65233" lon="6.56308">
        <ele>2025</ele>
        <time>2022-07-27T12:37:46Z</time>
      </trkpt>
      <trkpt lat="45.65234" lon="6.56307">
        <ele>2025</ele>
        <time>2022-07-27T12:37:47Z</time>
      </trkpt>
      <trkpt lat="45.65234" lon="6.56307">
        <ele>2025</ele>
        <time>2022-07-27T12:37:48Z</time>
      </trkpt>
      <trkpt lat="45.65235" lon="6.56307">
        <ele>2025</ele>
        <time>2022-07-27T12:37:49Z</time>
      </trkpt>
      <trkpt lat="45.65235" lon="6.56307">
        <ele>2025</ele>
        <time>2022-07-27T12:37:50Z</time>
      </trkpt>
      <trkpt lat="45.65235" lon="6.56306">
        <ele>2025</ele>
        <time>2022-07-27T12:37:51Z</time>
      </trkpt>
      <trkpt lat="45.65236" lon="6.56306">
        <ele>2025</ele>
        <time>2022-07-27T12:37:52Z</time>
      </trkpt>
      <trkpt lat="45.65236" lon="6.56305">
        <ele>2025</ele>
        <time>2022-07-27T12:37:53Z</time>
      </trkpt>
      <trkpt lat="45.65237" lon="6.56304">
        <ele>2025</ele>
        <time>2022-07-27T12:37:54Z</time>
      </trkpt>
      <trkpt lat="45.65238" lon="6.56304">
        <ele>2025</ele>
        <time>2022-07-27T12:37:55Z</time>
      </trkpt>
      <trkpt lat="45.65239" lon="6.56303">
        <ele>2025</ele>
        <time>2022-07-27T12:37:56Z</time>
      </trkpt>
      <trkpt lat="45.6524" lon="6.56302">
        <ele>2025</ele>
        <time>2022-07-27T12:37:57Z</time>
      </trkpt>
      <trkpt lat="45.65241" lon="6.56301">
        <ele>2025</ele>
        <time>2022-07-27T12:37:58Z</time>
      </trkpt>
      <trkpt lat="45.65242" lon="6.56301">
        <ele>2025</ele>
        <time>2022-07-27T12:37:59Z</time>
      </trkpt>
      <trkpt lat="45.65243" lon="6.56299">
        <ele>2026</ele>
        <time>2022-07-27T12:38:00Z</time>
      </trkpt>
      <trkpt lat="45.65244" lon="6.56298">
        <ele>2026</ele>
        <time>2022-07-27T12:38:01Z</time>
      </trkpt>
      <trkpt lat="45.65245" lon="6.56297">
        <ele>2026</ele>
        <time>2022-07-27T12:38:02Z</time>
      </trkpt>
      <trkpt lat="45.65245" lon="6.56296">
        <ele>2026</ele>
        <time>2022-07-27T12:38:03Z</time>
      </trkpt>
      <trkpt lat="45.65246" lon="6.56294">
        <ele>2026</ele>
        <time>2022-07-27T12:38:04Z</time>
      </trkpt>
      <trkpt lat="45.65247" lon="6.56293">
        <ele>2026</ele>
        <time>2022-07-27T12:38:05Z</time>
      </trkpt>
      <trkpt lat="45.65247" lon="6.56291">
        <ele>2026</ele>
        <time>2022-07-27T12:38:06Z</time>
      </trkpt>
      <trkpt lat="45.65248" lon="6.5629">
        <ele>2026</ele>
        <time>2022-07-27T12:38:07Z</time>
      </trkpt>
      <trkpt lat="45.65249" lon="6.56289">
        <ele>2026</ele>
        <time>2022-07-27T12:38:08Z</time>
      </trkpt>
      <trkpt lat="45.65249" lon="6.56287">
        <ele>2026</ele>
        <time>2022-07-27T12:38:09Z</time>
      </trkpt>
      <trkpt lat="45.6525" lon="6.56286">
        <ele>2027</ele>
        <time>2022-07-27T12:38:10Z</time>
      </trkpt>
      <trkpt lat="45.6525" lon="6.56284">
        <ele>2027</ele>
        <time>2022-07-27T12:38:11Z</time>
      </trkpt>
      <trkpt lat="45.65251" lon="6.56283">
        <ele>2027</ele>
        <time>2022-07-27T12:38:12Z</time>
      </trkpt>
      <trkpt lat="45.65251" lon="6.56281">
        <ele>2027</ele>
        <time>2022-07-27T12:38:13Z</time>
      </trkpt>
      <trkpt lat="45.65252" lon="6.5628">
        <ele>2027</ele>
        <time>2022-07-27T12:38:14Z</time>
      </trkpt>
      <trkpt lat="45.65252" lon="6.56278">
        <ele>2027</ele>
        <time>2022-07-27T12:38:15Z</time>
      </trkpt>
      <trkpt lat="45.65252" lon="6.56276">
        <ele>2027</ele>
        <time>2022-07-27T12:38:16Z</time>
      </trkpt>
      <trkpt lat="45.65253" lon="6.56275">
        <ele>2027</ele>
        <time>2022-07-27T12:38:17Z</time>
      </trkpt>
      <trkpt lat="45.65254" lon="6.56273">
        <ele>2027</ele>
        <time>2022-07-27T12:38:18Z</time>
      </trkpt>
      <trkpt lat="45.65254" lon="6.56272">
        <ele>2027</ele>
        <time>2022-07-27T12:38:19Z</time>
      </trkpt>
      <trkpt lat="45.65255" lon="6.56271">
        <ele>2028</ele>
        <time>2022-07-27T12:38:20Z</time>
      </trkpt>
      <trkpt lat="45.65256" lon="6.56269">
        <ele>2028</ele>
        <time>2022-07-27T12:38:21Z</time>
      </trkpt>
      <trkpt lat="45.65256" lon="6.56268">
        <ele>2028</ele>
        <time>2022-07-27T12:38:22Z</time>
      </trkpt>
      <trkpt lat="45.65257" lon="6.56267">
        <ele>2028</ele>
        <time>2022-07-27T12:38:23Z</time>
      </trkpt>
      <trkpt lat="45.65258" lon="6.56266">
        <ele>2028</ele>
        <time>2022-07-27T12:38:24Z</time>
      </trkpt>
      <trkpt lat="45.65259" lon="6.56266">
        <ele>2028</ele>
        <time>2022-07-27T12:38:25Z</time>
      </trkpt>
      <trkpt lat="45.6526" lon="6.56265">
        <ele>2028</ele>
        <time>2022-07-27T12:38:26Z</time>
      </trkpt>
      <trkpt lat="45.65261" lon="6.56264">
        <ele>2028</ele>
        <time>2022-07-27T12:38:27Z</time>
      </trkpt>
      <trkpt lat="45.65263" lon="6.56264">
        <ele>2028</ele>
        <time>2022-07-27T12:38:28Z</time>
      </trkpt>
      <trkpt lat="45.65264" lon="6.56263">
        <ele>2028</ele>
        <time>2022-07-27T12:38:29Z</time>
      </trkpt>
      <trkpt lat="45.65265" lon="6.56263">
        <ele>2029</ele>
        <time>2022-07-27T12:38:30Z</time>
      </trkpt>
      <trkpt lat="45.65266" lon="6.56262">
        <ele>2029</ele>
        <time>2022-07-27T12:38:31Z</time>
      </trkpt>
      <trkpt lat="45.65267" lon="6.56262">
        <ele>2029</ele>
        <time>2022-07-27T12:38:32Z</time>
      </trkpt>
      <trkpt lat="45.65269" lon="6.56262">
        <ele>2029</ele>
        <time>2022-07-27T12:38:33Z</time>
      </trkpt>
      <trkpt lat="45.6527" lon="6.56262">
        <ele>2029</ele>
        <time>2022-07-27T12:38:34Z</time>
      </trkpt>
      <trkpt lat="45.65271" lon="6.56263">
        <ele>2030</ele>
        <time>2022-07-27T12:38:35Z</time>
      </trkpt>
      <trkpt lat="45.65272" lon="6.56263">
        <ele>2030</ele>
        <time>2022-07-27T12:38:36Z</time>
      </trkpt>
      <trkpt lat="45.65274" lon="6.56263">
        <ele>2030</ele>
        <time>2022-07-27T12:38:37Z</time>
      </trkpt>
      <trkpt lat="45.65275" lon="6.56264">
        <ele>2030</ele>
        <time>2022-07-27T12:38:38Z</time>
      </trkpt>
      <trkpt lat="45.65276" lon="6.56264">
        <ele>2030</ele>
        <time>2022-07-27T12:38:39Z</time>
      </trkpt>
      <trkpt lat="45.65278" lon="6.56264">
        <ele>2031</ele>
        <time>2022-07-27T12:38:40Z</time>
      </trkpt>
      <trkpt lat="45.65279" lon="6.56264">
        <ele>2031</ele>
        <time>2022-07-27T12:38:41Z</time>
      </trkpt>
      <trkpt lat="45.6528" lon="6.56264">
        <ele>2031</ele>
        <time>2022-07-27T12:38:42Z</time>
      </trkpt>
      <trkpt lat="45.65281" lon="6.56265">
        <ele>2031</ele>
        <time>2022-07-27T12:38:43Z</time>
      </trkpt>
      <trkpt lat="45.65281" lon="6.56265">
        <ele>2032</ele>
        <time>2022-07-27T12:39:01Z</time>
      </trkpt>
      <trkpt lat="45.65281" lon="6.56266">
        <ele>2032</ele>
        <time>2022-07-27T12:39:02Z</time>
      </trkpt>
      <trkpt lat="45.65281" lon="6.56266">
        <ele>2032</ele>
        <time>2022-07-27T12:39:03Z</time>
      </trkpt>
      <trkpt lat="45.65282" lon="6.56266">
        <ele>2032</ele>
        <time>2022-07-27T12:39:04Z</time>
      </trkpt>
      <trkpt lat="45.65282" lon="6.56266">
        <ele>2032</ele>
        <time>2022-07-27T12:39:05Z</time>
      </trkpt>
      <trkpt lat="45.65283" lon="6.56266">
        <ele>2032</ele>
        <time>2022-07-27T12:39:06Z</time>
      </trkpt>
      <trkpt lat="45.65284" lon="6.56265">
        <ele>2032</ele>
        <time>2022-07-27T12:39:07Z</time>
      </trkpt>
      <trkpt lat="45.65286" lon="6.56265">
        <ele>2032</ele>
        <time>2022-07-27T12:39:08Z</time>
      </trkpt>
      <trkpt lat="45.65287" lon="6.56265">
        <ele>2032</ele>
        <time>2022-07-27T12:39:09Z</time>
      </trkpt>
      <trkpt lat="45.65288" lon="6.56265">
        <ele>2032</ele>
        <time>2022-07-27T12:39:10Z</time>
      </trkpt>
      <trkpt lat="45.65289" lon="6.56265">
        <ele>2032</ele>
        <time>2022-07-27T12:39:11Z</time>
      </trkpt>
      <trkpt lat="45.65291" lon="6.56265">
        <ele>2032</ele>
        <time>2022-07-27T12:39:12Z</time>
      </trkpt>
      <trkpt lat="45.65292" lon="6.56266">
        <ele>2032</ele>
        <time>2022-07-27T12:39:13Z</time>
      </trkpt>
      <trkpt lat="45.65293" lon="6.56265">
        <ele>2032</ele>
        <time>2022-07-27T12:39:14Z</time>
      </trkpt>
      <trkpt lat="45.65295" lon="6.56265">
        <ele>2033</ele>
        <time>2022-07-27T12:39:15Z</time>
      </trkpt>
      <trkpt lat="45.65296" lon="6.56265">
        <ele>2033</ele>
        <time>2022-07-27T12:39:16Z</time>
      </trkpt>
      <trkpt lat="45.65297" lon="6.56265">
        <ele>2033</ele>
        <time>2022-07-27T12:39:17Z</time>
      </trkpt>
      <trkpt lat="45.65298" lon="6.56264">
        <ele>2033</ele>
        <time>2022-07-27T12:39:18Z</time>
      </trkpt>
      <trkpt lat="45.653" lon="6.56264">
        <ele>2033</ele>
        <time>2022-07-27T12:39:19Z</time>
      </trkpt>
      <trkpt lat="45.65301" lon="6.56263">
        <ele>2033</ele>
        <time>2022-07-27T12:39:20Z</time>
      </trkpt>
      <trkpt lat="45.65302" lon="6.56263">
        <ele>2033</ele>
        <time>2022-07-27T12:39:21Z</time>
      </trkpt>
      <trkpt lat="45.65303" lon="6.56262">
        <ele>2033</ele>
        <time>2022-07-27T12:39:22Z</time>
      </trkpt>
      <trkpt lat="45.65304" lon="6.56262">
        <ele>2033</ele>
        <time>2022-07-27T12:39:23Z</time>
      </trkpt>
      <trkpt lat="45.65305" lon="6.56262">
        <ele>2033</ele>
        <time>2022-07-27T12:39:24Z</time>
      </trkpt>
      <trkpt lat="45.65306" lon="6.56261">
        <ele>2033</ele>
        <time>2022-07-27T12:39:25Z</time>
      </trkpt>
      <trkpt lat="45.65307" lon="6.56261">
        <ele>2033</ele>
        <time>2022-07-27T12:39:26Z</time>
      </trkpt>
      <trkpt lat="45.65307" lon="6.5626">
        <ele>2033</ele>
        <time>2022-07-27T12:39:27Z</time>
      </trkpt>
      <trkpt lat="45.65308" lon="6.5626">
        <ele>2033</ele>
        <time>2022-07-27T12:39:28Z</time>
      </trkpt>
      <trkpt lat="45.65308" lon="6.56259">
        <ele>2033</ele>
        <time>2022-07-27T12:39:29Z</time>
      </trkpt>
      <trkpt lat="45.65308" lon="6.56259">
        <ele>2033</ele>
        <time>2022-07-27T12:39:30Z</time>
      </trkpt>
      <trkpt lat="45.65309" lon="6.56258">
        <ele>2033</ele>
        <time>2022-07-27T12:39:31Z</time>
      </trkpt>
      <trkpt lat="45.65308" lon="6.56257">
        <ele>2033</ele>
        <time>2022-07-27T12:39:32Z</time>
      </trkpt>
      <trkpt lat="45.65308" lon="6.56256">
        <ele>2033</ele>
        <time>2022-07-27T12:39:33Z</time>
      </trkpt>
      <trkpt lat="45.65308" lon="6.56255">
        <ele>2033</ele>
        <time>2022-07-27T12:39:34Z</time>
      </trkpt>
      <trkpt lat="45.65308" lon="6.56254">
        <ele>2034</ele>
        <time>2022-07-27T12:39:35Z</time>
      </trkpt>
      <trkpt lat="45.65308" lon="6.56253">
        <ele>2034</ele>
        <time>2022-07-27T12:39:36Z</time>
      </trkpt>
      <trkpt lat="45.65307" lon="6.56252">
        <ele>2034</ele>
        <time>2022-07-27T12:39:37Z</time>
      </trkpt>
      <trkpt lat="45.65307" lon="6.56251">
        <ele>2034</ele>
        <time>2022-07-27T12:39:38Z</time>
      </trkpt>
      <trkpt lat="45.65307" lon="6.56251">
        <ele>2034</ele>
        <time>2022-07-27T12:39:39Z</time>
      </trkpt>
      <trkpt lat="45.65306" lon="6.5625">
        <ele>2034</ele>
        <time>2022-07-27T12:39:40Z</time>
      </trkpt>
      <trkpt lat="45.65306" lon="6.56249">
        <ele>2034</ele>
        <time>2022-07-27T12:39:41Z</time>
      </trkpt>
      <trkpt lat="45.65305" lon="6.56247">
        <ele>2035</ele>
        <time>2022-07-27T12:39:55Z</time>
      </trkpt>
      <trkpt lat="45.65304" lon="6.56246">
        <ele>2035</ele>
        <time>2022-07-27T12:39:56Z</time>
      </trkpt>
      <trkpt lat="45.65304" lon="6.56245">
        <ele>2035</ele>
        <time>2022-07-27T12:39:57Z</time>
      </trkpt>
      <trkpt lat="45.65303" lon="6.56245">
        <ele>2035</ele>
        <time>2022-07-27T12:39:58Z</time>
      </trkpt>
      <trkpt lat="45.65302" lon="6.56244">
        <ele>2035</ele>
        <time>2022-07-27T12:39:59Z</time>
      </trkpt>
      <trkpt lat="45.65301" lon="6.56243">
        <ele>2036</ele>
        <time>2022-07-27T12:40:00Z</time>
      </trkpt>
      <trkpt lat="45.653" lon="6.56242">
        <ele>2036</ele>
        <time>2022-07-27T12:40:01Z</time>
      </trkpt>
      <trkpt lat="45.65299" lon="6.56242">
        <ele>2036</ele>
        <time>2022-07-27T12:40:02Z</time>
      </trkpt>
      <trkpt lat="45.65299" lon="6.56241">
        <ele>2036</ele>
        <time>2022-07-27T12:40:03Z</time>
      </trkpt>
      <trkpt lat="45.65298" lon="6.5624">
        <ele>2036</ele>
        <time>2022-07-27T12:40:04Z</time>
      </trkpt>
      <trkpt lat="45.65297" lon="6.56239">
        <ele>2036</ele>
        <time>2022-07-27T12:40:05Z</time>
      </trkpt>
      <trkpt lat="45.65296" lon="6.56239">
        <ele>2036</ele>
        <time>2022-07-27T12:40:06Z</time>
      </trkpt>
      <trkpt lat="45.65295" lon="6.56238">
        <ele>2036</ele>
        <time>2022-07-27T12:40:07Z</time>
      </trkpt>
      <trkpt lat="45.65294" lon="6.56237">
        <ele>2036</ele>
        <time>2022-07-27T12:40:08Z</time>
      </trkpt>
      <trkpt lat="45.65293" lon="6.56236">
        <ele>2036</ele>
        <time>2022-07-27T12:40:09Z</time>
      </trkpt>
      <trkpt lat="45.65293" lon="6.56236">
        <ele>2037</ele>
        <time>2022-07-27T12:40:10Z</time>
      </trkpt>
      <trkpt lat="45.65292" lon="6.56235">
        <ele>2037</ele>
        <time>2022-07-27T12:40:11Z</time>
      </trkpt>
      <trkpt lat="45.65291" lon="6.56234">
        <ele>2037</ele>
        <time>2022-07-27T12:40:12Z</time>
      </trkpt>
      <trkpt lat="45.65291" lon="6.56234">
        <ele>2037</ele>
        <time>2022-07-27T12:40:13Z</time>
      </trkpt>
      <trkpt lat="45.6529" lon="6.56233">
        <ele>2037</ele>
        <time>2022-07-27T12:40:14Z</time>
      </trkpt>
      <trkpt lat="45.65289" lon="6.56232">
        <ele>2037</ele>
        <time>2022-07-27T12:40:15Z</time>
      </trkpt>
      <trkpt lat="45.65289" lon="6.56232">
        <ele>2037</ele>
        <time>2022-07-27T12:40:16Z</time>
      </trkpt>
      <trkpt lat="45.65288" lon="6.56231">
        <ele>2037</ele>
        <time>2022-07-27T12:40:17Z</time>
      </trkpt>
      <trkpt lat="45.65287" lon="6.56231">
        <ele>2037</ele>
        <time>2022-07-27T12:40:18Z</time>
      </trkpt>
      <trkpt lat="45.65287" lon="6.5623">
        <ele>2037</ele>
        <time>2022-07-27T12:40:19Z</time>
      </trkpt>
      <trkpt lat="45.65286" lon="6.5623">
        <ele>2038</ele>
        <time>2022-07-27T12:40:20Z</time>
      </trkpt>
      <trkpt lat="45.65285" lon="6.56229">
        <ele>2038</ele>
        <time>2022-07-27T12:40:21Z</time>
      </trkpt>
      <trkpt lat="45.65284" lon="6.56228">
        <ele>2038</ele>
        <time>2022-07-27T12:40:22Z</time>
      </trkpt>
      <trkpt lat="45.65284" lon="6.56228">
        <ele>2038</ele>
        <time>2022-07-27T12:40:23Z</time>
      </trkpt>
      <trkpt lat="45.65283" lon="6.56227">
        <ele>2038</ele>
        <time>2022-07-27T12:40:24Z</time>
      </trkpt>
      <trkpt lat="45.65282" lon="6.56226">
        <ele>2039</ele>
        <time>2022-07-27T12:40:25Z</time>
      </trkpt>
      <trkpt lat="45.65282" lon="6.56226">
        <ele>2039</ele>
        <time>2022-07-27T12:40:26Z</time>
      </trkpt>
      <trkpt lat="45.65281" lon="6.56225">
        <ele>2039</ele>
        <time>2022-07-27T12:40:27Z</time>
      </trkpt>
      <trkpt lat="45.6528" lon="6.56224">
        <ele>2039</ele>
        <time>2022-07-27T12:40:28Z</time>
      </trkpt>
      <trkpt lat="45.6528" lon="6.56224">
        <ele>2039</ele>
        <time>2022-07-27T12:40:29Z</time>
      </trkpt>
      <trkpt lat="45.65279" lon="6.56223">
        <ele>2039</ele>
        <time>2022-07-27T12:40:30Z</time>
      </trkpt>
      <trkpt lat="45.65278" lon="6.56223">
        <ele>2039</ele>
        <time>2022-07-27T12:40:31Z</time>
      </trkpt>
      <trkpt lat="45.65277" lon="6.56222">
        <ele>2039</ele>
        <time>2022-07-27T12:40:32Z</time>
      </trkpt>
      <trkpt lat="45.65277" lon="6.56222">
        <ele>2039</ele>
        <time>2022-07-27T12:40:33Z</time>
      </trkpt>
      <trkpt lat="45.65276" lon="6.56221">
        <ele>2039</ele>
        <time>2022-07-27T12:40:34Z</time>
      </trkpt>
      <trkpt lat="45.65275" lon="6.56221">
        <ele>2040</ele>
        <time>2022-07-27T12:40:35Z</time>
      </trkpt>
      <trkpt lat="45.65274" lon="6.5622">
        <ele>2040</ele>
        <time>2022-07-27T12:40:36Z</time>
      </trkpt>
      <trkpt lat="45.65274" lon="6.5622">
        <ele>2040</ele>
        <time>2022-07-27T12:40:37Z</time>
      </trkpt>
      <trkpt lat="45.65273" lon="6.56219">
        <ele>2040</ele>
        <time>2022-07-27T12:40:38Z</time>
      </trkpt>
      <trkpt lat="45.65272" lon="6.56219">
        <ele>2040</ele>
        <time>2022-07-27T12:40:39Z</time>
      </trkpt>
      <trkpt lat="45.65271" lon="6.56218">
        <ele>2040</ele>
        <time>2022-07-27T12:40:40Z</time>
      </trkpt>
      <trkpt lat="45.65271" lon="6.56218">
        <ele>2040</ele>
        <time>2022-07-27T12:40:41Z</time>
      </trkpt>
      <trkpt lat="45.6527" lon="6.56217">
        <ele>2040</ele>
        <time>2022-07-27T12:40:42Z</time>
      </trkpt>
      <trkpt lat="45.65269" lon="6.56216">
        <ele>2040</ele>
        <time>2022-07-27T12:40:43Z</time>
      </trkpt>
      <trkpt lat="45.65268" lon="6.56216">
        <ele>2040</ele>
        <time>2022-07-27T12:40:44Z</time>
      </trkpt>
      <trkpt lat="45.65268" lon="6.56215">
        <ele>2041</ele>
        <time>2022-07-27T12:40:45Z</time>
      </trkpt>
      <trkpt lat="45.65267" lon="6.56214">
        <ele>2041</ele>
        <time>2022-07-27T12:40:46Z</time>
      </trkpt>
      <trkpt lat="45.65266" lon="6.56214">
        <ele>2041</ele>
        <time>2022-07-27T12:40:47Z</time>
      </trkpt>
      <trkpt lat="45.65266" lon="6.56213">
        <ele>2041</ele>
        <time>2022-07-27T12:40:48Z</time>
      </trkpt>
      <trkpt lat="45.65265" lon="6.56212">
        <ele>2041</ele>
        <time>2022-07-27T12:40:49Z</time>
      </trkpt>
      <trkpt lat="45.65264" lon="6.56212">
        <ele>2041</ele>
        <time>2022-07-27T12:40:50Z</time>
      </trkpt>
      <trkpt lat="45.65263" lon="6.56211">
        <ele>2041</ele>
        <time>2022-07-27T12:40:51Z</time>
      </trkpt>
      <trkpt lat="45.65263" lon="6.5621">
        <ele>2041</ele>
        <time>2022-07-27T12:40:52Z</time>
      </trkpt>
      <trkpt lat="45.65262" lon="6.56209">
        <ele>2041</ele>
        <time>2022-07-27T12:40:53Z</time>
      </trkpt>
      <trkpt lat="45.65261" lon="6.56209">
        <ele>2041</ele>
        <time>2022-07-27T12:40:54Z</time>
      </trkpt>
      <trkpt lat="45.65261" lon="6.56208">
        <ele>2042</ele>
        <time>2022-07-27T12:40:55Z</time>
      </trkpt>
      <trkpt lat="45.6526" lon="6.56207">
        <ele>2042</ele>
        <time>2022-07-27T12:40:56Z</time>
      </trkpt>
      <trkpt lat="45.65259" lon="6.56206">
        <ele>2042</ele>
        <time>2022-07-27T12:40:57Z</time>
      </trkpt>
      <trkpt lat="45.65259" lon="6.56206">
        <ele>2042</ele>
        <time>2022-07-27T12:40:58Z</time>
      </trkpt>
      <trkpt lat="45.65258" lon="6.56205">
        <ele>2042</ele>
        <time>2022-07-27T12:40:59Z</time>
      </trkpt>
      <trkpt lat="45.65258" lon="6.56204">
        <ele>2042</ele>
        <time>2022-07-27T12:41:00Z</time>
      </trkpt>
      <trkpt lat="45.65257" lon="6.56204">
        <ele>2042</ele>
        <time>2022-07-27T12:41:01Z</time>
      </trkpt>
      <trkpt lat="45.65256" lon="6.56203">
        <ele>2042</ele>
        <time>2022-07-27T12:41:02Z</time>
      </trkpt>
      <trkpt lat="45.65256" lon="6.56202">
        <ele>2042</ele>
        <time>2022-07-27T12:41:03Z</time>
      </trkpt>
      <trkpt lat="45.65255" lon="6.56202">
        <ele>2042</ele>
        <time>2022-07-27T12:41:04Z</time>
      </trkpt>
      <trkpt lat="45.65254" lon="6.56201">
        <ele>2043</ele>
        <time>2022-07-27T12:41:05Z</time>
      </trkpt>
      <trkpt lat="45.65254" lon="6.56201">
        <ele>2043</ele>
        <time>2022-07-27T12:41:06Z</time>
      </trkpt>
      <trkpt lat="45.65253" lon="6.562">
        <ele>2043</ele>
        <time>2022-07-27T12:41:07Z</time>
      </trkpt>
      <trkpt lat="45.65252" lon="6.56199">
        <ele>2043</ele>
        <time>2022-07-27T12:41:08Z</time>
      </trkpt>
      <trkpt lat="45.65252" lon="6.56199">
        <ele>2043</ele>
        <time>2022-07-27T12:41:09Z</time>
      </trkpt>
      <trkpt lat="45.65251" lon="6.56198">
        <ele>2043</ele>
        <time>2022-07-27T12:41:10Z</time>
      </trkpt>
      <trkpt lat="45.6525" lon="6.56197">
        <ele>2043</ele>
        <time>2022-07-27T12:41:11Z</time>
      </trkpt>
      <trkpt lat="45.65249" lon="6.56196">
        <ele>2043</ele>
        <time>2022-07-27T12:41:12Z</time>
      </trkpt>
      <trkpt lat="45.65249" lon="6.56196">
        <ele>2043</ele>
        <time>2022-07-27T12:41:13Z</time>
      </trkpt>
      <trkpt lat="45.65248" lon="6.56195">
        <ele>2043</ele>
        <time>2022-07-27T12:41:14Z</time>
      </trkpt>
      <trkpt lat="45.65248" lon="6.56194">
        <ele>2044</ele>
        <time>2022-07-27T12:41:15Z</time>
      </trkpt>
      <trkpt lat="45.65247" lon="6.56194">
        <ele>2044</ele>
        <time>2022-07-27T12:41:16Z</time>
      </trkpt>
      <trkpt lat="45.65246" lon="6.56193">
        <ele>2044</ele>
        <time>2022-07-27T12:41:17Z</time>
      </trkpt>
      <trkpt lat="45.65246" lon="6.56192">
        <ele>2044</ele>
        <time>2022-07-27T12:41:18Z</time>
      </trkpt>
      <trkpt lat="45.65245" lon="6.56191">
        <ele>2044</ele>
        <time>2022-07-27T12:41:19Z</time>
      </trkpt>
      <trkpt lat="45.65244" lon="6.56191">
        <ele>2044</ele>
        <time>2022-07-27T12:41:20Z</time>
      </trkpt>
      <trkpt lat="45.65244" lon="6.5619">
        <ele>2044</ele>
        <time>2022-07-27T12:41:21Z</time>
      </trkpt>
      <trkpt lat="45.65243" lon="6.56189">
        <ele>2044</ele>
        <time>2022-07-27T12:41:22Z</time>
      </trkpt>
      <trkpt lat="45.65242" lon="6.56189">
        <ele>2044</ele>
        <time>2022-07-27T12:41:23Z</time>
      </trkpt>
      <trkpt lat="45.65242" lon="6.56188">
        <ele>2044</ele>
        <time>2022-07-27T12:41:24Z</time>
      </trkpt>
      <trkpt lat="45.65241" lon="6.56188">
        <ele>2045</ele>
        <time>2022-07-27T12:41:25Z</time>
      </trkpt>
      <trkpt lat="45.6524" lon="6.56188">
        <ele>2045</ele>
        <time>2022-07-27T12:41:26Z</time>
      </trkpt>
      <trkpt lat="45.6524" lon="6.56187">
        <ele>2045</ele>
        <time>2022-07-27T12:41:27Z</time>
      </trkpt>
      <trkpt lat="45.65239" lon="6.56187">
        <ele>2045</ele>
        <time>2022-07-27T12:41:28Z</time>
      </trkpt>
      <trkpt lat="45.65238" lon="6.56186">
        <ele>2045</ele>
        <time>2022-07-27T12:41:29Z</time>
      </trkpt>
      <trkpt lat="45.65238" lon="6.56185">
        <ele>2045</ele>
        <time>2022-07-27T12:41:30Z</time>
      </trkpt>
      <trkpt lat="45.65237" lon="6.56185">
        <ele>2045</ele>
        <time>2022-07-27T12:41:31Z</time>
      </trkpt>
      <trkpt lat="45.65236" lon="6.56184">
        <ele>2045</ele>
        <time>2022-07-27T12:41:32Z</time>
      </trkpt>
      <trkpt lat="45.65236" lon="6.56184">
        <ele>2045</ele>
        <time>2022-07-27T12:41:33Z</time>
      </trkpt>
      <trkpt lat="45.65235" lon="6.56183">
        <ele>2045</ele>
        <time>2022-07-27T12:41:34Z</time>
      </trkpt>
      <trkpt lat="45.65234" lon="6.56182">
        <ele>2046</ele>
        <time>2022-07-27T12:41:35Z</time>
      </trkpt>
      <trkpt lat="45.65233" lon="6.56182">
        <ele>2046</ele>
        <time>2022-07-27T12:41:36Z</time>
      </trkpt>
      <trkpt lat="45.65233" lon="6.56181">
        <ele>2046</ele>
        <time>2022-07-27T12:41:37Z</time>
      </trkpt>
      <trkpt lat="45.65232" lon="6.5618">
        <ele>2046</ele>
        <time>2022-07-27T12:41:38Z</time>
      </trkpt>
      <trkpt lat="45.65231" lon="6.56179">
        <ele>2046</ele>
        <time>2022-07-27T12:41:39Z</time>
      </trkpt>
      <trkpt lat="45.6523" lon="6.56179">
        <ele>2046</ele>
        <time>2022-07-27T12:41:40Z</time>
      </trkpt>
      <trkpt lat="45.6523" lon="6.56178">
        <ele>2046</ele>
        <time>2022-07-27T12:41:41Z</time>
      </trkpt>
      <trkpt lat="45.65229" lon="6.56177">
        <ele>2046</ele>
        <time>2022-07-27T12:41:42Z</time>
      </trkpt>
      <trkpt lat="45.65228" lon="6.56177">
        <ele>2046</ele>
        <time>2022-07-27T12:41:43Z</time>
      </trkpt>
      <trkpt lat="45.65227" lon="6.56177">
        <ele>2046</ele>
        <time>2022-07-27T12:41:44Z</time>
      </trkpt>
      <trkpt lat="45.65226" lon="6.56176">
        <ele>2047</ele>
        <time>2022-07-27T12:41:45Z</time>
      </trkpt>
      <trkpt lat="45.65225" lon="6.56176">
        <ele>2047</ele>
        <time>2022-07-27T12:41:46Z</time>
      </trkpt>
      <trkpt lat="45.65224" lon="6.56176">
        <ele>2047</ele>
        <time>2022-07-27T12:41:47Z</time>
      </trkpt>
      <trkpt lat="45.65223" lon="6.56176">
        <ele>2047</ele>
        <time>2022-07-27T12:41:48Z</time>
      </trkpt>
      <trkpt lat="45.65222" lon="6.56176">
        <ele>2047</ele>
        <time>2022-07-27T12:41:49Z</time>
      </trkpt>
      <trkpt lat="45.65221" lon="6.56176">
        <ele>2047</ele>
        <time>2022-07-27T12:41:50Z</time>
      </trkpt>
      <trkpt lat="45.6522" lon="6.56176">
        <ele>2047</ele>
        <time>2022-07-27T12:41:51Z</time>
      </trkpt>
      <trkpt lat="45.65219" lon="6.56175">
        <ele>2047</ele>
        <time>2022-07-27T12:41:52Z</time>
      </trkpt>
      <trkpt lat="45.65219" lon="6.56175">
        <ele>2047</ele>
        <time>2022-07-27T12:41:53Z</time>
      </trkpt>
      <trkpt lat="45.65218" lon="6.56175">
        <ele>2047</ele>
        <time>2022-07-27T12:41:54Z</time>
      </trkpt>
      <trkpt lat="45.65217" lon="6.56175">
        <ele>2048</ele>
        <time>2022-07-27T12:41:55Z</time>
      </trkpt>
      <trkpt lat="45.65216" lon="6.56175">
        <ele>2048</ele>
        <time>2022-07-27T12:41:56Z</time>
      </trkpt>
      <trkpt lat="45.65215" lon="6.56174">
        <ele>2048</ele>
        <time>2022-07-27T12:41:57Z</time>
      </trkpt>
      <trkpt lat="45.65215" lon="6.56174">
        <ele>2048</ele>
        <time>2022-07-27T12:41:58Z</time>
      </trkpt>
      <trkpt lat="45.65214" lon="6.56174">
        <ele>2048</ele>
        <time>2022-07-27T12:41:59Z</time>
      </trkpt>
      <trkpt lat="45.65213" lon="6.56174">
        <ele>2048</ele>
        <time>2022-07-27T12:42:00Z</time>
      </trkpt>
      <trkpt lat="45.65212" lon="6.56173">
        <ele>2048</ele>
        <time>2022-07-27T12:42:01Z</time>
      </trkpt>
      <trkpt lat="45.65211" lon="6.56173">
        <ele>2048</ele>
        <time>2022-07-27T12:42:02Z</time>
      </trkpt>
      <trkpt lat="45.65211" lon="6.56173">
        <ele>2048</ele>
        <time>2022-07-27T12:42:03Z</time>
      </trkpt>
      <trkpt lat="45.6521" lon="6.56173">
        <ele>2048</ele>
        <time>2022-07-27T12:42:04Z</time>
      </trkpt>
      <trkpt lat="45.65209" lon="6.56173">
        <ele>2048</ele>
        <time>2022-07-27T12:42:05Z</time>
      </trkpt>
      <trkpt lat="45.65208" lon="6.56172">
        <ele>2048</ele>
        <time>2022-07-27T12:42:06Z</time>
      </trkpt>
      <trkpt lat="45.65207" lon="6.56172">
        <ele>2048</ele>
        <time>2022-07-27T12:42:07Z</time>
      </trkpt>
      <trkpt lat="45.65206" lon="6.56172">
        <ele>2048</ele>
        <time>2022-07-27T12:42:08Z</time>
      </trkpt>
      <trkpt lat="45.65205" lon="6.56172">
        <ele>2048</ele>
        <time>2022-07-27T12:42:09Z</time>
      </trkpt>
      <trkpt lat="45.65204" lon="6.56171">
        <ele>2049</ele>
        <time>2022-07-27T12:42:10Z</time>
      </trkpt>
      <trkpt lat="45.65203" lon="6.56171">
        <ele>2049</ele>
        <time>2022-07-27T12:42:11Z</time>
      </trkpt>
      <trkpt lat="45.65202" lon="6.56171">
        <ele>2049</ele>
        <time>2022-07-27T12:42:12Z</time>
      </trkpt>
      <trkpt lat="45.65201" lon="6.5617">
        <ele>2049</ele>
        <time>2022-07-27T12:42:13Z</time>
      </trkpt>
      <trkpt lat="45.652" lon="6.5617">
        <ele>2049</ele>
        <time>2022-07-27T12:42:14Z</time>
      </trkpt>
      <trkpt lat="45.652" lon="6.5617">
        <ele>2049</ele>
        <time>2022-07-27T12:42:15Z</time>
      </trkpt>
      <trkpt lat="45.65199" lon="6.56169">
        <ele>2049</ele>
        <time>2022-07-27T12:42:16Z</time>
      </trkpt>
      <trkpt lat="45.65198" lon="6.56169">
        <ele>2049</ele>
        <time>2022-07-27T12:42:17Z</time>
      </trkpt>
      <trkpt lat="45.65197" lon="6.56169">
        <ele>2049</ele>
        <time>2022-07-27T12:42:18Z</time>
      </trkpt>
      <trkpt lat="45.65196" lon="6.56168">
        <ele>2049</ele>
        <time>2022-07-27T12:42:19Z</time>
      </trkpt>
      <trkpt lat="45.65195" lon="6.56168">
        <ele>2050</ele>
        <time>2022-07-27T12:42:20Z</time>
      </trkpt>
      <trkpt lat="45.65194" lon="6.56167">
        <ele>2050</ele>
        <time>2022-07-27T12:42:21Z</time>
      </trkpt>
      <trkpt lat="45.65193" lon="6.56167">
        <ele>2050</ele>
        <time>2022-07-27T12:42:22Z</time>
      </trkpt>
      <trkpt lat="45.65193" lon="6.56166">
        <ele>2050</ele>
        <time>2022-07-27T12:42:23Z</time>
      </trkpt>
      <trkpt lat="45.65192" lon="6.56166">
        <ele>2050</ele>
        <time>2022-07-27T12:42:24Z</time>
      </trkpt>
      <trkpt lat="45.65191" lon="6.56165">
        <ele>2050</ele>
        <time>2022-07-27T12:42:25Z</time>
      </trkpt>
      <trkpt lat="45.6519" lon="6.56165">
        <ele>2050</ele>
        <time>2022-07-27T12:42:26Z</time>
      </trkpt>
      <trkpt lat="45.6519" lon="6.56164">
        <ele>2050</ele>
        <time>2022-07-27T12:42:27Z</time>
      </trkpt>
      <trkpt lat="45.65189" lon="6.56164">
        <ele>2050</ele>
        <time>2022-07-27T12:42:28Z</time>
      </trkpt>
      <trkpt lat="45.65189" lon="6.56164">
        <ele>2050</ele>
        <time>2022-07-27T12:42:29Z</time>
      </trkpt>
      <trkpt lat="45.65188" lon="6.56164">
        <ele>2051</ele>
        <time>2022-07-27T12:42:30Z</time>
      </trkpt>
      <trkpt lat="45.65187" lon="6.56163">
        <ele>2051</ele>
        <time>2022-07-27T12:42:31Z</time>
      </trkpt>
      <trkpt lat="45.65187" lon="6.56163">
        <ele>2051</ele>
        <time>2022-07-27T12:42:32Z</time>
      </trkpt>
      <trkpt lat="45.65186" lon="6.56163">
        <ele>2051</ele>
        <time>2022-07-27T12:42:33Z</time>
      </trkpt>
      <trkpt lat="45.65185" lon="6.56163">
        <ele>2051</ele>
        <time>2022-07-27T12:42:34Z</time>
      </trkpt>
      <trkpt lat="45.65184" lon="6.56162">
        <ele>2051</ele>
        <time>2022-07-27T12:42:35Z</time>
      </trkpt>
      <trkpt lat="45.65184" lon="6.56162">
        <ele>2051</ele>
        <time>2022-07-27T12:42:36Z</time>
      </trkpt>
      <trkpt lat="45.65183" lon="6.56161">
        <ele>2051</ele>
        <time>2022-07-27T12:42:37Z</time>
      </trkpt>
      <trkpt lat="45.65182" lon="6.5616">
        <ele>2051</ele>
        <time>2022-07-27T12:42:38Z</time>
      </trkpt>
      <trkpt lat="45.65181" lon="6.5616">
        <ele>2051</ele>
        <time>2022-07-27T12:42:39Z</time>
      </trkpt>
      <trkpt lat="45.6518" lon="6.56159">
        <ele>2052</ele>
        <time>2022-07-27T12:42:40Z</time>
      </trkpt>
      <trkpt lat="45.6518" lon="6.56158">
        <ele>2052</ele>
        <time>2022-07-27T12:42:41Z</time>
      </trkpt>
      <trkpt lat="45.65179" lon="6.56157">
        <ele>2052</ele>
        <time>2022-07-27T12:42:42Z</time>
      </trkpt>
      <trkpt lat="45.65178" lon="6.56157">
        <ele>2052</ele>
        <time>2022-07-27T12:42:43Z</time>
      </trkpt>
      <trkpt lat="45.65177" lon="6.56156">
        <ele>2052</ele>
        <time>2022-07-27T12:42:44Z</time>
      </trkpt>
      <trkpt lat="45.65177" lon="6.56155">
        <ele>2052</ele>
        <time>2022-07-27T12:42:45Z</time>
      </trkpt>
      <trkpt lat="45.65176" lon="6.56154">
        <ele>2052</ele>
        <time>2022-07-27T12:42:46Z</time>
      </trkpt>
      <trkpt lat="45.65175" lon="6.56154">
        <ele>2052</ele>
        <time>2022-07-27T12:42:47Z</time>
      </trkpt>
      <trkpt lat="45.65174" lon="6.56153">
        <ele>2054</ele>
        <time>2022-07-27T12:44:36Z</time>
      </trkpt>
      <trkpt lat="45.65174" lon="6.56153">
        <ele>2054</ele>
        <time>2022-07-27T12:44:37Z</time>
      </trkpt>
      <trkpt lat="45.65174" lon="6.56153">
        <ele>2054</ele>
        <time>2022-07-27T12:44:38Z</time>
      </trkpt>
      <trkpt lat="45.65173" lon="6.56153">
        <ele>2054</ele>
        <time>2022-07-27T12:44:44Z</time>
      </trkpt>
      <trkpt lat="45.65172" lon="6.56152">
        <ele>2054</ele>
        <time>2022-07-27T12:44:45Z</time>
      </trkpt>
      <trkpt lat="45.65172" lon="6.56152">
        <ele>2054</ele>
        <time>2022-07-27T12:44:46Z</time>
      </trkpt>
      <trkpt lat="45.65172" lon="6.56152">
        <ele>2054</ele>
        <time>2022-07-27T12:44:47Z</time>
      </trkpt>
      <trkpt lat="45.65172" lon="6.56151">
        <ele>2054</ele>
        <time>2022-07-27T12:44:48Z</time>
      </trkpt>
      <trkpt lat="45.65171" lon="6.5615">
        <ele>2054</ele>
        <time>2022-07-27T12:44:49Z</time>
      </trkpt>
      <trkpt lat="45.65171" lon="6.56149">
        <ele>2054</ele>
        <time>2022-07-27T12:44:50Z</time>
      </trkpt>
      <trkpt lat="45.65171" lon="6.56148">
        <ele>2054</ele>
        <time>2022-07-27T12:44:51Z</time>
      </trkpt>
      <trkpt lat="45.6517" lon="6.56147">
        <ele>2054</ele>
        <time>2022-07-27T12:44:52Z</time>
      </trkpt>
      <trkpt lat="45.65169" lon="6.56145">
        <ele>2054</ele>
        <time>2022-07-27T12:44:53Z</time>
      </trkpt>
      <trkpt lat="45.65169" lon="6.56144">
        <ele>2054</ele>
        <time>2022-07-27T12:44:54Z</time>
      </trkpt>
      <trkpt lat="45.65168" lon="6.56143">
        <ele>2054</ele>
        <time>2022-07-27T12:44:55Z</time>
      </trkpt>
      <trkpt lat="45.65167" lon="6.56142">
        <ele>2054</ele>
        <time>2022-07-27T12:44:56Z</time>
      </trkpt>
      <trkpt lat="45.65167" lon="6.56141">
        <ele>2054</ele>
        <time>2022-07-27T12:44:57Z</time>
      </trkpt>
      <trkpt lat="45.65166" lon="6.5614">
        <ele>2054</ele>
        <time>2022-07-27T12:44:58Z</time>
      </trkpt>
      <trkpt lat="45.65165" lon="6.56139">
        <ele>2054</ele>
        <time>2022-07-27T12:44:59Z</time>
      </trkpt>
      <trkpt lat="45.65164" lon="6.56138">
        <ele>2054</ele>
        <time>2022-07-27T12:45:00Z</time>
      </trkpt>
      <trkpt lat="45.65163" lon="6.56137">
        <ele>2054</ele>
        <time>2022-07-27T12:45:01Z</time>
      </trkpt>
      <trkpt lat="45.65162" lon="6.56136">
        <ele>2054</ele>
        <time>2022-07-27T12:45:02Z</time>
      </trkpt>
      <trkpt lat="45.65161" lon="6.56135">
        <ele>2054</ele>
        <time>2022-07-27T12:45:03Z</time>
      </trkpt>
      <trkpt lat="45.65161" lon="6.56135">
        <ele>2054</ele>
        <time>2022-07-27T12:45:04Z</time>
      </trkpt>
      <trkpt lat="45.65159" lon="6.56133">
        <ele>2055</ele>
        <time>2022-07-27T12:45:50Z</time>
      </trkpt>
      <trkpt lat="45.65158" lon="6.56133">
        <ele>2055</ele>
        <time>2022-07-27T12:45:51Z</time>
      </trkpt>
      <trkpt lat="45.65157" lon="6.56133">
        <ele>2055</ele>
        <time>2022-07-27T12:45:52Z</time>
      </trkpt>
      <trkpt lat="45.65156" lon="6.56132">
        <ele>2055</ele>
        <time>2022-07-27T12:45:53Z</time>
      </trkpt>
      <trkpt lat="45.65156" lon="6.56132">
        <ele>2055</ele>
        <time>2022-07-27T12:45:54Z</time>
      </trkpt>
      <trkpt lat="45.65155" lon="6.56131">
        <ele>2055</ele>
        <time>2022-07-27T12:45:55Z</time>
      </trkpt>
      <trkpt lat="45.65154" lon="6.5613">
        <ele>2055</ele>
        <time>2022-07-27T12:45:56Z</time>
      </trkpt>
      <trkpt lat="45.65153" lon="6.5613">
        <ele>2055</ele>
        <time>2022-07-27T12:45:57Z</time>
      </trkpt>
      <trkpt lat="45.65152" lon="6.56129">
        <ele>2055</ele>
        <time>2022-07-27T12:45:58Z</time>
      </trkpt>
      <trkpt lat="45.65151" lon="6.56128">
        <ele>2055</ele>
        <time>2022-07-27T12:45:59Z</time>
      </trkpt>
      <trkpt lat="45.6515" lon="6.56127">
        <ele>2055</ele>
        <time>2022-07-27T12:46:00Z</time>
      </trkpt>
      <trkpt lat="45.65149" lon="6.56126">
        <ele>2055</ele>
        <time>2022-07-27T12:46:01Z</time>
      </trkpt>
      <trkpt lat="45.65149" lon="6.56125">
        <ele>2055</ele>
        <time>2022-07-27T12:46:02Z</time>
      </trkpt>
      <trkpt lat="45.65148" lon="6.56124">
        <ele>2055</ele>
        <time>2022-07-27T12:46:03Z</time>
      </trkpt>
      <trkpt lat="45.65147" lon="6.56123">
        <ele>2055</ele>
        <time>2022-07-27T12:46:04Z</time>
      </trkpt>
      <trkpt lat="45.65146" lon="6.56122">
        <ele>2055</ele>
        <time>2022-07-27T12:46:05Z</time>
      </trkpt>
      <trkpt lat="45.65146" lon="6.56121">
        <ele>2055</ele>
        <time>2022-07-27T12:46:06Z</time>
      </trkpt>
      <trkpt lat="45.65145" lon="6.56121">
        <ele>2055</ele>
        <time>2022-07-27T12:46:07Z</time>
      </trkpt>
      <trkpt lat="45.65145" lon="6.5612">
        <ele>2055</ele>
        <time>2022-07-27T12:46:08Z</time>
      </trkpt>
      <trkpt lat="45.65145" lon="6.5612">
        <ele>2055</ele>
        <time>2022-07-27T12:46:09Z</time>
      </trkpt>
      <trkpt lat="45.65145" lon="6.5612">
        <ele>2055</ele>
        <time>2022-07-27T12:46:10Z</time>
      </trkpt>
      <trkpt lat="45.65146" lon="6.5612">
        <ele>2055</ele>
        <time>2022-07-27T12:46:11Z</time>
      </trkpt>
      <trkpt lat="45.65145" lon="6.5612">
        <ele>2057</ele>
        <time>2022-07-27T12:46:52Z</time>
      </trkpt>
      <trkpt lat="45.65145" lon="6.5612">
        <ele>2057</ele>
        <time>2022-07-27T12:46:53Z</time>
      </trkpt>
      <trkpt lat="45.65145" lon="6.5612">
        <ele>2057</ele>
        <time>2022-07-27T12:46:54Z</time>
      </trkpt>
      <trkpt lat="45.65144" lon="6.56119">
        <ele>2057</ele>
        <time>2022-07-27T12:46:55Z</time>
      </trkpt>
      <trkpt lat="45.65144" lon="6.56119">
        <ele>2056</ele>
        <time>2022-07-27T12:46:56Z</time>
      </trkpt>
      <trkpt lat="45.65143" lon="6.56118">
        <ele>2056</ele>
        <time>2022-07-27T12:46:57Z</time>
      </trkpt>
      <trkpt lat="45.65142" lon="6.56117">
        <ele>2056</ele>
        <time>2022-07-27T12:46:58Z</time>
      </trkpt>
      <trkpt lat="45.65141" lon="6.56116">
        <ele>2056</ele>
        <time>2022-07-27T12:46:59Z</time>
      </trkpt>
      <trkpt lat="45.6514" lon="6.56115">
        <ele>2056</ele>
        <time>2022-07-27T12:47:00Z</time>
      </trkpt>
      <trkpt lat="45.65139" lon="6.56114">
        <ele>2056</ele>
        <time>2022-07-27T12:47:01Z</time>
      </trkpt>
      <trkpt lat="45.65138" lon="6.56113">
        <ele>2056</ele>
        <time>2022-07-27T12:47:02Z</time>
      </trkpt>
      <trkpt lat="45.65137" lon="6.56112">
        <ele>2056</ele>
        <time>2022-07-27T12:47:03Z</time>
      </trkpt>
      <trkpt lat="45.65137" lon="6.56111">
        <ele>2056</ele>
        <time>2022-07-27T12:47:04Z</time>
      </trkpt>
      <trkpt lat="45.65135" lon="6.5611">
        <ele>2057</ele>
        <time>2022-07-27T12:47:10Z</time>
      </trkpt>
      <trkpt lat="45.65134" lon="6.56109">
        <ele>2057</ele>
        <time>2022-07-27T12:47:11Z</time>
      </trkpt>
      <trkpt lat="45.65133" lon="6.56109">
        <ele>2057</ele>
        <time>2022-07-27T12:47:12Z</time>
      </trkpt>
      <trkpt lat="45.65133" lon="6.56108">
        <ele>2057</ele>
        <time>2022-07-27T12:47:13Z</time>
      </trkpt>
      <trkpt lat="45.65132" lon="6.56108">
        <ele>2057</ele>
        <time>2022-07-27T12:47:14Z</time>
      </trkpt>
      <trkpt lat="45.65131" lon="6.56107">
        <ele>2057</ele>
        <time>2022-07-27T12:47:15Z</time>
      </trkpt>
      <trkpt lat="45.65131" lon="6.56106">
        <ele>2057</ele>
        <time>2022-07-27T12:47:16Z</time>
      </trkpt>
      <trkpt lat="45.6513" lon="6.56105">
        <ele>2057</ele>
        <time>2022-07-27T12:47:17Z</time>
      </trkpt>
      <trkpt lat="45.6513" lon="6.56104">
        <ele>2057</ele>
        <time>2022-07-27T12:47:18Z</time>
      </trkpt>
      <trkpt lat="45.65129" lon="6.56103">
        <ele>2057</ele>
        <time>2022-07-27T12:47:19Z</time>
      </trkpt>
      <trkpt lat="45.65128" lon="6.56102">
        <ele>2057</ele>
        <time>2022-07-27T12:47:20Z</time>
      </trkpt>
      <trkpt lat="45.65128" lon="6.56101">
        <ele>2057</ele>
        <time>2022-07-27T12:47:21Z</time>
      </trkpt>
      <trkpt lat="45.65127" lon="6.561">
        <ele>2057</ele>
        <time>2022-07-27T12:47:22Z</time>
      </trkpt>
      <trkpt lat="45.65127" lon="6.561">
        <ele>2057</ele>
        <time>2022-07-27T12:47:23Z</time>
      </trkpt>
      <trkpt lat="45.65127" lon="6.561">
        <ele>2057</ele>
        <time>2022-07-27T12:47:24Z</time>
      </trkpt>
      <trkpt lat="45.65128" lon="6.561">
        <ele>2057</ele>
        <time>2022-07-27T12:47:25Z</time>
      </trkpt>
      <trkpt lat="45.65128" lon="6.56101">
        <ele>2057</ele>
        <time>2022-07-27T12:47:26Z</time>
      </trkpt>
      <trkpt lat="45.65128" lon="6.56102">
        <ele>2058</ele>
        <time>2022-07-27T12:47:35Z</time>
      </trkpt>
      <trkpt lat="45.65128" lon="6.56102">
        <ele>2058</ele>
        <time>2022-07-27T12:47:36Z</time>
      </trkpt>
      <trkpt lat="45.65129" lon="6.56102">
        <ele>2058</ele>
        <time>2022-07-27T12:47:37Z</time>
      </trkpt>
      <trkpt lat="45.65128" lon="6.56102">
        <ele>2058</ele>
        <time>2022-07-27T12:47:38Z</time>
      </trkpt>
      <trkpt lat="45.65128" lon="6.56101">
        <ele>2058</ele>
        <time>2022-07-27T12:47:39Z</time>
      </trkpt>
      <trkpt lat="45.65128" lon="6.561">
        <ele>2058</ele>
        <time>2022-07-27T12:47:40Z</time>
      </trkpt>
      <trkpt lat="45.65127" lon="6.56099">
        <ele>2058</ele>
        <time>2022-07-27T12:47:41Z</time>
      </trkpt>
      <trkpt lat="45.65127" lon="6.56098">
        <ele>2058</ele>
        <time>2022-07-27T12:47:42Z</time>
      </trkpt>
      <trkpt lat="45.65126" lon="6.56096">
        <ele>2058</ele>
        <time>2022-07-27T12:47:43Z</time>
      </trkpt>
      <trkpt lat="45.65126" lon="6.56095">
        <ele>2058</ele>
        <time>2022-07-27T12:47:44Z</time>
      </trkpt>
      <trkpt lat="45.65125" lon="6.56093">
        <ele>2059</ele>
        <time>2022-07-27T12:47:45Z</time>
      </trkpt>
      <trkpt lat="45.65125" lon="6.56092">
        <ele>2059</ele>
        <time>2022-07-27T12:47:46Z</time>
      </trkpt>
      <trkpt lat="45.65124" lon="6.5609">
        <ele>2059</ele>
        <time>2022-07-27T12:47:47Z</time>
      </trkpt>
      <trkpt lat="45.65124" lon="6.56089">
        <ele>2059</ele>
        <time>2022-07-27T12:47:48Z</time>
      </trkpt>
      <trkpt lat="45.65123" lon="6.56088">
        <ele>2059</ele>
        <time>2022-07-27T12:47:49Z</time>
      </trkpt>
      <trkpt lat="45.65123" lon="6.56086">
        <ele>2059</ele>
        <time>2022-07-27T12:47:50Z</time>
      </trkpt>
      <trkpt lat="45.65122" lon="6.56085">
        <ele>2059</ele>
        <time>2022-07-27T12:47:51Z</time>
      </trkpt>
      <trkpt lat="45.65122" lon="6.56083">
        <ele>2059</ele>
        <time>2022-07-27T12:47:52Z</time>
      </trkpt>
      <trkpt lat="45.65121" lon="6.56082">
        <ele>2059</ele>
        <time>2022-07-27T12:47:53Z</time>
      </trkpt>
      <trkpt lat="45.65121" lon="6.56081">
        <ele>2059</ele>
        <time>2022-07-27T12:47:54Z</time>
      </trkpt>
      <trkpt lat="45.65121" lon="6.56079">
        <ele>2059</ele>
        <time>2022-07-27T12:47:55Z</time>
      </trkpt>
      <trkpt lat="45.6512" lon="6.56078">
        <ele>2059</ele>
        <time>2022-07-27T12:47:56Z</time>
      </trkpt>
      <trkpt lat="45.6512" lon="6.56076">
        <ele>2059</ele>
        <time>2022-07-27T12:47:57Z</time>
      </trkpt>
      <trkpt lat="45.6512" lon="6.56075">
        <ele>2059</ele>
        <time>2022-07-27T12:47:58Z</time>
      </trkpt>
      <trkpt lat="45.6512" lon="6.56074">
        <ele>2059</ele>
        <time>2022-07-27T12:47:59Z</time>
      </trkpt>
      <trkpt lat="45.65119" lon="6.56072">
        <ele>2059</ele>
        <time>2022-07-27T12:48:00Z</time>
      </trkpt>
      <trkpt lat="45.65119" lon="6.56071">
        <ele>2059</ele>
        <time>2022-07-27T12:48:01Z</time>
      </trkpt>
      <trkpt lat="45.65119" lon="6.5607">
        <ele>2059</ele>
        <time>2022-07-27T12:48:02Z</time>
      </trkpt>
      <trkpt lat="45.65118" lon="6.56068">
        <ele>2059</ele>
        <time>2022-07-27T12:48:03Z</time>
      </trkpt>
      <trkpt lat="45.65118" lon="6.56067">
        <ele>2059</ele>
        <time>2022-07-27T12:48:04Z</time>
      </trkpt>
      <trkpt lat="45.65118" lon="6.56066">
        <ele>2059</ele>
        <time>2022-07-27T12:48:05Z</time>
      </trkpt>
      <trkpt lat="45.65118" lon="6.56064">
        <ele>2059</ele>
        <time>2022-07-27T12:48:06Z</time>
      </trkpt>
      <trkpt lat="45.65117" lon="6.56063">
        <ele>2059</ele>
        <time>2022-07-27T12:48:07Z</time>
      </trkpt>
      <trkpt lat="45.65117" lon="6.56061">
        <ele>2059</ele>
        <time>2022-07-27T12:48:08Z</time>
      </trkpt>
      <trkpt lat="45.65117" lon="6.5606">
        <ele>2059</ele>
        <time>2022-07-27T12:48:09Z</time>
      </trkpt>
      <trkpt lat="45.65117" lon="6.56058">
        <ele>2059</ele>
        <time>2022-07-27T12:48:10Z</time>
      </trkpt>
      <trkpt lat="45.65116" lon="6.56057">
        <ele>2059</ele>
        <time>2022-07-27T12:48:11Z</time>
      </trkpt>
      <trkpt lat="45.65116" lon="6.56055">
        <ele>2059</ele>
        <time>2022-07-27T12:48:12Z</time>
      </trkpt>
      <trkpt lat="45.65116" lon="6.56053">
        <ele>2059</ele>
        <time>2022-07-27T12:48:13Z</time>
      </trkpt>
      <trkpt lat="45.65116" lon="6.56052">
        <ele>2059</ele>
        <time>2022-07-27T12:48:14Z</time>
      </trkpt>
      <trkpt lat="45.65115" lon="6.56051">
        <ele>2059</ele>
        <time>2022-07-27T12:48:15Z</time>
      </trkpt>
      <trkpt lat="45.65115" lon="6.56049">
        <ele>2059</ele>
        <time>2022-07-27T12:48:16Z</time>
      </trkpt>
      <trkpt lat="45.65115" lon="6.56048">
        <ele>2059</ele>
        <time>2022-07-27T12:48:17Z</time>
      </trkpt>
      <trkpt lat="45.65114" lon="6.56047">
        <ele>2059</ele>
        <time>2022-07-27T12:48:18Z</time>
      </trkpt>
      <trkpt lat="45.65114" lon="6.56046">
        <ele>2059</ele>
        <time>2022-07-27T12:48:19Z</time>
      </trkpt>
      <trkpt lat="45.65113" lon="6.56044">
        <ele>2059</ele>
        <time>2022-07-27T12:48:20Z</time>
      </trkpt>
      <trkpt lat="45.65113" lon="6.56043">
        <ele>2059</ele>
        <time>2022-07-27T12:48:21Z</time>
      </trkpt>
      <trkpt lat="45.65113" lon="6.56042">
        <ele>2059</ele>
        <time>2022-07-27T12:48:22Z</time>
      </trkpt>
      <trkpt lat="45.65112" lon="6.56041">
        <ele>2059</ele>
        <time>2022-07-27T12:48:23Z</time>
      </trkpt>
      <trkpt lat="45.65112" lon="6.56039">
        <ele>2059</ele>
        <time>2022-07-27T12:48:24Z</time>
      </trkpt>
      <trkpt lat="45.65111" lon="6.56038">
        <ele>2059</ele>
        <time>2022-07-27T12:48:25Z</time>
      </trkpt>
      <trkpt lat="45.65111" lon="6.56037">
        <ele>2059</ele>
        <time>2022-07-27T12:48:26Z</time>
      </trkpt>
      <trkpt lat="45.6511" lon="6.56035">
        <ele>2059</ele>
        <time>2022-07-27T12:48:27Z</time>
      </trkpt>
      <trkpt lat="45.6511" lon="6.56034">
        <ele>2059</ele>
        <time>2022-07-27T12:48:28Z</time>
      </trkpt>
      <trkpt lat="45.65109" lon="6.56032">
        <ele>2059</ele>
        <time>2022-07-27T12:48:29Z</time>
      </trkpt>
      <trkpt lat="45.65109" lon="6.56031">
        <ele>2059</ele>
        <time>2022-07-27T12:48:30Z</time>
      </trkpt>
      <trkpt lat="45.65108" lon="6.5603">
        <ele>2059</ele>
        <time>2022-07-27T12:48:31Z</time>
      </trkpt>
      <trkpt lat="45.65108" lon="6.56028">
        <ele>2059</ele>
        <time>2022-07-27T12:48:32Z</time>
      </trkpt>
      <trkpt lat="45.65107" lon="6.56027">
        <ele>2059</ele>
        <time>2022-07-27T12:48:33Z</time>
      </trkpt>
      <trkpt lat="45.65106" lon="6.56026">
        <ele>2059</ele>
        <time>2022-07-27T12:48:34Z</time>
      </trkpt>
      <trkpt lat="45.65105" lon="6.56024">
        <ele>2060</ele>
        <time>2022-07-27T12:48:35Z</time>
      </trkpt>
      <trkpt lat="45.65104" lon="6.56023">
        <ele>2060</ele>
        <time>2022-07-27T12:48:36Z</time>
      </trkpt>
      <trkpt lat="45.65103" lon="6.56022">
        <ele>2060</ele>
        <time>2022-07-27T12:48:37Z</time>
      </trkpt>
      <trkpt lat="45.65103" lon="6.56021">
        <ele>2060</ele>
        <time>2022-07-27T12:48:38Z</time>
      </trkpt>
      <trkpt lat="45.65102" lon="6.5602">
        <ele>2060</ele>
        <time>2022-07-27T12:48:39Z</time>
      </trkpt>
      <trkpt lat="45.65101" lon="6.56019">
        <ele>2060</ele>
        <time>2022-07-27T12:48:40Z</time>
      </trkpt>
      <trkpt lat="45.651" lon="6.56018">
        <ele>2060</ele>
        <time>2022-07-27T12:48:41Z</time>
      </trkpt>
      <trkpt lat="45.65099" lon="6.56017">
        <ele>2060</ele>
        <time>2022-07-27T12:48:42Z</time>
      </trkpt>
      <trkpt lat="45.65098" lon="6.56015">
        <ele>2060</ele>
        <time>2022-07-27T12:48:43Z</time>
      </trkpt>
      <trkpt lat="45.65098" lon="6.56014">
        <ele>2060</ele>
        <time>2022-07-27T12:48:44Z</time>
      </trkpt>
      <trkpt lat="45.65097" lon="6.56013">
        <ele>2060</ele>
        <time>2022-07-27T12:48:45Z</time>
      </trkpt>
      <trkpt lat="45.65096" lon="6.56011">
        <ele>2060</ele>
        <time>2022-07-27T12:48:46Z</time>
      </trkpt>
      <trkpt lat="45.65095" lon="6.5601">
        <ele>2060</ele>
        <time>2022-07-27T12:48:47Z</time>
      </trkpt>
      <trkpt lat="45.65095" lon="6.56008">
        <ele>2060</ele>
        <time>2022-07-27T12:48:48Z</time>
      </trkpt>
      <trkpt lat="45.65094" lon="6.56007">
        <ele>2060</ele>
        <time>2022-07-27T12:48:49Z</time>
      </trkpt>
      <trkpt lat="45.65093" lon="6.56006">
        <ele>2061</ele>
        <time>2022-07-27T12:48:50Z</time>
      </trkpt>
      <trkpt lat="45.65092" lon="6.56005">
        <ele>2061</ele>
        <time>2022-07-27T12:48:51Z</time>
      </trkpt>
      <trkpt lat="45.65091" lon="6.56004">
        <ele>2061</ele>
        <time>2022-07-27T12:48:52Z</time>
      </trkpt>
      <trkpt lat="45.65091" lon="6.56003">
        <ele>2061</ele>
        <time>2022-07-27T12:48:53Z</time>
      </trkpt>
      <trkpt lat="45.65089" lon="6.56">
        <ele>2062</ele>
        <time>2022-07-27T12:49:33Z</time>
      </trkpt>
      <trkpt lat="45.65089" lon="6.55999">
        <ele>2062</ele>
        <time>2022-07-27T12:49:34Z</time>
      </trkpt>
      <trkpt lat="45.65088" lon="6.55998">
        <ele>2062</ele>
        <time>2022-07-27T12:49:35Z</time>
      </trkpt>
      <trkpt lat="45.65087" lon="6.55997">
        <ele>2062</ele>
        <time>2022-07-27T12:49:36Z</time>
      </trkpt>
      <trkpt lat="45.65086" lon="6.55996">
        <ele>2062</ele>
        <time>2022-07-27T12:49:37Z</time>
      </trkpt>
      <trkpt lat="45.65086" lon="6.55995">
        <ele>2062</ele>
        <time>2022-07-27T12:49:38Z</time>
      </trkpt>
      <trkpt lat="45.65085" lon="6.55994">
        <ele>2062</ele>
        <time>2022-07-27T12:49:39Z</time>
      </trkpt>
      <trkpt lat="45.65084" lon="6.55993">
        <ele>2062</ele>
        <time>2022-07-27T12:49:40Z</time>
      </trkpt>
      <trkpt lat="45.65082" lon="6.55992">
        <ele>2061</ele>
        <time>2022-07-27T12:49:41Z</time>
      </trkpt>
      <trkpt lat="45.65081" lon="6.5599">
        <ele>2061</ele>
        <time>2022-07-27T12:49:42Z</time>
      </trkpt>
      <trkpt lat="45.6508" lon="6.55989">
        <ele>2061</ele>
        <time>2022-07-27T12:49:43Z</time>
      </trkpt>
      <trkpt lat="45.65079" lon="6.55988">
        <ele>2061</ele>
        <time>2022-07-27T12:49:44Z</time>
      </trkpt>
      <trkpt lat="45.65078" lon="6.55987">
        <ele>2061</ele>
        <time>2022-07-27T12:49:45Z</time>
      </trkpt>
      <trkpt lat="45.65077" lon="6.55985">
        <ele>2060</ele>
        <time>2022-07-27T12:49:46Z</time>
      </trkpt>
      <trkpt lat="45.65076" lon="6.55984">
        <ele>2060</ele>
        <time>2022-07-27T12:49:47Z</time>
      </trkpt>
      <trkpt lat="45.65075" lon="6.55983">
        <ele>2060</ele>
        <time>2022-07-27T12:49:48Z</time>
      </trkpt>
      <trkpt lat="45.65074" lon="6.55982">
        <ele>2060</ele>
        <time>2022-07-27T12:49:49Z</time>
      </trkpt>
      <trkpt lat="45.65073" lon="6.5598">
        <ele>2060</ele>
        <time>2022-07-27T12:49:50Z</time>
      </trkpt>
      <trkpt lat="45.65072" lon="6.55979">
        <ele>2059</ele>
        <time>2022-07-27T12:49:51Z</time>
      </trkpt>
      <trkpt lat="45.65072" lon="6.55979">
        <ele>2059</ele>
        <time>2022-07-27T12:49:52Z</time>
      </trkpt>
      <trkpt lat="45.65072" lon="6.55979">
        <ele>2059</ele>
        <time>2022-07-27T12:49:53Z</time>
      </trkpt>
      <trkpt lat="45.65073" lon="6.5598">
        <ele>2059</ele>
        <time>2022-07-27T12:49:54Z</time>
      </trkpt>
      <trkpt lat="45.65074" lon="6.55981">
        <ele>2059</ele>
        <time>2022-07-27T12:49:55Z</time>
      </trkpt>
      <trkpt lat="45.65075" lon="6.55982">
        <ele>2059</ele>
        <time>2022-07-27T12:49:56Z</time>
      </trkpt>
      <trkpt lat="45.65076" lon="6.55983">
        <ele>2059</ele>
        <time>2022-07-27T12:49:57Z</time>
      </trkpt>
      <trkpt lat="45.65077" lon="6.55985">
        <ele>2059</ele>
        <time>2022-07-27T12:49:58Z</time>
      </trkpt>
      <trkpt lat="45.65079" lon="6.55986">
        <ele>2059</ele>
        <time>2022-07-27T12:49:59Z</time>
      </trkpt>
      <trkpt lat="45.6508" lon="6.55987">
        <ele>2059</ele>
        <time>2022-07-27T12:50:00Z</time>
      </trkpt>
      <trkpt lat="45.65081" lon="6.55989">
        <ele>2059</ele>
        <time>2022-07-27T12:50:01Z</time>
      </trkpt>
      <trkpt lat="45.65083" lon="6.5599">
        <ele>2059</ele>
        <time>2022-07-27T12:50:02Z</time>
      </trkpt>
      <trkpt lat="45.65084" lon="6.55991">
        <ele>2059</ele>
        <time>2022-07-27T12:50:03Z</time>
      </trkpt>
      <trkpt lat="45.65085" lon="6.55993">
        <ele>2059</ele>
        <time>2022-07-27T12:50:04Z</time>
      </trkpt>
      <trkpt lat="45.65086" lon="6.55994">
        <ele>2059</ele>
        <time>2022-07-27T12:50:05Z</time>
      </trkpt>
      <trkpt lat="45.65087" lon="6.55995">
        <ele>2059</ele>
        <time>2022-07-27T12:50:06Z</time>
      </trkpt>
      <trkpt lat="45.65088" lon="6.55996">
        <ele>2059</ele>
        <time>2022-07-27T12:50:07Z</time>
      </trkpt>
      <trkpt lat="45.65088" lon="6.55996">
        <ele>2059</ele>
        <time>2022-07-27T12:50:08Z</time>
      </trkpt>
      <trkpt lat="45.65088" lon="6.55997">
        <ele>2059</ele>
        <time>2022-07-27T12:50:09Z</time>
      </trkpt>
      <trkpt lat="45.65088" lon="6.55997">
        <ele>2060</ele>
        <time>2022-07-27T12:50:10Z</time>
      </trkpt>
      <trkpt lat="45.65088" lon="6.55998">
        <ele>2060</ele>
        <time>2022-07-27T12:50:11Z</time>
      </trkpt>
      <trkpt lat="45.65088" lon="6.55999">
        <ele>2060</ele>
        <time>2022-07-27T12:50:12Z</time>
      </trkpt>
      <trkpt lat="45.65088" lon="6.55999">
        <ele>2060</ele>
        <time>2022-07-27T12:50:13Z</time>
      </trkpt>
      <trkpt lat="45.65088" lon="6.56">
        <ele>2060</ele>
        <time>2022-07-27T12:50:14Z</time>
      </trkpt>
      <trkpt lat="45.65088" lon="6.56">
        <ele>2061</ele>
        <time>2022-07-27T12:50:15Z</time>
      </trkpt>
      <trkpt lat="45.65088" lon="6.56001">
        <ele>2061</ele>
        <time>2022-07-27T12:50:16Z</time>
      </trkpt>
      <trkpt lat="45.65087" lon="6.56002">
        <ele>2061</ele>
        <time>2022-07-27T12:50:17Z</time>
      </trkpt>
      <trkpt lat="45.65087" lon="6.56002">
        <ele>2061</ele>
        <time>2022-07-27T12:50:18Z</time>
      </trkpt>
      <trkpt lat="45.65087" lon="6.56003">
        <ele>2061</ele>
        <time>2022-07-27T12:50:19Z</time>
      </trkpt>
      <trkpt lat="45.65086" lon="6.56004">
        <ele>2061</ele>
        <time>2022-07-27T12:50:20Z</time>
      </trkpt>
      <trkpt lat="45.65086" lon="6.56004">
        <ele>2061</ele>
        <time>2022-07-27T12:50:21Z</time>
      </trkpt>
      <trkpt lat="45.65086" lon="6.56005">
        <ele>2061</ele>
        <time>2022-07-27T12:50:22Z</time>
      </trkpt>
      <trkpt lat="45.65086" lon="6.56005">
        <ele>2061</ele>
        <time>2022-07-27T12:50:23Z</time>
      </trkpt>
      <trkpt lat="45.65085" lon="6.56006">
        <ele>2061</ele>
        <time>2022-07-27T12:50:24Z</time>
      </trkpt>
      <trkpt lat="45.65085" lon="6.56007">
        <ele>2062</ele>
        <time>2022-07-27T12:50:25Z</time>
      </trkpt>
      <trkpt lat="45.65085" lon="6.56008">
        <ele>2062</ele>
        <time>2022-07-27T12:50:26Z</time>
      </trkpt>
      <trkpt lat="45.65085" lon="6.56009">
        <ele>2062</ele>
        <time>2022-07-27T12:50:27Z</time>
      </trkpt>
      <trkpt lat="45.65085" lon="6.5601">
        <ele>2062</ele>
        <time>2022-07-27T12:50:28Z</time>
      </trkpt>
      <trkpt lat="45.65085" lon="6.56011">
        <ele>2062</ele>
        <time>2022-07-27T12:50:29Z</time>
      </trkpt>
      <trkpt lat="45.65085" lon="6.56012">
        <ele>2062</ele>
        <time>2022-07-27T12:50:30Z</time>
      </trkpt>
      <trkpt lat="45.65086" lon="6.56013">
        <ele>2062</ele>
        <time>2022-07-27T12:50:31Z</time>
      </trkpt>
      <trkpt lat="45.65086" lon="6.56014">
        <ele>2062</ele>
        <time>2022-07-27T12:50:32Z</time>
      </trkpt>
      <trkpt lat="45.65086" lon="6.56015">
        <ele>2062</ele>
        <time>2022-07-27T12:50:33Z</time>
      </trkpt>
      <trkpt lat="45.65085" lon="6.56017">
        <ele>2062</ele>
        <time>2022-07-27T12:50:34Z</time>
      </trkpt>
      <trkpt lat="45.65085" lon="6.56019">
        <ele>2062</ele>
        <time>2022-07-27T12:50:35Z</time>
      </trkpt>
      <trkpt lat="45.65084" lon="6.5602">
        <ele>2061</ele>
        <time>2022-07-27T12:50:36Z</time>
      </trkpt>
      <trkpt lat="45.65084" lon="6.56022">
        <ele>2061</ele>
        <time>2022-07-27T12:50:37Z</time>
      </trkpt>
      <trkpt lat="45.65083" lon="6.56024">
        <ele>2061</ele>
        <time>2022-07-27T12:50:38Z</time>
      </trkpt>
      <trkpt lat="45.65083" lon="6.56025">
        <ele>2061</ele>
        <time>2022-07-27T12:50:39Z</time>
      </trkpt>
      <trkpt lat="45.65082" lon="6.56027">
        <ele>2061</ele>
        <time>2022-07-27T12:50:40Z</time>
      </trkpt>
      <trkpt lat="45.65081" lon="6.56028">
        <ele>2061</ele>
        <time>2022-07-27T12:50:41Z</time>
      </trkpt>
      <trkpt lat="45.65081" lon="6.5603">
        <ele>2061</ele>
        <time>2022-07-27T12:50:42Z</time>
      </trkpt>
      <trkpt lat="45.65081" lon="6.56031">
        <ele>2061</ele>
        <time>2022-07-27T12:50:43Z</time>
      </trkpt>
      <trkpt lat="45.6508" lon="6.56033">
        <ele>2061</ele>
        <time>2022-07-27T12:50:44Z</time>
      </trkpt>
      <trkpt lat="45.6508" lon="6.56034">
        <ele>2061</ele>
        <time>2022-07-27T12:50:45Z</time>
      </trkpt>
      <trkpt lat="45.6508" lon="6.56036">
        <ele>2060</ele>
        <time>2022-07-27T12:50:46Z</time>
      </trkpt>
      <trkpt lat="45.65079" lon="6.56037">
        <ele>2060</ele>
        <time>2022-07-27T12:50:47Z</time>
      </trkpt>
      <trkpt lat="45.65079" lon="6.56039">
        <ele>2060</ele>
        <time>2022-07-27T12:50:48Z</time>
      </trkpt>
      <trkpt lat="45.65079" lon="6.5604">
        <ele>2060</ele>
        <time>2022-07-27T12:50:49Z</time>
      </trkpt>
      <trkpt lat="45.65079" lon="6.56041">
        <ele>2060</ele>
        <time>2022-07-27T12:50:50Z</time>
      </trkpt>
      <trkpt lat="45.65078" lon="6.56042">
        <ele>2060</ele>
        <time>2022-07-27T12:50:51Z</time>
      </trkpt>
      <trkpt lat="45.65078" lon="6.56044">
        <ele>2060</ele>
        <time>2022-07-27T12:50:52Z</time>
      </trkpt>
      <trkpt lat="45.65077" lon="6.56045">
        <ele>2060</ele>
        <time>2022-07-27T12:50:53Z</time>
      </trkpt>
      <trkpt lat="45.65076" lon="6.56046">
        <ele>2060</ele>
        <time>2022-07-27T12:50:54Z</time>
      </trkpt>
      <trkpt lat="45.65075" lon="6.56047">
        <ele>2060</ele>
        <time>2022-07-27T12:50:55Z</time>
      </trkpt>
      <trkpt lat="45.65075" lon="6.56048">
        <ele>2060</ele>
        <time>2022-07-27T12:50:56Z</time>
      </trkpt>
      <trkpt lat="45.65074" lon="6.5605">
        <ele>2060</ele>
        <time>2022-07-27T12:50:57Z</time>
      </trkpt>
      <trkpt lat="45.65073" lon="6.56051">
        <ele>2060</ele>
        <time>2022-07-27T12:50:58Z</time>
      </trkpt>
      <trkpt lat="45.65073" lon="6.56053">
        <ele>2060</ele>
        <time>2022-07-27T12:50:59Z</time>
      </trkpt>
      <trkpt lat="45.65072" lon="6.56055">
        <ele>2061</ele>
        <time>2022-07-27T12:51:00Z</time>
      </trkpt>
      <trkpt lat="45.65072" lon="6.56057">
        <ele>2061</ele>
        <time>2022-07-27T12:51:01Z</time>
      </trkpt>
      <trkpt lat="45.65071" lon="6.56059">
        <ele>2061</ele>
        <time>2022-07-27T12:51:02Z</time>
      </trkpt>
      <trkpt lat="45.65078" lon="6.56013">
        <ele>2063</ele>
        <time>2022-07-27T13:10:40Z</time>
      </trkpt>
      <trkpt lat="45.65078" lon="6.56012">
        <ele>2063</ele>
        <time>2022-07-27T13:10:41Z</time>
      </trkpt>
      <trkpt lat="45.65078" lon="6.56011">
        <ele>2063</ele>
        <time>2022-07-27T13:10:42Z</time>
      </trkpt>
      <trkpt lat="45.65078" lon="6.5601">
        <ele>2063</ele>
        <time>2022-07-27T13:10:43Z</time>
      </trkpt>
      <trkpt lat="45.65078" lon="6.56009">
        <ele>2063</ele>
        <time>2022-07-27T13:10:44Z</time>
      </trkpt>
      <trkpt lat="45.65079" lon="6.56007">
        <ele>2063</ele>
        <time>2022-07-27T13:10:45Z</time>
      </trkpt>
      <trkpt lat="45.6508" lon="6.56006">
        <ele>2063</ele>
        <time>2022-07-27T13:10:46Z</time>
      </trkpt>
      <trkpt lat="45.6508" lon="6.56005">
        <ele>2063</ele>
        <time>2022-07-27T13:10:47Z</time>
      </trkpt>
      <trkpt lat="45.65081" lon="6.56003">
        <ele>2063</ele>
        <time>2022-07-27T13:10:48Z</time>
      </trkpt>
      <trkpt lat="45.65081" lon="6.56002">
        <ele>2063</ele>
        <time>2022-07-27T13:10:49Z</time>
      </trkpt>
      <trkpt lat="45.65082" lon="6.56001">
        <ele>2063</ele>
        <time>2022-07-27T13:10:50Z</time>
      </trkpt>
      <trkpt lat="45.65083" lon="6.56">
        <ele>2063</ele>
        <time>2022-07-27T13:10:51Z</time>
      </trkpt>
      <trkpt lat="45.65084" lon="6.55999">
        <ele>2062</ele>
        <time>2022-07-27T13:10:52Z</time>
      </trkpt>
      <trkpt lat="45.65084" lon="6.55999">
        <ele>2062</ele>
        <time>2022-07-27T13:10:53Z</time>
      </trkpt>
      <trkpt lat="45.65085" lon="6.55998">
        <ele>2062</ele>
        <time>2022-07-27T13:10:54Z</time>
      </trkpt>
      <trkpt lat="45.65086" lon="6.55997">
        <ele>2062</ele>
        <time>2022-07-27T13:11:09Z</time>
      </trkpt>
      <trkpt lat="45.65086" lon="6.55997">
        <ele>2062</ele>
        <time>2022-07-27T13:11:10Z</time>
      </trkpt>
      <trkpt lat="45.65086" lon="6.55996">
        <ele>2062</ele>
        <time>2022-07-27T13:11:11Z</time>
      </trkpt>
      <trkpt lat="45.65086" lon="6.55995">
        <ele>2061</ele>
        <time>2022-07-27T13:11:12Z</time>
      </trkpt>
      <trkpt lat="45.65086" lon="6.55994">
        <ele>2061</ele>
        <time>2022-07-27T13:11:13Z</time>
      </trkpt>
      <trkpt lat="45.65085" lon="6.55993">
        <ele>2061</ele>
        <time>2022-07-27T13:11:14Z</time>
      </trkpt>
      <trkpt lat="45.65084" lon="6.55992">
        <ele>2061</ele>
        <time>2022-07-27T13:11:15Z</time>
      </trkpt>
      <trkpt lat="45.65084" lon="6.55991">
        <ele>2061</ele>
        <time>2022-07-27T13:11:16Z</time>
      </trkpt>
      <trkpt lat="45.65083" lon="6.5599">
        <ele>2061</ele>
        <time>2022-07-27T13:11:17Z</time>
      </trkpt>
      <trkpt lat="45.65082" lon="6.5599">
        <ele>2061</ele>
        <time>2022-07-27T13:11:18Z</time>
      </trkpt>
      <trkpt lat="45.65081" lon="6.55989">
        <ele>2061</ele>
        <time>2022-07-27T13:11:19Z</time>
      </trkpt>
      <trkpt lat="45.6508" lon="6.55988">
        <ele>2061</ele>
        <time>2022-07-27T13:11:20Z</time>
      </trkpt>
      <trkpt lat="45.6508" lon="6.55987">
        <ele>2061</ele>
        <time>2022-07-27T13:11:21Z</time>
      </trkpt>
      <trkpt lat="45.65079" lon="6.55986">
        <ele>2060</ele>
        <time>2022-07-27T13:11:22Z</time>
      </trkpt>
      <trkpt lat="45.65078" lon="6.55986">
        <ele>2060</ele>
        <time>2022-07-27T13:11:23Z</time>
      </trkpt>
      <trkpt lat="45.65077" lon="6.55985">
        <ele>2060</ele>
        <time>2022-07-27T13:11:24Z</time>
      </trkpt>
      <trkpt lat="45.65076" lon="6.55984">
        <ele>2060</ele>
        <time>2022-07-27T13:11:25Z</time>
      </trkpt>
      <trkpt lat="45.65075" lon="6.55983">
        <ele>2060</ele>
        <time>2022-07-27T13:11:26Z</time>
      </trkpt>
      <trkpt lat="45.65075" lon="6.55982">
        <ele>2059</ele>
        <time>2022-07-27T13:11:27Z</time>
      </trkpt>
      <trkpt lat="45.65074" lon="6.55981">
        <ele>2059</ele>
        <time>2022-07-27T13:11:28Z</time>
      </trkpt>
      <trkpt lat="45.65073" lon="6.5598">
        <ele>2059</ele>
        <time>2022-07-27T13:11:29Z</time>
      </trkpt>
      <trkpt lat="45.65073" lon="6.55979">
        <ele>2059</ele>
        <time>2022-07-27T13:11:30Z</time>
      </trkpt>
      <trkpt lat="45.65072" lon="6.55978">
        <ele>2059</ele>
        <time>2022-07-27T13:11:31Z</time>
      </trkpt>
      <trkpt lat="45.65072" lon="6.55977">
        <ele>2059</ele>
        <time>2022-07-27T13:11:32Z</time>
      </trkpt>
      <trkpt lat="45.65071" lon="6.55976">
        <ele>2059</ele>
        <time>2022-07-27T13:11:33Z</time>
      </trkpt>
      <trkpt lat="45.6507" lon="6.55976">
        <ele>2059</ele>
        <time>2022-07-27T13:11:34Z</time>
      </trkpt>
      <trkpt lat="45.6507" lon="6.55975">
        <ele>2059</ele>
        <time>2022-07-27T13:11:35Z</time>
      </trkpt>
      <trkpt lat="45.65069" lon="6.55974">
        <ele>2059</ele>
        <time>2022-07-27T13:11:36Z</time>
      </trkpt>
      <trkpt lat="45.65068" lon="6.55973">
        <ele>2058</ele>
        <time>2022-07-27T13:11:37Z</time>
      </trkpt>
      <trkpt lat="45.65067" lon="6.55972">
        <ele>2057</ele>
        <time>2022-07-27T13:11:52Z</time>
      </trkpt>
      <trkpt lat="45.65066" lon="6.55971">
        <ele>2057</ele>
        <time>2022-07-27T13:11:53Z</time>
      </trkpt>
      <trkpt lat="45.65066" lon="6.55971">
        <ele>2057</ele>
        <time>2022-07-27T13:11:54Z</time>
      </trkpt>
      <trkpt lat="45.65066" lon="6.5597">
        <ele>2057</ele>
        <time>2022-07-27T13:11:55Z</time>
      </trkpt>
      <trkpt lat="45.65065" lon="6.55969">
        <ele>2057</ele>
        <time>2022-07-27T13:11:56Z</time>
      </trkpt>
      <trkpt lat="45.65064" lon="6.55969">
        <ele>2057</ele>
        <time>2022-07-27T13:11:57Z</time>
      </trkpt>
      <trkpt lat="45.65064" lon="6.55968">
        <ele>2057</ele>
        <time>2022-07-27T13:11:58Z</time>
      </trkpt>
      <trkpt lat="45.65063" lon="6.55967">
        <ele>2057</ele>
        <time>2022-07-27T13:11:59Z</time>
      </trkpt>
      <trkpt lat="45.65062" lon="6.55966">
        <ele>2057</ele>
        <time>2022-07-27T13:12:00Z</time>
      </trkpt>
      <trkpt lat="45.65062" lon="6.55964">
        <ele>2057</ele>
        <time>2022-07-27T13:12:01Z</time>
      </trkpt>
      <trkpt lat="45.65061" lon="6.55963">
        <ele>2057</ele>
        <time>2022-07-27T13:12:02Z</time>
      </trkpt>
      <trkpt lat="45.6506" lon="6.55962">
        <ele>2057</ele>
        <time>2022-07-27T13:12:03Z</time>
      </trkpt>
      <trkpt lat="45.6506" lon="6.5596">
        <ele>2057</ele>
        <time>2022-07-27T13:12:04Z</time>
      </trkpt>
      <trkpt lat="45.65059" lon="6.55959">
        <ele>2057</ele>
        <time>2022-07-27T13:12:05Z</time>
      </trkpt>
      <trkpt lat="45.65059" lon="6.55958">
        <ele>2057</ele>
        <time>2022-07-27T13:12:06Z</time>
      </trkpt>
      <trkpt lat="45.65058" lon="6.55957">
        <ele>2057</ele>
        <time>2022-07-27T13:12:07Z</time>
      </trkpt>
      <trkpt lat="45.65058" lon="6.55956">
        <ele>2057</ele>
        <time>2022-07-27T13:12:08Z</time>
      </trkpt>
      <trkpt lat="45.65058" lon="6.55955">
        <ele>2057</ele>
        <time>2022-07-27T13:12:09Z</time>
      </trkpt>
      <trkpt lat="45.65058" lon="6.55954">
        <ele>2057</ele>
        <time>2022-07-27T13:12:10Z</time>
      </trkpt>
      <trkpt lat="45.65057" lon="6.55953">
        <ele>2057</ele>
        <time>2022-07-27T13:12:11Z</time>
      </trkpt>
      <trkpt lat="45.65057" lon="6.55952">
        <ele>2057</ele>
        <time>2022-07-27T13:12:12Z</time>
      </trkpt>
      <trkpt lat="45.65056" lon="6.55952">
        <ele>2057</ele>
        <time>2022-07-27T13:12:13Z</time>
      </trkpt>
      <trkpt lat="45.65055" lon="6.55951">
        <ele>2057</ele>
        <time>2022-07-27T13:12:14Z</time>
      </trkpt>
      <trkpt lat="45.65055" lon="6.5595">
        <ele>2057</ele>
        <time>2022-07-27T13:12:15Z</time>
      </trkpt>
      <trkpt lat="45.65054" lon="6.55949">
        <ele>2057</ele>
        <time>2022-07-27T13:12:16Z</time>
      </trkpt>
      <trkpt lat="45.65053" lon="6.55949">
        <ele>2057</ele>
        <time>2022-07-27T13:12:17Z</time>
      </trkpt>
      <trkpt lat="45.65053" lon="6.55948">
        <ele>2057</ele>
        <time>2022-07-27T13:12:18Z</time>
      </trkpt>
      <trkpt lat="45.65052" lon="6.55947">
        <ele>2057</ele>
        <time>2022-07-27T13:12:19Z</time>
      </trkpt>
      <trkpt lat="45.65051" lon="6.55946">
        <ele>2057</ele>
        <time>2022-07-27T13:12:20Z</time>
      </trkpt>
      <trkpt lat="45.6505" lon="6.55945">
        <ele>2057</ele>
        <time>2022-07-27T13:12:21Z</time>
      </trkpt>
      <trkpt lat="45.6505" lon="6.55944">
        <ele>2057</ele>
        <time>2022-07-27T13:12:22Z</time>
      </trkpt>
      <trkpt lat="45.65049" lon="6.55943">
        <ele>2057</ele>
        <time>2022-07-27T13:12:23Z</time>
      </trkpt>
      <trkpt lat="45.65048" lon="6.55942">
        <ele>2057</ele>
        <time>2022-07-27T13:12:24Z</time>
      </trkpt>
      <trkpt lat="45.65048" lon="6.55942">
        <ele>2057</ele>
        <time>2022-07-27T13:12:25Z</time>
      </trkpt>
      <trkpt lat="45.65047" lon="6.55941">
        <ele>2058</ele>
        <time>2022-07-27T13:12:26Z</time>
      </trkpt>
      <trkpt lat="45.65047" lon="6.55941">
        <ele>2058</ele>
        <time>2022-07-27T13:12:27Z</time>
      </trkpt>
      <trkpt lat="45.65046" lon="6.55941">
        <ele>2058</ele>
        <time>2022-07-27T13:12:28Z</time>
      </trkpt>
      <trkpt lat="45.65045" lon="6.55941">
        <ele>2058</ele>
        <time>2022-07-27T13:12:29Z</time>
      </trkpt>
      <trkpt lat="45.65044" lon="6.55941">
        <ele>2058</ele>
        <time>2022-07-27T13:12:30Z</time>
      </trkpt>
      <trkpt lat="45.65043" lon="6.55941">
        <ele>2058</ele>
        <time>2022-07-27T13:12:31Z</time>
      </trkpt>
      <trkpt lat="45.65042" lon="6.55941">
        <ele>2058</ele>
        <time>2022-07-27T13:12:32Z</time>
      </trkpt>
      <trkpt lat="45.65041" lon="6.55941">
        <ele>2058</ele>
        <time>2022-07-27T13:12:33Z</time>
      </trkpt>
      <trkpt lat="45.6504" lon="6.5594">
        <ele>2058</ele>
        <time>2022-07-27T13:12:34Z</time>
      </trkpt>
      <trkpt lat="45.65039" lon="6.5594">
        <ele>2058</ele>
        <time>2022-07-27T13:12:35Z</time>
      </trkpt>
      <trkpt lat="45.65039" lon="6.55939">
        <ele>2059</ele>
        <time>2022-07-27T13:12:36Z</time>
      </trkpt>
      <trkpt lat="45.65038" lon="6.55939">
        <ele>2059</ele>
        <time>2022-07-27T13:12:37Z</time>
      </trkpt>
      <trkpt lat="45.65037" lon="6.55938">
        <ele>2059</ele>
        <time>2022-07-27T13:12:38Z</time>
      </trkpt>
      <trkpt lat="45.65036" lon="6.55937">
        <ele>2059</ele>
        <time>2022-07-27T13:12:39Z</time>
      </trkpt>
      <trkpt lat="45.65035" lon="6.55937">
        <ele>2059</ele>
        <time>2022-07-27T13:12:40Z</time>
      </trkpt>
      <trkpt lat="45.65035" lon="6.55936">
        <ele>2059</ele>
        <time>2022-07-27T13:12:41Z</time>
      </trkpt>
      <trkpt lat="45.65034" lon="6.55935">
        <ele>2059</ele>
        <time>2022-07-27T13:12:42Z</time>
      </trkpt>
      <trkpt lat="45.65033" lon="6.55935">
        <ele>2059</ele>
        <time>2022-07-27T13:12:43Z</time>
      </trkpt>
      <trkpt lat="45.65032" lon="6.55934">
        <ele>2059</ele>
        <time>2022-07-27T13:12:44Z</time>
      </trkpt>
      <trkpt lat="45.65032" lon="6.55933">
        <ele>2059</ele>
        <time>2022-07-27T13:12:45Z</time>
      </trkpt>
      <trkpt lat="45.65031" lon="6.55933">
        <ele>2060</ele>
        <time>2022-07-27T13:12:46Z</time>
      </trkpt>
      <trkpt lat="45.6503" lon="6.55932">
        <ele>2060</ele>
        <time>2022-07-27T13:12:47Z</time>
      </trkpt>
      <trkpt lat="45.65029" lon="6.55931">
        <ele>2060</ele>
        <time>2022-07-27T13:12:48Z</time>
      </trkpt>
      <trkpt lat="45.65028" lon="6.55931">
        <ele>2060</ele>
        <time>2022-07-27T13:12:49Z</time>
      </trkpt>
      <trkpt lat="45.65027" lon="6.5593">
        <ele>2060</ele>
        <time>2022-07-27T13:12:50Z</time>
      </trkpt>
      <trkpt lat="45.65026" lon="6.55929">
        <ele>2060</ele>
        <time>2022-07-27T13:12:51Z</time>
      </trkpt>
      <trkpt lat="45.65025" lon="6.55929">
        <ele>2060</ele>
        <time>2022-07-27T13:12:52Z</time>
      </trkpt>
      <trkpt lat="45.65025" lon="6.55928">
        <ele>2060</ele>
        <time>2022-07-27T13:12:53Z</time>
      </trkpt>
      <trkpt lat="45.65024" lon="6.55928">
        <ele>2060</ele>
        <time>2022-07-27T13:12:54Z</time>
      </trkpt>
      <trkpt lat="45.65023" lon="6.55927">
        <ele>2060</ele>
        <time>2022-07-27T13:12:55Z</time>
      </trkpt>
      <trkpt lat="45.65022" lon="6.55926">
        <ele>2060</ele>
        <time>2022-07-27T13:12:56Z</time>
      </trkpt>
      <trkpt lat="45.65021" lon="6.55926">
        <ele>2060</ele>
        <time>2022-07-27T13:12:57Z</time>
      </trkpt>
      <trkpt lat="45.6502" lon="6.55925">
        <ele>2060</ele>
        <time>2022-07-27T13:12:58Z</time>
      </trkpt>
      <trkpt lat="45.65019" lon="6.55925">
        <ele>2060</ele>
        <time>2022-07-27T13:12:59Z</time>
      </trkpt>
      <trkpt lat="45.65018" lon="6.55924">
        <ele>2060</ele>
        <time>2022-07-27T13:13:00Z</time>
      </trkpt>
      <trkpt lat="45.65018" lon="6.55924">
        <ele>2060</ele>
        <time>2022-07-27T13:13:01Z</time>
      </trkpt>
      <trkpt lat="45.65017" lon="6.55923">
        <ele>2060</ele>
        <time>2022-07-27T13:13:02Z</time>
      </trkpt>
      <trkpt lat="45.65016" lon="6.55923">
        <ele>2060</ele>
        <time>2022-07-27T13:13:03Z</time>
      </trkpt>
      <trkpt lat="45.65016" lon="6.55922">
        <ele>2060</ele>
        <time>2022-07-27T13:13:04Z</time>
      </trkpt>
      <trkpt lat="45.65015" lon="6.55922">
        <ele>2060</ele>
        <time>2022-07-27T13:13:05Z</time>
      </trkpt>
      <trkpt lat="45.65015" lon="6.55921">
        <ele>2061</ele>
        <time>2022-07-27T13:13:06Z</time>
      </trkpt>
      <trkpt lat="45.65014" lon="6.55921">
        <ele>2061</ele>
        <time>2022-07-27T13:13:07Z</time>
      </trkpt>
      <trkpt lat="45.65014" lon="6.5592">
        <ele>2061</ele>
        <time>2022-07-27T13:13:08Z</time>
      </trkpt>
      <trkpt lat="45.65013" lon="6.5592">
        <ele>2061</ele>
        <time>2022-07-27T13:13:09Z</time>
      </trkpt>
      <trkpt lat="45.65012" lon="6.5592">
        <ele>2061</ele>
        <time>2022-07-27T13:13:10Z</time>
      </trkpt>
      <trkpt lat="45.65012" lon="6.55919">
        <ele>2061</ele>
        <time>2022-07-27T13:13:11Z</time>
      </trkpt>
      <trkpt lat="45.65011" lon="6.55919">
        <ele>2061</ele>
        <time>2022-07-27T13:13:12Z</time>
      </trkpt>
      <trkpt lat="45.6501" lon="6.55918">
        <ele>2061</ele>
        <time>2022-07-27T13:13:13Z</time>
      </trkpt>
      <trkpt lat="45.65009" lon="6.55917">
        <ele>2061</ele>
        <time>2022-07-27T13:13:14Z</time>
      </trkpt>
      <trkpt lat="45.65009" lon="6.55916">
        <ele>2061</ele>
        <time>2022-07-27T13:13:15Z</time>
      </trkpt>
      <trkpt lat="45.65008" lon="6.55915">
        <ele>2062</ele>
        <time>2022-07-27T13:13:16Z</time>
      </trkpt>
      <trkpt lat="45.65008" lon="6.55914">
        <ele>2062</ele>
        <time>2022-07-27T13:13:17Z</time>
      </trkpt>
      <trkpt lat="45.65007" lon="6.55913">
        <ele>2062</ele>
        <time>2022-07-27T13:13:18Z</time>
      </trkpt>
      <trkpt lat="45.65007" lon="6.55912">
        <ele>2062</ele>
        <time>2022-07-27T13:13:19Z</time>
      </trkpt>
      <trkpt lat="45.65006" lon="6.5591">
        <ele>2062</ele>
        <time>2022-07-27T13:13:20Z</time>
      </trkpt>
      <trkpt lat="45.65006" lon="6.55909">
        <ele>2062</ele>
        <time>2022-07-27T13:13:21Z</time>
      </trkpt>
      <trkpt lat="45.65005" lon="6.55908">
        <ele>2062</ele>
        <time>2022-07-27T13:13:22Z</time>
      </trkpt>
      <trkpt lat="45.65005" lon="6.55907">
        <ele>2062</ele>
        <time>2022-07-27T13:13:23Z</time>
      </trkpt>
      <trkpt lat="45.65004" lon="6.55905">
        <ele>2062</ele>
        <time>2022-07-27T13:13:24Z</time>
      </trkpt>
      <trkpt lat="45.65003" lon="6.55904">
        <ele>2062</ele>
        <time>2022-07-27T13:13:25Z</time>
      </trkpt>
      <trkpt lat="45.65003" lon="6.55903">
        <ele>2062</ele>
        <time>2022-07-27T13:13:26Z</time>
      </trkpt>
      <trkpt lat="45.65002" lon="6.55902">
        <ele>2062</ele>
        <time>2022-07-27T13:13:27Z</time>
      </trkpt>
      <trkpt lat="45.65001" lon="6.55901">
        <ele>2062</ele>
        <time>2022-07-27T13:13:28Z</time>
      </trkpt>
      <trkpt lat="45.65001" lon="6.559">
        <ele>2062</ele>
        <time>2022-07-27T13:13:29Z</time>
      </trkpt>
      <trkpt lat="45.65" lon="6.55898">
        <ele>2062</ele>
        <time>2022-07-27T13:13:30Z</time>
      </trkpt>
      <trkpt lat="45.65" lon="6.55897">
        <ele>2062</ele>
        <time>2022-07-27T13:13:31Z</time>
      </trkpt>
      <trkpt lat="45.65" lon="6.55896">
        <ele>2061</ele>
        <time>2022-07-27T13:13:32Z</time>
      </trkpt>
      <trkpt lat="45.65" lon="6.55895">
        <ele>2061</ele>
        <time>2022-07-27T13:13:33Z</time>
      </trkpt>
      <trkpt lat="45.65" lon="6.55893">
        <ele>2061</ele>
        <time>2022-07-27T13:13:34Z</time>
      </trkpt>
      <trkpt lat="45.65" lon="6.55892">
        <ele>2061</ele>
        <time>2022-07-27T13:13:35Z</time>
      </trkpt>
      <trkpt lat="45.65" lon="6.55891">
        <ele>2061</ele>
        <time>2022-07-27T13:13:36Z</time>
      </trkpt>
      <trkpt lat="45.65" lon="6.55889">
        <ele>2061</ele>
        <time>2022-07-27T13:13:37Z</time>
      </trkpt>
      <trkpt lat="45.65" lon="6.55888">
        <ele>2061</ele>
        <time>2022-07-27T13:13:38Z</time>
      </trkpt>
      <trkpt lat="45.65" lon="6.55886">
        <ele>2061</ele>
        <time>2022-07-27T13:13:39Z</time>
      </trkpt>
      <trkpt lat="45.65" lon="6.55885">
        <ele>2061</ele>
        <time>2022-07-27T13:13:40Z</time>
      </trkpt>
      <trkpt lat="45.65" lon="6.55883">
        <ele>2061</ele>
        <time>2022-07-27T13:13:41Z</time>
      </trkpt>
      <trkpt lat="45.65" lon="6.55882">
        <ele>2061</ele>
        <time>2022-07-27T13:13:42Z</time>
      </trkpt>
      <trkpt lat="45.65" lon="6.55881">
        <ele>2061</ele>
        <time>2022-07-27T13:13:43Z</time>
      </trkpt>
      <trkpt lat="45.65" lon="6.5588">
        <ele>2061</ele>
        <time>2022-07-27T13:13:44Z</time>
      </trkpt>
      <trkpt lat="45.65" lon="6.55879">
        <ele>2061</ele>
        <time>2022-07-27T13:13:45Z</time>
      </trkpt>
      <trkpt lat="45.65" lon="6.55878">
        <ele>2061</ele>
        <time>2022-07-27T13:13:46Z</time>
      </trkpt>
      <trkpt lat="45.65" lon="6.55877">
        <ele>2061</ele>
        <time>2022-07-27T13:13:47Z</time>
      </trkpt>
      <trkpt lat="45.65001" lon="6.55876">
        <ele>2061</ele>
        <time>2022-07-27T13:13:48Z</time>
      </trkpt>
      <trkpt lat="45.65001" lon="6.55875">
        <ele>2061</ele>
        <time>2022-07-27T13:13:49Z</time>
      </trkpt>
      <trkpt lat="45.65001" lon="6.55873">
        <ele>2061</ele>
        <time>2022-07-27T13:13:50Z</time>
      </trkpt>
      <trkpt lat="45.65" lon="6.55872">
        <ele>2062</ele>
        <time>2022-07-27T13:13:51Z</time>
      </trkpt>
      <trkpt lat="45.65" lon="6.5587">
        <ele>2062</ele>
        <time>2022-07-27T13:13:52Z</time>
      </trkpt>
      <trkpt lat="45.65" lon="6.55868">
        <ele>2062</ele>
        <time>2022-07-27T13:13:53Z</time>
      </trkpt>
      <trkpt lat="45.65" lon="6.55867">
        <ele>2062</ele>
        <time>2022-07-27T13:13:54Z</time>
      </trkpt>
      <trkpt lat="45.64999" lon="6.55865">
        <ele>2062</ele>
        <time>2022-07-27T13:13:55Z</time>
      </trkpt>
      <trkpt lat="45.64999" lon="6.55863">
        <ele>2062</ele>
        <time>2022-07-27T13:13:56Z</time>
      </trkpt>
      <trkpt lat="45.64999" lon="6.55861">
        <ele>2062</ele>
        <time>2022-07-27T13:13:57Z</time>
      </trkpt>
      <trkpt lat="45.64999" lon="6.5586">
        <ele>2062</ele>
        <time>2022-07-27T13:13:58Z</time>
      </trkpt>
      <trkpt lat="45.64998" lon="6.55858">
        <ele>2062</ele>
        <time>2022-07-27T13:16:07Z</time>
      </trkpt>
      <trkpt lat="45.64998" lon="6.55857">
        <ele>2062</ele>
        <time>2022-07-27T13:16:08Z</time>
      </trkpt>
      <trkpt lat="45.64998" lon="6.55856">
        <ele>2062</ele>
        <time>2022-07-27T13:16:09Z</time>
      </trkpt>
      <trkpt lat="45.64997" lon="6.55855">
        <ele>2062</ele>
        <time>2022-07-27T13:16:10Z</time>
      </trkpt>
      <trkpt lat="45.64997" lon="6.55854">
        <ele>2062</ele>
        <time>2022-07-27T13:16:11Z</time>
      </trkpt>
      <trkpt lat="45.64997" lon="6.55853">
        <ele>2062</ele>
        <time>2022-07-27T13:16:12Z</time>
      </trkpt>
      <trkpt lat="45.64996" lon="6.55852">
        <ele>2062</ele>
        <time>2022-07-27T13:16:13Z</time>
      </trkpt>
      <trkpt lat="45.64996" lon="6.55851">
        <ele>2062</ele>
        <time>2022-07-27T13:16:14Z</time>
      </trkpt>
      <trkpt lat="45.64996" lon="6.55849">
        <ele>2062</ele>
        <time>2022-07-27T13:16:15Z</time>
      </trkpt>
      <trkpt lat="45.64995" lon="6.55848">
        <ele>2062</ele>
        <time>2022-07-27T13:16:16Z</time>
      </trkpt>
      <trkpt lat="45.64995" lon="6.55846">
        <ele>2062</ele>
        <time>2022-07-27T13:16:17Z</time>
      </trkpt>
      <trkpt lat="45.64995" lon="6.55845">
        <ele>2062</ele>
        <time>2022-07-27T13:16:18Z</time>
      </trkpt>
      <trkpt lat="45.64995" lon="6.55844">
        <ele>2062</ele>
        <time>2022-07-27T13:16:19Z</time>
      </trkpt>
      <trkpt lat="45.64995" lon="6.55842">
        <ele>2062</ele>
        <time>2022-07-27T13:16:20Z</time>
      </trkpt>
      <trkpt lat="45.64995" lon="6.55841">
        <ele>2063</ele>
        <time>2022-07-27T13:16:21Z</time>
      </trkpt>
      <trkpt lat="45.64995" lon="6.55839">
        <ele>2063</ele>
        <time>2022-07-27T13:16:22Z</time>
      </trkpt>
      <trkpt lat="45.64995" lon="6.55838">
        <ele>2063</ele>
        <time>2022-07-27T13:16:23Z</time>
      </trkpt>
      <trkpt lat="45.64995" lon="6.55837">
        <ele>2063</ele>
        <time>2022-07-27T13:16:24Z</time>
      </trkpt>
      <trkpt lat="45.64995" lon="6.55835">
        <ele>2063</ele>
        <time>2022-07-27T13:16:25Z</time>
      </trkpt>
      <trkpt lat="45.64995" lon="6.55834">
        <ele>2063</ele>
        <time>2022-07-27T13:16:26Z</time>
      </trkpt>
      <trkpt lat="45.64995" lon="6.55832">
        <ele>2063</ele>
        <time>2022-07-27T13:16:27Z</time>
      </trkpt>
      <trkpt lat="45.64995" lon="6.55831">
        <ele>2063</ele>
        <time>2022-07-27T13:16:28Z</time>
      </trkpt>
      <trkpt lat="45.64995" lon="6.5583">
        <ele>2063</ele>
        <time>2022-07-27T13:16:29Z</time>
      </trkpt>
      <trkpt lat="45.64995" lon="6.55827">
        <ele>2063</ele>
        <time>2022-07-27T13:16:37Z</time>
      </trkpt>
      <trkpt lat="45.64995" lon="6.55827">
        <ele>2063</ele>
        <time>2022-07-27T13:16:38Z</time>
      </trkpt>
      <trkpt lat="45.64995" lon="6.55826">
        <ele>2063</ele>
        <time>2022-07-27T13:16:39Z</time>
      </trkpt>
      <trkpt lat="45.64995" lon="6.55825">
        <ele>2063</ele>
        <time>2022-07-27T13:16:40Z</time>
      </trkpt>
      <trkpt lat="45.64995" lon="6.55824">
        <ele>2063</ele>
        <time>2022-07-27T13:16:41Z</time>
      </trkpt>
      <trkpt lat="45.64995" lon="6.55823">
        <ele>2063</ele>
        <time>2022-07-27T13:16:42Z</time>
      </trkpt>
      <trkpt lat="45.64995" lon="6.55822">
        <ele>2063</ele>
        <time>2022-07-27T13:16:43Z</time>
      </trkpt>
      <trkpt lat="45.64996" lon="6.5582">
        <ele>2063</ele>
        <time>2022-07-27T13:16:44Z</time>
      </trkpt>
      <trkpt lat="45.64996" lon="6.55819">
        <ele>2063</ele>
        <time>2022-07-27T13:16:45Z</time>
      </trkpt>
      <trkpt lat="45.64996" lon="6.55818">
        <ele>2063</ele>
        <time>2022-07-27T13:16:46Z</time>
      </trkpt>
      <trkpt lat="45.64997" lon="6.55816">
        <ele>2063</ele>
        <time>2022-07-27T13:16:47Z</time>
      </trkpt>
      <trkpt lat="45.64997" lon="6.55815">
        <ele>2063</ele>
        <time>2022-07-27T13:16:48Z</time>
      </trkpt>
      <trkpt lat="45.64997" lon="6.55814">
        <ele>2063</ele>
        <time>2022-07-27T13:16:49Z</time>
      </trkpt>
      <trkpt lat="45.64998" lon="6.55813">
        <ele>2063</ele>
        <time>2022-07-27T13:16:50Z</time>
      </trkpt>
      <trkpt lat="45.64998" lon="6.55811">
        <ele>2064</ele>
        <time>2022-07-27T13:16:51Z</time>
      </trkpt>
      <trkpt lat="45.64998" lon="6.55811">
        <ele>2064</ele>
        <time>2022-07-27T13:16:52Z</time>
      </trkpt>
      <trkpt lat="45.64998" lon="6.5581">
        <ele>2064</ele>
        <time>2022-07-27T13:16:53Z</time>
      </trkpt>
      <trkpt lat="45.64998" lon="6.5581">
        <ele>2064</ele>
        <time>2022-07-27T13:16:54Z</time>
      </trkpt>
      <trkpt lat="45.64998" lon="6.55809">
        <ele>2064</ele>
        <time>2022-07-27T13:16:55Z</time>
      </trkpt>
      <trkpt lat="45.64998" lon="6.55808">
        <ele>2064</ele>
        <time>2022-07-27T13:16:56Z</time>
      </trkpt>
      <trkpt lat="45.64998" lon="6.55807">
        <ele>2064</ele>
        <time>2022-07-27T13:16:57Z</time>
      </trkpt>
      <trkpt lat="45.64998" lon="6.55807">
        <ele>2064</ele>
        <time>2022-07-27T13:16:58Z</time>
      </trkpt>
      <trkpt lat="45.64998" lon="6.55806">
        <ele>2064</ele>
        <time>2022-07-27T13:16:59Z</time>
      </trkpt>
      <trkpt lat="45.64998" lon="6.55806">
        <ele>2064</ele>
        <time>2022-07-27T13:17:00Z</time>
      </trkpt>
      <trkpt lat="45.64998" lon="6.55805">
        <ele>2064</ele>
        <time>2022-07-27T13:17:01Z</time>
      </trkpt>
      <trkpt lat="45.64998" lon="6.55805">
        <ele>2064</ele>
        <time>2022-07-27T13:17:02Z</time>
      </trkpt>
      <trkpt lat="45.64998" lon="6.55805">
        <ele>2064</ele>
        <time>2022-07-27T13:17:03Z</time>
      </trkpt>
      <trkpt lat="45.64998" lon="6.55804">
        <ele>2064</ele>
        <time>2022-07-27T13:17:04Z</time>
      </trkpt>
      <trkpt lat="45.64998" lon="6.55803">
        <ele>2064</ele>
        <time>2022-07-27T13:17:05Z</time>
      </trkpt>
      <trkpt lat="45.64998" lon="6.55802">
        <ele>2064</ele>
        <time>2022-07-27T13:17:06Z</time>
      </trkpt>
      <trkpt lat="45.64998" lon="6.55802">
        <ele>2064</ele>
        <time>2022-07-27T13:17:07Z</time>
      </trkpt>
      <trkpt lat="45.64998" lon="6.55801">
        <ele>2064</ele>
        <time>2022-07-27T13:17:08Z</time>
      </trkpt>
      <trkpt lat="45.64998" lon="6.558">
        <ele>2064</ele>
        <time>2022-07-27T13:17:09Z</time>
      </trkpt>
      <trkpt lat="45.64998" lon="6.55799">
        <ele>2064</ele>
        <time>2022-07-27T13:17:10Z</time>
      </trkpt>
      <trkpt lat="45.64998" lon="6.55797">
        <ele>2064</ele>
        <time>2022-07-27T13:17:11Z</time>
      </trkpt>
      <trkpt lat="45.64999" lon="6.55796">
        <ele>2064</ele>
        <time>2022-07-27T13:17:12Z</time>
      </trkpt>
      <trkpt lat="45.64999" lon="6.55795">
        <ele>2064</ele>
        <time>2022-07-27T13:17:13Z</time>
      </trkpt>
      <trkpt lat="45.64999" lon="6.55794">
        <ele>2064</ele>
        <time>2022-07-27T13:17:14Z</time>
      </trkpt>
      <trkpt lat="45.64999" lon="6.55793">
        <ele>2064</ele>
        <time>2022-07-27T13:17:15Z</time>
      </trkpt>
      <trkpt lat="45.64998" lon="6.55792">
        <ele>2065</ele>
        <time>2022-07-27T13:17:16Z</time>
      </trkpt>
      <trkpt lat="45.64998" lon="6.55791">
        <ele>2065</ele>
        <time>2022-07-27T13:17:17Z</time>
      </trkpt>
      <trkpt lat="45.64998" lon="6.5579">
        <ele>2065</ele>
        <time>2022-07-27T13:17:18Z</time>
      </trkpt>
      <trkpt lat="45.64998" lon="6.55789">
        <ele>2065</ele>
        <time>2022-07-27T13:17:19Z</time>
      </trkpt>
      <trkpt lat="45.64997" lon="6.55788">
        <ele>2065</ele>
        <time>2022-07-27T13:17:20Z</time>
      </trkpt>
      <trkpt lat="45.64997" lon="6.55787">
        <ele>2065</ele>
        <time>2022-07-27T13:17:21Z</time>
      </trkpt>
      <trkpt lat="45.64997" lon="6.55786">
        <ele>2065</ele>
        <time>2022-07-27T13:17:22Z</time>
      </trkpt>
      <trkpt lat="45.64997" lon="6.55785">
        <ele>2065</ele>
        <time>2022-07-27T13:17:23Z</time>
      </trkpt>
      <trkpt lat="45.64996" lon="6.55785">
        <ele>2065</ele>
        <time>2022-07-27T13:17:24Z</time>
      </trkpt>
      <trkpt lat="45.64996" lon="6.55784">
        <ele>2065</ele>
        <time>2022-07-27T13:17:25Z</time>
      </trkpt>
      <trkpt lat="45.64996" lon="6.55784">
        <ele>2065</ele>
        <time>2022-07-27T13:17:26Z</time>
      </trkpt>
      <trkpt lat="45.64996" lon="6.55783">
        <ele>2065</ele>
        <time>2022-07-27T13:17:27Z</time>
      </trkpt>
      <trkpt lat="45.64995" lon="6.55782">
        <ele>2065</ele>
        <time>2022-07-27T13:17:28Z</time>
      </trkpt>
      <trkpt lat="45.64995" lon="6.55782">
        <ele>2065</ele>
        <time>2022-07-27T13:17:29Z</time>
      </trkpt>
      <trkpt lat="45.64995" lon="6.55781">
        <ele>2065</ele>
        <time>2022-07-27T13:17:30Z</time>
      </trkpt>
      <trkpt lat="45.64995" lon="6.5578">
        <ele>2066</ele>
        <time>2022-07-27T13:17:31Z</time>
      </trkpt>
      <trkpt lat="45.64995" lon="6.5578">
        <ele>2066</ele>
        <time>2022-07-27T13:17:32Z</time>
      </trkpt>
      <trkpt lat="45.64995" lon="6.55779">
        <ele>2066</ele>
        <time>2022-07-27T13:17:33Z</time>
      </trkpt>
      <trkpt lat="45.64995" lon="6.55778">
        <ele>2066</ele>
        <time>2022-07-27T13:17:34Z</time>
      </trkpt>
      <trkpt lat="45.64995" lon="6.55777">
        <ele>2066</ele>
        <time>2022-07-27T13:17:35Z</time>
      </trkpt>
      <trkpt lat="45.64995" lon="6.55776">
        <ele>2067</ele>
        <time>2022-07-27T13:17:36Z</time>
      </trkpt>
      <trkpt lat="45.64995" lon="6.55774">
        <ele>2067</ele>
        <time>2022-07-27T13:17:37Z</time>
      </trkpt>
      <trkpt lat="45.64995" lon="6.55773">
        <ele>2067</ele>
        <time>2022-07-27T13:17:38Z</time>
      </trkpt>
      <trkpt lat="45.64995" lon="6.55772">
        <ele>2067</ele>
        <time>2022-07-27T13:17:39Z</time>
      </trkpt>
      <trkpt lat="45.64995" lon="6.55771">
        <ele>2067</ele>
        <time>2022-07-27T13:17:40Z</time>
      </trkpt>
      <trkpt lat="45.64995" lon="6.55769">
        <ele>2067</ele>
        <time>2022-07-27T13:17:41Z</time>
      </trkpt>
      <trkpt lat="45.64995" lon="6.55768">
        <ele>2067</ele>
        <time>2022-07-27T13:17:42Z</time>
      </trkpt>
      <trkpt lat="45.64995" lon="6.55767">
        <ele>2067</ele>
        <time>2022-07-27T13:17:43Z</time>
      </trkpt>
      <trkpt lat="45.64995" lon="6.55766">
        <ele>2067</ele>
        <time>2022-07-27T13:17:44Z</time>
      </trkpt>
      <trkpt lat="45.64995" lon="6.55765">
        <ele>2067</ele>
        <time>2022-07-27T13:17:45Z</time>
      </trkpt>
      <trkpt lat="45.64995" lon="6.55764">
        <ele>2068</ele>
        <time>2022-07-27T13:17:46Z</time>
      </trkpt>
      <trkpt lat="45.64995" lon="6.55763">
        <ele>2068</ele>
        <time>2022-07-27T13:17:47Z</time>
      </trkpt>
      <trkpt lat="45.64995" lon="6.55762">
        <ele>2068</ele>
        <time>2022-07-27T13:17:48Z</time>
      </trkpt>
      <trkpt lat="45.64995" lon="6.5576">
        <ele>2068</ele>
        <time>2022-07-27T13:17:49Z</time>
      </trkpt>
      <trkpt lat="45.64995" lon="6.55759">
        <ele>2068</ele>
        <time>2022-07-27T13:17:50Z</time>
      </trkpt>
      <trkpt lat="45.64994" lon="6.55758">
        <ele>2068</ele>
        <time>2022-07-27T13:17:51Z</time>
      </trkpt>
      <trkpt lat="45.64994" lon="6.55757">
        <ele>2068</ele>
        <time>2022-07-27T13:17:52Z</time>
      </trkpt>
      <trkpt lat="45.64994" lon="6.55756">
        <ele>2068</ele>
        <time>2022-07-27T13:17:53Z</time>
      </trkpt>
      <trkpt lat="45.64994" lon="6.55755">
        <ele>2068</ele>
        <time>2022-07-27T13:17:54Z</time>
      </trkpt>
      <trkpt lat="45.64994" lon="6.55754">
        <ele>2068</ele>
        <time>2022-07-27T13:17:55Z</time>
      </trkpt>
      <trkpt lat="45.64993" lon="6.55753">
        <ele>2069</ele>
        <time>2022-07-27T13:17:56Z</time>
      </trkpt>
      <trkpt lat="45.64993" lon="6.55752">
        <ele>2069</ele>
        <time>2022-07-27T13:17:57Z</time>
      </trkpt>
      <trkpt lat="45.64993" lon="6.55751">
        <ele>2069</ele>
        <time>2022-07-27T13:17:58Z</time>
      </trkpt>
      <trkpt lat="45.64993" lon="6.5575">
        <ele>2069</ele>
        <time>2022-07-27T13:17:59Z</time>
      </trkpt>
      <trkpt lat="45.64992" lon="6.5575">
        <ele>2069</ele>
        <time>2022-07-27T13:18:00Z</time>
      </trkpt>
      <trkpt lat="45.64992" lon="6.55749">
        <ele>2070</ele>
        <time>2022-07-27T13:18:01Z</time>
      </trkpt>
      <trkpt lat="45.64992" lon="6.55748">
        <ele>2070</ele>
        <time>2022-07-27T13:18:02Z</time>
      </trkpt>
      <trkpt lat="45.64991" lon="6.55747">
        <ele>2070</ele>
        <time>2022-07-27T13:18:03Z</time>
      </trkpt>
      <trkpt lat="45.64991" lon="6.55746">
        <ele>2070</ele>
        <time>2022-07-27T13:18:04Z</time>
      </trkpt>
      <trkpt lat="45.6499" lon="6.55746">
        <ele>2070</ele>
        <time>2022-07-27T13:18:05Z</time>
      </trkpt>
      <trkpt lat="45.6499" lon="6.55745">
        <ele>2070</ele>
        <time>2022-07-27T13:18:06Z</time>
      </trkpt>
      <trkpt lat="45.64989" lon="6.55744">
        <ele>2070</ele>
        <time>2022-07-27T13:18:07Z</time>
      </trkpt>
      <trkpt lat="45.64989" lon="6.55743">
        <ele>2070</ele>
        <time>2022-07-27T13:18:08Z</time>
      </trkpt>
      <trkpt lat="45.64988" lon="6.55742">
        <ele>2070</ele>
        <time>2022-07-27T13:18:09Z</time>
      </trkpt>
      <trkpt lat="45.64988" lon="6.55742">
        <ele>2070</ele>
        <time>2022-07-27T13:18:10Z</time>
      </trkpt>
      <trkpt lat="45.64987" lon="6.55741">
        <ele>2070</ele>
        <time>2022-07-27T13:18:11Z</time>
      </trkpt>
      <trkpt lat="45.64986" lon="6.5574">
        <ele>2070</ele>
        <time>2022-07-27T13:18:12Z</time>
      </trkpt>
      <trkpt lat="45.64986" lon="6.55739">
        <ele>2070</ele>
        <time>2022-07-27T13:18:13Z</time>
      </trkpt>
      <trkpt lat="45.64985" lon="6.55738">
        <ele>2070</ele>
        <time>2022-07-27T13:18:14Z</time>
      </trkpt>
      <trkpt lat="45.64985" lon="6.55737">
        <ele>2070</ele>
        <time>2022-07-27T13:18:15Z</time>
      </trkpt>
      <trkpt lat="45.64984" lon="6.55736">
        <ele>2070</ele>
        <time>2022-07-27T13:18:16Z</time>
      </trkpt>
      <trkpt lat="45.64984" lon="6.55735">
        <ele>2070</ele>
        <time>2022-07-27T13:18:17Z</time>
      </trkpt>
      <trkpt lat="45.64983" lon="6.55734">
        <ele>2070</ele>
        <time>2022-07-27T13:18:18Z</time>
      </trkpt>
      <trkpt lat="45.64983" lon="6.55733">
        <ele>2070</ele>
        <time>2022-07-27T13:18:19Z</time>
      </trkpt>
      <trkpt lat="45.64983" lon="6.55732">
        <ele>2070</ele>
        <time>2022-07-27T13:18:20Z</time>
      </trkpt>
      <trkpt lat="45.64983" lon="6.55731">
        <ele>2070</ele>
        <time>2022-07-27T13:18:21Z</time>
      </trkpt>
      <trkpt lat="45.64982" lon="6.5573">
        <ele>2070</ele>
        <time>2022-07-27T13:18:22Z</time>
      </trkpt>
      <trkpt lat="45.64982" lon="6.5573">
        <ele>2070</ele>
        <time>2022-07-27T13:18:23Z</time>
      </trkpt>
      <trkpt lat="45.64981" lon="6.55729">
        <ele>2070</ele>
        <time>2022-07-27T13:18:24Z</time>
      </trkpt>
      <trkpt lat="45.64981" lon="6.55728">
        <ele>2070</ele>
        <time>2022-07-27T13:18:25Z</time>
      </trkpt>
      <trkpt lat="45.64981" lon="6.55727">
        <ele>2070</ele>
        <time>2022-07-27T13:18:26Z</time>
      </trkpt>
      <trkpt lat="45.6498" lon="6.55726">
        <ele>2070</ele>
        <time>2022-07-27T13:18:27Z</time>
      </trkpt>
      <trkpt lat="45.6498" lon="6.55725">
        <ele>2070</ele>
        <time>2022-07-27T13:18:28Z</time>
      </trkpt>
      <trkpt lat="45.64978" lon="6.5572">
        <ele>2074</ele>
        <time>2022-07-27T13:18:52Z</time>
      </trkpt>
      <trkpt lat="45.64977" lon="6.55717">
        <ele>2074</ele>
        <time>2022-07-27T13:18:53Z</time>
      </trkpt>
      <trkpt lat="45.64977" lon="6.55715">
        <ele>2074</ele>
        <time>2022-07-27T13:18:54Z</time>
      </trkpt>
      <trkpt lat="45.64976" lon="6.55713">
        <ele>2074</ele>
        <time>2022-07-27T13:18:55Z</time>
      </trkpt>
      <trkpt lat="45.64976" lon="6.55711">
        <ele>2075</ele>
        <time>2022-07-27T13:18:56Z</time>
      </trkpt>
      <trkpt lat="45.64975" lon="6.5571">
        <ele>2075</ele>
        <time>2022-07-27T13:18:57Z</time>
      </trkpt>
      <trkpt lat="45.64975" lon="6.55708">
        <ele>2075</ele>
        <time>2022-07-27T13:18:58Z</time>
      </trkpt>
      <trkpt lat="45.64975" lon="6.55707">
        <ele>2075</ele>
        <time>2022-07-27T13:18:59Z</time>
      </trkpt>
      <trkpt lat="45.64974" lon="6.55706">
        <ele>2075</ele>
        <time>2022-07-27T13:19:00Z</time>
      </trkpt>
      <trkpt lat="45.64974" lon="6.55704">
        <ele>2075</ele>
        <time>2022-07-27T13:19:01Z</time>
      </trkpt>
      <trkpt lat="45.64974" lon="6.55703">
        <ele>2075</ele>
        <time>2022-07-27T13:19:02Z</time>
      </trkpt>
      <trkpt lat="45.64974" lon="6.55702">
        <ele>2075</ele>
        <time>2022-07-27T13:19:03Z</time>
      </trkpt>
      <trkpt lat="45.64973" lon="6.55701">
        <ele>2075</ele>
        <time>2022-07-27T13:19:04Z</time>
      </trkpt>
      <trkpt lat="45.64973" lon="6.55699">
        <ele>2075</ele>
        <time>2022-07-27T13:19:05Z</time>
      </trkpt>
      <trkpt lat="45.64973" lon="6.55698">
        <ele>2076</ele>
        <time>2022-07-27T13:19:06Z</time>
      </trkpt>
      <trkpt lat="45.64973" lon="6.55697">
        <ele>2076</ele>
        <time>2022-07-27T13:19:07Z</time>
      </trkpt>
      <trkpt lat="45.64972" lon="6.55695">
        <ele>2076</ele>
        <time>2022-07-27T13:19:08Z</time>
      </trkpt>
      <trkpt lat="45.64972" lon="6.55694">
        <ele>2076</ele>
        <time>2022-07-27T13:19:09Z</time>
      </trkpt>
      <trkpt lat="45.64972" lon="6.55693">
        <ele>2076</ele>
        <time>2022-07-27T13:19:10Z</time>
      </trkpt>
      <trkpt lat="45.64972" lon="6.55691">
        <ele>2076</ele>
        <time>2022-07-27T13:19:11Z</time>
      </trkpt>
      <trkpt lat="45.64972" lon="6.5569">
        <ele>2076</ele>
        <time>2022-07-27T13:19:12Z</time>
      </trkpt>
      <trkpt lat="45.64972" lon="6.55689">
        <ele>2076</ele>
        <time>2022-07-27T13:19:13Z</time>
      </trkpt>
      <trkpt lat="45.64971" lon="6.55688">
        <ele>2076</ele>
        <time>2022-07-27T13:19:14Z</time>
      </trkpt>
      <trkpt lat="45.64971" lon="6.55686">
        <ele>2076</ele>
        <time>2022-07-27T13:19:15Z</time>
      </trkpt>
      <trkpt lat="45.6497" lon="6.55685">
        <ele>2076</ele>
        <time>2022-07-27T13:19:16Z</time>
      </trkpt>
      <trkpt lat="45.6497" lon="6.55684">
        <ele>2076</ele>
        <time>2022-07-27T13:19:17Z</time>
      </trkpt>
      <trkpt lat="45.6497" lon="6.55683">
        <ele>2076</ele>
        <time>2022-07-27T13:19:18Z</time>
      </trkpt>
      <trkpt lat="45.64969" lon="6.55682">
        <ele>2076</ele>
        <time>2022-07-27T13:19:19Z</time>
      </trkpt>
      <trkpt lat="45.64969" lon="6.55681">
        <ele>2076</ele>
        <time>2022-07-27T13:19:20Z</time>
      </trkpt>
      <trkpt lat="45.64969" lon="6.5568">
        <ele>2076</ele>
        <time>2022-07-27T13:19:21Z</time>
      </trkpt>
      <trkpt lat="45.64969" lon="6.55679">
        <ele>2076</ele>
        <time>2022-07-27T13:19:22Z</time>
      </trkpt>
      <trkpt lat="45.64969" lon="6.55678">
        <ele>2076</ele>
        <time>2022-07-27T13:19:23Z</time>
      </trkpt>
      <trkpt lat="45.64968" lon="6.55677">
        <ele>2076</ele>
        <time>2022-07-27T13:19:24Z</time>
      </trkpt>
      <trkpt lat="45.64968" lon="6.55676">
        <ele>2076</ele>
        <time>2022-07-27T13:19:25Z</time>
      </trkpt>
      <trkpt lat="45.64968" lon="6.55676">
        <ele>2076</ele>
        <time>2022-07-27T13:19:26Z</time>
      </trkpt>
      <trkpt lat="45.64968" lon="6.55675">
        <ele>2076</ele>
        <time>2022-07-27T13:19:27Z</time>
      </trkpt>
      <trkpt lat="45.64968" lon="6.55674">
        <ele>2076</ele>
        <time>2022-07-27T13:19:28Z</time>
      </trkpt>
      <trkpt lat="45.64968" lon="6.55673">
        <ele>2076</ele>
        <time>2022-07-27T13:19:29Z</time>
      </trkpt>
      <trkpt lat="45.64967" lon="6.55672">
        <ele>2076</ele>
        <time>2022-07-27T13:19:30Z</time>
      </trkpt>
      <trkpt lat="45.64968" lon="6.55671">
        <ele>2077</ele>
        <time>2022-07-27T13:19:31Z</time>
      </trkpt>
      <trkpt lat="45.64968" lon="6.5567">
        <ele>2077</ele>
        <time>2022-07-27T13:19:32Z</time>
      </trkpt>
      <trkpt lat="45.64968" lon="6.55668">
        <ele>2077</ele>
        <time>2022-07-27T13:19:33Z</time>
      </trkpt>
      <trkpt lat="45.64968" lon="6.55667">
        <ele>2077</ele>
        <time>2022-07-27T13:19:34Z</time>
      </trkpt>
      <trkpt lat="45.64969" lon="6.55666">
        <ele>2077</ele>
        <time>2022-07-27T13:19:35Z</time>
      </trkpt>
      <trkpt lat="45.64969" lon="6.55665">
        <ele>2077</ele>
        <time>2022-07-27T13:19:36Z</time>
      </trkpt>
      <trkpt lat="45.6497" lon="6.55663">
        <ele>2077</ele>
        <time>2022-07-27T13:19:37Z</time>
      </trkpt>
      <trkpt lat="45.6497" lon="6.55662">
        <ele>2077</ele>
        <time>2022-07-27T13:19:38Z</time>
      </trkpt>
      <trkpt lat="45.6497" lon="6.5566">
        <ele>2077</ele>
        <time>2022-07-27T13:19:39Z</time>
      </trkpt>
      <trkpt lat="45.64971" lon="6.55659">
        <ele>2077</ele>
        <time>2022-07-27T13:19:40Z</time>
      </trkpt>
      <trkpt lat="45.64971" lon="6.55657">
        <ele>2077</ele>
        <time>2022-07-27T13:19:41Z</time>
      </trkpt>
      <trkpt lat="45.64971" lon="6.55656">
        <ele>2077</ele>
        <time>2022-07-27T13:19:42Z</time>
      </trkpt>
      <trkpt lat="45.64971" lon="6.55654">
        <ele>2077</ele>
        <time>2022-07-27T13:19:43Z</time>
      </trkpt>
      <trkpt lat="45.64971" lon="6.55653">
        <ele>2077</ele>
        <time>2022-07-27T13:19:44Z</time>
      </trkpt>
      <trkpt lat="45.64971" lon="6.55652">
        <ele>2077</ele>
        <time>2022-07-27T13:19:45Z</time>
      </trkpt>
      <trkpt lat="45.64971" lon="6.55651">
        <ele>2077</ele>
        <time>2022-07-27T13:19:46Z</time>
      </trkpt>
      <trkpt lat="45.64971" lon="6.5565">
        <ele>2077</ele>
        <time>2022-07-27T13:19:47Z</time>
      </trkpt>
      <trkpt lat="45.64971" lon="6.55649">
        <ele>2077</ele>
        <time>2022-07-27T13:19:48Z</time>
      </trkpt>
      <trkpt lat="45.64972" lon="6.55648">
        <ele>2077</ele>
        <time>2022-07-27T13:19:49Z</time>
      </trkpt>
      <trkpt lat="45.64972" lon="6.55647">
        <ele>2077</ele>
        <time>2022-07-27T13:19:50Z</time>
      </trkpt>
      <trkpt lat="45.64972" lon="6.55646">
        <ele>2078</ele>
        <time>2022-07-27T13:19:51Z</time>
      </trkpt>
      <trkpt lat="45.64971" lon="6.55645">
        <ele>2078</ele>
        <time>2022-07-27T13:19:52Z</time>
      </trkpt>
      <trkpt lat="45.64971" lon="6.55644">
        <ele>2078</ele>
        <time>2022-07-27T13:19:58Z</time>
      </trkpt>
      <trkpt lat="45.64971" lon="6.55643">
        <ele>2078</ele>
        <time>2022-07-27T13:19:59Z</time>
      </trkpt>
      <trkpt lat="45.64971" lon="6.55642">
        <ele>2078</ele>
        <time>2022-07-27T13:20:00Z</time>
      </trkpt>
      <trkpt lat="45.64971" lon="6.55641">
        <ele>2078</ele>
        <time>2022-07-27T13:20:01Z</time>
      </trkpt>
      <trkpt lat="45.6497" lon="6.5564">
        <ele>2078</ele>
        <time>2022-07-27T13:20:02Z</time>
      </trkpt>
      <trkpt lat="45.6497" lon="6.55638">
        <ele>2078</ele>
        <time>2022-07-27T13:20:03Z</time>
      </trkpt>
      <trkpt lat="45.6497" lon="6.55636">
        <ele>2078</ele>
        <time>2022-07-27T13:20:04Z</time>
      </trkpt>
      <trkpt lat="45.6497" lon="6.55634">
        <ele>2078</ele>
        <time>2022-07-27T13:20:05Z</time>
      </trkpt>
      <trkpt lat="45.6497" lon="6.55632">
        <ele>2078</ele>
        <time>2022-07-27T13:20:06Z</time>
      </trkpt>
      <trkpt lat="45.6497" lon="6.5563">
        <ele>2078</ele>
        <time>2022-07-27T13:20:07Z</time>
      </trkpt>
      <trkpt lat="45.6497" lon="6.55628">
        <ele>2078</ele>
        <time>2022-07-27T13:20:08Z</time>
      </trkpt>
      <trkpt lat="45.64971" lon="6.55626">
        <ele>2078</ele>
        <time>2022-07-27T13:20:09Z</time>
      </trkpt>
      <trkpt lat="45.64971" lon="6.55624">
        <ele>2078</ele>
        <time>2022-07-27T13:20:10Z</time>
      </trkpt>
      <trkpt lat="45.64971" lon="6.55623">
        <ele>2078</ele>
        <time>2022-07-27T13:20:11Z</time>
      </trkpt>
      <trkpt lat="45.64972" lon="6.55621">
        <ele>2078</ele>
        <time>2022-07-27T13:20:12Z</time>
      </trkpt>
      <trkpt lat="45.64972" lon="6.5562">
        <ele>2078</ele>
        <time>2022-07-27T13:20:13Z</time>
      </trkpt>
      <trkpt lat="45.64973" lon="6.55619">
        <ele>2078</ele>
        <time>2022-07-27T13:20:14Z</time>
      </trkpt>
      <trkpt lat="45.64972" lon="6.55617">
        <ele>2078</ele>
        <time>2022-07-27T13:20:15Z</time>
      </trkpt>
      <trkpt lat="45.64972" lon="6.55616">
        <ele>2078</ele>
        <time>2022-07-27T13:20:16Z</time>
      </trkpt>
      <trkpt lat="45.64972" lon="6.55614">
        <ele>2078</ele>
        <time>2022-07-27T13:20:17Z</time>
      </trkpt>
      <trkpt lat="45.64972" lon="6.55613">
        <ele>2078</ele>
        <time>2022-07-27T13:20:18Z</time>
      </trkpt>
      <trkpt lat="45.64972" lon="6.55611">
        <ele>2078</ele>
        <time>2022-07-27T13:20:19Z</time>
      </trkpt>
      <trkpt lat="45.64972" lon="6.5561">
        <ele>2078</ele>
        <time>2022-07-27T13:20:20Z</time>
      </trkpt>
      <trkpt lat="45.64972" lon="6.55608">
        <ele>2078</ele>
        <time>2022-07-27T13:20:21Z</time>
      </trkpt>
      <trkpt lat="45.64972" lon="6.55607">
        <ele>2078</ele>
        <time>2022-07-27T13:20:22Z</time>
      </trkpt>
      <trkpt lat="45.64972" lon="6.55605">
        <ele>2078</ele>
        <time>2022-07-27T13:20:23Z</time>
      </trkpt>
      <trkpt lat="45.64972" lon="6.55604">
        <ele>2078</ele>
        <time>2022-07-27T13:20:24Z</time>
      </trkpt>
      <trkpt lat="45.64972" lon="6.55602">
        <ele>2078</ele>
        <time>2022-07-27T13:20:25Z</time>
      </trkpt>
      <trkpt lat="45.64972" lon="6.55601">
        <ele>2078</ele>
        <time>2022-07-27T13:20:26Z</time>
      </trkpt>
      <trkpt lat="45.64972" lon="6.55599">
        <ele>2078</ele>
        <time>2022-07-27T13:20:27Z</time>
      </trkpt>
      <trkpt lat="45.64972" lon="6.55598">
        <ele>2078</ele>
        <time>2022-07-27T13:20:28Z</time>
      </trkpt>
      <trkpt lat="45.64971" lon="6.55596">
        <ele>2078</ele>
        <time>2022-07-27T13:20:29Z</time>
      </trkpt>
      <trkpt lat="45.64971" lon="6.55595">
        <ele>2078</ele>
        <time>2022-07-27T13:20:30Z</time>
      </trkpt>
      <trkpt lat="45.64971" lon="6.55594">
        <ele>2078</ele>
        <time>2022-07-27T13:20:31Z</time>
      </trkpt>
      <trkpt lat="45.64971" lon="6.55592">
        <ele>2078</ele>
        <time>2022-07-27T13:20:32Z</time>
      </trkpt>
      <trkpt lat="45.64971" lon="6.55591">
        <ele>2078</ele>
        <time>2022-07-27T13:20:33Z</time>
      </trkpt>
      <trkpt lat="45.64971" lon="6.5559">
        <ele>2078</ele>
        <time>2022-07-27T13:20:34Z</time>
      </trkpt>
      <trkpt lat="45.6497" lon="6.55589">
        <ele>2078</ele>
        <time>2022-07-27T13:20:35Z</time>
      </trkpt>
      <trkpt lat="45.6497" lon="6.55587">
        <ele>2078</ele>
        <time>2022-07-27T13:20:36Z</time>
      </trkpt>
      <trkpt lat="45.6497" lon="6.55586">
        <ele>2078</ele>
        <time>2022-07-27T13:20:37Z</time>
      </trkpt>
      <trkpt lat="45.6497" lon="6.55585">
        <ele>2078</ele>
        <time>2022-07-27T13:20:38Z</time>
      </trkpt>
      <trkpt lat="45.6497" lon="6.55584">
        <ele>2078</ele>
        <time>2022-07-27T13:20:39Z</time>
      </trkpt>
      <trkpt lat="45.6497" lon="6.55583">
        <ele>2078</ele>
        <time>2022-07-27T13:20:40Z</time>
      </trkpt>
      <trkpt lat="45.6497" lon="6.55582">
        <ele>2079</ele>
        <time>2022-07-27T13:20:41Z</time>
      </trkpt>
      <trkpt lat="45.6497" lon="6.55581">
        <ele>2079</ele>
        <time>2022-07-27T13:20:42Z</time>
      </trkpt>
      <trkpt lat="45.6497" lon="6.5558">
        <ele>2079</ele>
        <time>2022-07-27T13:20:43Z</time>
      </trkpt>
      <trkpt lat="45.6497" lon="6.5558">
        <ele>2079</ele>
        <time>2022-07-27T13:20:44Z</time>
      </trkpt>
      <trkpt lat="45.6497" lon="6.55579">
        <ele>2079</ele>
        <time>2022-07-27T13:20:45Z</time>
      </trkpt>
      <trkpt lat="45.64969" lon="6.55578">
        <ele>2079</ele>
        <time>2022-07-27T13:20:46Z</time>
      </trkpt>
      <trkpt lat="45.64969" lon="6.55577">
        <ele>2079</ele>
        <time>2022-07-27T13:20:47Z</time>
      </trkpt>
      <trkpt lat="45.64968" lon="6.55576">
        <ele>2079</ele>
        <time>2022-07-27T13:20:48Z</time>
      </trkpt>
      <trkpt lat="45.64968" lon="6.55575">
        <ele>2079</ele>
        <time>2022-07-27T13:20:49Z</time>
      </trkpt>
      <trkpt lat="45.64967" lon="6.55574">
        <ele>2079</ele>
        <time>2022-07-27T13:20:50Z</time>
      </trkpt>
      <trkpt lat="45.64967" lon="6.55573">
        <ele>2079</ele>
        <time>2022-07-27T13:20:51Z</time>
      </trkpt>
      <trkpt lat="45.64967" lon="6.55573">
        <ele>2079</ele>
        <time>2022-07-27T13:20:52Z</time>
      </trkpt>
      <trkpt lat="45.64966" lon="6.55572">
        <ele>2079</ele>
        <time>2022-07-27T13:20:53Z</time>
      </trkpt>
      <trkpt lat="45.64966" lon="6.55571">
        <ele>2079</ele>
        <time>2022-07-27T13:20:54Z</time>
      </trkpt>
      <trkpt lat="45.64966" lon="6.55571">
        <ele>2079</ele>
        <time>2022-07-27T13:20:55Z</time>
      </trkpt>
      <trkpt lat="45.64966" lon="6.5557">
        <ele>2080</ele>
        <time>2022-07-27T13:20:56Z</time>
      </trkpt>
      <trkpt lat="45.64966" lon="6.55569">
        <ele>2080</ele>
        <time>2022-07-27T13:20:57Z</time>
      </trkpt>
      <trkpt lat="45.64967" lon="6.55568">
        <ele>2080</ele>
        <time>2022-07-27T13:20:58Z</time>
      </trkpt>
      <trkpt lat="45.64967" lon="6.55565">
        <ele>2082</ele>
        <time>2022-07-27T13:21:58Z</time>
      </trkpt>
      <trkpt lat="45.64968" lon="6.55563">
        <ele>2082</ele>
        <time>2022-07-27T13:21:59Z</time>
      </trkpt>
      <trkpt lat="45.64968" lon="6.55562">
        <ele>2082</ele>
        <time>2022-07-27T13:22:00Z</time>
      </trkpt>
      <trkpt lat="45.64968" lon="6.5556">
        <ele>2083</ele>
        <time>2022-07-27T13:22:01Z</time>
      </trkpt>
      <trkpt lat="45.64968" lon="6.55559">
        <ele>2083</ele>
        <time>2022-07-27T13:22:02Z</time>
      </trkpt>
      <trkpt lat="45.64968" lon="6.55556">
        <ele>2083</ele>
        <time>2022-07-27T13:23:21Z</time>
      </trkpt>
      <trkpt lat="45.64968" lon="6.55555">
        <ele>2083</ele>
        <time>2022-07-27T13:23:22Z</time>
      </trkpt>
      <trkpt lat="45.64969" lon="6.55553">
        <ele>2083</ele>
        <time>2022-07-27T13:23:23Z</time>
      </trkpt>
      <trkpt lat="45.64969" lon="6.55552">
        <ele>2083</ele>
        <time>2022-07-27T13:23:24Z</time>
      </trkpt>
      <trkpt lat="45.64968" lon="6.55551">
        <ele>2083</ele>
        <time>2022-07-27T13:23:25Z</time>
      </trkpt>
      <trkpt lat="45.64968" lon="6.55549">
        <ele>2084</ele>
        <time>2022-07-27T13:29:05Z</time>
      </trkpt>
      <trkpt lat="45.64968" lon="6.55548">
        <ele>2084</ele>
        <time>2022-07-27T13:29:06Z</time>
      </trkpt>
      <trkpt lat="45.64968" lon="6.55547">
        <ele>2084</ele>
        <time>2022-07-27T13:29:07Z</time>
      </trkpt>
      <trkpt lat="45.64968" lon="6.55546">
        <ele>2084</ele>
        <time>2022-07-27T13:29:08Z</time>
      </trkpt>
      <trkpt lat="45.64967" lon="6.55546">
        <ele>2084</ele>
        <time>2022-07-27T13:29:09Z</time>
      </trkpt>
      <trkpt lat="45.64967" lon="6.55545">
        <ele>2084</ele>
        <time>2022-07-27T13:29:10Z</time>
      </trkpt>
      <trkpt lat="45.64967" lon="6.55545">
        <ele>2084</ele>
        <time>2022-07-27T13:29:11Z</time>
      </trkpt>
      <trkpt lat="45.64966" lon="6.55544">
        <ele>2084</ele>
        <time>2022-07-27T13:29:12Z</time>
      </trkpt>
      <trkpt lat="45.64966" lon="6.55544">
        <ele>2084</ele>
        <time>2022-07-27T13:29:13Z</time>
      </trkpt>
      <trkpt lat="45.64966" lon="6.55544">
        <ele>2084</ele>
        <time>2022-07-27T13:29:14Z</time>
      </trkpt>
      <trkpt lat="45.64965" lon="6.55543">
        <ele>2084</ele>
        <time>2022-07-27T13:29:15Z</time>
      </trkpt>
      <trkpt lat="45.64965" lon="6.55543">
        <ele>2085</ele>
        <time>2022-07-27T13:29:16Z</time>
      </trkpt>
      <trkpt lat="45.64965" lon="6.55543">
        <ele>2085</ele>
        <time>2022-07-27T13:29:17Z</time>
      </trkpt>
      <trkpt lat="45.64965" lon="6.55543">
        <ele>2085</ele>
        <time>2022-07-27T13:29:18Z</time>
      </trkpt>
      <trkpt lat="45.64964" lon="6.55542">
        <ele>2085</ele>
        <time>2022-07-27T13:29:19Z</time>
      </trkpt>
      <trkpt lat="45.64963" lon="6.55541">
        <ele>2085</ele>
        <time>2022-07-27T13:29:20Z</time>
      </trkpt>
      <trkpt lat="45.64963" lon="6.5554">
        <ele>2085</ele>
        <time>2022-07-27T13:29:21Z</time>
      </trkpt>
      <trkpt lat="45.64963" lon="6.55539">
        <ele>2085</ele>
        <time>2022-07-27T13:29:22Z</time>
      </trkpt>
      <trkpt lat="45.64962" lon="6.55539">
        <ele>2085</ele>
        <time>2022-07-27T13:29:23Z</time>
      </trkpt>
      <trkpt lat="45.64962" lon="6.55538">
        <ele>2085</ele>
        <time>2022-07-27T13:29:24Z</time>
      </trkpt>
      <trkpt lat="45.64962" lon="6.55537">
        <ele>2085</ele>
        <time>2022-07-27T13:29:25Z</time>
      </trkpt>
      <trkpt lat="45.64961" lon="6.55536">
        <ele>2085</ele>
        <time>2022-07-27T13:29:26Z</time>
      </trkpt>
      <trkpt lat="45.64961" lon="6.55535">
        <ele>2085</ele>
        <time>2022-07-27T13:29:27Z</time>
      </trkpt>
      <trkpt lat="45.6496" lon="6.55534">
        <ele>2085</ele>
        <time>2022-07-27T13:29:28Z</time>
      </trkpt>
      <trkpt lat="45.64959" lon="6.55533">
        <ele>2086</ele>
        <time>2022-07-27T13:29:35Z</time>
      </trkpt>
      <trkpt lat="45.64959" lon="6.55533">
        <ele>2086</ele>
        <time>2022-07-27T13:29:36Z</time>
      </trkpt>
      <trkpt lat="45.64958" lon="6.55532">
        <ele>2086</ele>
        <time>2022-07-27T13:29:37Z</time>
      </trkpt>
      <trkpt lat="45.64958" lon="6.55532">
        <ele>2086</ele>
        <time>2022-07-27T13:29:38Z</time>
      </trkpt>
      <trkpt lat="45.64958" lon="6.55531">
        <ele>2086</ele>
        <time>2022-07-27T13:29:39Z</time>
      </trkpt>
      <trkpt lat="45.64957" lon="6.55531">
        <ele>2086</ele>
        <time>2022-07-27T13:29:40Z</time>
      </trkpt>
      <trkpt lat="45.64956" lon="6.5553">
        <ele>2087</ele>
        <time>2022-07-27T13:29:41Z</time>
      </trkpt>
      <trkpt lat="45.64956" lon="6.5553">
        <ele>2087</ele>
        <time>2022-07-27T13:29:42Z</time>
      </trkpt>
      <trkpt lat="45.64956" lon="6.55529">
        <ele>2087</ele>
        <time>2022-07-27T13:29:43Z</time>
      </trkpt>
      <trkpt lat="45.64955" lon="6.55528">
        <ele>2087</ele>
        <time>2022-07-27T13:29:44Z</time>
      </trkpt>
      <trkpt lat="45.64955" lon="6.55527">
        <ele>2087</ele>
        <time>2022-07-27T13:29:45Z</time>
      </trkpt>
      <trkpt lat="45.64954" lon="6.55526">
        <ele>2087</ele>
        <time>2022-07-27T13:29:46Z</time>
      </trkpt>
      <trkpt lat="45.64954" lon="6.55525">
        <ele>2087</ele>
        <time>2022-07-27T13:29:47Z</time>
      </trkpt>
      <trkpt lat="45.64953" lon="6.55524">
        <ele>2087</ele>
        <time>2022-07-27T13:29:48Z</time>
      </trkpt>
      <trkpt lat="45.64953" lon="6.55523">
        <ele>2087</ele>
        <time>2022-07-27T13:29:49Z</time>
      </trkpt>
      <trkpt lat="45.64952" lon="6.55522">
        <ele>2087</ele>
        <time>2022-07-27T13:29:50Z</time>
      </trkpt>
      <trkpt lat="45.64952" lon="6.55521">
        <ele>2088</ele>
        <time>2022-07-27T13:29:51Z</time>
      </trkpt>
      <trkpt lat="45.64952" lon="6.5552">
        <ele>2088</ele>
        <time>2022-07-27T13:29:52Z</time>
      </trkpt>
      <trkpt lat="45.64951" lon="6.5552">
        <ele>2088</ele>
        <time>2022-07-27T13:29:53Z</time>
      </trkpt>
      <trkpt lat="45.64951" lon="6.55519">
        <ele>2088</ele>
        <time>2022-07-27T13:29:54Z</time>
      </trkpt>
      <trkpt lat="45.6495" lon="6.55518">
        <ele>2088</ele>
        <time>2022-07-27T13:29:55Z</time>
      </trkpt>
      <trkpt lat="45.6495" lon="6.55517">
        <ele>2088</ele>
        <time>2022-07-27T13:29:56Z</time>
      </trkpt>
      <trkpt lat="45.64949" lon="6.55517">
        <ele>2088</ele>
        <time>2022-07-27T13:29:57Z</time>
      </trkpt>
      <trkpt lat="45.64949" lon="6.55516">
        <ele>2088</ele>
        <time>2022-07-27T13:29:58Z</time>
      </trkpt>
      <trkpt lat="45.64949" lon="6.55515">
        <ele>2088</ele>
        <time>2022-07-27T13:29:59Z</time>
      </trkpt>
      <trkpt lat="45.64948" lon="6.55515">
        <ele>2088</ele>
        <time>2022-07-27T13:30:00Z</time>
      </trkpt>
      <trkpt lat="45.64948" lon="6.55514">
        <ele>2089</ele>
        <time>2022-07-27T13:30:01Z</time>
      </trkpt>
      <trkpt lat="45.64947" lon="6.55514">
        <ele>2089</ele>
        <time>2022-07-27T13:30:02Z</time>
      </trkpt>
      <trkpt lat="45.64947" lon="6.55513">
        <ele>2089</ele>
        <time>2022-07-27T13:30:03Z</time>
      </trkpt>
      <trkpt lat="45.64946" lon="6.55513">
        <ele>2089</ele>
        <time>2022-07-27T13:30:04Z</time>
      </trkpt>
      <trkpt lat="45.64946" lon="6.55512">
        <ele>2089</ele>
        <time>2022-07-27T13:30:05Z</time>
      </trkpt>
      <trkpt lat="45.64945" lon="6.55511">
        <ele>2091</ele>
        <time>2022-07-27T13:30:49Z</time>
      </trkpt>
      <trkpt lat="45.64945" lon="6.5551">
        <ele>2091</ele>
        <time>2022-07-27T13:30:50Z</time>
      </trkpt>
      <trkpt lat="45.64944" lon="6.55509">
        <ele>2091</ele>
        <time>2022-07-27T13:30:51Z</time>
      </trkpt>
      <trkpt lat="45.64944" lon="6.55509">
        <ele>2091</ele>
        <time>2022-07-27T13:30:52Z</time>
      </trkpt>
      <trkpt lat="45.64943" lon="6.55508">
        <ele>2091</ele>
        <time>2022-07-27T13:30:53Z</time>
      </trkpt>
      <trkpt lat="45.64943" lon="6.55507">
        <ele>2091</ele>
        <time>2022-07-27T13:30:54Z</time>
      </trkpt>
      <trkpt lat="45.64943" lon="6.55505">
        <ele>2091</ele>
        <time>2022-07-27T13:30:55Z</time>
      </trkpt>
      <trkpt lat="45.64943" lon="6.55504">
        <ele>2091</ele>
        <time>2022-07-27T13:30:56Z</time>
      </trkpt>
      <trkpt lat="45.64942" lon="6.55503">
        <ele>2091</ele>
        <time>2022-07-27T13:30:57Z</time>
      </trkpt>
      <trkpt lat="45.64942" lon="6.55503">
        <ele>2091</ele>
        <time>2022-07-27T13:30:58Z</time>
      </trkpt>
      <trkpt lat="45.64942" lon="6.55502">
        <ele>2091</ele>
        <time>2022-07-27T13:30:59Z</time>
      </trkpt>
      <trkpt lat="45.64941" lon="6.55501">
        <ele>2091</ele>
        <time>2022-07-27T13:31:00Z</time>
      </trkpt>
      <trkpt lat="45.64941" lon="6.555">
        <ele>2091</ele>
        <time>2022-07-27T13:31:01Z</time>
      </trkpt>
      <trkpt lat="45.6494" lon="6.55499">
        <ele>2091</ele>
        <time>2022-07-27T13:31:02Z</time>
      </trkpt>
      <trkpt lat="45.6494" lon="6.55499">
        <ele>2091</ele>
        <time>2022-07-27T13:31:03Z</time>
      </trkpt>
      <trkpt lat="45.64939" lon="6.55498">
        <ele>2091</ele>
        <time>2022-07-27T13:31:04Z</time>
      </trkpt>
      <trkpt lat="45.64939" lon="6.55497">
        <ele>2091</ele>
        <time>2022-07-27T13:31:05Z</time>
      </trkpt>
      <trkpt lat="45.64938" lon="6.55496">
        <ele>2091</ele>
        <time>2022-07-27T13:31:06Z</time>
      </trkpt>
      <trkpt lat="45.64938" lon="6.55495">
        <ele>2091</ele>
        <time>2022-07-27T13:31:07Z</time>
      </trkpt>
      <trkpt lat="45.64937" lon="6.55494">
        <ele>2091</ele>
        <time>2022-07-27T13:31:08Z</time>
      </trkpt>
      <trkpt lat="45.64937" lon="6.55493">
        <ele>2091</ele>
        <time>2022-07-27T13:31:09Z</time>
      </trkpt>
      <trkpt lat="45.64936" lon="6.55493">
        <ele>2091</ele>
        <time>2022-07-27T13:31:10Z</time>
      </trkpt>
      <trkpt lat="45.64936" lon="6.55492">
        <ele>2091</ele>
        <time>2022-07-27T13:31:11Z</time>
      </trkpt>
      <trkpt lat="45.64935" lon="6.55491">
        <ele>2090</ele>
        <time>2022-07-27T13:31:12Z</time>
      </trkpt>
      <trkpt lat="45.64934" lon="6.5549">
        <ele>2090</ele>
        <time>2022-07-27T13:31:13Z</time>
      </trkpt>
      <trkpt lat="45.64934" lon="6.5549">
        <ele>2090</ele>
        <time>2022-07-27T13:31:14Z</time>
      </trkpt>
      <trkpt lat="45.64933" lon="6.55489">
        <ele>2090</ele>
        <time>2022-07-27T13:31:15Z</time>
      </trkpt>
      <trkpt lat="45.64932" lon="6.55489">
        <ele>2090</ele>
        <time>2022-07-27T13:31:16Z</time>
      </trkpt>
      <trkpt lat="45.64932" lon="6.55489">
        <ele>2090</ele>
        <time>2022-07-27T13:31:17Z</time>
      </trkpt>
      <trkpt lat="45.64931" lon="6.55489">
        <ele>2090</ele>
        <time>2022-07-27T13:31:18Z</time>
      </trkpt>
      <trkpt lat="45.64931" lon="6.55488">
        <ele>2090</ele>
        <time>2022-07-27T13:31:19Z</time>
      </trkpt>
      <trkpt lat="45.6493" lon="6.55488">
        <ele>2090</ele>
        <time>2022-07-27T13:31:20Z</time>
      </trkpt>
      <trkpt lat="45.6493" lon="6.55488">
        <ele>2090</ele>
        <time>2022-07-27T13:31:21Z</time>
      </trkpt>
      <trkpt lat="45.64929" lon="6.55488">
        <ele>2089</ele>
        <time>2022-07-27T13:31:22Z</time>
      </trkpt>
      <trkpt lat="45.64929" lon="6.55488">
        <ele>2089</ele>
        <time>2022-07-27T13:31:23Z</time>
      </trkpt>
      <trkpt lat="45.64928" lon="6.55487">
        <ele>2089</ele>
        <time>2022-07-27T13:31:24Z</time>
      </trkpt>
      <trkpt lat="45.64928" lon="6.55487">
        <ele>2089</ele>
        <time>2022-07-27T13:31:25Z</time>
      </trkpt>
      <trkpt lat="45.64927" lon="6.55487">
        <ele>2089</ele>
        <time>2022-07-27T13:31:26Z</time>
      </trkpt>
      <trkpt lat="45.64927" lon="6.55487">
        <ele>2089</ele>
        <time>2022-07-27T13:31:27Z</time>
      </trkpt>
      <trkpt lat="45.64926" lon="6.55487">
        <ele>2089</ele>
        <time>2022-07-27T13:31:28Z</time>
      </trkpt>
      <trkpt lat="45.64926" lon="6.55486">
        <ele>2089</ele>
        <time>2022-07-27T13:31:29Z</time>
      </trkpt>
      <trkpt lat="45.64925" lon="6.55486">
        <ele>2089</ele>
        <time>2022-07-27T13:31:30Z</time>
      </trkpt>
      <trkpt lat="45.64924" lon="6.55486">
        <ele>2089</ele>
        <time>2022-07-27T13:31:31Z</time>
      </trkpt>
      <trkpt lat="45.64924" lon="6.55486">
        <ele>2088</ele>
        <time>2022-07-27T13:31:32Z</time>
      </trkpt>
      <trkpt lat="45.64923" lon="6.55485">
        <ele>2088</ele>
        <time>2022-07-27T13:31:33Z</time>
      </trkpt>
      <trkpt lat="45.64923" lon="6.55485">
        <ele>2088</ele>
        <time>2022-07-27T13:31:34Z</time>
      </trkpt>
      <trkpt lat="45.64922" lon="6.55485">
        <ele>2088</ele>
        <time>2022-07-27T13:31:35Z</time>
      </trkpt>
      <trkpt lat="45.64922" lon="6.55485">
        <ele>2088</ele>
        <time>2022-07-27T13:31:36Z</time>
      </trkpt>
      <trkpt lat="45.64921" lon="6.55485">
        <ele>2087</ele>
        <time>2022-07-27T13:31:37Z</time>
      </trkpt>
      <trkpt lat="45.64921" lon="6.55485">
        <ele>2087</ele>
        <time>2022-07-27T13:31:38Z</time>
      </trkpt>
      <trkpt lat="45.6492" lon="6.55485">
        <ele>2087</ele>
        <time>2022-07-27T13:31:39Z</time>
      </trkpt>
      <trkpt lat="45.6492" lon="6.55484">
        <ele>2087</ele>
        <time>2022-07-27T13:31:40Z</time>
      </trkpt>
      <trkpt lat="45.64919" lon="6.55484">
        <ele>2087</ele>
        <time>2022-07-27T13:31:41Z</time>
      </trkpt>
      <trkpt lat="45.64918" lon="6.55484">
        <ele>2087</ele>
        <time>2022-07-27T13:31:42Z</time>
      </trkpt>
      <trkpt lat="45.64918" lon="6.55484">
        <ele>2087</ele>
        <time>2022-07-27T13:31:43Z</time>
      </trkpt>
      <trkpt lat="45.64917" lon="6.55483">
        <ele>2087</ele>
        <time>2022-07-27T13:31:44Z</time>
      </trkpt>
      <trkpt lat="45.64917" lon="6.55483">
        <ele>2087</ele>
        <time>2022-07-27T13:31:45Z</time>
      </trkpt>
      <trkpt lat="45.64916" lon="6.55483">
        <ele>2087</ele>
        <time>2022-07-27T13:31:46Z</time>
      </trkpt>
      <trkpt lat="45.64916" lon="6.55482">
        <ele>2086</ele>
        <time>2022-07-27T13:31:47Z</time>
      </trkpt>
      <trkpt lat="45.64915" lon="6.55482">
        <ele>2086</ele>
        <time>2022-07-27T13:31:48Z</time>
      </trkpt>
      <trkpt lat="45.64915" lon="6.55481">
        <ele>2086</ele>
        <time>2022-07-27T13:31:49Z</time>
      </trkpt>
      <trkpt lat="45.64914" lon="6.55481">
        <ele>2086</ele>
        <time>2022-07-27T13:31:50Z</time>
      </trkpt>
      <trkpt lat="45.64913" lon="6.5548">
        <ele>2086</ele>
        <time>2022-07-27T13:31:51Z</time>
      </trkpt>
      <trkpt lat="45.64913" lon="6.5548">
        <ele>2085</ele>
        <time>2022-07-27T13:31:52Z</time>
      </trkpt>
      <trkpt lat="45.64912" lon="6.55479">
        <ele>2085</ele>
        <time>2022-07-27T13:31:53Z</time>
      </trkpt>
      <trkpt lat="45.64911" lon="6.55479">
        <ele>2085</ele>
        <time>2022-07-27T13:31:54Z</time>
      </trkpt>
      <trkpt lat="45.6491" lon="6.55478">
        <ele>2085</ele>
        <time>2022-07-27T13:31:55Z</time>
      </trkpt>
      <trkpt lat="45.64909" lon="6.55478">
        <ele>2085</ele>
        <time>2022-07-27T13:31:56Z</time>
      </trkpt>
      <trkpt lat="45.64909" lon="6.55478">
        <ele>2085</ele>
        <time>2022-07-27T13:31:57Z</time>
      </trkpt>
      <trkpt lat="45.64908" lon="6.55477">
        <ele>2085</ele>
        <time>2022-07-27T13:31:58Z</time>
      </trkpt>
      <trkpt lat="45.64907" lon="6.55476">
        <ele>2085</ele>
        <time>2022-07-27T13:31:59Z</time>
      </trkpt>
      <trkpt lat="45.64906" lon="6.55475">
        <ele>2085</ele>
        <time>2022-07-27T13:32:00Z</time>
      </trkpt>
      <trkpt lat="45.64905" lon="6.55475">
        <ele>2085</ele>
        <time>2022-07-27T13:32:01Z</time>
      </trkpt>
      <trkpt lat="45.64905" lon="6.55474">
        <ele>2084</ele>
        <time>2022-07-27T13:32:02Z</time>
      </trkpt>
      <trkpt lat="45.64904" lon="6.55473">
        <ele>2084</ele>
        <time>2022-07-27T13:32:03Z</time>
      </trkpt>
      <trkpt lat="45.64903" lon="6.55471">
        <ele>2084</ele>
        <time>2022-07-27T13:32:04Z</time>
      </trkpt>
      <trkpt lat="45.64903" lon="6.5547">
        <ele>2084</ele>
        <time>2022-07-27T13:32:05Z</time>
      </trkpt>
      <trkpt lat="45.64902" lon="6.55469">
        <ele>2084</ele>
        <time>2022-07-27T13:32:06Z</time>
      </trkpt>
      <trkpt lat="45.64901" lon="6.55468">
        <ele>2083</ele>
        <time>2022-07-27T13:32:07Z</time>
      </trkpt>
      <trkpt lat="45.64901" lon="6.55467">
        <ele>2083</ele>
        <time>2022-07-27T13:32:08Z</time>
      </trkpt>
      <trkpt lat="45.649" lon="6.55466">
        <ele>2083</ele>
        <time>2022-07-27T13:32:09Z</time>
      </trkpt>
      <trkpt lat="45.649" lon="6.55466">
        <ele>2083</ele>
        <time>2022-07-27T13:32:10Z</time>
      </trkpt>
      <trkpt lat="45.64899" lon="6.55465">
        <ele>2083</ele>
        <time>2022-07-27T13:32:11Z</time>
      </trkpt>
      <trkpt lat="45.64899" lon="6.55464">
        <ele>2082</ele>
        <time>2022-07-27T13:32:12Z</time>
      </trkpt>
      <trkpt lat="45.64898" lon="6.55464">
        <ele>2082</ele>
        <time>2022-07-27T13:32:13Z</time>
      </trkpt>
      <trkpt lat="45.64898" lon="6.55463">
        <ele>2082</ele>
        <time>2022-07-27T13:32:14Z</time>
      </trkpt>
      <trkpt lat="45.64897" lon="6.55463">
        <ele>2082</ele>
        <time>2022-07-27T13:32:15Z</time>
      </trkpt>
      <trkpt lat="45.64896" lon="6.55463">
        <ele>2082</ele>
        <time>2022-07-27T13:32:16Z</time>
      </trkpt>
      <trkpt lat="45.64896" lon="6.55462">
        <ele>2082</ele>
        <time>2022-07-27T13:32:17Z</time>
      </trkpt>
      <trkpt lat="45.64895" lon="6.55462">
        <ele>2082</ele>
        <time>2022-07-27T13:32:18Z</time>
      </trkpt>
      <trkpt lat="45.64895" lon="6.55462">
        <ele>2082</ele>
        <time>2022-07-27T13:32:19Z</time>
      </trkpt>
      <trkpt lat="45.64895" lon="6.55462">
        <ele>2082</ele>
        <time>2022-07-27T13:32:20Z</time>
      </trkpt>
      <trkpt lat="45.64895" lon="6.55461">
        <ele>2082</ele>
        <time>2022-07-27T13:32:21Z</time>
      </trkpt>
      <trkpt lat="45.64894" lon="6.55461">
        <ele>2081</ele>
        <time>2022-07-27T13:32:22Z</time>
      </trkpt>
      <trkpt lat="45.64894" lon="6.55461">
        <ele>2081</ele>
        <time>2022-07-27T13:32:23Z</time>
      </trkpt>
      <trkpt lat="45.64894" lon="6.55461">
        <ele>2081</ele>
        <time>2022-07-27T13:32:24Z</time>
      </trkpt>
      <trkpt lat="45.64893" lon="6.5546">
        <ele>2081</ele>
        <time>2022-07-27T13:32:25Z</time>
      </trkpt>
      <trkpt lat="45.64893" lon="6.5546">
        <ele>2081</ele>
        <time>2022-07-27T13:32:26Z</time>
      </trkpt>
      <trkpt lat="45.64892" lon="6.55459">
        <ele>2080</ele>
        <time>2022-07-27T13:32:27Z</time>
      </trkpt>
      <trkpt lat="45.64891" lon="6.55458">
        <ele>2080</ele>
        <time>2022-07-27T13:32:28Z</time>
      </trkpt>
      <trkpt lat="45.64891" lon="6.55458">
        <ele>2080</ele>
        <time>2022-07-27T13:32:29Z</time>
      </trkpt>
      <trkpt lat="45.6489" lon="6.55456">
        <ele>2080</ele>
        <time>2022-07-27T13:32:30Z</time>
      </trkpt>
      <trkpt lat="45.64889" lon="6.55455">
        <ele>2080</ele>
        <time>2022-07-27T13:32:31Z</time>
      </trkpt>
      <trkpt lat="45.64888" lon="6.55454">
        <ele>2079</ele>
        <time>2022-07-27T13:32:32Z</time>
      </trkpt>
      <trkpt lat="45.64887" lon="6.55453">
        <ele>2079</ele>
        <time>2022-07-27T13:32:33Z</time>
      </trkpt>
      <trkpt lat="45.64887" lon="6.55452">
        <ele>2079</ele>
        <time>2022-07-27T13:32:34Z</time>
      </trkpt>
      <trkpt lat="45.64887" lon="6.55451">
        <ele>2079</ele>
        <time>2022-07-27T13:32:35Z</time>
      </trkpt>
      <trkpt lat="45.64886" lon="6.55447">
        <ele>2078</ele>
        <time>2022-07-27T13:33:00Z</time>
      </trkpt>
      <trkpt lat="45.64886" lon="6.55445">
        <ele>2078</ele>
        <time>2022-07-27T13:33:01Z</time>
      </trkpt>
      <trkpt lat="45.64885" lon="6.55443">
        <ele>2077</ele>
        <time>2022-07-27T13:33:02Z</time>
      </trkpt>
      <trkpt lat="45.64885" lon="6.55442">
        <ele>2077</ele>
        <time>2022-07-27T13:33:03Z</time>
      </trkpt>
      <trkpt lat="45.64885" lon="6.55441">
        <ele>2077</ele>
        <time>2022-07-27T13:33:04Z</time>
      </trkpt>
      <trkpt lat="45.64884" lon="6.5544">
        <ele>2077</ele>
        <time>2022-07-27T13:33:05Z</time>
      </trkpt>
      <trkpt lat="45.64884" lon="6.55439">
        <ele>2077</ele>
        <time>2022-07-27T13:33:06Z</time>
      </trkpt>
      <trkpt lat="45.64884" lon="6.55438">
        <ele>2076</ele>
        <time>2022-07-27T13:33:07Z</time>
      </trkpt>
      <trkpt lat="45.64883" lon="6.55437">
        <ele>2076</ele>
        <time>2022-07-27T13:33:08Z</time>
      </trkpt>
      <trkpt lat="45.64883" lon="6.55435">
        <ele>2076</ele>
        <time>2022-07-27T13:33:09Z</time>
      </trkpt>
      <trkpt lat="45.64882" lon="6.55434">
        <ele>2076</ele>
        <time>2022-07-27T13:33:10Z</time>
      </trkpt>
      <trkpt lat="45.64882" lon="6.55432">
        <ele>2075</ele>
        <time>2022-07-27T13:33:36Z</time>
      </trkpt>
      <trkpt lat="45.64881" lon="6.55431">
        <ele>2075</ele>
        <time>2022-07-27T13:33:37Z</time>
      </trkpt>
      <trkpt lat="45.64881" lon="6.5543">
        <ele>2075</ele>
        <time>2022-07-27T13:33:38Z</time>
      </trkpt>
      <trkpt lat="45.64881" lon="6.55429">
        <ele>2075</ele>
        <time>2022-07-27T13:33:39Z</time>
      </trkpt>
      <trkpt lat="45.6488" lon="6.55428">
        <ele>2075</ele>
        <time>2022-07-27T13:33:40Z</time>
      </trkpt>
      <trkpt lat="45.6488" lon="6.55427">
        <ele>2075</ele>
        <time>2022-07-27T13:33:41Z</time>
      </trkpt>
      <trkpt lat="45.64879" lon="6.55425">
        <ele>2075</ele>
        <time>2022-07-27T13:33:42Z</time>
      </trkpt>
      <trkpt lat="45.64878" lon="6.55423">
        <ele>2075</ele>
        <time>2022-07-27T13:33:43Z</time>
      </trkpt>
      <trkpt lat="45.64877" lon="6.55421">
        <ele>2075</ele>
        <time>2022-07-27T13:33:44Z</time>
      </trkpt>
      <trkpt lat="45.64876" lon="6.55419">
        <ele>2075</ele>
        <time>2022-07-27T13:33:45Z</time>
      </trkpt>
      <trkpt lat="45.64875" lon="6.55417">
        <ele>2075</ele>
        <time>2022-07-27T13:33:46Z</time>
      </trkpt>
      <trkpt lat="45.64874" lon="6.55415">
        <ele>2074</ele>
        <time>2022-07-27T13:33:47Z</time>
      </trkpt>
      <trkpt lat="45.64874" lon="6.55414">
        <ele>2074</ele>
        <time>2022-07-27T13:33:48Z</time>
      </trkpt>
      <trkpt lat="45.64873" lon="6.55412">
        <ele>2074</ele>
        <time>2022-07-27T13:33:49Z</time>
      </trkpt>
      <trkpt lat="45.64873" lon="6.5541">
        <ele>2074</ele>
        <time>2022-07-27T13:33:50Z</time>
      </trkpt>
      <trkpt lat="45.64872" lon="6.55409">
        <ele>2074</ele>
        <time>2022-07-27T13:33:51Z</time>
      </trkpt>
      <trkpt lat="45.64872" lon="6.55407">
        <ele>2073</ele>
        <time>2022-07-27T13:33:52Z</time>
      </trkpt>
      <trkpt lat="45.64871" lon="6.55406">
        <ele>2073</ele>
        <time>2022-07-27T13:33:53Z</time>
      </trkpt>
      <trkpt lat="45.64871" lon="6.55405">
        <ele>2073</ele>
        <time>2022-07-27T13:33:54Z</time>
      </trkpt>
      <trkpt lat="45.6487" lon="6.55404">
        <ele>2073</ele>
        <time>2022-07-27T13:33:55Z</time>
      </trkpt>
      <trkpt lat="45.64869" lon="6.55403">
        <ele>2073</ele>
        <time>2022-07-27T13:33:56Z</time>
      </trkpt>
      <trkpt lat="45.64868" lon="6.55402">
        <ele>2072</ele>
        <time>2022-07-27T13:33:57Z</time>
      </trkpt>
      <trkpt lat="45.64867" lon="6.55402">
        <ele>2072</ele>
        <time>2022-07-27T13:33:58Z</time>
      </trkpt>
      <trkpt lat="45.64866" lon="6.55401">
        <ele>2071</ele>
        <time>2022-07-27T13:33:59Z</time>
      </trkpt>
      <trkpt lat="45.64865" lon="6.55401">
        <ele>2071</ele>
        <time>2022-07-27T13:34:00Z</time>
      </trkpt>
      <trkpt lat="45.64864" lon="6.554">
        <ele>2071</ele>
        <time>2022-07-27T13:34:01Z</time>
      </trkpt>
      <trkpt lat="45.64863" lon="6.554">
        <ele>2070</ele>
        <time>2022-07-27T13:34:02Z</time>
      </trkpt>
      <trkpt lat="45.64862" lon="6.554">
        <ele>2070</ele>
        <time>2022-07-27T13:34:03Z</time>
      </trkpt>
      <trkpt lat="45.64861" lon="6.554">
        <ele>2070</ele>
        <time>2022-07-27T13:34:04Z</time>
      </trkpt>
      <trkpt lat="45.6486" lon="6.554">
        <ele>2070</ele>
        <time>2022-07-27T13:34:05Z</time>
      </trkpt>
      <trkpt lat="45.64859" lon="6.554">
        <ele>2070</ele>
        <time>2022-07-27T13:34:06Z</time>
      </trkpt>
      <trkpt lat="45.64858" lon="6.55399">
        <ele>2069</ele>
        <time>2022-07-27T13:34:07Z</time>
      </trkpt>
      <trkpt lat="45.64857" lon="6.55399">
        <ele>2069</ele>
        <time>2022-07-27T13:34:08Z</time>
      </trkpt>
      <trkpt lat="45.64857" lon="6.55399">
        <ele>2069</ele>
        <time>2022-07-27T13:34:09Z</time>
      </trkpt>
      <trkpt lat="45.64856" lon="6.55398">
        <ele>2069</ele>
        <time>2022-07-27T13:34:10Z</time>
      </trkpt>
      <trkpt lat="45.64855" lon="6.55398">
        <ele>2069</ele>
        <time>2022-07-27T13:34:11Z</time>
      </trkpt>
      <trkpt lat="45.64854" lon="6.55397">
        <ele>2068</ele>
        <time>2022-07-27T13:34:12Z</time>
      </trkpt>
      <trkpt lat="45.64853" lon="6.55395">
        <ele>2064</ele>
        <time>2022-07-27T13:34:29Z</time>
      </trkpt>
      <trkpt lat="45.64852" lon="6.55393">
        <ele>2064</ele>
        <time>2022-07-27T13:34:30Z</time>
      </trkpt>
      <trkpt lat="45.64852" lon="6.55392">
        <ele>2064</ele>
        <time>2022-07-27T13:34:31Z</time>
      </trkpt>
      <trkpt lat="45.64849" lon="6.5539">
        <ele>2061</ele>
        <time>2022-07-27T13:35:39Z</time>
      </trkpt>
      <trkpt lat="45.64847" lon="6.55389">
        <ele>2061</ele>
        <time>2022-07-27T13:35:40Z</time>
      </trkpt>
      <trkpt lat="45.64845" lon="6.55388">
        <ele>2061</ele>
        <time>2022-07-27T13:35:41Z</time>
      </trkpt>
      <trkpt lat="45.64844" lon="6.55388">
        <ele>2060</ele>
        <time>2022-07-27T13:35:42Z</time>
      </trkpt>
      <trkpt lat="45.64843" lon="6.55388">
        <ele>2060</ele>
        <time>2022-07-27T13:35:43Z</time>
      </trkpt>
      <trkpt lat="45.64842" lon="6.55387">
        <ele>2060</ele>
        <time>2022-07-27T13:35:44Z</time>
      </trkpt>
      <trkpt lat="45.64841" lon="6.55387">
        <ele>2060</ele>
        <time>2022-07-27T13:35:45Z</time>
      </trkpt>
      <trkpt lat="45.6484" lon="6.55387">
        <ele>2060</ele>
        <time>2022-07-27T13:35:46Z</time>
      </trkpt>
      <trkpt lat="45.64839" lon="6.55386">
        <ele>2059</ele>
        <time>2022-07-27T13:35:47Z</time>
      </trkpt>
      <trkpt lat="45.64838" lon="6.55386">
        <ele>2059</ele>
        <time>2022-07-27T13:35:48Z</time>
      </trkpt>
      <trkpt lat="45.64836" lon="6.55385">
        <ele>2058</ele>
        <time>2022-07-27T13:35:49Z</time>
      </trkpt>
      <trkpt lat="45.64835" lon="6.55385">
        <ele>2058</ele>
        <time>2022-07-27T13:35:50Z</time>
      </trkpt>
      <trkpt lat="45.64833" lon="6.55384">
        <ele>2058</ele>
        <time>2022-07-27T13:35:51Z</time>
      </trkpt>
      <trkpt lat="45.64831" lon="6.55384">
        <ele>2057</ele>
        <time>2022-07-27T13:35:52Z</time>
      </trkpt>
      <trkpt lat="45.6483" lon="6.55384">
        <ele>2057</ele>
        <time>2022-07-27T13:35:53Z</time>
      </trkpt>
      <trkpt lat="45.64828" lon="6.55384">
        <ele>2057</ele>
        <time>2022-07-27T13:35:54Z</time>
      </trkpt>
      <trkpt lat="45.64826" lon="6.55385">
        <ele>2057</ele>
        <time>2022-07-27T13:35:55Z</time>
      </trkpt>
      <trkpt lat="45.64825" lon="6.55385">
        <ele>2057</ele>
        <time>2022-07-27T13:35:56Z</time>
      </trkpt>
      <trkpt lat="45.64824" lon="6.55385">
        <ele>2056</ele>
        <time>2022-07-27T13:35:57Z</time>
      </trkpt>
      <trkpt lat="45.64823" lon="6.55386">
        <ele>2056</ele>
        <time>2022-07-27T13:35:58Z</time>
      </trkpt>
      <trkpt lat="45.64822" lon="6.55386">
        <ele>2056</ele>
        <time>2022-07-27T13:35:59Z</time>
      </trkpt>
      <trkpt lat="45.64821" lon="6.55386">
        <ele>2056</ele>
        <time>2022-07-27T13:36:00Z</time>
      </trkpt>
      <trkpt lat="45.64821" lon="6.55386">
        <ele>2056</ele>
        <time>2022-07-27T13:36:01Z</time>
      </trkpt>
      <trkpt lat="45.6482" lon="6.55386">
        <ele>2055</ele>
        <time>2022-07-27T13:36:02Z</time>
      </trkpt>
      <trkpt lat="45.64819" lon="6.55385">
        <ele>2055</ele>
        <time>2022-07-27T13:36:03Z</time>
      </trkpt>
      <trkpt lat="45.64819" lon="6.55385">
        <ele>2055</ele>
        <time>2022-07-27T13:36:04Z</time>
      </trkpt>
      <trkpt lat="45.64819" lon="6.55384">
        <ele>2055</ele>
        <time>2022-07-27T13:36:05Z</time>
      </trkpt>
      <trkpt lat="45.64818" lon="6.55384">
        <ele>2055</ele>
        <time>2022-07-27T13:36:06Z</time>
      </trkpt>
      <trkpt lat="45.64818" lon="6.55383">
        <ele>2054</ele>
        <time>2022-07-27T13:36:07Z</time>
      </trkpt>
      <trkpt lat="45.64818" lon="6.55382">
        <ele>2054</ele>
        <time>2022-07-27T13:36:08Z</time>
      </trkpt>
      <trkpt lat="45.64817" lon="6.55381">
        <ele>2053</ele>
        <time>2022-07-27T13:36:09Z</time>
      </trkpt>
      <trkpt lat="45.64817" lon="6.5538">
        <ele>2053</ele>
        <time>2022-07-27T13:36:10Z</time>
      </trkpt>
      <trkpt lat="45.64815" lon="6.55378">
        <ele>2050</ele>
        <time>2022-07-27T13:36:44Z</time>
      </trkpt>
      <trkpt lat="45.64815" lon="6.55378">
        <ele>2050</ele>
        <time>2022-07-27T13:36:45Z</time>
      </trkpt>
      <trkpt lat="45.64814" lon="6.55377">
        <ele>2050</ele>
        <time>2022-07-27T13:36:46Z</time>
      </trkpt>
      <trkpt lat="45.64813" lon="6.55377">
        <ele>2049</ele>
        <time>2022-07-27T13:36:47Z</time>
      </trkpt>
      <trkpt lat="45.64813" lon="6.55377">
        <ele>2049</ele>
        <time>2022-07-27T13:36:48Z</time>
      </trkpt>
      <trkpt lat="45.64812" lon="6.55376">
        <ele>2049</ele>
        <time>2022-07-27T13:36:49Z</time>
      </trkpt>
      <trkpt lat="45.64811" lon="6.55376">
        <ele>2049</ele>
        <time>2022-07-27T13:36:50Z</time>
      </trkpt>
      <trkpt lat="45.6481" lon="6.55375">
        <ele>2049</ele>
        <time>2022-07-27T13:36:51Z</time>
      </trkpt>
      <trkpt lat="45.64809" lon="6.55374">
        <ele>2049</ele>
        <time>2022-07-27T13:36:52Z</time>
      </trkpt>
      <trkpt lat="45.64808" lon="6.55373">
        <ele>2049</ele>
        <time>2022-07-27T13:36:53Z</time>
      </trkpt>
      <trkpt lat="45.64807" lon="6.55372">
        <ele>2049</ele>
        <time>2022-07-27T13:36:54Z</time>
      </trkpt>
      <trkpt lat="45.64806" lon="6.55371">
        <ele>2049</ele>
        <time>2022-07-27T13:36:55Z</time>
      </trkpt>
      <trkpt lat="45.64805" lon="6.5537">
        <ele>2049</ele>
        <time>2022-07-27T13:36:56Z</time>
      </trkpt>
      <trkpt lat="45.64804" lon="6.55369">
        <ele>2048</ele>
        <time>2022-07-27T13:36:57Z</time>
      </trkpt>
      <trkpt lat="45.64803" lon="6.55367">
        <ele>2048</ele>
        <time>2022-07-27T13:36:58Z</time>
      </trkpt>
      <trkpt lat="45.64802" lon="6.55366">
        <ele>2048</ele>
        <time>2022-07-27T13:36:59Z</time>
      </trkpt>
      <trkpt lat="45.64801" lon="6.55365">
        <ele>2048</ele>
        <time>2022-07-27T13:37:00Z</time>
      </trkpt>
      <trkpt lat="45.64801" lon="6.55364">
        <ele>2048</ele>
        <time>2022-07-27T13:37:01Z</time>
      </trkpt>
      <trkpt lat="45.648" lon="6.55363">
        <ele>2047</ele>
        <time>2022-07-27T13:37:02Z</time>
      </trkpt>
      <trkpt lat="45.64799" lon="6.55363">
        <ele>2047</ele>
        <time>2022-07-27T13:37:03Z</time>
      </trkpt>
      <trkpt lat="45.64799" lon="6.55362">
        <ele>2047</ele>
        <time>2022-07-27T13:37:04Z</time>
      </trkpt>
      <trkpt lat="45.64799" lon="6.55362">
        <ele>2047</ele>
        <time>2022-07-27T13:37:05Z</time>
      </trkpt>
      <trkpt lat="45.64798" lon="6.55361">
        <ele>2047</ele>
        <time>2022-07-27T13:37:06Z</time>
      </trkpt>
      <trkpt lat="45.64797" lon="6.5536">
        <ele>2046</ele>
        <time>2022-07-27T13:37:07Z</time>
      </trkpt>
      <trkpt lat="45.64797" lon="6.55359">
        <ele>2046</ele>
        <time>2022-07-27T13:37:08Z</time>
      </trkpt>
      <trkpt lat="45.64796" lon="6.55359">
        <ele>2046</ele>
        <time>2022-07-27T13:37:09Z</time>
      </trkpt>
      <trkpt lat="45.64795" lon="6.55358">
        <ele>2046</ele>
        <time>2022-07-27T13:37:10Z</time>
      </trkpt>
      <trkpt lat="45.64795" lon="6.55358">
        <ele>2046</ele>
        <time>2022-07-27T13:37:11Z</time>
      </trkpt>
      <trkpt lat="45.64794" lon="6.55357">
        <ele>2045</ele>
        <time>2022-07-27T13:37:12Z</time>
      </trkpt>
      <trkpt lat="45.64793" lon="6.55356">
        <ele>2045</ele>
        <time>2022-07-27T13:37:13Z</time>
      </trkpt>
      <trkpt lat="45.64792" lon="6.55356">
        <ele>2045</ele>
        <time>2022-07-27T13:37:14Z</time>
      </trkpt>
      <trkpt lat="45.64791" lon="6.55355">
        <ele>2045</ele>
        <time>2022-07-27T13:37:15Z</time>
      </trkpt>
      <trkpt lat="45.64791" lon="6.55354">
        <ele>2045</ele>
        <time>2022-07-27T13:37:16Z</time>
      </trkpt>
      <trkpt lat="45.6479" lon="6.55354">
        <ele>2044</ele>
        <time>2022-07-27T13:37:17Z</time>
      </trkpt>
      <trkpt lat="45.64789" lon="6.55353">
        <ele>2044</ele>
        <time>2022-07-27T13:37:18Z</time>
      </trkpt>
      <trkpt lat="45.64789" lon="6.55352">
        <ele>2044</ele>
        <time>2022-07-27T13:37:19Z</time>
      </trkpt>
      <trkpt lat="45.64788" lon="6.55352">
        <ele>2044</ele>
        <time>2022-07-27T13:37:20Z</time>
      </trkpt>
      <trkpt lat="45.64788" lon="6.55352">
        <ele>2044</ele>
        <time>2022-07-27T13:37:21Z</time>
      </trkpt>
      <trkpt lat="45.64787" lon="6.55351">
        <ele>2043</ele>
        <time>2022-07-27T13:37:22Z</time>
      </trkpt>
      <trkpt lat="45.64787" lon="6.55351">
        <ele>2043</ele>
        <time>2022-07-27T13:37:23Z</time>
      </trkpt>
      <trkpt lat="45.64786" lon="6.5535">
        <ele>2043</ele>
        <time>2022-07-27T13:37:24Z</time>
      </trkpt>
      <trkpt lat="45.64785" lon="6.55349">
        <ele>2043</ele>
        <time>2022-07-27T13:37:25Z</time>
      </trkpt>
      <trkpt lat="45.64785" lon="6.55348">
        <ele>2043</ele>
        <time>2022-07-27T13:37:26Z</time>
      </trkpt>
      <trkpt lat="45.64784" lon="6.55347">
        <ele>2042</ele>
        <time>2022-07-27T13:37:27Z</time>
      </trkpt>
      <trkpt lat="45.64784" lon="6.55346">
        <ele>2042</ele>
        <time>2022-07-27T13:37:28Z</time>
      </trkpt>
      <trkpt lat="45.64783" lon="6.55345">
        <ele>2042</ele>
        <time>2022-07-27T13:37:29Z</time>
      </trkpt>
      <trkpt lat="45.64783" lon="6.55344">
        <ele>2042</ele>
        <time>2022-07-27T13:37:30Z</time>
      </trkpt>
      <trkpt lat="45.64782" lon="6.55343">
        <ele>2042</ele>
        <time>2022-07-27T13:37:31Z</time>
      </trkpt>
      <trkpt lat="45.64781" lon="6.55342">
        <ele>2041</ele>
        <time>2022-07-27T13:37:32Z</time>
      </trkpt>
      <trkpt lat="45.64781" lon="6.55342">
        <ele>2041</ele>
        <time>2022-07-27T13:37:33Z</time>
      </trkpt>
      <trkpt lat="45.6478" lon="6.55341">
        <ele>2041</ele>
        <time>2022-07-27T13:37:34Z</time>
      </trkpt>
      <trkpt lat="45.64779" lon="6.5534">
        <ele>2041</ele>
        <time>2022-07-27T13:37:35Z</time>
      </trkpt>
      <trkpt lat="45.64778" lon="6.55339">
        <ele>2041</ele>
        <time>2022-07-27T13:37:36Z</time>
      </trkpt>
      <trkpt lat="45.64777" lon="6.55338">
        <ele>2040</ele>
        <time>2022-07-27T13:37:37Z</time>
      </trkpt>
      <trkpt lat="45.64776" lon="6.55337">
        <ele>2040</ele>
        <time>2022-07-27T13:37:38Z</time>
      </trkpt>
      <trkpt lat="45.64775" lon="6.55336">
        <ele>2040</ele>
        <time>2022-07-27T13:37:39Z</time>
      </trkpt>
      <trkpt lat="45.64774" lon="6.55336">
        <ele>2040</ele>
        <time>2022-07-27T13:37:40Z</time>
      </trkpt>
      <trkpt lat="45.64773" lon="6.55335">
        <ele>2040</ele>
        <time>2022-07-27T13:37:41Z</time>
      </trkpt>
      <trkpt lat="45.64772" lon="6.55334">
        <ele>2039</ele>
        <time>2022-07-27T13:37:42Z</time>
      </trkpt>
      <trkpt lat="45.64771" lon="6.55334">
        <ele>2039</ele>
        <time>2022-07-27T13:37:43Z</time>
      </trkpt>
      <trkpt lat="45.6477" lon="6.55333">
        <ele>2039</ele>
        <time>2022-07-27T13:37:44Z</time>
      </trkpt>
      <trkpt lat="45.64769" lon="6.55332">
        <ele>2039</ele>
        <time>2022-07-27T13:37:45Z</time>
      </trkpt>
      <trkpt lat="45.64768" lon="6.55332">
        <ele>2039</ele>
        <time>2022-07-27T13:37:46Z</time>
      </trkpt>
      <trkpt lat="45.64767" lon="6.55331">
        <ele>2038</ele>
        <time>2022-07-27T13:37:47Z</time>
      </trkpt>
      <trkpt lat="45.64766" lon="6.5533">
        <ele>2038</ele>
        <time>2022-07-27T13:37:48Z</time>
      </trkpt>
      <trkpt lat="45.64765" lon="6.55329">
        <ele>2038</ele>
        <time>2022-07-27T13:37:49Z</time>
      </trkpt>
      <trkpt lat="45.64764" lon="6.55329">
        <ele>2038</ele>
        <time>2022-07-27T13:37:50Z</time>
      </trkpt>
      <trkpt lat="45.64763" lon="6.55328">
        <ele>2038</ele>
        <time>2022-07-27T13:37:51Z</time>
      </trkpt>
      <trkpt lat="45.64762" lon="6.55328">
        <ele>2038</ele>
        <time>2022-07-27T13:37:52Z</time>
      </trkpt>
      <trkpt lat="45.64761" lon="6.55327">
        <ele>2038</ele>
        <time>2022-07-27T13:37:53Z</time>
      </trkpt>
      <trkpt lat="45.6476" lon="6.55326">
        <ele>2038</ele>
        <time>2022-07-27T13:37:54Z</time>
      </trkpt>
      <trkpt lat="45.64759" lon="6.55325">
        <ele>2038</ele>
        <time>2022-07-27T13:37:55Z</time>
      </trkpt>
      <trkpt lat="45.64758" lon="6.55325">
        <ele>2038</ele>
        <time>2022-07-27T13:37:56Z</time>
      </trkpt>
      <trkpt lat="45.64758" lon="6.55324">
        <ele>2038</ele>
        <time>2022-07-27T13:37:57Z</time>
      </trkpt>
      <trkpt lat="45.64757" lon="6.55323">
        <ele>2038</ele>
        <time>2022-07-27T13:37:58Z</time>
      </trkpt>
      <trkpt lat="45.64757" lon="6.55322">
        <ele>2038</ele>
        <time>2022-07-27T13:37:59Z</time>
      </trkpt>
      <trkpt lat="45.64757" lon="6.55321">
        <ele>2038</ele>
        <time>2022-07-27T13:38:00Z</time>
      </trkpt>
      <trkpt lat="45.64757" lon="6.5532">
        <ele>2038</ele>
        <time>2022-07-27T13:38:01Z</time>
      </trkpt>
      <trkpt lat="45.64757" lon="6.55319">
        <ele>2037</ele>
        <time>2022-07-27T13:38:02Z</time>
      </trkpt>
      <trkpt lat="45.64756" lon="6.55318">
        <ele>2037</ele>
        <time>2022-07-27T13:38:03Z</time>
      </trkpt>
      <trkpt lat="45.64756" lon="6.55317">
        <ele>2037</ele>
        <time>2022-07-27T13:38:04Z</time>
      </trkpt>
      <trkpt lat="45.64756" lon="6.55316">
        <ele>2037</ele>
        <time>2022-07-27T13:38:05Z</time>
      </trkpt>
      <trkpt lat="45.64756" lon="6.55315">
        <ele>2037</ele>
        <time>2022-07-27T13:38:06Z</time>
      </trkpt>
      <trkpt lat="45.64756" lon="6.55314">
        <ele>2037</ele>
        <time>2022-07-27T13:38:07Z</time>
      </trkpt>
      <trkpt lat="45.64756" lon="6.55314">
        <ele>2037</ele>
        <time>2022-07-27T13:38:08Z</time>
      </trkpt>
      <trkpt lat="45.64756" lon="6.55313">
        <ele>2037</ele>
        <time>2022-07-27T13:38:09Z</time>
      </trkpt>
      <trkpt lat="45.64755" lon="6.55312">
        <ele>2037</ele>
        <time>2022-07-27T13:38:10Z</time>
      </trkpt>
      <trkpt lat="45.64755" lon="6.55311">
        <ele>2037</ele>
        <time>2022-07-27T13:38:11Z</time>
      </trkpt>
      <trkpt lat="45.64755" lon="6.5531">
        <ele>2036</ele>
        <time>2022-07-27T13:38:12Z</time>
      </trkpt>
      <trkpt lat="45.64754" lon="6.55309">
        <ele>2036</ele>
        <time>2022-07-27T13:38:13Z</time>
      </trkpt>
      <trkpt lat="45.64754" lon="6.55308">
        <ele>2036</ele>
        <time>2022-07-27T13:38:14Z</time>
      </trkpt>
      <trkpt lat="45.64753" lon="6.55307">
        <ele>2036</ele>
        <time>2022-07-27T13:38:15Z</time>
      </trkpt>
      <trkpt lat="45.64753" lon="6.55306">
        <ele>2036</ele>
        <time>2022-07-27T13:38:16Z</time>
      </trkpt>
      <trkpt lat="45.64753" lon="6.55305">
        <ele>2036</ele>
        <time>2022-07-27T13:38:17Z</time>
      </trkpt>
      <trkpt lat="45.64752" lon="6.55304">
        <ele>2036</ele>
        <time>2022-07-27T13:38:18Z</time>
      </trkpt>
      <trkpt lat="45.64752" lon="6.55303">
        <ele>2036</ele>
        <time>2022-07-27T13:38:19Z</time>
      </trkpt>
      <trkpt lat="45.64752" lon="6.55302">
        <ele>2036</ele>
        <time>2022-07-27T13:38:20Z</time>
      </trkpt>
      <trkpt lat="45.64752" lon="6.55301">
        <ele>2036</ele>
        <time>2022-07-27T13:38:21Z</time>
      </trkpt>
      <trkpt lat="45.64751" lon="6.553">
        <ele>2036</ele>
        <time>2022-07-27T13:38:22Z</time>
      </trkpt>
      <trkpt lat="45.64751" lon="6.55299">
        <ele>2036</ele>
        <time>2022-07-27T13:38:23Z</time>
      </trkpt>
      <trkpt lat="45.64751" lon="6.55298">
        <ele>2036</ele>
        <time>2022-07-27T13:38:24Z</time>
      </trkpt>
      <trkpt lat="45.6475" lon="6.55297">
        <ele>2036</ele>
        <time>2022-07-27T13:38:25Z</time>
      </trkpt>
      <trkpt lat="45.6475" lon="6.55296">
        <ele>2036</ele>
        <time>2022-07-27T13:38:26Z</time>
      </trkpt>
      <trkpt lat="45.64749" lon="6.55295">
        <ele>2035</ele>
        <time>2022-07-27T13:38:27Z</time>
      </trkpt>
      <trkpt lat="45.64749" lon="6.55294">
        <ele>2035</ele>
        <time>2022-07-27T13:38:28Z</time>
      </trkpt>
      <trkpt lat="45.64748" lon="6.55293">
        <ele>2035</ele>
        <time>2022-07-27T13:38:29Z</time>
      </trkpt>
      <trkpt lat="45.64748" lon="6.55292">
        <ele>2035</ele>
        <time>2022-07-27T13:38:30Z</time>
      </trkpt>
      <trkpt lat="45.64748" lon="6.55291">
        <ele>2035</ele>
        <time>2022-07-27T13:38:31Z</time>
      </trkpt>
      <trkpt lat="45.64747" lon="6.5529">
        <ele>2035</ele>
        <time>2022-07-27T13:38:32Z</time>
      </trkpt>
      <trkpt lat="45.64747" lon="6.55289">
        <ele>2035</ele>
        <time>2022-07-27T13:38:33Z</time>
      </trkpt>
      <trkpt lat="45.64747" lon="6.55287">
        <ele>2035</ele>
        <time>2022-07-27T13:38:34Z</time>
      </trkpt>
      <trkpt lat="45.64747" lon="6.55286">
        <ele>2035</ele>
        <time>2022-07-27T13:38:35Z</time>
      </trkpt>
      <trkpt lat="45.64747" lon="6.55285">
        <ele>2035</ele>
        <time>2022-07-27T13:38:36Z</time>
      </trkpt>
      <trkpt lat="45.64746" lon="6.55284">
        <ele>2034</ele>
        <time>2022-07-27T13:38:37Z</time>
      </trkpt>
      <trkpt lat="45.64746" lon="6.55283">
        <ele>2034</ele>
        <time>2022-07-27T13:38:38Z</time>
      </trkpt>
      <trkpt lat="45.64746" lon="6.55281">
        <ele>2034</ele>
        <time>2022-07-27T13:38:39Z</time>
      </trkpt>
      <trkpt lat="45.64745" lon="6.5528">
        <ele>2034</ele>
        <time>2022-07-27T13:38:40Z</time>
      </trkpt>
      <trkpt lat="45.64745" lon="6.55278">
        <ele>2034</ele>
        <time>2022-07-27T13:38:41Z</time>
      </trkpt>
      <trkpt lat="45.64744" lon="6.55277">
        <ele>2034</ele>
        <time>2022-07-27T13:38:42Z</time>
      </trkpt>
      <trkpt lat="45.64743" lon="6.55276">
        <ele>2034</ele>
        <time>2022-07-27T13:38:43Z</time>
      </trkpt>
      <trkpt lat="45.64743" lon="6.55275">
        <ele>2034</ele>
        <time>2022-07-27T13:38:44Z</time>
      </trkpt>
      <trkpt lat="45.64742" lon="6.55273">
        <ele>2034</ele>
        <time>2022-07-27T13:38:45Z</time>
      </trkpt>
      <trkpt lat="45.64742" lon="6.55272">
        <ele>2034</ele>
        <time>2022-07-27T13:38:46Z</time>
      </trkpt>
      <trkpt lat="45.64741" lon="6.55271">
        <ele>2033</ele>
        <time>2022-07-27T13:38:47Z</time>
      </trkpt>
      <trkpt lat="45.64741" lon="6.5527">
        <ele>2033</ele>
        <time>2022-07-27T13:38:48Z</time>
      </trkpt>
      <trkpt lat="45.64741" lon="6.55269">
        <ele>2033</ele>
        <time>2022-07-27T13:38:49Z</time>
      </trkpt>
      <trkpt lat="45.64741" lon="6.55268">
        <ele>2033</ele>
        <time>2022-07-27T13:38:50Z</time>
      </trkpt>
      <trkpt lat="45.64741" lon="6.55267">
        <ele>2033</ele>
        <time>2022-07-27T13:38:51Z</time>
      </trkpt>
      <trkpt lat="45.64741" lon="6.55266">
        <ele>2033</ele>
        <time>2022-07-27T13:38:52Z</time>
      </trkpt>
      <trkpt lat="45.64741" lon="6.55265">
        <ele>2033</ele>
        <time>2022-07-27T13:38:53Z</time>
      </trkpt>
      <trkpt lat="45.64741" lon="6.55264">
        <ele>2033</ele>
        <time>2022-07-27T13:38:54Z</time>
      </trkpt>
      <trkpt lat="45.6474" lon="6.55264">
        <ele>2033</ele>
        <time>2022-07-27T13:38:55Z</time>
      </trkpt>
      <trkpt lat="45.6474" lon="6.55263">
        <ele>2033</ele>
        <time>2022-07-27T13:38:56Z</time>
      </trkpt>
      <trkpt lat="45.64739" lon="6.55262">
        <ele>2033</ele>
        <time>2022-07-27T13:38:57Z</time>
      </trkpt>
      <trkpt lat="45.64738" lon="6.55262">
        <ele>2033</ele>
        <time>2022-07-27T13:38:58Z</time>
      </trkpt>
      <trkpt lat="45.64737" lon="6.55261">
        <ele>2033</ele>
        <time>2022-07-27T13:38:59Z</time>
      </trkpt>
      <trkpt lat="45.64737" lon="6.55261">
        <ele>2033</ele>
        <time>2022-07-27T13:39:00Z</time>
      </trkpt>
      <trkpt lat="45.64737" lon="6.55261">
        <ele>2033</ele>
        <time>2022-07-27T13:39:01Z</time>
      </trkpt>
      <trkpt lat="45.64736" lon="6.5526">
        <ele>2033</ele>
        <time>2022-07-27T13:39:02Z</time>
      </trkpt>
      <trkpt lat="45.64736" lon="6.5526">
        <ele>2033</ele>
        <time>2022-07-27T13:39:03Z</time>
      </trkpt>
      <trkpt lat="45.64735" lon="6.5526">
        <ele>2033</ele>
        <time>2022-07-27T13:39:04Z</time>
      </trkpt>
      <trkpt lat="45.64735" lon="6.55259">
        <ele>2033</ele>
        <time>2022-07-27T13:39:05Z</time>
      </trkpt>
      <trkpt lat="45.64735" lon="6.55258">
        <ele>2033</ele>
        <time>2022-07-27T13:39:06Z</time>
      </trkpt>
      <trkpt lat="45.64735" lon="6.55257">
        <ele>2033</ele>
        <time>2022-07-27T13:39:07Z</time>
      </trkpt>
      <trkpt lat="45.64734" lon="6.55257">
        <ele>2033</ele>
        <time>2022-07-27T13:39:08Z</time>
      </trkpt>
      <trkpt lat="45.64734" lon="6.55256">
        <ele>2033</ele>
        <time>2022-07-27T13:39:09Z</time>
      </trkpt>
      <trkpt lat="45.64734" lon="6.55255">
        <ele>2033</ele>
        <time>2022-07-27T13:39:10Z</time>
      </trkpt>
      <trkpt lat="45.64734" lon="6.55254">
        <ele>2033</ele>
        <time>2022-07-27T13:39:11Z</time>
      </trkpt>
      <trkpt lat="45.64733" lon="6.55252">
        <ele>2033</ele>
        <time>2022-07-27T13:39:12Z</time>
      </trkpt>
      <trkpt lat="45.64733" lon="6.55251">
        <ele>2033</ele>
        <time>2022-07-27T13:39:13Z</time>
      </trkpt>
      <trkpt lat="45.64733" lon="6.5525">
        <ele>2033</ele>
        <time>2022-07-27T13:39:14Z</time>
      </trkpt>
      <trkpt lat="45.64732" lon="6.55249">
        <ele>2033</ele>
        <time>2022-07-27T13:39:15Z</time>
      </trkpt>
      <trkpt lat="45.64732" lon="6.55247">
        <ele>2033</ele>
        <time>2022-07-27T13:39:16Z</time>
      </trkpt>
      <trkpt lat="45.64731" lon="6.55246">
        <ele>2032</ele>
        <time>2022-07-27T13:39:17Z</time>
      </trkpt>
      <trkpt lat="45.64731" lon="6.55244">
        <ele>2032</ele>
        <time>2022-07-27T13:39:18Z</time>
      </trkpt>
      <trkpt lat="45.64731" lon="6.55243">
        <ele>2032</ele>
        <time>2022-07-27T13:39:19Z</time>
      </trkpt>
      <trkpt lat="45.6473" lon="6.55241">
        <ele>2032</ele>
        <time>2022-07-27T13:39:20Z</time>
      </trkpt>
      <trkpt lat="45.6473" lon="6.55239">
        <ele>2032</ele>
        <time>2022-07-27T13:39:21Z</time>
      </trkpt>
      <trkpt lat="45.6473" lon="6.55238">
        <ele>2032</ele>
        <time>2022-07-27T13:39:22Z</time>
      </trkpt>
      <trkpt lat="45.6473" lon="6.55236">
        <ele>2032</ele>
        <time>2022-07-27T13:39:23Z</time>
      </trkpt>
      <trkpt lat="45.6473" lon="6.55235">
        <ele>2032</ele>
        <time>2022-07-27T13:39:24Z</time>
      </trkpt>
      <trkpt lat="45.64729" lon="6.55233">
        <ele>2032</ele>
        <time>2022-07-27T13:39:25Z</time>
      </trkpt>
      <trkpt lat="45.64729" lon="6.55232">
        <ele>2032</ele>
        <time>2022-07-27T13:39:26Z</time>
      </trkpt>
      <trkpt lat="45.64729" lon="6.55231">
        <ele>2032</ele>
        <time>2022-07-27T13:39:27Z</time>
      </trkpt>
      <trkpt lat="45.64729" lon="6.55229">
        <ele>2032</ele>
        <time>2022-07-27T13:39:28Z</time>
      </trkpt>
      <trkpt lat="45.64729" lon="6.55228">
        <ele>2032</ele>
        <time>2022-07-27T13:39:29Z</time>
      </trkpt>
      <trkpt lat="45.64729" lon="6.55227">
        <ele>2032</ele>
        <time>2022-07-27T13:39:30Z</time>
      </trkpt>
      <trkpt lat="45.64729" lon="6.55226">
        <ele>2032</ele>
        <time>2022-07-27T13:39:31Z</time>
      </trkpt>
      <trkpt lat="45.64729" lon="6.55224">
        <ele>2032</ele>
        <time>2022-07-27T13:39:32Z</time>
      </trkpt>
      <trkpt lat="45.64729" lon="6.55223">
        <ele>2032</ele>
        <time>2022-07-27T13:39:33Z</time>
      </trkpt>
      <trkpt lat="45.64729" lon="6.55222">
        <ele>2032</ele>
        <time>2022-07-27T13:39:34Z</time>
      </trkpt>
      <trkpt lat="45.64729" lon="6.55221">
        <ele>2032</ele>
        <time>2022-07-27T13:39:35Z</time>
      </trkpt>
      <trkpt lat="45.64729" lon="6.5522">
        <ele>2032</ele>
        <time>2022-07-27T13:39:36Z</time>
      </trkpt>
      <trkpt lat="45.64729" lon="6.55219">
        <ele>2031</ele>
        <time>2022-07-27T13:39:37Z</time>
      </trkpt>
      <trkpt lat="45.64729" lon="6.55218">
        <ele>2031</ele>
        <time>2022-07-27T13:39:38Z</time>
      </trkpt>
      <trkpt lat="45.64729" lon="6.55216">
        <ele>2031</ele>
        <time>2022-07-27T13:39:39Z</time>
      </trkpt>
      <trkpt lat="45.64729" lon="6.55215">
        <ele>2031</ele>
        <time>2022-07-27T13:39:40Z</time>
      </trkpt>
      <trkpt lat="45.64729" lon="6.55214">
        <ele>2031</ele>
        <time>2022-07-27T13:39:41Z</time>
      </trkpt>
      <trkpt lat="45.64729" lon="6.55213">
        <ele>2031</ele>
        <time>2022-07-27T13:39:42Z</time>
      </trkpt>
      <trkpt lat="45.64729" lon="6.55212">
        <ele>2031</ele>
        <time>2022-07-27T13:39:43Z</time>
      </trkpt>
      <trkpt lat="45.6473" lon="6.55211">
        <ele>2031</ele>
        <time>2022-07-27T13:39:44Z</time>
      </trkpt>
      <trkpt lat="45.6473" lon="6.5521">
        <ele>2031</ele>
        <time>2022-07-27T13:39:45Z</time>
      </trkpt>
      <trkpt lat="45.6473" lon="6.55208">
        <ele>2031</ele>
        <time>2022-07-27T13:39:46Z</time>
      </trkpt>
      <trkpt lat="45.6473" lon="6.55207">
        <ele>2031</ele>
        <time>2022-07-27T13:39:47Z</time>
      </trkpt>
      <trkpt lat="45.6473" lon="6.55206">
        <ele>2031</ele>
        <time>2022-07-27T13:39:48Z</time>
      </trkpt>
      <trkpt lat="45.64731" lon="6.55205">
        <ele>2031</ele>
        <time>2022-07-27T13:39:49Z</time>
      </trkpt>
      <trkpt lat="45.64731" lon="6.55203">
        <ele>2031</ele>
        <time>2022-07-27T13:39:50Z</time>
      </trkpt>
      <trkpt lat="45.64731" lon="6.55202">
        <ele>2031</ele>
        <time>2022-07-27T13:39:51Z</time>
      </trkpt>
      <trkpt lat="45.64731" lon="6.55201">
        <ele>2031</ele>
        <time>2022-07-27T13:39:52Z</time>
      </trkpt>
      <trkpt lat="45.64731" lon="6.552">
        <ele>2031</ele>
        <time>2022-07-27T13:39:53Z</time>
      </trkpt>
      <trkpt lat="45.64731" lon="6.55199">
        <ele>2031</ele>
        <time>2022-07-27T13:39:54Z</time>
      </trkpt>
      <trkpt lat="45.64731" lon="6.55198">
        <ele>2031</ele>
        <time>2022-07-27T13:39:55Z</time>
      </trkpt>
      <trkpt lat="45.64731" lon="6.55197">
        <ele>2031</ele>
        <time>2022-07-27T13:39:56Z</time>
      </trkpt>
      <trkpt lat="45.64731" lon="6.55196">
        <ele>2031</ele>
        <time>2022-07-27T13:39:57Z</time>
      </trkpt>
      <trkpt lat="45.64731" lon="6.55194">
        <ele>2031</ele>
        <time>2022-07-27T13:39:58Z</time>
      </trkpt>
      <trkpt lat="45.64731" lon="6.55193">
        <ele>2031</ele>
        <time>2022-07-27T13:39:59Z</time>
      </trkpt>
      <trkpt lat="45.64731" lon="6.55191">
        <ele>2031</ele>
        <time>2022-07-27T13:40:00Z</time>
      </trkpt>
      <trkpt lat="45.64731" lon="6.5519">
        <ele>2031</ele>
        <time>2022-07-27T13:40:01Z</time>
      </trkpt>
      <trkpt lat="45.64731" lon="6.55188">
        <ele>2030</ele>
        <time>2022-07-27T13:40:02Z</time>
      </trkpt>
      <trkpt lat="45.6473" lon="6.55186">
        <ele>2030</ele>
        <time>2022-07-27T13:40:03Z</time>
      </trkpt>
      <trkpt lat="45.6473" lon="6.55185">
        <ele>2030</ele>
        <time>2022-07-27T13:40:04Z</time>
      </trkpt>
      <trkpt lat="45.6473" lon="6.55183">
        <ele>2030</ele>
        <time>2022-07-27T13:40:05Z</time>
      </trkpt>
      <trkpt lat="45.6473" lon="6.55182">
        <ele>2030</ele>
        <time>2022-07-27T13:40:06Z</time>
      </trkpt>
      <trkpt lat="45.6473" lon="6.55181">
        <ele>2030</ele>
        <time>2022-07-27T13:40:07Z</time>
      </trkpt>
      <trkpt lat="45.64729" lon="6.55179">
        <ele>2030</ele>
        <time>2022-07-27T13:40:08Z</time>
      </trkpt>
      <trkpt lat="45.64729" lon="6.55178">
        <ele>2030</ele>
        <time>2022-07-27T13:40:09Z</time>
      </trkpt>
      <trkpt lat="45.64729" lon="6.55176">
        <ele>2030</ele>
        <time>2022-07-27T13:40:10Z</time>
      </trkpt>
      <trkpt lat="45.64729" lon="6.55175">
        <ele>2030</ele>
        <time>2022-07-27T13:40:11Z</time>
      </trkpt>
      <trkpt lat="45.64728" lon="6.55173">
        <ele>2030</ele>
        <time>2022-07-27T13:40:12Z</time>
      </trkpt>
      <trkpt lat="45.64728" lon="6.55172">
        <ele>2030</ele>
        <time>2022-07-27T13:40:13Z</time>
      </trkpt>
      <trkpt lat="45.64728" lon="6.5517">
        <ele>2030</ele>
        <time>2022-07-27T13:40:14Z</time>
      </trkpt>
      <trkpt lat="45.64728" lon="6.55168">
        <ele>2030</ele>
        <time>2022-07-27T13:40:15Z</time>
      </trkpt>
      <trkpt lat="45.64728" lon="6.55167">
        <ele>2030</ele>
        <time>2022-07-27T13:40:16Z</time>
      </trkpt>
      <trkpt lat="45.64728" lon="6.55165">
        <ele>2030</ele>
        <time>2022-07-27T13:40:17Z</time>
      </trkpt>
      <trkpt lat="45.64728" lon="6.55164">
        <ele>2030</ele>
        <time>2022-07-27T13:40:18Z</time>
      </trkpt>
      <trkpt lat="45.64728" lon="6.55162">
        <ele>2030</ele>
        <time>2022-07-27T13:40:19Z</time>
      </trkpt>
      <trkpt lat="45.64728" lon="6.55161">
        <ele>2030</ele>
        <time>2022-07-27T13:40:20Z</time>
      </trkpt>
      <trkpt lat="45.64728" lon="6.5516">
        <ele>2030</ele>
        <time>2022-07-27T13:40:21Z</time>
      </trkpt>
      <trkpt lat="45.64728" lon="6.55158">
        <ele>2029</ele>
        <time>2022-07-27T13:40:22Z</time>
      </trkpt>
      <trkpt lat="45.64728" lon="6.55157">
        <ele>2029</ele>
        <time>2022-07-27T13:40:23Z</time>
      </trkpt>
      <trkpt lat="45.64727" lon="6.55155">
        <ele>2029</ele>
        <time>2022-07-27T13:40:24Z</time>
      </trkpt>
      <trkpt lat="45.64727" lon="6.55154">
        <ele>2029</ele>
        <time>2022-07-27T13:40:25Z</time>
      </trkpt>
      <trkpt lat="45.64727" lon="6.55153">
        <ele>2029</ele>
        <time>2022-07-27T13:40:26Z</time>
      </trkpt>
      <trkpt lat="45.64727" lon="6.55153">
        <ele>2029</ele>
        <time>2022-07-27T13:40:27Z</time>
      </trkpt>
      <trkpt lat="45.64727" lon="6.55152">
        <ele>2029</ele>
        <time>2022-07-27T13:40:28Z</time>
      </trkpt>
      <trkpt lat="45.64727" lon="6.55151">
        <ele>2029</ele>
        <time>2022-07-27T13:40:29Z</time>
      </trkpt>
      <trkpt lat="45.64727" lon="6.5515">
        <ele>2029</ele>
        <time>2022-07-27T13:40:30Z</time>
      </trkpt>
      <trkpt lat="45.64727" lon="6.55149">
        <ele>2029</ele>
        <time>2022-07-27T13:40:31Z</time>
      </trkpt>
      <trkpt lat="45.64727" lon="6.55148">
        <ele>2029</ele>
        <time>2022-07-27T13:40:32Z</time>
      </trkpt>
      <trkpt lat="45.64727" lon="6.55147">
        <ele>2029</ele>
        <time>2022-07-27T13:40:33Z</time>
      </trkpt>
      <trkpt lat="45.64726" lon="6.55145">
        <ele>2029</ele>
        <time>2022-07-27T13:40:34Z</time>
      </trkpt>
      <trkpt lat="45.64726" lon="6.55144">
        <ele>2029</ele>
        <time>2022-07-27T13:40:35Z</time>
      </trkpt>
      <trkpt lat="45.64726" lon="6.55142">
        <ele>2029</ele>
        <time>2022-07-27T13:40:36Z</time>
      </trkpt>
      <trkpt lat="45.64726" lon="6.5514">
        <ele>2029</ele>
        <time>2022-07-27T13:40:37Z</time>
      </trkpt>
      <trkpt lat="45.64726" lon="6.55138">
        <ele>2029</ele>
        <time>2022-07-27T13:40:38Z</time>
      </trkpt>
      <trkpt lat="45.64725" lon="6.55136">
        <ele>2029</ele>
        <time>2022-07-27T13:40:39Z</time>
      </trkpt>
      <trkpt lat="45.64725" lon="6.55135">
        <ele>2029</ele>
        <time>2022-07-27T13:40:40Z</time>
      </trkpt>
      <trkpt lat="45.64725" lon="6.55133">
        <ele>2030</ele>
        <time>2022-07-27T13:40:41Z</time>
      </trkpt>
      <trkpt lat="45.64725" lon="6.55131">
        <ele>2029</ele>
        <time>2022-07-27T13:40:42Z</time>
      </trkpt>
      <trkpt lat="45.64724" lon="6.5513">
        <ele>2029</ele>
        <time>2022-07-27T13:40:43Z</time>
      </trkpt>
      <trkpt lat="45.64724" lon="6.55128">
        <ele>2029</ele>
        <time>2022-07-27T13:40:44Z</time>
      </trkpt>
      <trkpt lat="45.64723" lon="6.55126">
        <ele>2029</ele>
        <time>2022-07-27T13:40:45Z</time>
      </trkpt>
      <trkpt lat="45.64722" lon="6.55125">
        <ele>2029</ele>
        <time>2022-07-27T13:40:46Z</time>
      </trkpt>
      <trkpt lat="45.64722" lon="6.55123">
        <ele>2029</ele>
        <time>2022-07-27T13:40:47Z</time>
      </trkpt>
      <trkpt lat="45.64721" lon="6.55122">
        <ele>2029</ele>
        <time>2022-07-27T13:40:48Z</time>
      </trkpt>
      <trkpt lat="45.64721" lon="6.5512">
        <ele>2029</ele>
        <time>2022-07-27T13:40:49Z</time>
      </trkpt>
      <trkpt lat="45.6472" lon="6.55119">
        <ele>2029</ele>
        <time>2022-07-27T13:40:50Z</time>
      </trkpt>
      <trkpt lat="45.64719" lon="6.55118">
        <ele>2029</ele>
        <time>2022-07-27T13:40:51Z</time>
      </trkpt>
      <trkpt lat="45.64719" lon="6.55116">
        <ele>2028</ele>
        <time>2022-07-27T13:40:52Z</time>
      </trkpt>
      <trkpt lat="45.64718" lon="6.55115">
        <ele>2028</ele>
        <time>2022-07-27T13:40:53Z</time>
      </trkpt>
      <trkpt lat="45.64718" lon="6.55114">
        <ele>2028</ele>
        <time>2022-07-27T13:40:54Z</time>
      </trkpt>
      <trkpt lat="45.64718" lon="6.55113">
        <ele>2028</ele>
        <time>2022-07-27T13:40:55Z</time>
      </trkpt>
      <trkpt lat="45.64717" lon="6.55112">
        <ele>2028</ele>
        <time>2022-07-27T13:40:56Z</time>
      </trkpt>
      <trkpt lat="45.64717" lon="6.55111">
        <ele>2028</ele>
        <time>2022-07-27T13:40:57Z</time>
      </trkpt>
      <trkpt lat="45.64717" lon="6.5511">
        <ele>2028</ele>
        <time>2022-07-27T13:40:58Z</time>
      </trkpt>
      <trkpt lat="45.64717" lon="6.55109">
        <ele>2028</ele>
        <time>2022-07-27T13:40:59Z</time>
      </trkpt>
      <trkpt lat="45.64716" lon="6.55107">
        <ele>2028</ele>
        <time>2022-07-27T13:41:00Z</time>
      </trkpt>
      <trkpt lat="45.64716" lon="6.55106">
        <ele>2028</ele>
        <time>2022-07-27T13:41:01Z</time>
      </trkpt>
      <trkpt lat="45.64716" lon="6.55105">
        <ele>2028</ele>
        <time>2022-07-27T13:41:02Z</time>
      </trkpt>
      <trkpt lat="45.64716" lon="6.55103">
        <ele>2028</ele>
        <time>2022-07-27T13:41:03Z</time>
      </trkpt>
      <trkpt lat="45.64715" lon="6.55102">
        <ele>2028</ele>
        <time>2022-07-27T13:41:04Z</time>
      </trkpt>
      <trkpt lat="45.64715" lon="6.551">
        <ele>2028</ele>
        <time>2022-07-27T13:41:05Z</time>
      </trkpt>
      <trkpt lat="45.64715" lon="6.55099">
        <ele>2028</ele>
        <time>2022-07-27T13:41:06Z</time>
      </trkpt>
      <trkpt lat="45.64715" lon="6.55097">
        <ele>2028</ele>
        <time>2022-07-27T13:41:07Z</time>
      </trkpt>
      <trkpt lat="45.64714" lon="6.55096">
        <ele>2028</ele>
        <time>2022-07-27T13:41:08Z</time>
      </trkpt>
      <trkpt lat="45.64714" lon="6.55094">
        <ele>2028</ele>
        <time>2022-07-27T13:41:09Z</time>
      </trkpt>
      <trkpt lat="45.64714" lon="6.55093">
        <ele>2028</ele>
        <time>2022-07-27T13:41:10Z</time>
      </trkpt>
      <trkpt lat="45.64714" lon="6.55091">
        <ele>2028</ele>
        <time>2022-07-27T13:41:11Z</time>
      </trkpt>
      <trkpt lat="45.64714" lon="6.5509">
        <ele>2028</ele>
        <time>2022-07-27T13:41:12Z</time>
      </trkpt>
      <trkpt lat="45.64713" lon="6.55088">
        <ele>2028</ele>
        <time>2022-07-27T13:41:13Z</time>
      </trkpt>
      <trkpt lat="45.64713" lon="6.55087">
        <ele>2028</ele>
        <time>2022-07-27T13:41:14Z</time>
      </trkpt>
      <trkpt lat="45.64713" lon="6.55086">
        <ele>2028</ele>
        <time>2022-07-27T13:41:15Z</time>
      </trkpt>
      <trkpt lat="45.64713" lon="6.55084">
        <ele>2028</ele>
        <time>2022-07-27T13:41:16Z</time>
      </trkpt>
      <trkpt lat="45.64713" lon="6.55083">
        <ele>2027</ele>
        <time>2022-07-27T13:41:17Z</time>
      </trkpt>
      <trkpt lat="45.64713" lon="6.55082">
        <ele>2027</ele>
        <time>2022-07-27T13:41:18Z</time>
      </trkpt>
      <trkpt lat="45.64713" lon="6.5508">
        <ele>2027</ele>
        <time>2022-07-27T13:41:19Z</time>
      </trkpt>
      <trkpt lat="45.64713" lon="6.55079">
        <ele>2027</ele>
        <time>2022-07-27T13:41:20Z</time>
      </trkpt>
      <trkpt lat="45.64712" lon="6.55078">
        <ele>2027</ele>
        <time>2022-07-27T13:41:21Z</time>
      </trkpt>
      <trkpt lat="45.64712" lon="6.55076">
        <ele>2027</ele>
        <time>2022-07-27T13:41:22Z</time>
      </trkpt>
      <trkpt lat="45.64712" lon="6.55075">
        <ele>2027</ele>
        <time>2022-07-27T13:41:23Z</time>
      </trkpt>
      <trkpt lat="45.64712" lon="6.55073">
        <ele>2027</ele>
        <time>2022-07-27T13:41:24Z</time>
      </trkpt>
      <trkpt lat="45.64712" lon="6.55071">
        <ele>2027</ele>
        <time>2022-07-27T13:42:16Z</time>
      </trkpt>
      <trkpt lat="45.64712" lon="6.5507">
        <ele>2027</ele>
        <time>2022-07-27T13:42:17Z</time>
      </trkpt>
      <trkpt lat="45.64711" lon="6.55069">
        <ele>2027</ele>
        <time>2022-07-27T13:42:18Z</time>
      </trkpt>
      <trkpt lat="45.64711" lon="6.55068">
        <ele>2027</ele>
        <time>2022-07-27T13:42:19Z</time>
      </trkpt>
      <trkpt lat="45.64711" lon="6.55067">
        <ele>2027</ele>
        <time>2022-07-27T13:42:20Z</time>
      </trkpt>
      <trkpt lat="45.64711" lon="6.55066">
        <ele>2027</ele>
        <time>2022-07-27T13:42:21Z</time>
      </trkpt>
      <trkpt lat="45.64711" lon="6.55065">
        <ele>2027</ele>
        <time>2022-07-27T13:42:22Z</time>
      </trkpt>
      <trkpt lat="45.6471" lon="6.55063">
        <ele>2027</ele>
        <time>2022-07-27T13:42:23Z</time>
      </trkpt>
      <trkpt lat="45.6471" lon="6.55062">
        <ele>2027</ele>
        <time>2022-07-27T13:42:24Z</time>
      </trkpt>
      <trkpt lat="45.64709" lon="6.5506">
        <ele>2027</ele>
        <time>2022-07-27T13:42:25Z</time>
      </trkpt>
      <trkpt lat="45.64709" lon="6.55059">
        <ele>2027</ele>
        <time>2022-07-27T13:42:26Z</time>
      </trkpt>
      <trkpt lat="45.64708" lon="6.55058">
        <ele>2027</ele>
        <time>2022-07-27T13:42:27Z</time>
      </trkpt>
      <trkpt lat="45.64708" lon="6.55056">
        <ele>2027</ele>
        <time>2022-07-27T13:42:28Z</time>
      </trkpt>
      <trkpt lat="45.64707" lon="6.55055">
        <ele>2027</ele>
        <time>2022-07-27T13:42:29Z</time>
      </trkpt>
      <trkpt lat="45.64707" lon="6.55054">
        <ele>2027</ele>
        <time>2022-07-27T13:42:30Z</time>
      </trkpt>
      <trkpt lat="45.64706" lon="6.55053">
        <ele>2027</ele>
        <time>2022-07-27T13:42:31Z</time>
      </trkpt>
      <trkpt lat="45.64706" lon="6.55052">
        <ele>2027</ele>
        <time>2022-07-27T13:42:32Z</time>
      </trkpt>
      <trkpt lat="45.64705" lon="6.55051">
        <ele>2027</ele>
        <time>2022-07-27T13:42:33Z</time>
      </trkpt>
      <trkpt lat="45.64705" lon="6.5505">
        <ele>2027</ele>
        <time>2022-07-27T13:42:34Z</time>
      </trkpt>
      <trkpt lat="45.64705" lon="6.55049">
        <ele>2027</ele>
        <time>2022-07-27T13:42:35Z</time>
      </trkpt>
      <trkpt lat="45.64704" lon="6.55049">
        <ele>2028</ele>
        <time>2022-07-27T13:42:36Z</time>
      </trkpt>
      <trkpt lat="45.64704" lon="6.55048">
        <ele>2028</ele>
        <time>2022-07-27T13:42:37Z</time>
      </trkpt>
      <trkpt lat="45.64704" lon="6.55047">
        <ele>2028</ele>
        <time>2022-07-27T13:42:38Z</time>
      </trkpt>
      <trkpt lat="45.64704" lon="6.55046">
        <ele>2028</ele>
        <time>2022-07-27T13:42:39Z</time>
      </trkpt>
      <trkpt lat="45.64704" lon="6.55045">
        <ele>2028</ele>
        <time>2022-07-27T13:42:40Z</time>
      </trkpt>
      <trkpt lat="45.64704" lon="6.55043">
        <ele>2028</ele>
        <time>2022-07-27T13:42:41Z</time>
      </trkpt>
      <trkpt lat="45.64703" lon="6.55042">
        <ele>2028</ele>
        <time>2022-07-27T13:42:42Z</time>
      </trkpt>
      <trkpt lat="45.64703" lon="6.5504">
        <ele>2028</ele>
        <time>2022-07-27T13:42:43Z</time>
      </trkpt>
      <trkpt lat="45.64703" lon="6.55039">
        <ele>2028</ele>
        <time>2022-07-27T13:42:44Z</time>
      </trkpt>
      <trkpt lat="45.64703" lon="6.55037">
        <ele>2028</ele>
        <time>2022-07-27T13:42:45Z</time>
      </trkpt>
      <trkpt lat="45.64703" lon="6.55036">
        <ele>2028</ele>
        <time>2022-07-27T13:42:46Z</time>
      </trkpt>
      <trkpt lat="45.64703" lon="6.55035">
        <ele>2028</ele>
        <time>2022-07-27T13:42:47Z</time>
      </trkpt>
      <trkpt lat="45.64703" lon="6.55033">
        <ele>2028</ele>
        <time>2022-07-27T13:42:48Z</time>
      </trkpt>
      <trkpt lat="45.64703" lon="6.55032">
        <ele>2028</ele>
        <time>2022-07-27T13:42:49Z</time>
      </trkpt>
      <trkpt lat="45.64703" lon="6.5503">
        <ele>2028</ele>
        <time>2022-07-27T13:42:50Z</time>
      </trkpt>
      <trkpt lat="45.64703" lon="6.55029">
        <ele>2029</ele>
        <time>2022-07-27T13:42:51Z</time>
      </trkpt>
      <trkpt lat="45.64703" lon="6.55028">
        <ele>2029</ele>
        <time>2022-07-27T13:42:52Z</time>
      </trkpt>
      <trkpt lat="45.64702" lon="6.55026">
        <ele>2029</ele>
        <time>2022-07-27T13:42:53Z</time>
      </trkpt>
      <trkpt lat="45.64702" lon="6.55025">
        <ele>2029</ele>
        <time>2022-07-27T13:42:54Z</time>
      </trkpt>
      <trkpt lat="45.64702" lon="6.55024">
        <ele>2029</ele>
        <time>2022-07-27T13:42:55Z</time>
      </trkpt>
      <trkpt lat="45.64702" lon="6.55023">
        <ele>2030</ele>
        <time>2022-07-27T13:42:56Z</time>
      </trkpt>
      <trkpt lat="45.64701" lon="6.55022">
        <ele>2030</ele>
        <time>2022-07-27T13:42:57Z</time>
      </trkpt>
      <trkpt lat="45.64701" lon="6.55021">
        <ele>2030</ele>
        <time>2022-07-27T13:42:58Z</time>
      </trkpt>
      <trkpt lat="45.64701" lon="6.5502">
        <ele>2030</ele>
        <time>2022-07-27T13:42:59Z</time>
      </trkpt>
      <trkpt lat="45.647" lon="6.55019">
        <ele>2030</ele>
        <time>2022-07-27T13:43:00Z</time>
      </trkpt>
      <trkpt lat="45.647" lon="6.55019">
        <ele>2031</ele>
        <time>2022-07-27T13:43:01Z</time>
      </trkpt>
      <trkpt lat="45.647" lon="6.55018">
        <ele>2031</ele>
        <time>2022-07-27T13:43:02Z</time>
      </trkpt>
      <trkpt lat="45.647" lon="6.55017">
        <ele>2031</ele>
        <time>2022-07-27T13:43:03Z</time>
      </trkpt>
      <trkpt lat="45.647" lon="6.55017">
        <ele>2031</ele>
        <time>2022-07-27T13:43:04Z</time>
      </trkpt>
      <trkpt lat="45.64699" lon="6.55016">
        <ele>2031</ele>
        <time>2022-07-27T13:43:05Z</time>
      </trkpt>
      <trkpt lat="45.64699" lon="6.55015">
        <ele>2032</ele>
        <time>2022-07-27T13:43:06Z</time>
      </trkpt>
      <trkpt lat="45.64699" lon="6.55014">
        <ele>2032</ele>
        <time>2022-07-27T13:43:07Z</time>
      </trkpt>
      <trkpt lat="45.647" lon="6.55014">
        <ele>2032</ele>
        <time>2022-07-27T13:43:08Z</time>
      </trkpt>
      <trkpt lat="45.647" lon="6.55013">
        <ele>2032</ele>
        <time>2022-07-27T13:43:09Z</time>
      </trkpt>
      <trkpt lat="45.647" lon="6.55012">
        <ele>2032</ele>
        <time>2022-07-27T13:43:10Z</time>
      </trkpt>
      <trkpt lat="45.647" lon="6.55011">
        <ele>2033</ele>
        <time>2022-07-27T13:43:11Z</time>
      </trkpt>
      <trkpt lat="45.647" lon="6.5501">
        <ele>2033</ele>
        <time>2022-07-27T13:43:12Z</time>
      </trkpt>
      <trkpt lat="45.647" lon="6.55009">
        <ele>2033</ele>
        <time>2022-07-27T13:43:13Z</time>
      </trkpt>
      <trkpt lat="45.64699" lon="6.55007">
        <ele>2033</ele>
        <time>2022-07-27T13:43:14Z</time>
      </trkpt>
      <trkpt lat="45.64699" lon="6.55006">
        <ele>2033</ele>
        <time>2022-07-27T13:43:15Z</time>
      </trkpt>
      <trkpt lat="45.64699" lon="6.55005">
        <ele>2033</ele>
        <time>2022-07-27T13:43:16Z</time>
      </trkpt>
      <trkpt lat="45.64698" lon="6.55004">
        <ele>2033</ele>
        <time>2022-07-27T13:43:17Z</time>
      </trkpt>
      <trkpt lat="45.64698" lon="6.55003">
        <ele>2033</ele>
        <time>2022-07-27T13:43:18Z</time>
      </trkpt>
      <trkpt lat="45.64698" lon="6.55001">
        <ele>2033</ele>
        <time>2022-07-27T13:43:19Z</time>
      </trkpt>
      <trkpt lat="45.64698" lon="6.55">
        <ele>2033</ele>
        <time>2022-07-27T13:43:20Z</time>
      </trkpt>
      <trkpt lat="45.64697" lon="6.54998">
        <ele>2033</ele>
        <time>2022-07-27T13:43:21Z</time>
      </trkpt>
      <trkpt lat="45.64697" lon="6.54997">
        <ele>2033</ele>
        <time>2022-07-27T13:43:22Z</time>
      </trkpt>
      <trkpt lat="45.64697" lon="6.54995">
        <ele>2033</ele>
        <time>2022-07-27T13:43:23Z</time>
      </trkpt>
      <trkpt lat="45.64697" lon="6.54993">
        <ele>2033</ele>
        <time>2022-07-27T13:43:24Z</time>
      </trkpt>
      <trkpt lat="45.64697" lon="6.54992">
        <ele>2033</ele>
        <time>2022-07-27T13:43:25Z</time>
      </trkpt>
      <trkpt lat="45.64697" lon="6.5499">
        <ele>2033</ele>
        <time>2022-07-27T13:43:26Z</time>
      </trkpt>
      <trkpt lat="45.64697" lon="6.54989">
        <ele>2033</ele>
        <time>2022-07-27T13:43:27Z</time>
      </trkpt>
      <trkpt lat="45.64696" lon="6.54987">
        <ele>2033</ele>
        <time>2022-07-27T13:43:28Z</time>
      </trkpt>
      <trkpt lat="45.64696" lon="6.54986">
        <ele>2033</ele>
        <time>2022-07-27T13:43:29Z</time>
      </trkpt>
      <trkpt lat="45.64695" lon="6.54985">
        <ele>2033</ele>
        <time>2022-07-27T13:43:30Z</time>
      </trkpt>
      <trkpt lat="45.64695" lon="6.54984">
        <ele>2033</ele>
        <time>2022-07-27T13:43:31Z</time>
      </trkpt>
      <trkpt lat="45.64694" lon="6.54983">
        <ele>2033</ele>
        <time>2022-07-27T13:43:32Z</time>
      </trkpt>
      <trkpt lat="45.64693" lon="6.54982">
        <ele>2033</ele>
        <time>2022-07-27T13:43:33Z</time>
      </trkpt>
      <trkpt lat="45.64693" lon="6.54981">
        <ele>2033</ele>
        <time>2022-07-27T13:43:34Z</time>
      </trkpt>
      <trkpt lat="45.64692" lon="6.5498">
        <ele>2033</ele>
        <time>2022-07-27T13:43:35Z</time>
      </trkpt>
      <trkpt lat="45.64692" lon="6.54978">
        <ele>2033</ele>
        <time>2022-07-27T13:43:36Z</time>
      </trkpt>
      <trkpt lat="45.64691" lon="6.54977">
        <ele>2032</ele>
        <time>2022-07-27T13:43:37Z</time>
      </trkpt>
      <trkpt lat="45.64691" lon="6.54976">
        <ele>2032</ele>
        <time>2022-07-27T13:43:38Z</time>
      </trkpt>
      <trkpt lat="45.64691" lon="6.54975">
        <ele>2032</ele>
        <time>2022-07-27T13:43:39Z</time>
      </trkpt>
      <trkpt lat="45.6469" lon="6.54973">
        <ele>2032</ele>
        <time>2022-07-27T13:43:40Z</time>
      </trkpt>
      <trkpt lat="45.64689" lon="6.54972">
        <ele>2032</ele>
        <time>2022-07-27T13:43:41Z</time>
      </trkpt>
      <trkpt lat="45.64689" lon="6.5497">
        <ele>2032</ele>
        <time>2022-07-27T13:43:42Z</time>
      </trkpt>
      <trkpt lat="45.64688" lon="6.54969">
        <ele>2032</ele>
        <time>2022-07-27T13:43:43Z</time>
      </trkpt>
      <trkpt lat="45.64687" lon="6.54968">
        <ele>2032</ele>
        <time>2022-07-27T13:43:44Z</time>
      </trkpt>
      <trkpt lat="45.64687" lon="6.54966">
        <ele>2032</ele>
        <time>2022-07-27T13:43:45Z</time>
      </trkpt>
      <trkpt lat="45.64686" lon="6.54965">
        <ele>2032</ele>
        <time>2022-07-27T13:43:46Z</time>
      </trkpt>
      <trkpt lat="45.64685" lon="6.54964">
        <ele>2032</ele>
        <time>2022-07-27T13:43:47Z</time>
      </trkpt>
      <trkpt lat="45.64684" lon="6.54963">
        <ele>2032</ele>
        <time>2022-07-27T13:43:48Z</time>
      </trkpt>
      <trkpt lat="45.64684" lon="6.54962">
        <ele>2032</ele>
        <time>2022-07-27T13:43:49Z</time>
      </trkpt>
      <trkpt lat="45.64683" lon="6.54961">
        <ele>2032</ele>
        <time>2022-07-27T13:43:50Z</time>
      </trkpt>
      <trkpt lat="45.64683" lon="6.5496">
        <ele>2032</ele>
        <time>2022-07-27T13:43:51Z</time>
      </trkpt>
      <trkpt lat="45.64682" lon="6.54959">
        <ele>2032</ele>
        <time>2022-07-27T13:43:52Z</time>
      </trkpt>
      <trkpt lat="45.64682" lon="6.54957">
        <ele>2032</ele>
        <time>2022-07-27T13:43:53Z</time>
      </trkpt>
      <trkpt lat="45.64681" lon="6.54956">
        <ele>2032</ele>
        <time>2022-07-27T13:43:54Z</time>
      </trkpt>
      <trkpt lat="45.64681" lon="6.54954">
        <ele>2032</ele>
        <time>2022-07-27T13:43:55Z</time>
      </trkpt>
      <trkpt lat="45.64681" lon="6.54953">
        <ele>2033</ele>
        <time>2022-07-27T13:44:05Z</time>
      </trkpt>
      <trkpt lat="45.64681" lon="6.54952">
        <ele>2033</ele>
        <time>2022-07-27T13:44:06Z</time>
      </trkpt>
      <trkpt lat="45.64682" lon="6.54951">
        <ele>2033</ele>
        <time>2022-07-27T13:44:07Z</time>
      </trkpt>
      <trkpt lat="45.64681" lon="6.5495">
        <ele>2033</ele>
        <time>2022-07-27T13:44:08Z</time>
      </trkpt>
      <trkpt lat="45.64681" lon="6.5495">
        <ele>2033</ele>
        <time>2022-07-27T13:44:09Z</time>
      </trkpt>
      <trkpt lat="45.64681" lon="6.54948">
        <ele>2033</ele>
        <time>2022-07-27T13:44:10Z</time>
      </trkpt>
      <trkpt lat="45.6468" lon="6.54947">
        <ele>2034</ele>
        <time>2022-07-27T13:44:11Z</time>
      </trkpt>
      <trkpt lat="45.6468" lon="6.54946">
        <ele>2034</ele>
        <time>2022-07-27T13:44:12Z</time>
      </trkpt>
      <trkpt lat="45.64679" lon="6.54945">
        <ele>2034</ele>
        <time>2022-07-27T13:44:13Z</time>
      </trkpt>
      <trkpt lat="45.64679" lon="6.54944">
        <ele>2034</ele>
        <time>2022-07-27T13:44:14Z</time>
      </trkpt>
      <trkpt lat="45.64678" lon="6.54942">
        <ele>2034</ele>
        <time>2022-07-27T13:44:15Z</time>
      </trkpt>
      <trkpt lat="45.64678" lon="6.54941">
        <ele>2034</ele>
        <time>2022-07-27T13:44:16Z</time>
      </trkpt>
      <trkpt lat="45.64677" lon="6.5494">
        <ele>2034</ele>
        <time>2022-07-27T13:44:17Z</time>
      </trkpt>
      <trkpt lat="45.64677" lon="6.54939">
        <ele>2034</ele>
        <time>2022-07-27T13:44:18Z</time>
      </trkpt>
      <trkpt lat="45.64676" lon="6.54937">
        <ele>2034</ele>
        <time>2022-07-27T13:44:19Z</time>
      </trkpt>
      <trkpt lat="45.64675" lon="6.54936">
        <ele>2034</ele>
        <time>2022-07-27T13:44:20Z</time>
      </trkpt>
      <trkpt lat="45.64675" lon="6.54935">
        <ele>2035</ele>
        <time>2022-07-27T13:44:21Z</time>
      </trkpt>
      <trkpt lat="45.64674" lon="6.54934">
        <ele>2035</ele>
        <time>2022-07-27T13:44:22Z</time>
      </trkpt>
      <trkpt lat="45.64673" lon="6.54933">
        <ele>2035</ele>
        <time>2022-07-27T13:44:23Z</time>
      </trkpt>
      <trkpt lat="45.64673" lon="6.54932">
        <ele>2035</ele>
        <time>2022-07-27T13:44:24Z</time>
      </trkpt>
      <trkpt lat="45.64672" lon="6.54931">
        <ele>2035</ele>
        <time>2022-07-27T13:44:25Z</time>
      </trkpt>
      <trkpt lat="45.64671" lon="6.5493">
        <ele>2036</ele>
        <time>2022-07-27T13:44:26Z</time>
      </trkpt>
      <trkpt lat="45.64671" lon="6.54929">
        <ele>2036</ele>
        <time>2022-07-27T13:44:27Z</time>
      </trkpt>
      <trkpt lat="45.6467" lon="6.54928">
        <ele>2036</ele>
        <time>2022-07-27T13:44:28Z</time>
      </trkpt>
      <trkpt lat="45.6467" lon="6.54927">
        <ele>2036</ele>
        <time>2022-07-27T13:44:29Z</time>
      </trkpt>
      <trkpt lat="45.64669" lon="6.54926">
        <ele>2036</ele>
        <time>2022-07-27T13:44:30Z</time>
      </trkpt>
      <trkpt lat="45.64669" lon="6.54924">
        <ele>2036</ele>
        <time>2022-07-27T13:44:31Z</time>
      </trkpt>
      <trkpt lat="45.64668" lon="6.54923">
        <ele>2036</ele>
        <time>2022-07-27T13:44:32Z</time>
      </trkpt>
      <trkpt lat="45.64668" lon="6.54922">
        <ele>2036</ele>
        <time>2022-07-27T13:44:33Z</time>
      </trkpt>
      <trkpt lat="45.64667" lon="6.5492">
        <ele>2036</ele>
        <time>2022-07-27T13:44:34Z</time>
      </trkpt>
      <trkpt lat="45.64666" lon="6.54919">
        <ele>2036</ele>
        <time>2022-07-27T13:44:35Z</time>
      </trkpt>
      <trkpt lat="45.64666" lon="6.54918">
        <ele>2037</ele>
        <time>2022-07-27T13:44:36Z</time>
      </trkpt>
      <trkpt lat="45.64665" lon="6.54916">
        <ele>2037</ele>
        <time>2022-07-27T13:44:37Z</time>
      </trkpt>
      <trkpt lat="45.64665" lon="6.54915">
        <ele>2037</ele>
        <time>2022-07-27T13:44:38Z</time>
      </trkpt>
      <trkpt lat="45.64664" lon="6.54914">
        <ele>2037</ele>
        <time>2022-07-27T13:44:39Z</time>
      </trkpt>
      <trkpt lat="45.64664" lon="6.54913">
        <ele>2037</ele>
        <time>2022-07-27T13:44:40Z</time>
      </trkpt>
      <trkpt lat="45.64663" lon="6.54912">
        <ele>2038</ele>
        <time>2022-07-27T13:44:41Z</time>
      </trkpt>
      <trkpt lat="45.64662" lon="6.54912">
        <ele>2038</ele>
        <time>2022-07-27T13:44:42Z</time>
      </trkpt>
      <trkpt lat="45.64662" lon="6.54911">
        <ele>2038</ele>
        <time>2022-07-27T13:44:43Z</time>
      </trkpt>
      <trkpt lat="45.64661" lon="6.5491">
        <ele>2038</ele>
        <time>2022-07-27T13:44:44Z</time>
      </trkpt>
      <trkpt lat="45.64661" lon="6.5491">
        <ele>2038</ele>
        <time>2022-07-27T13:44:45Z</time>
      </trkpt>
      <trkpt lat="45.64661" lon="6.54909">
        <ele>2039</ele>
        <time>2022-07-27T13:44:46Z</time>
      </trkpt>
      <trkpt lat="45.6466" lon="6.54908">
        <ele>2039</ele>
        <time>2022-07-27T13:44:47Z</time>
      </trkpt>
      <trkpt lat="45.6466" lon="6.54907">
        <ele>2039</ele>
        <time>2022-07-27T13:44:48Z</time>
      </trkpt>
      <trkpt lat="45.6466" lon="6.54907">
        <ele>2039</ele>
        <time>2022-07-27T13:44:49Z</time>
      </trkpt>
      <trkpt lat="45.64659" lon="6.54905">
        <ele>2039</ele>
        <time>2022-07-27T13:44:50Z</time>
      </trkpt>
      <trkpt lat="45.64659" lon="6.54904">
        <ele>2039</ele>
        <time>2022-07-27T13:44:51Z</time>
      </trkpt>
      <trkpt lat="45.64658" lon="6.54903">
        <ele>2039</ele>
        <time>2022-07-27T13:44:52Z</time>
      </trkpt>
      <trkpt lat="45.64658" lon="6.54902">
        <ele>2039</ele>
        <time>2022-07-27T13:44:53Z</time>
      </trkpt>
      <trkpt lat="45.64657" lon="6.549">
        <ele>2039</ele>
        <time>2022-07-27T13:44:54Z</time>
      </trkpt>
      <trkpt lat="45.64656" lon="6.54899">
        <ele>2039</ele>
        <time>2022-07-27T13:44:55Z</time>
      </trkpt>
      <trkpt lat="45.64656" lon="6.54898">
        <ele>2039</ele>
        <time>2022-07-27T13:44:56Z</time>
      </trkpt>
      <trkpt lat="45.64655" lon="6.54897">
        <ele>2039</ele>
        <time>2022-07-27T13:44:57Z</time>
      </trkpt>
      <trkpt lat="45.64654" lon="6.54896">
        <ele>2039</ele>
        <time>2022-07-27T13:44:58Z</time>
      </trkpt>
      <trkpt lat="45.64653" lon="6.54894">
        <ele>2039</ele>
        <time>2022-07-27T13:44:59Z</time>
      </trkpt>
      <trkpt lat="45.64653" lon="6.54893">
        <ele>2039</ele>
        <time>2022-07-27T13:45:00Z</time>
      </trkpt>
      <trkpt lat="45.64652" lon="6.54893">
        <ele>2039</ele>
        <time>2022-07-27T13:45:01Z</time>
      </trkpt>
      <trkpt lat="45.64651" lon="6.54892">
        <ele>2039</ele>
        <time>2022-07-27T13:45:02Z</time>
      </trkpt>
      <trkpt lat="45.64651" lon="6.54891">
        <ele>2039</ele>
        <time>2022-07-27T13:45:03Z</time>
      </trkpt>
      <trkpt lat="45.6465" lon="6.5489">
        <ele>2039</ele>
        <time>2022-07-27T13:45:04Z</time>
      </trkpt>
      <trkpt lat="45.64649" lon="6.54889">
        <ele>2039</ele>
        <time>2022-07-27T13:45:05Z</time>
      </trkpt>
      <trkpt lat="45.64649" lon="6.54888">
        <ele>2040</ele>
        <time>2022-07-27T13:45:06Z</time>
      </trkpt>
      <trkpt lat="45.64648" lon="6.54887">
        <ele>2040</ele>
        <time>2022-07-27T13:45:07Z</time>
      </trkpt>
      <trkpt lat="45.64647" lon="6.54886">
        <ele>2040</ele>
        <time>2022-07-27T13:45:08Z</time>
      </trkpt>
      <trkpt lat="45.64647" lon="6.54885">
        <ele>2040</ele>
        <time>2022-07-27T13:45:09Z</time>
      </trkpt>
      <trkpt lat="45.64646" lon="6.54884">
        <ele>2040</ele>
        <time>2022-07-27T13:45:10Z</time>
      </trkpt>
      <trkpt lat="45.64646" lon="6.54883">
        <ele>2040</ele>
        <time>2022-07-27T13:45:11Z</time>
      </trkpt>
      <trkpt lat="45.64645" lon="6.54882">
        <ele>2040</ele>
        <time>2022-07-27T13:45:12Z</time>
      </trkpt>
      <trkpt lat="45.64644" lon="6.54881">
        <ele>2040</ele>
        <time>2022-07-27T13:45:13Z</time>
      </trkpt>
      <trkpt lat="45.64644" lon="6.54879">
        <ele>2040</ele>
        <time>2022-07-27T13:45:14Z</time>
      </trkpt>
      <trkpt lat="45.64643" lon="6.54878">
        <ele>2040</ele>
        <time>2022-07-27T13:45:15Z</time>
      </trkpt>
      <trkpt lat="45.64642" lon="6.54877">
        <ele>2041</ele>
        <time>2022-07-27T13:45:16Z</time>
      </trkpt>
      <trkpt lat="45.64642" lon="6.54876">
        <ele>2041</ele>
        <time>2022-07-27T13:45:17Z</time>
      </trkpt>
      <trkpt lat="45.64641" lon="6.54874">
        <ele>2041</ele>
        <time>2022-07-27T13:45:18Z</time>
      </trkpt>
      <trkpt lat="45.64641" lon="6.54873">
        <ele>2041</ele>
        <time>2022-07-27T13:45:19Z</time>
      </trkpt>
      <trkpt lat="45.6464" lon="6.54872">
        <ele>2041</ele>
        <time>2022-07-27T13:45:20Z</time>
      </trkpt>
      <trkpt lat="45.6464" lon="6.54871">
        <ele>2041</ele>
        <time>2022-07-27T13:45:21Z</time>
      </trkpt>
      <trkpt lat="45.64639" lon="6.5487">
        <ele>2041</ele>
        <time>2022-07-27T13:45:22Z</time>
      </trkpt>
      <trkpt lat="45.64639" lon="6.54869">
        <ele>2041</ele>
        <time>2022-07-27T13:45:23Z</time>
      </trkpt>
      <trkpt lat="45.64638" lon="6.54867">
        <ele>2041</ele>
        <time>2022-07-27T13:45:24Z</time>
      </trkpt>
      <trkpt lat="45.64638" lon="6.54866">
        <ele>2041</ele>
        <time>2022-07-27T13:45:25Z</time>
      </trkpt>
      <trkpt lat="45.64637" lon="6.54864">
        <ele>2041</ele>
        <time>2022-07-27T13:45:26Z</time>
      </trkpt>
      <trkpt lat="45.64637" lon="6.54863">
        <ele>2041</ele>
        <time>2022-07-27T13:45:27Z</time>
      </trkpt>
      <trkpt lat="45.64636" lon="6.54862">
        <ele>2041</ele>
        <time>2022-07-27T13:45:28Z</time>
      </trkpt>
      <trkpt lat="45.64635" lon="6.5486">
        <ele>2041</ele>
        <time>2022-07-27T13:45:29Z</time>
      </trkpt>
      <trkpt lat="45.64635" lon="6.54859">
        <ele>2041</ele>
        <time>2022-07-27T13:45:30Z</time>
      </trkpt>
      <trkpt lat="45.64634" lon="6.54858">
        <ele>2041</ele>
        <time>2022-07-27T13:45:31Z</time>
      </trkpt>
      <trkpt lat="45.64633" lon="6.54857">
        <ele>2041</ele>
        <time>2022-07-27T13:45:32Z</time>
      </trkpt>
      <trkpt lat="45.64633" lon="6.54856">
        <ele>2041</ele>
        <time>2022-07-27T13:45:33Z</time>
      </trkpt>
      <trkpt lat="45.64632" lon="6.54855">
        <ele>2041</ele>
        <time>2022-07-27T13:45:34Z</time>
      </trkpt>
      <trkpt lat="45.64631" lon="6.54854">
        <ele>2041</ele>
        <time>2022-07-27T13:45:35Z</time>
      </trkpt>
      <trkpt lat="45.6463" lon="6.54853">
        <ele>2041</ele>
        <time>2022-07-27T13:45:36Z</time>
      </trkpt>
      <trkpt lat="45.6463" lon="6.54852">
        <ele>2041</ele>
        <time>2022-07-27T13:45:37Z</time>
      </trkpt>
      <trkpt lat="45.64629" lon="6.54851">
        <ele>2041</ele>
        <time>2022-07-27T13:45:38Z</time>
      </trkpt>
      <trkpt lat="45.64628" lon="6.5485">
        <ele>2041</ele>
        <time>2022-07-27T13:45:39Z</time>
      </trkpt>
      <trkpt lat="45.64627" lon="6.54849">
        <ele>2041</ele>
        <time>2022-07-27T13:45:40Z</time>
      </trkpt>
      <trkpt lat="45.64627" lon="6.54848">
        <ele>2042</ele>
        <time>2022-07-27T13:45:41Z</time>
      </trkpt>
      <trkpt lat="45.64626" lon="6.54846">
        <ele>2042</ele>
        <time>2022-07-27T13:45:42Z</time>
      </trkpt>
      <trkpt lat="45.64625" lon="6.54845">
        <ele>2042</ele>
        <time>2022-07-27T13:45:43Z</time>
      </trkpt>
      <trkpt lat="45.64625" lon="6.54844">
        <ele>2042</ele>
        <time>2022-07-27T13:45:44Z</time>
      </trkpt>
      <trkpt lat="45.64624" lon="6.54842">
        <ele>2042</ele>
        <time>2022-07-27T13:45:45Z</time>
      </trkpt>
      <trkpt lat="45.64624" lon="6.54841">
        <ele>2042</ele>
        <time>2022-07-27T13:45:46Z</time>
      </trkpt>
      <trkpt lat="45.64623" lon="6.54839">
        <ele>2042</ele>
        <time>2022-07-27T13:45:47Z</time>
      </trkpt>
      <trkpt lat="45.64623" lon="6.54838">
        <ele>2042</ele>
        <time>2022-07-27T13:45:48Z</time>
      </trkpt>
      <trkpt lat="45.64622" lon="6.54836">
        <ele>2042</ele>
        <time>2022-07-27T13:45:49Z</time>
      </trkpt>
      <trkpt lat="45.64622" lon="6.54835">
        <ele>2042</ele>
        <time>2022-07-27T13:45:50Z</time>
      </trkpt>
      <trkpt lat="45.64621" lon="6.54833">
        <ele>2042</ele>
        <time>2022-07-27T13:45:51Z</time>
      </trkpt>
      <trkpt lat="45.6462" lon="6.54832">
        <ele>2042</ele>
        <time>2022-07-27T13:45:52Z</time>
      </trkpt>
      <trkpt lat="45.6462" lon="6.54831">
        <ele>2042</ele>
        <time>2022-07-27T13:45:53Z</time>
      </trkpt>
      <trkpt lat="45.64619" lon="6.5483">
        <ele>2042</ele>
        <time>2022-07-27T13:45:54Z</time>
      </trkpt>
      <trkpt lat="45.64618" lon="6.54829">
        <ele>2042</ele>
        <time>2022-07-27T13:45:55Z</time>
      </trkpt>
      <trkpt lat="45.64618" lon="6.54828">
        <ele>2043</ele>
        <time>2022-07-27T13:45:56Z</time>
      </trkpt>
      <trkpt lat="45.64617" lon="6.54827">
        <ele>2043</ele>
        <time>2022-07-27T13:45:57Z</time>
      </trkpt>
      <trkpt lat="45.64616" lon="6.54826">
        <ele>2043</ele>
        <time>2022-07-27T13:45:58Z</time>
      </trkpt>
      <trkpt lat="45.64615" lon="6.54825">
        <ele>2043</ele>
        <time>2022-07-27T13:45:59Z</time>
      </trkpt>
      <trkpt lat="45.64615" lon="6.54824">
        <ele>2043</ele>
        <time>2022-07-27T13:46:00Z</time>
      </trkpt>
      <trkpt lat="45.64614" lon="6.54823">
        <ele>2043</ele>
        <time>2022-07-27T13:46:01Z</time>
      </trkpt>
      <trkpt lat="45.64613" lon="6.54822">
        <ele>2043</ele>
        <time>2022-07-27T13:46:02Z</time>
      </trkpt>
      <trkpt lat="45.64613" lon="6.54821">
        <ele>2043</ele>
        <time>2022-07-27T13:46:03Z</time>
      </trkpt>
      <trkpt lat="45.64612" lon="6.5482">
        <ele>2043</ele>
        <time>2022-07-27T13:46:04Z</time>
      </trkpt>
      <trkpt lat="45.64611" lon="6.54819">
        <ele>2043</ele>
        <time>2022-07-27T13:46:05Z</time>
      </trkpt>
      <trkpt lat="45.64611" lon="6.54818">
        <ele>2044</ele>
        <time>2022-07-27T13:46:06Z</time>
      </trkpt>
      <trkpt lat="45.6461" lon="6.54817">
        <ele>2044</ele>
        <time>2022-07-27T13:46:07Z</time>
      </trkpt>
      <trkpt lat="45.6461" lon="6.54816">
        <ele>2044</ele>
        <time>2022-07-27T13:46:08Z</time>
      </trkpt>
      <trkpt lat="45.64609" lon="6.54814">
        <ele>2044</ele>
        <time>2022-07-27T13:46:09Z</time>
      </trkpt>
      <trkpt lat="45.64609" lon="6.54813">
        <ele>2044</ele>
        <time>2022-07-27T13:46:10Z</time>
      </trkpt>
      <trkpt lat="45.64608" lon="6.54812">
        <ele>2044</ele>
        <time>2022-07-27T13:46:11Z</time>
      </trkpt>
      <trkpt lat="45.64608" lon="6.54811">
        <ele>2044</ele>
        <time>2022-07-27T13:46:12Z</time>
      </trkpt>
      <trkpt lat="45.64607" lon="6.5481">
        <ele>2044</ele>
        <time>2022-07-27T13:46:13Z</time>
      </trkpt>
      <trkpt lat="45.64607" lon="6.54809">
        <ele>2044</ele>
        <time>2022-07-27T13:46:14Z</time>
      </trkpt>
      <trkpt lat="45.64606" lon="6.54808">
        <ele>2044</ele>
        <time>2022-07-27T13:46:15Z</time>
      </trkpt>
      <trkpt lat="45.64605" lon="6.54808">
        <ele>2045</ele>
        <time>2022-07-27T13:46:16Z</time>
      </trkpt>
      <trkpt lat="45.64604" lon="6.54807">
        <ele>2045</ele>
        <time>2022-07-27T13:46:17Z</time>
      </trkpt>
      <trkpt lat="45.64604" lon="6.54806">
        <ele>2045</ele>
        <time>2022-07-27T13:46:18Z</time>
      </trkpt>
      <trkpt lat="45.64603" lon="6.54805">
        <ele>2045</ele>
        <time>2022-07-27T13:46:19Z</time>
      </trkpt>
      <trkpt lat="45.64602" lon="6.54804">
        <ele>2045</ele>
        <time>2022-07-27T13:46:20Z</time>
      </trkpt>
      <trkpt lat="45.64601" lon="6.54803">
        <ele>2045</ele>
        <time>2022-07-27T13:46:21Z</time>
      </trkpt>
      <trkpt lat="45.64601" lon="6.54801">
        <ele>2045</ele>
        <time>2022-07-27T13:46:22Z</time>
      </trkpt>
      <trkpt lat="45.646" lon="6.548">
        <ele>2045</ele>
        <time>2022-07-27T13:46:23Z</time>
      </trkpt>
      <trkpt lat="45.64599" lon="6.54799">
        <ele>2045</ele>
        <time>2022-07-27T13:46:24Z</time>
      </trkpt>
      <trkpt lat="45.64598" lon="6.54798">
        <ele>2045</ele>
        <time>2022-07-27T13:46:25Z</time>
      </trkpt>
      <trkpt lat="45.64598" lon="6.54798">
        <ele>2046</ele>
        <time>2022-07-27T13:46:26Z</time>
      </trkpt>
      <trkpt lat="45.64597" lon="6.54797">
        <ele>2046</ele>
        <time>2022-07-27T13:46:27Z</time>
      </trkpt>
      <trkpt lat="45.64596" lon="6.54796">
        <ele>2046</ele>
        <time>2022-07-27T13:46:28Z</time>
      </trkpt>
      <trkpt lat="45.64596" lon="6.54795">
        <ele>2046</ele>
        <time>2022-07-27T13:46:29Z</time>
      </trkpt>
      <trkpt lat="45.64595" lon="6.54794">
        <ele>2046</ele>
        <time>2022-07-27T13:46:30Z</time>
      </trkpt>
      <trkpt lat="45.64595" lon="6.54792">
        <ele>2046</ele>
        <time>2022-07-27T13:46:31Z</time>
      </trkpt>
      <trkpt lat="45.64594" lon="6.54791">
        <ele>2046</ele>
        <time>2022-07-27T13:46:32Z</time>
      </trkpt>
      <trkpt lat="45.64594" lon="6.5479">
        <ele>2046</ele>
        <time>2022-07-27T13:46:33Z</time>
      </trkpt>
      <trkpt lat="45.64593" lon="6.54789">
        <ele>2046</ele>
        <time>2022-07-27T13:46:34Z</time>
      </trkpt>
      <trkpt lat="45.64593" lon="6.54787">
        <ele>2046</ele>
        <time>2022-07-27T13:46:35Z</time>
      </trkpt>
      <trkpt lat="45.64592" lon="6.54786">
        <ele>2047</ele>
        <time>2022-07-27T13:46:36Z</time>
      </trkpt>
      <trkpt lat="45.64592" lon="6.54785">
        <ele>2047</ele>
        <time>2022-07-27T13:46:37Z</time>
      </trkpt>
      <trkpt lat="45.64591" lon="6.54784">
        <ele>2047</ele>
        <time>2022-07-27T13:46:38Z</time>
      </trkpt>
      <trkpt lat="45.6459" lon="6.54783">
        <ele>2047</ele>
        <time>2022-07-27T13:46:39Z</time>
      </trkpt>
      <trkpt lat="45.6459" lon="6.54782">
        <ele>2047</ele>
        <time>2022-07-27T13:46:40Z</time>
      </trkpt>
      <trkpt lat="45.64589" lon="6.54781">
        <ele>2048</ele>
        <time>2022-07-27T13:46:41Z</time>
      </trkpt>
      <trkpt lat="45.64589" lon="6.54781">
        <ele>2048</ele>
        <time>2022-07-27T13:46:42Z</time>
      </trkpt>
      <trkpt lat="45.64589" lon="6.5478">
        <ele>2048</ele>
        <time>2022-07-27T13:46:43Z</time>
      </trkpt>
      <trkpt lat="45.64588" lon="6.54779">
        <ele>2048</ele>
        <time>2022-07-27T13:46:44Z</time>
      </trkpt>
      <trkpt lat="45.64588" lon="6.54778">
        <ele>2048</ele>
        <time>2022-07-27T13:46:45Z</time>
      </trkpt>
      <trkpt lat="45.64588" lon="6.54777">
        <ele>2048</ele>
        <time>2022-07-27T13:46:46Z</time>
      </trkpt>
      <trkpt lat="45.64587" lon="6.54776">
        <ele>2048</ele>
        <time>2022-07-27T13:46:47Z</time>
      </trkpt>
      <trkpt lat="45.64587" lon="6.54775">
        <ele>2048</ele>
        <time>2022-07-27T13:46:48Z</time>
      </trkpt>
      <trkpt lat="45.64587" lon="6.54774">
        <ele>2048</ele>
        <time>2022-07-27T13:46:49Z</time>
      </trkpt>
      <trkpt lat="45.64586" lon="6.54773">
        <ele>2048</ele>
        <time>2022-07-27T13:46:50Z</time>
      </trkpt>
      <trkpt lat="45.64586" lon="6.54771">
        <ele>2048</ele>
        <time>2022-07-27T13:46:51Z</time>
      </trkpt>
      <trkpt lat="45.64585" lon="6.5477">
        <ele>2048</ele>
        <time>2022-07-27T13:46:52Z</time>
      </trkpt>
      <trkpt lat="45.64584" lon="6.54768">
        <ele>2048</ele>
        <time>2022-07-27T13:46:53Z</time>
      </trkpt>
      <trkpt lat="45.64584" lon="6.54767">
        <ele>2048</ele>
        <time>2022-07-27T13:46:54Z</time>
      </trkpt>
      <trkpt lat="45.64583" lon="6.54766">
        <ele>2048</ele>
        <time>2022-07-27T13:46:55Z</time>
      </trkpt>
      <trkpt lat="45.64583" lon="6.54764">
        <ele>2049</ele>
        <time>2022-07-27T13:46:56Z</time>
      </trkpt>
      <trkpt lat="45.64582" lon="6.54763">
        <ele>2049</ele>
        <time>2022-07-27T13:46:57Z</time>
      </trkpt>
      <trkpt lat="45.64581" lon="6.54762">
        <ele>2049</ele>
        <time>2022-07-27T13:46:58Z</time>
      </trkpt>
      <trkpt lat="45.6458" lon="6.54761">
        <ele>2049</ele>
        <time>2022-07-27T13:46:59Z</time>
      </trkpt>
      <trkpt lat="45.6458" lon="6.5476">
        <ele>2049</ele>
        <time>2022-07-27T13:47:00Z</time>
      </trkpt>
      <trkpt lat="45.64579" lon="6.54759">
        <ele>2049</ele>
        <time>2022-07-27T13:47:01Z</time>
      </trkpt>
      <trkpt lat="45.64579" lon="6.54757">
        <ele>2049</ele>
        <time>2022-07-27T13:47:02Z</time>
      </trkpt>
      <trkpt lat="45.64578" lon="6.54756">
        <ele>2049</ele>
        <time>2022-07-27T13:47:03Z</time>
      </trkpt>
      <trkpt lat="45.64578" lon="6.54755">
        <ele>2049</ele>
        <time>2022-07-27T13:47:04Z</time>
      </trkpt>
      <trkpt lat="45.64577" lon="6.54754">
        <ele>2049</ele>
        <time>2022-07-27T13:47:05Z</time>
      </trkpt>
      <trkpt lat="45.64576" lon="6.54753">
        <ele>2050</ele>
        <time>2022-07-27T13:47:06Z</time>
      </trkpt>
      <trkpt lat="45.64576" lon="6.54752">
        <ele>2050</ele>
        <time>2022-07-27T13:47:07Z</time>
      </trkpt>
      <trkpt lat="45.64575" lon="6.54751">
        <ele>2050</ele>
        <time>2022-07-27T13:47:08Z</time>
      </trkpt>
      <trkpt lat="45.64574" lon="6.5475">
        <ele>2050</ele>
        <time>2022-07-27T13:47:09Z</time>
      </trkpt>
      <trkpt lat="45.64574" lon="6.54749">
        <ele>2050</ele>
        <time>2022-07-27T13:47:10Z</time>
      </trkpt>
      <trkpt lat="45.64573" lon="6.54747">
        <ele>2050</ele>
        <time>2022-07-27T13:47:11Z</time>
      </trkpt>
      <trkpt lat="45.64573" lon="6.54746">
        <ele>2050</ele>
        <time>2022-07-27T13:47:12Z</time>
      </trkpt>
      <trkpt lat="45.64572" lon="6.54745">
        <ele>2050</ele>
        <time>2022-07-27T13:47:13Z</time>
      </trkpt>
      <trkpt lat="45.64572" lon="6.54743">
        <ele>2050</ele>
        <time>2022-07-27T13:47:14Z</time>
      </trkpt>
      <trkpt lat="45.64571" lon="6.54742">
        <ele>2050</ele>
        <time>2022-07-27T13:47:15Z</time>
      </trkpt>
      <trkpt lat="45.64571" lon="6.5474">
        <ele>2050</ele>
        <time>2022-07-27T13:47:16Z</time>
      </trkpt>
      <trkpt lat="45.6457" lon="6.54738">
        <ele>2050</ele>
        <time>2022-07-27T13:47:17Z</time>
      </trkpt>
      <trkpt lat="45.6457" lon="6.54737">
        <ele>2050</ele>
        <time>2022-07-27T13:47:18Z</time>
      </trkpt>
      <trkpt lat="45.64569" lon="6.54735">
        <ele>2050</ele>
        <time>2022-07-27T13:47:19Z</time>
      </trkpt>
      <trkpt lat="45.64569" lon="6.54734">
        <ele>2050</ele>
        <time>2022-07-27T13:47:20Z</time>
      </trkpt>
      <trkpt lat="45.64569" lon="6.54732">
        <ele>2050</ele>
        <time>2022-07-27T13:47:21Z</time>
      </trkpt>
      <trkpt lat="45.64568" lon="6.54731">
        <ele>2050</ele>
        <time>2022-07-27T13:47:22Z</time>
      </trkpt>
      <trkpt lat="45.64568" lon="6.54729">
        <ele>2050</ele>
        <time>2022-07-27T13:47:23Z</time>
      </trkpt>
      <trkpt lat="45.64568" lon="6.54727">
        <ele>2050</ele>
        <time>2022-07-27T13:47:24Z</time>
      </trkpt>
      <trkpt lat="45.64567" lon="6.54726">
        <ele>2050</ele>
        <time>2022-07-27T13:47:25Z</time>
      </trkpt>
      <trkpt lat="45.64567" lon="6.54725">
        <ele>2050</ele>
        <time>2022-07-27T13:47:26Z</time>
      </trkpt>
      <trkpt lat="45.64566" lon="6.54724">
        <ele>2050</ele>
        <time>2022-07-27T13:47:27Z</time>
      </trkpt>
      <trkpt lat="45.64565" lon="6.54723">
        <ele>2050</ele>
        <time>2022-07-27T13:47:28Z</time>
      </trkpt>
      <trkpt lat="45.64565" lon="6.54722">
        <ele>2050</ele>
        <time>2022-07-27T13:47:29Z</time>
      </trkpt>
      <trkpt lat="45.64564" lon="6.54721">
        <ele>2050</ele>
        <time>2022-07-27T13:47:30Z</time>
      </trkpt>
      <trkpt lat="45.64564" lon="6.5472">
        <ele>2050</ele>
        <time>2022-07-27T13:47:31Z</time>
      </trkpt>
      <trkpt lat="45.64563" lon="6.54719">
        <ele>2050</ele>
        <time>2022-07-27T13:47:32Z</time>
      </trkpt>
      <trkpt lat="45.64563" lon="6.54718">
        <ele>2050</ele>
        <time>2022-07-27T13:47:33Z</time>
      </trkpt>
      <trkpt lat="45.64562" lon="6.54717">
        <ele>2050</ele>
        <time>2022-07-27T13:47:34Z</time>
      </trkpt>
      <trkpt lat="45.64562" lon="6.54716">
        <ele>2050</ele>
        <time>2022-07-27T13:47:35Z</time>
      </trkpt>
      <trkpt lat="45.64561" lon="6.54715">
        <ele>2050</ele>
        <time>2022-07-27T13:47:36Z</time>
      </trkpt>
      <trkpt lat="45.64561" lon="6.54714">
        <ele>2050</ele>
        <time>2022-07-27T13:47:37Z</time>
      </trkpt>
      <trkpt lat="45.6456" lon="6.54712">
        <ele>2050</ele>
        <time>2022-07-27T13:47:38Z</time>
      </trkpt>
      <trkpt lat="45.6456" lon="6.54711">
        <ele>2050</ele>
        <time>2022-07-27T13:47:39Z</time>
      </trkpt>
      <trkpt lat="45.64559" lon="6.5471">
        <ele>2050</ele>
        <time>2022-07-27T13:47:40Z</time>
      </trkpt>
      <trkpt lat="45.64559" lon="6.54708">
        <ele>2050</ele>
        <time>2022-07-27T13:47:41Z</time>
      </trkpt>
      <trkpt lat="45.64559" lon="6.54707">
        <ele>2050</ele>
        <time>2022-07-27T13:47:42Z</time>
      </trkpt>
      <trkpt lat="45.64559" lon="6.54706">
        <ele>2050</ele>
        <time>2022-07-27T13:47:43Z</time>
      </trkpt>
      <trkpt lat="45.64558" lon="6.54704">
        <ele>2050</ele>
        <time>2022-07-27T13:47:44Z</time>
      </trkpt>
      <trkpt lat="45.64558" lon="6.54703">
        <ele>2050</ele>
        <time>2022-07-27T13:47:45Z</time>
      </trkpt>
      <trkpt lat="45.64558" lon="6.54702">
        <ele>2050</ele>
        <time>2022-07-27T13:47:46Z</time>
      </trkpt>
      <trkpt lat="45.64557" lon="6.547">
        <ele>2050</ele>
        <time>2022-07-27T13:47:47Z</time>
      </trkpt>
      <trkpt lat="45.64557" lon="6.54699">
        <ele>2050</ele>
        <time>2022-07-27T13:47:48Z</time>
      </trkpt>
      <trkpt lat="45.64557" lon="6.54698">
        <ele>2050</ele>
        <time>2022-07-27T13:47:49Z</time>
      </trkpt>
      <trkpt lat="45.64556" lon="6.54696">
        <ele>2050</ele>
        <time>2022-07-27T13:47:50Z</time>
      </trkpt>
      <trkpt lat="45.64556" lon="6.54694">
        <ele>2050</ele>
        <time>2022-07-27T13:47:51Z</time>
      </trkpt>
      <trkpt lat="45.64556" lon="6.54693">
        <ele>2050</ele>
        <time>2022-07-27T13:47:52Z</time>
      </trkpt>
      <trkpt lat="45.64555" lon="6.54691">
        <ele>2050</ele>
        <time>2022-07-27T13:47:53Z</time>
      </trkpt>
      <trkpt lat="45.64555" lon="6.5469">
        <ele>2050</ele>
        <time>2022-07-27T13:47:54Z</time>
      </trkpt>
      <trkpt lat="45.64555" lon="6.54688">
        <ele>2050</ele>
        <time>2022-07-27T13:47:55Z</time>
      </trkpt>
      <trkpt lat="45.64555" lon="6.54686">
        <ele>2050</ele>
        <time>2022-07-27T13:47:56Z</time>
      </trkpt>
      <trkpt lat="45.64554" lon="6.54685">
        <ele>2049</ele>
        <time>2022-07-27T13:47:57Z</time>
      </trkpt>
      <trkpt lat="45.64554" lon="6.54683">
        <ele>2049</ele>
        <time>2022-07-27T13:47:58Z</time>
      </trkpt>
      <trkpt lat="45.64554" lon="6.54682">
        <ele>2049</ele>
        <time>2022-07-27T13:47:59Z</time>
      </trkpt>
      <trkpt lat="45.64553" lon="6.54681">
        <ele>2049</ele>
        <time>2022-07-27T13:48:00Z</time>
      </trkpt>
      <trkpt lat="45.64553" lon="6.54679">
        <ele>2049</ele>
        <time>2022-07-27T13:48:01Z</time>
      </trkpt>
      <trkpt lat="45.64552" lon="6.54678">
        <ele>2049</ele>
        <time>2022-07-27T13:48:02Z</time>
      </trkpt>
      <trkpt lat="45.64551" lon="6.54676">
        <ele>2049</ele>
        <time>2022-07-27T13:48:03Z</time>
      </trkpt>
      <trkpt lat="45.64551" lon="6.54675">
        <ele>2049</ele>
        <time>2022-07-27T13:48:04Z</time>
      </trkpt>
      <trkpt lat="45.64551" lon="6.54673">
        <ele>2049</ele>
        <time>2022-07-27T13:48:05Z</time>
      </trkpt>
      <trkpt lat="45.6455" lon="6.54672">
        <ele>2049</ele>
        <time>2022-07-27T13:48:06Z</time>
      </trkpt>
      <trkpt lat="45.6455" lon="6.5467">
        <ele>2049</ele>
        <time>2022-07-27T13:48:07Z</time>
      </trkpt>
      <trkpt lat="45.6455" lon="6.54669">
        <ele>2049</ele>
        <time>2022-07-27T13:48:08Z</time>
      </trkpt>
      <trkpt lat="45.64549" lon="6.54667">
        <ele>2049</ele>
        <time>2022-07-27T13:48:09Z</time>
      </trkpt>
      <trkpt lat="45.64549" lon="6.54665">
        <ele>2049</ele>
        <time>2022-07-27T13:48:10Z</time>
      </trkpt>
      <trkpt lat="45.64548" lon="6.54664">
        <ele>2049</ele>
        <time>2022-07-27T13:48:11Z</time>
      </trkpt>
      <trkpt lat="45.64548" lon="6.54662">
        <ele>2048</ele>
        <time>2022-07-27T13:48:12Z</time>
      </trkpt>
      <trkpt lat="45.64548" lon="6.54661">
        <ele>2048</ele>
        <time>2022-07-27T13:48:13Z</time>
      </trkpt>
      <trkpt lat="45.64547" lon="6.5466">
        <ele>2048</ele>
        <time>2022-07-27T13:48:14Z</time>
      </trkpt>
      <trkpt lat="45.64547" lon="6.54658">
        <ele>2048</ele>
        <time>2022-07-27T13:48:15Z</time>
      </trkpt>
      <trkpt lat="45.64547" lon="6.54657">
        <ele>2048</ele>
        <time>2022-07-27T13:48:16Z</time>
      </trkpt>
      <trkpt lat="45.64547" lon="6.54655">
        <ele>2047</ele>
        <time>2022-07-27T13:48:17Z</time>
      </trkpt>
      <trkpt lat="45.64546" lon="6.54654">
        <ele>2047</ele>
        <time>2022-07-27T13:48:18Z</time>
      </trkpt>
      <trkpt lat="45.64546" lon="6.54653">
        <ele>2047</ele>
        <time>2022-07-27T13:48:19Z</time>
      </trkpt>
      <trkpt lat="45.64546" lon="6.54651">
        <ele>2047</ele>
        <time>2022-07-27T13:48:20Z</time>
      </trkpt>
      <trkpt lat="45.64545" lon="6.5465">
        <ele>2047</ele>
        <time>2022-07-27T13:48:21Z</time>
      </trkpt>
      <trkpt lat="45.64545" lon="6.54648">
        <ele>2047</ele>
        <time>2022-07-27T13:48:22Z</time>
      </trkpt>
      <trkpt lat="45.64545" lon="6.54647">
        <ele>2047</ele>
        <time>2022-07-27T13:48:23Z</time>
      </trkpt>
      <trkpt lat="45.64545" lon="6.54645">
        <ele>2047</ele>
        <time>2022-07-27T13:48:24Z</time>
      </trkpt>
      <trkpt lat="45.64545" lon="6.54644">
        <ele>2047</ele>
        <time>2022-07-27T13:48:25Z</time>
      </trkpt>
      <trkpt lat="45.64545" lon="6.54642">
        <ele>2047</ele>
        <time>2022-07-27T13:48:26Z</time>
      </trkpt>
      <trkpt lat="45.64544" lon="6.54641">
        <ele>2046</ele>
        <time>2022-07-27T13:48:27Z</time>
      </trkpt>
      <trkpt lat="45.64544" lon="6.54639">
        <ele>2046</ele>
        <time>2022-07-27T13:48:28Z</time>
      </trkpt>
      <trkpt lat="45.64543" lon="6.54638">
        <ele>2046</ele>
        <time>2022-07-27T13:48:29Z</time>
      </trkpt>
      <trkpt lat="45.64543" lon="6.54637">
        <ele>2046</ele>
        <time>2022-07-27T13:48:30Z</time>
      </trkpt>
      <trkpt lat="45.64542" lon="6.54635">
        <ele>2046</ele>
        <time>2022-07-27T13:48:31Z</time>
      </trkpt>
      <trkpt lat="45.64542" lon="6.54634">
        <ele>2045</ele>
        <time>2022-07-27T13:48:32Z</time>
      </trkpt>
      <trkpt lat="45.64541" lon="6.54633">
        <ele>2045</ele>
        <time>2022-07-27T13:48:33Z</time>
      </trkpt>
      <trkpt lat="45.64541" lon="6.54632">
        <ele>2045</ele>
        <time>2022-07-27T13:48:34Z</time>
      </trkpt>
      <trkpt lat="45.64541" lon="6.5463">
        <ele>2045</ele>
        <time>2022-07-27T13:48:35Z</time>
      </trkpt>
      <trkpt lat="45.64541" lon="6.54629">
        <ele>2045</ele>
        <time>2022-07-27T13:48:36Z</time>
      </trkpt>
      <trkpt lat="45.6454" lon="6.54628">
        <ele>2045</ele>
        <time>2022-07-27T13:48:37Z</time>
      </trkpt>
      <trkpt lat="45.6454" lon="6.54627">
        <ele>2045</ele>
        <time>2022-07-27T13:48:38Z</time>
      </trkpt>
      <trkpt lat="45.6454" lon="6.54625">
        <ele>2045</ele>
        <time>2022-07-27T13:48:39Z</time>
      </trkpt>
      <trkpt lat="45.6454" lon="6.54624">
        <ele>2045</ele>
        <time>2022-07-27T13:48:40Z</time>
      </trkpt>
      <trkpt lat="45.64539" lon="6.54623">
        <ele>2045</ele>
        <time>2022-07-27T13:48:41Z</time>
      </trkpt>
      <trkpt lat="45.64539" lon="6.54622">
        <ele>2045</ele>
        <time>2022-07-27T13:48:42Z</time>
      </trkpt>
      <trkpt lat="45.64539" lon="6.54621">
        <ele>2045</ele>
        <time>2022-07-27T13:48:43Z</time>
      </trkpt>
      <trkpt lat="45.64539" lon="6.5462">
        <ele>2045</ele>
        <time>2022-07-27T13:48:44Z</time>
      </trkpt>
      <trkpt lat="45.64539" lon="6.54619">
        <ele>2045</ele>
        <time>2022-07-27T13:48:45Z</time>
      </trkpt>
      <trkpt lat="45.64539" lon="6.54618">
        <ele>2045</ele>
        <time>2022-07-27T13:48:46Z</time>
      </trkpt>
      <trkpt lat="45.64539" lon="6.54617">
        <ele>2045</ele>
        <time>2022-07-27T13:48:47Z</time>
      </trkpt>
      <trkpt lat="45.64539" lon="6.54615">
        <ele>2045</ele>
        <time>2022-07-27T13:48:48Z</time>
      </trkpt>
      <trkpt lat="45.6454" lon="6.54614">
        <ele>2045</ele>
        <time>2022-07-27T13:48:49Z</time>
      </trkpt>
      <trkpt lat="45.6454" lon="6.54613">
        <ele>2045</ele>
        <time>2022-07-27T13:48:50Z</time>
      </trkpt>
      <trkpt lat="45.6454" lon="6.54612">
        <ele>2045</ele>
        <time>2022-07-27T13:48:51Z</time>
      </trkpt>
      <trkpt lat="45.6454" lon="6.54611">
        <ele>2045</ele>
        <time>2022-07-27T13:48:52Z</time>
      </trkpt>
      <trkpt lat="45.6454" lon="6.5461">
        <ele>2045</ele>
        <time>2022-07-27T13:48:53Z</time>
      </trkpt>
      <trkpt lat="45.6454" lon="6.54609">
        <ele>2045</ele>
        <time>2022-07-27T13:48:54Z</time>
      </trkpt>
      <trkpt lat="45.6454" lon="6.54609">
        <ele>2045</ele>
        <time>2022-07-27T13:48:55Z</time>
      </trkpt>
      <trkpt lat="45.6454" lon="6.54608">
        <ele>2046</ele>
        <time>2022-07-27T13:48:56Z</time>
      </trkpt>
      <trkpt lat="45.6454" lon="6.54607">
        <ele>2046</ele>
        <time>2022-07-27T13:48:57Z</time>
      </trkpt>
      <trkpt lat="45.6454" lon="6.54606">
        <ele>2046</ele>
        <time>2022-07-27T13:48:58Z</time>
      </trkpt>
      <trkpt lat="45.6454" lon="6.54605">
        <ele>2046</ele>
        <time>2022-07-27T13:48:59Z</time>
      </trkpt>
      <trkpt lat="45.6454" lon="6.54604">
        <ele>2046</ele>
        <time>2022-07-27T13:49:00Z</time>
      </trkpt>
      <trkpt lat="45.6454" lon="6.54603">
        <ele>2047</ele>
        <time>2022-07-27T13:49:01Z</time>
      </trkpt>
      <trkpt lat="45.6454" lon="6.54602">
        <ele>2047</ele>
        <time>2022-07-27T13:49:02Z</time>
      </trkpt>
      <trkpt lat="45.6454" lon="6.54601">
        <ele>2047</ele>
        <time>2022-07-27T13:49:03Z</time>
      </trkpt>
      <trkpt lat="45.64539" lon="6.546">
        <ele>2049</ele>
        <time>2022-07-27T13:53:44Z</time>
      </trkpt>
      <trkpt lat="45.64539" lon="6.54599">
        <ele>2049</ele>
        <time>2022-07-27T13:53:45Z</time>
      </trkpt>
      <trkpt lat="45.64539" lon="6.54598">
        <ele>2049</ele>
        <time>2022-07-27T13:53:46Z</time>
      </trkpt>
      <trkpt lat="45.64538" lon="6.54598">
        <ele>2049</ele>
        <time>2022-07-27T13:53:47Z</time>
      </trkpt>
      <trkpt lat="45.64538" lon="6.54597">
        <ele>2049</ele>
        <time>2022-07-27T13:53:48Z</time>
      </trkpt>
      <trkpt lat="45.64537" lon="6.54595">
        <ele>2049</ele>
        <time>2022-07-27T13:53:56Z</time>
      </trkpt>
      <trkpt lat="45.64536" lon="6.54594">
        <ele>2049</ele>
        <time>2022-07-27T13:53:57Z</time>
      </trkpt>
      <trkpt lat="45.64536" lon="6.54593">
        <ele>2049</ele>
        <time>2022-07-27T13:53:58Z</time>
      </trkpt>
      <trkpt lat="45.64535" lon="6.54592">
        <ele>2049</ele>
        <time>2022-07-27T13:53:59Z</time>
      </trkpt>
      <trkpt lat="45.64535" lon="6.54591">
        <ele>2049</ele>
        <time>2022-07-27T13:54:00Z</time>
      </trkpt>
      <trkpt lat="45.64534" lon="6.54591">
        <ele>2049</ele>
        <time>2022-07-27T13:54:01Z</time>
      </trkpt>
      <trkpt lat="45.64534" lon="6.5459">
        <ele>2049</ele>
        <time>2022-07-27T13:54:02Z</time>
      </trkpt>
      <trkpt lat="45.64533" lon="6.54588">
        <ele>2049</ele>
        <time>2022-07-27T13:54:15Z</time>
      </trkpt>
      <trkpt lat="45.64533" lon="6.54587">
        <ele>2049</ele>
        <time>2022-07-27T13:54:16Z</time>
      </trkpt>
      <trkpt lat="45.64532" lon="6.54587">
        <ele>2049</ele>
        <time>2022-07-27T13:54:17Z</time>
      </trkpt>
      <trkpt lat="45.64532" lon="6.54586">
        <ele>2049</ele>
        <time>2022-07-27T13:54:18Z</time>
      </trkpt>
      <trkpt lat="45.64532" lon="6.54585">
        <ele>2049</ele>
        <time>2022-07-27T13:54:19Z</time>
      </trkpt>
      <trkpt lat="45.64531" lon="6.54585">
        <ele>2049</ele>
        <time>2022-07-27T13:54:20Z</time>
      </trkpt>
      <trkpt lat="45.64531" lon="6.54584">
        <ele>2050</ele>
        <time>2022-07-27T13:54:21Z</time>
      </trkpt>
      <trkpt lat="45.6453" lon="6.54583">
        <ele>2050</ele>
        <time>2022-07-27T13:54:22Z</time>
      </trkpt>
      <trkpt lat="45.6453" lon="6.54582">
        <ele>2050</ele>
        <time>2022-07-27T13:54:23Z</time>
      </trkpt>
      <trkpt lat="45.6453" lon="6.54582">
        <ele>2050</ele>
        <time>2022-07-27T13:54:24Z</time>
      </trkpt>
      <trkpt lat="45.64529" lon="6.54581">
        <ele>2050</ele>
        <time>2022-07-27T13:54:25Z</time>
      </trkpt>
      <trkpt lat="45.64529" lon="6.5458">
        <ele>2050</ele>
        <time>2022-07-27T13:54:26Z</time>
      </trkpt>
      <trkpt lat="45.64529" lon="6.54579">
        <ele>2050</ele>
        <time>2022-07-27T13:54:27Z</time>
      </trkpt>
      <trkpt lat="45.64528" lon="6.54579">
        <ele>2050</ele>
        <time>2022-07-27T13:54:28Z</time>
      </trkpt>
      <trkpt lat="45.64528" lon="6.54578">
        <ele>2050</ele>
        <time>2022-07-27T13:54:29Z</time>
      </trkpt>
      <trkpt lat="45.64528" lon="6.54577">
        <ele>2050</ele>
        <time>2022-07-27T13:54:30Z</time>
      </trkpt>
      <trkpt lat="45.64527" lon="6.54577">
        <ele>2051</ele>
        <time>2022-07-27T13:54:31Z</time>
      </trkpt>
      <trkpt lat="45.64527" lon="6.54576">
        <ele>2051</ele>
        <time>2022-07-27T13:54:32Z</time>
      </trkpt>
      <trkpt lat="45.64527" lon="6.54575">
        <ele>2051</ele>
        <time>2022-07-27T13:54:33Z</time>
      </trkpt>
      <trkpt lat="45.64526" lon="6.54575">
        <ele>2051</ele>
        <time>2022-07-27T13:54:34Z</time>
      </trkpt>
      <trkpt lat="45.64526" lon="6.54574">
        <ele>2051</ele>
        <time>2022-07-27T13:54:35Z</time>
      </trkpt>
      <trkpt lat="45.64526" lon="6.54573">
        <ele>2051</ele>
        <time>2022-07-27T13:54:36Z</time>
      </trkpt>
      <trkpt lat="45.64526" lon="6.54572">
        <ele>2051</ele>
        <time>2022-07-27T13:54:37Z</time>
      </trkpt>
      <trkpt lat="45.64525" lon="6.54571">
        <ele>2051</ele>
        <time>2022-07-27T13:54:38Z</time>
      </trkpt>
      <trkpt lat="45.64525" lon="6.5457">
        <ele>2051</ele>
        <time>2022-07-27T13:54:39Z</time>
      </trkpt>
      <trkpt lat="45.64524" lon="6.54569">
        <ele>2051</ele>
        <time>2022-07-27T13:54:40Z</time>
      </trkpt>
      <trkpt lat="45.64524" lon="6.54568">
        <ele>2051</ele>
        <time>2022-07-27T13:54:41Z</time>
      </trkpt>
      <trkpt lat="45.64523" lon="6.54567">
        <ele>2051</ele>
        <time>2022-07-27T13:54:42Z</time>
      </trkpt>
      <trkpt lat="45.64523" lon="6.54566">
        <ele>2051</ele>
        <time>2022-07-27T13:54:43Z</time>
      </trkpt>
      <trkpt lat="45.64522" lon="6.54565">
        <ele>2051</ele>
        <time>2022-07-27T13:54:44Z</time>
      </trkpt>
      <trkpt lat="45.64521" lon="6.54564">
        <ele>2051</ele>
        <time>2022-07-27T13:54:45Z</time>
      </trkpt>
      <trkpt lat="45.64521" lon="6.54563">
        <ele>2052</ele>
        <time>2022-07-27T13:54:46Z</time>
      </trkpt>
      <trkpt lat="45.64521" lon="6.54561">
        <ele>2052</ele>
        <time>2022-07-27T13:54:47Z</time>
      </trkpt>
      <trkpt lat="45.6452" lon="6.5456">
        <ele>2052</ele>
        <time>2022-07-27T13:54:48Z</time>
      </trkpt>
      <trkpt lat="45.6452" lon="6.54559">
        <ele>2052</ele>
        <time>2022-07-27T13:54:49Z</time>
      </trkpt>
      <trkpt lat="45.6452" lon="6.54557">
        <ele>2052</ele>
        <time>2022-07-27T13:54:50Z</time>
      </trkpt>
      <trkpt lat="45.64519" lon="6.54556">
        <ele>2052</ele>
        <time>2022-07-27T13:54:51Z</time>
      </trkpt>
      <trkpt lat="45.64519" lon="6.54555">
        <ele>2051</ele>
        <time>2022-07-27T13:54:52Z</time>
      </trkpt>
      <trkpt lat="45.64519" lon="6.54553">
        <ele>2051</ele>
        <time>2022-07-27T13:54:53Z</time>
      </trkpt>
      <trkpt lat="45.64519" lon="6.54552">
        <ele>2051</ele>
        <time>2022-07-27T13:54:54Z</time>
      </trkpt>
      <trkpt lat="45.64519" lon="6.54551">
        <ele>2051</ele>
        <time>2022-07-27T13:54:55Z</time>
      </trkpt>
      <trkpt lat="45.64518" lon="6.54549">
        <ele>2051</ele>
        <time>2022-07-27T13:54:56Z</time>
      </trkpt>
      <trkpt lat="45.64518" lon="6.54547">
        <ele>2051</ele>
        <time>2022-07-27T13:54:57Z</time>
      </trkpt>
      <trkpt lat="45.64517" lon="6.54546">
        <ele>2051</ele>
        <time>2022-07-27T13:54:58Z</time>
      </trkpt>
      <trkpt lat="45.64517" lon="6.54544">
        <ele>2051</ele>
        <time>2022-07-27T13:54:59Z</time>
      </trkpt>
      <trkpt lat="45.64517" lon="6.54542">
        <ele>2051</ele>
        <time>2022-07-27T13:55:00Z</time>
      </trkpt>
      <trkpt lat="45.64516" lon="6.54541">
        <ele>2051</ele>
        <time>2022-07-27T13:55:01Z</time>
      </trkpt>
      <trkpt lat="45.64516" lon="6.54539">
        <ele>2051</ele>
        <time>2022-07-27T13:55:02Z</time>
      </trkpt>
      <trkpt lat="45.64515" lon="6.54538">
        <ele>2051</ele>
        <time>2022-07-27T13:55:03Z</time>
      </trkpt>
      <trkpt lat="45.64515" lon="6.54536">
        <ele>2051</ele>
        <time>2022-07-27T13:55:04Z</time>
      </trkpt>
      <trkpt lat="45.64514" lon="6.54535">
        <ele>2051</ele>
        <time>2022-07-27T13:55:05Z</time>
      </trkpt>
      <trkpt lat="45.64513" lon="6.54534">
        <ele>2051</ele>
        <time>2022-07-27T13:55:06Z</time>
      </trkpt>
      <trkpt lat="45.64513" lon="6.54532">
        <ele>2050</ele>
        <time>2022-07-27T13:55:07Z</time>
      </trkpt>
      <trkpt lat="45.64512" lon="6.54531">
        <ele>2050</ele>
        <time>2022-07-27T13:55:08Z</time>
      </trkpt>
      <trkpt lat="45.64512" lon="6.5453">
        <ele>2050</ele>
        <time>2022-07-27T13:55:09Z</time>
      </trkpt>
      <trkpt lat="45.64512" lon="6.54529">
        <ele>2050</ele>
        <time>2022-07-27T13:55:10Z</time>
      </trkpt>
      <trkpt lat="45.64511" lon="6.54527">
        <ele>2050</ele>
        <time>2022-07-27T13:55:11Z</time>
      </trkpt>
      <trkpt lat="45.64511" lon="6.54526">
        <ele>2050</ele>
        <time>2022-07-27T13:55:12Z</time>
      </trkpt>
      <trkpt lat="45.64511" lon="6.54525">
        <ele>2050</ele>
        <time>2022-07-27T13:55:13Z</time>
      </trkpt>
      <trkpt lat="45.64511" lon="6.54524">
        <ele>2050</ele>
        <time>2022-07-27T13:55:14Z</time>
      </trkpt>
      <trkpt lat="45.64511" lon="6.54522">
        <ele>2050</ele>
        <time>2022-07-27T13:55:15Z</time>
      </trkpt>
      <trkpt lat="45.64511" lon="6.54522">
        <ele>2050</ele>
        <time>2022-07-27T13:55:16Z</time>
      </trkpt>
      <trkpt lat="45.64511" lon="6.54521">
        <ele>2049</ele>
        <time>2022-07-27T13:55:17Z</time>
      </trkpt>
      <trkpt lat="45.64511" lon="6.5452">
        <ele>2049</ele>
        <time>2022-07-27T13:55:18Z</time>
      </trkpt>
      <trkpt lat="45.64511" lon="6.54519">
        <ele>2049</ele>
        <time>2022-07-27T13:55:19Z</time>
      </trkpt>
      <trkpt lat="45.64511" lon="6.54518">
        <ele>2049</ele>
        <time>2022-07-27T13:55:20Z</time>
      </trkpt>
      <trkpt lat="45.64511" lon="6.54518">
        <ele>2049</ele>
        <time>2022-07-27T13:55:21Z</time>
      </trkpt>
      <trkpt lat="45.64511" lon="6.54517">
        <ele>2048</ele>
        <time>2022-07-27T13:55:22Z</time>
      </trkpt>
      <trkpt lat="45.6451" lon="6.54516">
        <ele>2048</ele>
        <time>2022-07-27T13:55:23Z</time>
      </trkpt>
      <trkpt lat="45.6451" lon="6.54516">
        <ele>2048</ele>
        <time>2022-07-27T13:55:24Z</time>
      </trkpt>
      <trkpt lat="45.64509" lon="6.54515">
        <ele>2048</ele>
        <time>2022-07-27T13:55:25Z</time>
      </trkpt>
      <trkpt lat="45.64509" lon="6.54514">
        <ele>2048</ele>
        <time>2022-07-27T13:55:26Z</time>
      </trkpt>
      <trkpt lat="45.64508" lon="6.54513">
        <ele>2047</ele>
        <time>2022-07-27T13:55:27Z</time>
      </trkpt>
      <trkpt lat="45.64508" lon="6.54512">
        <ele>2047</ele>
        <time>2022-07-27T13:55:28Z</time>
      </trkpt>
      <trkpt lat="45.64507" lon="6.54512">
        <ele>2047</ele>
        <time>2022-07-27T13:55:29Z</time>
      </trkpt>
      <trkpt lat="45.64507" lon="6.54511">
        <ele>2047</ele>
        <time>2022-07-27T13:55:30Z</time>
      </trkpt>
      <trkpt lat="45.64506" lon="6.5451">
        <ele>2047</ele>
        <time>2022-07-27T13:55:31Z</time>
      </trkpt>
      <trkpt lat="45.64506" lon="6.54509">
        <ele>2046</ele>
        <time>2022-07-27T13:55:32Z</time>
      </trkpt>
      <trkpt lat="45.64505" lon="6.54508">
        <ele>2046</ele>
        <time>2022-07-27T13:55:33Z</time>
      </trkpt>
      <trkpt lat="45.64504" lon="6.54507">
        <ele>2045</ele>
        <time>2022-07-27T13:55:34Z</time>
      </trkpt>
      <trkpt lat="45.64503" lon="6.54506">
        <ele>2045</ele>
        <time>2022-07-27T13:55:35Z</time>
      </trkpt>
      <trkpt lat="45.64503" lon="6.54505">
        <ele>2045</ele>
        <time>2022-07-27T13:55:36Z</time>
      </trkpt>
      <trkpt lat="45.64502" lon="6.54504">
        <ele>2044</ele>
        <time>2022-07-27T13:55:37Z</time>
      </trkpt>
      <trkpt lat="45.64501" lon="6.54503">
        <ele>2044</ele>
        <time>2022-07-27T13:55:38Z</time>
      </trkpt>
      <trkpt lat="45.64501" lon="6.54503">
        <ele>2044</ele>
        <time>2022-07-27T13:55:39Z</time>
      </trkpt>
      <trkpt lat="45.645" lon="6.54502">
        <ele>2044</ele>
        <time>2022-07-27T13:55:40Z</time>
      </trkpt>
      <trkpt lat="45.64499" lon="6.54501">
        <ele>2044</ele>
        <time>2022-07-27T13:55:41Z</time>
      </trkpt>
      <trkpt lat="45.64499" lon="6.54501">
        <ele>2043</ele>
        <time>2022-07-27T13:55:42Z</time>
      </trkpt>
      <trkpt lat="45.64498" lon="6.545">
        <ele>2043</ele>
        <time>2022-07-27T13:55:43Z</time>
      </trkpt>
      <trkpt lat="45.64497" lon="6.545">
        <ele>2043</ele>
        <time>2022-07-27T13:55:44Z</time>
      </trkpt>
      <trkpt lat="45.64495" lon="6.54498">
        <ele>2041</ele>
        <time>2022-07-27T13:56:42Z</time>
      </trkpt>
      <trkpt lat="45.64495" lon="6.54498">
        <ele>2041</ele>
        <time>2022-07-27T13:56:43Z</time>
      </trkpt>
      <trkpt lat="45.64494" lon="6.54497">
        <ele>2041</ele>
        <time>2022-07-27T13:56:44Z</time>
      </trkpt>
      <trkpt lat="45.64493" lon="6.54496">
        <ele>2041</ele>
        <time>2022-07-27T13:56:45Z</time>
      </trkpt>
      <trkpt lat="45.64493" lon="6.54496">
        <ele>2041</ele>
        <time>2022-07-27T13:56:46Z</time>
      </trkpt>
      <trkpt lat="45.64492" lon="6.54495">
        <ele>2040</ele>
        <time>2022-07-27T13:56:47Z</time>
      </trkpt>
      <trkpt lat="45.64491" lon="6.54494">
        <ele>2040</ele>
        <time>2022-07-27T13:56:48Z</time>
      </trkpt>
      <trkpt lat="45.6449" lon="6.54492">
        <ele>2040</ele>
        <time>2022-07-27T13:56:49Z</time>
      </trkpt>
      <trkpt lat="45.64489" lon="6.54491">
        <ele>2040</ele>
        <time>2022-07-27T13:56:50Z</time>
      </trkpt>
      <trkpt lat="45.64488" lon="6.5449">
        <ele>2040</ele>
        <time>2022-07-27T13:56:51Z</time>
      </trkpt>
      <trkpt lat="45.64487" lon="6.54489">
        <ele>2040</ele>
        <time>2022-07-27T13:56:52Z</time>
      </trkpt>
      <trkpt lat="45.64486" lon="6.54488">
        <ele>2040</ele>
        <time>2022-07-27T13:56:53Z</time>
      </trkpt>
      <trkpt lat="45.64485" lon="6.54488">
        <ele>2040</ele>
        <time>2022-07-27T13:56:54Z</time>
      </trkpt>
      <trkpt lat="45.64484" lon="6.54487">
        <ele>2040</ele>
        <time>2022-07-27T13:56:55Z</time>
      </trkpt>
      <trkpt lat="45.64483" lon="6.54487">
        <ele>2040</ele>
        <time>2022-07-27T13:56:56Z</time>
      </trkpt>
      <trkpt lat="45.64482" lon="6.54487">
        <ele>2039</ele>
        <time>2022-07-27T13:56:57Z</time>
      </trkpt>
      <trkpt lat="45.64481" lon="6.54487">
        <ele>2039</ele>
        <time>2022-07-27T13:56:58Z</time>
      </trkpt>
      <trkpt lat="45.6448" lon="6.54487">
        <ele>2038</ele>
        <time>2022-07-27T13:56:59Z</time>
      </trkpt>
      <trkpt lat="45.64479" lon="6.54486">
        <ele>2038</ele>
        <time>2022-07-27T13:57:00Z</time>
      </trkpt>
      <trkpt lat="45.64478" lon="6.54486">
        <ele>2038</ele>
        <time>2022-07-27T13:57:01Z</time>
      </trkpt>
      <trkpt lat="45.64478" lon="6.54485">
        <ele>2037</ele>
        <time>2022-07-27T13:57:02Z</time>
      </trkpt>
      <trkpt lat="45.64477" lon="6.54484">
        <ele>2037</ele>
        <time>2022-07-27T13:57:03Z</time>
      </trkpt>
      <trkpt lat="45.64476" lon="6.54483">
        <ele>2037</ele>
        <time>2022-07-27T13:57:04Z</time>
      </trkpt>
      <trkpt lat="45.64476" lon="6.54482">
        <ele>2037</ele>
        <time>2022-07-27T13:57:05Z</time>
      </trkpt>
      <trkpt lat="45.64475" lon="6.54481">
        <ele>2037</ele>
        <time>2022-07-27T13:57:06Z</time>
      </trkpt>
      <trkpt lat="45.64475" lon="6.5448">
        <ele>2036</ele>
        <time>2022-07-27T13:57:07Z</time>
      </trkpt>
      <trkpt lat="45.64474" lon="6.54479">
        <ele>2036</ele>
        <time>2022-07-27T13:57:08Z</time>
      </trkpt>
      <trkpt lat="45.64474" lon="6.54477">
        <ele>2035</ele>
        <time>2022-07-27T13:57:09Z</time>
      </trkpt>
      <trkpt lat="45.64473" lon="6.54476">
        <ele>2035</ele>
        <time>2022-07-27T13:57:10Z</time>
      </trkpt>
      <trkpt lat="45.64473" lon="6.54475">
        <ele>2035</ele>
        <time>2022-07-27T13:57:11Z</time>
      </trkpt>
      <trkpt lat="45.64473" lon="6.54474">
        <ele>2034</ele>
        <time>2022-07-27T13:57:12Z</time>
      </trkpt>
      <trkpt lat="45.64472" lon="6.54473">
        <ele>2034</ele>
        <time>2022-07-27T13:57:13Z</time>
      </trkpt>
      <trkpt lat="45.64472" lon="6.54472">
        <ele>2034</ele>
        <time>2022-07-27T13:57:14Z</time>
      </trkpt>
      <trkpt lat="45.64472" lon="6.5447">
        <ele>2034</ele>
        <time>2022-07-27T13:57:15Z</time>
      </trkpt>
      <trkpt lat="45.64471" lon="6.54469">
        <ele>2034</ele>
        <time>2022-07-27T13:57:16Z</time>
      </trkpt>
      <trkpt lat="45.64471" lon="6.54468">
        <ele>2033</ele>
        <time>2022-07-27T13:57:17Z</time>
      </trkpt>
      <trkpt lat="45.64471" lon="6.54467">
        <ele>2033</ele>
        <time>2022-07-27T13:57:18Z</time>
      </trkpt>
      <trkpt lat="45.64471" lon="6.54466">
        <ele>2033</ele>
        <time>2022-07-27T13:57:19Z</time>
      </trkpt>
      <trkpt lat="45.64471" lon="6.54464">
        <ele>2033</ele>
        <time>2022-07-27T13:57:20Z</time>
      </trkpt>
      <trkpt lat="45.64471" lon="6.54463">
        <ele>2033</ele>
        <time>2022-07-27T13:57:21Z</time>
      </trkpt>
      <trkpt lat="45.64471" lon="6.54462">
        <ele>2032</ele>
        <time>2022-07-27T13:57:22Z</time>
      </trkpt>
      <trkpt lat="45.64471" lon="6.5446">
        <ele>2032</ele>
        <time>2022-07-27T13:57:23Z</time>
      </trkpt>
      <trkpt lat="45.6447" lon="6.54459">
        <ele>2031</ele>
        <time>2022-07-27T13:57:24Z</time>
      </trkpt>
      <trkpt lat="45.64469" lon="6.54458">
        <ele>2031</ele>
        <time>2022-07-27T13:57:25Z</time>
      </trkpt>
      <trkpt lat="45.64469" lon="6.54457">
        <ele>2031</ele>
        <time>2022-07-27T13:57:26Z</time>
      </trkpt>
      <trkpt lat="45.64468" lon="6.54456">
        <ele>2030</ele>
        <time>2022-07-27T13:57:27Z</time>
      </trkpt>
      <trkpt lat="45.64467" lon="6.54455">
        <ele>2030</ele>
        <time>2022-07-27T13:57:28Z</time>
      </trkpt>
      <trkpt lat="45.64467" lon="6.54454">
        <ele>2030</ele>
        <time>2022-07-27T13:57:29Z</time>
      </trkpt>
      <trkpt lat="45.64466" lon="6.54454">
        <ele>2030</ele>
        <time>2022-07-27T13:57:30Z</time>
      </trkpt>
      <trkpt lat="45.64466" lon="6.54453">
        <ele>2030</ele>
        <time>2022-07-27T13:57:31Z</time>
      </trkpt>
      <trkpt lat="45.64466" lon="6.54452">
        <ele>2029</ele>
        <time>2022-07-27T13:57:32Z</time>
      </trkpt>
      <trkpt lat="45.64466" lon="6.5445">
        <ele>2029</ele>
        <time>2022-07-27T13:57:33Z</time>
      </trkpt>
      <trkpt lat="45.64466" lon="6.54449">
        <ele>2029</ele>
        <time>2022-07-27T13:57:34Z</time>
      </trkpt>
      <trkpt lat="45.64466" lon="6.54448">
        <ele>2029</ele>
        <time>2022-07-27T13:57:35Z</time>
      </trkpt>
      <trkpt lat="45.64467" lon="6.54447">
        <ele>2029</ele>
        <time>2022-07-27T13:57:36Z</time>
      </trkpt>
      <trkpt lat="45.64467" lon="6.54446">
        <ele>2028</ele>
        <time>2022-07-27T13:57:37Z</time>
      </trkpt>
      <trkpt lat="45.64467" lon="6.54445">
        <ele>2028</ele>
        <time>2022-07-27T13:57:38Z</time>
      </trkpt>
      <trkpt lat="45.64467" lon="6.54444">
        <ele>2028</ele>
        <time>2022-07-27T13:57:39Z</time>
      </trkpt>
      <trkpt lat="45.64466" lon="6.54443">
        <ele>2028</ele>
        <time>2022-07-27T13:57:40Z</time>
      </trkpt>
      <trkpt lat="45.64466" lon="6.54442">
        <ele>2028</ele>
        <time>2022-07-27T13:57:41Z</time>
      </trkpt>
      <trkpt lat="45.64466" lon="6.54442">
        <ele>2027</ele>
        <time>2022-07-27T13:57:42Z</time>
      </trkpt>
      <trkpt lat="45.64466" lon="6.54441">
        <ele>2027</ele>
        <time>2022-07-27T13:57:43Z</time>
      </trkpt>
      <trkpt lat="45.64465" lon="6.5444">
        <ele>2027</ele>
        <time>2022-07-27T13:57:44Z</time>
      </trkpt>
      <trkpt lat="45.64465" lon="6.54439">
        <ele>2027</ele>
        <time>2022-07-27T13:57:45Z</time>
      </trkpt>
      <trkpt lat="45.64465" lon="6.54438">
        <ele>2027</ele>
        <time>2022-07-27T13:57:46Z</time>
      </trkpt>
      <trkpt lat="45.64464" lon="6.54437">
        <ele>2026</ele>
        <time>2022-07-27T13:57:47Z</time>
      </trkpt>
      <trkpt lat="45.64464" lon="6.54436">
        <ele>2026</ele>
        <time>2022-07-27T13:57:48Z</time>
      </trkpt>
      <trkpt lat="45.64463" lon="6.54435">
        <ele>2026</ele>
        <time>2022-07-27T13:57:49Z</time>
      </trkpt>
      <trkpt lat="45.64463" lon="6.54434">
        <ele>2026</ele>
        <time>2022-07-27T13:57:50Z</time>
      </trkpt>
      <trkpt lat="45.64462" lon="6.54433">
        <ele>2026</ele>
        <time>2022-07-27T13:57:51Z</time>
      </trkpt>
      <trkpt lat="45.64462" lon="6.54431">
        <ele>2025</ele>
        <time>2022-07-27T13:57:52Z</time>
      </trkpt>
      <trkpt lat="45.64461" lon="6.5443">
        <ele>2025</ele>
        <time>2022-07-27T13:57:53Z</time>
      </trkpt>
      <trkpt lat="45.64461" lon="6.54429">
        <ele>2025</ele>
        <time>2022-07-27T13:57:54Z</time>
      </trkpt>
      <trkpt lat="45.6446" lon="6.54428">
        <ele>2025</ele>
        <time>2022-07-27T13:57:55Z</time>
      </trkpt>
      <trkpt lat="45.6446" lon="6.54427">
        <ele>2025</ele>
        <time>2022-07-27T13:57:56Z</time>
      </trkpt>
      <trkpt lat="45.64459" lon="6.54425">
        <ele>2023</ele>
        <time>2022-07-27T13:58:09Z</time>
      </trkpt>
      <trkpt lat="45.64459" lon="6.54425">
        <ele>2023</ele>
        <time>2022-07-27T13:58:10Z</time>
      </trkpt>
      <trkpt lat="45.64458" lon="6.54424">
        <ele>2023</ele>
        <time>2022-07-27T13:58:11Z</time>
      </trkpt>
      <trkpt lat="45.64458" lon="6.54424">
        <ele>2022</ele>
        <time>2022-07-27T13:58:12Z</time>
      </trkpt>
      <trkpt lat="45.64458" lon="6.54424">
        <ele>2022</ele>
        <time>2022-07-27T13:58:13Z</time>
      </trkpt>
      <trkpt lat="45.64457" lon="6.54423">
        <ele>2022</ele>
        <time>2022-07-27T13:58:14Z</time>
      </trkpt>
      <trkpt lat="45.64457" lon="6.54423">
        <ele>2022</ele>
        <time>2022-07-27T13:58:15Z</time>
      </trkpt>
      <trkpt lat="45.64456" lon="6.54422">
        <ele>2022</ele>
        <time>2022-07-27T13:58:16Z</time>
      </trkpt>
      <trkpt lat="45.64456" lon="6.54421">
        <ele>2021</ele>
        <time>2022-07-27T13:58:17Z</time>
      </trkpt>
      <trkpt lat="45.64455" lon="6.5442">
        <ele>2021</ele>
        <time>2022-07-27T13:58:18Z</time>
      </trkpt>
      <trkpt lat="45.64454" lon="6.54419">
        <ele>2021</ele>
        <time>2022-07-27T13:58:19Z</time>
      </trkpt>
      <trkpt lat="45.64454" lon="6.54418">
        <ele>2021</ele>
        <time>2022-07-27T13:58:20Z</time>
      </trkpt>
      <trkpt lat="45.64453" lon="6.54417">
        <ele>2021</ele>
        <time>2022-07-27T13:58:21Z</time>
      </trkpt>
      <trkpt lat="45.64453" lon="6.54416">
        <ele>2021</ele>
        <time>2022-07-27T13:58:22Z</time>
      </trkpt>
      <trkpt lat="45.64453" lon="6.54415">
        <ele>2021</ele>
        <time>2022-07-27T13:58:23Z</time>
      </trkpt>
      <trkpt lat="45.64452" lon="6.54415">
        <ele>2021</ele>
        <time>2022-07-27T13:58:24Z</time>
      </trkpt>
      <trkpt lat="45.64452" lon="6.54414">
        <ele>2021</ele>
        <time>2022-07-27T13:58:25Z</time>
      </trkpt>
      <trkpt lat="45.64451" lon="6.54413">
        <ele>2021</ele>
        <time>2022-07-27T13:58:26Z</time>
      </trkpt>
      <trkpt lat="45.64451" lon="6.54412">
        <ele>2020</ele>
        <time>2022-07-27T13:58:27Z</time>
      </trkpt>
      <trkpt lat="45.6445" lon="6.54411">
        <ele>2020</ele>
        <time>2022-07-27T13:58:28Z</time>
      </trkpt>
      <trkpt lat="45.6445" lon="6.5441">
        <ele>2020</ele>
        <time>2022-07-27T13:58:29Z</time>
      </trkpt>
      <trkpt lat="45.64449" lon="6.54409">
        <ele>2020</ele>
        <time>2022-07-27T13:58:30Z</time>
      </trkpt>
      <trkpt lat="45.64449" lon="6.54408">
        <ele>2020</ele>
        <time>2022-07-27T13:58:31Z</time>
      </trkpt>
      <trkpt lat="45.64448" lon="6.54407">
        <ele>2019</ele>
        <time>2022-07-27T13:58:32Z</time>
      </trkpt>
      <trkpt lat="45.64448" lon="6.54406">
        <ele>2019</ele>
        <time>2022-07-27T13:58:33Z</time>
      </trkpt>
      <trkpt lat="45.64448" lon="6.54406">
        <ele>2019</ele>
        <time>2022-07-27T13:58:34Z</time>
      </trkpt>
      <trkpt lat="45.64447" lon="6.54405">
        <ele>2019</ele>
        <time>2022-07-27T13:58:35Z</time>
      </trkpt>
      <trkpt lat="45.64447" lon="6.54405">
        <ele>2019</ele>
        <time>2022-07-27T13:58:36Z</time>
      </trkpt>
      <trkpt lat="45.64446" lon="6.54404">
        <ele>2019</ele>
        <time>2022-07-27T13:58:37Z</time>
      </trkpt>
      <trkpt lat="45.64446" lon="6.54404">
        <ele>2019</ele>
        <time>2022-07-27T13:58:38Z</time>
      </trkpt>
      <trkpt lat="45.64445" lon="6.54403">
        <ele>2019</ele>
        <time>2022-07-27T13:58:39Z</time>
      </trkpt>
      <trkpt lat="45.64445" lon="6.54403">
        <ele>2019</ele>
        <time>2022-07-27T13:58:40Z</time>
      </trkpt>
      <trkpt lat="45.64445" lon="6.54402">
        <ele>2019</ele>
        <time>2022-07-27T13:58:41Z</time>
      </trkpt>
      <trkpt lat="45.64444" lon="6.54402">
        <ele>2018</ele>
        <time>2022-07-27T13:58:42Z</time>
      </trkpt>
      <trkpt lat="45.64444" lon="6.54401">
        <ele>2018</ele>
        <time>2022-07-27T13:58:43Z</time>
      </trkpt>
      <trkpt lat="45.64443" lon="6.544">
        <ele>2018</ele>
        <time>2022-07-27T13:58:44Z</time>
      </trkpt>
      <trkpt lat="45.64443" lon="6.544">
        <ele>2018</ele>
        <time>2022-07-27T13:58:45Z</time>
      </trkpt>
      <trkpt lat="45.64442" lon="6.54399">
        <ele>2018</ele>
        <time>2022-07-27T13:58:46Z</time>
      </trkpt>
      <trkpt lat="45.64442" lon="6.54398">
        <ele>2018</ele>
        <time>2022-07-27T13:58:47Z</time>
      </trkpt>
      <trkpt lat="45.64441" lon="6.54398">
        <ele>2018</ele>
        <time>2022-07-27T13:58:48Z</time>
      </trkpt>
      <trkpt lat="45.6444" lon="6.54397">
        <ele>2018</ele>
        <time>2022-07-27T13:58:49Z</time>
      </trkpt>
      <trkpt lat="45.64439" lon="6.54397">
        <ele>2018</ele>
        <time>2022-07-27T13:58:50Z</time>
      </trkpt>
      <trkpt lat="45.64438" lon="6.54396">
        <ele>2018</ele>
        <time>2022-07-27T13:58:51Z</time>
      </trkpt>
      <trkpt lat="45.64437" lon="6.54395">
        <ele>2017</ele>
        <time>2022-07-27T13:58:52Z</time>
      </trkpt>
      <trkpt lat="45.64436" lon="6.54395">
        <ele>2017</ele>
        <time>2022-07-27T13:58:53Z</time>
      </trkpt>
      <trkpt lat="45.64435" lon="6.54394">
        <ele>2017</ele>
        <time>2022-07-27T13:58:54Z</time>
      </trkpt>
      <trkpt lat="45.64434" lon="6.54393">
        <ele>2017</ele>
        <time>2022-07-27T13:58:55Z</time>
      </trkpt>
      <trkpt lat="45.64434" lon="6.54392">
        <ele>2017</ele>
        <time>2022-07-27T13:58:56Z</time>
      </trkpt>
      <trkpt lat="45.64433" lon="6.54391">
        <ele>2017</ele>
        <time>2022-07-27T13:58:57Z</time>
      </trkpt>
      <trkpt lat="45.64432" lon="6.5439">
        <ele>2017</ele>
        <time>2022-07-27T13:58:58Z</time>
      </trkpt>
      <trkpt lat="45.64432" lon="6.54389">
        <ele>2017</ele>
        <time>2022-07-27T13:58:59Z</time>
      </trkpt>
      <trkpt lat="45.64431" lon="6.54388">
        <ele>2017</ele>
        <time>2022-07-27T13:59:00Z</time>
      </trkpt>
      <trkpt lat="45.6443" lon="6.54387">
        <ele>2017</ele>
        <time>2022-07-27T13:59:01Z</time>
      </trkpt>
      <trkpt lat="45.64429" lon="6.54387">
        <ele>2016</ele>
        <time>2022-07-27T13:59:02Z</time>
      </trkpt>
      <trkpt lat="45.64428" lon="6.54386">
        <ele>2016</ele>
        <time>2022-07-27T13:59:03Z</time>
      </trkpt>
      <trkpt lat="45.64428" lon="6.54386">
        <ele>2016</ele>
        <time>2022-07-27T13:59:04Z</time>
      </trkpt>
      <trkpt lat="45.64427" lon="6.54386">
        <ele>2016</ele>
        <time>2022-07-27T13:59:05Z</time>
      </trkpt>
      <trkpt lat="45.64426" lon="6.54385">
        <ele>2016</ele>
        <time>2022-07-27T13:59:06Z</time>
      </trkpt>
      <trkpt lat="45.64425" lon="6.54384">
        <ele>2015</ele>
        <time>2022-07-27T13:59:07Z</time>
      </trkpt>
      <trkpt lat="45.64424" lon="6.54384">
        <ele>2015</ele>
        <time>2022-07-27T13:59:08Z</time>
      </trkpt>
      <trkpt lat="45.64423" lon="6.54383">
        <ele>2015</ele>
        <time>2022-07-27T13:59:09Z</time>
      </trkpt>
      <trkpt lat="45.64423" lon="6.54383">
        <ele>2015</ele>
        <time>2022-07-27T13:59:10Z</time>
      </trkpt>
      <trkpt lat="45.64422" lon="6.54382">
        <ele>2015</ele>
        <time>2022-07-27T13:59:11Z</time>
      </trkpt>
      <trkpt lat="45.64421" lon="6.54381">
        <ele>2015</ele>
        <time>2022-07-27T13:59:12Z</time>
      </trkpt>
      <trkpt lat="45.64421" lon="6.5438">
        <ele>2015</ele>
        <time>2022-07-27T13:59:13Z</time>
      </trkpt>
      <trkpt lat="45.6442" lon="6.5438">
        <ele>2015</ele>
        <time>2022-07-27T13:59:14Z</time>
      </trkpt>
      <trkpt lat="45.64419" lon="6.54379">
        <ele>2015</ele>
        <time>2022-07-27T13:59:15Z</time>
      </trkpt>
      <trkpt lat="45.64418" lon="6.54378">
        <ele>2015</ele>
        <time>2022-07-27T13:59:16Z</time>
      </trkpt>
      <trkpt lat="45.64417" lon="6.54377">
        <ele>2014</ele>
        <time>2022-07-27T13:59:17Z</time>
      </trkpt>
      <trkpt lat="45.64417" lon="6.54376">
        <ele>2014</ele>
        <time>2022-07-27T13:59:18Z</time>
      </trkpt>
      <trkpt lat="45.64416" lon="6.54375">
        <ele>2014</ele>
        <time>2022-07-27T13:59:19Z</time>
      </trkpt>
      <trkpt lat="45.64415" lon="6.54374">
        <ele>2014</ele>
        <time>2022-07-27T13:59:20Z</time>
      </trkpt>
      <trkpt lat="45.64414" lon="6.54373">
        <ele>2014</ele>
        <time>2022-07-27T13:59:21Z</time>
      </trkpt>
      <trkpt lat="45.64413" lon="6.54371">
        <ele>2013</ele>
        <time>2022-07-27T13:59:22Z</time>
      </trkpt>
      <trkpt lat="45.64413" lon="6.5437">
        <ele>2013</ele>
        <time>2022-07-27T13:59:23Z</time>
      </trkpt>
      <trkpt lat="45.64412" lon="6.54369">
        <ele>2013</ele>
        <time>2022-07-27T13:59:24Z</time>
      </trkpt>
      <trkpt lat="45.64412" lon="6.54367">
        <ele>2013</ele>
        <time>2022-07-27T13:59:25Z</time>
      </trkpt>
      <trkpt lat="45.64412" lon="6.54366">
        <ele>2013</ele>
        <time>2022-07-27T13:59:26Z</time>
      </trkpt>
      <trkpt lat="45.64412" lon="6.54365">
        <ele>2012</ele>
        <time>2022-07-27T13:59:27Z</time>
      </trkpt>
      <trkpt lat="45.64412" lon="6.54363">
        <ele>2012</ele>
        <time>2022-07-27T13:59:28Z</time>
      </trkpt>
      <trkpt lat="45.64412" lon="6.54362">
        <ele>2012</ele>
        <time>2022-07-27T13:59:29Z</time>
      </trkpt>
      <trkpt lat="45.64412" lon="6.54361">
        <ele>2012</ele>
        <time>2022-07-27T13:59:30Z</time>
      </trkpt>
      <trkpt lat="45.64411" lon="6.54359">
        <ele>2012</ele>
        <time>2022-07-27T13:59:31Z</time>
      </trkpt>
      <trkpt lat="45.64411" lon="6.54358">
        <ele>2011</ele>
        <time>2022-07-27T13:59:32Z</time>
      </trkpt>
      <trkpt lat="45.64411" lon="6.54357">
        <ele>2011</ele>
        <time>2022-07-27T13:59:33Z</time>
      </trkpt>
      <trkpt lat="45.64411" lon="6.54355">
        <ele>2011</ele>
        <time>2022-07-27T13:59:34Z</time>
      </trkpt>
      <trkpt lat="45.6441" lon="6.54354">
        <ele>2011</ele>
        <time>2022-07-27T13:59:35Z</time>
      </trkpt>
      <trkpt lat="45.6441" lon="6.54353">
        <ele>2011</ele>
        <time>2022-07-27T13:59:36Z</time>
      </trkpt>
      <trkpt lat="45.6441" lon="6.54351">
        <ele>2010</ele>
        <time>2022-07-27T13:59:37Z</time>
      </trkpt>
      <trkpt lat="45.6441" lon="6.5435">
        <ele>2010</ele>
        <time>2022-07-27T13:59:38Z</time>
      </trkpt>
      <trkpt lat="45.64409" lon="6.54349">
        <ele>2010</ele>
        <time>2022-07-27T13:59:39Z</time>
      </trkpt>
      <trkpt lat="45.64409" lon="6.54348">
        <ele>2010</ele>
        <time>2022-07-27T13:59:40Z</time>
      </trkpt>
      <trkpt lat="45.64409" lon="6.54347">
        <ele>2010</ele>
        <time>2022-07-27T13:59:41Z</time>
      </trkpt>
      <trkpt lat="45.64409" lon="6.54346">
        <ele>2009</ele>
        <time>2022-07-27T13:59:42Z</time>
      </trkpt>
      <trkpt lat="45.64409" lon="6.54345">
        <ele>2009</ele>
        <time>2022-07-27T13:59:43Z</time>
      </trkpt>
      <trkpt lat="45.64409" lon="6.54345">
        <ele>2009</ele>
        <time>2022-07-27T13:59:44Z</time>
      </trkpt>
      <trkpt lat="45.64409" lon="6.54345">
        <ele>2009</ele>
        <time>2022-07-27T13:59:45Z</time>
      </trkpt>
      <trkpt lat="45.64409" lon="6.54344">
        <ele>2009</ele>
        <time>2022-07-27T13:59:46Z</time>
      </trkpt>
      <trkpt lat="45.64408" lon="6.54344">
        <ele>2009</ele>
        <time>2022-07-27T13:59:47Z</time>
      </trkpt>
      <trkpt lat="45.64408" lon="6.54344">
        <ele>2009</ele>
        <time>2022-07-27T13:59:48Z</time>
      </trkpt>
      <trkpt lat="45.64407" lon="6.54344">
        <ele>2009</ele>
        <time>2022-07-27T13:59:49Z</time>
      </trkpt>
      <trkpt lat="45.64407" lon="6.54344">
        <ele>2009</ele>
        <time>2022-07-27T13:59:50Z</time>
      </trkpt>
      <trkpt lat="45.64406" lon="6.54344">
        <ele>2009</ele>
        <time>2022-07-27T13:59:51Z</time>
      </trkpt>
      <trkpt lat="45.64405" lon="6.54343">
        <ele>2008</ele>
        <time>2022-07-27T13:59:52Z</time>
      </trkpt>
      <trkpt lat="45.64404" lon="6.54343">
        <ele>2008</ele>
        <time>2022-07-27T13:59:53Z</time>
      </trkpt>
      <trkpt lat="45.64403" lon="6.54343">
        <ele>2008</ele>
        <time>2022-07-27T13:59:54Z</time>
      </trkpt>
      <trkpt lat="45.64403" lon="6.54342">
        <ele>2008</ele>
        <time>2022-07-27T13:59:55Z</time>
      </trkpt>
      <trkpt lat="45.64402" lon="6.54342">
        <ele>2008</ele>
        <time>2022-07-27T13:59:56Z</time>
      </trkpt>
      <trkpt lat="45.64401" lon="6.54341">
        <ele>2007</ele>
        <time>2022-07-27T13:59:57Z</time>
      </trkpt>
      <trkpt lat="45.64401" lon="6.5434">
        <ele>2007</ele>
        <time>2022-07-27T13:59:58Z</time>
      </trkpt>
      <trkpt lat="45.644" lon="6.5434">
        <ele>2007</ele>
        <time>2022-07-27T13:59:59Z</time>
      </trkpt>
      <trkpt lat="45.644" lon="6.54339">
        <ele>2007</ele>
        <time>2022-07-27T14:00:00Z</time>
      </trkpt>
      <trkpt lat="45.64399" lon="6.54339">
        <ele>2007</ele>
        <time>2022-07-27T14:00:01Z</time>
      </trkpt>
      <trkpt lat="45.64399" lon="6.54338">
        <ele>2006</ele>
        <time>2022-07-27T14:00:02Z</time>
      </trkpt>
      <trkpt lat="45.64398" lon="6.54337">
        <ele>2006</ele>
        <time>2022-07-27T14:00:03Z</time>
      </trkpt>
      <trkpt lat="45.64398" lon="6.54337">
        <ele>2006</ele>
        <time>2022-07-27T14:00:04Z</time>
      </trkpt>
      <trkpt lat="45.64397" lon="6.54336">
        <ele>2006</ele>
        <time>2022-07-27T14:00:05Z</time>
      </trkpt>
      <trkpt lat="45.64397" lon="6.54336">
        <ele>2006</ele>
        <time>2022-07-27T14:00:06Z</time>
      </trkpt>
      <trkpt lat="45.64396" lon="6.54335">
        <ele>2005</ele>
        <time>2022-07-27T14:00:07Z</time>
      </trkpt>
      <trkpt lat="45.64395" lon="6.54334">
        <ele>2005</ele>
        <time>2022-07-27T14:00:08Z</time>
      </trkpt>
      <trkpt lat="45.64395" lon="6.54334">
        <ele>2005</ele>
        <time>2022-07-27T14:00:09Z</time>
      </trkpt>
      <trkpt lat="45.64394" lon="6.54333">
        <ele>2005</ele>
        <time>2022-07-27T14:00:10Z</time>
      </trkpt>
      <trkpt lat="45.64394" lon="6.54332">
        <ele>2005</ele>
        <time>2022-07-27T14:00:11Z</time>
      </trkpt>
      <trkpt lat="45.64393" lon="6.54331">
        <ele>2004</ele>
        <time>2022-07-27T14:00:12Z</time>
      </trkpt>
      <trkpt lat="45.64393" lon="6.5433">
        <ele>2004</ele>
        <time>2022-07-27T14:00:13Z</time>
      </trkpt>
      <trkpt lat="45.64392" lon="6.54329">
        <ele>2004</ele>
        <time>2022-07-27T14:00:14Z</time>
      </trkpt>
      <trkpt lat="45.64392" lon="6.54328">
        <ele>2004</ele>
        <time>2022-07-27T14:00:15Z</time>
      </trkpt>
      <trkpt lat="45.64391" lon="6.54327">
        <ele>2004</ele>
        <time>2022-07-27T14:00:16Z</time>
      </trkpt>
      <trkpt lat="45.64391" lon="6.54326">
        <ele>2003</ele>
        <time>2022-07-27T14:00:17Z</time>
      </trkpt>
      <trkpt lat="45.6439" lon="6.54325">
        <ele>2003</ele>
        <time>2022-07-27T14:00:18Z</time>
      </trkpt>
      <trkpt lat="45.6439" lon="6.54324">
        <ele>2003</ele>
        <time>2022-07-27T14:00:19Z</time>
      </trkpt>
      <trkpt lat="45.64389" lon="6.54323">
        <ele>2003</ele>
        <time>2022-07-27T14:00:20Z</time>
      </trkpt>
      <trkpt lat="45.64389" lon="6.54321">
        <ele>2002</ele>
        <time>2022-07-27T14:01:24Z</time>
      </trkpt>
      <trkpt lat="45.64389" lon="6.5432">
        <ele>2002</ele>
        <time>2022-07-27T14:01:25Z</time>
      </trkpt>
      <trkpt lat="45.64388" lon="6.54319">
        <ele>2002</ele>
        <time>2022-07-27T14:01:26Z</time>
      </trkpt>
      <trkpt lat="45.64388" lon="6.54318">
        <ele>2001</ele>
        <time>2022-07-27T14:01:27Z</time>
      </trkpt>
      <trkpt lat="45.64388" lon="6.54317">
        <ele>2001</ele>
        <time>2022-07-27T14:01:28Z</time>
      </trkpt>
      <trkpt lat="45.64388" lon="6.54315">
        <ele>2001</ele>
        <time>2022-07-27T14:01:29Z</time>
      </trkpt>
      <trkpt lat="45.64388" lon="6.54314">
        <ele>2001</ele>
        <time>2022-07-27T14:01:30Z</time>
      </trkpt>
      <trkpt lat="45.64387" lon="6.54312">
        <ele>2001</ele>
        <time>2022-07-27T14:01:31Z</time>
      </trkpt>
      <trkpt lat="45.64387" lon="6.5431">
        <ele>2001</ele>
        <time>2022-07-27T14:01:32Z</time>
      </trkpt>
      <trkpt lat="45.64386" lon="6.54307">
        <ele>2000</ele>
        <time>2022-07-27T14:01:46Z</time>
      </trkpt>
      <trkpt lat="45.64386" lon="6.54305">
        <ele>2000</ele>
        <time>2022-07-27T14:01:47Z</time>
      </trkpt>
      <trkpt lat="45.64386" lon="6.54304">
        <ele>2000</ele>
        <time>2022-07-27T14:01:48Z</time>
      </trkpt>
      <trkpt lat="45.64385" lon="6.54303">
        <ele>2000</ele>
        <time>2022-07-27T14:01:49Z</time>
      </trkpt>
      <trkpt lat="45.64385" lon="6.54301">
        <ele>2000</ele>
        <time>2022-07-27T14:01:50Z</time>
      </trkpt>
      <trkpt lat="45.64385" lon="6.54299">
        <ele>2000</ele>
        <time>2022-07-27T14:01:51Z</time>
      </trkpt>
      <trkpt lat="45.64385" lon="6.54297">
        <ele>2000</ele>
        <time>2022-07-27T14:01:52Z</time>
      </trkpt>
      <trkpt lat="45.64386" lon="6.54295">
        <ele>2000</ele>
        <time>2022-07-27T14:01:53Z</time>
      </trkpt>
      <trkpt lat="45.64386" lon="6.54293">
        <ele>2000</ele>
        <time>2022-07-27T14:01:54Z</time>
      </trkpt>
      <trkpt lat="45.64386" lon="6.54291">
        <ele>2000</ele>
        <time>2022-07-27T14:01:55Z</time>
      </trkpt>
      <trkpt lat="45.64387" lon="6.54289">
        <ele>2000</ele>
        <time>2022-07-27T14:01:56Z</time>
      </trkpt>
      <trkpt lat="45.64387" lon="6.54287">
        <ele>2000</ele>
        <time>2022-07-27T14:01:57Z</time>
      </trkpt>
      <trkpt lat="45.64387" lon="6.54285">
        <ele>2000</ele>
        <time>2022-07-27T14:01:58Z</time>
      </trkpt>
      <trkpt lat="45.64387" lon="6.54284">
        <ele>2000</ele>
        <time>2022-07-27T14:01:59Z</time>
      </trkpt>
      <trkpt lat="45.64388" lon="6.54282">
        <ele>2000</ele>
        <time>2022-07-27T14:02:00Z</time>
      </trkpt>
      <trkpt lat="45.64388" lon="6.5428">
        <ele>2000</ele>
        <time>2022-07-27T14:02:01Z</time>
      </trkpt>
      <trkpt lat="45.64388" lon="6.54278">
        <ele>2000</ele>
        <time>2022-07-27T14:02:02Z</time>
      </trkpt>
      <trkpt lat="45.64388" lon="6.54277">
        <ele>2000</ele>
        <time>2022-07-27T14:02:03Z</time>
      </trkpt>
      <trkpt lat="45.64388" lon="6.54275">
        <ele>2000</ele>
        <time>2022-07-27T14:02:04Z</time>
      </trkpt>
      <trkpt lat="45.64388" lon="6.54274">
        <ele>2000</ele>
        <time>2022-07-27T14:02:05Z</time>
      </trkpt>
      <trkpt lat="45.64388" lon="6.54272">
        <ele>2000</ele>
        <time>2022-07-27T14:02:06Z</time>
      </trkpt>
      <trkpt lat="45.64388" lon="6.54271">
        <ele>2000</ele>
        <time>2022-07-27T14:02:07Z</time>
      </trkpt>
      <trkpt lat="45.64388" lon="6.54269">
        <ele>2000</ele>
        <time>2022-07-27T14:02:08Z</time>
      </trkpt>
      <trkpt lat="45.64389" lon="6.54268">
        <ele>2000</ele>
        <time>2022-07-27T14:02:09Z</time>
      </trkpt>
      <trkpt lat="45.64389" lon="6.54266">
        <ele>2000</ele>
        <time>2022-07-27T14:02:10Z</time>
      </trkpt>
      <trkpt lat="45.64389" lon="6.54264">
        <ele>2000</ele>
        <time>2022-07-27T14:02:11Z</time>
      </trkpt>
      <trkpt lat="45.64389" lon="6.54263">
        <ele>2000</ele>
        <time>2022-07-27T14:02:12Z</time>
      </trkpt>
      <trkpt lat="45.6439" lon="6.54261">
        <ele>2000</ele>
        <time>2022-07-27T14:02:13Z</time>
      </trkpt>
      <trkpt lat="45.64391" lon="6.5426">
        <ele>2000</ele>
        <time>2022-07-27T14:02:14Z</time>
      </trkpt>
      <trkpt lat="45.64392" lon="6.54258">
        <ele>2000</ele>
        <time>2022-07-27T14:02:15Z</time>
      </trkpt>
      <trkpt lat="45.64393" lon="6.54257">
        <ele>2000</ele>
        <time>2022-07-27T14:02:16Z</time>
      </trkpt>
      <trkpt lat="45.64395" lon="6.54254">
        <ele>1999</ele>
        <time>2022-07-27T14:02:23Z</time>
      </trkpt>
      <trkpt lat="45.64395" lon="6.54253">
        <ele>1999</ele>
        <time>2022-07-27T14:02:24Z</time>
      </trkpt>
      <trkpt lat="45.64396" lon="6.54252">
        <ele>1999</ele>
        <time>2022-07-27T14:02:25Z</time>
      </trkpt>
      <trkpt lat="45.64396" lon="6.54251">
        <ele>1999</ele>
        <time>2022-07-27T14:02:26Z</time>
      </trkpt>
      <trkpt lat="45.64397" lon="6.5425">
        <ele>1999</ele>
        <time>2022-07-27T14:02:27Z</time>
      </trkpt>
      <trkpt lat="45.64397" lon="6.54249">
        <ele>1999</ele>
        <time>2022-07-27T14:02:28Z</time>
      </trkpt>
      <trkpt lat="45.64397" lon="6.54248">
        <ele>1999</ele>
        <time>2022-07-27T14:02:29Z</time>
      </trkpt>
      <trkpt lat="45.64398" lon="6.54247">
        <ele>1999</ele>
        <time>2022-07-27T14:02:30Z</time>
      </trkpt>
      <trkpt lat="45.64399" lon="6.54247">
        <ele>2000</ele>
        <time>2022-07-27T14:02:31Z</time>
      </trkpt>
      <trkpt lat="45.644" lon="6.54246">
        <ele>1999</ele>
        <time>2022-07-27T14:02:32Z</time>
      </trkpt>
      <trkpt lat="45.64402" lon="6.54246">
        <ele>1999</ele>
        <time>2022-07-27T14:02:33Z</time>
      </trkpt>
      <trkpt lat="45.64403" lon="6.54246">
        <ele>1999</ele>
        <time>2022-07-27T14:02:34Z</time>
      </trkpt>
      <trkpt lat="45.64404" lon="6.54245">
        <ele>1999</ele>
        <time>2022-07-27T14:02:35Z</time>
      </trkpt>
      <trkpt lat="45.64405" lon="6.54245">
        <ele>1999</ele>
        <time>2022-07-27T14:02:36Z</time>
      </trkpt>
      <trkpt lat="45.64405" lon="6.54245">
        <ele>1999</ele>
        <time>2022-07-27T14:02:37Z</time>
      </trkpt>
      <trkpt lat="45.64406" lon="6.54245">
        <ele>1999</ele>
        <time>2022-07-27T14:02:38Z</time>
      </trkpt>
      <trkpt lat="45.64407" lon="6.54245">
        <ele>1999</ele>
        <time>2022-07-27T14:02:39Z</time>
      </trkpt>
      <trkpt lat="45.64408" lon="6.54245">
        <ele>1999</ele>
        <time>2022-07-27T14:02:40Z</time>
      </trkpt>
      <trkpt lat="45.64408" lon="6.54245">
        <ele>1999</ele>
        <time>2022-07-27T14:02:41Z</time>
      </trkpt>
      <trkpt lat="45.64409" lon="6.54245">
        <ele>1999</ele>
        <time>2022-07-27T14:02:42Z</time>
      </trkpt>
      <trkpt lat="45.64409" lon="6.54245">
        <ele>1999</ele>
        <time>2022-07-27T14:02:43Z</time>
      </trkpt>
      <trkpt lat="45.64409" lon="6.54245">
        <ele>1999</ele>
        <time>2022-07-27T14:02:44Z</time>
      </trkpt>
      <trkpt lat="45.64409" lon="6.54244">
        <ele>1999</ele>
        <time>2022-07-27T14:02:45Z</time>
      </trkpt>
      <trkpt lat="45.6441" lon="6.54244">
        <ele>1999</ele>
        <time>2022-07-27T14:02:46Z</time>
      </trkpt>
      <trkpt lat="45.64411" lon="6.54244">
        <ele>1999</ele>
        <time>2022-07-27T14:02:47Z</time>
      </trkpt>
      <trkpt lat="45.64412" lon="6.54243">
        <ele>1999</ele>
        <time>2022-07-27T14:02:48Z</time>
      </trkpt>
      <trkpt lat="45.64413" lon="6.54242">
        <ele>1999</ele>
        <time>2022-07-27T14:02:49Z</time>
      </trkpt>
      <trkpt lat="45.64414" lon="6.54241">
        <ele>1999</ele>
        <time>2022-07-27T14:02:50Z</time>
      </trkpt>
      <trkpt lat="45.64415" lon="6.54241">
        <ele>1999</ele>
        <time>2022-07-27T14:02:51Z</time>
      </trkpt>
      <trkpt lat="45.64416" lon="6.54239">
        <ele>1999</ele>
        <time>2022-07-27T14:02:52Z</time>
      </trkpt>
      <trkpt lat="45.64416" lon="6.54238">
        <ele>1999</ele>
        <time>2022-07-27T14:02:53Z</time>
      </trkpt>
      <trkpt lat="45.64417" lon="6.54237">
        <ele>1999</ele>
        <time>2022-07-27T14:02:54Z</time>
      </trkpt>
      <trkpt lat="45.64418" lon="6.54236">
        <ele>1999</ele>
        <time>2022-07-27T14:02:55Z</time>
      </trkpt>
      <trkpt lat="45.64419" lon="6.54236">
        <ele>1999</ele>
        <time>2022-07-27T14:02:56Z</time>
      </trkpt>
      <trkpt lat="45.6442" lon="6.54235">
        <ele>1999</ele>
        <time>2022-07-27T14:02:57Z</time>
      </trkpt>
      <trkpt lat="45.6442" lon="6.54234">
        <ele>1999</ele>
        <time>2022-07-27T14:02:58Z</time>
      </trkpt>
      <trkpt lat="45.64421" lon="6.54234">
        <ele>1999</ele>
        <time>2022-07-27T14:02:59Z</time>
      </trkpt>
      <trkpt lat="45.64422" lon="6.54233">
        <ele>1999</ele>
        <time>2022-07-27T14:03:00Z</time>
      </trkpt>
      <trkpt lat="45.64422" lon="6.54233">
        <ele>1999</ele>
        <time>2022-07-27T14:03:01Z</time>
      </trkpt>
      <trkpt lat="45.64423" lon="6.54232">
        <ele>1999</ele>
        <time>2022-07-27T14:03:02Z</time>
      </trkpt>
      <trkpt lat="45.64424" lon="6.54232">
        <ele>1999</ele>
        <time>2022-07-27T14:03:03Z</time>
      </trkpt>
      <trkpt lat="45.64424" lon="6.54232">
        <ele>1999</ele>
        <time>2022-07-27T14:03:04Z</time>
      </trkpt>
      <trkpt lat="45.64425" lon="6.54232">
        <ele>1999</ele>
        <time>2022-07-27T14:03:05Z</time>
      </trkpt>
      <trkpt lat="45.64426" lon="6.54231">
        <ele>1999</ele>
        <time>2022-07-27T14:03:06Z</time>
      </trkpt>
      <trkpt lat="45.64426" lon="6.54231">
        <ele>1999</ele>
        <time>2022-07-27T14:03:07Z</time>
      </trkpt>
      <trkpt lat="45.64427" lon="6.54231">
        <ele>1999</ele>
        <time>2022-07-27T14:03:08Z</time>
      </trkpt>
      <trkpt lat="45.64427" lon="6.54231">
        <ele>1999</ele>
        <time>2022-07-27T14:03:09Z</time>
      </trkpt>
      <trkpt lat="45.64428" lon="6.54232">
        <ele>1999</ele>
        <time>2022-07-27T14:03:21Z</time>
      </trkpt>
      <trkpt lat="45.64429" lon="6.54232">
        <ele>1999</ele>
        <time>2022-07-27T14:03:22Z</time>
      </trkpt>
      <trkpt lat="45.64429" lon="6.54233">
        <ele>1999</ele>
        <time>2022-07-27T14:03:23Z</time>
      </trkpt>
      <trkpt lat="45.6443" lon="6.54233">
        <ele>1999</ele>
        <time>2022-07-27T14:03:24Z</time>
      </trkpt>
      <trkpt lat="45.64431" lon="6.54233">
        <ele>1999</ele>
        <time>2022-07-27T14:03:25Z</time>
      </trkpt>
      <trkpt lat="45.64432" lon="6.54233">
        <ele>1999</ele>
        <time>2022-07-27T14:03:26Z</time>
      </trkpt>
      <trkpt lat="45.64433" lon="6.54233">
        <ele>1998</ele>
        <time>2022-07-27T14:03:27Z</time>
      </trkpt>
      <trkpt lat="45.64435" lon="6.54233">
        <ele>1998</ele>
        <time>2022-07-27T14:03:28Z</time>
      </trkpt>
      <trkpt lat="45.64436" lon="6.54233">
        <ele>1998</ele>
        <time>2022-07-27T14:03:29Z</time>
      </trkpt>
      <trkpt lat="45.64438" lon="6.54233">
        <ele>1998</ele>
        <time>2022-07-27T14:03:30Z</time>
      </trkpt>
      <trkpt lat="45.64439" lon="6.54233">
        <ele>1998</ele>
        <time>2022-07-27T14:03:31Z</time>
      </trkpt>
      <trkpt lat="45.6444" lon="6.54233">
        <ele>1998</ele>
        <time>2022-07-27T14:03:32Z</time>
      </trkpt>
      <trkpt lat="45.64441" lon="6.54233">
        <ele>1998</ele>
        <time>2022-07-27T14:03:33Z</time>
      </trkpt>
      <trkpt lat="45.64442" lon="6.54233">
        <ele>1998</ele>
        <time>2022-07-27T14:03:34Z</time>
      </trkpt>
      <trkpt lat="45.64442" lon="6.54233">
        <ele>1998</ele>
        <time>2022-07-27T14:03:35Z</time>
      </trkpt>
      <trkpt lat="45.64443" lon="6.54232">
        <ele>1998</ele>
        <time>2022-07-27T14:03:36Z</time>
      </trkpt>
      <trkpt lat="45.64444" lon="6.54232">
        <ele>1997</ele>
        <time>2022-07-27T14:03:37Z</time>
      </trkpt>
      <trkpt lat="45.64445" lon="6.54232">
        <ele>1997</ele>
        <time>2022-07-27T14:03:38Z</time>
      </trkpt>
      <trkpt lat="45.64446" lon="6.54232">
        <ele>1997</ele>
        <time>2022-07-27T14:03:39Z</time>
      </trkpt>
      <trkpt lat="45.64447" lon="6.54232">
        <ele>1997</ele>
        <time>2022-07-27T14:03:40Z</time>
      </trkpt>
      <trkpt lat="45.64448" lon="6.54232">
        <ele>1997</ele>
        <time>2022-07-27T14:03:41Z</time>
      </trkpt>
      <trkpt lat="45.64449" lon="6.54232">
        <ele>1996</ele>
        <time>2022-07-27T14:03:42Z</time>
      </trkpt>
      <trkpt lat="45.6445" lon="6.54232">
        <ele>1996</ele>
        <time>2022-07-27T14:03:43Z</time>
      </trkpt>
      <trkpt lat="45.64452" lon="6.54231">
        <ele>1996</ele>
        <time>2022-07-27T14:03:44Z</time>
      </trkpt>
      <trkpt lat="45.64453" lon="6.5423">
        <ele>1996</ele>
        <time>2022-07-27T14:03:45Z</time>
      </trkpt>
      <trkpt lat="45.64454" lon="6.54229">
        <ele>1996</ele>
        <time>2022-07-27T14:03:46Z</time>
      </trkpt>
      <trkpt lat="45.64454" lon="6.54228">
        <ele>1995</ele>
        <time>2022-07-27T14:03:47Z</time>
      </trkpt>
      <trkpt lat="45.64455" lon="6.54227">
        <ele>1995</ele>
        <time>2022-07-27T14:03:48Z</time>
      </trkpt>
      <trkpt lat="45.64456" lon="6.54225">
        <ele>1995</ele>
        <time>2022-07-27T14:03:49Z</time>
      </trkpt>
      <trkpt lat="45.64456" lon="6.54224">
        <ele>1995</ele>
        <time>2022-07-27T14:03:50Z</time>
      </trkpt>
      <trkpt lat="45.64457" lon="6.54223">
        <ele>1995</ele>
        <time>2022-07-27T14:03:51Z</time>
      </trkpt>
      <trkpt lat="45.64458" lon="6.54222">
        <ele>1995</ele>
        <time>2022-07-27T14:03:52Z</time>
      </trkpt>
      <trkpt lat="45.64458" lon="6.54221">
        <ele>1995</ele>
        <time>2022-07-27T14:03:53Z</time>
      </trkpt>
      <trkpt lat="45.64459" lon="6.5422">
        <ele>1995</ele>
        <time>2022-07-27T14:03:54Z</time>
      </trkpt>
      <trkpt lat="45.6446" lon="6.54219">
        <ele>1995</ele>
        <time>2022-07-27T14:03:55Z</time>
      </trkpt>
      <trkpt lat="45.6446" lon="6.54218">
        <ele>1995</ele>
        <time>2022-07-27T14:03:56Z</time>
      </trkpt>
      <trkpt lat="45.64461" lon="6.54218">
        <ele>1994</ele>
        <time>2022-07-27T14:03:57Z</time>
      </trkpt>
      <trkpt lat="45.64461" lon="6.54217">
        <ele>1994</ele>
        <time>2022-07-27T14:03:58Z</time>
      </trkpt>
      <trkpt lat="45.64462" lon="6.54216">
        <ele>1994</ele>
        <time>2022-07-27T14:03:59Z</time>
      </trkpt>
      <trkpt lat="45.64462" lon="6.54215">
        <ele>1994</ele>
        <time>2022-07-27T14:04:00Z</time>
      </trkpt>
      <trkpt lat="45.64462" lon="6.54214">
        <ele>1994</ele>
        <time>2022-07-27T14:04:01Z</time>
      </trkpt>
      <trkpt lat="45.64462" lon="6.54214">
        <ele>1994</ele>
        <time>2022-07-27T14:04:02Z</time>
      </trkpt>
      <trkpt lat="45.64463" lon="6.54214">
        <ele>1994</ele>
        <time>2022-07-27T14:04:03Z</time>
      </trkpt>
      <trkpt lat="45.64463" lon="6.54213">
        <ele>1994</ele>
        <time>2022-07-27T14:04:04Z</time>
      </trkpt>
      <trkpt lat="45.64463" lon="6.54212">
        <ele>1994</ele>
        <time>2022-07-27T14:04:05Z</time>
      </trkpt>
      <trkpt lat="45.64464" lon="6.54211">
        <ele>1994</ele>
        <time>2022-07-27T14:04:06Z</time>
      </trkpt>
      <trkpt lat="45.64464" lon="6.54211">
        <ele>1994</ele>
        <time>2022-07-27T14:04:07Z</time>
      </trkpt>
      <trkpt lat="45.64468" lon="6.54209">
        <ele>1993</ele>
        <time>2022-07-27T14:04:43Z</time>
      </trkpt>
      <trkpt lat="45.64469" lon="6.54208">
        <ele>1993</ele>
        <time>2022-07-27T14:04:44Z</time>
      </trkpt>
      <trkpt lat="45.64471" lon="6.54207">
        <ele>1993</ele>
        <time>2022-07-27T14:04:45Z</time>
      </trkpt>
      <trkpt lat="45.64472" lon="6.54207">
        <ele>1993</ele>
        <time>2022-07-27T14:04:46Z</time>
      </trkpt>
      <trkpt lat="45.64473" lon="6.54207">
        <ele>1992</ele>
        <time>2022-07-27T14:04:47Z</time>
      </trkpt>
      <trkpt lat="45.64474" lon="6.54207">
        <ele>1992</ele>
        <time>2022-07-27T14:04:48Z</time>
      </trkpt>
      <trkpt lat="45.64475" lon="6.54207">
        <ele>1992</ele>
        <time>2022-07-27T14:04:49Z</time>
      </trkpt>
      <trkpt lat="45.64476" lon="6.54207">
        <ele>1992</ele>
        <time>2022-07-27T14:04:50Z</time>
      </trkpt>
      <trkpt lat="45.64477" lon="6.54207">
        <ele>1992</ele>
        <time>2022-07-27T14:04:51Z</time>
      </trkpt>
      <trkpt lat="45.64478" lon="6.54207">
        <ele>1991</ele>
        <time>2022-07-27T14:04:52Z</time>
      </trkpt>
      <trkpt lat="45.64479" lon="6.54207">
        <ele>1991</ele>
        <time>2022-07-27T14:04:53Z</time>
      </trkpt>
      <trkpt lat="45.6448" lon="6.54206">
        <ele>1991</ele>
        <time>2022-07-27T14:04:54Z</time>
      </trkpt>
      <trkpt lat="45.64481" lon="6.54206">
        <ele>1991</ele>
        <time>2022-07-27T14:04:55Z</time>
      </trkpt>
      <trkpt lat="45.64483" lon="6.54205">
        <ele>1991</ele>
        <time>2022-07-27T14:05:03Z</time>
      </trkpt>
      <trkpt lat="45.64484" lon="6.54204">
        <ele>1991</ele>
        <time>2022-07-27T14:05:04Z</time>
      </trkpt>
      <trkpt lat="45.64485" lon="6.54203">
        <ele>1991</ele>
        <time>2022-07-27T14:05:05Z</time>
      </trkpt>
      <trkpt lat="45.64485" lon="6.54203">
        <ele>1991</ele>
        <time>2022-07-27T14:05:06Z</time>
      </trkpt>
      <trkpt lat="45.64486" lon="6.54202">
        <ele>1990</ele>
        <time>2022-07-27T14:05:07Z</time>
      </trkpt>
      <trkpt lat="45.64486" lon="6.54201">
        <ele>1990</ele>
        <time>2022-07-27T14:05:08Z</time>
      </trkpt>
      <trkpt lat="45.64486" lon="6.542">
        <ele>1990</ele>
        <time>2022-07-27T14:05:09Z</time>
      </trkpt>
      <trkpt lat="45.64486" lon="6.54198">
        <ele>1988</ele>
        <time>2022-07-27T14:06:26Z</time>
      </trkpt>
      <trkpt lat="45.64487" lon="6.54197">
        <ele>1988</ele>
        <time>2022-07-27T14:06:27Z</time>
      </trkpt>
      <trkpt lat="45.64487" lon="6.54196">
        <ele>1988</ele>
        <time>2022-07-27T14:06:28Z</time>
      </trkpt>
      <trkpt lat="45.64488" lon="6.54193">
        <ele>1987</ele>
        <time>2022-07-27T14:06:41Z</time>
      </trkpt>
      <trkpt lat="45.64489" lon="6.54192">
        <ele>1987</ele>
        <time>2022-07-27T14:06:42Z</time>
      </trkpt>
      <trkpt lat="45.64489" lon="6.5419">
        <ele>1987</ele>
        <time>2022-07-27T14:06:43Z</time>
      </trkpt>
      <trkpt lat="45.6449" lon="6.54189">
        <ele>1987</ele>
        <time>2022-07-27T14:06:44Z</time>
      </trkpt>
      <trkpt lat="45.6449" lon="6.54188">
        <ele>1987</ele>
        <time>2022-07-27T14:06:45Z</time>
      </trkpt>
      <trkpt lat="45.64493" lon="6.54186">
        <ele>1983</ele>
        <time>2022-07-27T14:07:32Z</time>
      </trkpt>
      <trkpt lat="45.64494" lon="6.54184">
        <ele>1983</ele>
        <time>2022-07-27T14:07:33Z</time>
      </trkpt>
      <trkpt lat="45.64495" lon="6.54183">
        <ele>1983</ele>
        <time>2022-07-27T14:07:34Z</time>
      </trkpt>
      <trkpt lat="45.64496" lon="6.54182">
        <ele>1983</ele>
        <time>2022-07-27T14:07:35Z</time>
      </trkpt>
      <trkpt lat="45.64496" lon="6.54181">
        <ele>1983</ele>
        <time>2022-07-27T14:07:36Z</time>
      </trkpt>
      <trkpt lat="45.64497" lon="6.54181">
        <ele>1983</ele>
        <time>2022-07-27T14:07:37Z</time>
      </trkpt>
      <trkpt lat="45.64497" lon="6.5418">
        <ele>1983</ele>
        <time>2022-07-27T14:07:38Z</time>
      </trkpt>
      <trkpt lat="45.64498" lon="6.54179">
        <ele>1983</ele>
        <time>2022-07-27T14:07:39Z</time>
      </trkpt>
      <trkpt lat="45.64498" lon="6.54178">
        <ele>1983</ele>
        <time>2022-07-27T14:07:40Z</time>
      </trkpt>
      <trkpt lat="45.64498" lon="6.54177">
        <ele>1984</ele>
        <time>2022-07-27T14:07:41Z</time>
      </trkpt>
      <trkpt lat="45.64498" lon="6.54178">
        <ele>1984</ele>
        <time>2022-07-27T14:10:17Z</time>
      </trkpt>
      <trkpt lat="45.64498" lon="6.54177">
        <ele>1984</ele>
        <time>2022-07-27T14:10:18Z</time>
      </trkpt>
      <trkpt lat="45.64498" lon="6.54177">
        <ele>1984</ele>
        <time>2022-07-27T14:10:19Z</time>
      </trkpt>
      <trkpt lat="45.64498" lon="6.54177">
        <ele>1984</ele>
        <time>2022-07-27T14:10:20Z</time>
      </trkpt>
      <trkpt lat="45.64498" lon="6.54176">
        <ele>1984</ele>
        <time>2022-07-27T14:10:21Z</time>
      </trkpt>
      <trkpt lat="45.64498" lon="6.54175">
        <ele>1983</ele>
        <time>2022-07-27T14:10:22Z</time>
      </trkpt>
      <trkpt lat="45.64498" lon="6.54175">
        <ele>1983</ele>
        <time>2022-07-27T14:10:23Z</time>
      </trkpt>
      <trkpt lat="45.64498" lon="6.54174">
        <ele>1983</ele>
        <time>2022-07-27T14:10:24Z</time>
      </trkpt>
      <trkpt lat="45.64498" lon="6.54173">
        <ele>1983</ele>
        <time>2022-07-27T14:10:25Z</time>
      </trkpt>
      <trkpt lat="45.64498" lon="6.54172">
        <ele>1983</ele>
        <time>2022-07-27T14:10:26Z</time>
      </trkpt>
      <trkpt lat="45.64498" lon="6.54171">
        <ele>1983</ele>
        <time>2022-07-27T14:10:27Z</time>
      </trkpt>
      <trkpt lat="45.64498" lon="6.5417">
        <ele>1983</ele>
        <time>2022-07-27T14:10:28Z</time>
      </trkpt>
      <trkpt lat="45.64498" lon="6.5417">
        <ele>1983</ele>
        <time>2022-07-27T14:10:29Z</time>
      </trkpt>
      <trkpt lat="45.64498" lon="6.54169">
        <ele>1983</ele>
        <time>2022-07-27T14:10:30Z</time>
      </trkpt>
      <trkpt lat="45.64499" lon="6.54169">
        <ele>1983</ele>
        <time>2022-07-27T14:10:31Z</time>
      </trkpt>
      <trkpt lat="45.64499" lon="6.54168">
        <ele>1982</ele>
        <time>2022-07-27T14:10:32Z</time>
      </trkpt>
      <trkpt lat="45.64499" lon="6.54168">
        <ele>1982</ele>
        <time>2022-07-27T14:10:33Z</time>
      </trkpt>
      <trkpt lat="45.64499" lon="6.54167">
        <ele>1982</ele>
        <time>2022-07-27T14:10:34Z</time>
      </trkpt>
      <trkpt lat="45.64499" lon="6.54167">
        <ele>1982</ele>
        <time>2022-07-27T14:10:35Z</time>
      </trkpt>
      <trkpt lat="45.64499" lon="6.54166">
        <ele>1982</ele>
        <time>2022-07-27T14:10:36Z</time>
      </trkpt>
      <trkpt lat="45.64499" lon="6.54165">
        <ele>1981</ele>
        <time>2022-07-27T14:10:37Z</time>
      </trkpt>
      <trkpt lat="45.64499" lon="6.54164">
        <ele>1981</ele>
        <time>2022-07-27T14:10:38Z</time>
      </trkpt>
      <trkpt lat="45.64499" lon="6.54163">
        <ele>1981</ele>
        <time>2022-07-27T14:10:39Z</time>
      </trkpt>
      <trkpt lat="45.64499" lon="6.54162">
        <ele>1981</ele>
        <time>2022-07-27T14:10:40Z</time>
      </trkpt>
      <trkpt lat="45.64499" lon="6.54161">
        <ele>1981</ele>
        <time>2022-07-27T14:10:41Z</time>
      </trkpt>
      <trkpt lat="45.64499" lon="6.5416">
        <ele>1980</ele>
        <time>2022-07-27T14:10:42Z</time>
      </trkpt>
      <trkpt lat="45.645" lon="6.5416">
        <ele>1980</ele>
        <time>2022-07-27T14:10:43Z</time>
      </trkpt>
      <trkpt lat="45.645" lon="6.54159">
        <ele>1980</ele>
        <time>2022-07-27T14:10:44Z</time>
      </trkpt>
      <trkpt lat="45.64501" lon="6.5416">
        <ele>1980</ele>
        <time>2022-07-27T14:10:45Z</time>
      </trkpt>
      <trkpt lat="45.64501" lon="6.5416">
        <ele>1980</ele>
        <time>2022-07-27T14:10:46Z</time>
      </trkpt>
      <trkpt lat="45.64502" lon="6.54161">
        <ele>1979</ele>
        <time>2022-07-27T14:10:47Z</time>
      </trkpt>
      <trkpt lat="45.64502" lon="6.54161">
        <ele>1979</ele>
        <time>2022-07-27T14:10:48Z</time>
      </trkpt>
      <trkpt lat="45.64504" lon="6.54162">
        <ele>1976</ele>
        <time>2022-07-27T14:11:26Z</time>
      </trkpt>
      <trkpt lat="45.64505" lon="6.54162">
        <ele>1975</ele>
        <time>2022-07-27T14:11:27Z</time>
      </trkpt>
      <trkpt lat="45.64506" lon="6.54161">
        <ele>1975</ele>
        <time>2022-07-27T14:11:28Z</time>
      </trkpt>
      <trkpt lat="45.64507" lon="6.54161">
        <ele>1975</ele>
        <time>2022-07-27T14:11:29Z</time>
      </trkpt>
      <trkpt lat="45.64507" lon="6.5416">
        <ele>1975</ele>
        <time>2022-07-27T14:11:30Z</time>
      </trkpt>
      <trkpt lat="45.64507" lon="6.54159">
        <ele>1975</ele>
        <time>2022-07-27T14:11:31Z</time>
      </trkpt>
      <trkpt lat="45.64507" lon="6.54158">
        <ele>1974</ele>
        <time>2022-07-27T14:11:32Z</time>
      </trkpt>
      <trkpt lat="45.64507" lon="6.54157">
        <ele>1974</ele>
        <time>2022-07-27T14:11:33Z</time>
      </trkpt>
      <trkpt lat="45.64507" lon="6.54156">
        <ele>1973</ele>
        <time>2022-07-27T14:11:34Z</time>
      </trkpt>
      <trkpt lat="45.64507" lon="6.54155">
        <ele>1973</ele>
        <time>2022-07-27T14:11:35Z</time>
      </trkpt>
      <trkpt lat="45.64507" lon="6.54153">
        <ele>1973</ele>
        <time>2022-07-27T14:11:36Z</time>
      </trkpt>
      <trkpt lat="45.64507" lon="6.54153">
        <ele>1973</ele>
        <time>2022-07-27T14:11:37Z</time>
      </trkpt>
      <trkpt lat="45.64506" lon="6.54152">
        <ele>1973</ele>
        <time>2022-07-27T14:11:38Z</time>
      </trkpt>
      <trkpt lat="45.64506" lon="6.5415">
        <ele>1972</ele>
        <time>2022-07-27T14:11:44Z</time>
      </trkpt>
      <trkpt lat="45.64506" lon="6.5415">
        <ele>1972</ele>
        <time>2022-07-27T14:11:45Z</time>
      </trkpt>
      <trkpt lat="45.64505" lon="6.54149">
        <ele>1972</ele>
        <time>2022-07-27T14:11:46Z</time>
      </trkpt>
      <trkpt lat="45.64505" lon="6.54148">
        <ele>1972</ele>
        <time>2022-07-27T14:11:47Z</time>
      </trkpt>
      <trkpt lat="45.64505" lon="6.54147">
        <ele>1972</ele>
        <time>2022-07-27T14:11:48Z</time>
      </trkpt>
      <trkpt lat="45.64504" lon="6.54147">
        <ele>1972</ele>
        <time>2022-07-27T14:11:49Z</time>
      </trkpt>
      <trkpt lat="45.64504" lon="6.54146">
        <ele>1972</ele>
        <time>2022-07-27T14:11:50Z</time>
      </trkpt>
      <trkpt lat="45.64504" lon="6.54146">
        <ele>1972</ele>
        <time>2022-07-27T14:11:51Z</time>
      </trkpt>
      <trkpt lat="45.64504" lon="6.54145">
        <ele>1971</ele>
        <time>2022-07-27T14:11:52Z</time>
      </trkpt>
      <trkpt lat="45.64504" lon="6.54145">
        <ele>1971</ele>
        <time>2022-07-27T14:11:53Z</time>
      </trkpt>
      <trkpt lat="45.64503" lon="6.54144">
        <ele>1971</ele>
        <time>2022-07-27T14:11:54Z</time>
      </trkpt>
      <trkpt lat="45.64503" lon="6.54143">
        <ele>1971</ele>
        <time>2022-07-27T14:11:55Z</time>
      </trkpt>
      <trkpt lat="45.64502" lon="6.54141">
        <ele>1970</ele>
        <time>2022-07-27T14:12:21Z</time>
      </trkpt>
      <trkpt lat="45.64502" lon="6.5414">
        <ele>1969</ele>
        <time>2022-07-27T14:12:22Z</time>
      </trkpt>
      <trkpt lat="45.64502" lon="6.54139">
        <ele>1969</ele>
        <time>2022-07-27T14:12:23Z</time>
      </trkpt>
      <trkpt lat="45.64502" lon="6.54138">
        <ele>1969</ele>
        <time>2022-07-27T14:12:24Z</time>
      </trkpt>
      <trkpt lat="45.64502" lon="6.54137">
        <ele>1969</ele>
        <time>2022-07-27T14:12:25Z</time>
      </trkpt>
      <trkpt lat="45.64502" lon="6.54136">
        <ele>1969</ele>
        <time>2022-07-27T14:12:26Z</time>
      </trkpt>
      <trkpt lat="45.64502" lon="6.54135">
        <ele>1969</ele>
        <time>2022-07-27T14:12:27Z</time>
      </trkpt>
      <trkpt lat="45.64502" lon="6.54134">
        <ele>1969</ele>
        <time>2022-07-27T14:12:28Z</time>
      </trkpt>
      <trkpt lat="45.64502" lon="6.54133">
        <ele>1969</ele>
        <time>2022-07-27T14:12:29Z</time>
      </trkpt>
      <trkpt lat="45.64502" lon="6.54131">
        <ele>1969</ele>
        <time>2022-07-27T14:12:30Z</time>
      </trkpt>
      <trkpt lat="45.64501" lon="6.5413">
        <ele>1969</ele>
        <time>2022-07-27T14:12:31Z</time>
      </trkpt>
      <trkpt lat="45.64501" lon="6.54129">
        <ele>1968</ele>
        <time>2022-07-27T14:12:32Z</time>
      </trkpt>
      <trkpt lat="45.64501" lon="6.54128">
        <ele>1968</ele>
        <time>2022-07-27T14:12:33Z</time>
      </trkpt>
      <trkpt lat="45.64501" lon="6.54127">
        <ele>1968</ele>
        <time>2022-07-27T14:12:34Z</time>
      </trkpt>
      <trkpt lat="45.64501" lon="6.54126">
        <ele>1968</ele>
        <time>2022-07-27T14:12:35Z</time>
      </trkpt>
      <trkpt lat="45.645" lon="6.54124">
        <ele>1968</ele>
        <time>2022-07-27T14:12:36Z</time>
      </trkpt>
      <trkpt lat="45.645" lon="6.54123">
        <ele>1968</ele>
        <time>2022-07-27T14:12:37Z</time>
      </trkpt>
      <trkpt lat="45.645" lon="6.54122">
        <ele>1968</ele>
        <time>2022-07-27T14:12:38Z</time>
      </trkpt>
      <trkpt lat="45.645" lon="6.5412">
        <ele>1968</ele>
        <time>2022-07-27T14:12:39Z</time>
      </trkpt>
      <trkpt lat="45.645" lon="6.54119">
        <ele>1968</ele>
        <time>2022-07-27T14:12:40Z</time>
      </trkpt>
      <trkpt lat="45.645" lon="6.54117">
        <ele>1968</ele>
        <time>2022-07-27T14:12:41Z</time>
      </trkpt>
      <trkpt lat="45.645" lon="6.54116">
        <ele>1967</ele>
        <time>2022-07-27T14:12:42Z</time>
      </trkpt>
      <trkpt lat="45.64499" lon="6.54115">
        <ele>1967</ele>
        <time>2022-07-27T14:12:43Z</time>
      </trkpt>
      <trkpt lat="45.645" lon="6.54113">
        <ele>1967</ele>
        <time>2022-07-27T14:12:44Z</time>
      </trkpt>
      <trkpt lat="45.645" lon="6.54112">
        <ele>1967</ele>
        <time>2022-07-27T14:12:45Z</time>
      </trkpt>
      <trkpt lat="45.645" lon="6.5411">
        <ele>1967</ele>
        <time>2022-07-27T14:12:46Z</time>
      </trkpt>
      <trkpt lat="45.645" lon="6.54108">
        <ele>1966</ele>
        <time>2022-07-27T14:12:47Z</time>
      </trkpt>
      <trkpt lat="45.645" lon="6.54107">
        <ele>1966</ele>
        <time>2022-07-27T14:12:48Z</time>
      </trkpt>
      <trkpt lat="45.645" lon="6.54105">
        <ele>1966</ele>
        <time>2022-07-27T14:12:49Z</time>
      </trkpt>
      <trkpt lat="45.64501" lon="6.54103">
        <ele>1966</ele>
        <time>2022-07-27T14:12:50Z</time>
      </trkpt>
      <trkpt lat="45.64501" lon="6.54102">
        <ele>1966</ele>
        <time>2022-07-27T14:12:51Z</time>
      </trkpt>
      <trkpt lat="45.64501" lon="6.541">
        <ele>1966</ele>
        <time>2022-07-27T14:12:52Z</time>
      </trkpt>
      <trkpt lat="45.64501" lon="6.54099">
        <ele>1966</ele>
        <time>2022-07-27T14:12:53Z</time>
      </trkpt>
      <trkpt lat="45.64501" lon="6.54097">
        <ele>1966</ele>
        <time>2022-07-27T14:12:54Z</time>
      </trkpt>
      <trkpt lat="45.64501" lon="6.54096">
        <ele>1966</ele>
        <time>2022-07-27T14:12:55Z</time>
      </trkpt>
      <trkpt lat="45.64501" lon="6.54095">
        <ele>1966</ele>
        <time>2022-07-27T14:12:56Z</time>
      </trkpt>
      <trkpt lat="45.645" lon="6.54093">
        <ele>1966</ele>
        <time>2022-07-27T14:12:57Z</time>
      </trkpt>
      <trkpt lat="45.645" lon="6.54092">
        <ele>1966</ele>
        <time>2022-07-27T14:12:58Z</time>
      </trkpt>
      <trkpt lat="45.64499" lon="6.54091">
        <ele>1966</ele>
        <time>2022-07-27T14:12:59Z</time>
      </trkpt>
      <trkpt lat="45.64499" lon="6.54089">
        <ele>1966</ele>
        <time>2022-07-27T14:13:00Z</time>
      </trkpt>
      <trkpt lat="45.64499" lon="6.54088">
        <ele>1966</ele>
        <time>2022-07-27T14:13:01Z</time>
      </trkpt>
      <trkpt lat="45.64499" lon="6.54087">
        <ele>1965</ele>
        <time>2022-07-27T14:13:02Z</time>
      </trkpt>
      <trkpt lat="45.64499" lon="6.54086">
        <ele>1965</ele>
        <time>2022-07-27T14:13:03Z</time>
      </trkpt>
      <trkpt lat="45.64499" lon="6.54085">
        <ele>1965</ele>
        <time>2022-07-27T14:13:04Z</time>
      </trkpt>
      <trkpt lat="45.64499" lon="6.54084">
        <ele>1965</ele>
        <time>2022-07-27T14:13:05Z</time>
      </trkpt>
      <trkpt lat="45.64498" lon="6.54083">
        <ele>1965</ele>
        <time>2022-07-27T14:13:06Z</time>
      </trkpt>
      <trkpt lat="45.64498" lon="6.54082">
        <ele>1965</ele>
        <time>2022-07-27T14:13:07Z</time>
      </trkpt>
      <trkpt lat="45.64498" lon="6.54081">
        <ele>1965</ele>
        <time>2022-07-27T14:13:08Z</time>
      </trkpt>
      <trkpt lat="45.64498" lon="6.54079">
        <ele>1965</ele>
        <time>2022-07-27T14:13:09Z</time>
      </trkpt>
      <trkpt lat="45.64498" lon="6.54078">
        <ele>1965</ele>
        <time>2022-07-27T14:13:10Z</time>
      </trkpt>
      <trkpt lat="45.64497" lon="6.54077">
        <ele>1965</ele>
        <time>2022-07-27T14:13:11Z</time>
      </trkpt>
      <trkpt lat="45.64497" lon="6.54076">
        <ele>1965</ele>
        <time>2022-07-27T14:13:12Z</time>
      </trkpt>
      <trkpt lat="45.64497" lon="6.54075">
        <ele>1965</ele>
        <time>2022-07-27T14:13:13Z</time>
      </trkpt>
      <trkpt lat="45.64497" lon="6.54074">
        <ele>1965</ele>
        <time>2022-07-27T14:13:14Z</time>
      </trkpt>
      <trkpt lat="45.64497" lon="6.54073">
        <ele>1965</ele>
        <time>2022-07-27T14:13:15Z</time>
      </trkpt>
      <trkpt lat="45.64497" lon="6.54072">
        <ele>1965</ele>
        <time>2022-07-27T14:13:16Z</time>
      </trkpt>
      <trkpt lat="45.64497" lon="6.5407">
        <ele>1964</ele>
        <time>2022-07-27T14:13:17Z</time>
      </trkpt>
      <trkpt lat="45.64497" lon="6.54069">
        <ele>1964</ele>
        <time>2022-07-27T14:13:18Z</time>
      </trkpt>
      <trkpt lat="45.64497" lon="6.54068">
        <ele>1964</ele>
        <time>2022-07-27T14:13:19Z</time>
      </trkpt>
      <trkpt lat="45.64497" lon="6.54067">
        <ele>1964</ele>
        <time>2022-07-27T14:13:20Z</time>
      </trkpt>
      <trkpt lat="45.64497" lon="6.54066">
        <ele>1964</ele>
        <time>2022-07-27T14:13:21Z</time>
      </trkpt>
      <trkpt lat="45.64497" lon="6.54065">
        <ele>1964</ele>
        <time>2022-07-27T14:13:22Z</time>
      </trkpt>
      <trkpt lat="45.64497" lon="6.54064">
        <ele>1964</ele>
        <time>2022-07-27T14:13:23Z</time>
      </trkpt>
      <trkpt lat="45.64497" lon="6.54063">
        <ele>1964</ele>
        <time>2022-07-27T14:13:24Z</time>
      </trkpt>
      <trkpt lat="45.64497" lon="6.54062">
        <ele>1964</ele>
        <time>2022-07-27T14:13:25Z</time>
      </trkpt>
      <trkpt lat="45.64497" lon="6.54061">
        <ele>1965</ele>
        <time>2022-07-27T14:13:26Z</time>
      </trkpt>
      <trkpt lat="45.64496" lon="6.5406">
        <ele>1965</ele>
        <time>2022-07-27T14:13:27Z</time>
      </trkpt>
      <trkpt lat="45.64496" lon="6.5406">
        <ele>1965</ele>
        <time>2022-07-27T14:13:28Z</time>
      </trkpt>
      <trkpt lat="45.64496" lon="6.54059">
        <ele>1965</ele>
        <time>2022-07-27T14:13:29Z</time>
      </trkpt>
      <trkpt lat="45.64496" lon="6.54058">
        <ele>1965</ele>
        <time>2022-07-27T14:13:30Z</time>
      </trkpt>
      <trkpt lat="45.64495" lon="6.54057">
        <ele>1965</ele>
        <time>2022-07-27T14:13:31Z</time>
      </trkpt>
      <trkpt lat="45.64495" lon="6.54056">
        <ele>1965</ele>
        <time>2022-07-27T14:13:32Z</time>
      </trkpt>
      <trkpt lat="45.64494" lon="6.54054">
        <ele>1965</ele>
        <time>2022-07-27T14:13:33Z</time>
      </trkpt>
      <trkpt lat="45.64494" lon="6.54053">
        <ele>1965</ele>
        <time>2022-07-27T14:13:34Z</time>
      </trkpt>
      <trkpt lat="45.64494" lon="6.54052">
        <ele>1965</ele>
        <time>2022-07-27T14:13:35Z</time>
      </trkpt>
      <trkpt lat="45.64494" lon="6.54048">
        <ele>1967</ele>
        <time>2022-07-27T14:13:57Z</time>
      </trkpt>
      <trkpt lat="45.64495" lon="6.54046">
        <ele>1967</ele>
        <time>2022-07-27T14:13:58Z</time>
      </trkpt>
      <trkpt lat="45.64495" lon="6.54044">
        <ele>1967</ele>
        <time>2022-07-27T14:13:59Z</time>
      </trkpt>
      <trkpt lat="45.64495" lon="6.54043">
        <ele>1967</ele>
        <time>2022-07-27T14:14:00Z</time>
      </trkpt>
      <trkpt lat="45.64495" lon="6.54042">
        <ele>1968</ele>
        <time>2022-07-27T14:14:01Z</time>
      </trkpt>
      <trkpt lat="45.64496" lon="6.5404">
        <ele>1968</ele>
        <time>2022-07-27T14:14:02Z</time>
      </trkpt>
      <trkpt lat="45.64496" lon="6.54039">
        <ele>1968</ele>
        <time>2022-07-27T14:14:03Z</time>
      </trkpt>
      <trkpt lat="45.64496" lon="6.54037">
        <ele>1968</ele>
        <time>2022-07-27T14:14:04Z</time>
      </trkpt>
      <trkpt lat="45.64496" lon="6.54035">
        <ele>1968</ele>
        <time>2022-07-27T14:14:05Z</time>
      </trkpt>
      <trkpt lat="45.64497" lon="6.54032">
        <ele>1968</ele>
        <time>2022-07-27T14:14:22Z</time>
      </trkpt>
      <trkpt lat="45.64497" lon="6.5403">
        <ele>1968</ele>
        <time>2022-07-27T14:14:23Z</time>
      </trkpt>
      <trkpt lat="45.64497" lon="6.54029">
        <ele>1968</ele>
        <time>2022-07-27T14:14:24Z</time>
      </trkpt>
      <trkpt lat="45.64497" lon="6.54028">
        <ele>1968</ele>
        <time>2022-07-27T14:14:25Z</time>
      </trkpt>
      <trkpt lat="45.64497" lon="6.54027">
        <ele>1968</ele>
        <time>2022-07-27T14:14:26Z</time>
      </trkpt>
      <trkpt lat="45.64497" lon="6.54025">
        <ele>1968</ele>
        <time>2022-07-27T14:14:27Z</time>
      </trkpt>
      <trkpt lat="45.64497" lon="6.54024">
        <ele>1968</ele>
        <time>2022-07-27T14:14:28Z</time>
      </trkpt>
      <trkpt lat="45.64497" lon="6.54023">
        <ele>1968</ele>
        <time>2022-07-27T14:14:29Z</time>
      </trkpt>
      <trkpt lat="45.64496" lon="6.54022">
        <ele>1968</ele>
        <time>2022-07-27T14:14:30Z</time>
      </trkpt>
      <trkpt lat="45.64496" lon="6.5402">
        <ele>1968</ele>
        <time>2022-07-27T14:14:31Z</time>
      </trkpt>
      <trkpt lat="45.64496" lon="6.54019">
        <ele>1968</ele>
        <time>2022-07-27T14:14:32Z</time>
      </trkpt>
      <trkpt lat="45.64496" lon="6.54018">
        <ele>1968</ele>
        <time>2022-07-27T14:14:33Z</time>
      </trkpt>
      <trkpt lat="45.64496" lon="6.54016">
        <ele>1968</ele>
        <time>2022-07-27T14:14:34Z</time>
      </trkpt>
      <trkpt lat="45.64496" lon="6.54015">
        <ele>1968</ele>
        <time>2022-07-27T14:14:35Z</time>
      </trkpt>
      <trkpt lat="45.64496" lon="6.54014">
        <ele>1969</ele>
        <time>2022-07-27T14:14:36Z</time>
      </trkpt>
      <trkpt lat="45.64496" lon="6.54013">
        <ele>1969</ele>
        <time>2022-07-27T14:14:37Z</time>
      </trkpt>
      <trkpt lat="45.64495" lon="6.54011">
        <ele>1969</ele>
        <time>2022-07-27T14:14:38Z</time>
      </trkpt>
      <trkpt lat="45.64495" lon="6.5401">
        <ele>1969</ele>
        <time>2022-07-27T14:14:39Z</time>
      </trkpt>
      <trkpt lat="45.64495" lon="6.54009">
        <ele>1969</ele>
        <time>2022-07-27T14:14:40Z</time>
      </trkpt>
      <trkpt lat="45.64495" lon="6.54008">
        <ele>1969</ele>
        <time>2022-07-27T14:14:41Z</time>
      </trkpt>
      <trkpt lat="45.64495" lon="6.54007">
        <ele>1969</ele>
        <time>2022-07-27T14:14:42Z</time>
      </trkpt>
      <trkpt lat="45.64495" lon="6.54006">
        <ele>1969</ele>
        <time>2022-07-27T14:14:43Z</time>
      </trkpt>
      <trkpt lat="45.64495" lon="6.54005">
        <ele>1969</ele>
        <time>2022-07-27T14:14:44Z</time>
      </trkpt>
      <trkpt lat="45.64494" lon="6.54004">
        <ele>1969</ele>
        <time>2022-07-27T14:14:45Z</time>
      </trkpt>
      <trkpt lat="45.64494" lon="6.54003">
        <ele>1969</ele>
        <time>2022-07-27T14:14:46Z</time>
      </trkpt>
      <trkpt lat="45.64494" lon="6.54002">
        <ele>1969</ele>
        <time>2022-07-27T14:14:47Z</time>
      </trkpt>
      <trkpt lat="45.64494" lon="6.54001">
        <ele>1969</ele>
        <time>2022-07-27T14:14:48Z</time>
      </trkpt>
      <trkpt lat="45.64494" lon="6.54">
        <ele>1969</ele>
        <time>2022-07-27T14:14:49Z</time>
      </trkpt>
      <trkpt lat="45.64494" lon="6.53999">
        <ele>1969</ele>
        <time>2022-07-27T14:14:50Z</time>
      </trkpt>
      <trkpt lat="45.64494" lon="6.53998">
        <ele>1970</ele>
        <time>2022-07-27T14:14:51Z</time>
      </trkpt>
      <trkpt lat="45.64493" lon="6.53997">
        <ele>1970</ele>
        <time>2022-07-27T14:14:52Z</time>
      </trkpt>
      <trkpt lat="45.64493" lon="6.53996">
        <ele>1970</ele>
        <time>2022-07-27T14:14:53Z</time>
      </trkpt>
      <trkpt lat="45.64493" lon="6.53995">
        <ele>1970</ele>
        <time>2022-07-27T14:14:54Z</time>
      </trkpt>
      <trkpt lat="45.64493" lon="6.53994">
        <ele>1970</ele>
        <time>2022-07-27T14:14:55Z</time>
      </trkpt>
      <trkpt lat="45.64493" lon="6.53994">
        <ele>1970</ele>
        <time>2022-07-27T14:14:56Z</time>
      </trkpt>
      <trkpt lat="45.64492" lon="6.53992">
        <ele>1972</ele>
        <time>2022-07-27T14:15:12Z</time>
      </trkpt>
      <trkpt lat="45.64492" lon="6.53991">
        <ele>1972</ele>
        <time>2022-07-27T14:15:13Z</time>
      </trkpt>
      <trkpt lat="45.64492" lon="6.5399">
        <ele>1972</ele>
        <time>2022-07-27T14:15:14Z</time>
      </trkpt>
      <trkpt lat="45.64492" lon="6.53989">
        <ele>1972</ele>
        <time>2022-07-27T14:15:15Z</time>
      </trkpt>
      <trkpt lat="45.64492" lon="6.53989">
        <ele>1972</ele>
        <time>2022-07-27T14:15:16Z</time>
      </trkpt>
      <trkpt lat="45.64492" lon="6.53988">
        <ele>1972</ele>
        <time>2022-07-27T14:15:17Z</time>
      </trkpt>
      <trkpt lat="45.64492" lon="6.53987">
        <ele>1972</ele>
        <time>2022-07-27T14:15:18Z</time>
      </trkpt>
      <trkpt lat="45.64492" lon="6.53986">
        <ele>1972</ele>
        <time>2022-07-27T14:15:19Z</time>
      </trkpt>
      <trkpt lat="45.64492" lon="6.53985">
        <ele>1972</ele>
        <time>2022-07-27T14:15:20Z</time>
      </trkpt>
      <trkpt lat="45.64493" lon="6.53983">
        <ele>1973</ele>
        <time>2022-07-27T14:16:04Z</time>
      </trkpt>
      <trkpt lat="45.64493" lon="6.53982">
        <ele>1973</ele>
        <time>2022-07-27T14:16:05Z</time>
      </trkpt>
      <trkpt lat="45.64494" lon="6.53981">
        <ele>1973</ele>
        <time>2022-07-27T14:16:06Z</time>
      </trkpt>
      <trkpt lat="45.64494" lon="6.5398">
        <ele>1973</ele>
        <time>2022-07-27T14:16:07Z</time>
      </trkpt>
      <trkpt lat="45.64494" lon="6.5398">
        <ele>1973</ele>
        <time>2022-07-27T14:16:08Z</time>
      </trkpt>
      <trkpt lat="45.64494" lon="6.53979">
        <ele>1973</ele>
        <time>2022-07-27T14:16:09Z</time>
      </trkpt>
      <trkpt lat="45.64495" lon="6.53978">
        <ele>1973</ele>
        <time>2022-07-27T14:16:10Z</time>
      </trkpt>
      <trkpt lat="45.64495" lon="6.53976">
        <ele>1973</ele>
        <time>2022-07-27T14:16:11Z</time>
      </trkpt>
      <trkpt lat="45.64495" lon="6.53975">
        <ele>1973</ele>
        <time>2022-07-27T14:16:12Z</time>
      </trkpt>
      <trkpt lat="45.64495" lon="6.53974">
        <ele>1973</ele>
        <time>2022-07-27T14:16:13Z</time>
      </trkpt>
      <trkpt lat="45.64495" lon="6.53972">
        <ele>1973</ele>
        <time>2022-07-27T14:16:14Z</time>
      </trkpt>
      <trkpt lat="45.64494" lon="6.53971">
        <ele>1973</ele>
        <time>2022-07-27T14:16:15Z</time>
      </trkpt>
      <trkpt lat="45.64494" lon="6.5397">
        <ele>1973</ele>
        <time>2022-07-27T14:16:16Z</time>
      </trkpt>
      <trkpt lat="45.64494" lon="6.53968">
        <ele>1973</ele>
        <time>2022-07-27T14:16:17Z</time>
      </trkpt>
      <trkpt lat="45.64494" lon="6.53967">
        <ele>1973</ele>
        <time>2022-07-27T14:16:18Z</time>
      </trkpt>
      <trkpt lat="45.64494" lon="6.53965">
        <ele>1973</ele>
        <time>2022-07-27T14:16:19Z</time>
      </trkpt>
      <trkpt lat="45.64494" lon="6.53964">
        <ele>1973</ele>
        <time>2022-07-27T14:16:20Z</time>
      </trkpt>
      <trkpt lat="45.64494" lon="6.53963">
        <ele>1973</ele>
        <time>2022-07-27T14:16:21Z</time>
      </trkpt>
      <trkpt lat="45.64494" lon="6.53962">
        <ele>1973</ele>
        <time>2022-07-27T14:16:22Z</time>
      </trkpt>
      <trkpt lat="45.64494" lon="6.53961">
        <ele>1973</ele>
        <time>2022-07-27T14:16:23Z</time>
      </trkpt>
      <trkpt lat="45.64494" lon="6.5396">
        <ele>1973</ele>
        <time>2022-07-27T14:16:24Z</time>
      </trkpt>
      <trkpt lat="45.64494" lon="6.53959">
        <ele>1973</ele>
        <time>2022-07-27T14:16:25Z</time>
      </trkpt>
      <trkpt lat="45.64494" lon="6.53958">
        <ele>1973</ele>
        <time>2022-07-27T14:16:26Z</time>
      </trkpt>
      <trkpt lat="45.64494" lon="6.53958">
        <ele>1973</ele>
        <time>2022-07-27T14:16:27Z</time>
      </trkpt>
      <trkpt lat="45.64495" lon="6.53957">
        <ele>1973</ele>
        <time>2022-07-27T14:16:28Z</time>
      </trkpt>
      <trkpt lat="45.64495" lon="6.53956">
        <ele>1973</ele>
        <time>2022-07-27T14:16:29Z</time>
      </trkpt>
      <trkpt lat="45.64496" lon="6.53955">
        <ele>1973</ele>
        <time>2022-07-27T14:16:30Z</time>
      </trkpt>
      <trkpt lat="45.64496" lon="6.53955">
        <ele>1973</ele>
        <time>2022-07-27T14:16:31Z</time>
      </trkpt>
      <trkpt lat="45.64496" lon="6.53954">
        <ele>1973</ele>
        <time>2022-07-27T14:16:32Z</time>
      </trkpt>
      <trkpt lat="45.64496" lon="6.53953">
        <ele>1973</ele>
        <time>2022-07-27T14:16:33Z</time>
      </trkpt>
      <trkpt lat="45.64496" lon="6.53952">
        <ele>1973</ele>
        <time>2022-07-27T14:16:34Z</time>
      </trkpt>
      <trkpt lat="45.64496" lon="6.5395">
        <ele>1973</ele>
        <time>2022-07-27T14:16:35Z</time>
      </trkpt>
      <trkpt lat="45.64496" lon="6.53949">
        <ele>1973</ele>
        <time>2022-07-27T14:16:36Z</time>
      </trkpt>
      <trkpt lat="45.64496" lon="6.53948">
        <ele>1973</ele>
        <time>2022-07-27T14:16:37Z</time>
      </trkpt>
      <trkpt lat="45.64496" lon="6.53948">
        <ele>1973</ele>
        <time>2022-07-27T14:16:38Z</time>
      </trkpt>
      <trkpt lat="45.64497" lon="6.53947">
        <ele>1973</ele>
        <time>2022-07-27T14:16:39Z</time>
      </trkpt>
      <trkpt lat="45.64497" lon="6.53946">
        <ele>1973</ele>
        <time>2022-07-27T14:16:40Z</time>
      </trkpt>
      <trkpt lat="45.64497" lon="6.53945">
        <ele>1974</ele>
        <time>2022-07-27T14:16:41Z</time>
      </trkpt>
      <trkpt lat="45.64497" lon="6.53944">
        <ele>1974</ele>
        <time>2022-07-27T14:16:42Z</time>
      </trkpt>
      <trkpt lat="45.64497" lon="6.53944">
        <ele>1974</ele>
        <time>2022-07-27T14:16:43Z</time>
      </trkpt>
      <trkpt lat="45.64498" lon="6.53943">
        <ele>1974</ele>
        <time>2022-07-27T14:16:44Z</time>
      </trkpt>
      <trkpt lat="45.64498" lon="6.53942">
        <ele>1974</ele>
        <time>2022-07-27T14:16:45Z</time>
      </trkpt>
      <trkpt lat="45.64498" lon="6.53941">
        <ele>1974</ele>
        <time>2022-07-27T14:16:46Z</time>
      </trkpt>
      <trkpt lat="45.64498" lon="6.5394">
        <ele>1974</ele>
        <time>2022-07-27T14:16:47Z</time>
      </trkpt>
      <trkpt lat="45.64498" lon="6.53939">
        <ele>1974</ele>
        <time>2022-07-27T14:16:48Z</time>
      </trkpt>
      <trkpt lat="45.64498" lon="6.53938">
        <ele>1974</ele>
        <time>2022-07-27T14:16:49Z</time>
      </trkpt>
      <trkpt lat="45.64498" lon="6.53937">
        <ele>1974</ele>
        <time>2022-07-27T14:16:50Z</time>
      </trkpt>
      <trkpt lat="45.64498" lon="6.53936">
        <ele>1975</ele>
        <time>2022-07-27T14:16:51Z</time>
      </trkpt>
      <trkpt lat="45.64498" lon="6.53935">
        <ele>1975</ele>
        <time>2022-07-27T14:16:52Z</time>
      </trkpt>
      <trkpt lat="45.64498" lon="6.53934">
        <ele>1975</ele>
        <time>2022-07-27T14:16:53Z</time>
      </trkpt>
      <trkpt lat="45.64498" lon="6.53933">
        <ele>1975</ele>
        <time>2022-07-27T14:16:54Z</time>
      </trkpt>
      <trkpt lat="45.64498" lon="6.53932">
        <ele>1975</ele>
        <time>2022-07-27T14:16:55Z</time>
      </trkpt>
      <trkpt lat="45.64499" lon="6.53931">
        <ele>1976</ele>
        <time>2022-07-27T14:16:56Z</time>
      </trkpt>
      <trkpt lat="45.64499" lon="6.5393">
        <ele>1976</ele>
        <time>2022-07-27T14:16:57Z</time>
      </trkpt>
      <trkpt lat="45.64499" lon="6.53929">
        <ele>1976</ele>
        <time>2022-07-27T14:16:58Z</time>
      </trkpt>
      <trkpt lat="45.645" lon="6.53928">
        <ele>1976</ele>
        <time>2022-07-27T14:16:59Z</time>
      </trkpt>
      <trkpt lat="45.645" lon="6.53928">
        <ele>1976</ele>
        <time>2022-07-27T14:17:00Z</time>
      </trkpt>
      <trkpt lat="45.64501" lon="6.53927">
        <ele>1976</ele>
        <time>2022-07-27T14:17:01Z</time>
      </trkpt>
      <trkpt lat="45.64501" lon="6.53926">
        <ele>1976</ele>
        <time>2022-07-27T14:17:02Z</time>
      </trkpt>
      <trkpt lat="45.64501" lon="6.53925">
        <ele>1976</ele>
        <time>2022-07-27T14:17:03Z</time>
      </trkpt>
      <trkpt lat="45.64502" lon="6.53923">
        <ele>1976</ele>
        <time>2022-07-27T14:17:04Z</time>
      </trkpt>
      <trkpt lat="45.64502" lon="6.53922">
        <ele>1976</ele>
        <time>2022-07-27T14:17:05Z</time>
      </trkpt>
      <trkpt lat="45.64502" lon="6.53921">
        <ele>1977</ele>
        <time>2022-07-27T14:17:06Z</time>
      </trkpt>
      <trkpt lat="45.64503" lon="6.53919">
        <ele>1978</ele>
        <time>2022-07-27T14:17:29Z</time>
      </trkpt>
      <trkpt lat="45.64503" lon="6.53919">
        <ele>1978</ele>
        <time>2022-07-27T14:17:30Z</time>
      </trkpt>
      <trkpt lat="45.64504" lon="6.53918">
        <ele>1978</ele>
        <time>2022-07-27T14:17:31Z</time>
      </trkpt>
      <trkpt lat="45.64504" lon="6.53918">
        <ele>1978</ele>
        <time>2022-07-27T14:17:32Z</time>
      </trkpt>
      <trkpt lat="45.64505" lon="6.53917">
        <ele>1978</ele>
        <time>2022-07-27T14:17:33Z</time>
      </trkpt>
      <trkpt lat="45.64505" lon="6.53916">
        <ele>1978</ele>
        <time>2022-07-27T14:17:34Z</time>
      </trkpt>
      <trkpt lat="45.64505" lon="6.53915">
        <ele>1978</ele>
        <time>2022-07-27T14:17:35Z</time>
      </trkpt>
      <trkpt lat="45.64506" lon="6.53914">
        <ele>1978</ele>
        <time>2022-07-27T14:17:36Z</time>
      </trkpt>
      <trkpt lat="45.64506" lon="6.53913">
        <ele>1978</ele>
        <time>2022-07-27T14:17:37Z</time>
      </trkpt>
      <trkpt lat="45.64506" lon="6.53912">
        <ele>1978</ele>
        <time>2022-07-27T14:17:38Z</time>
      </trkpt>
      <trkpt lat="45.64507" lon="6.53911">
        <ele>1978</ele>
        <time>2022-07-27T14:17:39Z</time>
      </trkpt>
      <trkpt lat="45.64507" lon="6.5391">
        <ele>1978</ele>
        <time>2022-07-27T14:17:40Z</time>
      </trkpt>
      <trkpt lat="45.64507" lon="6.5391">
        <ele>1978</ele>
        <time>2022-07-27T14:17:41Z</time>
      </trkpt>
      <trkpt lat="45.64507" lon="6.53909">
        <ele>1978</ele>
        <time>2022-07-27T14:17:42Z</time>
      </trkpt>
      <trkpt lat="45.64508" lon="6.53908">
        <ele>1978</ele>
        <time>2022-07-27T14:17:43Z</time>
      </trkpt>
      <trkpt lat="45.64508" lon="6.53907">
        <ele>1978</ele>
        <time>2022-07-27T14:17:44Z</time>
      </trkpt>
      <trkpt lat="45.64508" lon="6.53907">
        <ele>1978</ele>
        <time>2022-07-27T14:17:45Z</time>
      </trkpt>
      <trkpt lat="45.64508" lon="6.53906">
        <ele>1979</ele>
        <time>2022-07-27T14:17:46Z</time>
      </trkpt>
      <trkpt lat="45.64509" lon="6.53905">
        <ele>1979</ele>
        <time>2022-07-27T14:17:47Z</time>
      </trkpt>
      <trkpt lat="45.64509" lon="6.53904">
        <ele>1979</ele>
        <time>2022-07-27T14:17:48Z</time>
      </trkpt>
      <trkpt lat="45.64509" lon="6.53904">
        <ele>1979</ele>
        <time>2022-07-27T14:17:49Z</time>
      </trkpt>
      <trkpt lat="45.64509" lon="6.53903">
        <ele>1979</ele>
        <time>2022-07-27T14:17:50Z</time>
      </trkpt>
      <trkpt lat="45.64509" lon="6.53902">
        <ele>1979</ele>
        <time>2022-07-27T14:17:51Z</time>
      </trkpt>
      <trkpt lat="45.64509" lon="6.539">
        <ele>1979</ele>
        <time>2022-07-27T14:17:52Z</time>
      </trkpt>
      <trkpt lat="45.64509" lon="6.53899">
        <ele>1979</ele>
        <time>2022-07-27T14:17:53Z</time>
      </trkpt>
      <trkpt lat="45.64509" lon="6.53898">
        <ele>1979</ele>
        <time>2022-07-27T14:17:54Z</time>
      </trkpt>
      <trkpt lat="45.64509" lon="6.53897">
        <ele>1979</ele>
        <time>2022-07-27T14:17:55Z</time>
      </trkpt>
      <trkpt lat="45.64509" lon="6.53896">
        <ele>1980</ele>
        <time>2022-07-27T14:17:56Z</time>
      </trkpt>
      <trkpt lat="45.64509" lon="6.53894">
        <ele>1980</ele>
        <time>2022-07-27T14:17:57Z</time>
      </trkpt>
      <trkpt lat="45.64509" lon="6.53893">
        <ele>1980</ele>
        <time>2022-07-27T14:17:58Z</time>
      </trkpt>
      <trkpt lat="45.64508" lon="6.53891">
        <ele>1980</ele>
        <time>2022-07-27T14:17:59Z</time>
      </trkpt>
      <trkpt lat="45.64508" lon="6.5389">
        <ele>1980</ele>
        <time>2022-07-27T14:18:00Z</time>
      </trkpt>
      <trkpt lat="45.64508" lon="6.53888">
        <ele>1980</ele>
        <time>2022-07-27T14:18:01Z</time>
      </trkpt>
      <trkpt lat="45.64507" lon="6.53887">
        <ele>1980</ele>
        <time>2022-07-27T14:18:02Z</time>
      </trkpt>
      <trkpt lat="45.64507" lon="6.53886">
        <ele>1980</ele>
        <time>2022-07-27T14:18:03Z</time>
      </trkpt>
      <trkpt lat="45.64507" lon="6.53884">
        <ele>1980</ele>
        <time>2022-07-27T14:18:04Z</time>
      </trkpt>
      <trkpt lat="45.64506" lon="6.53883">
        <ele>1980</ele>
        <time>2022-07-27T14:18:05Z</time>
      </trkpt>
      <trkpt lat="45.64506" lon="6.53882">
        <ele>1981</ele>
        <time>2022-07-27T14:18:06Z</time>
      </trkpt>
      <trkpt lat="45.64506" lon="6.53881">
        <ele>1981</ele>
        <time>2022-07-27T14:18:07Z</time>
      </trkpt>
      <trkpt lat="45.64506" lon="6.5388">
        <ele>1981</ele>
        <time>2022-07-27T14:18:08Z</time>
      </trkpt>
      <trkpt lat="45.64506" lon="6.5388">
        <ele>1981</ele>
        <time>2022-07-27T14:18:09Z</time>
      </trkpt>
      <trkpt lat="45.64506" lon="6.53879">
        <ele>1981</ele>
        <time>2022-07-27T14:18:10Z</time>
      </trkpt>
      <trkpt lat="45.64507" lon="6.53879">
        <ele>1981</ele>
        <time>2022-07-27T14:18:11Z</time>
      </trkpt>
      <trkpt lat="45.64508" lon="6.53877">
        <ele>1981</ele>
        <time>2022-07-27T14:18:24Z</time>
      </trkpt>
      <trkpt lat="45.64508" lon="6.53877">
        <ele>1981</ele>
        <time>2022-07-27T14:18:25Z</time>
      </trkpt>
      <trkpt lat="45.64508" lon="6.53876">
        <ele>1981</ele>
        <time>2022-07-27T14:18:26Z</time>
      </trkpt>
      <trkpt lat="45.64508" lon="6.53875">
        <ele>1981</ele>
        <time>2022-07-27T14:18:27Z</time>
      </trkpt>
      <trkpt lat="45.64508" lon="6.53874">
        <ele>1981</ele>
        <time>2022-07-27T14:18:28Z</time>
      </trkpt>
      <trkpt lat="45.64508" lon="6.53873">
        <ele>1981</ele>
        <time>2022-07-27T14:18:29Z</time>
      </trkpt>
      <trkpt lat="45.64508" lon="6.53872">
        <ele>1981</ele>
        <time>2022-07-27T14:18:30Z</time>
      </trkpt>
      <trkpt lat="45.64508" lon="6.53871">
        <ele>1982</ele>
        <time>2022-07-27T14:18:31Z</time>
      </trkpt>
      <trkpt lat="45.64508" lon="6.53869">
        <ele>1982</ele>
        <time>2022-07-27T14:18:32Z</time>
      </trkpt>
      <trkpt lat="45.64508" lon="6.53868">
        <ele>1982</ele>
        <time>2022-07-27T14:18:33Z</time>
      </trkpt>
      <trkpt lat="45.64509" lon="6.53868">
        <ele>1982</ele>
        <time>2022-07-27T14:18:34Z</time>
      </trkpt>
      <trkpt lat="45.64509" lon="6.53867">
        <ele>1982</ele>
        <time>2022-07-27T14:18:35Z</time>
      </trkpt>
      <trkpt lat="45.64509" lon="6.53866">
        <ele>1982</ele>
        <time>2022-07-27T14:18:36Z</time>
      </trkpt>
      <trkpt lat="45.6451" lon="6.53866">
        <ele>1982</ele>
        <time>2022-07-27T14:18:37Z</time>
      </trkpt>
      <trkpt lat="45.6451" lon="6.53866">
        <ele>1982</ele>
        <time>2022-07-27T14:18:38Z</time>
      </trkpt>
      <trkpt lat="45.6451" lon="6.53865">
        <ele>1982</ele>
        <time>2022-07-27T14:18:39Z</time>
      </trkpt>
      <trkpt lat="45.6451" lon="6.53865">
        <ele>1982</ele>
        <time>2022-07-27T14:18:40Z</time>
      </trkpt>
      <trkpt lat="45.64511" lon="6.53865">
        <ele>1983</ele>
        <time>2022-07-27T14:18:41Z</time>
      </trkpt>
      <trkpt lat="45.64511" lon="6.53864">
        <ele>1983</ele>
        <time>2022-07-27T14:18:42Z</time>
      </trkpt>
      <trkpt lat="45.64512" lon="6.53863">
        <ele>1983</ele>
        <time>2022-07-27T14:18:43Z</time>
      </trkpt>
      <trkpt lat="45.64512" lon="6.53863">
        <ele>1983</ele>
        <time>2022-07-27T14:18:44Z</time>
      </trkpt>
      <trkpt lat="45.64512" lon="6.53862">
        <ele>1983</ele>
        <time>2022-07-27T14:18:45Z</time>
      </trkpt>
      <trkpt lat="45.64513" lon="6.53862">
        <ele>1984</ele>
        <time>2022-07-27T14:18:46Z</time>
      </trkpt>
      <trkpt lat="45.64513" lon="6.53861">
        <ele>1984</ele>
        <time>2022-07-27T14:18:47Z</time>
      </trkpt>
      <trkpt lat="45.64513" lon="6.53861">
        <ele>1984</ele>
        <time>2022-07-27T14:18:48Z</time>
      </trkpt>
      <trkpt lat="45.64513" lon="6.53861">
        <ele>1984</ele>
        <time>2022-07-27T14:18:49Z</time>
      </trkpt>
      <trkpt lat="45.64513" lon="6.5386">
        <ele>1984</ele>
        <time>2022-07-27T14:18:50Z</time>
      </trkpt>
      <trkpt lat="45.64513" lon="6.5386">
        <ele>1985</ele>
        <time>2022-07-27T14:18:51Z</time>
      </trkpt>
      <trkpt lat="45.64513" lon="6.53859">
        <ele>1985</ele>
        <time>2022-07-27T14:18:52Z</time>
      </trkpt>
      <trkpt lat="45.64513" lon="6.53858">
        <ele>1985</ele>
        <time>2022-07-27T14:18:53Z</time>
      </trkpt>
      <trkpt lat="45.64512" lon="6.53858">
        <ele>1985</ele>
        <time>2022-07-27T14:18:54Z</time>
      </trkpt>
      <trkpt lat="45.64512" lon="6.53857">
        <ele>1985</ele>
        <time>2022-07-27T14:18:55Z</time>
      </trkpt>
      <trkpt lat="45.64512" lon="6.53857">
        <ele>1986</ele>
        <time>2022-07-27T14:18:56Z</time>
      </trkpt>
      <trkpt lat="45.64512" lon="6.53856">
        <ele>1986</ele>
        <time>2022-07-27T14:18:57Z</time>
      </trkpt>
      <trkpt lat="45.64512" lon="6.53856">
        <ele>1986</ele>
        <time>2022-07-27T14:18:58Z</time>
      </trkpt>
      <trkpt lat="45.64512" lon="6.53856">
        <ele>1986</ele>
        <time>2022-07-27T14:18:59Z</time>
      </trkpt>
      <trkpt lat="45.64512" lon="6.53855">
        <ele>1986</ele>
        <time>2022-07-27T14:19:00Z</time>
      </trkpt>
      <trkpt lat="45.64512" lon="6.53854">
        <ele>1987</ele>
        <time>2022-07-27T14:19:01Z</time>
      </trkpt>
      <trkpt lat="45.64512" lon="6.53852">
        <ele>1987</ele>
        <time>2022-07-27T14:19:02Z</time>
      </trkpt>
      <trkpt lat="45.64512" lon="6.53848">
        <ele>1989</ele>
        <time>2022-07-27T14:19:14Z</time>
      </trkpt>
      <trkpt lat="45.64512" lon="6.53846">
        <ele>1989</ele>
        <time>2022-07-27T14:19:15Z</time>
      </trkpt>
      <trkpt lat="45.64512" lon="6.53844">
        <ele>1990</ele>
        <time>2022-07-27T14:19:16Z</time>
      </trkpt>
      <trkpt lat="45.64511" lon="6.53842">
        <ele>1990</ele>
        <time>2022-07-27T14:19:17Z</time>
      </trkpt>
      <trkpt lat="45.64511" lon="6.53841">
        <ele>1990</ele>
        <time>2022-07-27T14:19:18Z</time>
      </trkpt>
      <trkpt lat="45.64511" lon="6.5384">
        <ele>1990</ele>
        <time>2022-07-27T14:19:19Z</time>
      </trkpt>
      <trkpt lat="45.64511" lon="6.5384">
        <ele>1990</ele>
        <time>2022-07-27T14:19:20Z</time>
      </trkpt>
      <trkpt lat="45.64511" lon="6.53839">
        <ele>1991</ele>
        <time>2022-07-27T14:19:21Z</time>
      </trkpt>
      <trkpt lat="45.64511" lon="6.53837">
        <ele>1991</ele>
        <time>2022-07-27T14:19:22Z</time>
      </trkpt>
      <trkpt lat="45.64511" lon="6.53837">
        <ele>1991</ele>
        <time>2022-07-27T14:19:23Z</time>
      </trkpt>
      <trkpt lat="45.64511" lon="6.53836">
        <ele>1991</ele>
        <time>2022-07-27T14:19:24Z</time>
      </trkpt>
      <trkpt lat="45.64511" lon="6.53835">
        <ele>1991</ele>
        <time>2022-07-27T14:19:25Z</time>
      </trkpt>
      <trkpt lat="45.64511" lon="6.53833">
        <ele>1992</ele>
        <time>2022-07-27T14:19:26Z</time>
      </trkpt>
      <trkpt lat="45.64511" lon="6.53832">
        <ele>1992</ele>
        <time>2022-07-27T14:19:27Z</time>
      </trkpt>
      <trkpt lat="45.64511" lon="6.53831">
        <ele>1992</ele>
        <time>2022-07-27T14:19:28Z</time>
      </trkpt>
      <trkpt lat="45.64511" lon="6.5383">
        <ele>1993</ele>
        <time>2022-07-27T14:19:59Z</time>
      </trkpt>
      <trkpt lat="45.64511" lon="6.53829">
        <ele>1993</ele>
        <time>2022-07-27T14:20:00Z</time>
      </trkpt>
      <trkpt lat="45.64511" lon="6.53828">
        <ele>1993</ele>
        <time>2022-07-27T14:20:01Z</time>
      </trkpt>
      <trkpt lat="45.64511" lon="6.53827">
        <ele>1993</ele>
        <time>2022-07-27T14:20:02Z</time>
      </trkpt>
      <trkpt lat="45.64511" lon="6.53826">
        <ele>1993</ele>
        <time>2022-07-27T14:20:03Z</time>
      </trkpt>
      <trkpt lat="45.64511" lon="6.53824">
        <ele>1993</ele>
        <time>2022-07-27T14:20:04Z</time>
      </trkpt>
      <trkpt lat="45.64511" lon="6.53823">
        <ele>1993</ele>
        <time>2022-07-27T14:20:05Z</time>
      </trkpt>
      <trkpt lat="45.64511" lon="6.53822">
        <ele>1993</ele>
        <time>2022-07-27T14:20:06Z</time>
      </trkpt>
      <trkpt lat="45.6451" lon="6.5382">
        <ele>1993</ele>
        <time>2022-07-27T14:20:07Z</time>
      </trkpt>
      <trkpt lat="45.6451" lon="6.53819">
        <ele>1993</ele>
        <time>2022-07-27T14:20:08Z</time>
      </trkpt>
      <trkpt lat="45.6451" lon="6.53817">
        <ele>1993</ele>
        <time>2022-07-27T14:20:09Z</time>
      </trkpt>
      <trkpt lat="45.64509" lon="6.53816">
        <ele>1993</ele>
        <time>2022-07-27T14:20:10Z</time>
      </trkpt>
      <trkpt lat="45.64509" lon="6.53815">
        <ele>1993</ele>
        <time>2022-07-27T14:20:11Z</time>
      </trkpt>
      <trkpt lat="45.64508" lon="6.53813">
        <ele>1993</ele>
        <time>2022-07-27T14:20:12Z</time>
      </trkpt>
      <trkpt lat="45.64508" lon="6.53812">
        <ele>1993</ele>
        <time>2022-07-27T14:20:13Z</time>
      </trkpt>
      <trkpt lat="45.64508" lon="6.53811">
        <ele>1993</ele>
        <time>2022-07-27T14:20:14Z</time>
      </trkpt>
      <trkpt lat="45.64508" lon="6.53809">
        <ele>1993</ele>
        <time>2022-07-27T14:20:15Z</time>
      </trkpt>
      <trkpt lat="45.64507" lon="6.53808">
        <ele>1993</ele>
        <time>2022-07-27T14:20:16Z</time>
      </trkpt>
      <trkpt lat="45.64507" lon="6.53807">
        <ele>1993</ele>
        <time>2022-07-27T14:20:17Z</time>
      </trkpt>
      <trkpt lat="45.64507" lon="6.53805">
        <ele>1993</ele>
        <time>2022-07-27T14:20:18Z</time>
      </trkpt>
      <trkpt lat="45.64507" lon="6.53804">
        <ele>1993</ele>
        <time>2022-07-27T14:20:19Z</time>
      </trkpt>
      <trkpt lat="45.64507" lon="6.53803">
        <ele>1993</ele>
        <time>2022-07-27T14:20:20Z</time>
      </trkpt>
      <trkpt lat="45.64507" lon="6.53801">
        <ele>1993</ele>
        <time>2022-07-27T14:20:21Z</time>
      </trkpt>
      <trkpt lat="45.64507" lon="6.538">
        <ele>1993</ele>
        <time>2022-07-27T14:20:22Z</time>
      </trkpt>
      <trkpt lat="45.64507" lon="6.53799">
        <ele>1993</ele>
        <time>2022-07-27T14:20:23Z</time>
      </trkpt>
      <trkpt lat="45.64506" lon="6.53798">
        <ele>1993</ele>
        <time>2022-07-27T14:20:24Z</time>
      </trkpt>
      <trkpt lat="45.64506" lon="6.53796">
        <ele>1993</ele>
        <time>2022-07-27T14:20:25Z</time>
      </trkpt>
      <trkpt lat="45.64506" lon="6.53795">
        <ele>1994</ele>
        <time>2022-07-27T14:20:26Z</time>
      </trkpt>
      <trkpt lat="45.64506" lon="6.53794">
        <ele>1994</ele>
        <time>2022-07-27T14:20:27Z</time>
      </trkpt>
      <trkpt lat="45.64506" lon="6.53793">
        <ele>1994</ele>
        <time>2022-07-27T14:20:28Z</time>
      </trkpt>
      <trkpt lat="45.64506" lon="6.53792">
        <ele>1994</ele>
        <time>2022-07-27T14:20:29Z</time>
      </trkpt>
      <trkpt lat="45.64506" lon="6.53791">
        <ele>1994</ele>
        <time>2022-07-27T14:20:30Z</time>
      </trkpt>
      <trkpt lat="45.64506" lon="6.5379">
        <ele>1994</ele>
        <time>2022-07-27T14:20:31Z</time>
      </trkpt>
      <trkpt lat="45.64506" lon="6.53789">
        <ele>1994</ele>
        <time>2022-07-27T14:20:32Z</time>
      </trkpt>
      <trkpt lat="45.64506" lon="6.53788">
        <ele>1994</ele>
        <time>2022-07-27T14:20:33Z</time>
      </trkpt>
      <trkpt lat="45.64505" lon="6.53786">
        <ele>1994</ele>
        <time>2022-07-27T14:21:15Z</time>
      </trkpt>
      <trkpt lat="45.64505" lon="6.53785">
        <ele>1994</ele>
        <time>2022-07-27T14:21:16Z</time>
      </trkpt>
      <trkpt lat="45.64505" lon="6.53784">
        <ele>1993</ele>
        <time>2022-07-27T14:21:17Z</time>
      </trkpt>
      <trkpt lat="45.64505" lon="6.53783">
        <ele>1993</ele>
        <time>2022-07-27T14:21:18Z</time>
      </trkpt>
      <trkpt lat="45.64505" lon="6.53782">
        <ele>1993</ele>
        <time>2022-07-27T14:21:19Z</time>
      </trkpt>
      <trkpt lat="45.64505" lon="6.53781">
        <ele>1993</ele>
        <time>2022-07-27T14:21:20Z</time>
      </trkpt>
      <trkpt lat="45.64505" lon="6.5378">
        <ele>1993</ele>
        <time>2022-07-27T14:21:21Z</time>
      </trkpt>
      <trkpt lat="45.64505" lon="6.53779">
        <ele>1992</ele>
        <time>2022-07-27T14:21:22Z</time>
      </trkpt>
      <trkpt lat="45.64505" lon="6.53778">
        <ele>1992</ele>
        <time>2022-07-27T14:21:23Z</time>
      </trkpt>
      <trkpt lat="45.64505" lon="6.53777">
        <ele>1992</ele>
        <time>2022-07-27T14:21:24Z</time>
      </trkpt>
      <trkpt lat="45.64505" lon="6.53776">
        <ele>1992</ele>
        <time>2022-07-27T14:21:25Z</time>
      </trkpt>
      <trkpt lat="45.64505" lon="6.53775">
        <ele>1992</ele>
        <time>2022-07-27T14:21:26Z</time>
      </trkpt>
      <trkpt lat="45.64505" lon="6.53774">
        <ele>1992</ele>
        <time>2022-07-27T14:21:27Z</time>
      </trkpt>
      <trkpt lat="45.64505" lon="6.53773">
        <ele>1992</ele>
        <time>2022-07-27T14:21:28Z</time>
      </trkpt>
      <trkpt lat="45.64504" lon="6.53772">
        <ele>1992</ele>
        <time>2022-07-27T14:21:29Z</time>
      </trkpt>
      <trkpt lat="45.64504" lon="6.53771">
        <ele>1992</ele>
        <time>2022-07-27T14:21:30Z</time>
      </trkpt>
      <trkpt lat="45.64503" lon="6.53771">
        <ele>1992</ele>
        <time>2022-07-27T14:21:31Z</time>
      </trkpt>
      <trkpt lat="45.64503" lon="6.53769">
        <ele>1991</ele>
        <time>2022-07-27T14:21:32Z</time>
      </trkpt>
      <trkpt lat="45.64502" lon="6.53768">
        <ele>1991</ele>
        <time>2022-07-27T14:21:33Z</time>
      </trkpt>
      <trkpt lat="45.64502" lon="6.53767">
        <ele>1991</ele>
        <time>2022-07-27T14:21:34Z</time>
      </trkpt>
      <trkpt lat="45.64502" lon="6.53765">
        <ele>1991</ele>
        <time>2022-07-27T14:21:35Z</time>
      </trkpt>
      <trkpt lat="45.64502" lon="6.53764">
        <ele>1991</ele>
        <time>2022-07-27T14:21:36Z</time>
      </trkpt>
      <trkpt lat="45.64501" lon="6.53762">
        <ele>1991</ele>
        <time>2022-07-27T14:21:37Z</time>
      </trkpt>
      <trkpt lat="45.64501" lon="6.53761">
        <ele>1991</ele>
        <time>2022-07-27T14:21:38Z</time>
      </trkpt>
      <trkpt lat="45.645" lon="6.5376">
        <ele>1991</ele>
        <time>2022-07-27T14:21:39Z</time>
      </trkpt>
      <trkpt lat="45.645" lon="6.53758">
        <ele>1991</ele>
        <time>2022-07-27T14:21:40Z</time>
      </trkpt>
      <trkpt lat="45.645" lon="6.53757">
        <ele>1991</ele>
        <time>2022-07-27T14:21:41Z</time>
      </trkpt>
      <trkpt lat="45.64499" lon="6.53756">
        <ele>1991</ele>
        <time>2022-07-27T14:21:42Z</time>
      </trkpt>
      <trkpt lat="45.64499" lon="6.53755">
        <ele>1991</ele>
        <time>2022-07-27T14:21:43Z</time>
      </trkpt>
      <trkpt lat="45.64499" lon="6.53754">
        <ele>1991</ele>
        <time>2022-07-27T14:21:44Z</time>
      </trkpt>
      <trkpt lat="45.64499" lon="6.53753">
        <ele>1991</ele>
        <time>2022-07-27T14:21:45Z</time>
      </trkpt>
      <trkpt lat="45.64498" lon="6.53752">
        <ele>1990</ele>
        <time>2022-07-27T14:22:32Z</time>
      </trkpt>
      <trkpt lat="45.64498" lon="6.53751">
        <ele>1990</ele>
        <time>2022-07-27T14:22:33Z</time>
      </trkpt>
      <trkpt lat="45.64498" lon="6.5375">
        <ele>1990</ele>
        <time>2022-07-27T14:22:34Z</time>
      </trkpt>
      <trkpt lat="45.64498" lon="6.53749">
        <ele>1990</ele>
        <time>2022-07-27T14:22:35Z</time>
      </trkpt>
      <trkpt lat="45.64498" lon="6.53749">
        <ele>1990</ele>
        <time>2022-07-27T14:22:36Z</time>
      </trkpt>
      <trkpt lat="45.64498" lon="6.53748">
        <ele>1990</ele>
        <time>2022-07-27T14:22:37Z</time>
      </trkpt>
      <trkpt lat="45.64497" lon="6.53747">
        <ele>1990</ele>
        <time>2022-07-27T14:22:38Z</time>
      </trkpt>
      <trkpt lat="45.64497" lon="6.53746">
        <ele>1990</ele>
        <time>2022-07-27T14:22:39Z</time>
      </trkpt>
      <trkpt lat="45.64497" lon="6.53745">
        <ele>1990</ele>
        <time>2022-07-27T14:22:40Z</time>
      </trkpt>
      <trkpt lat="45.64496" lon="6.53743">
        <ele>1990</ele>
        <time>2022-07-27T14:22:41Z</time>
      </trkpt>
      <trkpt lat="45.64496" lon="6.53742">
        <ele>1990</ele>
        <time>2022-07-27T14:22:42Z</time>
      </trkpt>
      <trkpt lat="45.64496" lon="6.53742">
        <ele>1990</ele>
        <time>2022-07-27T14:22:43Z</time>
      </trkpt>
      <trkpt lat="45.64495" lon="6.53741">
        <ele>1990</ele>
        <time>2022-07-27T14:22:44Z</time>
      </trkpt>
      <trkpt lat="45.64495" lon="6.5374">
        <ele>1990</ele>
        <time>2022-07-27T14:22:45Z</time>
      </trkpt>
      <trkpt lat="45.64495" lon="6.53738">
        <ele>1990</ele>
        <time>2022-07-27T14:22:46Z</time>
      </trkpt>
      <trkpt lat="45.64495" lon="6.53737">
        <ele>1989</ele>
        <time>2022-07-27T14:22:47Z</time>
      </trkpt>
      <trkpt lat="45.64495" lon="6.53736">
        <ele>1989</ele>
        <time>2022-07-27T14:22:48Z</time>
      </trkpt>
      <trkpt lat="45.64495" lon="6.53735">
        <ele>1989</ele>
        <time>2022-07-27T14:22:49Z</time>
      </trkpt>
      <trkpt lat="45.64495" lon="6.53733">
        <ele>1989</ele>
        <time>2022-07-27T14:22:50Z</time>
      </trkpt>
      <trkpt lat="45.64495" lon="6.53732">
        <ele>1989</ele>
        <time>2022-07-27T14:22:51Z</time>
      </trkpt>
      <trkpt lat="45.64496" lon="6.53731">
        <ele>1988</ele>
        <time>2022-07-27T14:22:52Z</time>
      </trkpt>
      <trkpt lat="45.64496" lon="6.53729">
        <ele>1988</ele>
        <time>2022-07-27T14:22:53Z</time>
      </trkpt>
      <trkpt lat="45.64496" lon="6.53728">
        <ele>1988</ele>
        <time>2022-07-27T14:22:54Z</time>
      </trkpt>
      <trkpt lat="45.64496" lon="6.53727">
        <ele>1988</ele>
        <time>2022-07-27T14:22:55Z</time>
      </trkpt>
      <trkpt lat="45.64496" lon="6.53726">
        <ele>1988</ele>
        <time>2022-07-27T14:22:56Z</time>
      </trkpt>
      <trkpt lat="45.64496" lon="6.53724">
        <ele>1988</ele>
        <time>2022-07-27T14:22:57Z</time>
      </trkpt>
      <trkpt lat="45.64496" lon="6.53723">
        <ele>1988</ele>
        <time>2022-07-27T14:22:58Z</time>
      </trkpt>
      <trkpt lat="45.64496" lon="6.53722">
        <ele>1988</ele>
        <time>2022-07-27T14:22:59Z</time>
      </trkpt>
      <trkpt lat="45.64496" lon="6.5372">
        <ele>1988</ele>
        <time>2022-07-27T14:23:00Z</time>
      </trkpt>
      <trkpt lat="45.64495" lon="6.53719">
        <ele>1988</ele>
        <time>2022-07-27T14:23:01Z</time>
      </trkpt>
      <trkpt lat="45.64495" lon="6.53718">
        <ele>1987</ele>
        <time>2022-07-27T14:23:02Z</time>
      </trkpt>
      <trkpt lat="45.64495" lon="6.53717">
        <ele>1987</ele>
        <time>2022-07-27T14:23:03Z</time>
      </trkpt>
      <trkpt lat="45.64494" lon="6.53715">
        <ele>1987</ele>
        <time>2022-07-27T14:23:04Z</time>
      </trkpt>
      <trkpt lat="45.64494" lon="6.53714">
        <ele>1987</ele>
        <time>2022-07-27T14:23:05Z</time>
      </trkpt>
      <trkpt lat="45.64494" lon="6.53713">
        <ele>1987</ele>
        <time>2022-07-27T14:23:06Z</time>
      </trkpt>
      <trkpt lat="45.64494" lon="6.53712">
        <ele>1987</ele>
        <time>2022-07-27T14:23:07Z</time>
      </trkpt>
      <trkpt lat="45.64493" lon="6.5371">
        <ele>1987</ele>
        <time>2022-07-27T14:23:08Z</time>
      </trkpt>
      <trkpt lat="45.64493" lon="6.53709">
        <ele>1987</ele>
        <time>2022-07-27T14:23:09Z</time>
      </trkpt>
      <trkpt lat="45.64493" lon="6.53708">
        <ele>1987</ele>
        <time>2022-07-27T14:23:10Z</time>
      </trkpt>
      <trkpt lat="45.64493" lon="6.53707">
        <ele>1987</ele>
        <time>2022-07-27T14:23:11Z</time>
      </trkpt>
      <trkpt lat="45.64493" lon="6.53706">
        <ele>1986</ele>
        <time>2022-07-27T14:23:12Z</time>
      </trkpt>
      <trkpt lat="45.64494" lon="6.53705">
        <ele>1986</ele>
        <time>2022-07-27T14:23:13Z</time>
      </trkpt>
      <trkpt lat="45.64494" lon="6.53704">
        <ele>1986</ele>
        <time>2022-07-27T14:23:14Z</time>
      </trkpt>
      <trkpt lat="45.64494" lon="6.53703">
        <ele>1986</ele>
        <time>2022-07-27T14:23:15Z</time>
      </trkpt>
      <trkpt lat="45.64494" lon="6.53702">
        <ele>1986</ele>
        <time>2022-07-27T14:23:16Z</time>
      </trkpt>
      <trkpt lat="45.64494" lon="6.53702">
        <ele>1986</ele>
        <time>2022-07-27T14:23:17Z</time>
      </trkpt>
      <trkpt lat="45.64494" lon="6.53701">
        <ele>1986</ele>
        <time>2022-07-27T14:23:18Z</time>
      </trkpt>
      <trkpt lat="45.64494" lon="6.53701">
        <ele>1986</ele>
        <time>2022-07-27T14:23:19Z</time>
      </trkpt>
      <trkpt lat="45.64494" lon="6.537">
        <ele>1986</ele>
        <time>2022-07-27T14:23:20Z</time>
      </trkpt>
      <trkpt lat="45.64494" lon="6.53699">
        <ele>1986</ele>
        <time>2022-07-27T14:23:21Z</time>
      </trkpt>
      <trkpt lat="45.64493" lon="6.53697">
        <ele>1985</ele>
        <time>2022-07-27T14:23:28Z</time>
      </trkpt>
      <trkpt lat="45.64493" lon="6.53696">
        <ele>1985</ele>
        <time>2022-07-27T14:23:29Z</time>
      </trkpt>
      <trkpt lat="45.64493" lon="6.53695">
        <ele>1985</ele>
        <time>2022-07-27T14:23:30Z</time>
      </trkpt>
      <trkpt lat="45.64492" lon="6.53694">
        <ele>1985</ele>
        <time>2022-07-27T14:23:31Z</time>
      </trkpt>
      <trkpt lat="45.64492" lon="6.53694">
        <ele>1984</ele>
        <time>2022-07-27T14:23:32Z</time>
      </trkpt>
      <trkpt lat="45.64491" lon="6.53693">
        <ele>1984</ele>
        <time>2022-07-27T14:23:33Z</time>
      </trkpt>
      <trkpt lat="45.64491" lon="6.53692">
        <ele>1984</ele>
        <time>2022-07-27T14:23:34Z</time>
      </trkpt>
      <trkpt lat="45.6449" lon="6.53692">
        <ele>1984</ele>
        <time>2022-07-27T14:23:35Z</time>
      </trkpt>
      <trkpt lat="45.6449" lon="6.53691">
        <ele>1984</ele>
        <time>2022-07-27T14:23:36Z</time>
      </trkpt>
      <trkpt lat="45.64489" lon="6.5369">
        <ele>1983</ele>
        <time>2022-07-27T14:23:37Z</time>
      </trkpt>
      <trkpt lat="45.64488" lon="6.5369">
        <ele>1983</ele>
        <time>2022-07-27T14:23:38Z</time>
      </trkpt>
      <trkpt lat="45.64488" lon="6.53689">
        <ele>1983</ele>
        <time>2022-07-27T14:23:39Z</time>
      </trkpt>
      <trkpt lat="45.64487" lon="6.53689">
        <ele>1983</ele>
        <time>2022-07-27T14:23:40Z</time>
      </trkpt>
      <trkpt lat="45.64487" lon="6.53688">
        <ele>1983</ele>
        <time>2022-07-27T14:23:41Z</time>
      </trkpt>
      <trkpt lat="45.64487" lon="6.53688">
        <ele>1983</ele>
        <time>2022-07-27T14:23:42Z</time>
      </trkpt>
      <trkpt lat="45.64486" lon="6.53688">
        <ele>1983</ele>
        <time>2022-07-27T14:23:43Z</time>
      </trkpt>
      <trkpt lat="45.64486" lon="6.53687">
        <ele>1983</ele>
        <time>2022-07-27T14:23:44Z</time>
      </trkpt>
      <trkpt lat="45.64485" lon="6.53687">
        <ele>1983</ele>
        <time>2022-07-27T14:23:45Z</time>
      </trkpt>
      <trkpt lat="45.64484" lon="6.53686">
        <ele>1983</ele>
        <time>2022-07-27T14:23:46Z</time>
      </trkpt>
      <trkpt lat="45.64484" lon="6.53686">
        <ele>1982</ele>
        <time>2022-07-27T14:23:47Z</time>
      </trkpt>
      <trkpt lat="45.64483" lon="6.53685">
        <ele>1982</ele>
        <time>2022-07-27T14:23:48Z</time>
      </trkpt>
      <trkpt lat="45.64483" lon="6.53685">
        <ele>1982</ele>
        <time>2022-07-27T14:23:49Z</time>
      </trkpt>
      <trkpt lat="45.64482" lon="6.53684">
        <ele>1982</ele>
        <time>2022-07-27T14:23:50Z</time>
      </trkpt>
      <trkpt lat="45.64482" lon="6.53684">
        <ele>1982</ele>
        <time>2022-07-27T14:23:51Z</time>
      </trkpt>
      <trkpt lat="45.64481" lon="6.5368">
        <ele>1978</ele>
        <time>2022-07-27T14:24:24Z</time>
      </trkpt>
      <trkpt lat="45.6448" lon="6.53678">
        <ele>1978</ele>
        <time>2022-07-27T14:24:25Z</time>
      </trkpt>
      <trkpt lat="45.6448" lon="6.53676">
        <ele>1978</ele>
        <time>2022-07-27T14:24:26Z</time>
      </trkpt>
      <trkpt lat="45.64479" lon="6.53675">
        <ele>1978</ele>
        <time>2022-07-27T14:24:27Z</time>
      </trkpt>
      <trkpt lat="45.64479" lon="6.53673">
        <ele>1978</ele>
        <time>2022-07-27T14:24:28Z</time>
      </trkpt>
      <trkpt lat="45.64479" lon="6.53672">
        <ele>1978</ele>
        <time>2022-07-27T14:24:29Z</time>
      </trkpt>
      <trkpt lat="45.6448" lon="6.53672">
        <ele>1978</ele>
        <time>2022-07-27T14:24:30Z</time>
      </trkpt>
      <trkpt lat="45.6448" lon="6.53671">
        <ele>1978</ele>
        <time>2022-07-27T14:24:31Z</time>
      </trkpt>
      <trkpt lat="45.6448" lon="6.5367">
        <ele>1977</ele>
        <time>2022-07-27T14:24:32Z</time>
      </trkpt>
      <trkpt lat="45.6448" lon="6.53669">
        <ele>1977</ele>
        <time>2022-07-27T14:24:33Z</time>
      </trkpt>
      <trkpt lat="45.6448" lon="6.53667">
        <ele>1977</ele>
        <time>2022-07-27T14:24:34Z</time>
      </trkpt>
      <trkpt lat="45.6448" lon="6.53666">
        <ele>1977</ele>
        <time>2022-07-27T14:24:35Z</time>
      </trkpt>
      <trkpt lat="45.6448" lon="6.53666">
        <ele>1977</ele>
        <time>2022-07-27T14:24:36Z</time>
      </trkpt>
      <trkpt lat="45.6448" lon="6.53666">
        <ele>1977</ele>
        <time>2022-07-27T14:24:37Z</time>
      </trkpt>
      <trkpt lat="45.6448" lon="6.53665">
        <ele>1977</ele>
        <time>2022-07-27T14:24:38Z</time>
      </trkpt>
      <trkpt lat="45.6448" lon="6.53664">
        <ele>1977</ele>
        <time>2022-07-27T14:24:39Z</time>
      </trkpt>
      <trkpt lat="45.6448" lon="6.53664">
        <ele>1977</ele>
        <time>2022-07-27T14:24:40Z</time>
      </trkpt>
      <trkpt lat="45.6448" lon="6.53663">
        <ele>1977</ele>
        <time>2022-07-27T14:24:41Z</time>
      </trkpt>
      <trkpt lat="45.6448" lon="6.53662">
        <ele>1976</ele>
        <time>2022-07-27T14:24:42Z</time>
      </trkpt>
      <trkpt lat="45.6448" lon="6.53661">
        <ele>1976</ele>
        <time>2022-07-27T14:24:43Z</time>
      </trkpt>
      <trkpt lat="45.6448" lon="6.53661">
        <ele>1976</ele>
        <time>2022-07-27T14:24:44Z</time>
      </trkpt>
      <trkpt lat="45.6448" lon="6.53661">
        <ele>1976</ele>
        <time>2022-07-27T14:24:45Z</time>
      </trkpt>
      <trkpt lat="45.64481" lon="6.5366">
        <ele>1976</ele>
        <time>2022-07-27T14:24:46Z</time>
      </trkpt>
      <trkpt lat="45.64481" lon="6.5366">
        <ele>1975</ele>
        <time>2022-07-27T14:24:47Z</time>
      </trkpt>
      <trkpt lat="45.64481" lon="6.53659">
        <ele>1975</ele>
        <time>2022-07-27T14:24:48Z</time>
      </trkpt>
      <trkpt lat="45.64482" lon="6.53659">
        <ele>1975</ele>
        <time>2022-07-27T14:24:49Z</time>
      </trkpt>
      <trkpt lat="45.64482" lon="6.53658">
        <ele>1975</ele>
        <time>2022-07-27T14:24:50Z</time>
      </trkpt>
      <trkpt lat="45.64482" lon="6.53657">
        <ele>1975</ele>
        <time>2022-07-27T14:24:51Z</time>
      </trkpt>
      <trkpt lat="45.64483" lon="6.53657">
        <ele>1974</ele>
        <time>2022-07-27T14:24:52Z</time>
      </trkpt>
      <trkpt lat="45.64483" lon="6.53655">
        <ele>1974</ele>
        <time>2022-07-27T14:24:53Z</time>
      </trkpt>
      <trkpt lat="45.64483" lon="6.53654">
        <ele>1974</ele>
        <time>2022-07-27T14:24:54Z</time>
      </trkpt>
      <trkpt lat="45.64484" lon="6.53653">
        <ele>1974</ele>
        <time>2022-07-27T14:24:55Z</time>
      </trkpt>
      <trkpt lat="45.64484" lon="6.53652">
        <ele>1974</ele>
        <time>2022-07-27T14:24:56Z</time>
      </trkpt>
      <trkpt lat="45.64484" lon="6.53651">
        <ele>1974</ele>
        <time>2022-07-27T14:24:57Z</time>
      </trkpt>
      <trkpt lat="45.64485" lon="6.53649">
        <ele>1974</ele>
        <time>2022-07-27T14:24:58Z</time>
      </trkpt>
      <trkpt lat="45.64485" lon="6.53648">
        <ele>1974</ele>
        <time>2022-07-27T14:24:59Z</time>
      </trkpt>
      <trkpt lat="45.64486" lon="6.53647">
        <ele>1974</ele>
        <time>2022-07-27T14:25:00Z</time>
      </trkpt>
      <trkpt lat="45.64487" lon="6.53645">
        <ele>1973</ele>
        <time>2022-07-27T14:25:06Z</time>
      </trkpt>
      <trkpt lat="45.64487" lon="6.53644">
        <ele>1973</ele>
        <time>2022-07-27T14:25:07Z</time>
      </trkpt>
      <trkpt lat="45.64487" lon="6.53643">
        <ele>1973</ele>
        <time>2022-07-27T14:25:08Z</time>
      </trkpt>
      <trkpt lat="45.64488" lon="6.53642">
        <ele>1973</ele>
        <time>2022-07-27T14:25:09Z</time>
      </trkpt>
      <trkpt lat="45.64488" lon="6.53641">
        <ele>1973</ele>
        <time>2022-07-27T14:25:10Z</time>
      </trkpt>
      <trkpt lat="45.64488" lon="6.5364">
        <ele>1973</ele>
        <time>2022-07-27T14:25:11Z</time>
      </trkpt>
      <trkpt lat="45.64489" lon="6.53638">
        <ele>1972</ele>
        <time>2022-07-27T14:25:12Z</time>
      </trkpt>
      <trkpt lat="45.64489" lon="6.53638">
        <ele>1972</ele>
        <time>2022-07-27T14:25:13Z</time>
      </trkpt>
      <trkpt lat="45.6449" lon="6.53637">
        <ele>1972</ele>
        <time>2022-07-27T14:25:14Z</time>
      </trkpt>
      <trkpt lat="45.6449" lon="6.53636">
        <ele>1972</ele>
        <time>2022-07-27T14:25:15Z</time>
      </trkpt>
      <trkpt lat="45.64491" lon="6.53635">
        <ele>1972</ele>
        <time>2022-07-27T14:25:16Z</time>
      </trkpt>
      <trkpt lat="45.64492" lon="6.53634">
        <ele>1972</ele>
        <time>2022-07-27T14:25:17Z</time>
      </trkpt>
      <trkpt lat="45.64492" lon="6.53633">
        <ele>1972</ele>
        <time>2022-07-27T14:25:18Z</time>
      </trkpt>
      <trkpt lat="45.64493" lon="6.53633">
        <ele>1972</ele>
        <time>2022-07-27T14:25:19Z</time>
      </trkpt>
      <trkpt lat="45.64493" lon="6.53632">
        <ele>1972</ele>
        <time>2022-07-27T14:25:20Z</time>
      </trkpt>
      <trkpt lat="45.64494" lon="6.53631">
        <ele>1972</ele>
        <time>2022-07-27T14:25:21Z</time>
      </trkpt>
      <trkpt lat="45.64494" lon="6.5363">
        <ele>1971</ele>
        <time>2022-07-27T14:25:22Z</time>
      </trkpt>
      <trkpt lat="45.64495" lon="6.5363">
        <ele>1971</ele>
        <time>2022-07-27T14:25:23Z</time>
      </trkpt>
      <trkpt lat="45.64495" lon="6.53629">
        <ele>1971</ele>
        <time>2022-07-27T14:25:24Z</time>
      </trkpt>
      <trkpt lat="45.64495" lon="6.53629">
        <ele>1971</ele>
        <time>2022-07-27T14:25:25Z</time>
      </trkpt>
      <trkpt lat="45.64496" lon="6.53628">
        <ele>1971</ele>
        <time>2022-07-27T14:25:26Z</time>
      </trkpt>
      <trkpt lat="45.64496" lon="6.53628">
        <ele>1970</ele>
        <time>2022-07-27T14:25:27Z</time>
      </trkpt>
      <trkpt lat="45.64496" lon="6.53627">
        <ele>1970</ele>
        <time>2022-07-27T14:25:28Z</time>
      </trkpt>
      <trkpt lat="45.64496" lon="6.53626">
        <ele>1970</ele>
        <time>2022-07-27T14:25:29Z</time>
      </trkpt>
      <trkpt lat="45.64496" lon="6.53625">
        <ele>1970</ele>
        <time>2022-07-27T14:25:30Z</time>
      </trkpt>
      <trkpt lat="45.64496" lon="6.53624">
        <ele>1970</ele>
        <time>2022-07-27T14:25:31Z</time>
      </trkpt>
      <trkpt lat="45.64496" lon="6.53622">
        <ele>1969</ele>
        <time>2022-07-27T14:25:32Z</time>
      </trkpt>
      <trkpt lat="45.64497" lon="6.53621">
        <ele>1969</ele>
        <time>2022-07-27T14:25:33Z</time>
      </trkpt>
      <trkpt lat="45.64497" lon="6.5362">
        <ele>1969</ele>
        <time>2022-07-27T14:25:34Z</time>
      </trkpt>
      <trkpt lat="45.64497" lon="6.53619">
        <ele>1969</ele>
        <time>2022-07-27T14:25:35Z</time>
      </trkpt>
      <trkpt lat="45.64498" lon="6.53618">
        <ele>1969</ele>
        <time>2022-07-27T14:25:36Z</time>
      </trkpt>
      <trkpt lat="45.64498" lon="6.53617">
        <ele>1968</ele>
        <time>2022-07-27T14:25:37Z</time>
      </trkpt>
      <trkpt lat="45.64499" lon="6.53616">
        <ele>1968</ele>
        <time>2022-07-27T14:25:38Z</time>
      </trkpt>
      <trkpt lat="45.64499" lon="6.53615">
        <ele>1968</ele>
        <time>2022-07-27T14:25:39Z</time>
      </trkpt>
      <trkpt lat="45.645" lon="6.53614">
        <ele>1968</ele>
        <time>2022-07-27T14:25:40Z</time>
      </trkpt>
      <trkpt lat="45.64501" lon="6.53613">
        <ele>1968</ele>
        <time>2022-07-27T14:25:41Z</time>
      </trkpt>
      <trkpt lat="45.64501" lon="6.53611">
        <ele>1968</ele>
        <time>2022-07-27T14:25:42Z</time>
      </trkpt>
      <trkpt lat="45.64502" lon="6.5361">
        <ele>1968</ele>
        <time>2022-07-27T14:25:43Z</time>
      </trkpt>
      <trkpt lat="45.64503" lon="6.53609">
        <ele>1968</ele>
        <time>2022-07-27T14:25:44Z</time>
      </trkpt>
      <trkpt lat="45.64503" lon="6.53608">
        <ele>1968</ele>
        <time>2022-07-27T14:25:45Z</time>
      </trkpt>
      <trkpt lat="45.64504" lon="6.53607">
        <ele>1968</ele>
        <time>2022-07-27T14:25:46Z</time>
      </trkpt>
      <trkpt lat="45.64505" lon="6.53607">
        <ele>1967</ele>
        <time>2022-07-27T14:25:47Z</time>
      </trkpt>
      <trkpt lat="45.64506" lon="6.53606">
        <ele>1967</ele>
        <time>2022-07-27T14:25:48Z</time>
      </trkpt>
      <trkpt lat="45.64507" lon="6.53606">
        <ele>1967</ele>
        <time>2022-07-27T14:25:49Z</time>
      </trkpt>
      <trkpt lat="45.64507" lon="6.53606">
        <ele>1967</ele>
        <time>2022-07-27T14:25:50Z</time>
      </trkpt>
      <trkpt lat="45.64508" lon="6.53606">
        <ele>1967</ele>
        <time>2022-07-27T14:25:51Z</time>
      </trkpt>
      <trkpt lat="45.64509" lon="6.53606">
        <ele>1966</ele>
        <time>2022-07-27T14:25:52Z</time>
      </trkpt>
      <trkpt lat="45.64509" lon="6.53606">
        <ele>1966</ele>
        <time>2022-07-27T14:25:53Z</time>
      </trkpt>
      <trkpt lat="45.6451" lon="6.53606">
        <ele>1966</ele>
        <time>2022-07-27T14:25:54Z</time>
      </trkpt>
      <trkpt lat="45.64511" lon="6.53606">
        <ele>1966</ele>
        <time>2022-07-27T14:25:55Z</time>
      </trkpt>
      <trkpt lat="45.64512" lon="6.53606">
        <ele>1966</ele>
        <time>2022-07-27T14:25:56Z</time>
      </trkpt>
      <trkpt lat="45.64512" lon="6.53605">
        <ele>1965</ele>
        <time>2022-07-27T14:25:57Z</time>
      </trkpt>
      <trkpt lat="45.64513" lon="6.53605">
        <ele>1965</ele>
        <time>2022-07-27T14:25:58Z</time>
      </trkpt>
      <trkpt lat="45.64514" lon="6.53604">
        <ele>1965</ele>
        <time>2022-07-27T14:25:59Z</time>
      </trkpt>
      <trkpt lat="45.64515" lon="6.53604">
        <ele>1965</ele>
        <time>2022-07-27T14:26:00Z</time>
      </trkpt>
      <trkpt lat="45.64515" lon="6.53603">
        <ele>1965</ele>
        <time>2022-07-27T14:26:01Z</time>
      </trkpt>
      <trkpt lat="45.64516" lon="6.53602">
        <ele>1964</ele>
        <time>2022-07-27T14:26:02Z</time>
      </trkpt>
      <trkpt lat="45.64516" lon="6.53602">
        <ele>1964</ele>
        <time>2022-07-27T14:26:03Z</time>
      </trkpt>
      <trkpt lat="45.64517" lon="6.53601">
        <ele>1964</ele>
        <time>2022-07-27T14:26:04Z</time>
      </trkpt>
      <trkpt lat="45.64517" lon="6.536">
        <ele>1964</ele>
        <time>2022-07-27T14:26:05Z</time>
      </trkpt>
      <trkpt lat="45.64517" lon="6.536">
        <ele>1964</ele>
        <time>2022-07-27T14:26:06Z</time>
      </trkpt>
      <trkpt lat="45.64517" lon="6.53599">
        <ele>1963</ele>
        <time>2022-07-27T14:26:07Z</time>
      </trkpt>
      <trkpt lat="45.64518" lon="6.53598">
        <ele>1963</ele>
        <time>2022-07-27T14:26:08Z</time>
      </trkpt>
      <trkpt lat="45.64518" lon="6.53597">
        <ele>1963</ele>
        <time>2022-07-27T14:26:09Z</time>
      </trkpt>
      <trkpt lat="45.64518" lon="6.53596">
        <ele>1963</ele>
        <time>2022-07-27T14:26:10Z</time>
      </trkpt>
      <trkpt lat="45.64518" lon="6.53595">
        <ele>1963</ele>
        <time>2022-07-27T14:26:11Z</time>
      </trkpt>
      <trkpt lat="45.64519" lon="6.53594">
        <ele>1962</ele>
        <time>2022-07-27T14:26:12Z</time>
      </trkpt>
      <trkpt lat="45.64519" lon="6.53593">
        <ele>1962</ele>
        <time>2022-07-27T14:26:13Z</time>
      </trkpt>
      <trkpt lat="45.6452" lon="6.53592">
        <ele>1962</ele>
        <time>2022-07-27T14:26:14Z</time>
      </trkpt>
      <trkpt lat="45.64521" lon="6.53591">
        <ele>1962</ele>
        <time>2022-07-27T14:26:15Z</time>
      </trkpt>
      <trkpt lat="45.64522" lon="6.53591">
        <ele>1962</ele>
        <time>2022-07-27T14:26:16Z</time>
      </trkpt>
      <trkpt lat="45.64522" lon="6.5359">
        <ele>1962</ele>
        <time>2022-07-27T14:26:17Z</time>
      </trkpt>
      <trkpt lat="45.64523" lon="6.5359">
        <ele>1962</ele>
        <time>2022-07-27T14:26:18Z</time>
      </trkpt>
      <trkpt lat="45.64524" lon="6.53589">
        <ele>1962</ele>
        <time>2022-07-27T14:26:19Z</time>
      </trkpt>
      <trkpt lat="45.64526" lon="6.53589">
        <ele>1961</ele>
        <time>2022-07-27T14:26:35Z</time>
      </trkpt>
      <trkpt lat="45.64527" lon="6.53589">
        <ele>1961</ele>
        <time>2022-07-27T14:26:36Z</time>
      </trkpt>
      <trkpt lat="45.64528" lon="6.5359">
        <ele>1960</ele>
        <time>2022-07-27T14:26:37Z</time>
      </trkpt>
      <trkpt lat="45.64528" lon="6.5359">
        <ele>1960</ele>
        <time>2022-07-27T14:26:38Z</time>
      </trkpt>
      <trkpt lat="45.64529" lon="6.5359">
        <ele>1960</ele>
        <time>2022-07-27T14:26:39Z</time>
      </trkpt>
      <trkpt lat="45.64529" lon="6.53591">
        <ele>1960</ele>
        <time>2022-07-27T14:26:53Z</time>
      </trkpt>
      <trkpt lat="45.6453" lon="6.53591">
        <ele>1960</ele>
        <time>2022-07-27T14:26:54Z</time>
      </trkpt>
      <trkpt lat="45.6453" lon="6.53591">
        <ele>1960</ele>
        <time>2022-07-27T14:26:55Z</time>
      </trkpt>
      <trkpt lat="45.6453" lon="6.53591">
        <ele>1960</ele>
        <time>2022-07-27T14:27:17Z</time>
      </trkpt>
      <trkpt lat="45.6453" lon="6.53592">
        <ele>1960</ele>
        <time>2022-07-27T14:27:18Z</time>
      </trkpt>
      <trkpt lat="45.64531" lon="6.53592">
        <ele>1960</ele>
        <time>2022-07-27T14:27:19Z</time>
      </trkpt>
      <trkpt lat="45.64531" lon="6.53592">
        <ele>1960</ele>
        <time>2022-07-27T14:27:20Z</time>
      </trkpt>
      <trkpt lat="45.64531" lon="6.53592">
        <ele>1960</ele>
        <time>2022-07-27T14:27:21Z</time>
      </trkpt>
      <trkpt lat="45.64532" lon="6.53591">
        <ele>1959</ele>
        <time>2022-07-27T14:27:27Z</time>
      </trkpt>
      <trkpt lat="45.64533" lon="6.53591">
        <ele>1959</ele>
        <time>2022-07-27T14:27:28Z</time>
      </trkpt>
      <trkpt lat="45.64534" lon="6.53591">
        <ele>1959</ele>
        <time>2022-07-27T14:27:29Z</time>
      </trkpt>
      <trkpt lat="45.64534" lon="6.53591">
        <ele>1959</ele>
        <time>2022-07-27T14:27:30Z</time>
      </trkpt>
      <trkpt lat="45.64535" lon="6.53591">
        <ele>1959</ele>
        <time>2022-07-27T14:27:31Z</time>
      </trkpt>
      <trkpt lat="45.64536" lon="6.53591">
        <ele>1960</ele>
        <time>2022-07-27T14:27:41Z</time>
      </trkpt>
      <trkpt lat="45.64536" lon="6.53591">
        <ele>1959</ele>
        <time>2022-07-27T14:27:42Z</time>
      </trkpt>
      <trkpt lat="45.64537" lon="6.53591">
        <ele>1959</ele>
        <time>2022-07-27T14:27:43Z</time>
      </trkpt>
      <trkpt lat="45.64538" lon="6.53591">
        <ele>1959</ele>
        <time>2022-07-27T14:27:44Z</time>
      </trkpt>
      <trkpt lat="45.64538" lon="6.53592">
        <ele>1959</ele>
        <time>2022-07-27T14:27:45Z</time>
      </trkpt>
      <trkpt lat="45.64539" lon="6.53592">
        <ele>1959</ele>
        <time>2022-07-27T14:27:46Z</time>
      </trkpt>
      <trkpt lat="45.6454" lon="6.53593">
        <ele>1958</ele>
        <time>2022-07-27T14:27:47Z</time>
      </trkpt>
      <trkpt lat="45.64542" lon="6.53594">
        <ele>1958</ele>
        <time>2022-07-27T14:27:48Z</time>
      </trkpt>
      <trkpt lat="45.64543" lon="6.53595">
        <ele>1958</ele>
        <time>2022-07-27T14:27:49Z</time>
      </trkpt>
      <trkpt lat="45.64545" lon="6.53596">
        <ele>1958</ele>
        <time>2022-07-27T14:27:50Z</time>
      </trkpt>
      <trkpt lat="45.64546" lon="6.53596">
        <ele>1958</ele>
        <time>2022-07-27T14:27:51Z</time>
      </trkpt>
      <trkpt lat="45.64547" lon="6.53597">
        <ele>1957</ele>
        <time>2022-07-27T14:27:52Z</time>
      </trkpt>
      <trkpt lat="45.64549" lon="6.53598">
        <ele>1957</ele>
        <time>2022-07-27T14:27:53Z</time>
      </trkpt>
      <trkpt lat="45.6455" lon="6.53598">
        <ele>1957</ele>
        <time>2022-07-27T14:27:54Z</time>
      </trkpt>
      <trkpt lat="45.64551" lon="6.53599">
        <ele>1957</ele>
        <time>2022-07-27T14:27:55Z</time>
      </trkpt>
      <trkpt lat="45.64553" lon="6.53599">
        <ele>1957</ele>
        <time>2022-07-27T14:27:56Z</time>
      </trkpt>
      <trkpt lat="45.64554" lon="6.53599">
        <ele>1957</ele>
        <time>2022-07-27T14:27:57Z</time>
      </trkpt>
      <trkpt lat="45.64555" lon="6.536">
        <ele>1957</ele>
        <time>2022-07-27T14:27:58Z</time>
      </trkpt>
      <trkpt lat="45.64556" lon="6.536">
        <ele>1957</ele>
        <time>2022-07-27T14:27:59Z</time>
      </trkpt>
      <trkpt lat="45.64557" lon="6.536">
        <ele>1957</ele>
        <time>2022-07-27T14:28:00Z</time>
      </trkpt>
      <trkpt lat="45.64559" lon="6.53601">
        <ele>1957</ele>
        <time>2022-07-27T14:28:01Z</time>
      </trkpt>
      <trkpt lat="45.6456" lon="6.53601">
        <ele>1956</ele>
        <time>2022-07-27T14:28:02Z</time>
      </trkpt>
      <trkpt lat="45.64561" lon="6.53602">
        <ele>1956</ele>
        <time>2022-07-27T14:28:03Z</time>
      </trkpt>
      <trkpt lat="45.64562" lon="6.53602">
        <ele>1956</ele>
        <time>2022-07-27T14:28:04Z</time>
      </trkpt>
      <trkpt lat="45.64563" lon="6.53603">
        <ele>1956</ele>
        <time>2022-07-27T14:28:05Z</time>
      </trkpt>
      <trkpt lat="45.64564" lon="6.53603">
        <ele>1956</ele>
        <time>2022-07-27T14:28:06Z</time>
      </trkpt>
      <trkpt lat="45.64565" lon="6.53603">
        <ele>1955</ele>
        <time>2022-07-27T14:28:07Z</time>
      </trkpt>
      <trkpt lat="45.64565" lon="6.53603">
        <ele>1955</ele>
        <time>2022-07-27T14:28:08Z</time>
      </trkpt>
      <trkpt lat="45.64565" lon="6.53603">
        <ele>1955</ele>
        <time>2022-07-27T14:28:09Z</time>
      </trkpt>
      <trkpt lat="45.64565" lon="6.53603">
        <ele>1955</ele>
        <time>2022-07-27T14:28:10Z</time>
      </trkpt>
      <trkpt lat="45.64566" lon="6.53603">
        <ele>1955</ele>
        <time>2022-07-27T14:28:11Z</time>
      </trkpt>
      <trkpt lat="45.64566" lon="6.53603">
        <ele>1955</ele>
        <time>2022-07-27T14:28:12Z</time>
      </trkpt>
      <trkpt lat="45.64567" lon="6.53603">
        <ele>1955</ele>
        <time>2022-07-27T14:28:13Z</time>
      </trkpt>
      <trkpt lat="45.64568" lon="6.53603">
        <ele>1955</ele>
        <time>2022-07-27T14:28:14Z</time>
      </trkpt>
      <trkpt lat="45.64568" lon="6.53603">
        <ele>1955</ele>
        <time>2022-07-27T14:28:15Z</time>
      </trkpt>
      <trkpt lat="45.64569" lon="6.53603">
        <ele>1955</ele>
        <time>2022-07-27T14:28:16Z</time>
      </trkpt>
      <trkpt lat="45.6457" lon="6.53604">
        <ele>1954</ele>
        <time>2022-07-27T14:28:17Z</time>
      </trkpt>
      <trkpt lat="45.6457" lon="6.53604">
        <ele>1954</ele>
        <time>2022-07-27T14:28:18Z</time>
      </trkpt>
      <trkpt lat="45.64571" lon="6.53604">
        <ele>1954</ele>
        <time>2022-07-27T14:28:19Z</time>
      </trkpt>
      <trkpt lat="45.64572" lon="6.53604">
        <ele>1954</ele>
        <time>2022-07-27T14:28:20Z</time>
      </trkpt>
      <trkpt lat="45.64573" lon="6.53604">
        <ele>1954</ele>
        <time>2022-07-27T14:28:21Z</time>
      </trkpt>
      <trkpt lat="45.64573" lon="6.53605">
        <ele>1954</ele>
        <time>2022-07-27T14:28:22Z</time>
      </trkpt>
      <trkpt lat="45.64574" lon="6.53605">
        <ele>1954</ele>
        <time>2022-07-27T14:28:23Z</time>
      </trkpt>
      <trkpt lat="45.64575" lon="6.53605">
        <ele>1954</ele>
        <time>2022-07-27T14:28:24Z</time>
      </trkpt>
      <trkpt lat="45.64576" lon="6.53605">
        <ele>1954</ele>
        <time>2022-07-27T14:28:25Z</time>
      </trkpt>
      <trkpt lat="45.64576" lon="6.53606">
        <ele>1954</ele>
        <time>2022-07-27T14:28:26Z</time>
      </trkpt>
      <trkpt lat="45.64577" lon="6.53606">
        <ele>1954</ele>
        <time>2022-07-27T14:28:27Z</time>
      </trkpt>
      <trkpt lat="45.64578" lon="6.53607">
        <ele>1954</ele>
        <time>2022-07-27T14:28:28Z</time>
      </trkpt>
      <trkpt lat="45.64578" lon="6.53607">
        <ele>1954</ele>
        <time>2022-07-27T14:28:29Z</time>
      </trkpt>
      <trkpt lat="45.64579" lon="6.53608">
        <ele>1954</ele>
        <time>2022-07-27T14:28:30Z</time>
      </trkpt>
      <trkpt lat="45.64579" lon="6.53608">
        <ele>1954</ele>
        <time>2022-07-27T14:28:31Z</time>
      </trkpt>
      <trkpt lat="45.6458" lon="6.53609">
        <ele>1954</ele>
        <time>2022-07-27T14:28:32Z</time>
      </trkpt>
      <trkpt lat="45.6458" lon="6.53609">
        <ele>1954</ele>
        <time>2022-07-27T14:28:33Z</time>
      </trkpt>
      <trkpt lat="45.6458" lon="6.5361">
        <ele>1954</ele>
        <time>2022-07-27T14:28:34Z</time>
      </trkpt>
      <trkpt lat="45.6458" lon="6.5361">
        <ele>1954</ele>
        <time>2022-07-27T14:28:35Z</time>
      </trkpt>
      <trkpt lat="45.6458" lon="6.5361">
        <ele>1954</ele>
        <time>2022-07-27T14:28:36Z</time>
      </trkpt>
      <trkpt lat="45.6458" lon="6.5361">
        <ele>1953</ele>
        <time>2022-07-27T14:28:37Z</time>
      </trkpt>
      <trkpt lat="45.64581" lon="6.53611">
        <ele>1953</ele>
        <time>2022-07-27T14:28:38Z</time>
      </trkpt>
      <trkpt lat="45.64581" lon="6.53611">
        <ele>1953</ele>
        <time>2022-07-27T14:28:39Z</time>
      </trkpt>
      <trkpt lat="45.64581" lon="6.53612">
        <ele>1953</ele>
        <time>2022-07-27T14:28:40Z</time>
      </trkpt>
      <trkpt lat="45.64582" lon="6.53613">
        <ele>1953</ele>
        <time>2022-07-27T14:28:41Z</time>
      </trkpt>
      <trkpt lat="45.64583" lon="6.53613">
        <ele>1953</ele>
        <time>2022-07-27T14:28:42Z</time>
      </trkpt>
      <trkpt lat="45.64584" lon="6.53614">
        <ele>1953</ele>
        <time>2022-07-27T14:28:43Z</time>
      </trkpt>
      <trkpt lat="45.64585" lon="6.53615">
        <ele>1953</ele>
        <time>2022-07-27T14:28:44Z</time>
      </trkpt>
      <trkpt lat="45.64586" lon="6.53615">
        <ele>1953</ele>
        <time>2022-07-27T14:28:45Z</time>
      </trkpt>
      <trkpt lat="45.64587" lon="6.53616">
        <ele>1953</ele>
        <time>2022-07-27T14:28:46Z</time>
      </trkpt>
      <trkpt lat="45.64588" lon="6.53617">
        <ele>1952</ele>
        <time>2022-07-27T14:28:47Z</time>
      </trkpt>
      <trkpt lat="45.64589" lon="6.53617">
        <ele>1952</ele>
        <time>2022-07-27T14:28:48Z</time>
      </trkpt>
      <trkpt lat="45.6459" lon="6.53618">
        <ele>1952</ele>
        <time>2022-07-27T14:28:49Z</time>
      </trkpt>
      <trkpt lat="45.6459" lon="6.53618">
        <ele>1952</ele>
        <time>2022-07-27T14:28:50Z</time>
      </trkpt>
      <trkpt lat="45.6459" lon="6.53618">
        <ele>1952</ele>
        <time>2022-07-27T14:28:51Z</time>
      </trkpt>
      <trkpt lat="45.64591" lon="6.53618">
        <ele>1952</ele>
        <time>2022-07-27T14:28:52Z</time>
      </trkpt>
      <trkpt lat="45.64591" lon="6.53618">
        <ele>1952</ele>
        <time>2022-07-27T14:28:53Z</time>
      </trkpt>
      <trkpt lat="45.64592" lon="6.53618">
        <ele>1952</ele>
        <time>2022-07-27T14:28:54Z</time>
      </trkpt>
      <trkpt lat="45.64592" lon="6.53618">
        <ele>1952</ele>
        <time>2022-07-27T14:28:55Z</time>
      </trkpt>
      <trkpt lat="45.64593" lon="6.53619">
        <ele>1951</ele>
        <time>2022-07-27T14:29:01Z</time>
      </trkpt>
      <trkpt lat="45.64593" lon="6.5362">
        <ele>1951</ele>
        <time>2022-07-27T14:29:02Z</time>
      </trkpt>
      <trkpt lat="45.64594" lon="6.5362">
        <ele>1951</ele>
        <time>2022-07-27T14:29:03Z</time>
      </trkpt>
      <trkpt lat="45.64594" lon="6.5362">
        <ele>1951</ele>
        <time>2022-07-27T14:29:04Z</time>
      </trkpt>
      <trkpt lat="45.64595" lon="6.53621">
        <ele>1951</ele>
        <time>2022-07-27T14:29:05Z</time>
      </trkpt>
      <trkpt lat="45.64595" lon="6.53621">
        <ele>1951</ele>
        <time>2022-07-27T14:29:06Z</time>
      </trkpt>
      <trkpt lat="45.64596" lon="6.53622">
        <ele>1951</ele>
        <time>2022-07-27T14:29:07Z</time>
      </trkpt>
      <trkpt lat="45.64597" lon="6.53622">
        <ele>1951</ele>
        <time>2022-07-27T14:29:08Z</time>
      </trkpt>
      <trkpt lat="45.64598" lon="6.53623">
        <ele>1951</ele>
        <time>2022-07-27T14:29:09Z</time>
      </trkpt>
      <trkpt lat="45.646" lon="6.53624">
        <ele>1951</ele>
        <time>2022-07-27T14:29:10Z</time>
      </trkpt>
      <trkpt lat="45.64601" lon="6.53624">
        <ele>1951</ele>
        <time>2022-07-27T14:29:11Z</time>
      </trkpt>
      <trkpt lat="45.64602" lon="6.53625">
        <ele>1951</ele>
        <time>2022-07-27T14:29:12Z</time>
      </trkpt>
      <trkpt lat="45.64603" lon="6.53625">
        <ele>1951</ele>
        <time>2022-07-27T14:29:13Z</time>
      </trkpt>
      <trkpt lat="45.64604" lon="6.53626">
        <ele>1951</ele>
        <time>2022-07-27T14:29:14Z</time>
      </trkpt>
      <trkpt lat="45.64605" lon="6.53626">
        <ele>1951</ele>
        <time>2022-07-27T14:29:15Z</time>
      </trkpt>
      <trkpt lat="45.64605" lon="6.53626">
        <ele>1951</ele>
        <time>2022-07-27T14:29:16Z</time>
      </trkpt>
      <trkpt lat="45.64606" lon="6.53627">
        <ele>1950</ele>
        <time>2022-07-27T14:29:17Z</time>
      </trkpt>
      <trkpt lat="45.64606" lon="6.53627">
        <ele>1950</ele>
        <time>2022-07-27T14:29:18Z</time>
      </trkpt>
      <trkpt lat="45.64607" lon="6.53627">
        <ele>1950</ele>
        <time>2022-07-27T14:29:19Z</time>
      </trkpt>
      <trkpt lat="45.64607" lon="6.53627">
        <ele>1950</ele>
        <time>2022-07-27T14:29:20Z</time>
      </trkpt>
      <trkpt lat="45.64608" lon="6.53627">
        <ele>1950</ele>
        <time>2022-07-27T14:29:21Z</time>
      </trkpt>
      <trkpt lat="45.64609" lon="6.53628">
        <ele>1950</ele>
        <time>2022-07-27T14:29:22Z</time>
      </trkpt>
      <trkpt lat="45.6461" lon="6.53628">
        <ele>1950</ele>
        <time>2022-07-27T14:29:23Z</time>
      </trkpt>
      <trkpt lat="45.64611" lon="6.53629">
        <ele>1950</ele>
        <time>2022-07-27T14:29:24Z</time>
      </trkpt>
      <trkpt lat="45.64612" lon="6.53629">
        <ele>1950</ele>
        <time>2022-07-27T14:29:25Z</time>
      </trkpt>
      <trkpt lat="45.64614" lon="6.5363">
        <ele>1950</ele>
        <time>2022-07-27T14:29:26Z</time>
      </trkpt>
      <trkpt lat="45.64615" lon="6.5363">
        <ele>1949</ele>
        <time>2022-07-27T14:29:27Z</time>
      </trkpt>
      <trkpt lat="45.64616" lon="6.5363">
        <ele>1949</ele>
        <time>2022-07-27T14:29:28Z</time>
      </trkpt>
      <trkpt lat="45.64617" lon="6.53631">
        <ele>1949</ele>
        <time>2022-07-27T14:29:29Z</time>
      </trkpt>
      <trkpt lat="45.64619" lon="6.53631">
        <ele>1949</ele>
        <time>2022-07-27T14:29:30Z</time>
      </trkpt>
      <trkpt lat="45.6462" lon="6.53631">
        <ele>1949</ele>
        <time>2022-07-27T14:29:31Z</time>
      </trkpt>
      <trkpt lat="45.64621" lon="6.53631">
        <ele>1948</ele>
        <time>2022-07-27T14:29:32Z</time>
      </trkpt>
      <trkpt lat="45.64621" lon="6.53632">
        <ele>1948</ele>
        <time>2022-07-27T14:29:33Z</time>
      </trkpt>
      <trkpt lat="45.64622" lon="6.53633">
        <ele>1948</ele>
        <time>2022-07-27T14:29:34Z</time>
      </trkpt>
      <trkpt lat="45.64623" lon="6.53633">
        <ele>1948</ele>
        <time>2022-07-27T14:29:35Z</time>
      </trkpt>
      <trkpt lat="45.64624" lon="6.53634">
        <ele>1948</ele>
        <time>2022-07-27T14:29:36Z</time>
      </trkpt>
      <trkpt lat="45.64625" lon="6.53635">
        <ele>1947</ele>
        <time>2022-07-27T14:29:37Z</time>
      </trkpt>
      <trkpt lat="45.64626" lon="6.53635">
        <ele>1947</ele>
        <time>2022-07-27T14:29:38Z</time>
      </trkpt>
      <trkpt lat="45.64627" lon="6.53636">
        <ele>1947</ele>
        <time>2022-07-27T14:29:39Z</time>
      </trkpt>
      <trkpt lat="45.64628" lon="6.53636">
        <ele>1947</ele>
        <time>2022-07-27T14:29:40Z</time>
      </trkpt>
      <trkpt lat="45.64629" lon="6.53637">
        <ele>1947</ele>
        <time>2022-07-27T14:29:41Z</time>
      </trkpt>
      <trkpt lat="45.6463" lon="6.53637">
        <ele>1947</ele>
        <time>2022-07-27T14:29:42Z</time>
      </trkpt>
      <trkpt lat="45.64631" lon="6.53637">
        <ele>1947</ele>
        <time>2022-07-27T14:29:43Z</time>
      </trkpt>
      <trkpt lat="45.64632" lon="6.53638">
        <ele>1947</ele>
        <time>2022-07-27T14:29:44Z</time>
      </trkpt>
      <trkpt lat="45.64632" lon="6.53638">
        <ele>1947</ele>
        <time>2022-07-27T14:29:45Z</time>
      </trkpt>
      <trkpt lat="45.64633" lon="6.53638">
        <ele>1947</ele>
        <time>2022-07-27T14:29:46Z</time>
      </trkpt>
      <trkpt lat="45.64633" lon="6.53638">
        <ele>1946</ele>
        <time>2022-07-27T14:29:47Z</time>
      </trkpt>
      <trkpt lat="45.64634" lon="6.53639">
        <ele>1946</ele>
        <time>2022-07-27T14:29:48Z</time>
      </trkpt>
      <trkpt lat="45.64634" lon="6.53639">
        <ele>1946</ele>
        <time>2022-07-27T14:29:49Z</time>
      </trkpt>
      <trkpt lat="45.64635" lon="6.5364">
        <ele>1946</ele>
        <time>2022-07-27T14:29:50Z</time>
      </trkpt>
      <trkpt lat="45.64636" lon="6.5364">
        <ele>1946</ele>
        <time>2022-07-27T14:29:51Z</time>
      </trkpt>
      <trkpt lat="45.64637" lon="6.53641">
        <ele>1946</ele>
        <time>2022-07-27T14:29:52Z</time>
      </trkpt>
      <trkpt lat="45.64638" lon="6.53641">
        <ele>1946</ele>
        <time>2022-07-27T14:29:53Z</time>
      </trkpt>
      <trkpt lat="45.64639" lon="6.53642">
        <ele>1946</ele>
        <time>2022-07-27T14:29:54Z</time>
      </trkpt>
      <trkpt lat="45.64641" lon="6.53642">
        <ele>1946</ele>
        <time>2022-07-27T14:29:55Z</time>
      </trkpt>
      <trkpt lat="45.64642" lon="6.53642">
        <ele>1946</ele>
        <time>2022-07-27T14:29:56Z</time>
      </trkpt>
      <trkpt lat="45.64643" lon="6.53642">
        <ele>1945</ele>
        <time>2022-07-27T14:29:57Z</time>
      </trkpt>
      <trkpt lat="45.64644" lon="6.53642">
        <ele>1945</ele>
        <time>2022-07-27T14:29:58Z</time>
      </trkpt>
      <trkpt lat="45.64645" lon="6.53642">
        <ele>1945</ele>
        <time>2022-07-27T14:29:59Z</time>
      </trkpt>
      <trkpt lat="45.64646" lon="6.53643">
        <ele>1945</ele>
        <time>2022-07-27T14:30:00Z</time>
      </trkpt>
      <trkpt lat="45.64647" lon="6.53643">
        <ele>1945</ele>
        <time>2022-07-27T14:30:01Z</time>
      </trkpt>
      <trkpt lat="45.64648" lon="6.53643">
        <ele>1945</ele>
        <time>2022-07-27T14:30:02Z</time>
      </trkpt>
      <trkpt lat="45.64649" lon="6.53644">
        <ele>1945</ele>
        <time>2022-07-27T14:30:03Z</time>
      </trkpt>
      <trkpt lat="45.64651" lon="6.53644">
        <ele>1945</ele>
        <time>2022-07-27T14:30:04Z</time>
      </trkpt>
      <trkpt lat="45.64652" lon="6.53645">
        <ele>1945</ele>
        <time>2022-07-27T14:30:05Z</time>
      </trkpt>
      <trkpt lat="45.64653" lon="6.53645">
        <ele>1945</ele>
        <time>2022-07-27T14:30:06Z</time>
      </trkpt>
      <trkpt lat="45.64654" lon="6.53646">
        <ele>1944</ele>
        <time>2022-07-27T14:30:07Z</time>
      </trkpt>
      <trkpt lat="45.64655" lon="6.53646">
        <ele>1944</ele>
        <time>2022-07-27T14:30:08Z</time>
      </trkpt>
      <trkpt lat="45.64656" lon="6.53647">
        <ele>1944</ele>
        <time>2022-07-27T14:30:09Z</time>
      </trkpt>
      <trkpt lat="45.64657" lon="6.53647">
        <ele>1944</ele>
        <time>2022-07-27T14:30:10Z</time>
      </trkpt>
      <trkpt lat="45.64658" lon="6.53647">
        <ele>1944</ele>
        <time>2022-07-27T14:30:11Z</time>
      </trkpt>
      <trkpt lat="45.64659" lon="6.53647">
        <ele>1944</ele>
        <time>2022-07-27T14:30:12Z</time>
      </trkpt>
      <trkpt lat="45.64661" lon="6.53648">
        <ele>1944</ele>
        <time>2022-07-27T14:30:13Z</time>
      </trkpt>
      <trkpt lat="45.64662" lon="6.53647">
        <ele>1944</ele>
        <time>2022-07-27T14:30:14Z</time>
      </trkpt>
      <trkpt lat="45.64663" lon="6.53647">
        <ele>1944</ele>
        <time>2022-07-27T14:30:15Z</time>
      </trkpt>
      <trkpt lat="45.64664" lon="6.53647">
        <ele>1944</ele>
        <time>2022-07-27T14:30:16Z</time>
      </trkpt>
      <trkpt lat="45.64665" lon="6.53647">
        <ele>1944</ele>
        <time>2022-07-27T14:30:17Z</time>
      </trkpt>
      <trkpt lat="45.64667" lon="6.53647">
        <ele>1944</ele>
        <time>2022-07-27T14:30:18Z</time>
      </trkpt>
      <trkpt lat="45.64668" lon="6.53647">
        <ele>1944</ele>
        <time>2022-07-27T14:30:19Z</time>
      </trkpt>
      <trkpt lat="45.64669" lon="6.53648">
        <ele>1944</ele>
        <time>2022-07-27T14:30:20Z</time>
      </trkpt>
      <trkpt lat="45.6467" lon="6.53648">
        <ele>1944</ele>
        <time>2022-07-27T14:30:21Z</time>
      </trkpt>
      <trkpt lat="45.64671" lon="6.53648">
        <ele>1943</ele>
        <time>2022-07-27T14:30:22Z</time>
      </trkpt>
      <trkpt lat="45.64672" lon="6.53649">
        <ele>1943</ele>
        <time>2022-07-27T14:30:23Z</time>
      </trkpt>
      <trkpt lat="45.64673" lon="6.53649">
        <ele>1943</ele>
        <time>2022-07-27T14:30:24Z</time>
      </trkpt>
      <trkpt lat="45.64675" lon="6.53649">
        <ele>1943</ele>
        <time>2022-07-27T14:30:25Z</time>
      </trkpt>
      <trkpt lat="45.64676" lon="6.53649">
        <ele>1943</ele>
        <time>2022-07-27T14:30:26Z</time>
      </trkpt>
      <trkpt lat="45.64677" lon="6.5365">
        <ele>1943</ele>
        <time>2022-07-27T14:30:27Z</time>
      </trkpt>
      <trkpt lat="45.64678" lon="6.5365">
        <ele>1943</ele>
        <time>2022-07-27T14:30:28Z</time>
      </trkpt>
      <trkpt lat="45.64679" lon="6.5365">
        <ele>1943</ele>
        <time>2022-07-27T14:30:29Z</time>
      </trkpt>
      <trkpt lat="45.64681" lon="6.5365">
        <ele>1943</ele>
        <time>2022-07-27T14:30:30Z</time>
      </trkpt>
      <trkpt lat="45.64682" lon="6.5365">
        <ele>1943</ele>
        <time>2022-07-27T14:30:31Z</time>
      </trkpt>
      <trkpt lat="45.64683" lon="6.5365">
        <ele>1943</ele>
        <time>2022-07-27T14:30:32Z</time>
      </trkpt>
      <trkpt lat="45.64684" lon="6.5365">
        <ele>1943</ele>
        <time>2022-07-27T14:30:33Z</time>
      </trkpt>
      <trkpt lat="45.64685" lon="6.5365">
        <ele>1943</ele>
        <time>2022-07-27T14:30:34Z</time>
      </trkpt>
      <trkpt lat="45.64686" lon="6.53649">
        <ele>1943</ele>
        <time>2022-07-27T14:30:35Z</time>
      </trkpt>
      <trkpt lat="45.64687" lon="6.53649">
        <ele>1943</ele>
        <time>2022-07-27T14:30:36Z</time>
      </trkpt>
      <trkpt lat="45.64688" lon="6.53649">
        <ele>1943</ele>
        <time>2022-07-27T14:30:37Z</time>
      </trkpt>
      <trkpt lat="45.64689" lon="6.53649">
        <ele>1943</ele>
        <time>2022-07-27T14:30:38Z</time>
      </trkpt>
      <trkpt lat="45.6469" lon="6.53649">
        <ele>1943</ele>
        <time>2022-07-27T14:30:39Z</time>
      </trkpt>
      <trkpt lat="45.64691" lon="6.53649">
        <ele>1943</ele>
        <time>2022-07-27T14:30:40Z</time>
      </trkpt>
      <trkpt lat="45.64692" lon="6.53648">
        <ele>1943</ele>
        <time>2022-07-27T14:30:41Z</time>
      </trkpt>
      <trkpt lat="45.64693" lon="6.53648">
        <ele>1943</ele>
        <time>2022-07-27T14:30:42Z</time>
      </trkpt>
      <trkpt lat="45.64694" lon="6.53648">
        <ele>1943</ele>
        <time>2022-07-27T14:30:43Z</time>
      </trkpt>
      <trkpt lat="45.64695" lon="6.53648">
        <ele>1943</ele>
        <time>2022-07-27T14:30:44Z</time>
      </trkpt>
      <trkpt lat="45.64696" lon="6.53649">
        <ele>1943</ele>
        <time>2022-07-27T14:30:45Z</time>
      </trkpt>
      <trkpt lat="45.64698" lon="6.53649">
        <ele>1943</ele>
        <time>2022-07-27T14:30:46Z</time>
      </trkpt>
      <trkpt lat="45.64699" lon="6.53649">
        <ele>1943</ele>
        <time>2022-07-27T14:30:47Z</time>
      </trkpt>
      <trkpt lat="45.647" lon="6.53649">
        <ele>1943</ele>
        <time>2022-07-27T14:30:48Z</time>
      </trkpt>
      <trkpt lat="45.64701" lon="6.53649">
        <ele>1943</ele>
        <time>2022-07-27T14:30:49Z</time>
      </trkpt>
      <trkpt lat="45.64703" lon="6.53649">
        <ele>1943</ele>
        <time>2022-07-27T14:30:50Z</time>
      </trkpt>
      <trkpt lat="45.64704" lon="6.53648">
        <ele>1943</ele>
        <time>2022-07-27T14:30:51Z</time>
      </trkpt>
      <trkpt lat="45.64705" lon="6.53648">
        <ele>1942</ele>
        <time>2022-07-27T14:30:52Z</time>
      </trkpt>
      <trkpt lat="45.64705" lon="6.53648">
        <ele>1942</ele>
        <time>2022-07-27T14:30:53Z</time>
      </trkpt>
      <trkpt lat="45.64706" lon="6.53648">
        <ele>1942</ele>
        <time>2022-07-27T14:30:54Z</time>
      </trkpt>
      <trkpt lat="45.64707" lon="6.53648">
        <ele>1942</ele>
        <time>2022-07-27T14:30:55Z</time>
      </trkpt>
      <trkpt lat="45.64707" lon="6.53648">
        <ele>1942</ele>
        <time>2022-07-27T14:30:56Z</time>
      </trkpt>
      <trkpt lat="45.64708" lon="6.53648">
        <ele>1942</ele>
        <time>2022-07-27T14:30:57Z</time>
      </trkpt>
      <trkpt lat="45.64709" lon="6.53647">
        <ele>1942</ele>
        <time>2022-07-27T14:30:58Z</time>
      </trkpt>
      <trkpt lat="45.64709" lon="6.53647">
        <ele>1942</ele>
        <time>2022-07-27T14:30:59Z</time>
      </trkpt>
      <trkpt lat="45.6471" lon="6.53647">
        <ele>1942</ele>
        <time>2022-07-27T14:31:00Z</time>
      </trkpt>
      <trkpt lat="45.6471" lon="6.53647">
        <ele>1942</ele>
        <time>2022-07-27T14:31:01Z</time>
      </trkpt>
      <trkpt lat="45.64711" lon="6.53647">
        <ele>1942</ele>
        <time>2022-07-27T14:31:02Z</time>
      </trkpt>
      <trkpt lat="45.64712" lon="6.53647">
        <ele>1942</ele>
        <time>2022-07-27T14:31:03Z</time>
      </trkpt>
      <trkpt lat="45.64712" lon="6.53647">
        <ele>1942</ele>
        <time>2022-07-27T14:31:04Z</time>
      </trkpt>
      <trkpt lat="45.64713" lon="6.53647">
        <ele>1942</ele>
        <time>2022-07-27T14:31:05Z</time>
      </trkpt>
      <trkpt lat="45.64714" lon="6.53648">
        <ele>1942</ele>
        <time>2022-07-27T14:31:06Z</time>
      </trkpt>
      <trkpt lat="45.64714" lon="6.53648">
        <ele>1942</ele>
        <time>2022-07-27T14:31:07Z</time>
      </trkpt>
      <trkpt lat="45.64715" lon="6.53648">
        <ele>1942</ele>
        <time>2022-07-27T14:31:08Z</time>
      </trkpt>
      <trkpt lat="45.64715" lon="6.53649">
        <ele>1942</ele>
        <time>2022-07-27T14:31:09Z</time>
      </trkpt>
      <trkpt lat="45.64715" lon="6.53649">
        <ele>1942</ele>
        <time>2022-07-27T14:31:10Z</time>
      </trkpt>
      <trkpt lat="45.64715" lon="6.53649">
        <ele>1943</ele>
        <time>2022-07-27T14:31:11Z</time>
      </trkpt>
      <trkpt lat="45.64716" lon="6.53649">
        <ele>1943</ele>
        <time>2022-07-27T14:31:12Z</time>
      </trkpt>
      <trkpt lat="45.64717" lon="6.5365">
        <ele>1943</ele>
        <time>2022-07-27T14:31:13Z</time>
      </trkpt>
      <trkpt lat="45.64717" lon="6.5365">
        <ele>1943</ele>
        <time>2022-07-27T14:31:14Z</time>
      </trkpt>
      <trkpt lat="45.64718" lon="6.53651">
        <ele>1943</ele>
        <time>2022-07-27T14:31:15Z</time>
      </trkpt>
      <trkpt lat="45.64718" lon="6.53651">
        <ele>1943</ele>
        <time>2022-07-27T14:31:16Z</time>
      </trkpt>
      <trkpt lat="45.64719" lon="6.53651">
        <ele>1943</ele>
        <time>2022-07-27T14:31:17Z</time>
      </trkpt>
      <trkpt lat="45.6472" lon="6.53652">
        <ele>1943</ele>
        <time>2022-07-27T14:31:18Z</time>
      </trkpt>
      <trkpt lat="45.6472" lon="6.53653">
        <ele>1943</ele>
        <time>2022-07-27T14:31:19Z</time>
      </trkpt>
      <trkpt lat="45.64721" lon="6.53653">
        <ele>1943</ele>
        <time>2022-07-27T14:31:20Z</time>
      </trkpt>
      <trkpt lat="45.64721" lon="6.53654">
        <ele>1943</ele>
        <time>2022-07-27T14:31:21Z</time>
      </trkpt>
      <trkpt lat="45.64722" lon="6.53655">
        <ele>1943</ele>
        <time>2022-07-27T14:31:22Z</time>
      </trkpt>
      <trkpt lat="45.64723" lon="6.53656">
        <ele>1943</ele>
        <time>2022-07-27T14:31:23Z</time>
      </trkpt>
      <trkpt lat="45.64723" lon="6.53656">
        <ele>1943</ele>
        <time>2022-07-27T14:31:24Z</time>
      </trkpt>
      <trkpt lat="45.64723" lon="6.53656">
        <ele>1943</ele>
        <time>2022-07-27T14:31:25Z</time>
      </trkpt>
      <trkpt lat="45.64724" lon="6.53656">
        <ele>1944</ele>
        <time>2022-07-27T14:31:26Z</time>
      </trkpt>
      <trkpt lat="45.64724" lon="6.53657">
        <ele>1944</ele>
        <time>2022-07-27T14:31:27Z</time>
      </trkpt>
      <trkpt lat="45.64726" lon="6.53657">
        <ele>1945</ele>
        <time>2022-07-27T14:31:37Z</time>
      </trkpt>
      <trkpt lat="45.64726" lon="6.53658">
        <ele>1945</ele>
        <time>2022-07-27T14:31:38Z</time>
      </trkpt>
      <trkpt lat="45.64727" lon="6.53658">
        <ele>1945</ele>
        <time>2022-07-27T14:31:39Z</time>
      </trkpt>
      <trkpt lat="45.64728" lon="6.53657">
        <ele>1945</ele>
        <time>2022-07-27T14:31:40Z</time>
      </trkpt>
      <trkpt lat="45.64728" lon="6.53657">
        <ele>1945</ele>
        <time>2022-07-27T14:31:41Z</time>
      </trkpt>
      <trkpt lat="45.64729" lon="6.53657">
        <ele>1945</ele>
        <time>2022-07-27T14:31:42Z</time>
      </trkpt>
      <trkpt lat="45.6473" lon="6.53657">
        <ele>1945</ele>
        <time>2022-07-27T14:31:43Z</time>
      </trkpt>
      <trkpt lat="45.6473" lon="6.53658">
        <ele>1945</ele>
        <time>2022-07-27T14:31:44Z</time>
      </trkpt>
      <trkpt lat="45.64731" lon="6.53658">
        <ele>1945</ele>
        <time>2022-07-27T14:31:45Z</time>
      </trkpt>
      <trkpt lat="45.64731" lon="6.53659">
        <ele>1946</ele>
        <time>2022-07-27T14:31:46Z</time>
      </trkpt>
      <trkpt lat="45.64732" lon="6.53659">
        <ele>1946</ele>
        <time>2022-07-27T14:31:47Z</time>
      </trkpt>
      <trkpt lat="45.64732" lon="6.5366">
        <ele>1946</ele>
        <time>2022-07-27T14:31:48Z</time>
      </trkpt>
      <trkpt lat="45.64733" lon="6.5366">
        <ele>1946</ele>
        <time>2022-07-27T14:31:49Z</time>
      </trkpt>
      <trkpt lat="45.64733" lon="6.53661">
        <ele>1946</ele>
        <time>2022-07-27T14:31:50Z</time>
      </trkpt>
      <trkpt lat="45.64734" lon="6.53662">
        <ele>1946</ele>
        <time>2022-07-27T14:31:51Z</time>
      </trkpt>
      <trkpt lat="45.64737" lon="6.53663">
        <ele>1948</ele>
        <time>2022-07-27T14:32:15Z</time>
      </trkpt>
      <trkpt lat="45.64738" lon="6.53664">
        <ele>1948</ele>
        <time>2022-07-27T14:32:16Z</time>
      </trkpt>
      <trkpt lat="45.6474" lon="6.53665">
        <ele>1948</ele>
        <time>2022-07-27T14:32:17Z</time>
      </trkpt>
      <trkpt lat="45.64741" lon="6.53665">
        <ele>1948</ele>
        <time>2022-07-27T14:32:18Z</time>
      </trkpt>
      <trkpt lat="45.64742" lon="6.53666">
        <ele>1948</ele>
        <time>2022-07-27T14:32:19Z</time>
      </trkpt>
      <trkpt lat="45.64743" lon="6.53667">
        <ele>1948</ele>
        <time>2022-07-27T14:32:20Z</time>
      </trkpt>
      <trkpt lat="45.64744" lon="6.53667">
        <ele>1948</ele>
        <time>2022-07-27T14:32:21Z</time>
      </trkpt>
      <trkpt lat="45.64745" lon="6.53668">
        <ele>1948</ele>
        <time>2022-07-27T14:32:22Z</time>
      </trkpt>
      <trkpt lat="45.64746" lon="6.53669">
        <ele>1948</ele>
        <time>2022-07-27T14:32:23Z</time>
      </trkpt>
      <trkpt lat="45.64747" lon="6.53669">
        <ele>1948</ele>
        <time>2022-07-27T14:32:24Z</time>
      </trkpt>
      <trkpt lat="45.64748" lon="6.5367">
        <ele>1948</ele>
        <time>2022-07-27T14:32:25Z</time>
      </trkpt>
      <trkpt lat="45.64749" lon="6.5367">
        <ele>1948</ele>
        <time>2022-07-27T14:32:26Z</time>
      </trkpt>
      <trkpt lat="45.64749" lon="6.53671">
        <ele>1948</ele>
        <time>2022-07-27T14:32:27Z</time>
      </trkpt>
      <trkpt lat="45.6475" lon="6.53671">
        <ele>1948</ele>
        <time>2022-07-27T14:32:28Z</time>
      </trkpt>
      <trkpt lat="45.64751" lon="6.53672">
        <ele>1948</ele>
        <time>2022-07-27T14:32:29Z</time>
      </trkpt>
      <trkpt lat="45.64751" lon="6.53672">
        <ele>1948</ele>
        <time>2022-07-27T14:32:30Z</time>
      </trkpt>
      <trkpt lat="45.64752" lon="6.53672">
        <ele>1948</ele>
        <time>2022-07-27T14:32:31Z</time>
      </trkpt>
      <trkpt lat="45.64753" lon="6.53673">
        <ele>1948</ele>
        <time>2022-07-27T14:32:32Z</time>
      </trkpt>
      <trkpt lat="45.64753" lon="6.53674">
        <ele>1948</ele>
        <time>2022-07-27T14:32:33Z</time>
      </trkpt>
      <trkpt lat="45.64754" lon="6.53674">
        <ele>1948</ele>
        <time>2022-07-27T14:32:34Z</time>
      </trkpt>
      <trkpt lat="45.64755" lon="6.53675">
        <ele>1948</ele>
        <time>2022-07-27T14:32:35Z</time>
      </trkpt>
      <trkpt lat="45.64755" lon="6.53676">
        <ele>1949</ele>
        <time>2022-07-27T14:32:36Z</time>
      </trkpt>
      <trkpt lat="45.64756" lon="6.53676">
        <ele>1949</ele>
        <time>2022-07-27T14:32:37Z</time>
      </trkpt>
      <trkpt lat="45.64756" lon="6.53677">
        <ele>1949</ele>
        <time>2022-07-27T14:32:38Z</time>
      </trkpt>
      <trkpt lat="45.64757" lon="6.53677">
        <ele>1949</ele>
        <time>2022-07-27T14:32:39Z</time>
      </trkpt>
      <trkpt lat="45.64758" lon="6.53677">
        <ele>1949</ele>
        <time>2022-07-27T14:32:40Z</time>
      </trkpt>
      <trkpt lat="45.64759" lon="6.53678">
        <ele>1949</ele>
        <time>2022-07-27T14:32:41Z</time>
      </trkpt>
      <trkpt lat="45.6476" lon="6.53678">
        <ele>1949</ele>
        <time>2022-07-27T14:32:42Z</time>
      </trkpt>
      <trkpt lat="45.64761" lon="6.53678">
        <ele>1949</ele>
        <time>2022-07-27T14:32:43Z</time>
      </trkpt>
      <trkpt lat="45.64762" lon="6.53678">
        <ele>1949</ele>
        <time>2022-07-27T14:32:44Z</time>
      </trkpt>
      <trkpt lat="45.64763" lon="6.53678">
        <ele>1949</ele>
        <time>2022-07-27T14:32:45Z</time>
      </trkpt>
      <trkpt lat="45.64764" lon="6.53679">
        <ele>1949</ele>
        <time>2022-07-27T14:32:46Z</time>
      </trkpt>
      <trkpt lat="45.64765" lon="6.53679">
        <ele>1949</ele>
        <time>2022-07-27T14:32:47Z</time>
      </trkpt>
      <trkpt lat="45.64766" lon="6.53679">
        <ele>1949</ele>
        <time>2022-07-27T14:32:48Z</time>
      </trkpt>
      <trkpt lat="45.64766" lon="6.5368">
        <ele>1949</ele>
        <time>2022-07-27T14:32:49Z</time>
      </trkpt>
      <trkpt lat="45.64767" lon="6.5368">
        <ele>1950</ele>
        <time>2022-07-27T14:33:16Z</time>
      </trkpt>
      <trkpt lat="45.64768" lon="6.5368">
        <ele>1950</ele>
        <time>2022-07-27T14:33:17Z</time>
      </trkpt>
      <trkpt lat="45.64768" lon="6.5368">
        <ele>1950</ele>
        <time>2022-07-27T14:33:18Z</time>
      </trkpt>
      <trkpt lat="45.64769" lon="6.5368">
        <ele>1950</ele>
        <time>2022-07-27T14:33:19Z</time>
      </trkpt>
      <trkpt lat="45.64769" lon="6.5368">
        <ele>1950</ele>
        <time>2022-07-27T14:33:20Z</time>
      </trkpt>
      <trkpt lat="45.64769" lon="6.5368">
        <ele>1951</ele>
        <time>2022-07-27T14:33:21Z</time>
      </trkpt>
      <trkpt lat="45.6477" lon="6.5368">
        <ele>1951</ele>
        <time>2022-07-27T14:33:22Z</time>
      </trkpt>
      <trkpt lat="45.6477" lon="6.5368">
        <ele>1951</ele>
        <time>2022-07-27T14:33:23Z</time>
      </trkpt>
      <trkpt lat="45.64771" lon="6.5368">
        <ele>1951</ele>
        <time>2022-07-27T14:33:24Z</time>
      </trkpt>
      <trkpt lat="45.64772" lon="6.5368">
        <ele>1951</ele>
        <time>2022-07-27T14:33:25Z</time>
      </trkpt>
      <trkpt lat="45.64772" lon="6.53681">
        <ele>1951</ele>
        <time>2022-07-27T14:33:26Z</time>
      </trkpt>
      <trkpt lat="45.64773" lon="6.53681">
        <ele>1951</ele>
        <time>2022-07-27T14:33:27Z</time>
      </trkpt>
      <trkpt lat="45.64773" lon="6.5368">
        <ele>1951</ele>
        <time>2022-07-27T14:33:28Z</time>
      </trkpt>
      <trkpt lat="45.64774" lon="6.5368">
        <ele>1951</ele>
        <time>2022-07-27T14:33:29Z</time>
      </trkpt>
      <trkpt lat="45.64774" lon="6.5368">
        <ele>1951</ele>
        <time>2022-07-27T14:33:30Z</time>
      </trkpt>
      <trkpt lat="45.64775" lon="6.5368">
        <ele>1951</ele>
        <time>2022-07-27T14:33:31Z</time>
      </trkpt>
      <trkpt lat="45.64775" lon="6.5368">
        <ele>1951</ele>
        <time>2022-07-27T14:33:32Z</time>
      </trkpt>
      <trkpt lat="45.64776" lon="6.5368">
        <ele>1951</ele>
        <time>2022-07-27T14:33:33Z</time>
      </trkpt>
      <trkpt lat="45.64776" lon="6.5368">
        <ele>1951</ele>
        <time>2022-07-27T14:33:34Z</time>
      </trkpt>
      <trkpt lat="45.64777" lon="6.5368">
        <ele>1951</ele>
        <time>2022-07-27T14:33:35Z</time>
      </trkpt>
      <trkpt lat="45.64778" lon="6.53681">
        <ele>1952</ele>
        <time>2022-07-27T14:33:36Z</time>
      </trkpt>
      <trkpt lat="45.64778" lon="6.53681">
        <ele>1952</ele>
        <time>2022-07-27T14:33:37Z</time>
      </trkpt>
      <trkpt lat="45.64779" lon="6.53682">
        <ele>1952</ele>
        <time>2022-07-27T14:33:38Z</time>
      </trkpt>
      <trkpt lat="45.6478" lon="6.53682">
        <ele>1952</ele>
        <time>2022-07-27T14:33:39Z</time>
      </trkpt>
      <trkpt lat="45.6478" lon="6.53683">
        <ele>1952</ele>
        <time>2022-07-27T14:33:40Z</time>
      </trkpt>
      <trkpt lat="45.64781" lon="6.53683">
        <ele>1952</ele>
        <time>2022-07-27T14:33:41Z</time>
      </trkpt>
      <trkpt lat="45.64782" lon="6.53683">
        <ele>1952</ele>
        <time>2022-07-27T14:33:42Z</time>
      </trkpt>
      <trkpt lat="45.64782" lon="6.53684">
        <ele>1952</ele>
        <time>2022-07-27T14:33:43Z</time>
      </trkpt>
      <trkpt lat="45.64783" lon="6.53684">
        <ele>1952</ele>
        <time>2022-07-27T14:33:44Z</time>
      </trkpt>
      <trkpt lat="45.64783" lon="6.53684">
        <ele>1952</ele>
        <time>2022-07-27T14:33:45Z</time>
      </trkpt>
      <trkpt lat="45.64784" lon="6.53684">
        <ele>1952</ele>
        <time>2022-07-27T14:33:46Z</time>
      </trkpt>
      <trkpt lat="45.64785" lon="6.53685">
        <ele>1952</ele>
        <time>2022-07-27T14:33:47Z</time>
      </trkpt>
      <trkpt lat="45.64786" lon="6.53685">
        <ele>1952</ele>
        <time>2022-07-27T14:33:48Z</time>
      </trkpt>
      <trkpt lat="45.64786" lon="6.53685">
        <ele>1952</ele>
        <time>2022-07-27T14:33:49Z</time>
      </trkpt>
      <trkpt lat="45.64787" lon="6.53686">
        <ele>1952</ele>
        <time>2022-07-27T14:33:50Z</time>
      </trkpt>
      <trkpt lat="45.64788" lon="6.53686">
        <ele>1952</ele>
        <time>2022-07-27T14:33:51Z</time>
      </trkpt>
      <trkpt lat="45.64789" lon="6.53686">
        <ele>1952</ele>
        <time>2022-07-27T14:33:52Z</time>
      </trkpt>
      <trkpt lat="45.6479" lon="6.53685">
        <ele>1952</ele>
        <time>2022-07-27T14:33:53Z</time>
      </trkpt>
      <trkpt lat="45.64791" lon="6.53685">
        <ele>1952</ele>
        <time>2022-07-27T14:33:54Z</time>
      </trkpt>
      <trkpt lat="45.64792" lon="6.53685">
        <ele>1952</ele>
        <time>2022-07-27T14:33:55Z</time>
      </trkpt>
      <trkpt lat="45.64793" lon="6.53685">
        <ele>1952</ele>
        <time>2022-07-27T14:33:56Z</time>
      </trkpt>
      <trkpt lat="45.64794" lon="6.53686">
        <ele>1952</ele>
        <time>2022-07-27T14:33:57Z</time>
      </trkpt>
      <trkpt lat="45.64795" lon="6.53686">
        <ele>1952</ele>
        <time>2022-07-27T14:33:58Z</time>
      </trkpt>
      <trkpt lat="45.64796" lon="6.53686">
        <ele>1952</ele>
        <time>2022-07-27T14:33:59Z</time>
      </trkpt>
      <trkpt lat="45.64796" lon="6.53687">
        <ele>1952</ele>
        <time>2022-07-27T14:34:00Z</time>
      </trkpt>
      <trkpt lat="45.64797" lon="6.53687">
        <ele>1952</ele>
        <time>2022-07-27T14:34:01Z</time>
      </trkpt>
      <trkpt lat="45.64798" lon="6.53688">
        <ele>1951</ele>
        <time>2022-07-27T14:34:02Z</time>
      </trkpt>
      <trkpt lat="45.64799" lon="6.53688">
        <ele>1951</ele>
        <time>2022-07-27T14:34:03Z</time>
      </trkpt>
      <trkpt lat="45.648" lon="6.53689">
        <ele>1951</ele>
        <time>2022-07-27T14:34:04Z</time>
      </trkpt>
      <trkpt lat="45.64801" lon="6.53689">
        <ele>1951</ele>
        <time>2022-07-27T14:34:05Z</time>
      </trkpt>
      <trkpt lat="45.64802" lon="6.5369">
        <ele>1951</ele>
        <time>2022-07-27T14:34:06Z</time>
      </trkpt>
      <trkpt lat="45.64803" lon="6.5369">
        <ele>1951</ele>
        <time>2022-07-27T14:34:07Z</time>
      </trkpt>
      <trkpt lat="45.64804" lon="6.5369">
        <ele>1951</ele>
        <time>2022-07-27T14:34:08Z</time>
      </trkpt>
      <trkpt lat="45.64804" lon="6.5369">
        <ele>1951</ele>
        <time>2022-07-27T14:34:09Z</time>
      </trkpt>
      <trkpt lat="45.64805" lon="6.53691">
        <ele>1951</ele>
        <time>2022-07-27T14:34:10Z</time>
      </trkpt>
      <trkpt lat="45.64806" lon="6.53691">
        <ele>1951</ele>
        <time>2022-07-27T14:34:11Z</time>
      </trkpt>
      <trkpt lat="45.64807" lon="6.53691">
        <ele>1951</ele>
        <time>2022-07-27T14:34:12Z</time>
      </trkpt>
      <trkpt lat="45.64808" lon="6.53692">
        <ele>1951</ele>
        <time>2022-07-27T14:34:13Z</time>
      </trkpt>
      <trkpt lat="45.64809" lon="6.53692">
        <ele>1951</ele>
        <time>2022-07-27T14:34:14Z</time>
      </trkpt>
      <trkpt lat="45.6481" lon="6.53692">
        <ele>1951</ele>
        <time>2022-07-27T14:34:15Z</time>
      </trkpt>
      <trkpt lat="45.64811" lon="6.53693">
        <ele>1951</ele>
        <time>2022-07-27T14:34:16Z</time>
      </trkpt>
      <trkpt lat="45.64812" lon="6.53693">
        <ele>1951</ele>
        <time>2022-07-27T14:34:17Z</time>
      </trkpt>
      <trkpt lat="45.64812" lon="6.53693">
        <ele>1951</ele>
        <time>2022-07-27T14:34:18Z</time>
      </trkpt>
      <trkpt lat="45.64813" lon="6.53693">
        <ele>1951</ele>
        <time>2022-07-27T14:34:19Z</time>
      </trkpt>
      <trkpt lat="45.64814" lon="6.53693">
        <ele>1951</ele>
        <time>2022-07-27T14:34:20Z</time>
      </trkpt>
      <trkpt lat="45.64815" lon="6.53693">
        <ele>1951</ele>
        <time>2022-07-27T14:34:21Z</time>
      </trkpt>
      <trkpt lat="45.64816" lon="6.53694">
        <ele>1951</ele>
        <time>2022-07-27T14:34:22Z</time>
      </trkpt>
      <trkpt lat="45.64817" lon="6.53694">
        <ele>1951</ele>
        <time>2022-07-27T14:34:23Z</time>
      </trkpt>
      <trkpt lat="45.64818" lon="6.53695">
        <ele>1951</ele>
        <time>2022-07-27T14:34:24Z</time>
      </trkpt>
      <trkpt lat="45.64819" lon="6.53695">
        <ele>1951</ele>
        <time>2022-07-27T14:34:25Z</time>
      </trkpt>
      <trkpt lat="45.64819" lon="6.53695">
        <ele>1951</ele>
        <time>2022-07-27T14:34:26Z</time>
      </trkpt>
      <trkpt lat="45.6482" lon="6.53696">
        <ele>1950</ele>
        <time>2022-07-27T14:34:27Z</time>
      </trkpt>
      <trkpt lat="45.64821" lon="6.53696">
        <ele>1950</ele>
        <time>2022-07-27T14:34:28Z</time>
      </trkpt>
      <trkpt lat="45.64821" lon="6.53697">
        <ele>1950</ele>
        <time>2022-07-27T14:34:29Z</time>
      </trkpt>
      <trkpt lat="45.64822" lon="6.53697">
        <ele>1950</ele>
        <time>2022-07-27T14:34:30Z</time>
      </trkpt>
      <trkpt lat="45.64823" lon="6.53697">
        <ele>1950</ele>
        <time>2022-07-27T14:34:31Z</time>
      </trkpt>
      <trkpt lat="45.64824" lon="6.53698">
        <ele>1950</ele>
        <time>2022-07-27T14:34:32Z</time>
      </trkpt>
      <trkpt lat="45.64824" lon="6.53698">
        <ele>1950</ele>
        <time>2022-07-27T14:34:33Z</time>
      </trkpt>
      <trkpt lat="45.64825" lon="6.53699">
        <ele>1950</ele>
        <time>2022-07-27T14:34:34Z</time>
      </trkpt>
      <trkpt lat="45.64826" lon="6.53699">
        <ele>1950</ele>
        <time>2022-07-27T14:34:35Z</time>
      </trkpt>
      <trkpt lat="45.64826" lon="6.53699">
        <ele>1950</ele>
        <time>2022-07-27T14:34:36Z</time>
      </trkpt>
      <trkpt lat="45.64827" lon="6.537">
        <ele>1950</ele>
        <time>2022-07-27T14:34:37Z</time>
      </trkpt>
      <trkpt lat="45.64827" lon="6.537">
        <ele>1950</ele>
        <time>2022-07-27T14:34:38Z</time>
      </trkpt>
      <trkpt lat="45.64828" lon="6.537">
        <ele>1950</ele>
        <time>2022-07-27T14:34:39Z</time>
      </trkpt>
      <trkpt lat="45.64829" lon="6.53701">
        <ele>1950</ele>
        <time>2022-07-27T14:34:40Z</time>
      </trkpt>
      <trkpt lat="45.64829" lon="6.53702">
        <ele>1950</ele>
        <time>2022-07-27T14:34:41Z</time>
      </trkpt>
      <trkpt lat="45.6483" lon="6.53702">
        <ele>1950</ele>
        <time>2022-07-27T14:34:42Z</time>
      </trkpt>
      <trkpt lat="45.64831" lon="6.53703">
        <ele>1950</ele>
        <time>2022-07-27T14:34:43Z</time>
      </trkpt>
      <trkpt lat="45.64831" lon="6.53703">
        <ele>1950</ele>
        <time>2022-07-27T14:34:44Z</time>
      </trkpt>
      <trkpt lat="45.64832" lon="6.53703">
        <ele>1950</ele>
        <time>2022-07-27T14:34:45Z</time>
      </trkpt>
      <trkpt lat="45.64833" lon="6.53704">
        <ele>1950</ele>
        <time>2022-07-27T14:34:46Z</time>
      </trkpt>
      <trkpt lat="45.64834" lon="6.53704">
        <ele>1949</ele>
        <time>2022-07-27T14:34:47Z</time>
      </trkpt>
      <trkpt lat="45.64835" lon="6.53704">
        <ele>1949</ele>
        <time>2022-07-27T14:34:48Z</time>
      </trkpt>
      <trkpt lat="45.64836" lon="6.53704">
        <ele>1949</ele>
        <time>2022-07-27T14:34:49Z</time>
      </trkpt>
      <trkpt lat="45.64837" lon="6.53704">
        <ele>1949</ele>
        <time>2022-07-27T14:34:50Z</time>
      </trkpt>
      <trkpt lat="45.64838" lon="6.53703">
        <ele>1949</ele>
        <time>2022-07-27T14:34:51Z</time>
      </trkpt>
      <trkpt lat="45.64839" lon="6.53703">
        <ele>1949</ele>
        <time>2022-07-27T14:34:52Z</time>
      </trkpt>
      <trkpt lat="45.6484" lon="6.53703">
        <ele>1949</ele>
        <time>2022-07-27T14:34:53Z</time>
      </trkpt>
      <trkpt lat="45.64841" lon="6.53703">
        <ele>1949</ele>
        <time>2022-07-27T14:34:54Z</time>
      </trkpt>
      <trkpt lat="45.64842" lon="6.53703">
        <ele>1949</ele>
        <time>2022-07-27T14:34:55Z</time>
      </trkpt>
      <trkpt lat="45.64843" lon="6.53704">
        <ele>1949</ele>
        <time>2022-07-27T14:34:56Z</time>
      </trkpt>
      <trkpt lat="45.64844" lon="6.53704">
        <ele>1949</ele>
        <time>2022-07-27T14:34:57Z</time>
      </trkpt>
      <trkpt lat="45.64845" lon="6.53704">
        <ele>1949</ele>
        <time>2022-07-27T14:34:58Z</time>
      </trkpt>
      <trkpt lat="45.64846" lon="6.53705">
        <ele>1949</ele>
        <time>2022-07-27T14:34:59Z</time>
      </trkpt>
      <trkpt lat="45.64847" lon="6.53705">
        <ele>1949</ele>
        <time>2022-07-27T14:35:00Z</time>
      </trkpt>
      <trkpt lat="45.64848" lon="6.53705">
        <ele>1949</ele>
        <time>2022-07-27T14:35:01Z</time>
      </trkpt>
      <trkpt lat="45.64849" lon="6.53706">
        <ele>1948</ele>
        <time>2022-07-27T14:35:02Z</time>
      </trkpt>
      <trkpt lat="45.64849" lon="6.53706">
        <ele>1948</ele>
        <time>2022-07-27T14:35:03Z</time>
      </trkpt>
      <trkpt lat="45.6485" lon="6.53706">
        <ele>1948</ele>
        <time>2022-07-27T14:35:04Z</time>
      </trkpt>
      <trkpt lat="45.64851" lon="6.53707">
        <ele>1948</ele>
        <time>2022-07-27T14:35:05Z</time>
      </trkpt>
      <trkpt lat="45.64852" lon="6.53707">
        <ele>1948</ele>
        <time>2022-07-27T14:35:06Z</time>
      </trkpt>
      <trkpt lat="45.64853" lon="6.53707">
        <ele>1948</ele>
        <time>2022-07-27T14:35:07Z</time>
      </trkpt>
      <trkpt lat="45.64854" lon="6.53708">
        <ele>1948</ele>
        <time>2022-07-27T14:35:08Z</time>
      </trkpt>
      <trkpt lat="45.64855" lon="6.53708">
        <ele>1948</ele>
        <time>2022-07-27T14:35:09Z</time>
      </trkpt>
      <trkpt lat="45.64856" lon="6.53708">
        <ele>1948</ele>
        <time>2022-07-27T14:35:10Z</time>
      </trkpt>
      <trkpt lat="45.64857" lon="6.53708">
        <ele>1948</ele>
        <time>2022-07-27T14:35:11Z</time>
      </trkpt>
      <trkpt lat="45.64858" lon="6.53708">
        <ele>1948</ele>
        <time>2022-07-27T14:35:12Z</time>
      </trkpt>
      <trkpt lat="45.64859" lon="6.53708">
        <ele>1948</ele>
        <time>2022-07-27T14:35:13Z</time>
      </trkpt>
      <trkpt lat="45.6486" lon="6.53708">
        <ele>1948</ele>
        <time>2022-07-27T14:35:14Z</time>
      </trkpt>
      <trkpt lat="45.64861" lon="6.53708">
        <ele>1948</ele>
        <time>2022-07-27T14:35:15Z</time>
      </trkpt>
      <trkpt lat="45.64862" lon="6.53708">
        <ele>1948</ele>
        <time>2022-07-27T14:35:16Z</time>
      </trkpt>
      <trkpt lat="45.64862" lon="6.53708">
        <ele>1948</ele>
        <time>2022-07-27T14:35:17Z</time>
      </trkpt>
      <trkpt lat="45.64863" lon="6.53708">
        <ele>1948</ele>
        <time>2022-07-27T14:35:18Z</time>
      </trkpt>
      <trkpt lat="45.64865" lon="6.53708">
        <ele>1949</ele>
        <time>2022-07-27T14:35:24Z</time>
      </trkpt>
      <trkpt lat="45.64865" lon="6.53708">
        <ele>1949</ele>
        <time>2022-07-27T14:35:25Z</time>
      </trkpt>
      <trkpt lat="45.64866" lon="6.53708">
        <ele>1949</ele>
        <time>2022-07-27T14:35:26Z</time>
      </trkpt>
      <trkpt lat="45.64867" lon="6.53708">
        <ele>1949</ele>
        <time>2022-07-27T14:35:27Z</time>
      </trkpt>
      <trkpt lat="45.64868" lon="6.53709">
        <ele>1949</ele>
        <time>2022-07-27T14:35:28Z</time>
      </trkpt>
      <trkpt lat="45.64869" lon="6.5371">
        <ele>1949</ele>
        <time>2022-07-27T14:35:29Z</time>
      </trkpt>
      <trkpt lat="45.6487" lon="6.53711">
        <ele>1949</ele>
        <time>2022-07-27T14:35:30Z</time>
      </trkpt>
      <trkpt lat="45.64871" lon="6.53712">
        <ele>1949</ele>
        <time>2022-07-27T14:35:31Z</time>
      </trkpt>
      <trkpt lat="45.64873" lon="6.53713">
        <ele>1949</ele>
        <time>2022-07-27T14:35:32Z</time>
      </trkpt>
      <trkpt lat="45.64874" lon="6.53714">
        <ele>1949</ele>
        <time>2022-07-27T14:35:33Z</time>
      </trkpt>
      <trkpt lat="45.64875" lon="6.53715">
        <ele>1949</ele>
        <time>2022-07-27T14:35:34Z</time>
      </trkpt>
      <trkpt lat="45.64876" lon="6.53716">
        <ele>1949</ele>
        <time>2022-07-27T14:35:35Z</time>
      </trkpt>
      <trkpt lat="45.64878" lon="6.53717">
        <ele>1949</ele>
        <time>2022-07-27T14:35:36Z</time>
      </trkpt>
      <trkpt lat="45.64879" lon="6.53718">
        <ele>1949</ele>
        <time>2022-07-27T14:35:37Z</time>
      </trkpt>
      <trkpt lat="45.6488" lon="6.53719">
        <ele>1949</ele>
        <time>2022-07-27T14:35:38Z</time>
      </trkpt>
      <trkpt lat="45.64881" lon="6.5372">
        <ele>1949</ele>
        <time>2022-07-27T14:35:39Z</time>
      </trkpt>
      <trkpt lat="45.64882" lon="6.53721">
        <ele>1949</ele>
        <time>2022-07-27T14:35:40Z</time>
      </trkpt>
      <trkpt lat="45.64883" lon="6.53722">
        <ele>1949</ele>
        <time>2022-07-27T14:35:41Z</time>
      </trkpt>
      <trkpt lat="45.64884" lon="6.53723">
        <ele>1949</ele>
        <time>2022-07-27T14:35:42Z</time>
      </trkpt>
      <trkpt lat="45.64885" lon="6.53723">
        <ele>1949</ele>
        <time>2022-07-27T14:35:43Z</time>
      </trkpt>
      <trkpt lat="45.64886" lon="6.53724">
        <ele>1949</ele>
        <time>2022-07-27T14:35:44Z</time>
      </trkpt>
      <trkpt lat="45.64887" lon="6.53725">
        <ele>1949</ele>
        <time>2022-07-27T14:35:45Z</time>
      </trkpt>
      <trkpt lat="45.64889" lon="6.53725">
        <ele>1949</ele>
        <time>2022-07-27T14:35:46Z</time>
      </trkpt>
      <trkpt lat="45.6489" lon="6.53726">
        <ele>1948</ele>
        <time>2022-07-27T14:35:47Z</time>
      </trkpt>
      <trkpt lat="45.64891" lon="6.53727">
        <ele>1948</ele>
        <time>2022-07-27T14:35:48Z</time>
      </trkpt>
      <trkpt lat="45.64892" lon="6.53728">
        <ele>1948</ele>
        <time>2022-07-27T14:35:49Z</time>
      </trkpt>
      <trkpt lat="45.64893" lon="6.53729">
        <ele>1948</ele>
        <time>2022-07-27T14:35:50Z</time>
      </trkpt>
      <trkpt lat="45.64894" lon="6.5373">
        <ele>1948</ele>
        <time>2022-07-27T14:35:51Z</time>
      </trkpt>
      <trkpt lat="45.64895" lon="6.53731">
        <ele>1948</ele>
        <time>2022-07-27T14:35:52Z</time>
      </trkpt>
      <trkpt lat="45.64896" lon="6.53732">
        <ele>1948</ele>
        <time>2022-07-27T14:35:53Z</time>
      </trkpt>
      <trkpt lat="45.64897" lon="6.53732">
        <ele>1948</ele>
        <time>2022-07-27T14:35:54Z</time>
      </trkpt>
      <trkpt lat="45.64898" lon="6.53733">
        <ele>1948</ele>
        <time>2022-07-27T14:35:55Z</time>
      </trkpt>
      <trkpt lat="45.64899" lon="6.53734">
        <ele>1948</ele>
        <time>2022-07-27T14:35:56Z</time>
      </trkpt>
      <trkpt lat="45.64899" lon="6.53735">
        <ele>1947</ele>
        <time>2022-07-27T14:35:57Z</time>
      </trkpt>
      <trkpt lat="45.649" lon="6.53736">
        <ele>1947</ele>
        <time>2022-07-27T14:35:58Z</time>
      </trkpt>
      <trkpt lat="45.64901" lon="6.53737">
        <ele>1947</ele>
        <time>2022-07-27T14:35:59Z</time>
      </trkpt>
      <trkpt lat="45.64902" lon="6.53738">
        <ele>1947</ele>
        <time>2022-07-27T14:36:00Z</time>
      </trkpt>
      <trkpt lat="45.64902" lon="6.53739">
        <ele>1947</ele>
        <time>2022-07-27T14:36:01Z</time>
      </trkpt>
      <trkpt lat="45.64903" lon="6.5374">
        <ele>1947</ele>
        <time>2022-07-27T14:36:02Z</time>
      </trkpt>
      <trkpt lat="45.64904" lon="6.53741">
        <ele>1947</ele>
        <time>2022-07-27T14:36:03Z</time>
      </trkpt>
      <trkpt lat="45.64905" lon="6.53742">
        <ele>1947</ele>
        <time>2022-07-27T14:36:04Z</time>
      </trkpt>
      <trkpt lat="45.64905" lon="6.53743">
        <ele>1947</ele>
        <time>2022-07-27T14:36:05Z</time>
      </trkpt>
      <trkpt lat="45.64906" lon="6.53744">
        <ele>1947</ele>
        <time>2022-07-27T14:36:06Z</time>
      </trkpt>
      <trkpt lat="45.64907" lon="6.53745">
        <ele>1946</ele>
        <time>2022-07-27T14:36:07Z</time>
      </trkpt>
      <trkpt lat="45.64908" lon="6.53746">
        <ele>1946</ele>
        <time>2022-07-27T14:36:08Z</time>
      </trkpt>
      <trkpt lat="45.64909" lon="6.53746">
        <ele>1946</ele>
        <time>2022-07-27T14:36:09Z</time>
      </trkpt>
      <trkpt lat="45.6491" lon="6.53747">
        <ele>1946</ele>
        <time>2022-07-27T14:36:10Z</time>
      </trkpt>
      <trkpt lat="45.64911" lon="6.53747">
        <ele>1946</ele>
        <time>2022-07-27T14:36:11Z</time>
      </trkpt>
      <trkpt lat="45.64912" lon="6.53748">
        <ele>1946</ele>
        <time>2022-07-27T14:36:12Z</time>
      </trkpt>
      <trkpt lat="45.64913" lon="6.53748">
        <ele>1946</ele>
        <time>2022-07-27T14:36:13Z</time>
      </trkpt>
      <trkpt lat="45.64914" lon="6.53749">
        <ele>1946</ele>
        <time>2022-07-27T14:36:14Z</time>
      </trkpt>
      <trkpt lat="45.64915" lon="6.53749">
        <ele>1946</ele>
        <time>2022-07-27T14:36:15Z</time>
      </trkpt>
      <trkpt lat="45.64915" lon="6.5375">
        <ele>1946</ele>
        <time>2022-07-27T14:36:16Z</time>
      </trkpt>
      <trkpt lat="45.64916" lon="6.53751">
        <ele>1945</ele>
        <time>2022-07-27T14:36:17Z</time>
      </trkpt>
      <trkpt lat="45.64917" lon="6.53751">
        <ele>1945</ele>
        <time>2022-07-27T14:36:18Z</time>
      </trkpt>
      <trkpt lat="45.64918" lon="6.53752">
        <ele>1945</ele>
        <time>2022-07-27T14:36:19Z</time>
      </trkpt>
      <trkpt lat="45.64919" lon="6.53752">
        <ele>1945</ele>
        <time>2022-07-27T14:36:20Z</time>
      </trkpt>
      <trkpt lat="45.64919" lon="6.53753">
        <ele>1945</ele>
        <time>2022-07-27T14:36:21Z</time>
      </trkpt>
      <trkpt lat="45.6492" lon="6.53753">
        <ele>1945</ele>
        <time>2022-07-27T14:36:22Z</time>
      </trkpt>
      <trkpt lat="45.64922" lon="6.53754">
        <ele>1945</ele>
        <time>2022-07-27T14:37:00Z</time>
      </trkpt>
      <trkpt lat="45.64922" lon="6.53754">
        <ele>1945</ele>
        <time>2022-07-27T14:37:01Z</time>
      </trkpt>
      <trkpt lat="45.64923" lon="6.53754">
        <ele>1945</ele>
        <time>2022-07-27T14:37:02Z</time>
      </trkpt>
      <trkpt lat="45.64923" lon="6.53754">
        <ele>1945</ele>
        <time>2022-07-27T14:37:03Z</time>
      </trkpt>
      <trkpt lat="45.64924" lon="6.53754">
        <ele>1945</ele>
        <time>2022-07-27T14:37:04Z</time>
      </trkpt>
      <trkpt lat="45.64925" lon="6.53755">
        <ele>1945</ele>
        <time>2022-07-27T14:37:05Z</time>
      </trkpt>
      <trkpt lat="45.64926" lon="6.53755">
        <ele>1945</ele>
        <time>2022-07-27T14:37:06Z</time>
      </trkpt>
      <trkpt lat="45.64927" lon="6.53755">
        <ele>1945</ele>
        <time>2022-07-27T14:37:07Z</time>
      </trkpt>
      <trkpt lat="45.64928" lon="6.53756">
        <ele>1945</ele>
        <time>2022-07-27T14:37:08Z</time>
      </trkpt>
      <trkpt lat="45.64929" lon="6.53756">
        <ele>1945</ele>
        <time>2022-07-27T14:37:09Z</time>
      </trkpt>
      <trkpt lat="45.6493" lon="6.53756">
        <ele>1945</ele>
        <time>2022-07-27T14:37:10Z</time>
      </trkpt>
      <trkpt lat="45.64931" lon="6.53756">
        <ele>1945</ele>
        <time>2022-07-27T14:37:11Z</time>
      </trkpt>
      <trkpt lat="45.64932" lon="6.53757">
        <ele>1945</ele>
        <time>2022-07-27T14:37:12Z</time>
      </trkpt>
      <trkpt lat="45.64932" lon="6.53757">
        <ele>1945</ele>
        <time>2022-07-27T14:37:13Z</time>
      </trkpt>
      <trkpt lat="45.64933" lon="6.53757">
        <ele>1945</ele>
        <time>2022-07-27T14:37:14Z</time>
      </trkpt>
      <trkpt lat="45.64934" lon="6.53758">
        <ele>1945</ele>
        <time>2022-07-27T14:37:15Z</time>
      </trkpt>
      <trkpt lat="45.64934" lon="6.53758">
        <ele>1945</ele>
        <time>2022-07-27T14:37:16Z</time>
      </trkpt>
      <trkpt lat="45.64935" lon="6.53759">
        <ele>1944</ele>
        <time>2022-07-27T14:37:17Z</time>
      </trkpt>
      <trkpt lat="45.64936" lon="6.53759">
        <ele>1944</ele>
        <time>2022-07-27T14:37:18Z</time>
      </trkpt>
      <trkpt lat="45.64937" lon="6.5376">
        <ele>1944</ele>
        <time>2022-07-27T14:37:19Z</time>
      </trkpt>
      <trkpt lat="45.64938" lon="6.5376">
        <ele>1944</ele>
        <time>2022-07-27T14:37:20Z</time>
      </trkpt>
      <trkpt lat="45.64939" lon="6.53761">
        <ele>1944</ele>
        <time>2022-07-27T14:37:21Z</time>
      </trkpt>
      <trkpt lat="45.64941" lon="6.53762">
        <ele>1943</ele>
        <time>2022-07-27T14:37:22Z</time>
      </trkpt>
      <trkpt lat="45.64942" lon="6.53762">
        <ele>1943</ele>
        <time>2022-07-27T14:37:23Z</time>
      </trkpt>
      <trkpt lat="45.64943" lon="6.53763">
        <ele>1943</ele>
        <time>2022-07-27T14:37:24Z</time>
      </trkpt>
      <trkpt lat="45.64944" lon="6.53763">
        <ele>1943</ele>
        <time>2022-07-27T14:37:25Z</time>
      </trkpt>
      <trkpt lat="45.64945" lon="6.53764">
        <ele>1943</ele>
        <time>2022-07-27T14:37:26Z</time>
      </trkpt>
      <trkpt lat="45.64946" lon="6.53764">
        <ele>1943</ele>
        <time>2022-07-27T14:37:27Z</time>
      </trkpt>
      <trkpt lat="45.64947" lon="6.53765">
        <ele>1943</ele>
        <time>2022-07-27T14:37:28Z</time>
      </trkpt>
      <trkpt lat="45.64948" lon="6.53766">
        <ele>1943</ele>
        <time>2022-07-27T14:37:29Z</time>
      </trkpt>
      <trkpt lat="45.64949" lon="6.53766">
        <ele>1943</ele>
        <time>2022-07-27T14:37:30Z</time>
      </trkpt>
      <trkpt lat="45.6495" lon="6.53767">
        <ele>1943</ele>
        <time>2022-07-27T14:37:31Z</time>
      </trkpt>
      <trkpt lat="45.64951" lon="6.53768">
        <ele>1942</ele>
        <time>2022-07-27T14:37:32Z</time>
      </trkpt>
      <trkpt lat="45.64951" lon="6.53768">
        <ele>1942</ele>
        <time>2022-07-27T14:37:33Z</time>
      </trkpt>
      <trkpt lat="45.64952" lon="6.53769">
        <ele>1942</ele>
        <time>2022-07-27T14:37:34Z</time>
      </trkpt>
      <trkpt lat="45.64952" lon="6.5377">
        <ele>1942</ele>
        <time>2022-07-27T14:37:35Z</time>
      </trkpt>
      <trkpt lat="45.64953" lon="6.53771">
        <ele>1942</ele>
        <time>2022-07-27T14:37:36Z</time>
      </trkpt>
      <trkpt lat="45.64953" lon="6.53772">
        <ele>1942</ele>
        <time>2022-07-27T14:37:37Z</time>
      </trkpt>
      <trkpt lat="45.64954" lon="6.53773">
        <ele>1942</ele>
        <time>2022-07-27T14:37:38Z</time>
      </trkpt>
      <trkpt lat="45.64954" lon="6.53773">
        <ele>1942</ele>
        <time>2022-07-27T14:37:39Z</time>
      </trkpt>
      <trkpt lat="45.64955" lon="6.53774">
        <ele>1942</ele>
        <time>2022-07-27T14:37:40Z</time>
      </trkpt>
      <trkpt lat="45.64955" lon="6.53775">
        <ele>1942</ele>
        <time>2022-07-27T14:37:41Z</time>
      </trkpt>
      <trkpt lat="45.64956" lon="6.53775">
        <ele>1942</ele>
        <time>2022-07-27T14:37:42Z</time>
      </trkpt>
      <trkpt lat="45.64957" lon="6.53776">
        <ele>1942</ele>
        <time>2022-07-27T14:37:43Z</time>
      </trkpt>
      <trkpt lat="45.64958" lon="6.53776">
        <ele>1942</ele>
        <time>2022-07-27T14:37:44Z</time>
      </trkpt>
      <trkpt lat="45.64959" lon="6.53777">
        <ele>1942</ele>
        <time>2022-07-27T14:37:45Z</time>
      </trkpt>
      <trkpt lat="45.64959" lon="6.53777">
        <ele>1942</ele>
        <time>2022-07-27T14:37:46Z</time>
      </trkpt>
      <trkpt lat="45.6496" lon="6.53778">
        <ele>1941</ele>
        <time>2022-07-27T14:37:47Z</time>
      </trkpt>
      <trkpt lat="45.64961" lon="6.53778">
        <ele>1941</ele>
        <time>2022-07-27T14:37:48Z</time>
      </trkpt>
      <trkpt lat="45.64962" lon="6.53779">
        <ele>1941</ele>
        <time>2022-07-27T14:37:49Z</time>
      </trkpt>
      <trkpt lat="45.64963" lon="6.53779">
        <ele>1941</ele>
        <time>2022-07-27T14:37:50Z</time>
      </trkpt>
      <trkpt lat="45.64964" lon="6.5378">
        <ele>1941</ele>
        <time>2022-07-27T14:37:51Z</time>
      </trkpt>
      <trkpt lat="45.64964" lon="6.53781">
        <ele>1941</ele>
        <time>2022-07-27T14:37:52Z</time>
      </trkpt>
      <trkpt lat="45.64965" lon="6.53782">
        <ele>1941</ele>
        <time>2022-07-27T14:37:53Z</time>
      </trkpt>
      <trkpt lat="45.64966" lon="6.53782">
        <ele>1941</ele>
        <time>2022-07-27T14:37:54Z</time>
      </trkpt>
      <trkpt lat="45.64967" lon="6.53783">
        <ele>1941</ele>
        <time>2022-07-27T14:37:55Z</time>
      </trkpt>
      <trkpt lat="45.64968" lon="6.53783">
        <ele>1941</ele>
        <time>2022-07-27T14:37:56Z</time>
      </trkpt>
      <trkpt lat="45.64969" lon="6.53784">
        <ele>1940</ele>
        <time>2022-07-27T14:37:57Z</time>
      </trkpt>
      <trkpt lat="45.6497" lon="6.53785">
        <ele>1940</ele>
        <time>2022-07-27T14:37:58Z</time>
      </trkpt>
      <trkpt lat="45.64971" lon="6.53785">
        <ele>1940</ele>
        <time>2022-07-27T14:37:59Z</time>
      </trkpt>
      <trkpt lat="45.64972" lon="6.53786">
        <ele>1940</ele>
        <time>2022-07-27T14:38:00Z</time>
      </trkpt>
      <trkpt lat="45.64973" lon="6.53787">
        <ele>1940</ele>
        <time>2022-07-27T14:38:01Z</time>
      </trkpt>
      <trkpt lat="45.64975" lon="6.53787">
        <ele>1940</ele>
        <time>2022-07-27T14:38:02Z</time>
      </trkpt>
      <trkpt lat="45.64976" lon="6.53788">
        <ele>1940</ele>
        <time>2022-07-27T14:38:03Z</time>
      </trkpt>
      <trkpt lat="45.64977" lon="6.53789">
        <ele>1940</ele>
        <time>2022-07-27T14:38:04Z</time>
      </trkpt>
      <trkpt lat="45.64978" lon="6.53789">
        <ele>1940</ele>
        <time>2022-07-27T14:38:05Z</time>
      </trkpt>
      <trkpt lat="45.64979" lon="6.5379">
        <ele>1940</ele>
        <time>2022-07-27T14:38:06Z</time>
      </trkpt>
      <trkpt lat="45.6498" lon="6.5379">
        <ele>1939</ele>
        <time>2022-07-27T14:38:07Z</time>
      </trkpt>
      <trkpt lat="45.64981" lon="6.5379">
        <ele>1939</ele>
        <time>2022-07-27T14:38:08Z</time>
      </trkpt>
      <trkpt lat="45.64982" lon="6.5379">
        <ele>1939</ele>
        <time>2022-07-27T14:38:09Z</time>
      </trkpt>
      <trkpt lat="45.64983" lon="6.53789">
        <ele>1939</ele>
        <time>2022-07-27T14:38:10Z</time>
      </trkpt>
      <trkpt lat="45.64984" lon="6.53789">
        <ele>1939</ele>
        <time>2022-07-27T14:38:17Z</time>
      </trkpt>
      <trkpt lat="45.64985" lon="6.53789">
        <ele>1939</ele>
        <time>2022-07-27T14:38:18Z</time>
      </trkpt>
      <trkpt lat="45.64986" lon="6.53788">
        <ele>1939</ele>
        <time>2022-07-27T14:38:19Z</time>
      </trkpt>
      <trkpt lat="45.64986" lon="6.53788">
        <ele>1939</ele>
        <time>2022-07-27T14:38:20Z</time>
      </trkpt>
      <trkpt lat="45.64987" lon="6.53788">
        <ele>1939</ele>
        <time>2022-07-27T14:38:21Z</time>
      </trkpt>
      <trkpt lat="45.64988" lon="6.53788">
        <ele>1939</ele>
        <time>2022-07-27T14:38:22Z</time>
      </trkpt>
      <trkpt lat="45.64989" lon="6.53788">
        <ele>1939</ele>
        <time>2022-07-27T14:38:23Z</time>
      </trkpt>
      <trkpt lat="45.6499" lon="6.53788">
        <ele>1939</ele>
        <time>2022-07-27T14:38:24Z</time>
      </trkpt>
      <trkpt lat="45.64991" lon="6.53789">
        <ele>1939</ele>
        <time>2022-07-27T14:38:25Z</time>
      </trkpt>
      <trkpt lat="45.64992" lon="6.53789">
        <ele>1939</ele>
        <time>2022-07-27T14:38:26Z</time>
      </trkpt>
      <trkpt lat="45.64993" lon="6.53789">
        <ele>1938</ele>
        <time>2022-07-27T14:38:27Z</time>
      </trkpt>
      <trkpt lat="45.64994" lon="6.5379">
        <ele>1938</ele>
        <time>2022-07-27T14:38:28Z</time>
      </trkpt>
      <trkpt lat="45.64995" lon="6.5379">
        <ele>1938</ele>
        <time>2022-07-27T14:38:29Z</time>
      </trkpt>
      <trkpt lat="45.64996" lon="6.5379">
        <ele>1938</ele>
        <time>2022-07-27T14:38:30Z</time>
      </trkpt>
      <trkpt lat="45.64997" lon="6.53791">
        <ele>1938</ele>
        <time>2022-07-27T14:38:31Z</time>
      </trkpt>
      <trkpt lat="45.64998" lon="6.53791">
        <ele>1938</ele>
        <time>2022-07-27T14:38:32Z</time>
      </trkpt>
      <trkpt lat="45.64999" lon="6.53792">
        <ele>1938</ele>
        <time>2022-07-27T14:38:33Z</time>
      </trkpt>
      <trkpt lat="45.65" lon="6.53793">
        <ele>1938</ele>
        <time>2022-07-27T14:38:34Z</time>
      </trkpt>
      <trkpt lat="45.65001" lon="6.53794">
        <ele>1938</ele>
        <time>2022-07-27T14:38:35Z</time>
      </trkpt>
      <trkpt lat="45.65002" lon="6.53795">
        <ele>1938</ele>
        <time>2022-07-27T14:38:36Z</time>
      </trkpt>
      <trkpt lat="45.65003" lon="6.53796">
        <ele>1938</ele>
        <time>2022-07-27T14:38:37Z</time>
      </trkpt>
      <trkpt lat="45.65004" lon="6.53797">
        <ele>1938</ele>
        <time>2022-07-27T14:38:38Z</time>
      </trkpt>
      <trkpt lat="45.65005" lon="6.53799">
        <ele>1938</ele>
        <time>2022-07-27T14:38:39Z</time>
      </trkpt>
      <trkpt lat="45.65006" lon="6.538">
        <ele>1938</ele>
        <time>2022-07-27T14:38:40Z</time>
      </trkpt>
      <trkpt lat="45.65007" lon="6.53801">
        <ele>1938</ele>
        <time>2022-07-27T14:38:41Z</time>
      </trkpt>
      <trkpt lat="45.65008" lon="6.53803">
        <ele>1938</ele>
        <time>2022-07-27T14:38:42Z</time>
      </trkpt>
      <trkpt lat="45.65008" lon="6.53805">
        <ele>1938</ele>
        <time>2022-07-27T14:38:43Z</time>
      </trkpt>
      <trkpt lat="45.65009" lon="6.53806">
        <ele>1938</ele>
        <time>2022-07-27T14:38:44Z</time>
      </trkpt>
      <trkpt lat="45.6501" lon="6.53808">
        <ele>1938</ele>
        <time>2022-07-27T14:38:45Z</time>
      </trkpt>
      <trkpt lat="45.65011" lon="6.53809">
        <ele>1938</ele>
        <time>2022-07-27T14:38:46Z</time>
      </trkpt>
      <trkpt lat="45.65011" lon="6.53811">
        <ele>1937</ele>
        <time>2022-07-27T14:38:47Z</time>
      </trkpt>
      <trkpt lat="45.65012" lon="6.53812">
        <ele>1937</ele>
        <time>2022-07-27T14:38:48Z</time>
      </trkpt>
      <trkpt lat="45.65013" lon="6.53813">
        <ele>1937</ele>
        <time>2022-07-27T14:38:49Z</time>
      </trkpt>
      <trkpt lat="45.65014" lon="6.53815">
        <ele>1937</ele>
        <time>2022-07-27T14:38:50Z</time>
      </trkpt>
      <trkpt lat="45.65014" lon="6.53816">
        <ele>1937</ele>
        <time>2022-07-27T14:38:51Z</time>
      </trkpt>
      <trkpt lat="45.65015" lon="6.53817">
        <ele>1937</ele>
        <time>2022-07-27T14:38:52Z</time>
      </trkpt>
      <trkpt lat="45.65016" lon="6.53819">
        <ele>1937</ele>
        <time>2022-07-27T14:38:53Z</time>
      </trkpt>
      <trkpt lat="45.65017" lon="6.5382">
        <ele>1937</ele>
        <time>2022-07-27T14:38:54Z</time>
      </trkpt>
      <trkpt lat="45.65018" lon="6.53821">
        <ele>1937</ele>
        <time>2022-07-27T14:38:55Z</time>
      </trkpt>
      <trkpt lat="45.65019" lon="6.53822">
        <ele>1937</ele>
        <time>2022-07-27T14:38:56Z</time>
      </trkpt>
      <trkpt lat="45.6502" lon="6.53823">
        <ele>1936</ele>
        <time>2022-07-27T14:38:57Z</time>
      </trkpt>
      <trkpt lat="45.65021" lon="6.53824">
        <ele>1936</ele>
        <time>2022-07-27T14:38:58Z</time>
      </trkpt>
      <trkpt lat="45.65022" lon="6.53825">
        <ele>1936</ele>
        <time>2022-07-27T14:38:59Z</time>
      </trkpt>
      <trkpt lat="45.65023" lon="6.53826">
        <ele>1936</ele>
        <time>2022-07-27T14:39:00Z</time>
      </trkpt>
      <trkpt lat="45.65025" lon="6.53827">
        <ele>1936</ele>
        <time>2022-07-27T14:39:01Z</time>
      </trkpt>
      <trkpt lat="45.65026" lon="6.53828">
        <ele>1935</ele>
        <time>2022-07-27T14:39:02Z</time>
      </trkpt>
      <trkpt lat="45.65027" lon="6.5383">
        <ele>1935</ele>
        <time>2022-07-27T14:39:03Z</time>
      </trkpt>
      <trkpt lat="45.65028" lon="6.53831">
        <ele>1935</ele>
        <time>2022-07-27T14:39:04Z</time>
      </trkpt>
      <trkpt lat="45.65028" lon="6.53832">
        <ele>1935</ele>
        <time>2022-07-27T14:39:05Z</time>
      </trkpt>
      <trkpt lat="45.65029" lon="6.53833">
        <ele>1935</ele>
        <time>2022-07-27T14:39:06Z</time>
      </trkpt>
      <trkpt lat="45.6503" lon="6.53834">
        <ele>1934</ele>
        <time>2022-07-27T14:39:07Z</time>
      </trkpt>
      <trkpt lat="45.65031" lon="6.53835">
        <ele>1934</ele>
        <time>2022-07-27T14:39:08Z</time>
      </trkpt>
      <trkpt lat="45.65032" lon="6.53836">
        <ele>1934</ele>
        <time>2022-07-27T14:39:09Z</time>
      </trkpt>
      <trkpt lat="45.65033" lon="6.53837">
        <ele>1934</ele>
        <time>2022-07-27T14:39:10Z</time>
      </trkpt>
      <trkpt lat="45.65033" lon="6.53838">
        <ele>1934</ele>
        <time>2022-07-27T14:39:11Z</time>
      </trkpt>
      <trkpt lat="45.65034" lon="6.53838">
        <ele>1933</ele>
        <time>2022-07-27T14:39:12Z</time>
      </trkpt>
      <trkpt lat="45.65035" lon="6.53839">
        <ele>1933</ele>
        <time>2022-07-27T14:39:13Z</time>
      </trkpt>
      <trkpt lat="45.65036" lon="6.5384">
        <ele>1933</ele>
        <time>2022-07-27T14:39:14Z</time>
      </trkpt>
      <trkpt lat="45.65036" lon="6.53841">
        <ele>1933</ele>
        <time>2022-07-27T14:39:15Z</time>
      </trkpt>
      <trkpt lat="45.65037" lon="6.53842">
        <ele>1933</ele>
        <time>2022-07-27T14:39:16Z</time>
      </trkpt>
      <trkpt lat="45.65038" lon="6.53843">
        <ele>1933</ele>
        <time>2022-07-27T14:39:17Z</time>
      </trkpt>
      <trkpt lat="45.65039" lon="6.53844">
        <ele>1933</ele>
        <time>2022-07-27T14:39:18Z</time>
      </trkpt>
      <trkpt lat="45.6504" lon="6.53845">
        <ele>1933</ele>
        <time>2022-07-27T14:39:19Z</time>
      </trkpt>
      <trkpt lat="45.6504" lon="6.53846">
        <ele>1933</ele>
        <time>2022-07-27T14:39:20Z</time>
      </trkpt>
      <trkpt lat="45.65041" lon="6.53848">
        <ele>1933</ele>
        <time>2022-07-27T14:39:21Z</time>
      </trkpt>
      <trkpt lat="45.65042" lon="6.53849">
        <ele>1932</ele>
        <time>2022-07-27T14:39:22Z</time>
      </trkpt>
      <trkpt lat="45.65042" lon="6.5385">
        <ele>1932</ele>
        <time>2022-07-27T14:39:23Z</time>
      </trkpt>
      <trkpt lat="45.65043" lon="6.53851">
        <ele>1932</ele>
        <time>2022-07-27T14:39:24Z</time>
      </trkpt>
      <trkpt lat="45.65044" lon="6.53852">
        <ele>1932</ele>
        <time>2022-07-27T14:39:25Z</time>
      </trkpt>
      <trkpt lat="45.65045" lon="6.53854">
        <ele>1932</ele>
        <time>2022-07-27T14:39:26Z</time>
      </trkpt>
      <trkpt lat="45.65046" lon="6.53855">
        <ele>1931</ele>
        <time>2022-07-27T14:39:27Z</time>
      </trkpt>
      <trkpt lat="45.65046" lon="6.53856">
        <ele>1931</ele>
        <time>2022-07-27T14:39:28Z</time>
      </trkpt>
      <trkpt lat="45.65047" lon="6.53857">
        <ele>1931</ele>
        <time>2022-07-27T14:39:29Z</time>
      </trkpt>
      <trkpt lat="45.65048" lon="6.53859">
        <ele>1931</ele>
        <time>2022-07-27T14:39:30Z</time>
      </trkpt>
      <trkpt lat="45.65049" lon="6.5386">
        <ele>1931</ele>
        <time>2022-07-27T14:39:31Z</time>
      </trkpt>
      <trkpt lat="45.65049" lon="6.53861">
        <ele>1930</ele>
        <time>2022-07-27T14:39:32Z</time>
      </trkpt>
      <trkpt lat="45.6505" lon="6.53862">
        <ele>1930</ele>
        <time>2022-07-27T14:39:33Z</time>
      </trkpt>
      <trkpt lat="45.65051" lon="6.53863">
        <ele>1930</ele>
        <time>2022-07-27T14:39:34Z</time>
      </trkpt>
      <trkpt lat="45.65052" lon="6.53864">
        <ele>1930</ele>
        <time>2022-07-27T14:39:35Z</time>
      </trkpt>
      <trkpt lat="45.65053" lon="6.53865">
        <ele>1930</ele>
        <time>2022-07-27T14:39:36Z</time>
      </trkpt>
      <trkpt lat="45.65054" lon="6.53866">
        <ele>1929</ele>
        <time>2022-07-27T14:39:37Z</time>
      </trkpt>
      <trkpt lat="45.65055" lon="6.53867">
        <ele>1929</ele>
        <time>2022-07-27T14:39:38Z</time>
      </trkpt>
      <trkpt lat="45.65056" lon="6.53868">
        <ele>1929</ele>
        <time>2022-07-27T14:39:39Z</time>
      </trkpt>
      <trkpt lat="45.65057" lon="6.53869">
        <ele>1929</ele>
        <time>2022-07-27T14:39:40Z</time>
      </trkpt>
      <trkpt lat="45.65058" lon="6.53869">
        <ele>1929</ele>
        <time>2022-07-27T14:39:41Z</time>
      </trkpt>
      <trkpt lat="45.6506" lon="6.5387">
        <ele>1929</ele>
        <time>2022-07-27T14:39:42Z</time>
      </trkpt>
      <trkpt lat="45.65061" lon="6.53871">
        <ele>1929</ele>
        <time>2022-07-27T14:39:43Z</time>
      </trkpt>
      <trkpt lat="45.65062" lon="6.53871">
        <ele>1929</ele>
        <time>2022-07-27T14:39:44Z</time>
      </trkpt>
      <trkpt lat="45.65063" lon="6.53872">
        <ele>1929</ele>
        <time>2022-07-27T14:39:45Z</time>
      </trkpt>
      <trkpt lat="45.65064" lon="6.53873">
        <ele>1929</ele>
        <time>2022-07-27T14:39:46Z</time>
      </trkpt>
      <trkpt lat="45.65065" lon="6.53874">
        <ele>1928</ele>
        <time>2022-07-27T14:39:47Z</time>
      </trkpt>
      <trkpt lat="45.65066" lon="6.53874">
        <ele>1928</ele>
        <time>2022-07-27T14:39:48Z</time>
      </trkpt>
      <trkpt lat="45.65067" lon="6.53875">
        <ele>1928</ele>
        <time>2022-07-27T14:39:49Z</time>
      </trkpt>
      <trkpt lat="45.65068" lon="6.53876">
        <ele>1928</ele>
        <time>2022-07-27T14:39:50Z</time>
      </trkpt>
      <trkpt lat="45.65069" lon="6.53876">
        <ele>1928</ele>
        <time>2022-07-27T14:39:51Z</time>
      </trkpt>
      <trkpt lat="45.65071" lon="6.53877">
        <ele>1928</ele>
        <time>2022-07-27T14:39:52Z</time>
      </trkpt>
      <trkpt lat="45.65072" lon="6.53878">
        <ele>1928</ele>
        <time>2022-07-27T14:39:53Z</time>
      </trkpt>
      <trkpt lat="45.65073" lon="6.53878">
        <ele>1928</ele>
        <time>2022-07-27T14:39:54Z</time>
      </trkpt>
      <trkpt lat="45.65074" lon="6.53879">
        <ele>1928</ele>
        <time>2022-07-27T14:39:55Z</time>
      </trkpt>
      <trkpt lat="45.65075" lon="6.5388">
        <ele>1928</ele>
        <time>2022-07-27T14:39:56Z</time>
      </trkpt>
      <trkpt lat="45.65076" lon="6.53881">
        <ele>1927</ele>
        <time>2022-07-27T14:39:57Z</time>
      </trkpt>
      <trkpt lat="45.65077" lon="6.53881">
        <ele>1927</ele>
        <time>2022-07-27T14:39:58Z</time>
      </trkpt>
      <trkpt lat="45.65078" lon="6.53881">
        <ele>1927</ele>
        <time>2022-07-27T14:39:59Z</time>
      </trkpt>
      <trkpt lat="45.65079" lon="6.53882">
        <ele>1927</ele>
        <time>2022-07-27T14:40:00Z</time>
      </trkpt>
      <trkpt lat="45.6508" lon="6.53882">
        <ele>1927</ele>
        <time>2022-07-27T14:40:01Z</time>
      </trkpt>
      <trkpt lat="45.65081" lon="6.53882">
        <ele>1927</ele>
        <time>2022-07-27T14:40:02Z</time>
      </trkpt>
      <trkpt lat="45.65082" lon="6.53882">
        <ele>1927</ele>
        <time>2022-07-27T14:40:03Z</time>
      </trkpt>
      <trkpt lat="45.65084" lon="6.53881">
        <ele>1927</ele>
        <time>2022-07-27T14:40:04Z</time>
      </trkpt>
      <trkpt lat="45.65085" lon="6.53881">
        <ele>1927</ele>
        <time>2022-07-27T14:40:05Z</time>
      </trkpt>
      <trkpt lat="45.65086" lon="6.53881">
        <ele>1927</ele>
        <time>2022-07-27T14:40:06Z</time>
      </trkpt>
      <trkpt lat="45.65087" lon="6.53881">
        <ele>1927</ele>
        <time>2022-07-27T14:40:07Z</time>
      </trkpt>
      <trkpt lat="45.65087" lon="6.53881">
        <ele>1927</ele>
        <time>2022-07-27T14:40:08Z</time>
      </trkpt>
      <trkpt lat="45.65088" lon="6.53881">
        <ele>1927</ele>
        <time>2022-07-27T14:40:09Z</time>
      </trkpt>
      <trkpt lat="45.65089" lon="6.53882">
        <ele>1927</ele>
        <time>2022-07-27T14:40:10Z</time>
      </trkpt>
      <trkpt lat="45.6509" lon="6.53882">
        <ele>1927</ele>
        <time>2022-07-27T14:40:11Z</time>
      </trkpt>
      <trkpt lat="45.65091" lon="6.53883">
        <ele>1926</ele>
        <time>2022-07-27T14:40:12Z</time>
      </trkpt>
      <trkpt lat="45.65092" lon="6.53884">
        <ele>1926</ele>
        <time>2022-07-27T14:40:13Z</time>
      </trkpt>
      <trkpt lat="45.65094" lon="6.53884">
        <ele>1926</ele>
        <time>2022-07-27T14:40:14Z</time>
      </trkpt>
      <trkpt lat="45.65095" lon="6.53885">
        <ele>1926</ele>
        <time>2022-07-27T14:40:15Z</time>
      </trkpt>
      <trkpt lat="45.65096" lon="6.53885">
        <ele>1926</ele>
        <time>2022-07-27T14:40:16Z</time>
      </trkpt>
      <trkpt lat="45.65097" lon="6.53886">
        <ele>1926</ele>
        <time>2022-07-27T14:40:17Z</time>
      </trkpt>
      <trkpt lat="45.65099" lon="6.53886">
        <ele>1926</ele>
        <time>2022-07-27T14:40:18Z</time>
      </trkpt>
      <trkpt lat="45.651" lon="6.53886">
        <ele>1926</ele>
        <time>2022-07-27T14:40:19Z</time>
      </trkpt>
      <trkpt lat="45.65101" lon="6.53886">
        <ele>1926</ele>
        <time>2022-07-27T14:40:20Z</time>
      </trkpt>
      <trkpt lat="45.65103" lon="6.53886">
        <ele>1926</ele>
        <time>2022-07-27T14:40:21Z</time>
      </trkpt>
      <trkpt lat="45.65104" lon="6.53887">
        <ele>1926</ele>
        <time>2022-07-27T14:40:22Z</time>
      </trkpt>
      <trkpt lat="45.65106" lon="6.53887">
        <ele>1926</ele>
        <time>2022-07-27T14:40:23Z</time>
      </trkpt>
      <trkpt lat="45.65107" lon="6.53887">
        <ele>1926</ele>
        <time>2022-07-27T14:40:24Z</time>
      </trkpt>
      <trkpt lat="45.65108" lon="6.53887">
        <ele>1926</ele>
        <time>2022-07-27T14:40:25Z</time>
      </trkpt>
      <trkpt lat="45.6511" lon="6.53887">
        <ele>1926</ele>
        <time>2022-07-27T14:40:26Z</time>
      </trkpt>
      <trkpt lat="45.65111" lon="6.53887">
        <ele>1925</ele>
        <time>2022-07-27T14:40:27Z</time>
      </trkpt>
      <trkpt lat="45.65112" lon="6.53887">
        <ele>1925</ele>
        <time>2022-07-27T14:40:28Z</time>
      </trkpt>
      <trkpt lat="45.65113" lon="6.53887">
        <ele>1925</ele>
        <time>2022-07-27T14:40:29Z</time>
      </trkpt>
      <trkpt lat="45.65114" lon="6.53887">
        <ele>1925</ele>
        <time>2022-07-27T14:40:30Z</time>
      </trkpt>
      <trkpt lat="45.65115" lon="6.53887">
        <ele>1925</ele>
        <time>2022-07-27T14:40:31Z</time>
      </trkpt>
      <trkpt lat="45.65116" lon="6.53887">
        <ele>1925</ele>
        <time>2022-07-27T14:40:32Z</time>
      </trkpt>
      <trkpt lat="45.65117" lon="6.53887">
        <ele>1925</ele>
        <time>2022-07-27T14:40:33Z</time>
      </trkpt>
      <trkpt lat="45.65118" lon="6.53887">
        <ele>1925</ele>
        <time>2022-07-27T14:40:34Z</time>
      </trkpt>
      <trkpt lat="45.65119" lon="6.53887">
        <ele>1925</ele>
        <time>2022-07-27T14:40:35Z</time>
      </trkpt>
      <trkpt lat="45.6512" lon="6.53888">
        <ele>1925</ele>
        <time>2022-07-27T14:40:36Z</time>
      </trkpt>
      <trkpt lat="45.6512" lon="6.53888">
        <ele>1925</ele>
        <time>2022-07-27T14:40:37Z</time>
      </trkpt>
      <trkpt lat="45.65121" lon="6.53889">
        <ele>1925</ele>
        <time>2022-07-27T14:40:38Z</time>
      </trkpt>
      <trkpt lat="45.65122" lon="6.53889">
        <ele>1925</ele>
        <time>2022-07-27T14:40:39Z</time>
      </trkpt>
      <trkpt lat="45.65123" lon="6.5389">
        <ele>1925</ele>
        <time>2022-07-27T14:40:40Z</time>
      </trkpt>
      <trkpt lat="45.65124" lon="6.5389">
        <ele>1925</ele>
        <time>2022-07-27T14:40:41Z</time>
      </trkpt>
      <trkpt lat="45.65125" lon="6.5389">
        <ele>1924</ele>
        <time>2022-07-27T14:40:42Z</time>
      </trkpt>
      <trkpt lat="45.65126" lon="6.5389">
        <ele>1924</ele>
        <time>2022-07-27T14:40:43Z</time>
      </trkpt>
      <trkpt lat="45.65127" lon="6.5389">
        <ele>1924</ele>
        <time>2022-07-27T14:40:44Z</time>
      </trkpt>
      <trkpt lat="45.65128" lon="6.5389">
        <ele>1924</ele>
        <time>2022-07-27T14:40:45Z</time>
      </trkpt>
      <trkpt lat="45.65128" lon="6.5389">
        <ele>1924</ele>
        <time>2022-07-27T14:40:46Z</time>
      </trkpt>
      <trkpt lat="45.65129" lon="6.5389">
        <ele>1924</ele>
        <time>2022-07-27T14:40:47Z</time>
      </trkpt>
      <trkpt lat="45.6513" lon="6.53891">
        <ele>1924</ele>
        <time>2022-07-27T14:40:48Z</time>
      </trkpt>
      <trkpt lat="45.65131" lon="6.53891">
        <ele>1924</ele>
        <time>2022-07-27T14:40:49Z</time>
      </trkpt>
      <trkpt lat="45.65132" lon="6.53892">
        <ele>1924</ele>
        <time>2022-07-27T14:40:50Z</time>
      </trkpt>
      <trkpt lat="45.65133" lon="6.53892">
        <ele>1924</ele>
        <time>2022-07-27T14:40:51Z</time>
      </trkpt>
      <trkpt lat="45.65134" lon="6.53892">
        <ele>1923</ele>
        <time>2022-07-27T14:40:52Z</time>
      </trkpt>
      <trkpt lat="45.65135" lon="6.53891">
        <ele>1923</ele>
        <time>2022-07-27T14:40:53Z</time>
      </trkpt>
      <trkpt lat="45.65136" lon="6.53891">
        <ele>1923</ele>
        <time>2022-07-27T14:40:54Z</time>
      </trkpt>
      <trkpt lat="45.65137" lon="6.53892">
        <ele>1923</ele>
        <time>2022-07-27T14:40:55Z</time>
      </trkpt>
      <trkpt lat="45.65138" lon="6.53892">
        <ele>1923</ele>
        <time>2022-07-27T14:40:56Z</time>
      </trkpt>
      <trkpt lat="45.65139" lon="6.53892">
        <ele>1922</ele>
        <time>2022-07-27T14:40:57Z</time>
      </trkpt>
      <trkpt lat="45.6514" lon="6.53893">
        <ele>1922</ele>
        <time>2022-07-27T14:40:58Z</time>
      </trkpt>
      <trkpt lat="45.65141" lon="6.53893">
        <ele>1922</ele>
        <time>2022-07-27T14:40:59Z</time>
      </trkpt>
      <trkpt lat="45.65142" lon="6.53894">
        <ele>1922</ele>
        <time>2022-07-27T14:41:00Z</time>
      </trkpt>
      <trkpt lat="45.65143" lon="6.53894">
        <ele>1922</ele>
        <time>2022-07-27T14:41:01Z</time>
      </trkpt>
      <trkpt lat="45.65144" lon="6.53894">
        <ele>1922</ele>
        <time>2022-07-27T14:41:02Z</time>
      </trkpt>
      <trkpt lat="45.65145" lon="6.53895">
        <ele>1922</ele>
        <time>2022-07-27T14:41:03Z</time>
      </trkpt>
      <trkpt lat="45.65146" lon="6.53894">
        <ele>1922</ele>
        <time>2022-07-27T14:41:04Z</time>
      </trkpt>
      <trkpt lat="45.65147" lon="6.53894">
        <ele>1922</ele>
        <time>2022-07-27T14:41:05Z</time>
      </trkpt>
      <trkpt lat="45.65147" lon="6.53893">
        <ele>1922</ele>
        <time>2022-07-27T14:41:06Z</time>
      </trkpt>
      <trkpt lat="45.65148" lon="6.53893">
        <ele>1921</ele>
        <time>2022-07-27T14:41:07Z</time>
      </trkpt>
      <trkpt lat="45.65149" lon="6.53892">
        <ele>1921</ele>
        <time>2022-07-27T14:41:08Z</time>
      </trkpt>
      <trkpt lat="45.6515" lon="6.53892">
        <ele>1921</ele>
        <time>2022-07-27T14:41:09Z</time>
      </trkpt>
      <trkpt lat="45.65151" lon="6.53892">
        <ele>1921</ele>
        <time>2022-07-27T14:41:10Z</time>
      </trkpt>
      <trkpt lat="45.65152" lon="6.53893">
        <ele>1921</ele>
        <time>2022-07-27T14:41:11Z</time>
      </trkpt>
      <trkpt lat="45.65153" lon="6.53893">
        <ele>1921</ele>
        <time>2022-07-27T14:41:12Z</time>
      </trkpt>
      <trkpt lat="45.65154" lon="6.53894">
        <ele>1921</ele>
        <time>2022-07-27T14:41:13Z</time>
      </trkpt>
      <trkpt lat="45.65154" lon="6.53895">
        <ele>1921</ele>
        <time>2022-07-27T14:41:14Z</time>
      </trkpt>
      <trkpt lat="45.65155" lon="6.53896">
        <ele>1921</ele>
        <time>2022-07-27T14:41:15Z</time>
      </trkpt>
      <trkpt lat="45.65156" lon="6.53897">
        <ele>1921</ele>
        <time>2022-07-27T14:41:16Z</time>
      </trkpt>
      <trkpt lat="45.65157" lon="6.53897">
        <ele>1921</ele>
        <time>2022-07-27T14:41:17Z</time>
      </trkpt>
      <trkpt lat="45.65158" lon="6.53898">
        <ele>1921</ele>
        <time>2022-07-27T14:41:18Z</time>
      </trkpt>
      <trkpt lat="45.65159" lon="6.53898">
        <ele>1921</ele>
        <time>2022-07-27T14:41:19Z</time>
      </trkpt>
      <trkpt lat="45.6516" lon="6.53898">
        <ele>1921</ele>
        <time>2022-07-27T14:41:20Z</time>
      </trkpt>
      <trkpt lat="45.65161" lon="6.53898">
        <ele>1921</ele>
        <time>2022-07-27T14:41:21Z</time>
      </trkpt>
      <trkpt lat="45.65162" lon="6.53898">
        <ele>1920</ele>
        <time>2022-07-27T14:41:22Z</time>
      </trkpt>
      <trkpt lat="45.65162" lon="6.53898">
        <ele>1920</ele>
        <time>2022-07-27T14:41:23Z</time>
      </trkpt>
      <trkpt lat="45.65163" lon="6.53898">
        <ele>1920</ele>
        <time>2022-07-27T14:41:24Z</time>
      </trkpt>
      <trkpt lat="45.65164" lon="6.53897">
        <ele>1920</ele>
        <time>2022-07-27T14:41:25Z</time>
      </trkpt>
      <trkpt lat="45.65165" lon="6.53897">
        <ele>1920</ele>
        <time>2022-07-27T14:41:26Z</time>
      </trkpt>
      <trkpt lat="45.65166" lon="6.53896">
        <ele>1919</ele>
        <time>2022-07-27T14:41:27Z</time>
      </trkpt>
      <trkpt lat="45.65167" lon="6.53896">
        <ele>1919</ele>
        <time>2022-07-27T14:41:28Z</time>
      </trkpt>
      <trkpt lat="45.65168" lon="6.53895">
        <ele>1919</ele>
        <time>2022-07-27T14:41:29Z</time>
      </trkpt>
      <trkpt lat="45.65168" lon="6.53895">
        <ele>1919</ele>
        <time>2022-07-27T14:41:30Z</time>
      </trkpt>
      <trkpt lat="45.65169" lon="6.53894">
        <ele>1919</ele>
        <time>2022-07-27T14:41:31Z</time>
      </trkpt>
      <trkpt lat="45.6517" lon="6.53893">
        <ele>1919</ele>
        <time>2022-07-27T14:41:32Z</time>
      </trkpt>
      <trkpt lat="45.65171" lon="6.53893">
        <ele>1919</ele>
        <time>2022-07-27T14:41:33Z</time>
      </trkpt>
      <trkpt lat="45.65172" lon="6.53891">
        <ele>1919</ele>
        <time>2022-07-27T14:41:34Z</time>
      </trkpt>
      <trkpt lat="45.65172" lon="6.5389">
        <ele>1919</ele>
        <time>2022-07-27T14:41:35Z</time>
      </trkpt>
      <trkpt lat="45.65173" lon="6.5389">
        <ele>1919</ele>
        <time>2022-07-27T14:41:36Z</time>
      </trkpt>
      <trkpt lat="45.65174" lon="6.53889">
        <ele>1918</ele>
        <time>2022-07-27T14:41:37Z</time>
      </trkpt>
      <trkpt lat="45.65174" lon="6.53889">
        <ele>1918</ele>
        <time>2022-07-27T14:41:38Z</time>
      </trkpt>
      <trkpt lat="45.65175" lon="6.53889">
        <ele>1918</ele>
        <time>2022-07-27T14:41:39Z</time>
      </trkpt>
      <trkpt lat="45.65175" lon="6.5389">
        <ele>1918</ele>
        <time>2022-07-27T14:41:40Z</time>
      </trkpt>
      <trkpt lat="45.65176" lon="6.5389">
        <ele>1918</ele>
        <time>2022-07-27T14:41:41Z</time>
      </trkpt>
      <trkpt lat="45.65176" lon="6.53891">
        <ele>1918</ele>
        <time>2022-07-27T14:41:42Z</time>
      </trkpt>
      <trkpt lat="45.65177" lon="6.53892">
        <ele>1918</ele>
        <time>2022-07-27T14:41:43Z</time>
      </trkpt>
      <trkpt lat="45.65178" lon="6.53892">
        <ele>1918</ele>
        <time>2022-07-27T14:41:44Z</time>
      </trkpt>
      <trkpt lat="45.65179" lon="6.53893">
        <ele>1918</ele>
        <time>2022-07-27T14:41:45Z</time>
      </trkpt>
      <trkpt lat="45.6518" lon="6.53893">
        <ele>1918</ele>
        <time>2022-07-27T14:41:46Z</time>
      </trkpt>
      <trkpt lat="45.65181" lon="6.53893">
        <ele>1918</ele>
        <time>2022-07-27T14:41:47Z</time>
      </trkpt>
      <trkpt lat="45.65182" lon="6.53893">
        <ele>1918</ele>
        <time>2022-07-27T14:41:48Z</time>
      </trkpt>
      <trkpt lat="45.65183" lon="6.53892">
        <ele>1918</ele>
        <time>2022-07-27T14:41:49Z</time>
      </trkpt>
      <trkpt lat="45.65184" lon="6.53892">
        <ele>1918</ele>
        <time>2022-07-27T14:41:50Z</time>
      </trkpt>
      <trkpt lat="45.65184" lon="6.53891">
        <ele>1918</ele>
        <time>2022-07-27T14:41:51Z</time>
      </trkpt>
      <trkpt lat="45.65185" lon="6.53891">
        <ele>1917</ele>
        <time>2022-07-27T14:41:52Z</time>
      </trkpt>
      <trkpt lat="45.65186" lon="6.5389">
        <ele>1917</ele>
        <time>2022-07-27T14:41:53Z</time>
      </trkpt>
      <trkpt lat="45.65188" lon="6.53892">
        <ele>1914</ele>
        <time>2022-07-27T14:43:27Z</time>
      </trkpt>
      <trkpt lat="45.65189" lon="6.53894">
        <ele>1914</ele>
        <time>2022-07-27T14:43:28Z</time>
      </trkpt>
      <trkpt lat="45.65189" lon="6.53895">
        <ele>1914</ele>
        <time>2022-07-27T14:43:29Z</time>
      </trkpt>
      <trkpt lat="45.6519" lon="6.53896">
        <ele>1914</ele>
        <time>2022-07-27T14:43:30Z</time>
      </trkpt>
      <trkpt lat="45.6519" lon="6.53896">
        <ele>1914</ele>
        <time>2022-07-27T14:43:31Z</time>
      </trkpt>
      <trkpt lat="45.65191" lon="6.53897">
        <ele>1913</ele>
        <time>2022-07-27T14:43:32Z</time>
      </trkpt>
      <trkpt lat="45.65192" lon="6.53897">
        <ele>1913</ele>
        <time>2022-07-27T14:43:33Z</time>
      </trkpt>
      <trkpt lat="45.65192" lon="6.53897">
        <ele>1913</ele>
        <time>2022-07-27T14:43:34Z</time>
      </trkpt>
      <trkpt lat="45.65193" lon="6.53897">
        <ele>1913</ele>
        <time>2022-07-27T14:43:35Z</time>
      </trkpt>
      <trkpt lat="45.65194" lon="6.53896">
        <ele>1913</ele>
        <time>2022-07-27T14:43:36Z</time>
      </trkpt>
      <trkpt lat="45.65194" lon="6.53894">
        <ele>1912</ele>
        <time>2022-07-27T14:43:37Z</time>
      </trkpt>
      <trkpt lat="45.65195" lon="6.53893">
        <ele>1912</ele>
        <time>2022-07-27T14:43:38Z</time>
      </trkpt>
      <trkpt lat="45.65195" lon="6.53891">
        <ele>1912</ele>
        <time>2022-07-27T14:43:39Z</time>
      </trkpt>
      <trkpt lat="45.65196" lon="6.5389">
        <ele>1912</ele>
        <time>2022-07-27T14:43:40Z</time>
      </trkpt>
      <trkpt lat="45.65196" lon="6.53888">
        <ele>1912</ele>
        <time>2022-07-27T14:43:41Z</time>
      </trkpt>
      <trkpt lat="45.65196" lon="6.53887">
        <ele>1911</ele>
        <time>2022-07-27T14:43:42Z</time>
      </trkpt>
      <trkpt lat="45.65196" lon="6.53886">
        <ele>1911</ele>
        <time>2022-07-27T14:43:43Z</time>
      </trkpt>
      <trkpt lat="45.65196" lon="6.53884">
        <ele>1911</ele>
        <time>2022-07-27T14:43:44Z</time>
      </trkpt>
      <trkpt lat="45.65196" lon="6.53883">
        <ele>1911</ele>
        <time>2022-07-27T14:43:45Z</time>
      </trkpt>
      <trkpt lat="45.65196" lon="6.53882">
        <ele>1911</ele>
        <time>2022-07-27T14:43:46Z</time>
      </trkpt>
      <trkpt lat="45.65196" lon="6.53881">
        <ele>1910</ele>
        <time>2022-07-27T14:43:47Z</time>
      </trkpt>
      <trkpt lat="45.65196" lon="6.5388">
        <ele>1910</ele>
        <time>2022-07-27T14:43:48Z</time>
      </trkpt>
      <trkpt lat="45.65196" lon="6.53879">
        <ele>1910</ele>
        <time>2022-07-27T14:43:49Z</time>
      </trkpt>
      <trkpt lat="45.65196" lon="6.53878">
        <ele>1910</ele>
        <time>2022-07-27T14:43:50Z</time>
      </trkpt>
      <trkpt lat="45.65196" lon="6.53876">
        <ele>1910</ele>
        <time>2022-07-27T14:43:51Z</time>
      </trkpt>
      <trkpt lat="45.65196" lon="6.53875">
        <ele>1910</ele>
        <time>2022-07-27T14:43:52Z</time>
      </trkpt>
      <trkpt lat="45.65197" lon="6.53873">
        <ele>1910</ele>
        <time>2022-07-27T14:43:53Z</time>
      </trkpt>
      <trkpt lat="45.65197" lon="6.53872">
        <ele>1910</ele>
        <time>2022-07-27T14:43:54Z</time>
      </trkpt>
      <trkpt lat="45.65198" lon="6.5387">
        <ele>1910</ele>
        <time>2022-07-27T14:43:55Z</time>
      </trkpt>
      <trkpt lat="45.65199" lon="6.53869">
        <ele>1910</ele>
        <time>2022-07-27T14:43:56Z</time>
      </trkpt>
      <trkpt lat="45.652" lon="6.53868">
        <ele>1909</ele>
        <time>2022-07-27T14:43:57Z</time>
      </trkpt>
      <trkpt lat="45.65201" lon="6.53867">
        <ele>1909</ele>
        <time>2022-07-27T14:43:58Z</time>
      </trkpt>
      <trkpt lat="45.65202" lon="6.53866">
        <ele>1909</ele>
        <time>2022-07-27T14:43:59Z</time>
      </trkpt>
      <trkpt lat="45.65203" lon="6.53865">
        <ele>1909</ele>
        <time>2022-07-27T14:44:00Z</time>
      </trkpt>
      <trkpt lat="45.65204" lon="6.53864">
        <ele>1909</ele>
        <time>2022-07-27T14:44:01Z</time>
      </trkpt>
      <trkpt lat="45.65205" lon="6.53863">
        <ele>1909</ele>
        <time>2022-07-27T14:44:02Z</time>
      </trkpt>
      <trkpt lat="45.65206" lon="6.53862">
        <ele>1909</ele>
        <time>2022-07-27T14:44:03Z</time>
      </trkpt>
      <trkpt lat="45.65206" lon="6.53861">
        <ele>1909</ele>
        <time>2022-07-27T14:44:04Z</time>
      </trkpt>
      <trkpt lat="45.65207" lon="6.53859">
        <ele>1909</ele>
        <time>2022-07-27T14:44:05Z</time>
      </trkpt>
      <trkpt lat="45.65208" lon="6.53858">
        <ele>1909</ele>
        <time>2022-07-27T14:44:06Z</time>
      </trkpt>
      <trkpt lat="45.65208" lon="6.53857">
        <ele>1909</ele>
        <time>2022-07-27T14:44:07Z</time>
      </trkpt>
      <trkpt lat="45.65209" lon="6.53855">
        <ele>1909</ele>
        <time>2022-07-27T14:44:08Z</time>
      </trkpt>
      <trkpt lat="45.65209" lon="6.53854">
        <ele>1909</ele>
        <time>2022-07-27T14:44:09Z</time>
      </trkpt>
      <trkpt lat="45.6521" lon="6.53852">
        <ele>1909</ele>
        <time>2022-07-27T14:44:10Z</time>
      </trkpt>
      <trkpt lat="45.6521" lon="6.5385">
        <ele>1909</ele>
        <time>2022-07-27T14:44:11Z</time>
      </trkpt>
      <trkpt lat="45.65211" lon="6.53849">
        <ele>1908</ele>
        <time>2022-07-27T14:44:12Z</time>
      </trkpt>
      <trkpt lat="45.65211" lon="6.53848">
        <ele>1908</ele>
        <time>2022-07-27T14:44:13Z</time>
      </trkpt>
      <trkpt lat="45.65212" lon="6.53846">
        <ele>1908</ele>
        <time>2022-07-27T14:44:14Z</time>
      </trkpt>
      <trkpt lat="45.65212" lon="6.53845">
        <ele>1908</ele>
        <time>2022-07-27T14:44:15Z</time>
      </trkpt>
      <trkpt lat="45.65213" lon="6.53844">
        <ele>1908</ele>
        <time>2022-07-27T14:44:16Z</time>
      </trkpt>
      <trkpt lat="45.65213" lon="6.53843">
        <ele>1908</ele>
        <time>2022-07-27T14:44:17Z</time>
      </trkpt>
      <trkpt lat="45.65213" lon="6.53842">
        <ele>1908</ele>
        <time>2022-07-27T14:44:18Z</time>
      </trkpt>
      <trkpt lat="45.65215" lon="6.53841">
        <ele>1906</ele>
        <time>2022-07-27T14:44:27Z</time>
      </trkpt>
      <trkpt lat="45.65216" lon="6.53841">
        <ele>1906</ele>
        <time>2022-07-27T14:44:28Z</time>
      </trkpt>
      <trkpt lat="45.65216" lon="6.53841">
        <ele>1906</ele>
        <time>2022-07-27T14:44:29Z</time>
      </trkpt>
      <trkpt lat="45.65217" lon="6.53842">
        <ele>1906</ele>
        <time>2022-07-27T14:44:30Z</time>
      </trkpt>
      <trkpt lat="45.65217" lon="6.53842">
        <ele>1906</ele>
        <time>2022-07-27T14:44:31Z</time>
      </trkpt>
      <trkpt lat="45.65218" lon="6.53843">
        <ele>1905</ele>
        <time>2022-07-27T14:44:32Z</time>
      </trkpt>
      <trkpt lat="45.65218" lon="6.53843">
        <ele>1905</ele>
        <time>2022-07-27T14:44:33Z</time>
      </trkpt>
      <trkpt lat="45.65218" lon="6.53844">
        <ele>1905</ele>
        <time>2022-07-27T14:44:34Z</time>
      </trkpt>
      <trkpt lat="45.65219" lon="6.53844">
        <ele>1905</ele>
        <time>2022-07-27T14:44:35Z</time>
      </trkpt>
      <trkpt lat="45.65219" lon="6.53844">
        <ele>1905</ele>
        <time>2022-07-27T14:44:36Z</time>
      </trkpt>
      <trkpt lat="45.65219" lon="6.53843">
        <ele>1904</ele>
        <time>2022-07-27T14:44:37Z</time>
      </trkpt>
      <trkpt lat="45.6522" lon="6.53842">
        <ele>1904</ele>
        <time>2022-07-27T14:44:38Z</time>
      </trkpt>
      <trkpt lat="45.6522" lon="6.53841">
        <ele>1904</ele>
        <time>2022-07-27T14:44:39Z</time>
      </trkpt>
      <trkpt lat="45.65221" lon="6.5384">
        <ele>1904</ele>
        <time>2022-07-27T14:44:40Z</time>
      </trkpt>
      <trkpt lat="45.65221" lon="6.53838">
        <ele>1904</ele>
        <time>2022-07-27T14:44:41Z</time>
      </trkpt>
      <trkpt lat="45.65222" lon="6.53837">
        <ele>1904</ele>
        <time>2022-07-27T14:44:42Z</time>
      </trkpt>
      <trkpt lat="45.65223" lon="6.53835">
        <ele>1904</ele>
        <time>2022-07-27T14:44:43Z</time>
      </trkpt>
      <trkpt lat="45.65223" lon="6.53834">
        <ele>1904</ele>
        <time>2022-07-27T14:44:44Z</time>
      </trkpt>
      <trkpt lat="45.65224" lon="6.53832">
        <ele>1904</ele>
        <time>2022-07-27T14:44:45Z</time>
      </trkpt>
      <trkpt lat="45.65224" lon="6.53831">
        <ele>1904</ele>
        <time>2022-07-27T14:44:46Z</time>
      </trkpt>
      <trkpt lat="45.65225" lon="6.5383">
        <ele>1904</ele>
        <time>2022-07-27T14:44:47Z</time>
      </trkpt>
      <trkpt lat="45.65225" lon="6.5383">
        <ele>1904</ele>
        <time>2022-07-27T14:44:48Z</time>
      </trkpt>
      <trkpt lat="45.65226" lon="6.53829">
        <ele>1904</ele>
        <time>2022-07-27T14:44:49Z</time>
      </trkpt>
      <trkpt lat="45.65227" lon="6.53828">
        <ele>1904</ele>
        <time>2022-07-27T14:44:50Z</time>
      </trkpt>
      <trkpt lat="45.65228" lon="6.53827">
        <ele>1904</ele>
        <time>2022-07-27T14:44:51Z</time>
      </trkpt>
      <trkpt lat="45.65229" lon="6.53826">
        <ele>1904</ele>
        <time>2022-07-27T14:44:52Z</time>
      </trkpt>
      <trkpt lat="45.6523" lon="6.53825">
        <ele>1904</ele>
        <time>2022-07-27T14:44:53Z</time>
      </trkpt>
      <trkpt lat="45.6523" lon="6.53824">
        <ele>1904</ele>
        <time>2022-07-27T14:44:54Z</time>
      </trkpt>
      <trkpt lat="45.65231" lon="6.53823">
        <ele>1904</ele>
        <time>2022-07-27T14:44:55Z</time>
      </trkpt>
      <trkpt lat="45.65232" lon="6.53822">
        <ele>1904</ele>
        <time>2022-07-27T14:44:56Z</time>
      </trkpt>
      <trkpt lat="45.65233" lon="6.53821">
        <ele>1903</ele>
        <time>2022-07-27T14:44:57Z</time>
      </trkpt>
      <trkpt lat="45.65233" lon="6.53821">
        <ele>1903</ele>
        <time>2022-07-27T14:44:58Z</time>
      </trkpt>
      <trkpt lat="45.65234" lon="6.5382">
        <ele>1903</ele>
        <time>2022-07-27T14:44:59Z</time>
      </trkpt>
      <trkpt lat="45.65235" lon="6.5382">
        <ele>1903</ele>
        <time>2022-07-27T14:45:00Z</time>
      </trkpt>
      <trkpt lat="45.65235" lon="6.5382">
        <ele>1903</ele>
        <time>2022-07-27T14:45:01Z</time>
      </trkpt>
      <trkpt lat="45.65236" lon="6.5382">
        <ele>1902</ele>
        <time>2022-07-27T14:45:02Z</time>
      </trkpt>
      <trkpt lat="45.65236" lon="6.5382">
        <ele>1902</ele>
        <time>2022-07-27T14:45:03Z</time>
      </trkpt>
      <trkpt lat="45.65236" lon="6.53821">
        <ele>1902</ele>
        <time>2022-07-27T14:45:04Z</time>
      </trkpt>
      <trkpt lat="45.65236" lon="6.53821">
        <ele>1902</ele>
        <time>2022-07-27T14:45:05Z</time>
      </trkpt>
      <trkpt lat="45.65237" lon="6.53822">
        <ele>1902</ele>
        <time>2022-07-27T14:45:06Z</time>
      </trkpt>
      <trkpt lat="45.65237" lon="6.53823">
        <ele>1902</ele>
        <time>2022-07-27T14:45:07Z</time>
      </trkpt>
      <trkpt lat="45.65238" lon="6.53824">
        <ele>1902</ele>
        <time>2022-07-27T14:45:08Z</time>
      </trkpt>
      <trkpt lat="45.65238" lon="6.53824">
        <ele>1902</ele>
        <time>2022-07-27T14:45:09Z</time>
      </trkpt>
      <trkpt lat="45.65238" lon="6.53824">
        <ele>1902</ele>
        <time>2022-07-27T14:45:10Z</time>
      </trkpt>
      <trkpt lat="45.65238" lon="6.53824">
        <ele>1902</ele>
        <time>2022-07-27T14:45:11Z</time>
      </trkpt>
      <trkpt lat="45.65238" lon="6.53824">
        <ele>1901</ele>
        <time>2022-07-27T14:45:12Z</time>
      </trkpt>
      <trkpt lat="45.65238" lon="6.53824">
        <ele>1901</ele>
        <time>2022-07-27T14:45:13Z</time>
      </trkpt>
      <trkpt lat="45.65238" lon="6.53825">
        <ele>1901</ele>
        <time>2022-07-27T14:45:14Z</time>
      </trkpt>
      <trkpt lat="45.65239" lon="6.53825">
        <ele>1901</ele>
        <time>2022-07-27T14:45:15Z</time>
      </trkpt>
      <trkpt lat="45.65239" lon="6.53825">
        <ele>1901</ele>
        <time>2022-07-27T14:45:16Z</time>
      </trkpt>
      <trkpt lat="45.6524" lon="6.53826">
        <ele>1900</ele>
        <time>2022-07-27T14:45:17Z</time>
      </trkpt>
      <trkpt lat="45.65241" lon="6.53827">
        <ele>1900</ele>
        <time>2022-07-27T14:45:18Z</time>
      </trkpt>
      <trkpt lat="45.65242" lon="6.53827">
        <ele>1900</ele>
        <time>2022-07-27T14:45:19Z</time>
      </trkpt>
      <trkpt lat="45.65242" lon="6.53828">
        <ele>1900</ele>
        <time>2022-07-27T14:45:20Z</time>
      </trkpt>
      <trkpt lat="45.65243" lon="6.53829">
        <ele>1900</ele>
        <time>2022-07-27T14:45:21Z</time>
      </trkpt>
      <trkpt lat="45.65244" lon="6.5383">
        <ele>1899</ele>
        <time>2022-07-27T14:45:22Z</time>
      </trkpt>
      <trkpt lat="45.65244" lon="6.53831">
        <ele>1899</ele>
        <time>2022-07-27T14:45:23Z</time>
      </trkpt>
      <trkpt lat="45.65245" lon="6.53831">
        <ele>1899</ele>
        <time>2022-07-27T14:45:24Z</time>
      </trkpt>
      <trkpt lat="45.65246" lon="6.53832">
        <ele>1899</ele>
        <time>2022-07-27T14:45:25Z</time>
      </trkpt>
      <trkpt lat="45.65247" lon="6.53832">
        <ele>1899</ele>
        <time>2022-07-27T14:45:26Z</time>
      </trkpt>
      <trkpt lat="45.65247" lon="6.53833">
        <ele>1899</ele>
        <time>2022-07-27T14:45:27Z</time>
      </trkpt>
      <trkpt lat="45.65248" lon="6.53833">
        <ele>1899</ele>
        <time>2022-07-27T14:45:28Z</time>
      </trkpt>
      <trkpt lat="45.65249" lon="6.53834">
        <ele>1899</ele>
        <time>2022-07-27T14:45:29Z</time>
      </trkpt>
      <trkpt lat="45.6525" lon="6.53836">
        <ele>1897</ele>
        <time>2022-07-27T14:45:38Z</time>
      </trkpt>
      <trkpt lat="45.65252" lon="6.53836">
        <ele>1896</ele>
        <time>2022-07-27T14:45:39Z</time>
      </trkpt>
      <trkpt lat="45.65253" lon="6.53837">
        <ele>1896</ele>
        <time>2022-07-27T14:45:40Z</time>
      </trkpt>
      <trkpt lat="45.65253" lon="6.53838">
        <ele>1896</ele>
        <time>2022-07-27T14:45:41Z</time>
      </trkpt>
      <trkpt lat="45.65254" lon="6.53838">
        <ele>1896</ele>
        <time>2022-07-27T14:45:42Z</time>
      </trkpt>
      <trkpt lat="45.65255" lon="6.53839">
        <ele>1896</ele>
        <time>2022-07-27T14:45:43Z</time>
      </trkpt>
      <trkpt lat="45.65255" lon="6.53839">
        <ele>1896</ele>
        <time>2022-07-27T14:45:44Z</time>
      </trkpt>
      <trkpt lat="45.65256" lon="6.53839">
        <ele>1896</ele>
        <time>2022-07-27T14:45:45Z</time>
      </trkpt>
      <trkpt lat="45.65257" lon="6.53839">
        <ele>1896</ele>
        <time>2022-07-27T14:45:46Z</time>
      </trkpt>
      <trkpt lat="45.65258" lon="6.53839">
        <ele>1895</ele>
        <time>2022-07-27T14:45:47Z</time>
      </trkpt>
      <trkpt lat="45.65259" lon="6.53839">
        <ele>1895</ele>
        <time>2022-07-27T14:45:48Z</time>
      </trkpt>
      <trkpt lat="45.6526" lon="6.53839">
        <ele>1894</ele>
        <time>2022-07-27T14:45:49Z</time>
      </trkpt>
      <trkpt lat="45.65262" lon="6.5384">
        <ele>1894</ele>
        <time>2022-07-27T14:45:50Z</time>
      </trkpt>
      <trkpt lat="45.65263" lon="6.5384">
        <ele>1894</ele>
        <time>2022-07-27T14:45:51Z</time>
      </trkpt>
      <trkpt lat="45.65264" lon="6.5384">
        <ele>1893</ele>
        <time>2022-07-27T14:45:52Z</time>
      </trkpt>
      <trkpt lat="45.65265" lon="6.53841">
        <ele>1893</ele>
        <time>2022-07-27T14:45:53Z</time>
      </trkpt>
      <trkpt lat="45.65267" lon="6.53841">
        <ele>1893</ele>
        <time>2022-07-27T14:45:54Z</time>
      </trkpt>
      <trkpt lat="45.65268" lon="6.53841">
        <ele>1893</ele>
        <time>2022-07-27T14:45:55Z</time>
      </trkpt>
      <trkpt lat="45.65269" lon="6.53841">
        <ele>1893</ele>
        <time>2022-07-27T14:45:56Z</time>
      </trkpt>
      <trkpt lat="45.6527" lon="6.53841">
        <ele>1892</ele>
        <time>2022-07-27T14:45:57Z</time>
      </trkpt>
      <trkpt lat="45.65271" lon="6.53841">
        <ele>1892</ele>
        <time>2022-07-27T14:45:58Z</time>
      </trkpt>
      <trkpt lat="45.65272" lon="6.53841">
        <ele>1891</ele>
        <time>2022-07-27T14:45:59Z</time>
      </trkpt>
      <trkpt lat="45.65274" lon="6.53842">
        <ele>1891</ele>
        <time>2022-07-27T14:46:00Z</time>
      </trkpt>
      <trkpt lat="45.65275" lon="6.53842">
        <ele>1891</ele>
        <time>2022-07-27T14:46:01Z</time>
      </trkpt>
      <trkpt lat="45.65276" lon="6.53842">
        <ele>1890</ele>
        <time>2022-07-27T14:46:02Z</time>
      </trkpt>
      <trkpt lat="45.65277" lon="6.53842">
        <ele>1890</ele>
        <time>2022-07-27T14:46:03Z</time>
      </trkpt>
      <trkpt lat="45.65277" lon="6.53842">
        <ele>1890</ele>
        <time>2022-07-27T14:46:04Z</time>
      </trkpt>
      <trkpt lat="45.65278" lon="6.53842">
        <ele>1890</ele>
        <time>2022-07-27T14:46:05Z</time>
      </trkpt>
      <trkpt lat="45.65279" lon="6.53842">
        <ele>1890</ele>
        <time>2022-07-27T14:46:06Z</time>
      </trkpt>
      <trkpt lat="45.6528" lon="6.53842">
        <ele>1889</ele>
        <time>2022-07-27T14:46:07Z</time>
      </trkpt>
      <trkpt lat="45.6528" lon="6.53842">
        <ele>1889</ele>
        <time>2022-07-27T14:46:08Z</time>
      </trkpt>
      <trkpt lat="45.65281" lon="6.53841">
        <ele>1889</ele>
        <time>2022-07-27T14:46:09Z</time>
      </trkpt>
      <trkpt lat="45.65282" lon="6.53841">
        <ele>1889</ele>
        <time>2022-07-27T14:46:10Z</time>
      </trkpt>
      <trkpt lat="45.65283" lon="6.53841">
        <ele>1889</ele>
        <time>2022-07-27T14:46:11Z</time>
      </trkpt>
      <trkpt lat="45.65283" lon="6.53841">
        <ele>1888</ele>
        <time>2022-07-27T14:46:12Z</time>
      </trkpt>
      <trkpt lat="45.65284" lon="6.53842">
        <ele>1888</ele>
        <time>2022-07-27T14:46:13Z</time>
      </trkpt>
      <trkpt lat="45.65285" lon="6.53842">
        <ele>1888</ele>
        <time>2022-07-27T14:46:14Z</time>
      </trkpt>
      <trkpt lat="45.65286" lon="6.53842">
        <ele>1888</ele>
        <time>2022-07-27T14:46:15Z</time>
      </trkpt>
      <trkpt lat="45.65287" lon="6.53843">
        <ele>1888</ele>
        <time>2022-07-27T14:46:16Z</time>
      </trkpt>
      <trkpt lat="45.65288" lon="6.53843">
        <ele>1887</ele>
        <time>2022-07-27T14:46:17Z</time>
      </trkpt>
      <trkpt lat="45.65289" lon="6.53844">
        <ele>1887</ele>
        <time>2022-07-27T14:46:18Z</time>
      </trkpt>
      <trkpt lat="45.6529" lon="6.53844">
        <ele>1887</ele>
        <time>2022-07-27T14:46:19Z</time>
      </trkpt>
      <trkpt lat="45.65291" lon="6.53844">
        <ele>1887</ele>
        <time>2022-07-27T14:46:20Z</time>
      </trkpt>
      <trkpt lat="45.65293" lon="6.53844">
        <ele>1887</ele>
        <time>2022-07-27T14:46:21Z</time>
      </trkpt>
      <trkpt lat="45.65294" lon="6.53844">
        <ele>1886</ele>
        <time>2022-07-27T14:46:22Z</time>
      </trkpt>
      <trkpt lat="45.65296" lon="6.53845">
        <ele>1886</ele>
        <time>2022-07-27T14:46:23Z</time>
      </trkpt>
      <trkpt lat="45.65297" lon="6.53845">
        <ele>1886</ele>
        <time>2022-07-27T14:46:24Z</time>
      </trkpt>
      <trkpt lat="45.65298" lon="6.53845">
        <ele>1886</ele>
        <time>2022-07-27T14:46:25Z</time>
      </trkpt>
      <trkpt lat="45.65299" lon="6.53845">
        <ele>1886</ele>
        <time>2022-07-27T14:46:26Z</time>
      </trkpt>
      <trkpt lat="45.653" lon="6.53844">
        <ele>1885</ele>
        <time>2022-07-27T14:46:27Z</time>
      </trkpt>
      <trkpt lat="45.65301" lon="6.53844">
        <ele>1885</ele>
        <time>2022-07-27T14:46:28Z</time>
      </trkpt>
      <trkpt lat="45.65302" lon="6.53843">
        <ele>1885</ele>
        <time>2022-07-27T14:46:29Z</time>
      </trkpt>
      <trkpt lat="45.65303" lon="6.53843">
        <ele>1885</ele>
        <time>2022-07-27T14:46:30Z</time>
      </trkpt>
      <trkpt lat="45.65304" lon="6.53842">
        <ele>1885</ele>
        <time>2022-07-27T14:46:31Z</time>
      </trkpt>
      <trkpt lat="45.65305" lon="6.53841">
        <ele>1884</ele>
        <time>2022-07-27T14:46:32Z</time>
      </trkpt>
      <trkpt lat="45.65306" lon="6.5384">
        <ele>1884</ele>
        <time>2022-07-27T14:46:33Z</time>
      </trkpt>
      <trkpt lat="45.65307" lon="6.53839">
        <ele>1884</ele>
        <time>2022-07-27T14:46:34Z</time>
      </trkpt>
      <trkpt lat="45.65308" lon="6.53838">
        <ele>1884</ele>
        <time>2022-07-27T14:46:35Z</time>
      </trkpt>
      <trkpt lat="45.65309" lon="6.53837">
        <ele>1884</ele>
        <time>2022-07-27T14:46:36Z</time>
      </trkpt>
      <trkpt lat="45.6531" lon="6.53836">
        <ele>1883</ele>
        <time>2022-07-27T14:46:37Z</time>
      </trkpt>
      <trkpt lat="45.65311" lon="6.53835">
        <ele>1883</ele>
        <time>2022-07-27T14:46:38Z</time>
      </trkpt>
      <trkpt lat="45.65312" lon="6.53833">
        <ele>1883</ele>
        <time>2022-07-27T14:46:39Z</time>
      </trkpt>
      <trkpt lat="45.65313" lon="6.53832">
        <ele>1883</ele>
        <time>2022-07-27T14:46:40Z</time>
      </trkpt>
      <trkpt lat="45.65313" lon="6.53831">
        <ele>1883</ele>
        <time>2022-07-27T14:46:41Z</time>
      </trkpt>
      <trkpt lat="45.65314" lon="6.53831">
        <ele>1883</ele>
        <time>2022-07-27T14:46:42Z</time>
      </trkpt>
      <trkpt lat="45.65315" lon="6.5383">
        <ele>1883</ele>
        <time>2022-07-27T14:46:43Z</time>
      </trkpt>
      <trkpt lat="45.65316" lon="6.53829">
        <ele>1883</ele>
        <time>2022-07-27T14:46:44Z</time>
      </trkpt>
      <trkpt lat="45.65317" lon="6.53828">
        <ele>1883</ele>
        <time>2022-07-27T14:46:45Z</time>
      </trkpt>
      <trkpt lat="45.65318" lon="6.53828">
        <ele>1883</ele>
        <time>2022-07-27T14:46:46Z</time>
      </trkpt>
      <trkpt lat="45.65319" lon="6.53827">
        <ele>1882</ele>
        <time>2022-07-27T14:46:47Z</time>
      </trkpt>
      <trkpt lat="45.6532" lon="6.53827">
        <ele>1882</ele>
        <time>2022-07-27T14:46:48Z</time>
      </trkpt>
      <trkpt lat="45.65321" lon="6.53826">
        <ele>1882</ele>
        <time>2022-07-27T14:46:49Z</time>
      </trkpt>
      <trkpt lat="45.65322" lon="6.53826">
        <ele>1882</ele>
        <time>2022-07-27T14:46:50Z</time>
      </trkpt>
      <trkpt lat="45.65323" lon="6.53826">
        <ele>1882</ele>
        <time>2022-07-27T14:46:51Z</time>
      </trkpt>
      <trkpt lat="45.65324" lon="6.53826">
        <ele>1881</ele>
        <time>2022-07-27T14:46:52Z</time>
      </trkpt>
      <trkpt lat="45.65325" lon="6.53827">
        <ele>1881</ele>
        <time>2022-07-27T14:46:53Z</time>
      </trkpt>
      <trkpt lat="45.65326" lon="6.53827">
        <ele>1880</ele>
        <time>2022-07-27T14:46:54Z</time>
      </trkpt>
      <trkpt lat="45.65327" lon="6.53828">
        <ele>1880</ele>
        <time>2022-07-27T14:46:55Z</time>
      </trkpt>
      <trkpt lat="45.65328" lon="6.53829">
        <ele>1880</ele>
        <time>2022-07-27T14:46:56Z</time>
      </trkpt>
      <trkpt lat="45.65329" lon="6.5383">
        <ele>1879</ele>
        <time>2022-07-27T14:46:57Z</time>
      </trkpt>
      <trkpt lat="45.65331" lon="6.53831">
        <ele>1879</ele>
        <time>2022-07-27T14:46:58Z</time>
      </trkpt>
      <trkpt lat="45.65332" lon="6.53832">
        <ele>1879</ele>
        <time>2022-07-27T14:46:59Z</time>
      </trkpt>
      <trkpt lat="45.65333" lon="6.53833">
        <ele>1879</ele>
        <time>2022-07-27T14:47:00Z</time>
      </trkpt>
      <trkpt lat="45.65334" lon="6.53833">
        <ele>1879</ele>
        <time>2022-07-27T14:47:01Z</time>
      </trkpt>
      <trkpt lat="45.65336" lon="6.53834">
        <ele>1879</ele>
        <time>2022-07-27T14:47:02Z</time>
      </trkpt>
      <trkpt lat="45.65337" lon="6.53834">
        <ele>1879</ele>
        <time>2022-07-27T14:47:03Z</time>
      </trkpt>
      <trkpt lat="45.65338" lon="6.53834">
        <ele>1879</ele>
        <time>2022-07-27T14:47:04Z</time>
      </trkpt>
      <trkpt lat="45.65339" lon="6.53834">
        <ele>1879</ele>
        <time>2022-07-27T14:47:05Z</time>
      </trkpt>
      <trkpt lat="45.6534" lon="6.53834">
        <ele>1879</ele>
        <time>2022-07-27T14:47:06Z</time>
      </trkpt>
      <trkpt lat="45.6534" lon="6.53835">
        <ele>1878</ele>
        <time>2022-07-27T14:47:07Z</time>
      </trkpt>
      <trkpt lat="45.65341" lon="6.53835">
        <ele>1878</ele>
        <time>2022-07-27T14:47:08Z</time>
      </trkpt>
      <trkpt lat="45.65342" lon="6.53835">
        <ele>1878</ele>
        <time>2022-07-27T14:47:09Z</time>
      </trkpt>
      <trkpt lat="45.65342" lon="6.53836">
        <ele>1878</ele>
        <time>2022-07-27T14:47:10Z</time>
      </trkpt>
      <trkpt lat="45.65342" lon="6.53836">
        <ele>1878</ele>
        <time>2022-07-27T14:47:11Z</time>
      </trkpt>
      <trkpt lat="45.65343" lon="6.53837">
        <ele>1877</ele>
        <time>2022-07-27T14:47:12Z</time>
      </trkpt>
      <trkpt lat="45.65343" lon="6.53837">
        <ele>1877</ele>
        <time>2022-07-27T14:47:13Z</time>
      </trkpt>
      <trkpt lat="45.65343" lon="6.53838">
        <ele>1877</ele>
        <time>2022-07-27T14:47:14Z</time>
      </trkpt>
      <trkpt lat="45.65344" lon="6.53838">
        <ele>1877</ele>
        <time>2022-07-27T14:47:15Z</time>
      </trkpt>
      <trkpt lat="45.65345" lon="6.53839">
        <ele>1877</ele>
        <time>2022-07-27T14:47:16Z</time>
      </trkpt>
      <trkpt lat="45.65345" lon="6.53839">
        <ele>1876</ele>
        <time>2022-07-27T14:47:17Z</time>
      </trkpt>
      <trkpt lat="45.65346" lon="6.53839">
        <ele>1876</ele>
        <time>2022-07-27T14:47:18Z</time>
      </trkpt>
      <trkpt lat="45.65347" lon="6.5384">
        <ele>1875</ele>
        <time>2022-07-27T14:47:19Z</time>
      </trkpt>
      <trkpt lat="45.65347" lon="6.5384">
        <ele>1875</ele>
        <time>2022-07-27T14:47:20Z</time>
      </trkpt>
      <trkpt lat="45.65348" lon="6.53841">
        <ele>1875</ele>
        <time>2022-07-27T14:47:21Z</time>
      </trkpt>
      <trkpt lat="45.65349" lon="6.53841">
        <ele>1874</ele>
        <time>2022-07-27T14:47:22Z</time>
      </trkpt>
      <trkpt lat="45.6535" lon="6.53842">
        <ele>1874</ele>
        <time>2022-07-27T14:47:23Z</time>
      </trkpt>
      <trkpt lat="45.6535" lon="6.53842">
        <ele>1874</ele>
        <time>2022-07-27T14:47:24Z</time>
      </trkpt>
      <trkpt lat="45.65351" lon="6.53843">
        <ele>1874</ele>
        <time>2022-07-27T14:47:25Z</time>
      </trkpt>
      <trkpt lat="45.65351" lon="6.53843">
        <ele>1874</ele>
        <time>2022-07-27T14:47:26Z</time>
      </trkpt>
      <trkpt lat="45.65352" lon="6.53844">
        <ele>1873</ele>
        <time>2022-07-27T14:47:27Z</time>
      </trkpt>
      <trkpt lat="45.65353" lon="6.53844">
        <ele>1873</ele>
        <time>2022-07-27T14:47:28Z</time>
      </trkpt>
      <trkpt lat="45.65354" lon="6.53844">
        <ele>1873</ele>
        <time>2022-07-27T14:47:29Z</time>
      </trkpt>
      <trkpt lat="45.65354" lon="6.53844">
        <ele>1873</ele>
        <time>2022-07-27T14:47:30Z</time>
      </trkpt>
      <trkpt lat="45.65355" lon="6.53844">
        <ele>1873</ele>
        <time>2022-07-27T14:47:31Z</time>
      </trkpt>
      <trkpt lat="45.65356" lon="6.53844">
        <ele>1872</ele>
        <time>2022-07-27T14:47:32Z</time>
      </trkpt>
      <trkpt lat="45.65357" lon="6.53844">
        <ele>1872</ele>
        <time>2022-07-27T14:47:33Z</time>
      </trkpt>
      <trkpt lat="45.65357" lon="6.53844">
        <ele>1872</ele>
        <time>2022-07-27T14:47:34Z</time>
      </trkpt>
      <trkpt lat="45.65358" lon="6.53844">
        <ele>1872</ele>
        <time>2022-07-27T14:47:35Z</time>
      </trkpt>
      <trkpt lat="45.65358" lon="6.53844">
        <ele>1872</ele>
        <time>2022-07-27T14:47:36Z</time>
      </trkpt>
      <trkpt lat="45.65358" lon="6.53844">
        <ele>1871</ele>
        <time>2022-07-27T14:47:37Z</time>
      </trkpt>
      <trkpt lat="45.65358" lon="6.53844">
        <ele>1871</ele>
        <time>2022-07-27T14:47:38Z</time>
      </trkpt>
      <trkpt lat="45.65359" lon="6.53844">
        <ele>1871</ele>
        <time>2022-07-27T14:47:39Z</time>
      </trkpt>
      <trkpt lat="45.65359" lon="6.53844">
        <ele>1871</ele>
        <time>2022-07-27T14:47:40Z</time>
      </trkpt>
      <trkpt lat="45.6536" lon="6.53844">
        <ele>1871</ele>
        <time>2022-07-27T14:47:41Z</time>
      </trkpt>
      <trkpt lat="45.6536" lon="6.53845">
        <ele>1870</ele>
        <time>2022-07-27T14:47:42Z</time>
      </trkpt>
      <trkpt lat="45.6536" lon="6.53845">
        <ele>1870</ele>
        <time>2022-07-27T14:47:43Z</time>
      </trkpt>
      <trkpt lat="45.65361" lon="6.53845">
        <ele>1870</ele>
        <time>2022-07-27T14:47:44Z</time>
      </trkpt>
      <trkpt lat="45.65361" lon="6.53845">
        <ele>1870</ele>
        <time>2022-07-27T14:47:45Z</time>
      </trkpt>
      <trkpt lat="45.65361" lon="6.53845">
        <ele>1870</ele>
        <time>2022-07-27T14:47:46Z</time>
      </trkpt>
      <trkpt lat="45.65362" lon="6.53845">
        <ele>1870</ele>
        <time>2022-07-27T14:47:47Z</time>
      </trkpt>
      <trkpt lat="45.65363" lon="6.53845">
        <ele>1870</ele>
        <time>2022-07-27T14:47:48Z</time>
      </trkpt>
      <trkpt lat="45.65363" lon="6.53845">
        <ele>1870</ele>
        <time>2022-07-27T14:47:49Z</time>
      </trkpt>
      <trkpt lat="45.65364" lon="6.53845">
        <ele>1870</ele>
        <time>2022-07-27T14:47:50Z</time>
      </trkpt>
      <trkpt lat="45.65365" lon="6.53846">
        <ele>1870</ele>
        <time>2022-07-27T14:47:51Z</time>
      </trkpt>
      <trkpt lat="45.65365" lon="6.53846">
        <ele>1869</ele>
        <time>2022-07-27T14:47:52Z</time>
      </trkpt>
      <trkpt lat="45.65366" lon="6.53847">
        <ele>1869</ele>
        <time>2022-07-27T14:47:53Z</time>
      </trkpt>
      <trkpt lat="45.65366" lon="6.53848">
        <ele>1867</ele>
        <time>2022-07-27T14:48:21Z</time>
      </trkpt>
      <trkpt lat="45.65367" lon="6.53848">
        <ele>1866</ele>
        <time>2022-07-27T14:48:22Z</time>
      </trkpt>
      <trkpt lat="45.65367" lon="6.53849">
        <ele>1866</ele>
        <time>2022-07-27T14:48:23Z</time>
      </trkpt>
      <trkpt lat="45.65367" lon="6.5385">
        <ele>1866</ele>
        <time>2022-07-27T14:48:24Z</time>
      </trkpt>
      <trkpt lat="45.65368" lon="6.5385">
        <ele>1866</ele>
        <time>2022-07-27T14:48:25Z</time>
      </trkpt>
      <trkpt lat="45.65369" lon="6.53851">
        <ele>1866</ele>
        <time>2022-07-27T14:48:26Z</time>
      </trkpt>
      <trkpt lat="45.6537" lon="6.53851">
        <ele>1866</ele>
        <time>2022-07-27T14:48:27Z</time>
      </trkpt>
      <trkpt lat="45.65371" lon="6.53852">
        <ele>1866</ele>
        <time>2022-07-27T14:48:28Z</time>
      </trkpt>
      <trkpt lat="45.65372" lon="6.53852">
        <ele>1866</ele>
        <time>2022-07-27T14:48:29Z</time>
      </trkpt>
      <trkpt lat="45.65373" lon="6.53852">
        <ele>1866</ele>
        <time>2022-07-27T14:48:30Z</time>
      </trkpt>
      <trkpt lat="45.65374" lon="6.53852">
        <ele>1866</ele>
        <time>2022-07-27T14:48:31Z</time>
      </trkpt>
      <trkpt lat="45.65375" lon="6.53852">
        <ele>1865</ele>
        <time>2022-07-27T14:48:32Z</time>
      </trkpt>
      <trkpt lat="45.65376" lon="6.53853">
        <ele>1865</ele>
        <time>2022-07-27T14:48:33Z</time>
      </trkpt>
      <trkpt lat="45.65376" lon="6.53853">
        <ele>1865</ele>
        <time>2022-07-27T14:48:34Z</time>
      </trkpt>
      <trkpt lat="45.65377" lon="6.53853">
        <ele>1865</ele>
        <time>2022-07-27T14:48:35Z</time>
      </trkpt>
      <trkpt lat="45.65377" lon="6.53854">
        <ele>1865</ele>
        <time>2022-07-27T14:48:36Z</time>
      </trkpt>
      <trkpt lat="45.65377" lon="6.53855">
        <ele>1864</ele>
        <time>2022-07-27T14:48:37Z</time>
      </trkpt>
      <trkpt lat="45.65378" lon="6.53856">
        <ele>1864</ele>
        <time>2022-07-27T14:48:38Z</time>
      </trkpt>
      <trkpt lat="45.65378" lon="6.53856">
        <ele>1863</ele>
        <time>2022-07-27T14:48:39Z</time>
      </trkpt>
      <trkpt lat="45.65379" lon="6.53857">
        <ele>1863</ele>
        <time>2022-07-27T14:48:40Z</time>
      </trkpt>
      <trkpt lat="45.65379" lon="6.53857">
        <ele>1863</ele>
        <time>2022-07-27T14:48:41Z</time>
      </trkpt>
      <trkpt lat="45.6538" lon="6.53857">
        <ele>1862</ele>
        <time>2022-07-27T14:48:42Z</time>
      </trkpt>
      <trkpt lat="45.65381" lon="6.53857">
        <ele>1862</ele>
        <time>2022-07-27T14:48:43Z</time>
      </trkpt>
      <trkpt lat="45.65381" lon="6.53857">
        <ele>1862</ele>
        <time>2022-07-27T14:48:44Z</time>
      </trkpt>
      <trkpt lat="45.65382" lon="6.53857">
        <ele>1862</ele>
        <time>2022-07-27T14:48:45Z</time>
      </trkpt>
      <trkpt lat="45.65383" lon="6.53858">
        <ele>1862</ele>
        <time>2022-07-27T14:48:46Z</time>
      </trkpt>
      <trkpt lat="45.65383" lon="6.53858">
        <ele>1861</ele>
        <time>2022-07-27T14:48:47Z</time>
      </trkpt>
      <trkpt lat="45.65384" lon="6.53859">
        <ele>1861</ele>
        <time>2022-07-27T14:48:48Z</time>
      </trkpt>
      <trkpt lat="45.65384" lon="6.53859">
        <ele>1861</ele>
        <time>2022-07-27T14:48:49Z</time>
      </trkpt>
      <trkpt lat="45.65385" lon="6.5386">
        <ele>1861</ele>
        <time>2022-07-27T14:48:50Z</time>
      </trkpt>
      <trkpt lat="45.65385" lon="6.53861">
        <ele>1861</ele>
        <time>2022-07-27T14:48:51Z</time>
      </trkpt>
      <trkpt lat="45.65386" lon="6.53861">
        <ele>1860</ele>
        <time>2022-07-27T14:48:52Z</time>
      </trkpt>
      <trkpt lat="45.65386" lon="6.53862">
        <ele>1860</ele>
        <time>2022-07-27T14:48:53Z</time>
      </trkpt>
      <trkpt lat="45.65387" lon="6.53862">
        <ele>1860</ele>
        <time>2022-07-27T14:48:54Z</time>
      </trkpt>
      <trkpt lat="45.65387" lon="6.53863">
        <ele>1860</ele>
        <time>2022-07-27T14:48:55Z</time>
      </trkpt>
      <trkpt lat="45.65388" lon="6.53863">
        <ele>1860</ele>
        <time>2022-07-27T14:48:56Z</time>
      </trkpt>
      <trkpt lat="45.65388" lon="6.53864">
        <ele>1859</ele>
        <time>2022-07-27T14:48:57Z</time>
      </trkpt>
      <trkpt lat="45.65388" lon="6.53865">
        <ele>1859</ele>
        <time>2022-07-27T14:48:58Z</time>
      </trkpt>
      <trkpt lat="45.65388" lon="6.53865">
        <ele>1859</ele>
        <time>2022-07-27T14:48:59Z</time>
      </trkpt>
      <trkpt lat="45.65388" lon="6.53865">
        <ele>1859</ele>
        <time>2022-07-27T14:49:00Z</time>
      </trkpt>
      <trkpt lat="45.65388" lon="6.53866">
        <ele>1859</ele>
        <time>2022-07-27T14:49:01Z</time>
      </trkpt>
      <trkpt lat="45.65388" lon="6.53867">
        <ele>1858</ele>
        <time>2022-07-27T14:49:02Z</time>
      </trkpt>
      <trkpt lat="45.65388" lon="6.53868">
        <ele>1858</ele>
        <time>2022-07-27T14:49:03Z</time>
      </trkpt>
      <trkpt lat="45.65388" lon="6.53869">
        <ele>1858</ele>
        <time>2022-07-27T14:49:04Z</time>
      </trkpt>
      <trkpt lat="45.65387" lon="6.53869">
        <ele>1858</ele>
        <time>2022-07-27T14:49:05Z</time>
      </trkpt>
      <trkpt lat="45.65387" lon="6.5387">
        <ele>1858</ele>
        <time>2022-07-27T14:49:06Z</time>
      </trkpt>
      <trkpt lat="45.65387" lon="6.53871">
        <ele>1857</ele>
        <time>2022-07-27T14:49:07Z</time>
      </trkpt>
      <trkpt lat="45.65387" lon="6.53871">
        <ele>1857</ele>
        <time>2022-07-27T14:49:08Z</time>
      </trkpt>
      <trkpt lat="45.65386" lon="6.53872">
        <ele>1857</ele>
        <time>2022-07-27T14:49:09Z</time>
      </trkpt>
      <trkpt lat="45.65386" lon="6.53874">
        <ele>1857</ele>
        <time>2022-07-27T14:49:10Z</time>
      </trkpt>
      <trkpt lat="45.65386" lon="6.53875">
        <ele>1857</ele>
        <time>2022-07-27T14:49:11Z</time>
      </trkpt>
      <trkpt lat="45.65386" lon="6.53876">
        <ele>1856</ele>
        <time>2022-07-27T14:49:12Z</time>
      </trkpt>
      <trkpt lat="45.65386" lon="6.53876">
        <ele>1856</ele>
        <time>2022-07-27T14:49:13Z</time>
      </trkpt>
      <trkpt lat="45.65387" lon="6.53877">
        <ele>1855</ele>
        <time>2022-07-27T14:49:14Z</time>
      </trkpt>
      <trkpt lat="45.65387" lon="6.53878">
        <ele>1855</ele>
        <time>2022-07-27T14:49:15Z</time>
      </trkpt>
      <trkpt lat="45.65387" lon="6.53879">
        <ele>1855</ele>
        <time>2022-07-27T14:49:16Z</time>
      </trkpt>
      <trkpt lat="45.65388" lon="6.53879">
        <ele>1854</ele>
        <time>2022-07-27T14:49:17Z</time>
      </trkpt>
      <trkpt lat="45.65389" lon="6.53879">
        <ele>1854</ele>
        <time>2022-07-27T14:49:18Z</time>
      </trkpt>
      <trkpt lat="45.65389" lon="6.53878">
        <ele>1853</ele>
        <time>2022-07-27T14:49:19Z</time>
      </trkpt>
      <trkpt lat="45.6539" lon="6.53878">
        <ele>1853</ele>
        <time>2022-07-27T14:49:20Z</time>
      </trkpt>
      <trkpt lat="45.65391" lon="6.53877">
        <ele>1853</ele>
        <time>2022-07-27T14:49:21Z</time>
      </trkpt>
      <trkpt lat="45.65392" lon="6.53877">
        <ele>1853</ele>
        <time>2022-07-27T14:49:22Z</time>
      </trkpt>
      <trkpt lat="45.65392" lon="6.53877">
        <ele>1853</ele>
        <time>2022-07-27T14:49:23Z</time>
      </trkpt>
      <trkpt lat="45.65393" lon="6.53877">
        <ele>1853</ele>
        <time>2022-07-27T14:49:24Z</time>
      </trkpt>
      <trkpt lat="45.65394" lon="6.53878">
        <ele>1853</ele>
        <time>2022-07-27T14:49:25Z</time>
      </trkpt>
      <trkpt lat="45.65394" lon="6.53878">
        <ele>1853</ele>
        <time>2022-07-27T14:49:26Z</time>
      </trkpt>
      <trkpt lat="45.65394" lon="6.53879">
        <ele>1852</ele>
        <time>2022-07-27T14:49:27Z</time>
      </trkpt>
      <trkpt lat="45.65394" lon="6.53879">
        <ele>1852</ele>
        <time>2022-07-27T14:49:28Z</time>
      </trkpt>
      <trkpt lat="45.65394" lon="6.53881">
        <ele>1852</ele>
        <time>2022-07-27T14:49:29Z</time>
      </trkpt>
      <trkpt lat="45.65394" lon="6.53882">
        <ele>1852</ele>
        <time>2022-07-27T14:49:30Z</time>
      </trkpt>
      <trkpt lat="45.65394" lon="6.53882">
        <ele>1852</ele>
        <time>2022-07-27T14:49:31Z</time>
      </trkpt>
      <trkpt lat="45.65394" lon="6.53883">
        <ele>1851</ele>
        <time>2022-07-27T14:49:32Z</time>
      </trkpt>
      <trkpt lat="45.65394" lon="6.53884">
        <ele>1851</ele>
        <time>2022-07-27T14:49:33Z</time>
      </trkpt>
      <trkpt lat="45.65395" lon="6.53885">
        <ele>1850</ele>
        <time>2022-07-27T14:49:34Z</time>
      </trkpt>
      <trkpt lat="45.65395" lon="6.53886">
        <ele>1850</ele>
        <time>2022-07-27T14:49:35Z</time>
      </trkpt>
      <trkpt lat="45.65396" lon="6.53886">
        <ele>1850</ele>
        <time>2022-07-27T14:49:36Z</time>
      </trkpt>
      <trkpt lat="45.65396" lon="6.53887">
        <ele>1849</ele>
        <time>2022-07-27T14:49:37Z</time>
      </trkpt>
      <trkpt lat="45.65397" lon="6.53887">
        <ele>1849</ele>
        <time>2022-07-27T14:49:38Z</time>
      </trkpt>
      <trkpt lat="45.65397" lon="6.53887">
        <ele>1849</ele>
        <time>2022-07-27T14:49:39Z</time>
      </trkpt>
      <trkpt lat="45.65398" lon="6.53887">
        <ele>1849</ele>
        <time>2022-07-27T14:49:40Z</time>
      </trkpt>
      <trkpt lat="45.65398" lon="6.53887">
        <ele>1849</ele>
        <time>2022-07-27T14:49:41Z</time>
      </trkpt>
      <trkpt lat="45.65399" lon="6.53888">
        <ele>1848</ele>
        <time>2022-07-27T14:49:42Z</time>
      </trkpt>
      <trkpt lat="45.65399" lon="6.53888">
        <ele>1848</ele>
        <time>2022-07-27T14:49:43Z</time>
      </trkpt>
      <trkpt lat="45.654" lon="6.53888">
        <ele>1846</ele>
        <time>2022-07-27T14:50:13Z</time>
      </trkpt>
      <trkpt lat="45.65401" lon="6.53888">
        <ele>1846</ele>
        <time>2022-07-27T14:50:14Z</time>
      </trkpt>
      <trkpt lat="45.65402" lon="6.53888">
        <ele>1846</ele>
        <time>2022-07-27T14:50:15Z</time>
      </trkpt>
      <trkpt lat="45.65403" lon="6.53888">
        <ele>1845</ele>
        <time>2022-07-27T14:51:08Z</time>
      </trkpt>
      <trkpt lat="45.65403" lon="6.53888">
        <ele>1845</ele>
        <time>2022-07-27T14:51:09Z</time>
      </trkpt>
      <trkpt lat="45.65404" lon="6.53887">
        <ele>1845</ele>
        <time>2022-07-27T14:51:10Z</time>
      </trkpt>
      <trkpt lat="45.65404" lon="6.53887">
        <ele>1845</ele>
        <time>2022-07-27T14:51:11Z</time>
      </trkpt>
      <trkpt lat="45.65405" lon="6.53886">
        <ele>1845</ele>
        <time>2022-07-27T14:51:12Z</time>
      </trkpt>
      <trkpt lat="45.65405" lon="6.53885">
        <ele>1845</ele>
        <time>2022-07-27T14:51:13Z</time>
      </trkpt>
      <trkpt lat="45.65406" lon="6.53885">
        <ele>1845</ele>
        <time>2022-07-27T14:51:14Z</time>
      </trkpt>
      <trkpt lat="45.65406" lon="6.53885">
        <ele>1845</ele>
        <time>2022-07-27T14:51:15Z</time>
      </trkpt>
      <trkpt lat="45.65407" lon="6.53884">
        <ele>1845</ele>
        <time>2022-07-27T14:51:16Z</time>
      </trkpt>
      <trkpt lat="45.65407" lon="6.53884">
        <ele>1844</ele>
        <time>2022-07-27T14:51:17Z</time>
      </trkpt>
      <trkpt lat="45.65407" lon="6.53884">
        <ele>1844</ele>
        <time>2022-07-27T14:51:18Z</time>
      </trkpt>
      <trkpt lat="45.65408" lon="6.53883">
        <ele>1844</ele>
        <time>2022-07-27T14:51:19Z</time>
      </trkpt>
      <trkpt lat="45.65409" lon="6.53883">
        <ele>1844</ele>
        <time>2022-07-27T14:51:20Z</time>
      </trkpt>
      <trkpt lat="45.65409" lon="6.53882">
        <ele>1844</ele>
        <time>2022-07-27T14:51:21Z</time>
      </trkpt>
      <trkpt lat="45.6541" lon="6.53882">
        <ele>1844</ele>
        <time>2022-07-27T14:51:22Z</time>
      </trkpt>
      <trkpt lat="45.65411" lon="6.53881">
        <ele>1844</ele>
        <time>2022-07-27T14:51:23Z</time>
      </trkpt>
      <trkpt lat="45.65412" lon="6.53881">
        <ele>1844</ele>
        <time>2022-07-27T14:51:24Z</time>
      </trkpt>
      <trkpt lat="45.65412" lon="6.5388">
        <ele>1844</ele>
        <time>2022-07-27T14:51:25Z</time>
      </trkpt>
      <trkpt lat="45.65413" lon="6.53879">
        <ele>1844</ele>
        <time>2022-07-27T14:51:26Z</time>
      </trkpt>
      <trkpt lat="45.65414" lon="6.53877">
        <ele>1843</ele>
        <time>2022-07-27T14:51:27Z</time>
      </trkpt>
      <trkpt lat="45.65414" lon="6.53876">
        <ele>1843</ele>
        <time>2022-07-27T14:51:28Z</time>
      </trkpt>
      <trkpt lat="45.65414" lon="6.53874">
        <ele>1843</ele>
        <time>2022-07-27T14:51:29Z</time>
      </trkpt>
      <trkpt lat="45.65415" lon="6.53873">
        <ele>1843</ele>
        <time>2022-07-27T14:51:30Z</time>
      </trkpt>
      <trkpt lat="45.65415" lon="6.53871">
        <ele>1843</ele>
        <time>2022-07-27T14:51:31Z</time>
      </trkpt>
      <trkpt lat="45.65415" lon="6.53869">
        <ele>1843</ele>
        <time>2022-07-27T14:51:32Z</time>
      </trkpt>
      <trkpt lat="45.65416" lon="6.53868">
        <ele>1843</ele>
        <time>2022-07-27T14:51:33Z</time>
      </trkpt>
      <trkpt lat="45.65417" lon="6.53866">
        <ele>1843</ele>
        <time>2022-07-27T14:51:34Z</time>
      </trkpt>
      <trkpt lat="45.65417" lon="6.53865">
        <ele>1843</ele>
        <time>2022-07-27T14:51:35Z</time>
      </trkpt>
      <trkpt lat="45.65418" lon="6.53864">
        <ele>1843</ele>
        <time>2022-07-27T14:51:36Z</time>
      </trkpt>
      <trkpt lat="45.65419" lon="6.53864">
        <ele>1843</ele>
        <time>2022-07-27T14:51:37Z</time>
      </trkpt>
      <trkpt lat="45.6542" lon="6.53863">
        <ele>1843</ele>
        <time>2022-07-27T14:51:38Z</time>
      </trkpt>
      <trkpt lat="45.65421" lon="6.53863">
        <ele>1843</ele>
        <time>2022-07-27T14:51:39Z</time>
      </trkpt>
      <trkpt lat="45.65422" lon="6.53862">
        <ele>1843</ele>
        <time>2022-07-27T14:51:40Z</time>
      </trkpt>
      <trkpt lat="45.65423" lon="6.53862">
        <ele>1844</ele>
        <time>2022-07-27T14:51:41Z</time>
      </trkpt>
      <trkpt lat="45.65424" lon="6.53862">
        <ele>1844</ele>
        <time>2022-07-27T14:51:42Z</time>
      </trkpt>
      <trkpt lat="45.65425" lon="6.53862">
        <ele>1844</ele>
        <time>2022-07-27T14:51:43Z</time>
      </trkpt>
      <trkpt lat="45.65426" lon="6.53861">
        <ele>1844</ele>
        <time>2022-07-27T14:51:44Z</time>
      </trkpt>
      <trkpt lat="45.65428" lon="6.53861">
        <ele>1844</ele>
        <time>2022-07-27T14:51:45Z</time>
      </trkpt>
      <trkpt lat="45.65429" lon="6.53861">
        <ele>1844</ele>
        <time>2022-07-27T14:51:46Z</time>
      </trkpt>
      <trkpt lat="45.6543" lon="6.53861">
        <ele>1844</ele>
        <time>2022-07-27T14:51:47Z</time>
      </trkpt>
      <trkpt lat="45.65431" lon="6.5386">
        <ele>1844</ele>
        <time>2022-07-27T14:51:48Z</time>
      </trkpt>
      <trkpt lat="45.65432" lon="6.5386">
        <ele>1844</ele>
        <time>2022-07-27T14:51:49Z</time>
      </trkpt>
      <trkpt lat="45.65433" lon="6.5386">
        <ele>1844</ele>
        <time>2022-07-27T14:51:50Z</time>
      </trkpt>
      <trkpt lat="45.65434" lon="6.5386">
        <ele>1844</ele>
        <time>2022-07-27T14:51:51Z</time>
      </trkpt>
      <trkpt lat="45.65435" lon="6.53859">
        <ele>1843</ele>
        <time>2022-07-27T14:51:52Z</time>
      </trkpt>
      <trkpt lat="45.65436" lon="6.53859">
        <ele>1843</ele>
        <time>2022-07-27T14:51:53Z</time>
      </trkpt>
      <trkpt lat="45.65437" lon="6.5386">
        <ele>1843</ele>
        <time>2022-07-27T14:51:54Z</time>
      </trkpt>
      <trkpt lat="45.65438" lon="6.5386">
        <ele>1843</ele>
        <time>2022-07-27T14:51:55Z</time>
      </trkpt>
      <trkpt lat="45.65439" lon="6.5386">
        <ele>1843</ele>
        <time>2022-07-27T14:51:56Z</time>
      </trkpt>
      <trkpt lat="45.65439" lon="6.5386">
        <ele>1843</ele>
        <time>2022-07-27T14:51:57Z</time>
      </trkpt>
      <trkpt lat="45.65439" lon="6.53861">
        <ele>1843</ele>
        <time>2022-07-27T14:51:58Z</time>
      </trkpt>
      <trkpt lat="45.6544" lon="6.53861">
        <ele>1843</ele>
        <time>2022-07-27T14:51:59Z</time>
      </trkpt>
      <trkpt lat="45.65441" lon="6.53861">
        <ele>1843</ele>
        <time>2022-07-27T14:52:00Z</time>
      </trkpt>
      <trkpt lat="45.65441" lon="6.53861">
        <ele>1843</ele>
        <time>2022-07-27T14:52:01Z</time>
      </trkpt>
      <trkpt lat="45.65442" lon="6.53861">
        <ele>1842</ele>
        <time>2022-07-27T14:52:02Z</time>
      </trkpt>
      <trkpt lat="45.65442" lon="6.53861">
        <ele>1842</ele>
        <time>2022-07-27T14:52:03Z</time>
      </trkpt>
      <trkpt lat="45.65443" lon="6.53861">
        <ele>1842</ele>
        <time>2022-07-27T14:52:04Z</time>
      </trkpt>
      <trkpt lat="45.65444" lon="6.53861">
        <ele>1842</ele>
        <time>2022-07-27T14:52:05Z</time>
      </trkpt>
      <trkpt lat="45.65444" lon="6.53861">
        <ele>1842</ele>
        <time>2022-07-27T14:52:06Z</time>
      </trkpt>
      <trkpt lat="45.65445" lon="6.53861">
        <ele>1842</ele>
        <time>2022-07-27T14:52:07Z</time>
      </trkpt>
      <trkpt lat="45.65446" lon="6.53861">
        <ele>1842</ele>
        <time>2022-07-27T14:52:08Z</time>
      </trkpt>
      <trkpt lat="45.65447" lon="6.53862">
        <ele>1841</ele>
        <time>2022-07-27T14:52:15Z</time>
      </trkpt>
      <trkpt lat="45.65448" lon="6.53862">
        <ele>1841</ele>
        <time>2022-07-27T14:52:16Z</time>
      </trkpt>
      <trkpt lat="45.65449" lon="6.53862">
        <ele>1841</ele>
        <time>2022-07-27T14:52:17Z</time>
      </trkpt>
      <trkpt lat="45.65449" lon="6.53863">
        <ele>1841</ele>
        <time>2022-07-27T14:52:18Z</time>
      </trkpt>
      <trkpt lat="45.6545" lon="6.53863">
        <ele>1841</ele>
        <time>2022-07-27T14:52:19Z</time>
      </trkpt>
      <trkpt lat="45.65451" lon="6.53864">
        <ele>1841</ele>
        <time>2022-07-27T14:52:20Z</time>
      </trkpt>
      <trkpt lat="45.65451" lon="6.53864">
        <ele>1841</ele>
        <time>2022-07-27T14:52:21Z</time>
      </trkpt>
      <trkpt lat="45.65452" lon="6.53864">
        <ele>1840</ele>
        <time>2022-07-27T14:52:22Z</time>
      </trkpt>
      <trkpt lat="45.65452" lon="6.53864">
        <ele>1840</ele>
        <time>2022-07-27T14:52:23Z</time>
      </trkpt>
      <trkpt lat="45.65453" lon="6.53865">
        <ele>1840</ele>
        <time>2022-07-27T14:52:24Z</time>
      </trkpt>
      <trkpt lat="45.65454" lon="6.53865">
        <ele>1840</ele>
        <time>2022-07-27T14:52:25Z</time>
      </trkpt>
      <trkpt lat="45.65455" lon="6.53865">
        <ele>1840</ele>
        <time>2022-07-27T14:52:26Z</time>
      </trkpt>
      <trkpt lat="45.65456" lon="6.53865">
        <ele>1840</ele>
        <time>2022-07-27T14:52:27Z</time>
      </trkpt>
      <trkpt lat="45.65456" lon="6.53865">
        <ele>1840</ele>
        <time>2022-07-27T14:52:28Z</time>
      </trkpt>
      <trkpt lat="45.65457" lon="6.53865">
        <ele>1840</ele>
        <time>2022-07-27T14:52:29Z</time>
      </trkpt>
      <trkpt lat="45.65458" lon="6.53865">
        <ele>1840</ele>
        <time>2022-07-27T14:52:30Z</time>
      </trkpt>
      <trkpt lat="45.65459" lon="6.53864">
        <ele>1839</ele>
        <time>2022-07-27T14:52:37Z</time>
      </trkpt>
      <trkpt lat="45.6546" lon="6.53864">
        <ele>1839</ele>
        <time>2022-07-27T14:52:38Z</time>
      </trkpt>
      <trkpt lat="45.6546" lon="6.53863">
        <ele>1839</ele>
        <time>2022-07-27T14:52:39Z</time>
      </trkpt>
      <trkpt lat="45.65461" lon="6.53863">
        <ele>1839</ele>
        <time>2022-07-27T14:52:40Z</time>
      </trkpt>
      <trkpt lat="45.65462" lon="6.53863">
        <ele>1839</ele>
        <time>2022-07-27T14:52:41Z</time>
      </trkpt>
      <trkpt lat="45.65462" lon="6.53863">
        <ele>1839</ele>
        <time>2022-07-27T14:52:42Z</time>
      </trkpt>
      <trkpt lat="45.65463" lon="6.53864">
        <ele>1839</ele>
        <time>2022-07-27T14:52:43Z</time>
      </trkpt>
      <trkpt lat="45.65464" lon="6.53864">
        <ele>1839</ele>
        <time>2022-07-27T14:52:44Z</time>
      </trkpt>
      <trkpt lat="45.65465" lon="6.53864">
        <ele>1839</ele>
        <time>2022-07-27T14:52:45Z</time>
      </trkpt>
      <trkpt lat="45.65466" lon="6.53864">
        <ele>1839</ele>
        <time>2022-07-27T14:52:46Z</time>
      </trkpt>
      <trkpt lat="45.65467" lon="6.53865">
        <ele>1839</ele>
        <time>2022-07-27T14:52:47Z</time>
      </trkpt>
      <trkpt lat="45.65467" lon="6.53865">
        <ele>1839</ele>
        <time>2022-07-27T14:52:48Z</time>
      </trkpt>
      <trkpt lat="45.65468" lon="6.53865">
        <ele>1839</ele>
        <time>2022-07-27T14:52:49Z</time>
      </trkpt>
      <trkpt lat="45.65469" lon="6.53864">
        <ele>1839</ele>
        <time>2022-07-27T14:52:50Z</time>
      </trkpt>
      <trkpt lat="45.65469" lon="6.53864">
        <ele>1839</ele>
        <time>2022-07-27T14:52:51Z</time>
      </trkpt>
      <trkpt lat="45.6547" lon="6.53864">
        <ele>1839</ele>
        <time>2022-07-27T14:52:52Z</time>
      </trkpt>
      <trkpt lat="45.65471" lon="6.53863">
        <ele>1839</ele>
        <time>2022-07-27T14:52:53Z</time>
      </trkpt>
      <trkpt lat="45.65471" lon="6.53863">
        <ele>1839</ele>
        <time>2022-07-27T14:52:54Z</time>
      </trkpt>
      <trkpt lat="45.65472" lon="6.53862">
        <ele>1839</ele>
        <time>2022-07-27T14:52:55Z</time>
      </trkpt>
      <trkpt lat="45.65473" lon="6.53862">
        <ele>1839</ele>
        <time>2022-07-27T14:52:56Z</time>
      </trkpt>
      <trkpt lat="45.65474" lon="6.53861">
        <ele>1839</ele>
        <time>2022-07-27T14:52:57Z</time>
      </trkpt>
      <trkpt lat="45.65474" lon="6.5386">
        <ele>1839</ele>
        <time>2022-07-27T14:52:58Z</time>
      </trkpt>
      <trkpt lat="45.65475" lon="6.53859">
        <ele>1839</ele>
        <time>2022-07-27T14:52:59Z</time>
      </trkpt>
      <trkpt lat="45.65476" lon="6.53858">
        <ele>1839</ele>
        <time>2022-07-27T14:53:00Z</time>
      </trkpt>
      <trkpt lat="45.65477" lon="6.53857">
        <ele>1839</ele>
        <time>2022-07-27T14:53:01Z</time>
      </trkpt>
      <trkpt lat="45.65477" lon="6.53857">
        <ele>1838</ele>
        <time>2022-07-27T14:53:02Z</time>
      </trkpt>
      <trkpt lat="45.65478" lon="6.53856">
        <ele>1838</ele>
        <time>2022-07-27T14:53:03Z</time>
      </trkpt>
      <trkpt lat="45.65478" lon="6.53856">
        <ele>1838</ele>
        <time>2022-07-27T14:53:04Z</time>
      </trkpt>
      <trkpt lat="45.65479" lon="6.53856">
        <ele>1838</ele>
        <time>2022-07-27T14:53:05Z</time>
      </trkpt>
      <trkpt lat="45.65479" lon="6.53856">
        <ele>1838</ele>
        <time>2022-07-27T14:53:06Z</time>
      </trkpt>
      <trkpt lat="45.6548" lon="6.53856">
        <ele>1837</ele>
        <time>2022-07-27T14:53:07Z</time>
      </trkpt>
      <trkpt lat="45.65481" lon="6.53856">
        <ele>1837</ele>
        <time>2022-07-27T14:53:08Z</time>
      </trkpt>
      <trkpt lat="45.65481" lon="6.53855">
        <ele>1837</ele>
        <time>2022-07-27T14:53:09Z</time>
      </trkpt>
      <trkpt lat="45.65482" lon="6.53855">
        <ele>1837</ele>
        <time>2022-07-27T14:53:10Z</time>
      </trkpt>
      <trkpt lat="45.65482" lon="6.53854">
        <ele>1837</ele>
        <time>2022-07-27T14:53:11Z</time>
      </trkpt>
      <trkpt lat="45.65483" lon="6.53853">
        <ele>1837</ele>
        <time>2022-07-27T14:53:12Z</time>
      </trkpt>
      <trkpt lat="45.65484" lon="6.53852">
        <ele>1837</ele>
        <time>2022-07-27T14:53:13Z</time>
      </trkpt>
      <trkpt lat="45.65485" lon="6.53851">
        <ele>1837</ele>
        <time>2022-07-27T14:53:14Z</time>
      </trkpt>
      <trkpt lat="45.65485" lon="6.53851">
        <ele>1837</ele>
        <time>2022-07-27T14:53:15Z</time>
      </trkpt>
      <trkpt lat="45.65486" lon="6.5385">
        <ele>1837</ele>
        <time>2022-07-27T14:53:16Z</time>
      </trkpt>
      <trkpt lat="45.65487" lon="6.53849">
        <ele>1836</ele>
        <time>2022-07-27T14:53:17Z</time>
      </trkpt>
      <trkpt lat="45.65487" lon="6.53849">
        <ele>1836</ele>
        <time>2022-07-27T14:53:18Z</time>
      </trkpt>
      <trkpt lat="45.65488" lon="6.53848">
        <ele>1836</ele>
        <time>2022-07-27T14:53:19Z</time>
      </trkpt>
      <trkpt lat="45.65489" lon="6.53848">
        <ele>1836</ele>
        <time>2022-07-27T14:53:20Z</time>
      </trkpt>
      <trkpt lat="45.6549" lon="6.53848">
        <ele>1836</ele>
        <time>2022-07-27T14:53:21Z</time>
      </trkpt>
      <trkpt lat="45.6549" lon="6.53847">
        <ele>1835</ele>
        <time>2022-07-27T14:53:22Z</time>
      </trkpt>
      <trkpt lat="45.65491" lon="6.53847">
        <ele>1835</ele>
        <time>2022-07-27T14:53:23Z</time>
      </trkpt>
      <trkpt lat="45.65492" lon="6.53847">
        <ele>1835</ele>
        <time>2022-07-27T14:53:24Z</time>
      </trkpt>
      <trkpt lat="45.65493" lon="6.53846">
        <ele>1835</ele>
        <time>2022-07-27T14:53:25Z</time>
      </trkpt>
      <trkpt lat="45.65494" lon="6.53846">
        <ele>1835</ele>
        <time>2022-07-27T14:53:26Z</time>
      </trkpt>
      <trkpt lat="45.65494" lon="6.53845">
        <ele>1835</ele>
        <time>2022-07-27T14:53:27Z</time>
      </trkpt>
      <trkpt lat="45.65495" lon="6.53844">
        <ele>1835</ele>
        <time>2022-07-27T14:53:28Z</time>
      </trkpt>
      <trkpt lat="45.65496" lon="6.53844">
        <ele>1835</ele>
        <time>2022-07-27T14:53:29Z</time>
      </trkpt>
      <trkpt lat="45.65496" lon="6.53843">
        <ele>1835</ele>
        <time>2022-07-27T14:53:30Z</time>
      </trkpt>
      <trkpt lat="45.65497" lon="6.53842">
        <ele>1835</ele>
        <time>2022-07-27T14:53:31Z</time>
      </trkpt>
      <trkpt lat="45.65497" lon="6.53842">
        <ele>1835</ele>
        <time>2022-07-27T14:53:32Z</time>
      </trkpt>
      <trkpt lat="45.65498" lon="6.53841">
        <ele>1835</ele>
        <time>2022-07-27T14:53:33Z</time>
      </trkpt>
      <trkpt lat="45.65499" lon="6.5384">
        <ele>1835</ele>
        <time>2022-07-27T14:53:34Z</time>
      </trkpt>
      <trkpt lat="45.655" lon="6.53839">
        <ele>1835</ele>
        <time>2022-07-27T14:53:35Z</time>
      </trkpt>
      <trkpt lat="45.65501" lon="6.53839">
        <ele>1836</ele>
        <time>2022-07-27T14:53:36Z</time>
      </trkpt>
      <trkpt lat="45.65502" lon="6.53838">
        <ele>1836</ele>
        <time>2022-07-27T14:53:37Z</time>
      </trkpt>
      <trkpt lat="45.65503" lon="6.53838">
        <ele>1836</ele>
        <time>2022-07-27T14:53:38Z</time>
      </trkpt>
      <trkpt lat="45.65504" lon="6.53837">
        <ele>1836</ele>
        <time>2022-07-27T14:53:39Z</time>
      </trkpt>
      <trkpt lat="45.65505" lon="6.53837">
        <ele>1836</ele>
        <time>2022-07-27T14:53:40Z</time>
      </trkpt>
      <trkpt lat="45.65506" lon="6.53837">
        <ele>1836</ele>
        <time>2022-07-27T14:53:41Z</time>
      </trkpt>
      <trkpt lat="45.65507" lon="6.53836">
        <ele>1836</ele>
        <time>2022-07-27T14:53:42Z</time>
      </trkpt>
      <trkpt lat="45.65507" lon="6.53836">
        <ele>1836</ele>
        <time>2022-07-27T14:53:43Z</time>
      </trkpt>
      <trkpt lat="45.65508" lon="6.53835">
        <ele>1836</ele>
        <time>2022-07-27T14:53:44Z</time>
      </trkpt>
      <trkpt lat="45.65508" lon="6.53835">
        <ele>1836</ele>
        <time>2022-07-27T14:53:45Z</time>
      </trkpt>
      <trkpt lat="45.65509" lon="6.53835">
        <ele>1836</ele>
        <time>2022-07-27T14:53:46Z</time>
      </trkpt>
      <trkpt lat="45.6551" lon="6.53834">
        <ele>1836</ele>
        <time>2022-07-27T14:53:47Z</time>
      </trkpt>
      <trkpt lat="45.6551" lon="6.53834">
        <ele>1836</ele>
        <time>2022-07-27T14:53:48Z</time>
      </trkpt>
      <trkpt lat="45.65511" lon="6.53834">
        <ele>1836</ele>
        <time>2022-07-27T14:53:49Z</time>
      </trkpt>
      <trkpt lat="45.65512" lon="6.53834">
        <ele>1836</ele>
        <time>2022-07-27T14:53:50Z</time>
      </trkpt>
      <trkpt lat="45.65513" lon="6.53833">
        <ele>1836</ele>
        <time>2022-07-27T14:53:51Z</time>
      </trkpt>
      <trkpt lat="45.65514" lon="6.53832">
        <ele>1836</ele>
        <time>2022-07-27T14:53:52Z</time>
      </trkpt>
      <trkpt lat="45.65515" lon="6.53832">
        <ele>1836</ele>
        <time>2022-07-27T14:53:53Z</time>
      </trkpt>
      <trkpt lat="45.65516" lon="6.53831">
        <ele>1836</ele>
        <time>2022-07-27T14:53:54Z</time>
      </trkpt>
      <trkpt lat="45.65517" lon="6.5383">
        <ele>1836</ele>
        <time>2022-07-27T14:53:55Z</time>
      </trkpt>
      <trkpt lat="45.65518" lon="6.53828">
        <ele>1836</ele>
        <time>2022-07-27T14:53:56Z</time>
      </trkpt>
      <trkpt lat="45.65518" lon="6.53827">
        <ele>1835</ele>
        <time>2022-07-27T14:53:57Z</time>
      </trkpt>
      <trkpt lat="45.65519" lon="6.53826">
        <ele>1835</ele>
        <time>2022-07-27T14:53:58Z</time>
      </trkpt>
      <trkpt lat="45.6552" lon="6.53825">
        <ele>1835</ele>
        <time>2022-07-27T14:53:59Z</time>
      </trkpt>
      <trkpt lat="45.65521" lon="6.53824">
        <ele>1835</ele>
        <time>2022-07-27T14:54:00Z</time>
      </trkpt>
      <trkpt lat="45.65521" lon="6.53823">
        <ele>1835</ele>
        <time>2022-07-27T14:54:01Z</time>
      </trkpt>
      <trkpt lat="45.65522" lon="6.53822">
        <ele>1835</ele>
        <time>2022-07-27T14:54:02Z</time>
      </trkpt>
      <trkpt lat="45.65523" lon="6.53821">
        <ele>1835</ele>
        <time>2022-07-27T14:54:03Z</time>
      </trkpt>
      <trkpt lat="45.65523" lon="6.5382">
        <ele>1835</ele>
        <time>2022-07-27T14:54:04Z</time>
      </trkpt>
      <trkpt lat="45.65524" lon="6.53818">
        <ele>1834</ele>
        <time>2022-07-27T14:54:12Z</time>
      </trkpt>
      <trkpt lat="45.65525" lon="6.53817">
        <ele>1834</ele>
        <time>2022-07-27T14:54:13Z</time>
      </trkpt>
      <trkpt lat="45.65525" lon="6.53816">
        <ele>1834</ele>
        <time>2022-07-27T14:54:14Z</time>
      </trkpt>
      <trkpt lat="45.65525" lon="6.53815">
        <ele>1834</ele>
        <time>2022-07-27T14:54:15Z</time>
      </trkpt>
      <trkpt lat="45.65526" lon="6.53814">
        <ele>1834</ele>
        <time>2022-07-27T14:54:16Z</time>
      </trkpt>
      <trkpt lat="45.65526" lon="6.53813">
        <ele>1834</ele>
        <time>2022-07-27T14:54:17Z</time>
      </trkpt>
      <trkpt lat="45.65527" lon="6.53812">
        <ele>1834</ele>
        <time>2022-07-27T14:54:18Z</time>
      </trkpt>
      <trkpt lat="45.65527" lon="6.5381">
        <ele>1834</ele>
        <time>2022-07-27T14:54:19Z</time>
      </trkpt>
      <trkpt lat="45.65528" lon="6.53809">
        <ele>1834</ele>
        <time>2022-07-27T14:54:20Z</time>
      </trkpt>
      <trkpt lat="45.65529" lon="6.53807">
        <ele>1833</ele>
        <time>2022-07-27T14:54:28Z</time>
      </trkpt>
      <trkpt lat="45.65529" lon="6.53805">
        <ele>1833</ele>
        <time>2022-07-27T14:54:29Z</time>
      </trkpt>
      <trkpt lat="45.6553" lon="6.53804">
        <ele>1833</ele>
        <time>2022-07-27T14:54:30Z</time>
      </trkpt>
      <trkpt lat="45.6553" lon="6.53802">
        <ele>1833</ele>
        <time>2022-07-27T14:54:31Z</time>
      </trkpt>
      <trkpt lat="45.6553" lon="6.53801">
        <ele>1833</ele>
        <time>2022-07-27T14:54:32Z</time>
      </trkpt>
      <trkpt lat="45.65531" lon="6.538">
        <ele>1833</ele>
        <time>2022-07-27T14:54:33Z</time>
      </trkpt>
      <trkpt lat="45.65531" lon="6.53799">
        <ele>1833</ele>
        <time>2022-07-27T14:54:34Z</time>
      </trkpt>
      <trkpt lat="45.65531" lon="6.53797">
        <ele>1833</ele>
        <time>2022-07-27T14:54:35Z</time>
      </trkpt>
      <trkpt lat="45.65531" lon="6.53796">
        <ele>1833</ele>
        <time>2022-07-27T14:54:36Z</time>
      </trkpt>
      <trkpt lat="45.65532" lon="6.53795">
        <ele>1833</ele>
        <time>2022-07-27T14:54:37Z</time>
      </trkpt>
      <trkpt lat="45.65532" lon="6.53794">
        <ele>1833</ele>
        <time>2022-07-27T14:54:38Z</time>
      </trkpt>
      <trkpt lat="45.65532" lon="6.53792">
        <ele>1833</ele>
        <time>2022-07-27T14:54:39Z</time>
      </trkpt>
      <trkpt lat="45.65532" lon="6.53791">
        <ele>1833</ele>
        <time>2022-07-27T14:54:40Z</time>
      </trkpt>
      <trkpt lat="45.65533" lon="6.5379">
        <ele>1834</ele>
        <time>2022-07-27T14:54:41Z</time>
      </trkpt>
      <trkpt lat="45.65533" lon="6.53789">
        <ele>1834</ele>
        <time>2022-07-27T14:54:42Z</time>
      </trkpt>
      <trkpt lat="45.65533" lon="6.53787">
        <ele>1834</ele>
        <time>2022-07-27T14:55:08Z</time>
      </trkpt>
      <trkpt lat="45.65533" lon="6.53786">
        <ele>1834</ele>
        <time>2022-07-27T14:55:09Z</time>
      </trkpt>
      <trkpt lat="45.65533" lon="6.53785">
        <ele>1834</ele>
        <time>2022-07-27T14:55:10Z</time>
      </trkpt>
      <trkpt lat="45.65533" lon="6.53784">
        <ele>1834</ele>
        <time>2022-07-27T14:55:11Z</time>
      </trkpt>
      <trkpt lat="45.65533" lon="6.53783">
        <ele>1834</ele>
        <time>2022-07-27T14:55:12Z</time>
      </trkpt>
      <trkpt lat="45.65533" lon="6.53782">
        <ele>1834</ele>
        <time>2022-07-27T14:55:13Z</time>
      </trkpt>
      <trkpt lat="45.65533" lon="6.5378">
        <ele>1834</ele>
        <time>2022-07-27T14:55:14Z</time>
      </trkpt>
      <trkpt lat="45.65533" lon="6.53778">
        <ele>1834</ele>
        <time>2022-07-27T14:55:15Z</time>
      </trkpt>
      <trkpt lat="45.65533" lon="6.53777">
        <ele>1834</ele>
        <time>2022-07-27T14:55:16Z</time>
      </trkpt>
      <trkpt lat="45.65532" lon="6.53775">
        <ele>1833</ele>
        <time>2022-07-27T14:55:17Z</time>
      </trkpt>
      <trkpt lat="45.65532" lon="6.53773">
        <ele>1833</ele>
        <time>2022-07-27T14:55:18Z</time>
      </trkpt>
      <trkpt lat="45.65532" lon="6.53771">
        <ele>1833</ele>
        <time>2022-07-27T14:55:19Z</time>
      </trkpt>
      <trkpt lat="45.65532" lon="6.5377">
        <ele>1833</ele>
        <time>2022-07-27T14:55:20Z</time>
      </trkpt>
      <trkpt lat="45.65532" lon="6.53768">
        <ele>1833</ele>
        <time>2022-07-27T14:55:21Z</time>
      </trkpt>
      <trkpt lat="45.65531" lon="6.53766">
        <ele>1833</ele>
        <time>2022-07-27T14:55:22Z</time>
      </trkpt>
      <trkpt lat="45.65531" lon="6.53764">
        <ele>1833</ele>
        <time>2022-07-27T14:55:23Z</time>
      </trkpt>
      <trkpt lat="45.65531" lon="6.53762">
        <ele>1833</ele>
        <time>2022-07-27T14:55:24Z</time>
      </trkpt>
      <trkpt lat="45.65531" lon="6.5376">
        <ele>1833</ele>
        <time>2022-07-27T14:55:25Z</time>
      </trkpt>
      <trkpt lat="45.65531" lon="6.53758">
        <ele>1833</ele>
        <time>2022-07-27T14:55:26Z</time>
      </trkpt>
      <trkpt lat="45.6553" lon="6.53757">
        <ele>1833</ele>
        <time>2022-07-27T14:55:27Z</time>
      </trkpt>
      <trkpt lat="45.6553" lon="6.53755">
        <ele>1833</ele>
        <time>2022-07-27T14:55:28Z</time>
      </trkpt>
      <trkpt lat="45.65529" lon="6.53753">
        <ele>1833</ele>
        <time>2022-07-27T14:55:29Z</time>
      </trkpt>
      <trkpt lat="45.65529" lon="6.53752">
        <ele>1833</ele>
        <time>2022-07-27T14:55:30Z</time>
      </trkpt>
      <trkpt lat="45.65528" lon="6.5375">
        <ele>1833</ele>
        <time>2022-07-27T14:55:31Z</time>
      </trkpt>
      <trkpt lat="45.65528" lon="6.53749">
        <ele>1832</ele>
        <time>2022-07-27T14:55:32Z</time>
      </trkpt>
      <trkpt lat="45.65527" lon="6.53748">
        <ele>1832</ele>
        <time>2022-07-27T14:55:33Z</time>
      </trkpt>
      <trkpt lat="45.65526" lon="6.53747">
        <ele>1832</ele>
        <time>2022-07-27T14:55:34Z</time>
      </trkpt>
      <trkpt lat="45.65525" lon="6.53745">
        <ele>1832</ele>
        <time>2022-07-27T14:55:35Z</time>
      </trkpt>
      <trkpt lat="45.65525" lon="6.53744">
        <ele>1832</ele>
        <time>2022-07-27T14:55:36Z</time>
      </trkpt>
      <trkpt lat="45.65524" lon="6.53742">
        <ele>1832</ele>
        <time>2022-07-27T14:55:37Z</time>
      </trkpt>
      <trkpt lat="45.65524" lon="6.53741">
        <ele>1832</ele>
        <time>2022-07-27T14:55:38Z</time>
      </trkpt>
      <trkpt lat="45.65524" lon="6.53739">
        <ele>1832</ele>
        <time>2022-07-27T14:55:39Z</time>
      </trkpt>
      <trkpt lat="45.65524" lon="6.53737">
        <ele>1832</ele>
        <time>2022-07-27T14:55:40Z</time>
      </trkpt>
      <trkpt lat="45.65524" lon="6.53735">
        <ele>1832</ele>
        <time>2022-07-27T14:55:41Z</time>
      </trkpt>
      <trkpt lat="45.65524" lon="6.53734">
        <ele>1832</ele>
        <time>2022-07-27T14:55:42Z</time>
      </trkpt>
      <trkpt lat="45.65523" lon="6.53732">
        <ele>1832</ele>
        <time>2022-07-27T14:55:43Z</time>
      </trkpt>
      <trkpt lat="45.65523" lon="6.53731">
        <ele>1832</ele>
        <time>2022-07-27T14:55:44Z</time>
      </trkpt>
      <trkpt lat="45.65523" lon="6.53729">
        <ele>1832</ele>
        <time>2022-07-27T14:55:45Z</time>
      </trkpt>
      <trkpt lat="45.65522" lon="6.53728">
        <ele>1833</ele>
        <time>2022-07-27T14:55:46Z</time>
      </trkpt>
      <trkpt lat="45.65522" lon="6.53726">
        <ele>1833</ele>
        <time>2022-07-27T14:55:47Z</time>
      </trkpt>
      <trkpt lat="45.65522" lon="6.53724">
        <ele>1833</ele>
        <time>2022-07-27T14:55:48Z</time>
      </trkpt>
      <trkpt lat="45.65521" lon="6.53723">
        <ele>1833</ele>
        <time>2022-07-27T14:55:49Z</time>
      </trkpt>
      <trkpt lat="45.65521" lon="6.53721">
        <ele>1833</ele>
        <time>2022-07-27T14:55:50Z</time>
      </trkpt>
      <trkpt lat="45.6552" lon="6.53719">
        <ele>1833</ele>
        <time>2022-07-27T14:55:51Z</time>
      </trkpt>
      <trkpt lat="45.6552" lon="6.53718">
        <ele>1833</ele>
        <time>2022-07-27T14:55:52Z</time>
      </trkpt>
      <trkpt lat="45.65519" lon="6.53716">
        <ele>1833</ele>
        <time>2022-07-27T14:55:53Z</time>
      </trkpt>
      <trkpt lat="45.65519" lon="6.53715">
        <ele>1833</ele>
        <time>2022-07-27T14:55:54Z</time>
      </trkpt>
      <trkpt lat="45.65518" lon="6.53713">
        <ele>1833</ele>
        <time>2022-07-27T14:55:55Z</time>
      </trkpt>
      <trkpt lat="45.65518" lon="6.53712">
        <ele>1834</ele>
        <time>2022-07-27T14:55:56Z</time>
      </trkpt>
      <trkpt lat="45.65517" lon="6.53711">
        <ele>1834</ele>
        <time>2022-07-27T14:55:57Z</time>
      </trkpt>
      <trkpt lat="45.65517" lon="6.53709">
        <ele>1834</ele>
        <time>2022-07-27T14:55:58Z</time>
      </trkpt>
      <trkpt lat="45.65516" lon="6.53708">
        <ele>1834</ele>
        <time>2022-07-27T14:55:59Z</time>
      </trkpt>
      <trkpt lat="45.65516" lon="6.53707">
        <ele>1834</ele>
        <time>2022-07-27T14:56:00Z</time>
      </trkpt>
      <trkpt lat="45.65516" lon="6.53706">
        <ele>1835</ele>
        <time>2022-07-27T14:56:01Z</time>
      </trkpt>
      <trkpt lat="45.65515" lon="6.53705">
        <ele>1835</ele>
        <time>2022-07-27T14:56:02Z</time>
      </trkpt>
      <trkpt lat="45.65515" lon="6.53704">
        <ele>1835</ele>
        <time>2022-07-27T14:56:03Z</time>
      </trkpt>
      <trkpt lat="45.65515" lon="6.53703">
        <ele>1835</ele>
        <time>2022-07-27T14:56:04Z</time>
      </trkpt>
      <trkpt lat="45.65514" lon="6.53702">
        <ele>1835</ele>
        <time>2022-07-27T14:56:05Z</time>
      </trkpt>
      <trkpt lat="45.65514" lon="6.53701">
        <ele>1835</ele>
        <time>2022-07-27T14:56:06Z</time>
      </trkpt>
      <trkpt lat="45.65513" lon="6.53699">
        <ele>1835</ele>
        <time>2022-07-27T14:56:07Z</time>
      </trkpt>
      <trkpt lat="45.65513" lon="6.53698">
        <ele>1835</ele>
        <time>2022-07-27T14:56:08Z</time>
      </trkpt>
      <trkpt lat="45.65512" lon="6.53696">
        <ele>1835</ele>
        <time>2022-07-27T14:56:09Z</time>
      </trkpt>
      <trkpt lat="45.65512" lon="6.53695">
        <ele>1835</ele>
        <time>2022-07-27T14:56:10Z</time>
      </trkpt>
      <trkpt lat="45.65511" lon="6.53693">
        <ele>1836</ele>
        <time>2022-07-27T14:56:11Z</time>
      </trkpt>
      <trkpt lat="45.6551" lon="6.53691">
        <ele>1836</ele>
        <time>2022-07-27T14:56:12Z</time>
      </trkpt>
      <trkpt lat="45.6551" lon="6.5369">
        <ele>1836</ele>
        <time>2022-07-27T14:56:13Z</time>
      </trkpt>
      <trkpt lat="45.65509" lon="6.53689">
        <ele>1836</ele>
        <time>2022-07-27T14:56:14Z</time>
      </trkpt>
      <trkpt lat="45.65508" lon="6.53687">
        <ele>1836</ele>
        <time>2022-07-27T14:56:15Z</time>
      </trkpt>
      <trkpt lat="45.65508" lon="6.53686">
        <ele>1837</ele>
        <time>2022-07-27T14:56:16Z</time>
      </trkpt>
      <trkpt lat="45.65507" lon="6.53685">
        <ele>1837</ele>
        <time>2022-07-27T14:56:17Z</time>
      </trkpt>
      <trkpt lat="45.65506" lon="6.53684">
        <ele>1837</ele>
        <time>2022-07-27T14:56:18Z</time>
      </trkpt>
      <trkpt lat="45.65506" lon="6.53682">
        <ele>1837</ele>
        <time>2022-07-27T14:56:19Z</time>
      </trkpt>
      <trkpt lat="45.65506" lon="6.53681">
        <ele>1837</ele>
        <time>2022-07-27T14:56:20Z</time>
      </trkpt>
      <trkpt lat="45.65506" lon="6.53679">
        <ele>1838</ele>
        <time>2022-07-27T14:56:21Z</time>
      </trkpt>
      <trkpt lat="45.65505" lon="6.53677">
        <ele>1838</ele>
        <time>2022-07-27T14:56:22Z</time>
      </trkpt>
      <trkpt lat="45.65505" lon="6.53676">
        <ele>1838</ele>
        <time>2022-07-27T14:56:23Z</time>
      </trkpt>
      <trkpt lat="45.65505" lon="6.53674">
        <ele>1838</ele>
        <time>2022-07-27T14:56:24Z</time>
      </trkpt>
      <trkpt lat="45.65505" lon="6.53672">
        <ele>1838</ele>
        <time>2022-07-27T14:56:25Z</time>
      </trkpt>
      <trkpt lat="45.65505" lon="6.53671">
        <ele>1838</ele>
        <time>2022-07-27T14:56:26Z</time>
      </trkpt>
      <trkpt lat="45.65505" lon="6.5367">
        <ele>1838</ele>
        <time>2022-07-27T14:56:27Z</time>
      </trkpt>
      <trkpt lat="45.65505" lon="6.53668">
        <ele>1838</ele>
        <time>2022-07-27T14:56:28Z</time>
      </trkpt>
      <trkpt lat="45.65505" lon="6.53667">
        <ele>1838</ele>
        <time>2022-07-27T14:56:29Z</time>
      </trkpt>
      <trkpt lat="45.65505" lon="6.53666">
        <ele>1838</ele>
        <time>2022-07-27T14:56:30Z</time>
      </trkpt>
      <trkpt lat="45.65504" lon="6.53665">
        <ele>1839</ele>
        <time>2022-07-27T14:56:31Z</time>
      </trkpt>
      <trkpt lat="45.65504" lon="6.53664">
        <ele>1839</ele>
        <time>2022-07-27T14:56:32Z</time>
      </trkpt>
      <trkpt lat="45.65504" lon="6.53662">
        <ele>1839</ele>
        <time>2022-07-27T14:56:33Z</time>
      </trkpt>
      <trkpt lat="45.65504" lon="6.53661">
        <ele>1839</ele>
        <time>2022-07-27T14:56:34Z</time>
      </trkpt>
      <trkpt lat="45.65504" lon="6.5366">
        <ele>1839</ele>
        <time>2022-07-27T14:56:35Z</time>
      </trkpt>
      <trkpt lat="45.65503" lon="6.53659">
        <ele>1840</ele>
        <time>2022-07-27T14:56:36Z</time>
      </trkpt>
      <trkpt lat="45.65503" lon="6.53658">
        <ele>1840</ele>
        <time>2022-07-27T14:56:37Z</time>
      </trkpt>
      <trkpt lat="45.65503" lon="6.53657">
        <ele>1840</ele>
        <time>2022-07-27T14:56:38Z</time>
      </trkpt>
      <trkpt lat="45.65502" lon="6.53656">
        <ele>1840</ele>
        <time>2022-07-27T14:56:39Z</time>
      </trkpt>
      <trkpt lat="45.65502" lon="6.53655">
        <ele>1840</ele>
        <time>2022-07-27T14:56:40Z</time>
      </trkpt>
      <trkpt lat="45.65501" lon="6.53653">
        <ele>1841</ele>
        <time>2022-07-27T14:56:41Z</time>
      </trkpt>
      <trkpt lat="45.65501" lon="6.53652">
        <ele>1841</ele>
        <time>2022-07-27T14:56:42Z</time>
      </trkpt>
      <trkpt lat="45.65501" lon="6.53651">
        <ele>1841</ele>
        <time>2022-07-27T14:56:43Z</time>
      </trkpt>
      <trkpt lat="45.655" lon="6.53649">
        <ele>1841</ele>
        <time>2022-07-27T14:56:44Z</time>
      </trkpt>
      <trkpt lat="45.655" lon="6.53648">
        <ele>1841</ele>
        <time>2022-07-27T14:56:45Z</time>
      </trkpt>
      <trkpt lat="45.655" lon="6.53647">
        <ele>1841</ele>
        <time>2022-07-27T14:56:46Z</time>
      </trkpt>
      <trkpt lat="45.655" lon="6.53645">
        <ele>1841</ele>
        <time>2022-07-27T14:56:47Z</time>
      </trkpt>
      <trkpt lat="45.65499" lon="6.53644">
        <ele>1841</ele>
        <time>2022-07-27T14:56:48Z</time>
      </trkpt>
      <trkpt lat="45.65499" lon="6.53643">
        <ele>1841</ele>
        <time>2022-07-27T14:56:49Z</time>
      </trkpt>
      <trkpt lat="45.65499" lon="6.53642">
        <ele>1841</ele>
        <time>2022-07-27T14:56:50Z</time>
      </trkpt>
      <trkpt lat="45.65498" lon="6.53641">
        <ele>1842</ele>
        <time>2022-07-27T14:56:51Z</time>
      </trkpt>
      <trkpt lat="45.65498" lon="6.5364">
        <ele>1842</ele>
        <time>2022-07-27T14:56:52Z</time>
      </trkpt>
      <trkpt lat="45.65498" lon="6.53639">
        <ele>1842</ele>
        <time>2022-07-27T14:56:53Z</time>
      </trkpt>
      <trkpt lat="45.65497" lon="6.53638">
        <ele>1842</ele>
        <time>2022-07-27T14:56:54Z</time>
      </trkpt>
      <trkpt lat="45.65497" lon="6.53637">
        <ele>1842</ele>
        <time>2022-07-27T14:56:55Z</time>
      </trkpt>
      <trkpt lat="45.65496" lon="6.53636">
        <ele>1843</ele>
        <time>2022-07-27T14:56:56Z</time>
      </trkpt>
      <trkpt lat="45.65496" lon="6.53635">
        <ele>1843</ele>
        <time>2022-07-27T14:56:57Z</time>
      </trkpt>
      <trkpt lat="45.65496" lon="6.53635">
        <ele>1843</ele>
        <time>2022-07-27T14:56:58Z</time>
      </trkpt>
      <trkpt lat="45.65496" lon="6.53633">
        <ele>1843</ele>
        <time>2022-07-27T14:56:59Z</time>
      </trkpt>
      <trkpt lat="45.65496" lon="6.53632">
        <ele>1843</ele>
        <time>2022-07-27T14:57:00Z</time>
      </trkpt>
      <trkpt lat="45.65496" lon="6.53631">
        <ele>1843</ele>
        <time>2022-07-27T14:57:01Z</time>
      </trkpt>
      <trkpt lat="45.65496" lon="6.5363">
        <ele>1843</ele>
        <time>2022-07-27T14:57:02Z</time>
      </trkpt>
      <trkpt lat="45.65496" lon="6.53629">
        <ele>1843</ele>
        <time>2022-07-27T14:57:03Z</time>
      </trkpt>
      <trkpt lat="45.65495" lon="6.53628">
        <ele>1843</ele>
        <time>2022-07-27T14:57:04Z</time>
      </trkpt>
      <trkpt lat="45.65495" lon="6.53628">
        <ele>1843</ele>
        <time>2022-07-27T14:57:05Z</time>
      </trkpt>
      <trkpt lat="45.65495" lon="6.53627">
        <ele>1844</ele>
        <time>2022-07-27T14:57:06Z</time>
      </trkpt>
      <trkpt lat="45.65495" lon="6.53626">
        <ele>1844</ele>
        <time>2022-07-27T14:57:07Z</time>
      </trkpt>
      <trkpt lat="45.65494" lon="6.53626">
        <ele>1844</ele>
        <time>2022-07-27T14:57:08Z</time>
      </trkpt>
      <trkpt lat="45.65494" lon="6.53625">
        <ele>1844</ele>
        <time>2022-07-27T14:57:09Z</time>
      </trkpt>
      <trkpt lat="45.65493" lon="6.53624">
        <ele>1844</ele>
        <time>2022-07-27T14:57:10Z</time>
      </trkpt>
      <trkpt lat="45.65493" lon="6.53623">
        <ele>1844</ele>
        <time>2022-07-27T14:57:11Z</time>
      </trkpt>
      <trkpt lat="45.65492" lon="6.53622">
        <ele>1844</ele>
        <time>2022-07-27T14:57:12Z</time>
      </trkpt>
      <trkpt lat="45.65492" lon="6.53621">
        <ele>1844</ele>
        <time>2022-07-27T14:57:13Z</time>
      </trkpt>
      <trkpt lat="45.65492" lon="6.53619">
        <ele>1844</ele>
        <time>2022-07-27T14:57:14Z</time>
      </trkpt>
      <trkpt lat="45.65492" lon="6.53618">
        <ele>1844</ele>
        <time>2022-07-27T14:57:15Z</time>
      </trkpt>
      <trkpt lat="45.65492" lon="6.53616">
        <ele>1844</ele>
        <time>2022-07-27T14:57:16Z</time>
      </trkpt>
      <trkpt lat="45.65491" lon="6.53615">
        <ele>1844</ele>
        <time>2022-07-27T14:57:17Z</time>
      </trkpt>
      <trkpt lat="45.65491" lon="6.53613">
        <ele>1844</ele>
        <time>2022-07-27T14:57:18Z</time>
      </trkpt>
      <trkpt lat="45.6549" lon="6.53612">
        <ele>1844</ele>
        <time>2022-07-27T14:57:19Z</time>
      </trkpt>
      <trkpt lat="45.6549" lon="6.53611">
        <ele>1844</ele>
        <time>2022-07-27T14:57:20Z</time>
      </trkpt>
      <trkpt lat="45.65489" lon="6.53609">
        <ele>1845</ele>
        <time>2022-07-27T14:57:21Z</time>
      </trkpt>
      <trkpt lat="45.65489" lon="6.53608">
        <ele>1845</ele>
        <time>2022-07-27T14:57:22Z</time>
      </trkpt>
      <trkpt lat="45.65488" lon="6.53606">
        <ele>1845</ele>
        <time>2022-07-27T14:57:23Z</time>
      </trkpt>
      <trkpt lat="45.65488" lon="6.53605">
        <ele>1845</ele>
        <time>2022-07-27T14:57:24Z</time>
      </trkpt>
      <trkpt lat="45.65487" lon="6.53603">
        <ele>1845</ele>
        <time>2022-07-27T14:57:25Z</time>
      </trkpt>
      <trkpt lat="45.65487" lon="6.53602">
        <ele>1845</ele>
        <time>2022-07-27T14:57:26Z</time>
      </trkpt>
      <trkpt lat="45.65487" lon="6.53601">
        <ele>1845</ele>
        <time>2022-07-27T14:57:27Z</time>
      </trkpt>
      <trkpt lat="45.65487" lon="6.53599">
        <ele>1845</ele>
        <time>2022-07-27T14:57:28Z</time>
      </trkpt>
      <trkpt lat="45.65486" lon="6.53598">
        <ele>1845</ele>
        <time>2022-07-27T14:57:29Z</time>
      </trkpt>
      <trkpt lat="45.65486" lon="6.53597">
        <ele>1845</ele>
        <time>2022-07-27T14:57:30Z</time>
      </trkpt>
      <trkpt lat="45.65486" lon="6.53596">
        <ele>1845</ele>
        <time>2022-07-27T14:57:31Z</time>
      </trkpt>
      <trkpt lat="45.65487" lon="6.53595">
        <ele>1845</ele>
        <time>2022-07-27T14:57:32Z</time>
      </trkpt>
      <trkpt lat="45.65487" lon="6.53594">
        <ele>1845</ele>
        <time>2022-07-27T14:57:33Z</time>
      </trkpt>
      <trkpt lat="45.65488" lon="6.53593">
        <ele>1845</ele>
        <time>2022-07-27T14:57:34Z</time>
      </trkpt>
      <trkpt lat="45.65488" lon="6.53592">
        <ele>1845</ele>
        <time>2022-07-27T14:57:35Z</time>
      </trkpt>
      <trkpt lat="45.65489" lon="6.53591">
        <ele>1845</ele>
        <time>2022-07-27T14:57:36Z</time>
      </trkpt>
      <trkpt lat="45.6549" lon="6.53589">
        <ele>1845</ele>
        <time>2022-07-27T14:57:37Z</time>
      </trkpt>
      <trkpt lat="45.6549" lon="6.53588">
        <ele>1845</ele>
        <time>2022-07-27T14:57:38Z</time>
      </trkpt>
      <trkpt lat="45.65491" lon="6.53586">
        <ele>1845</ele>
        <time>2022-07-27T14:57:39Z</time>
      </trkpt>
      <trkpt lat="45.65491" lon="6.53585">
        <ele>1845</ele>
        <time>2022-07-27T14:57:40Z</time>
      </trkpt>
      <trkpt lat="45.65491" lon="6.53583">
        <ele>1845</ele>
        <time>2022-07-27T14:57:41Z</time>
      </trkpt>
      <trkpt lat="45.65491" lon="6.53582">
        <ele>1845</ele>
        <time>2022-07-27T14:57:42Z</time>
      </trkpt>
      <trkpt lat="45.65492" lon="6.5358">
        <ele>1845</ele>
        <time>2022-07-27T14:57:43Z</time>
      </trkpt>
      <trkpt lat="45.65492" lon="6.53579">
        <ele>1845</ele>
        <time>2022-07-27T14:57:44Z</time>
      </trkpt>
      <trkpt lat="45.65492" lon="6.53577">
        <ele>1845</ele>
        <time>2022-07-27T14:57:45Z</time>
      </trkpt>
      <trkpt lat="45.65493" lon="6.53576">
        <ele>1846</ele>
        <time>2022-07-27T14:57:46Z</time>
      </trkpt>
      <trkpt lat="45.65493" lon="6.53575">
        <ele>1846</ele>
        <time>2022-07-27T14:57:47Z</time>
      </trkpt>
      <trkpt lat="45.65493" lon="6.53573">
        <ele>1846</ele>
        <time>2022-07-27T14:57:48Z</time>
      </trkpt>
      <trkpt lat="45.65494" lon="6.53572">
        <ele>1846</ele>
        <time>2022-07-27T14:57:49Z</time>
      </trkpt>
      <trkpt lat="45.65495" lon="6.5357">
        <ele>1846</ele>
        <time>2022-07-27T14:57:50Z</time>
      </trkpt>
      <trkpt lat="45.65495" lon="6.53568">
        <ele>1846</ele>
        <time>2022-07-27T14:57:51Z</time>
      </trkpt>
      <trkpt lat="45.65496" lon="6.53566">
        <ele>1846</ele>
        <time>2022-07-27T14:57:52Z</time>
      </trkpt>
      <trkpt lat="45.65496" lon="6.53564">
        <ele>1846</ele>
        <time>2022-07-27T14:57:53Z</time>
      </trkpt>
      <trkpt lat="45.65497" lon="6.53562">
        <ele>1846</ele>
        <time>2022-07-27T14:57:54Z</time>
      </trkpt>
      <trkpt lat="45.65497" lon="6.5356">
        <ele>1846</ele>
        <time>2022-07-27T14:57:55Z</time>
      </trkpt>
      <trkpt lat="45.65498" lon="6.53558">
        <ele>1846</ele>
        <time>2022-07-27T14:57:56Z</time>
      </trkpt>
      <trkpt lat="45.65499" lon="6.53557">
        <ele>1845</ele>
        <time>2022-07-27T14:57:57Z</time>
      </trkpt>
      <trkpt lat="45.65499" lon="6.53554">
        <ele>1845</ele>
        <time>2022-07-27T14:57:58Z</time>
      </trkpt>
      <trkpt lat="45.65499" lon="6.53552">
        <ele>1845</ele>
        <time>2022-07-27T14:57:59Z</time>
      </trkpt>
      <trkpt lat="45.65499" lon="6.53551">
        <ele>1845</ele>
        <time>2022-07-27T14:58:00Z</time>
      </trkpt>
      <trkpt lat="45.65499" lon="6.53551">
        <ele>1845</ele>
        <time>2022-07-27T14:58:01Z</time>
      </trkpt>
      <trkpt lat="45.65499" lon="6.5355">
        <ele>1845</ele>
        <time>2022-07-27T14:58:02Z</time>
      </trkpt>
      <trkpt lat="45.65499" lon="6.53549">
        <ele>1845</ele>
        <time>2022-07-27T14:58:03Z</time>
      </trkpt>
      <trkpt lat="45.655" lon="6.53548">
        <ele>1845</ele>
        <time>2022-07-27T14:58:04Z</time>
      </trkpt>
      <trkpt lat="45.65499" lon="6.53546">
        <ele>1845</ele>
        <time>2022-07-27T14:58:05Z</time>
      </trkpt>
      <trkpt lat="45.65499" lon="6.53545">
        <ele>1845</ele>
        <time>2022-07-27T14:58:06Z</time>
      </trkpt>
      <trkpt lat="45.65499" lon="6.53543">
        <ele>1845</ele>
        <time>2022-07-27T14:58:07Z</time>
      </trkpt>
      <trkpt lat="45.65499" lon="6.53542">
        <ele>1845</ele>
        <time>2022-07-27T14:58:08Z</time>
      </trkpt>
      <trkpt lat="45.65499" lon="6.5354">
        <ele>1845</ele>
        <time>2022-07-27T14:58:09Z</time>
      </trkpt>
      <trkpt lat="45.65499" lon="6.53539">
        <ele>1845</ele>
        <time>2022-07-27T14:58:10Z</time>
      </trkpt>
      <trkpt lat="45.65499" lon="6.53537">
        <ele>1845</ele>
        <time>2022-07-27T14:58:11Z</time>
      </trkpt>
      <trkpt lat="45.65499" lon="6.53535">
        <ele>1845</ele>
        <time>2022-07-27T14:58:12Z</time>
      </trkpt>
      <trkpt lat="45.65499" lon="6.53533">
        <ele>1845</ele>
        <time>2022-07-27T14:58:13Z</time>
      </trkpt>
      <trkpt lat="45.65499" lon="6.53531">
        <ele>1845</ele>
        <time>2022-07-27T14:58:14Z</time>
      </trkpt>
      <trkpt lat="45.65499" lon="6.53529">
        <ele>1845</ele>
        <time>2022-07-27T14:58:15Z</time>
      </trkpt>
      <trkpt lat="45.65499" lon="6.53527">
        <ele>1845</ele>
        <time>2022-07-27T14:58:16Z</time>
      </trkpt>
      <trkpt lat="45.65499" lon="6.53526">
        <ele>1845</ele>
        <time>2022-07-27T14:58:17Z</time>
      </trkpt>
      <trkpt lat="45.65499" lon="6.53524">
        <ele>1845</ele>
        <time>2022-07-27T14:58:18Z</time>
      </trkpt>
      <trkpt lat="45.65499" lon="6.53522">
        <ele>1845</ele>
        <time>2022-07-27T14:58:19Z</time>
      </trkpt>
      <trkpt lat="45.65499" lon="6.53521">
        <ele>1845</ele>
        <time>2022-07-27T14:58:20Z</time>
      </trkpt>
      <trkpt lat="45.65499" lon="6.53519">
        <ele>1846</ele>
        <time>2022-07-27T14:58:21Z</time>
      </trkpt>
      <trkpt lat="45.655" lon="6.53518">
        <ele>1846</ele>
        <time>2022-07-27T14:58:22Z</time>
      </trkpt>
      <trkpt lat="45.655" lon="6.53517">
        <ele>1846</ele>
        <time>2022-07-27T14:58:23Z</time>
      </trkpt>
      <trkpt lat="45.65501" lon="6.53515">
        <ele>1846</ele>
        <time>2022-07-27T14:58:24Z</time>
      </trkpt>
      <trkpt lat="45.65501" lon="6.53514">
        <ele>1846</ele>
        <time>2022-07-27T14:58:25Z</time>
      </trkpt>
      <trkpt lat="45.65501" lon="6.53512">
        <ele>1847</ele>
        <time>2022-07-27T14:58:26Z</time>
      </trkpt>
      <trkpt lat="45.65502" lon="6.53511">
        <ele>1847</ele>
        <time>2022-07-27T14:58:27Z</time>
      </trkpt>
      <trkpt lat="45.65502" lon="6.5351">
        <ele>1847</ele>
        <time>2022-07-27T14:58:28Z</time>
      </trkpt>
      <trkpt lat="45.65502" lon="6.53508">
        <ele>1847</ele>
        <time>2022-07-27T14:58:29Z</time>
      </trkpt>
      <trkpt lat="45.65502" lon="6.53507">
        <ele>1847</ele>
        <time>2022-07-27T14:58:30Z</time>
      </trkpt>
      <trkpt lat="45.65502" lon="6.53506">
        <ele>1848</ele>
        <time>2022-07-27T14:58:31Z</time>
      </trkpt>
      <trkpt lat="45.65503" lon="6.53504">
        <ele>1848</ele>
        <time>2022-07-27T14:58:32Z</time>
      </trkpt>
      <trkpt lat="45.65503" lon="6.53503">
        <ele>1848</ele>
        <time>2022-07-27T14:58:33Z</time>
      </trkpt>
      <trkpt lat="45.65503" lon="6.53502">
        <ele>1848</ele>
        <time>2022-07-27T14:58:34Z</time>
      </trkpt>
      <trkpt lat="45.65503" lon="6.535">
        <ele>1848</ele>
        <time>2022-07-27T14:58:35Z</time>
      </trkpt>
      <trkpt lat="45.65504" lon="6.53499">
        <ele>1849</ele>
        <time>2022-07-27T14:58:36Z</time>
      </trkpt>
      <trkpt lat="45.65503" lon="6.53498">
        <ele>1849</ele>
        <time>2022-07-27T14:58:37Z</time>
      </trkpt>
      <trkpt lat="45.65503" lon="6.53497">
        <ele>1849</ele>
        <time>2022-07-27T14:58:38Z</time>
      </trkpt>
      <trkpt lat="45.65503" lon="6.53496">
        <ele>1849</ele>
        <time>2022-07-27T14:58:39Z</time>
      </trkpt>
      <trkpt lat="45.65503" lon="6.53495">
        <ele>1849</ele>
        <time>2022-07-27T14:58:40Z</time>
      </trkpt>
      <trkpt lat="45.65502" lon="6.53493">
        <ele>1849</ele>
        <time>2022-07-27T14:58:41Z</time>
      </trkpt>
      <trkpt lat="45.65502" lon="6.53492">
        <ele>1849</ele>
        <time>2022-07-27T14:58:42Z</time>
      </trkpt>
      <trkpt lat="45.65502" lon="6.5349">
        <ele>1849</ele>
        <time>2022-07-27T14:58:43Z</time>
      </trkpt>
      <trkpt lat="45.65502" lon="6.53489">
        <ele>1849</ele>
        <time>2022-07-27T14:58:44Z</time>
      </trkpt>
      <trkpt lat="45.65502" lon="6.53487">
        <ele>1849</ele>
        <time>2022-07-27T14:58:45Z</time>
      </trkpt>
      <trkpt lat="45.65502" lon="6.53485">
        <ele>1850</ele>
        <time>2022-07-27T14:58:46Z</time>
      </trkpt>
      <trkpt lat="45.65503" lon="6.53483">
        <ele>1850</ele>
        <time>2022-07-27T14:58:47Z</time>
      </trkpt>
      <trkpt lat="45.65503" lon="6.53481">
        <ele>1850</ele>
        <time>2022-07-27T14:58:48Z</time>
      </trkpt>
      <trkpt lat="45.65504" lon="6.53479">
        <ele>1850</ele>
        <time>2022-07-27T14:58:49Z</time>
      </trkpt>
      <trkpt lat="45.65504" lon="6.53477">
        <ele>1850</ele>
        <time>2022-07-27T14:58:50Z</time>
      </trkpt>
      <trkpt lat="45.65505" lon="6.53475">
        <ele>1850</ele>
        <time>2022-07-27T14:58:51Z</time>
      </trkpt>
      <trkpt lat="45.65505" lon="6.53474">
        <ele>1850</ele>
        <time>2022-07-27T14:58:52Z</time>
      </trkpt>
      <trkpt lat="45.65506" lon="6.53472">
        <ele>1850</ele>
        <time>2022-07-27T14:58:53Z</time>
      </trkpt>
      <trkpt lat="45.65506" lon="6.5347">
        <ele>1850</ele>
        <time>2022-07-27T14:58:54Z</time>
      </trkpt>
      <trkpt lat="45.65507" lon="6.53468">
        <ele>1850</ele>
        <time>2022-07-27T14:58:55Z</time>
      </trkpt>
      <trkpt lat="45.65507" lon="6.53467">
        <ele>1850</ele>
        <time>2022-07-27T14:58:56Z</time>
      </trkpt>
      <trkpt lat="45.65508" lon="6.53465">
        <ele>1850</ele>
        <time>2022-07-27T14:58:57Z</time>
      </trkpt>
      <trkpt lat="45.65508" lon="6.53463">
        <ele>1850</ele>
        <time>2022-07-27T14:58:58Z</time>
      </trkpt>
      <trkpt lat="45.65509" lon="6.53462">
        <ele>1850</ele>
        <time>2022-07-27T14:58:59Z</time>
      </trkpt>
      <trkpt lat="45.65509" lon="6.5346">
        <ele>1850</ele>
        <time>2022-07-27T14:59:00Z</time>
      </trkpt>
      <trkpt lat="45.6551" lon="6.53458">
        <ele>1850</ele>
        <time>2022-07-27T14:59:01Z</time>
      </trkpt>
      <trkpt lat="45.6551" lon="6.53457">
        <ele>1850</ele>
        <time>2022-07-27T14:59:02Z</time>
      </trkpt>
      <trkpt lat="45.65511" lon="6.53455">
        <ele>1850</ele>
        <time>2022-07-27T14:59:03Z</time>
      </trkpt>
      <trkpt lat="45.65511" lon="6.53453">
        <ele>1850</ele>
        <time>2022-07-27T14:59:04Z</time>
      </trkpt>
      <trkpt lat="45.65512" lon="6.53451">
        <ele>1850</ele>
        <time>2022-07-27T14:59:05Z</time>
      </trkpt>
      <trkpt lat="45.65512" lon="6.53449">
        <ele>1850</ele>
        <time>2022-07-27T14:59:06Z</time>
      </trkpt>
      <trkpt lat="45.65512" lon="6.53447">
        <ele>1850</ele>
        <time>2022-07-27T14:59:07Z</time>
      </trkpt>
      <trkpt lat="45.65512" lon="6.53445">
        <ele>1850</ele>
        <time>2022-07-27T14:59:08Z</time>
      </trkpt>
      <trkpt lat="45.65513" lon="6.53444">
        <ele>1850</ele>
        <time>2022-07-27T14:59:09Z</time>
      </trkpt>
      <trkpt lat="45.65514" lon="6.53442">
        <ele>1850</ele>
        <time>2022-07-27T14:59:10Z</time>
      </trkpt>
      <trkpt lat="45.65514" lon="6.5344">
        <ele>1850</ele>
        <time>2022-07-27T14:59:11Z</time>
      </trkpt>
      <trkpt lat="45.65515" lon="6.53439">
        <ele>1850</ele>
        <time>2022-07-27T14:59:12Z</time>
      </trkpt>
      <trkpt lat="45.65516" lon="6.53437">
        <ele>1850</ele>
        <time>2022-07-27T14:59:13Z</time>
      </trkpt>
      <trkpt lat="45.65517" lon="6.53436">
        <ele>1850</ele>
        <time>2022-07-27T14:59:14Z</time>
      </trkpt>
      <trkpt lat="45.65518" lon="6.53434">
        <ele>1850</ele>
        <time>2022-07-27T14:59:15Z</time>
      </trkpt>
      <trkpt lat="45.65518" lon="6.53433">
        <ele>1850</ele>
        <time>2022-07-27T14:59:16Z</time>
      </trkpt>
      <trkpt lat="45.65519" lon="6.53432">
        <ele>1850</ele>
        <time>2022-07-27T14:59:17Z</time>
      </trkpt>
      <trkpt lat="45.6552" lon="6.53431">
        <ele>1850</ele>
        <time>2022-07-27T14:59:18Z</time>
      </trkpt>
      <trkpt lat="45.6552" lon="6.5343">
        <ele>1850</ele>
        <time>2022-07-27T14:59:19Z</time>
      </trkpt>
      <trkpt lat="45.6552" lon="6.5343">
        <ele>1850</ele>
        <time>2022-07-27T14:59:20Z</time>
      </trkpt>
      <trkpt lat="45.65521" lon="6.53428">
        <ele>1851</ele>
        <time>2022-07-27T14:59:21Z</time>
      </trkpt>
      <trkpt lat="45.65521" lon="6.53427">
        <ele>1851</ele>
        <time>2022-07-27T14:59:22Z</time>
      </trkpt>
      <trkpt lat="45.65521" lon="6.53426">
        <ele>1851</ele>
        <time>2022-07-27T14:59:23Z</time>
      </trkpt>
      <trkpt lat="45.65522" lon="6.53425">
        <ele>1851</ele>
        <time>2022-07-27T14:59:24Z</time>
      </trkpt>
      <trkpt lat="45.65522" lon="6.53424">
        <ele>1851</ele>
        <time>2022-07-27T14:59:25Z</time>
      </trkpt>
      <trkpt lat="45.65522" lon="6.53423">
        <ele>1852</ele>
        <time>2022-07-27T14:59:26Z</time>
      </trkpt>
      <trkpt lat="45.65523" lon="6.53422">
        <ele>1852</ele>
        <time>2022-07-27T14:59:27Z</time>
      </trkpt>
      <trkpt lat="45.65523" lon="6.53422">
        <ele>1852</ele>
        <time>2022-07-27T14:59:28Z</time>
      </trkpt>
      <trkpt lat="45.65523" lon="6.53421">
        <ele>1852</ele>
        <time>2022-07-27T14:59:29Z</time>
      </trkpt>
      <trkpt lat="45.65524" lon="6.5342">
        <ele>1852</ele>
        <time>2022-07-27T14:59:30Z</time>
      </trkpt>
      <trkpt lat="45.65524" lon="6.53419">
        <ele>1853</ele>
        <time>2022-07-27T14:59:31Z</time>
      </trkpt>
      <trkpt lat="45.65525" lon="6.53419">
        <ele>1853</ele>
        <time>2022-07-27T14:59:32Z</time>
      </trkpt>
      <trkpt lat="45.65526" lon="6.53418">
        <ele>1853</ele>
        <time>2022-07-27T14:59:33Z</time>
      </trkpt>
      <trkpt lat="45.65526" lon="6.53418">
        <ele>1853</ele>
        <time>2022-07-27T14:59:34Z</time>
      </trkpt>
      <trkpt lat="45.65527" lon="6.53418">
        <ele>1853</ele>
        <time>2022-07-27T14:59:35Z</time>
      </trkpt>
      <trkpt lat="45.65528" lon="6.53417">
        <ele>1854</ele>
        <time>2022-07-27T14:59:36Z</time>
      </trkpt>
      <trkpt lat="45.65529" lon="6.53417">
        <ele>1854</ele>
        <time>2022-07-27T14:59:37Z</time>
      </trkpt>
      <trkpt lat="45.6553" lon="6.53417">
        <ele>1854</ele>
        <time>2022-07-27T14:59:38Z</time>
      </trkpt>
      <trkpt lat="45.65531" lon="6.53417">
        <ele>1855</ele>
        <time>2022-07-27T14:59:39Z</time>
      </trkpt>
      <trkpt lat="45.65532" lon="6.53416">
        <ele>1855</ele>
        <time>2022-07-27T14:59:40Z</time>
      </trkpt>
      <trkpt lat="45.65533" lon="6.53416">
        <ele>1856</ele>
        <time>2022-07-27T14:59:41Z</time>
      </trkpt>
      <trkpt lat="45.65534" lon="6.53416">
        <ele>1856</ele>
        <time>2022-07-27T14:59:42Z</time>
      </trkpt>
      <trkpt lat="45.65535" lon="6.53416">
        <ele>1856</ele>
        <time>2022-07-27T14:59:43Z</time>
      </trkpt>
      <trkpt lat="45.65536" lon="6.53416">
        <ele>1856</ele>
        <time>2022-07-27T14:59:44Z</time>
      </trkpt>
      <trkpt lat="45.65537" lon="6.53417">
        <ele>1856</ele>
        <time>2022-07-27T14:59:45Z</time>
      </trkpt>
      <trkpt lat="45.65538" lon="6.53417">
        <ele>1857</ele>
        <time>2022-07-27T14:59:46Z</time>
      </trkpt>
      <trkpt lat="45.65539" lon="6.53417">
        <ele>1857</ele>
        <time>2022-07-27T14:59:47Z</time>
      </trkpt>
      <trkpt lat="45.6554" lon="6.53417">
        <ele>1857</ele>
        <time>2022-07-27T14:59:48Z</time>
      </trkpt>
      <trkpt lat="45.65541" lon="6.53417">
        <ele>1858</ele>
        <time>2022-07-27T14:59:49Z</time>
      </trkpt>
      <trkpt lat="45.65542" lon="6.53417">
        <ele>1858</ele>
        <time>2022-07-27T14:59:50Z</time>
      </trkpt>
      <trkpt lat="45.65543" lon="6.53418">
        <ele>1859</ele>
        <time>2022-07-27T14:59:51Z</time>
      </trkpt>
      <trkpt lat="45.65544" lon="6.53418">
        <ele>1859</ele>
        <time>2022-07-27T14:59:52Z</time>
      </trkpt>
      <trkpt lat="45.65545" lon="6.53418">
        <ele>1859</ele>
        <time>2022-07-27T14:59:53Z</time>
      </trkpt>
      <trkpt lat="45.65546" lon="6.53418">
        <ele>1859</ele>
        <time>2022-07-27T14:59:54Z</time>
      </trkpt>
      <trkpt lat="45.65547" lon="6.53419">
        <ele>1859</ele>
        <time>2022-07-27T14:59:55Z</time>
      </trkpt>
      <trkpt lat="45.65548" lon="6.53419">
        <ele>1860</ele>
        <time>2022-07-27T14:59:56Z</time>
      </trkpt>
      <trkpt lat="45.65549" lon="6.53418">
        <ele>1863</ele>
        <time>2022-07-27T15:00:07Z</time>
      </trkpt>
      <trkpt lat="45.65549" lon="6.53418">
        <ele>1863</ele>
        <time>2022-07-27T15:00:08Z</time>
      </trkpt>
      <trkpt lat="45.65549" lon="6.53417">
        <ele>1863</ele>
        <time>2022-07-27T15:00:09Z</time>
      </trkpt>
      <trkpt lat="45.65549" lon="6.53417">
        <ele>1863</ele>
        <time>2022-07-27T15:00:10Z</time>
      </trkpt>
      <trkpt lat="45.65548" lon="6.53416">
        <ele>1863</ele>
        <time>2022-07-27T15:00:11Z</time>
      </trkpt>
      <trkpt lat="45.65547" lon="6.53415">
        <ele>1863</ele>
        <time>2022-07-27T15:00:12Z</time>
      </trkpt>
      <trkpt lat="45.65547" lon="6.53415">
        <ele>1863</ele>
        <time>2022-07-27T15:00:13Z</time>
      </trkpt>
      <trkpt lat="45.65544" lon="6.53414">
        <ele>1865</ele>
        <time>2022-07-27T15:01:20Z</time>
      </trkpt>
      <trkpt lat="45.65544" lon="6.53413">
        <ele>1865</ele>
        <time>2022-07-27T15:01:21Z</time>
      </trkpt>
      <trkpt lat="45.65543" lon="6.53413">
        <ele>1865</ele>
        <time>2022-07-27T15:01:22Z</time>
      </trkpt>
      <trkpt lat="45.65543" lon="6.53413">
        <ele>1865</ele>
        <time>2022-07-27T15:01:23Z</time>
      </trkpt>
      <trkpt lat="45.65543" lon="6.53412">
        <ele>1865</ele>
        <time>2022-07-27T15:01:24Z</time>
      </trkpt>
      <trkpt lat="45.65544" lon="6.53411">
        <ele>1865</ele>
        <time>2022-07-27T15:01:53Z</time>
      </trkpt>
      <trkpt lat="45.65544" lon="6.5341">
        <ele>1865</ele>
        <time>2022-07-27T15:01:54Z</time>
      </trkpt>
      <trkpt lat="45.65544" lon="6.5341">
        <ele>1865</ele>
        <time>2022-07-27T15:01:55Z</time>
      </trkpt>
      <trkpt lat="45.65544" lon="6.53409">
        <ele>1865</ele>
        <time>2022-07-27T15:01:56Z</time>
      </trkpt>
      <trkpt lat="45.65544" lon="6.53408">
        <ele>1865</ele>
        <time>2022-07-27T15:01:57Z</time>
      </trkpt>
      <trkpt lat="45.65544" lon="6.53407">
        <ele>1865</ele>
        <time>2022-07-27T15:01:58Z</time>
      </trkpt>
      <trkpt lat="45.65544" lon="6.53406">
        <ele>1865</ele>
        <time>2022-07-27T15:01:59Z</time>
      </trkpt>
      <trkpt lat="45.65544" lon="6.53405">
        <ele>1865</ele>
        <time>2022-07-27T15:02:00Z</time>
      </trkpt>
      <trkpt lat="45.65544" lon="6.53404">
        <ele>1865</ele>
        <time>2022-07-27T15:02:01Z</time>
      </trkpt>
      <trkpt lat="45.65544" lon="6.53402">
        <ele>1865</ele>
        <time>2022-07-27T15:02:02Z</time>
      </trkpt>
      <trkpt lat="45.65543" lon="6.53401">
        <ele>1865</ele>
        <time>2022-07-27T15:02:03Z</time>
      </trkpt>
      <trkpt lat="45.65543" lon="6.534">
        <ele>1865</ele>
        <time>2022-07-27T15:02:04Z</time>
      </trkpt>
      <trkpt lat="45.65543" lon="6.53399">
        <ele>1865</ele>
        <time>2022-07-27T15:02:05Z</time>
      </trkpt>
      <trkpt lat="45.65543" lon="6.53398">
        <ele>1866</ele>
        <time>2022-07-27T15:02:06Z</time>
      </trkpt>
      <trkpt lat="45.65542" lon="6.53396">
        <ele>1866</ele>
        <time>2022-07-27T15:02:07Z</time>
      </trkpt>
      <trkpt lat="45.65542" lon="6.53395">
        <ele>1866</ele>
        <time>2022-07-27T15:02:08Z</time>
      </trkpt>
      <trkpt lat="45.65542" lon="6.53393">
        <ele>1866</ele>
        <time>2022-07-27T15:02:09Z</time>
      </trkpt>
      <trkpt lat="45.65542" lon="6.53392">
        <ele>1866</ele>
        <time>2022-07-27T15:02:10Z</time>
      </trkpt>
      <trkpt lat="45.65542" lon="6.5339">
        <ele>1866</ele>
        <time>2022-07-27T15:02:11Z</time>
      </trkpt>
      <trkpt lat="45.65542" lon="6.53389">
        <ele>1866</ele>
        <time>2022-07-27T15:02:12Z</time>
      </trkpt>
      <trkpt lat="45.65542" lon="6.53388">
        <ele>1866</ele>
        <time>2022-07-27T15:02:13Z</time>
      </trkpt>
      <trkpt lat="45.65543" lon="6.53387">
        <ele>1866</ele>
        <time>2022-07-27T15:02:14Z</time>
      </trkpt>
      <trkpt lat="45.65543" lon="6.53386">
        <ele>1866</ele>
        <time>2022-07-27T15:02:15Z</time>
      </trkpt>
      <trkpt lat="45.65544" lon="6.53385">
        <ele>1867</ele>
        <time>2022-07-27T15:02:16Z</time>
      </trkpt>
      <trkpt lat="45.65545" lon="6.53384">
        <ele>1867</ele>
        <time>2022-07-27T15:02:17Z</time>
      </trkpt>
      <trkpt lat="45.65545" lon="6.53383">
        <ele>1867</ele>
        <time>2022-07-27T15:02:18Z</time>
      </trkpt>
      <trkpt lat="45.65546" lon="6.53382">
        <ele>1867</ele>
        <time>2022-07-27T15:02:19Z</time>
      </trkpt>
      <trkpt lat="45.65547" lon="6.53382">
        <ele>1867</ele>
        <time>2022-07-27T15:02:20Z</time>
      </trkpt>
      <trkpt lat="45.65548" lon="6.53382">
        <ele>1867</ele>
        <time>2022-07-27T15:02:21Z</time>
      </trkpt>
      <trkpt lat="45.65549" lon="6.53382">
        <ele>1867</ele>
        <time>2022-07-27T15:02:22Z</time>
      </trkpt>
      <trkpt lat="45.6555" lon="6.53382">
        <ele>1867</ele>
        <time>2022-07-27T15:02:23Z</time>
      </trkpt>
      <trkpt lat="45.65551" lon="6.53383">
        <ele>1867</ele>
        <time>2022-07-27T15:02:24Z</time>
      </trkpt>
      <trkpt lat="45.65552" lon="6.53383">
        <ele>1867</ele>
        <time>2022-07-27T15:02:25Z</time>
      </trkpt>
      <trkpt lat="45.65554" lon="6.53383">
        <ele>1868</ele>
        <time>2022-07-27T15:02:26Z</time>
      </trkpt>
      <trkpt lat="45.65555" lon="6.53384">
        <ele>1868</ele>
        <time>2022-07-27T15:02:27Z</time>
      </trkpt>
      <trkpt lat="45.65556" lon="6.53384">
        <ele>1868</ele>
        <time>2022-07-27T15:02:28Z</time>
      </trkpt>
      <trkpt lat="45.65557" lon="6.53385">
        <ele>1868</ele>
        <time>2022-07-27T15:02:29Z</time>
      </trkpt>
      <trkpt lat="45.65558" lon="6.53386">
        <ele>1868</ele>
        <time>2022-07-27T15:02:30Z</time>
      </trkpt>
      <trkpt lat="45.65559" lon="6.53386">
        <ele>1868</ele>
        <time>2022-07-27T15:02:31Z</time>
      </trkpt>
      <trkpt lat="45.6556" lon="6.53387">
        <ele>1868</ele>
        <time>2022-07-27T15:02:32Z</time>
      </trkpt>
      <trkpt lat="45.65561" lon="6.53388">
        <ele>1868</ele>
        <time>2022-07-27T15:02:33Z</time>
      </trkpt>
      <trkpt lat="45.65562" lon="6.53389">
        <ele>1868</ele>
        <time>2022-07-27T15:02:34Z</time>
      </trkpt>
      <trkpt lat="45.65564" lon="6.5339">
        <ele>1868</ele>
        <time>2022-07-27T15:02:35Z</time>
      </trkpt>
      <trkpt lat="45.65565" lon="6.5339">
        <ele>1868</ele>
        <time>2022-07-27T15:02:36Z</time>
      </trkpt>
      <trkpt lat="45.65566" lon="6.53391">
        <ele>1868</ele>
        <time>2022-07-27T15:02:37Z</time>
      </trkpt>
      <trkpt lat="45.65567" lon="6.53392">
        <ele>1868</ele>
        <time>2022-07-27T15:02:38Z</time>
      </trkpt>
      <trkpt lat="45.65568" lon="6.53392">
        <ele>1868</ele>
        <time>2022-07-27T15:02:39Z</time>
      </trkpt>
      <trkpt lat="45.65569" lon="6.53393">
        <ele>1868</ele>
        <time>2022-07-27T15:02:40Z</time>
      </trkpt>
      <trkpt lat="45.6557" lon="6.53394">
        <ele>1868</ele>
        <time>2022-07-27T15:02:41Z</time>
      </trkpt>
      <trkpt lat="45.65571" lon="6.53394">
        <ele>1868</ele>
        <time>2022-07-27T15:02:42Z</time>
      </trkpt>
      <trkpt lat="45.65572" lon="6.53395">
        <ele>1868</ele>
        <time>2022-07-27T15:02:43Z</time>
      </trkpt>
      <trkpt lat="45.65573" lon="6.53395">
        <ele>1868</ele>
        <time>2022-07-27T15:02:44Z</time>
      </trkpt>
      <trkpt lat="45.65574" lon="6.53395">
        <ele>1868</ele>
        <time>2022-07-27T15:02:45Z</time>
      </trkpt>
      <trkpt lat="45.65575" lon="6.53396">
        <ele>1868</ele>
        <time>2022-07-27T15:02:46Z</time>
      </trkpt>
      <trkpt lat="45.65576" lon="6.53397">
        <ele>1868</ele>
        <time>2022-07-27T15:02:47Z</time>
      </trkpt>
      <trkpt lat="45.65577" lon="6.53397">
        <ele>1868</ele>
        <time>2022-07-27T15:02:48Z</time>
      </trkpt>
      <trkpt lat="45.65578" lon="6.53398">
        <ele>1868</ele>
        <time>2022-07-27T15:02:49Z</time>
      </trkpt>
      <trkpt lat="45.65579" lon="6.53398">
        <ele>1868</ele>
        <time>2022-07-27T15:02:50Z</time>
      </trkpt>
      <trkpt lat="45.6558" lon="6.53399">
        <ele>1869</ele>
        <time>2022-07-27T15:02:51Z</time>
      </trkpt>
      <trkpt lat="45.65581" lon="6.53399">
        <ele>1869</ele>
        <time>2022-07-27T15:02:52Z</time>
      </trkpt>
      <trkpt lat="45.65582" lon="6.53399">
        <ele>1869</ele>
        <time>2022-07-27T15:02:53Z</time>
      </trkpt>
      <trkpt lat="45.65583" lon="6.53399">
        <ele>1869</ele>
        <time>2022-07-27T15:02:54Z</time>
      </trkpt>
      <trkpt lat="45.65584" lon="6.53399">
        <ele>1869</ele>
        <time>2022-07-27T15:02:55Z</time>
      </trkpt>
      <trkpt lat="45.65585" lon="6.534">
        <ele>1869</ele>
        <time>2022-07-27T15:02:56Z</time>
      </trkpt>
      <trkpt lat="45.65586" lon="6.534">
        <ele>1868</ele>
        <time>2022-07-27T15:02:57Z</time>
      </trkpt>
      <trkpt lat="45.65588" lon="6.534">
        <ele>1868</ele>
        <time>2022-07-27T15:02:58Z</time>
      </trkpt>
      <trkpt lat="45.65589" lon="6.534">
        <ele>1868</ele>
        <time>2022-07-27T15:02:59Z</time>
      </trkpt>
      <trkpt lat="45.6559" lon="6.53401">
        <ele>1868</ele>
        <time>2022-07-27T15:03:00Z</time>
      </trkpt>
      <trkpt lat="45.65592" lon="6.53401">
        <ele>1868</ele>
        <time>2022-07-27T15:03:01Z</time>
      </trkpt>
      <trkpt lat="45.65593" lon="6.53401">
        <ele>1868</ele>
        <time>2022-07-27T15:03:02Z</time>
      </trkpt>
      <trkpt lat="45.65594" lon="6.53401">
        <ele>1868</ele>
        <time>2022-07-27T15:03:03Z</time>
      </trkpt>
      <trkpt lat="45.65596" lon="6.53401">
        <ele>1868</ele>
        <time>2022-07-27T15:03:04Z</time>
      </trkpt>
      <trkpt lat="45.65597" lon="6.534">
        <ele>1868</ele>
        <time>2022-07-27T15:03:05Z</time>
      </trkpt>
      <trkpt lat="45.65598" lon="6.534">
        <ele>1868</ele>
        <time>2022-07-27T15:03:06Z</time>
      </trkpt>
      <trkpt lat="45.65599" lon="6.534">
        <ele>1868</ele>
        <time>2022-07-27T15:03:07Z</time>
      </trkpt>
      <trkpt lat="45.656" lon="6.53399">
        <ele>1868</ele>
        <time>2022-07-27T15:03:08Z</time>
      </trkpt>
      <trkpt lat="45.65601" lon="6.53399">
        <ele>1868</ele>
        <time>2022-07-27T15:03:09Z</time>
      </trkpt>
      <trkpt lat="45.65602" lon="6.53398">
        <ele>1868</ele>
        <time>2022-07-27T15:03:10Z</time>
      </trkpt>
      <trkpt lat="45.65603" lon="6.53397">
        <ele>1869</ele>
        <time>2022-07-27T15:03:11Z</time>
      </trkpt>
      <trkpt lat="45.65604" lon="6.53396">
        <ele>1869</ele>
        <time>2022-07-27T15:03:12Z</time>
      </trkpt>
      <trkpt lat="45.65606" lon="6.53395">
        <ele>1869</ele>
        <time>2022-07-27T15:03:13Z</time>
      </trkpt>
      <trkpt lat="45.65607" lon="6.53394">
        <ele>1869</ele>
        <time>2022-07-27T15:03:14Z</time>
      </trkpt>
      <trkpt lat="45.65608" lon="6.53394">
        <ele>1869</ele>
        <time>2022-07-27T15:03:15Z</time>
      </trkpt>
      <trkpt lat="45.65609" lon="6.53393">
        <ele>1869</ele>
        <time>2022-07-27T15:03:16Z</time>
      </trkpt>
      <trkpt lat="45.6561" lon="6.53392">
        <ele>1869</ele>
        <time>2022-07-27T15:03:17Z</time>
      </trkpt>
      <trkpt lat="45.65611" lon="6.53392">
        <ele>1869</ele>
        <time>2022-07-27T15:03:18Z</time>
      </trkpt>
      <trkpt lat="45.65612" lon="6.53391">
        <ele>1869</ele>
        <time>2022-07-27T15:03:19Z</time>
      </trkpt>
      <trkpt lat="45.65612" lon="6.53391">
        <ele>1869</ele>
        <time>2022-07-27T15:03:20Z</time>
      </trkpt>
      <trkpt lat="45.65613" lon="6.53391">
        <ele>1870</ele>
        <time>2022-07-27T15:03:21Z</time>
      </trkpt>
      <trkpt lat="45.65613" lon="6.53391">
        <ele>1870</ele>
        <time>2022-07-27T15:03:22Z</time>
      </trkpt>
      <trkpt lat="45.65614" lon="6.5339">
        <ele>1870</ele>
        <time>2022-07-27T15:03:23Z</time>
      </trkpt>
      <trkpt lat="45.65614" lon="6.5339">
        <ele>1870</ele>
        <time>2022-07-27T15:03:24Z</time>
      </trkpt>
      <trkpt lat="45.65614" lon="6.53389">
        <ele>1870</ele>
        <time>2022-07-27T15:03:25Z</time>
      </trkpt>
      <trkpt lat="45.65614" lon="6.53389">
        <ele>1871</ele>
        <time>2022-07-27T15:03:26Z</time>
      </trkpt>
      <trkpt lat="45.65614" lon="6.53388">
        <ele>1871</ele>
        <time>2022-07-27T15:03:27Z</time>
      </trkpt>
      <trkpt lat="45.65614" lon="6.53387">
        <ele>1871</ele>
        <time>2022-07-27T15:03:28Z</time>
      </trkpt>
      <trkpt lat="45.65615" lon="6.53387">
        <ele>1871</ele>
        <time>2022-07-27T15:03:29Z</time>
      </trkpt>
      <trkpt lat="45.65615" lon="6.53387">
        <ele>1871</ele>
        <time>2022-07-27T15:03:30Z</time>
      </trkpt>
      <trkpt lat="45.65616" lon="6.53387">
        <ele>1872</ele>
        <time>2022-07-27T15:03:31Z</time>
      </trkpt>
      <trkpt lat="45.65616" lon="6.53387">
        <ele>1872</ele>
        <time>2022-07-27T15:03:32Z</time>
      </trkpt>
      <trkpt lat="45.65617" lon="6.53387">
        <ele>1872</ele>
        <time>2022-07-27T15:03:33Z</time>
      </trkpt>
      <trkpt lat="45.65617" lon="6.53387">
        <ele>1872</ele>
        <time>2022-07-27T15:03:34Z</time>
      </trkpt>
      <trkpt lat="45.65617" lon="6.53387">
        <ele>1872</ele>
        <time>2022-07-27T15:03:35Z</time>
      </trkpt>
      <trkpt lat="45.65617" lon="6.53386">
        <ele>1873</ele>
        <time>2022-07-27T15:03:36Z</time>
      </trkpt>
      <trkpt lat="45.65618" lon="6.53385">
        <ele>1873</ele>
        <time>2022-07-27T15:03:37Z</time>
      </trkpt>
      <trkpt lat="45.65618" lon="6.53385">
        <ele>1873</ele>
        <time>2022-07-27T15:03:38Z</time>
      </trkpt>
      <trkpt lat="45.65618" lon="6.53384">
        <ele>1873</ele>
        <time>2022-07-27T15:03:39Z</time>
      </trkpt>
      <trkpt lat="45.65618" lon="6.53383">
        <ele>1873</ele>
        <time>2022-07-27T15:03:40Z</time>
      </trkpt>
      <trkpt lat="45.65619" lon="6.53382">
        <ele>1874</ele>
        <time>2022-07-27T15:03:41Z</time>
      </trkpt>
      <trkpt lat="45.65619" lon="6.53382">
        <ele>1874</ele>
        <time>2022-07-27T15:03:42Z</time>
      </trkpt>
      <trkpt lat="45.6562" lon="6.53381">
        <ele>1874</ele>
        <time>2022-07-27T15:03:43Z</time>
      </trkpt>
      <trkpt lat="45.6562" lon="6.53381">
        <ele>1874</ele>
        <time>2022-07-27T15:03:44Z</time>
      </trkpt>
      <trkpt lat="45.65621" lon="6.53381">
        <ele>1874</ele>
        <time>2022-07-27T15:03:45Z</time>
      </trkpt>
      <trkpt lat="45.65622" lon="6.53381">
        <ele>1875</ele>
        <time>2022-07-27T15:03:46Z</time>
      </trkpt>
      <trkpt lat="45.65623" lon="6.53382">
        <ele>1875</ele>
        <time>2022-07-27T15:03:47Z</time>
      </trkpt>
      <trkpt lat="45.65623" lon="6.53382">
        <ele>1875</ele>
        <time>2022-07-27T15:03:48Z</time>
      </trkpt>
      <trkpt lat="45.65624" lon="6.53382">
        <ele>1876</ele>
        <time>2022-07-27T15:03:49Z</time>
      </trkpt>
      <trkpt lat="45.65624" lon="6.53382">
        <ele>1876</ele>
        <time>2022-07-27T15:03:50Z</time>
      </trkpt>
      <trkpt lat="45.65625" lon="6.53382">
        <ele>1877</ele>
        <time>2022-07-27T15:03:51Z</time>
      </trkpt>
      <trkpt lat="45.65626" lon="6.53382">
        <ele>1877</ele>
        <time>2022-07-27T15:03:52Z</time>
      </trkpt>
      <trkpt lat="45.65626" lon="6.53382">
        <ele>1877</ele>
        <time>2022-07-27T15:03:53Z</time>
      </trkpt>
      <trkpt lat="45.65627" lon="6.53382">
        <ele>1877</ele>
        <time>2022-07-27T15:03:54Z</time>
      </trkpt>
      <trkpt lat="45.65628" lon="6.53382">
        <ele>1877</ele>
        <time>2022-07-27T15:03:55Z</time>
      </trkpt>
      <trkpt lat="45.65628" lon="6.53382">
        <ele>1878</ele>
        <time>2022-07-27T15:03:56Z</time>
      </trkpt>
      <trkpt lat="45.65628" lon="6.53382">
        <ele>1878</ele>
        <time>2022-07-27T15:03:57Z</time>
      </trkpt>
      <trkpt lat="45.65628" lon="6.53382">
        <ele>1878</ele>
        <time>2022-07-27T15:03:58Z</time>
      </trkpt>
      <trkpt lat="45.65629" lon="6.53381">
        <ele>1878</ele>
        <time>2022-07-27T15:03:59Z</time>
      </trkpt>
      <trkpt lat="45.65629" lon="6.53381">
        <ele>1878</ele>
        <time>2022-07-27T15:04:00Z</time>
      </trkpt>
      <trkpt lat="45.65629" lon="6.5338">
        <ele>1879</ele>
        <time>2022-07-27T15:04:01Z</time>
      </trkpt>
      <trkpt lat="45.65628" lon="6.53379">
        <ele>1879</ele>
        <time>2022-07-27T15:04:02Z</time>
      </trkpt>
      <trkpt lat="45.65628" lon="6.53378">
        <ele>1879</ele>
        <time>2022-07-27T15:04:03Z</time>
      </trkpt>
      <trkpt lat="45.65628" lon="6.53378">
        <ele>1879</ele>
        <time>2022-07-27T15:04:04Z</time>
      </trkpt>
      <trkpt lat="45.65628" lon="6.53377">
        <ele>1879</ele>
        <time>2022-07-27T15:04:05Z</time>
      </trkpt>
      <trkpt lat="45.65628" lon="6.53376">
        <ele>1880</ele>
        <time>2022-07-27T15:04:06Z</time>
      </trkpt>
      <trkpt lat="45.65627" lon="6.53375">
        <ele>1880</ele>
        <time>2022-07-27T15:04:07Z</time>
      </trkpt>
      <trkpt lat="45.65627" lon="6.53374">
        <ele>1880</ele>
        <time>2022-07-27T15:04:08Z</time>
      </trkpt>
      <trkpt lat="45.65627" lon="6.53372">
        <ele>1880</ele>
        <time>2022-07-27T15:04:09Z</time>
      </trkpt>
      <trkpt lat="45.65627" lon="6.53371">
        <ele>1880</ele>
        <time>2022-07-27T15:04:10Z</time>
      </trkpt>
      <trkpt lat="45.65627" lon="6.5337">
        <ele>1881</ele>
        <time>2022-07-27T15:04:11Z</time>
      </trkpt>
      <trkpt lat="45.65626" lon="6.53369">
        <ele>1881</ele>
        <time>2022-07-27T15:04:12Z</time>
      </trkpt>
      <trkpt lat="45.65626" lon="6.53368">
        <ele>1881</ele>
        <time>2022-07-27T15:04:13Z</time>
      </trkpt>
      <trkpt lat="45.65626" lon="6.53367">
        <ele>1881</ele>
        <time>2022-07-27T15:04:14Z</time>
      </trkpt>
      <trkpt lat="45.65626" lon="6.53366">
        <ele>1881</ele>
        <time>2022-07-27T15:04:15Z</time>
      </trkpt>
      <trkpt lat="45.65626" lon="6.53365">
        <ele>1882</ele>
        <time>2022-07-27T15:04:16Z</time>
      </trkpt>
      <trkpt lat="45.65625" lon="6.53364">
        <ele>1882</ele>
        <time>2022-07-27T15:04:17Z</time>
      </trkpt>
      <trkpt lat="45.65625" lon="6.53363">
        <ele>1882</ele>
        <time>2022-07-27T15:04:18Z</time>
      </trkpt>
      <trkpt lat="45.65625" lon="6.53361">
        <ele>1882</ele>
        <time>2022-07-27T15:04:19Z</time>
      </trkpt>
      <trkpt lat="45.65625" lon="6.5336">
        <ele>1882</ele>
        <time>2022-07-27T15:04:20Z</time>
      </trkpt>
      <trkpt lat="45.65624" lon="6.53359">
        <ele>1883</ele>
        <time>2022-07-27T15:04:21Z</time>
      </trkpt>
      <trkpt lat="45.65624" lon="6.53358">
        <ele>1883</ele>
        <time>2022-07-27T15:04:22Z</time>
      </trkpt>
      <trkpt lat="45.65624" lon="6.53356">
        <ele>1883</ele>
        <time>2022-07-27T15:04:23Z</time>
      </trkpt>
      <trkpt lat="45.65624" lon="6.53355">
        <ele>1883</ele>
        <time>2022-07-27T15:04:24Z</time>
      </trkpt>
      <trkpt lat="45.65623" lon="6.53354">
        <ele>1883</ele>
        <time>2022-07-27T15:04:25Z</time>
      </trkpt>
      <trkpt lat="45.65623" lon="6.53353">
        <ele>1884</ele>
        <time>2022-07-27T15:04:26Z</time>
      </trkpt>
      <trkpt lat="45.65623" lon="6.53352">
        <ele>1884</ele>
        <time>2022-07-27T15:04:27Z</time>
      </trkpt>
      <trkpt lat="45.65623" lon="6.53351">
        <ele>1884</ele>
        <time>2022-07-27T15:04:28Z</time>
      </trkpt>
      <trkpt lat="45.65623" lon="6.5335">
        <ele>1884</ele>
        <time>2022-07-27T15:04:29Z</time>
      </trkpt>
      <trkpt lat="45.65622" lon="6.53349">
        <ele>1884</ele>
        <time>2022-07-27T15:04:30Z</time>
      </trkpt>
      <trkpt lat="45.65622" lon="6.53348">
        <ele>1885</ele>
        <time>2022-07-27T15:04:31Z</time>
      </trkpt>
      <trkpt lat="45.65622" lon="6.53347">
        <ele>1885</ele>
        <time>2022-07-27T15:04:32Z</time>
      </trkpt>
      <trkpt lat="45.65622" lon="6.53347">
        <ele>1885</ele>
        <time>2022-07-27T15:04:33Z</time>
      </trkpt>
      <trkpt lat="45.65622" lon="6.53346">
        <ele>1885</ele>
        <time>2022-07-27T15:04:34Z</time>
      </trkpt>
      <trkpt lat="45.65622" lon="6.53345">
        <ele>1885</ele>
        <time>2022-07-27T15:04:35Z</time>
      </trkpt>
      <trkpt lat="45.65622" lon="6.53344">
        <ele>1886</ele>
        <time>2022-07-27T15:04:36Z</time>
      </trkpt>
      <trkpt lat="45.65622" lon="6.53343">
        <ele>1886</ele>
        <time>2022-07-27T15:04:37Z</time>
      </trkpt>
      <trkpt lat="45.65622" lon="6.53342">
        <ele>1886</ele>
        <time>2022-07-27T15:04:38Z</time>
      </trkpt>
      <trkpt lat="45.65622" lon="6.53341">
        <ele>1886</ele>
        <time>2022-07-27T15:04:39Z</time>
      </trkpt>
      <trkpt lat="45.65622" lon="6.5334">
        <ele>1886</ele>
        <time>2022-07-27T15:04:40Z</time>
      </trkpt>
      <trkpt lat="45.65622" lon="6.53338">
        <ele>1887</ele>
        <time>2022-07-27T15:04:41Z</time>
      </trkpt>
      <trkpt lat="45.65622" lon="6.53337">
        <ele>1887</ele>
        <time>2022-07-27T15:04:42Z</time>
      </trkpt>
      <trkpt lat="45.65622" lon="6.53336">
        <ele>1887</ele>
        <time>2022-07-27T15:04:43Z</time>
      </trkpt>
      <trkpt lat="45.65622" lon="6.53334">
        <ele>1887</ele>
        <time>2022-07-27T15:04:44Z</time>
      </trkpt>
      <trkpt lat="45.65622" lon="6.53333">
        <ele>1887</ele>
        <time>2022-07-27T15:04:45Z</time>
      </trkpt>
      <trkpt lat="45.65622" lon="6.53332">
        <ele>1888</ele>
        <time>2022-07-27T15:04:46Z</time>
      </trkpt>
      <trkpt lat="45.65622" lon="6.5333">
        <ele>1888</ele>
        <time>2022-07-27T15:04:47Z</time>
      </trkpt>
      <trkpt lat="45.65622" lon="6.53329">
        <ele>1888</ele>
        <time>2022-07-27T15:04:48Z</time>
      </trkpt>
      <trkpt lat="45.65622" lon="6.53328">
        <ele>1888</ele>
        <time>2022-07-27T15:04:49Z</time>
      </trkpt>
      <trkpt lat="45.65622" lon="6.53327">
        <ele>1888</ele>
        <time>2022-07-27T15:04:50Z</time>
      </trkpt>
      <trkpt lat="45.65622" lon="6.53326">
        <ele>1889</ele>
        <time>2022-07-27T15:04:51Z</time>
      </trkpt>
      <trkpt lat="45.65622" lon="6.53324">
        <ele>1889</ele>
        <time>2022-07-27T15:04:52Z</time>
      </trkpt>
      <trkpt lat="45.65622" lon="6.53323">
        <ele>1889</ele>
        <time>2022-07-27T15:04:53Z</time>
      </trkpt>
      <trkpt lat="45.65622" lon="6.53322">
        <ele>1889</ele>
        <time>2022-07-27T15:04:54Z</time>
      </trkpt>
      <trkpt lat="45.65622" lon="6.5332">
        <ele>1889</ele>
        <time>2022-07-27T15:04:55Z</time>
      </trkpt>
      <trkpt lat="45.65622" lon="6.53319">
        <ele>1889</ele>
        <time>2022-07-27T15:04:56Z</time>
      </trkpt>
      <trkpt lat="45.65621" lon="6.53318">
        <ele>1889</ele>
        <time>2022-07-27T15:04:57Z</time>
      </trkpt>
      <trkpt lat="45.65621" lon="6.53316">
        <ele>1889</ele>
        <time>2022-07-27T15:04:58Z</time>
      </trkpt>
      <trkpt lat="45.65621" lon="6.53316">
        <ele>1889</ele>
        <time>2022-07-27T15:04:59Z</time>
      </trkpt>
      <trkpt lat="45.65621" lon="6.53315">
        <ele>1889</ele>
        <time>2022-07-27T15:05:00Z</time>
      </trkpt>
      <trkpt lat="45.6562" lon="6.53314">
        <ele>1890</ele>
        <time>2022-07-27T15:05:01Z</time>
      </trkpt>
      <trkpt lat="45.6562" lon="6.53313">
        <ele>1890</ele>
        <time>2022-07-27T15:05:02Z</time>
      </trkpt>
      <trkpt lat="45.65619" lon="6.53312">
        <ele>1890</ele>
        <time>2022-07-27T15:05:03Z</time>
      </trkpt>
      <trkpt lat="45.65619" lon="6.53311">
        <ele>1890</ele>
        <time>2022-07-27T15:05:04Z</time>
      </trkpt>
      <trkpt lat="45.65618" lon="6.53309">
        <ele>1890</ele>
        <time>2022-07-27T15:05:05Z</time>
      </trkpt>
      <trkpt lat="45.65618" lon="6.53308">
        <ele>1891</ele>
        <time>2022-07-27T15:05:06Z</time>
      </trkpt>
      <trkpt lat="45.65618" lon="6.53307">
        <ele>1891</ele>
        <time>2022-07-27T15:05:07Z</time>
      </trkpt>
      <trkpt lat="45.65618" lon="6.53307">
        <ele>1891</ele>
        <time>2022-07-27T15:05:08Z</time>
      </trkpt>
      <trkpt lat="45.65618" lon="6.53306">
        <ele>1891</ele>
        <time>2022-07-27T15:05:09Z</time>
      </trkpt>
      <trkpt lat="45.65618" lon="6.53306">
        <ele>1891</ele>
        <time>2022-07-27T15:05:10Z</time>
      </trkpt>
      <trkpt lat="45.65618" lon="6.53306">
        <ele>1892</ele>
        <time>2022-07-27T15:05:11Z</time>
      </trkpt>
      <trkpt lat="45.65618" lon="6.53305">
        <ele>1892</ele>
        <time>2022-07-27T15:05:12Z</time>
      </trkpt>
      <trkpt lat="45.65619" lon="6.53306">
        <ele>1892</ele>
        <time>2022-07-27T15:05:13Z</time>
      </trkpt>
      <trkpt lat="45.65619" lon="6.53306">
        <ele>1892</ele>
        <time>2022-07-27T15:05:14Z</time>
      </trkpt>
      <trkpt lat="45.6562" lon="6.53307">
        <ele>1892</ele>
        <time>2022-07-27T15:05:15Z</time>
      </trkpt>
      <trkpt lat="45.65621" lon="6.53308">
        <ele>1893</ele>
        <time>2022-07-27T15:05:16Z</time>
      </trkpt>
      <trkpt lat="45.65621" lon="6.53309">
        <ele>1893</ele>
        <time>2022-07-27T15:05:17Z</time>
      </trkpt>
      <trkpt lat="45.65622" lon="6.5331">
        <ele>1893</ele>
        <time>2022-07-27T15:05:18Z</time>
      </trkpt>
      <trkpt lat="45.65623" lon="6.53311">
        <ele>1893</ele>
        <time>2022-07-27T15:05:19Z</time>
      </trkpt>
      <trkpt lat="45.65623" lon="6.53312">
        <ele>1893</ele>
        <time>2022-07-27T15:05:20Z</time>
      </trkpt>
      <trkpt lat="45.65624" lon="6.53312">
        <ele>1894</ele>
        <time>2022-07-27T15:05:21Z</time>
      </trkpt>
      <trkpt lat="45.65625" lon="6.53313">
        <ele>1894</ele>
        <time>2022-07-27T15:05:22Z</time>
      </trkpt>
      <trkpt lat="45.65626" lon="6.53313">
        <ele>1894</ele>
        <time>2022-07-27T15:05:23Z</time>
      </trkpt>
      <trkpt lat="45.65627" lon="6.53314">
        <ele>1894</ele>
        <time>2022-07-27T15:05:24Z</time>
      </trkpt>
      <trkpt lat="45.65628" lon="6.53314">
        <ele>1894</ele>
        <time>2022-07-27T15:05:25Z</time>
      </trkpt>
      <trkpt lat="45.65628" lon="6.53315">
        <ele>1894</ele>
        <time>2022-07-27T15:05:26Z</time>
      </trkpt>
      <trkpt lat="45.65629" lon="6.53315">
        <ele>1894</ele>
        <time>2022-07-27T15:05:27Z</time>
      </trkpt>
      <trkpt lat="45.6563" lon="6.53316">
        <ele>1894</ele>
        <time>2022-07-27T15:05:28Z</time>
      </trkpt>
      <trkpt lat="45.65631" lon="6.53317">
        <ele>1894</ele>
        <time>2022-07-27T15:05:29Z</time>
      </trkpt>
      <trkpt lat="45.65631" lon="6.53318">
        <ele>1894</ele>
        <time>2022-07-27T15:05:30Z</time>
      </trkpt>
      <trkpt lat="45.65632" lon="6.53319">
        <ele>1895</ele>
        <time>2022-07-27T15:05:31Z</time>
      </trkpt>
      <trkpt lat="45.65633" lon="6.5332">
        <ele>1895</ele>
        <time>2022-07-27T15:05:32Z</time>
      </trkpt>
      <trkpt lat="45.65633" lon="6.53321">
        <ele>1895</ele>
        <time>2022-07-27T15:05:33Z</time>
      </trkpt>
      <trkpt lat="45.65634" lon="6.53323">
        <ele>1895</ele>
        <time>2022-07-27T15:05:34Z</time>
      </trkpt>
      <trkpt lat="45.65635" lon="6.53324">
        <ele>1895</ele>
        <time>2022-07-27T15:05:35Z</time>
      </trkpt>
      <trkpt lat="45.65635" lon="6.53325">
        <ele>1896</ele>
        <time>2022-07-27T15:05:36Z</time>
      </trkpt>
      <trkpt lat="45.65636" lon="6.53325">
        <ele>1896</ele>
        <time>2022-07-27T15:05:37Z</time>
      </trkpt>
      <trkpt lat="45.65637" lon="6.53326">
        <ele>1896</ele>
        <time>2022-07-27T15:05:38Z</time>
      </trkpt>
      <trkpt lat="45.65639" lon="6.53326">
        <ele>1896</ele>
        <time>2022-07-27T15:05:39Z</time>
      </trkpt>
      <trkpt lat="45.6564" lon="6.53327">
        <ele>1896</ele>
        <time>2022-07-27T15:05:40Z</time>
      </trkpt>
      <trkpt lat="45.65641" lon="6.53327">
        <ele>1897</ele>
        <time>2022-07-27T15:05:41Z</time>
      </trkpt>
      <trkpt lat="45.65642" lon="6.53327">
        <ele>1897</ele>
        <time>2022-07-27T15:05:42Z</time>
      </trkpt>
      <trkpt lat="45.65643" lon="6.53327">
        <ele>1897</ele>
        <time>2022-07-27T15:05:43Z</time>
      </trkpt>
      <trkpt lat="45.65644" lon="6.53328">
        <ele>1897</ele>
        <time>2022-07-27T15:05:44Z</time>
      </trkpt>
      <trkpt lat="45.65646" lon="6.53328">
        <ele>1897</ele>
        <time>2022-07-27T15:05:45Z</time>
      </trkpt>
      <trkpt lat="45.65647" lon="6.53328">
        <ele>1898</ele>
        <time>2022-07-27T15:05:46Z</time>
      </trkpt>
      <trkpt lat="45.65648" lon="6.53328">
        <ele>1898</ele>
        <time>2022-07-27T15:05:47Z</time>
      </trkpt>
      <trkpt lat="45.65649" lon="6.53328">
        <ele>1898</ele>
        <time>2022-07-27T15:05:48Z</time>
      </trkpt>
      <trkpt lat="45.6565" lon="6.53328">
        <ele>1898</ele>
        <time>2022-07-27T15:05:49Z</time>
      </trkpt>
      <trkpt lat="45.65652" lon="6.53329">
        <ele>1898</ele>
        <time>2022-07-27T15:05:50Z</time>
      </trkpt>
      <trkpt lat="45.65653" lon="6.53329">
        <ele>1898</ele>
        <time>2022-07-27T15:05:51Z</time>
      </trkpt>
      <trkpt lat="45.65654" lon="6.53329">
        <ele>1898</ele>
        <time>2022-07-27T15:05:52Z</time>
      </trkpt>
      <trkpt lat="45.65655" lon="6.5333">
        <ele>1898</ele>
        <time>2022-07-27T15:05:53Z</time>
      </trkpt>
      <trkpt lat="45.65656" lon="6.5333">
        <ele>1898</ele>
        <time>2022-07-27T15:05:54Z</time>
      </trkpt>
      <trkpt lat="45.65657" lon="6.5333">
        <ele>1898</ele>
        <time>2022-07-27T15:05:55Z</time>
      </trkpt>
      <trkpt lat="45.65658" lon="6.5333">
        <ele>1899</ele>
        <time>2022-07-27T15:05:56Z</time>
      </trkpt>
      <trkpt lat="45.6566" lon="6.53331">
        <ele>1899</ele>
        <time>2022-07-27T15:05:57Z</time>
      </trkpt>
      <trkpt lat="45.65661" lon="6.53331">
        <ele>1899</ele>
        <time>2022-07-27T15:05:58Z</time>
      </trkpt>
      <trkpt lat="45.65662" lon="6.53332">
        <ele>1899</ele>
        <time>2022-07-27T15:05:59Z</time>
      </trkpt>
      <trkpt lat="45.65663" lon="6.53332">
        <ele>1899</ele>
        <time>2022-07-27T15:06:00Z</time>
      </trkpt>
      <trkpt lat="45.65664" lon="6.53332">
        <ele>1900</ele>
        <time>2022-07-27T15:06:01Z</time>
      </trkpt>
      <trkpt lat="45.65664" lon="6.53332">
        <ele>1900</ele>
        <time>2022-07-27T15:06:02Z</time>
      </trkpt>
      <trkpt lat="45.65665" lon="6.53332">
        <ele>1900</ele>
        <time>2022-07-27T15:06:03Z</time>
      </trkpt>
      <trkpt lat="45.65665" lon="6.53331">
        <ele>1900</ele>
        <time>2022-07-27T15:06:04Z</time>
      </trkpt>
      <trkpt lat="45.65666" lon="6.5333">
        <ele>1900</ele>
        <time>2022-07-27T15:06:05Z</time>
      </trkpt>
      <trkpt lat="45.65666" lon="6.53329">
        <ele>1901</ele>
        <time>2022-07-27T15:06:06Z</time>
      </trkpt>
      <trkpt lat="45.65667" lon="6.53329">
        <ele>1901</ele>
        <time>2022-07-27T15:06:07Z</time>
      </trkpt>
      <trkpt lat="45.65667" lon="6.53329">
        <ele>1901</ele>
        <time>2022-07-27T15:06:08Z</time>
      </trkpt>
      <trkpt lat="45.65668" lon="6.53328">
        <ele>1901</ele>
        <time>2022-07-27T15:06:09Z</time>
      </trkpt>
      <trkpt lat="45.65669" lon="6.53328">
        <ele>1901</ele>
        <time>2022-07-27T15:06:10Z</time>
      </trkpt>
      <trkpt lat="45.6567" lon="6.53327">
        <ele>1902</ele>
        <time>2022-07-27T15:06:11Z</time>
      </trkpt>
      <trkpt lat="45.6567" lon="6.53327">
        <ele>1902</ele>
        <time>2022-07-27T15:06:12Z</time>
      </trkpt>
      <trkpt lat="45.65671" lon="6.53328">
        <ele>1902</ele>
        <time>2022-07-27T15:06:13Z</time>
      </trkpt>
      <trkpt lat="45.65672" lon="6.53328">
        <ele>1902</ele>
        <time>2022-07-27T15:06:14Z</time>
      </trkpt>
      <trkpt lat="45.65673" lon="6.53328">
        <ele>1902</ele>
        <time>2022-07-27T15:06:15Z</time>
      </trkpt>
      <trkpt lat="45.65673" lon="6.53329">
        <ele>1903</ele>
        <time>2022-07-27T15:06:16Z</time>
      </trkpt>
      <trkpt lat="45.65674" lon="6.53329">
        <ele>1903</ele>
        <time>2022-07-27T15:06:17Z</time>
      </trkpt>
      <trkpt lat="45.65674" lon="6.53329">
        <ele>1903</ele>
        <time>2022-07-27T15:06:18Z</time>
      </trkpt>
      <trkpt lat="45.65675" lon="6.53329">
        <ele>1903</ele>
        <time>2022-07-27T15:06:19Z</time>
      </trkpt>
      <trkpt lat="45.65675" lon="6.53328">
        <ele>1903</ele>
        <time>2022-07-27T15:06:20Z</time>
      </trkpt>
      <trkpt lat="45.65676" lon="6.53327">
        <ele>1904</ele>
        <time>2022-07-27T15:06:21Z</time>
      </trkpt>
      <trkpt lat="45.65677" lon="6.53327">
        <ele>1904</ele>
        <time>2022-07-27T15:06:22Z</time>
      </trkpt>
      <trkpt lat="45.65678" lon="6.53326">
        <ele>1905</ele>
        <time>2022-07-27T15:06:29Z</time>
      </trkpt>
      <trkpt lat="45.65678" lon="6.53326">
        <ele>1905</ele>
        <time>2022-07-27T15:06:30Z</time>
      </trkpt>
      <trkpt lat="45.65678" lon="6.53326">
        <ele>1905</ele>
        <time>2022-07-27T15:06:31Z</time>
      </trkpt>
      <trkpt lat="45.65678" lon="6.53326">
        <ele>1905</ele>
        <time>2022-07-27T15:06:32Z</time>
      </trkpt>
      <trkpt lat="45.65678" lon="6.53327">
        <ele>1905</ele>
        <time>2022-07-27T15:06:33Z</time>
      </trkpt>
      <trkpt lat="45.65678" lon="6.53328">
        <ele>1905</ele>
        <time>2022-07-27T15:06:34Z</time>
      </trkpt>
      <trkpt lat="45.65677" lon="6.53329">
        <ele>1905</ele>
        <time>2022-07-27T15:06:35Z</time>
      </trkpt>
      <trkpt lat="45.65678" lon="6.5333">
        <ele>1905</ele>
        <time>2022-07-27T15:06:36Z</time>
      </trkpt>
      <trkpt lat="45.65678" lon="6.53331">
        <ele>1905</ele>
        <time>2022-07-27T15:06:37Z</time>
      </trkpt>
      <trkpt lat="45.65678" lon="6.53331">
        <ele>1905</ele>
        <time>2022-07-27T15:06:38Z</time>
      </trkpt>
      <trkpt lat="45.65679" lon="6.53332">
        <ele>1905</ele>
        <time>2022-07-27T15:06:39Z</time>
      </trkpt>
      <trkpt lat="45.6568" lon="6.53332">
        <ele>1905</ele>
        <time>2022-07-27T15:06:40Z</time>
      </trkpt>
      <trkpt lat="45.65681" lon="6.53331">
        <ele>1905</ele>
        <time>2022-07-27T15:06:41Z</time>
      </trkpt>
      <trkpt lat="45.65682" lon="6.53331">
        <ele>1905</ele>
        <time>2022-07-27T15:06:42Z</time>
      </trkpt>
      <trkpt lat="45.65683" lon="6.5333">
        <ele>1905</ele>
        <time>2022-07-27T15:06:43Z</time>
      </trkpt>
      <trkpt lat="45.65684" lon="6.5333">
        <ele>1905</ele>
        <time>2022-07-27T15:06:44Z</time>
      </trkpt>
      <trkpt lat="45.65685" lon="6.53329">
        <ele>1905</ele>
        <time>2022-07-27T15:06:45Z</time>
      </trkpt>
      <trkpt lat="45.65686" lon="6.53328">
        <ele>1906</ele>
        <time>2022-07-27T15:06:46Z</time>
      </trkpt>
      <trkpt lat="45.65687" lon="6.53328">
        <ele>1906</ele>
        <time>2022-07-27T15:06:47Z</time>
      </trkpt>
      <trkpt lat="45.65688" lon="6.53327">
        <ele>1906</ele>
        <time>2022-07-27T15:06:48Z</time>
      </trkpt>
      <trkpt lat="45.6569" lon="6.53327">
        <ele>1906</ele>
        <time>2022-07-27T15:06:49Z</time>
      </trkpt>
      <trkpt lat="45.65691" lon="6.53326">
        <ele>1906</ele>
        <time>2022-07-27T15:06:50Z</time>
      </trkpt>
      <trkpt lat="45.65692" lon="6.53326">
        <ele>1906</ele>
        <time>2022-07-27T15:06:51Z</time>
      </trkpt>
      <trkpt lat="45.65693" lon="6.53326">
        <ele>1906</ele>
        <time>2022-07-27T15:06:52Z</time>
      </trkpt>
      <trkpt lat="45.65694" lon="6.53325">
        <ele>1906</ele>
        <time>2022-07-27T15:06:53Z</time>
      </trkpt>
      <trkpt lat="45.65694" lon="6.53326">
        <ele>1906</ele>
        <time>2022-07-27T15:06:54Z</time>
      </trkpt>
      <trkpt lat="45.65695" lon="6.53326">
        <ele>1906</ele>
        <time>2022-07-27T15:06:55Z</time>
      </trkpt>
      <trkpt lat="45.65696" lon="6.53327">
        <ele>1907</ele>
        <time>2022-07-27T15:07:05Z</time>
      </trkpt>
      <trkpt lat="45.65695" lon="6.53327">
        <ele>1907</ele>
        <time>2022-07-27T15:07:06Z</time>
      </trkpt>
      <trkpt lat="45.65695" lon="6.53328">
        <ele>1907</ele>
        <time>2022-07-27T15:07:07Z</time>
      </trkpt>
      <trkpt lat="45.65694" lon="6.53328">
        <ele>1907</ele>
        <time>2022-07-27T15:07:08Z</time>
      </trkpt>
      <trkpt lat="45.65694" lon="6.53329">
        <ele>1907</ele>
        <time>2022-07-27T15:07:09Z</time>
      </trkpt>
      <trkpt lat="45.65693" lon="6.53329">
        <ele>1907</ele>
        <time>2022-07-27T15:07:10Z</time>
      </trkpt>
      <trkpt lat="45.65691" lon="6.53329">
        <ele>1907</ele>
        <time>2022-07-27T15:07:11Z</time>
      </trkpt>
      <trkpt lat="45.6569" lon="6.5333">
        <ele>1907</ele>
        <time>2022-07-27T15:07:12Z</time>
      </trkpt>
      <trkpt lat="45.65689" lon="6.5333">
        <ele>1907</ele>
        <time>2022-07-27T15:07:13Z</time>
      </trkpt>
      <trkpt lat="45.65688" lon="6.5333">
        <ele>1907</ele>
        <time>2022-07-27T15:07:14Z</time>
      </trkpt>
      <trkpt lat="45.65687" lon="6.5333">
        <ele>1907</ele>
        <time>2022-07-27T15:07:15Z</time>
      </trkpt>
      <trkpt lat="45.65685" lon="6.5333">
        <ele>1907</ele>
        <time>2022-07-27T15:07:16Z</time>
      </trkpt>
      <trkpt lat="45.65684" lon="6.5333">
        <ele>1907</ele>
        <time>2022-07-27T15:07:17Z</time>
      </trkpt>
      <trkpt lat="45.65683" lon="6.5333">
        <ele>1907</ele>
        <time>2022-07-27T15:07:18Z</time>
      </trkpt>
      <trkpt lat="45.65682" lon="6.5333">
        <ele>1907</ele>
        <time>2022-07-27T15:07:19Z</time>
      </trkpt>
      <trkpt lat="45.65681" lon="6.5333">
        <ele>1907</ele>
        <time>2022-07-27T15:07:20Z</time>
      </trkpt>
      <trkpt lat="45.6568" lon="6.5333">
        <ele>1907</ele>
        <time>2022-07-27T15:07:21Z</time>
      </trkpt>
      <trkpt lat="45.65679" lon="6.5333">
        <ele>1906</ele>
        <time>2022-07-27T15:07:22Z</time>
      </trkpt>
      <trkpt lat="45.65678" lon="6.53329">
        <ele>1906</ele>
        <time>2022-07-27T15:07:23Z</time>
      </trkpt>
      <trkpt lat="45.65677" lon="6.53329">
        <ele>1906</ele>
        <time>2022-07-27T15:07:35Z</time>
      </trkpt>
      <trkpt lat="45.65677" lon="6.53328">
        <ele>1906</ele>
        <time>2022-07-27T15:07:36Z</time>
      </trkpt>
      <trkpt lat="45.65676" lon="6.53327">
        <ele>1905</ele>
        <time>2022-07-27T15:07:37Z</time>
      </trkpt>
      <trkpt lat="45.65677" lon="6.53327">
        <ele>1905</ele>
        <time>2022-07-27T15:07:38Z</time>
      </trkpt>
      <trkpt lat="45.65677" lon="6.53326">
        <ele>1905</ele>
        <time>2022-07-27T15:07:39Z</time>
      </trkpt>
      <trkpt lat="45.65677" lon="6.53326">
        <ele>1905</ele>
        <time>2022-07-27T15:07:40Z</time>
      </trkpt>
      <trkpt lat="45.65677" lon="6.53326">
        <ele>1905</ele>
        <time>2022-07-27T15:07:41Z</time>
      </trkpt>
      <trkpt lat="45.65678" lon="6.53325">
        <ele>1905</ele>
        <time>2022-07-27T15:07:42Z</time>
      </trkpt>
      <trkpt lat="45.65678" lon="6.53325">
        <ele>1905</ele>
        <time>2022-07-27T15:07:43Z</time>
      </trkpt>
      <trkpt lat="45.65679" lon="6.53325">
        <ele>1905</ele>
        <time>2022-07-27T15:07:44Z</time>
      </trkpt>
      <trkpt lat="45.6568" lon="6.53325">
        <ele>1905</ele>
        <time>2022-07-27T15:07:45Z</time>
      </trkpt>
      <trkpt lat="45.6568" lon="6.53324">
        <ele>1905</ele>
        <time>2022-07-27T15:07:46Z</time>
      </trkpt>
      <trkpt lat="45.65681" lon="6.53324">
        <ele>1905</ele>
        <time>2022-07-27T15:07:47Z</time>
      </trkpt>
      <trkpt lat="45.65682" lon="6.53324">
        <ele>1905</ele>
        <time>2022-07-27T15:07:48Z</time>
      </trkpt>
      <trkpt lat="45.65684" lon="6.53325">
        <ele>1905</ele>
        <time>2022-07-27T15:07:49Z</time>
      </trkpt>
      <trkpt lat="45.65685" lon="6.53325">
        <ele>1905</ele>
        <time>2022-07-27T15:07:50Z</time>
      </trkpt>
      <trkpt lat="45.65686" lon="6.53325">
        <ele>1906</ele>
        <time>2022-07-27T15:07:51Z</time>
      </trkpt>
      <trkpt lat="45.65687" lon="6.53325">
        <ele>1906</ele>
        <time>2022-07-27T15:07:52Z</time>
      </trkpt>
      <trkpt lat="45.65688" lon="6.53326">
        <ele>1906</ele>
        <time>2022-07-27T15:07:53Z</time>
      </trkpt>
      <trkpt lat="45.65689" lon="6.53326">
        <ele>1906</ele>
        <time>2022-07-27T15:07:54Z</time>
      </trkpt>
      <trkpt lat="45.6569" lon="6.53326">
        <ele>1906</ele>
        <time>2022-07-27T15:07:55Z</time>
      </trkpt>
      <trkpt lat="45.65691" lon="6.53326">
        <ele>1906</ele>
        <time>2022-07-27T15:07:56Z</time>
      </trkpt>
      <trkpt lat="45.65692" lon="6.53326">
        <ele>1906</ele>
        <time>2022-07-27T15:07:57Z</time>
      </trkpt>
      <trkpt lat="45.65693" lon="6.53327">
        <ele>1906</ele>
        <time>2022-07-27T15:07:58Z</time>
      </trkpt>
      <trkpt lat="45.65694" lon="6.53327">
        <ele>1906</ele>
        <time>2022-07-27T15:07:59Z</time>
      </trkpt>
      <trkpt lat="45.65695" lon="6.53327">
        <ele>1906</ele>
        <time>2022-07-27T15:08:00Z</time>
      </trkpt>
      <trkpt lat="45.65695" lon="6.53328">
        <ele>1907</ele>
        <time>2022-07-27T15:08:46Z</time>
      </trkpt>
      <trkpt lat="45.65696" lon="6.53329">
        <ele>1907</ele>
        <time>2022-07-27T15:08:47Z</time>
      </trkpt>
      <trkpt lat="45.65696" lon="6.53329">
        <ele>1907</ele>
        <time>2022-07-27T15:08:48Z</time>
      </trkpt>
      <trkpt lat="45.65697" lon="6.5333">
        <ele>1907</ele>
        <time>2022-07-27T15:08:49Z</time>
      </trkpt>
      <trkpt lat="45.65697" lon="6.53331">
        <ele>1907</ele>
        <time>2022-07-27T15:08:50Z</time>
      </trkpt>
      <trkpt lat="45.65698" lon="6.53333">
        <ele>1907</ele>
        <time>2022-07-27T15:08:51Z</time>
      </trkpt>
      <trkpt lat="45.65699" lon="6.53334">
        <ele>1907</ele>
        <time>2022-07-27T15:08:52Z</time>
      </trkpt>
      <trkpt lat="45.65699" lon="6.53335">
        <ele>1907</ele>
        <time>2022-07-27T15:08:53Z</time>
      </trkpt>
      <trkpt lat="45.657" lon="6.53337">
        <ele>1907</ele>
        <time>2022-07-27T15:08:54Z</time>
      </trkpt>
      <trkpt lat="45.65701" lon="6.53338">
        <ele>1907</ele>
        <time>2022-07-27T15:08:55Z</time>
      </trkpt>
      <trkpt lat="45.65702" lon="6.53339">
        <ele>1907</ele>
        <time>2022-07-27T15:08:56Z</time>
      </trkpt>
      <trkpt lat="45.65703" lon="6.5334">
        <ele>1907</ele>
        <time>2022-07-27T15:09:20Z</time>
      </trkpt>
      <trkpt lat="45.65703" lon="6.53341">
        <ele>1907</ele>
        <time>2022-07-27T15:09:21Z</time>
      </trkpt>
      <trkpt lat="45.65704" lon="6.53341">
        <ele>1907</ele>
        <time>2022-07-27T15:09:22Z</time>
      </trkpt>
      <trkpt lat="45.65704" lon="6.53342">
        <ele>1907</ele>
        <time>2022-07-27T15:09:23Z</time>
      </trkpt>
      <trkpt lat="45.65705" lon="6.53343">
        <ele>1907</ele>
        <time>2022-07-27T15:09:24Z</time>
      </trkpt>
      <trkpt lat="45.65706" lon="6.53343">
        <ele>1908</ele>
        <time>2022-07-27T15:10:41Z</time>
      </trkpt>
      <trkpt lat="45.65706" lon="6.53343">
        <ele>1908</ele>
        <time>2022-07-27T15:10:42Z</time>
      </trkpt>
      <trkpt lat="45.65706" lon="6.53344">
        <ele>1908</ele>
        <time>2022-07-27T15:10:43Z</time>
      </trkpt>
      <trkpt lat="45.65706" lon="6.53344">
        <ele>1908</ele>
        <time>2022-07-27T15:10:44Z</time>
      </trkpt>
      <trkpt lat="45.65706" lon="6.53344">
        <ele>1908</ele>
        <time>2022-07-27T15:10:45Z</time>
      </trkpt>
      <trkpt lat="45.65705" lon="6.53344">
        <ele>1908</ele>
        <time>2022-07-27T15:10:46Z</time>
      </trkpt>
      <trkpt lat="45.65705" lon="6.53344">
        <ele>1908</ele>
        <time>2022-07-27T15:10:47Z</time>
      </trkpt>
      <trkpt lat="45.65705" lon="6.53344">
        <ele>1907</ele>
        <time>2022-07-27T15:11:51Z</time>
      </trkpt>
      <trkpt lat="45.65705" lon="6.53344">
        <ele>1907</ele>
        <time>2022-07-27T15:11:52Z</time>
      </trkpt>
      <trkpt lat="45.65705" lon="6.53344">
        <ele>1907</ele>
        <time>2022-07-27T15:11:53Z</time>
      </trkpt>
      <trkpt lat="45.65704" lon="6.53343">
        <ele>1907</ele>
        <time>2022-07-27T15:11:54Z</time>
      </trkpt>
      <trkpt lat="45.65704" lon="6.53343">
        <ele>1907</ele>
        <time>2022-07-27T15:11:55Z</time>
      </trkpt>
      <trkpt lat="45.65704" lon="6.53342">
        <ele>1907</ele>
        <time>2022-07-27T15:12:01Z</time>
      </trkpt>
      <trkpt lat="45.65704" lon="6.53342">
        <ele>1907</ele>
        <time>2022-07-27T15:12:02Z</time>
      </trkpt>
      <trkpt lat="45.65704" lon="6.53342">
        <ele>1907</ele>
        <time>2022-07-27T15:12:03Z</time>
      </trkpt>
      <trkpt lat="45.65704" lon="6.53342">
        <ele>1907</ele>
        <time>2022-07-27T15:12:04Z</time>
      </trkpt>
      <trkpt lat="45.65705" lon="6.53343">
        <ele>1907</ele>
        <time>2022-07-27T15:12:05Z</time>
      </trkpt>
      <trkpt lat="45.65705" lon="6.53343">
        <ele>1907</ele>
        <time>2022-07-27T15:12:06Z</time>
      </trkpt>
      <trkpt lat="45.65706" lon="6.53343">
        <ele>1907</ele>
        <time>2022-07-27T15:12:07Z</time>
      </trkpt>
      <trkpt lat="45.65706" lon="6.53343">
        <ele>1907</ele>
        <time>2022-07-27T15:13:19Z</time>
      </trkpt>
      <trkpt lat="45.65706" lon="6.53343">
        <ele>1907</ele>
        <time>2022-07-27T15:13:20Z</time>
      </trkpt>
      <trkpt lat="45.65706" lon="6.53343">
        <ele>1908</ele>
        <time>2022-07-27T15:13:21Z</time>
      </trkpt>
      <trkpt lat="45.65706" lon="6.53343">
        <ele>1908</ele>
        <time>2022-07-27T15:13:22Z</time>
      </trkpt>
      <trkpt lat="45.65705" lon="6.53343">
        <ele>1908</ele>
        <time>2022-07-27T15:13:23Z</time>
      </trkpt>
      <trkpt lat="45.65705" lon="6.53342">
        <ele>1908</ele>
        <time>2022-07-27T15:13:24Z</time>
      </trkpt>
      <trkpt lat="45.65704" lon="6.53342">
        <ele>1908</ele>
        <time>2022-07-27T15:13:25Z</time>
      </trkpt>
      <trkpt lat="45.65704" lon="6.5334">
        <ele>1907</ele>
        <time>2022-07-27T15:14:29Z</time>
      </trkpt>
      <trkpt lat="45.65704" lon="6.5334">
        <ele>1907</ele>
        <time>2022-07-27T15:14:30Z</time>
      </trkpt>
      <trkpt lat="45.65704" lon="6.5334">
        <ele>1908</ele>
        <time>2022-07-27T15:14:31Z</time>
      </trkpt>
      <trkpt lat="45.65703" lon="6.5334">
        <ele>1908</ele>
        <time>2022-07-27T15:14:32Z</time>
      </trkpt>
      <trkpt lat="45.65702" lon="6.5334">
        <ele>1908</ele>
        <time>2022-07-27T15:14:33Z</time>
      </trkpt>
      <trkpt lat="45.65701" lon="6.5334">
        <ele>1908</ele>
        <time>2022-07-27T15:14:34Z</time>
      </trkpt>
      <trkpt lat="45.657" lon="6.53341">
        <ele>1908</ele>
        <time>2022-07-27T15:14:35Z</time>
      </trkpt>
      <trkpt lat="45.65699" lon="6.53342">
        <ele>1908</ele>
        <time>2022-07-27T15:14:36Z</time>
      </trkpt>
      <trkpt lat="45.65698" lon="6.53343">
        <ele>1908</ele>
        <time>2022-07-27T15:14:37Z</time>
      </trkpt>
      <trkpt lat="45.65697" lon="6.53344">
        <ele>1908</ele>
        <time>2022-07-27T15:14:38Z</time>
      </trkpt>
      <trkpt lat="45.65696" lon="6.53345">
        <ele>1908</ele>
        <time>2022-07-27T15:14:39Z</time>
      </trkpt>
      <trkpt lat="45.65695" lon="6.53346">
        <ele>1908</ele>
        <time>2022-07-27T15:14:40Z</time>
      </trkpt>
      <trkpt lat="45.65694" lon="6.53347">
        <ele>1908</ele>
        <time>2022-07-27T15:14:41Z</time>
      </trkpt>
      <trkpt lat="45.65693" lon="6.53349">
        <ele>1908</ele>
        <time>2022-07-27T15:15:41Z</time>
      </trkpt>
      <trkpt lat="45.65693" lon="6.53349">
        <ele>1907</ele>
        <time>2022-07-27T15:15:42Z</time>
      </trkpt>
      <trkpt lat="45.65693" lon="6.53349">
        <ele>1907</ele>
        <time>2022-07-27T15:15:43Z</time>
      </trkpt>
      <trkpt lat="45.65693" lon="6.53348">
        <ele>1907</ele>
        <time>2022-07-27T15:15:44Z</time>
      </trkpt>
      <trkpt lat="45.65693" lon="6.53348">
        <ele>1907</ele>
        <time>2022-07-27T15:15:45Z</time>
      </trkpt>
      <trkpt lat="45.65694" lon="6.53347">
        <ele>1907</ele>
        <time>2022-07-27T15:15:46Z</time>
      </trkpt>
      <trkpt lat="45.65695" lon="6.53346">
        <ele>1907</ele>
        <time>2022-07-27T15:15:47Z</time>
      </trkpt>
      <trkpt lat="45.65696" lon="6.53345">
        <ele>1907</ele>
        <time>2022-07-27T15:15:48Z</time>
      </trkpt>
      <trkpt lat="45.65696" lon="6.53344">
        <ele>1907</ele>
        <time>2022-07-27T15:15:49Z</time>
      </trkpt>
      <trkpt lat="45.65697" lon="6.53343">
        <ele>1907</ele>
        <time>2022-07-27T15:15:50Z</time>
      </trkpt>
      <trkpt lat="45.65698" lon="6.53342">
        <ele>1907</ele>
        <time>2022-07-27T15:15:51Z</time>
      </trkpt>
      <trkpt lat="45.65699" lon="6.53341">
        <ele>1907</ele>
        <time>2022-07-27T15:15:52Z</time>
      </trkpt>
      <trkpt lat="45.65699" lon="6.53341">
        <ele>1907</ele>
        <time>2022-07-27T15:15:53Z</time>
      </trkpt>
      <trkpt lat="45.657" lon="6.5334">
        <ele>1907</ele>
        <time>2022-07-27T15:16:34Z</time>
      </trkpt>
      <trkpt lat="45.657" lon="6.5334">
        <ele>1907</ele>
        <time>2022-07-27T15:16:35Z</time>
      </trkpt>
      <trkpt lat="45.657" lon="6.5334">
        <ele>1907</ele>
        <time>2022-07-27T15:16:36Z</time>
      </trkpt>
      <trkpt lat="45.65699" lon="6.53341">
        <ele>1907</ele>
        <time>2022-07-27T15:16:37Z</time>
      </trkpt>
      <trkpt lat="45.65699" lon="6.53341">
        <ele>1907</ele>
        <time>2022-07-27T15:16:38Z</time>
      </trkpt>
      <trkpt lat="45.65698" lon="6.53343">
        <ele>1907</ele>
        <time>2022-07-27T15:16:39Z</time>
      </trkpt>
      <trkpt lat="45.65697" lon="6.53344">
        <ele>1907</ele>
        <time>2022-07-27T15:16:40Z</time>
      </trkpt>
      <trkpt lat="45.65696" lon="6.53345">
        <ele>1907</ele>
        <time>2022-07-27T15:16:41Z</time>
      </trkpt>
      <trkpt lat="45.65695" lon="6.53346">
        <ele>1907</ele>
        <time>2022-07-27T15:16:42Z</time>
      </trkpt>
      <trkpt lat="45.65694" lon="6.53348">
        <ele>1907</ele>
        <time>2022-07-27T15:17:17Z</time>
      </trkpt>
      <trkpt lat="45.65694" lon="6.53349">
        <ele>1907</ele>
        <time>2022-07-27T15:17:18Z</time>
      </trkpt>
      <trkpt lat="45.65694" lon="6.53349">
        <ele>1907</ele>
        <time>2022-07-27T15:17:19Z</time>
      </trkpt>
      <trkpt lat="45.65694" lon="6.53349">
        <ele>1907</ele>
        <time>2022-07-27T15:17:20Z</time>
      </trkpt>
      <trkpt lat="45.65694" lon="6.53348">
        <ele>1907</ele>
        <time>2022-07-27T15:17:21Z</time>
      </trkpt>
      <trkpt lat="45.65694" lon="6.53348">
        <ele>1907</ele>
        <time>2022-07-27T15:17:22Z</time>
      </trkpt>
      <trkpt lat="45.65694" lon="6.53347">
        <ele>1907</ele>
        <time>2022-07-27T15:17:23Z</time>
      </trkpt>
      <trkpt lat="45.65694" lon="6.53346">
        <ele>1907</ele>
        <time>2022-07-27T15:17:24Z</time>
      </trkpt>
      <trkpt lat="45.65695" lon="6.53345">
        <ele>1907</ele>
        <time>2022-07-27T15:17:25Z</time>
      </trkpt>
      <trkpt lat="45.65695" lon="6.53344">
        <ele>1907</ele>
        <time>2022-07-27T15:17:26Z</time>
      </trkpt>
      <trkpt lat="45.65696" lon="6.53344">
        <ele>1907</ele>
        <time>2022-07-27T15:17:27Z</time>
      </trkpt>
      <trkpt lat="45.65696" lon="6.53343">
        <ele>1907</ele>
        <time>2022-07-27T15:17:28Z</time>
      </trkpt>
      <trkpt lat="45.65696" lon="6.53342">
        <ele>1907</ele>
        <time>2022-07-27T15:17:29Z</time>
      </trkpt>
      <trkpt lat="45.65697" lon="6.53341">
        <ele>1907</ele>
        <time>2022-07-27T15:17:30Z</time>
      </trkpt>
      <trkpt lat="45.65697" lon="6.5334">
        <ele>1907</ele>
        <time>2022-07-27T15:17:31Z</time>
      </trkpt>
      <trkpt lat="45.65698" lon="6.5334">
        <ele>1907</ele>
        <time>2022-07-27T15:17:32Z</time>
      </trkpt>
      <trkpt lat="45.65699" lon="6.53339">
        <ele>1907</ele>
        <time>2022-07-27T15:17:33Z</time>
      </trkpt>
      <trkpt lat="45.65699" lon="6.53338">
        <ele>1907</ele>
        <time>2022-07-27T15:17:34Z</time>
      </trkpt>
      <trkpt lat="45.657" lon="6.53337">
        <ele>1907</ele>
        <time>2022-07-27T15:17:35Z</time>
      </trkpt>
      <trkpt lat="45.65702" lon="6.53336">
        <ele>1907</ele>
        <time>2022-07-27T15:17:52Z</time>
      </trkpt>
      <trkpt lat="45.65702" lon="6.53336">
        <ele>1907</ele>
        <time>2022-07-27T15:17:53Z</time>
      </trkpt>
      <trkpt lat="45.65702" lon="6.53336">
        <ele>1907</ele>
        <time>2022-07-27T15:17:54Z</time>
      </trkpt>
      <trkpt lat="45.65703" lon="6.53337">
        <ele>1907</ele>
        <time>2022-07-27T15:17:55Z</time>
      </trkpt>
      <trkpt lat="45.65703" lon="6.53338">
        <ele>1907</ele>
        <time>2022-07-27T15:17:56Z</time>
      </trkpt>
      <trkpt lat="45.65704" lon="6.53339">
        <ele>1907</ele>
        <time>2022-07-27T15:18:04Z</time>
      </trkpt>
      <trkpt lat="45.65704" lon="6.53339">
        <ele>1907</ele>
        <time>2022-07-27T15:18:05Z</time>
      </trkpt>
      <trkpt lat="45.65704" lon="6.53339">
        <ele>1907</ele>
        <time>2022-07-27T15:18:06Z</time>
      </trkpt>
      <trkpt lat="45.65703" lon="6.5334">
        <ele>1907</ele>
        <time>2022-07-27T15:18:07Z</time>
      </trkpt>
      <trkpt lat="45.65702" lon="6.5334">
        <ele>1907</ele>
        <time>2022-07-27T15:18:08Z</time>
      </trkpt>
      <trkpt lat="45.65701" lon="6.5334">
        <ele>1907</ele>
        <time>2022-07-27T15:18:09Z</time>
      </trkpt>
      <trkpt lat="45.657" lon="6.5334">
        <ele>1907</ele>
        <time>2022-07-27T15:18:10Z</time>
      </trkpt>
      <trkpt lat="45.65699" lon="6.53339">
        <ele>1907</ele>
        <time>2022-07-27T15:18:11Z</time>
      </trkpt>
      <trkpt lat="45.65698" lon="6.53339">
        <ele>1907</ele>
        <time>2022-07-27T15:18:12Z</time>
      </trkpt>
      <trkpt lat="45.65697" lon="6.53339">
        <ele>1907</ele>
        <time>2022-07-27T15:18:13Z</time>
      </trkpt>
      <trkpt lat="45.65696" lon="6.53338">
        <ele>1907</ele>
        <time>2022-07-27T15:18:14Z</time>
      </trkpt>
      <trkpt lat="45.65695" lon="6.53338">
        <ele>1907</ele>
        <time>2022-07-27T15:18:15Z</time>
      </trkpt>
      <trkpt lat="45.65694" lon="6.53337">
        <ele>1907</ele>
        <time>2022-07-27T15:18:16Z</time>
      </trkpt>
      <trkpt lat="45.65693" lon="6.53336">
        <ele>1907</ele>
        <time>2022-07-27T15:18:17Z</time>
      </trkpt>
      <trkpt lat="45.65692" lon="6.53335">
        <ele>1907</ele>
        <time>2022-07-27T15:18:18Z</time>
      </trkpt>
      <trkpt lat="45.65692" lon="6.53333">
        <ele>1907</ele>
        <time>2022-07-27T15:18:19Z</time>
      </trkpt>
      <trkpt lat="45.65691" lon="6.53332">
        <ele>1907</ele>
        <time>2022-07-27T15:18:20Z</time>
      </trkpt>
      <trkpt lat="45.6569" lon="6.53331">
        <ele>1907</ele>
        <time>2022-07-27T15:18:21Z</time>
      </trkpt>
      <trkpt lat="45.6569" lon="6.53329">
        <ele>1906</ele>
        <time>2022-07-27T15:18:22Z</time>
      </trkpt>
      <trkpt lat="45.65689" lon="6.53328">
        <ele>1906</ele>
        <time>2022-07-27T15:18:23Z</time>
      </trkpt>
      <trkpt lat="45.65689" lon="6.53327">
        <ele>1906</ele>
        <time>2022-07-27T15:18:24Z</time>
      </trkpt>
      <trkpt lat="45.65688" lon="6.53325">
        <ele>1906</ele>
        <time>2022-07-27T15:18:25Z</time>
      </trkpt>
      <trkpt lat="45.65687" lon="6.53324">
        <ele>1906</ele>
        <time>2022-07-27T15:18:26Z</time>
      </trkpt>
      <trkpt lat="45.65686" lon="6.53323">
        <ele>1906</ele>
        <time>2022-07-27T15:18:27Z</time>
      </trkpt>
      <trkpt lat="45.65686" lon="6.53322">
        <ele>1906</ele>
        <time>2022-07-27T15:18:28Z</time>
      </trkpt>
      <trkpt lat="45.65685" lon="6.53322">
        <ele>1906</ele>
        <time>2022-07-27T15:18:29Z</time>
      </trkpt>
      <trkpt lat="45.65684" lon="6.53321">
        <ele>1906</ele>
        <time>2022-07-27T15:18:30Z</time>
      </trkpt>
      <trkpt lat="45.65683" lon="6.53321">
        <ele>1906</ele>
        <time>2022-07-27T15:18:31Z</time>
      </trkpt>
      <trkpt lat="45.65682" lon="6.5332">
        <ele>1905</ele>
        <time>2022-07-27T15:18:32Z</time>
      </trkpt>
      <trkpt lat="45.65681" lon="6.5332">
        <ele>1905</ele>
        <time>2022-07-27T15:18:33Z</time>
      </trkpt>
      <trkpt lat="45.65679" lon="6.5332">
        <ele>1905</ele>
        <time>2022-07-27T15:18:34Z</time>
      </trkpt>
      <trkpt lat="45.65678" lon="6.53319">
        <ele>1905</ele>
        <time>2022-07-27T15:18:35Z</time>
      </trkpt>
      <trkpt lat="45.65677" lon="6.53319">
        <ele>1905</ele>
        <time>2022-07-27T15:18:36Z</time>
      </trkpt>
      <trkpt lat="45.65676" lon="6.53318">
        <ele>1905</ele>
        <time>2022-07-27T15:18:37Z</time>
      </trkpt>
      <trkpt lat="45.65675" lon="6.53317">
        <ele>1905</ele>
        <time>2022-07-27T15:18:38Z</time>
      </trkpt>
      <trkpt lat="45.65674" lon="6.53317">
        <ele>1905</ele>
        <time>2022-07-27T15:18:39Z</time>
      </trkpt>
      <trkpt lat="45.65673" lon="6.53316">
        <ele>1905</ele>
        <time>2022-07-27T15:18:40Z</time>
      </trkpt>
      <trkpt lat="45.65672" lon="6.53316">
        <ele>1905</ele>
        <time>2022-07-27T15:18:41Z</time>
      </trkpt>
      <trkpt lat="45.65671" lon="6.53315">
        <ele>1904</ele>
        <time>2022-07-27T15:18:42Z</time>
      </trkpt>
      <trkpt lat="45.6567" lon="6.53314">
        <ele>1904</ele>
        <time>2022-07-27T15:18:53Z</time>
      </trkpt>
      <trkpt lat="45.6567" lon="6.53313">
        <ele>1904</ele>
        <time>2022-07-27T15:18:54Z</time>
      </trkpt>
      <trkpt lat="45.6567" lon="6.53312">
        <ele>1904</ele>
        <time>2022-07-27T15:18:55Z</time>
      </trkpt>
      <trkpt lat="45.65669" lon="6.53312">
        <ele>1904</ele>
        <time>2022-07-27T15:18:56Z</time>
      </trkpt>
      <trkpt lat="45.65669" lon="6.53311">
        <ele>1903</ele>
        <time>2022-07-27T15:18:57Z</time>
      </trkpt>
      <trkpt lat="45.65668" lon="6.5331">
        <ele>1903</ele>
        <time>2022-07-27T15:18:58Z</time>
      </trkpt>
      <trkpt lat="45.65668" lon="6.53309">
        <ele>1903</ele>
        <time>2022-07-27T15:18:59Z</time>
      </trkpt>
      <trkpt lat="45.65667" lon="6.53307">
        <ele>1903</ele>
        <time>2022-07-27T15:19:00Z</time>
      </trkpt>
      <trkpt lat="45.65666" lon="6.53306">
        <ele>1903</ele>
        <time>2022-07-27T15:19:01Z</time>
      </trkpt>
      <trkpt lat="45.65665" lon="6.53305">
        <ele>1903</ele>
        <time>2022-07-27T15:19:02Z</time>
      </trkpt>
      <trkpt lat="45.65665" lon="6.53304">
        <ele>1903</ele>
        <time>2022-07-27T15:19:03Z</time>
      </trkpt>
      <trkpt lat="45.65664" lon="6.53302">
        <ele>1903</ele>
        <time>2022-07-27T15:19:04Z</time>
      </trkpt>
      <trkpt lat="45.65663" lon="6.53301">
        <ele>1903</ele>
        <time>2022-07-27T15:19:05Z</time>
      </trkpt>
      <trkpt lat="45.65662" lon="6.53299">
        <ele>1903</ele>
        <time>2022-07-27T15:19:06Z</time>
      </trkpt>
      <trkpt lat="45.65661" lon="6.53298">
        <ele>1903</ele>
        <time>2022-07-27T15:19:07Z</time>
      </trkpt>
      <trkpt lat="45.6566" lon="6.53296">
        <ele>1903</ele>
        <time>2022-07-27T15:19:08Z</time>
      </trkpt>
      <trkpt lat="45.6566" lon="6.53295">
        <ele>1903</ele>
        <time>2022-07-27T15:19:09Z</time>
      </trkpt>
      <trkpt lat="45.65659" lon="6.53294">
        <ele>1903</ele>
        <time>2022-07-27T15:19:10Z</time>
      </trkpt>
      <trkpt lat="45.65658" lon="6.53292">
        <ele>1903</ele>
        <time>2022-07-27T15:19:11Z</time>
      </trkpt>
      <trkpt lat="45.65657" lon="6.53291">
        <ele>1903</ele>
        <time>2022-07-27T15:19:12Z</time>
      </trkpt>
      <trkpt lat="45.65657" lon="6.53289">
        <ele>1903</ele>
        <time>2022-07-27T15:19:13Z</time>
      </trkpt>
      <trkpt lat="45.65656" lon="6.53288">
        <ele>1903</ele>
        <time>2022-07-27T15:19:14Z</time>
      </trkpt>
      <trkpt lat="45.65656" lon="6.53286">
        <ele>1903</ele>
        <time>2022-07-27T15:19:15Z</time>
      </trkpt>
      <trkpt lat="45.65655" lon="6.53285">
        <ele>1903</ele>
        <time>2022-07-27T15:19:16Z</time>
      </trkpt>
      <trkpt lat="45.65655" lon="6.53283">
        <ele>1902</ele>
        <time>2022-07-27T15:19:17Z</time>
      </trkpt>
      <trkpt lat="45.65654" lon="6.53281">
        <ele>1902</ele>
        <time>2022-07-27T15:19:18Z</time>
      </trkpt>
      <trkpt lat="45.65654" lon="6.5328">
        <ele>1902</ele>
        <time>2022-07-27T15:19:19Z</time>
      </trkpt>
      <trkpt lat="45.65654" lon="6.53278">
        <ele>1902</ele>
        <time>2022-07-27T15:19:20Z</time>
      </trkpt>
      <trkpt lat="45.65653" lon="6.53277">
        <ele>1902</ele>
        <time>2022-07-27T15:19:21Z</time>
      </trkpt>
      <trkpt lat="45.65653" lon="6.53275">
        <ele>1902</ele>
        <time>2022-07-27T15:19:22Z</time>
      </trkpt>
      <trkpt lat="45.65653" lon="6.53274">
        <ele>1902</ele>
        <time>2022-07-27T15:19:23Z</time>
      </trkpt>
      <trkpt lat="45.65654" lon="6.53272">
        <ele>1902</ele>
        <time>2022-07-27T15:19:24Z</time>
      </trkpt>
      <trkpt lat="45.65654" lon="6.53271">
        <ele>1902</ele>
        <time>2022-07-27T15:19:25Z</time>
      </trkpt>
      <trkpt lat="45.65654" lon="6.5327">
        <ele>1902</ele>
        <time>2022-07-27T15:19:26Z</time>
      </trkpt>
      <trkpt lat="45.65654" lon="6.53268">
        <ele>1902</ele>
        <time>2022-07-27T15:19:27Z</time>
      </trkpt>
      <trkpt lat="45.65654" lon="6.53268">
        <ele>1902</ele>
        <time>2022-07-27T15:19:28Z</time>
      </trkpt>
      <trkpt lat="45.65654" lon="6.53267">
        <ele>1902</ele>
        <time>2022-07-27T15:19:29Z</time>
      </trkpt>
      <trkpt lat="45.65654" lon="6.53267">
        <ele>1902</ele>
        <time>2022-07-27T15:19:30Z</time>
      </trkpt>
      <trkpt lat="45.65653" lon="6.53266">
        <ele>1902</ele>
        <time>2022-07-27T15:19:31Z</time>
      </trkpt>
      <trkpt lat="45.65653" lon="6.53266">
        <ele>1902</ele>
        <time>2022-07-27T15:19:32Z</time>
      </trkpt>
      <trkpt lat="45.65652" lon="6.53265">
        <ele>1902</ele>
        <time>2022-07-27T15:19:33Z</time>
      </trkpt>
      <trkpt lat="45.65652" lon="6.53264">
        <ele>1902</ele>
        <time>2022-07-27T15:19:34Z</time>
      </trkpt>
      <trkpt lat="45.65651" lon="6.53264">
        <ele>1902</ele>
        <time>2022-07-27T15:19:35Z</time>
      </trkpt>
      <trkpt lat="45.65651" lon="6.53263">
        <ele>1902</ele>
        <time>2022-07-27T15:19:36Z</time>
      </trkpt>
      <trkpt lat="45.6565" lon="6.53263">
        <ele>1902</ele>
        <time>2022-07-27T15:19:37Z</time>
      </trkpt>
      <trkpt lat="45.65649" lon="6.53262">
        <ele>1902</ele>
        <time>2022-07-27T15:19:38Z</time>
      </trkpt>
      <trkpt lat="45.65649" lon="6.53262">
        <ele>1902</ele>
        <time>2022-07-27T15:19:39Z</time>
      </trkpt>
      <trkpt lat="45.65648" lon="6.53261">
        <ele>1902</ele>
        <time>2022-07-27T15:19:40Z</time>
      </trkpt>
      <trkpt lat="45.65647" lon="6.53261">
        <ele>1902</ele>
        <time>2022-07-27T15:19:41Z</time>
      </trkpt>
      <trkpt lat="45.65647" lon="6.5326">
        <ele>1902</ele>
        <time>2022-07-27T15:19:42Z</time>
      </trkpt>
      <trkpt lat="45.65646" lon="6.5326">
        <ele>1902</ele>
        <time>2022-07-27T15:19:43Z</time>
      </trkpt>
      <trkpt lat="45.65645" lon="6.53259">
        <ele>1902</ele>
        <time>2022-07-27T15:19:44Z</time>
      </trkpt>
      <trkpt lat="45.65644" lon="6.53259">
        <ele>1902</ele>
        <time>2022-07-27T15:19:45Z</time>
      </trkpt>
      <trkpt lat="45.65643" lon="6.53258">
        <ele>1902</ele>
        <time>2022-07-27T15:19:46Z</time>
      </trkpt>
      <trkpt lat="45.65642" lon="6.53257">
        <ele>1902</ele>
        <time>2022-07-27T15:19:47Z</time>
      </trkpt>
      <trkpt lat="45.65641" lon="6.53257">
        <ele>1902</ele>
        <time>2022-07-27T15:19:48Z</time>
      </trkpt>
      <trkpt lat="45.6564" lon="6.53256">
        <ele>1902</ele>
        <time>2022-07-27T15:19:49Z</time>
      </trkpt>
      <trkpt lat="45.65639" lon="6.53256">
        <ele>1902</ele>
        <time>2022-07-27T15:19:50Z</time>
      </trkpt>
      <trkpt lat="45.65638" lon="6.53255">
        <ele>1902</ele>
        <time>2022-07-27T15:19:51Z</time>
      </trkpt>
      <trkpt lat="45.65637" lon="6.53255">
        <ele>1902</ele>
        <time>2022-07-27T15:19:52Z</time>
      </trkpt>
      <trkpt lat="45.65636" lon="6.53255">
        <ele>1902</ele>
        <time>2022-07-27T15:19:53Z</time>
      </trkpt>
      <trkpt lat="45.65635" lon="6.53254">
        <ele>1902</ele>
        <time>2022-07-27T15:19:54Z</time>
      </trkpt>
      <trkpt lat="45.65634" lon="6.53253">
        <ele>1902</ele>
        <time>2022-07-27T15:19:55Z</time>
      </trkpt>
      <trkpt lat="45.65633" lon="6.53253">
        <ele>1902</ele>
        <time>2022-07-27T15:19:56Z</time>
      </trkpt>
      <trkpt lat="45.65633" lon="6.53252">
        <ele>1902</ele>
        <time>2022-07-27T15:19:57Z</time>
      </trkpt>
      <trkpt lat="45.65632" lon="6.53251">
        <ele>1902</ele>
        <time>2022-07-27T15:19:58Z</time>
      </trkpt>
      <trkpt lat="45.65631" lon="6.5325">
        <ele>1902</ele>
        <time>2022-07-27T15:19:59Z</time>
      </trkpt>
      <trkpt lat="45.6563" lon="6.5325">
        <ele>1902</ele>
        <time>2022-07-27T15:20:00Z</time>
      </trkpt>
      <trkpt lat="45.6563" lon="6.53249">
        <ele>1903</ele>
        <time>2022-07-27T15:20:01Z</time>
      </trkpt>
      <trkpt lat="45.65629" lon="6.53248">
        <ele>1903</ele>
        <time>2022-07-27T15:20:02Z</time>
      </trkpt>
      <trkpt lat="45.65628" lon="6.53247">
        <ele>1903</ele>
        <time>2022-07-27T15:20:03Z</time>
      </trkpt>
      <trkpt lat="45.65627" lon="6.53247">
        <ele>1903</ele>
        <time>2022-07-27T15:20:04Z</time>
      </trkpt>
      <trkpt lat="45.65626" lon="6.53246">
        <ele>1903</ele>
        <time>2022-07-27T15:20:05Z</time>
      </trkpt>
      <trkpt lat="45.65626" lon="6.53246">
        <ele>1903</ele>
        <time>2022-07-27T15:20:06Z</time>
      </trkpt>
      <trkpt lat="45.65625" lon="6.53246">
        <ele>1903</ele>
        <time>2022-07-27T15:20:07Z</time>
      </trkpt>
      <trkpt lat="45.65624" lon="6.53245">
        <ele>1903</ele>
        <time>2022-07-27T15:20:08Z</time>
      </trkpt>
      <trkpt lat="45.65623" lon="6.53245">
        <ele>1903</ele>
        <time>2022-07-27T15:20:09Z</time>
      </trkpt>
      <trkpt lat="45.65607" lon="6.53229">
        <ele>1901.1</ele>
      </trkpt>
      <trkpt lat="45.65594" lon="6.53213">
        <ele>1904.7</ele>
      </trkpt>
      <trkpt lat="45.65583" lon="6.53205">
        <ele>1904.8</ele>
      </trkpt>
      <trkpt lat="45.65571" lon="6.53196">
        <ele>1907.6</ele>
      </trkpt>
      <trkpt lat="45.65554" lon="6.5318">
        <ele>1913.3</ele>
      </trkpt>
      <trkpt lat="45.65537" lon="6.53162">
        <ele>1919.9</ele>
      </trkpt>
      <trkpt lat="45.65524" lon="6.53154">
        <ele>1921.6</ele>
        <extensions>
          <visugpx:TrkExtension xmlns:visugpx="https://www.visugpx.com/editgpx/">
            <visugpx:node>1</visugpx:node>
            </visugpx:TrkExtension>
        </extensions>
      </trkpt>
    </trkseg>
  </trk>
</gpx>